
Distance (Route):
Temperature : 20.0°C
Humidity : 48.4%
Pressure : 973.0hPa| Receiver | Frames | First received | Last received |
|---|---|---|---|
| BIOWL1-15 | 544 | 2026-09-01 16:57:44 | 2026-09-01 18:38:34 |
| DM0DOS-11 | 428 | 2026-09-01 16:57:33 | 2026-09-01 18:39:20 |
| DL1XH-west | 238 | 2026-09-01 17:38:10 | 2026-09-01 18:21:26 |
| DO3MHA-11 | 199 | 2026-09-01 17:13:08 | 2026-09-01 18:35:31 |
| DL1XH1-15 | 178 | 2026-09-01 17:40:12 | 2026-09-01 18:21:20 |
| DB0UT-9 | 115 | 2026-09-01 16:35:03 | 2026-09-01 18:51:34 |
| DK5PH-5 | 113 | 2026-09-01 16:52:40 | 2026-09-01 18:49:12 |
| DB0UT-7 | 110 | 2026-09-01 16:35:56 | 2026-09-01 18:52:05 |
| HSKMA3-T | 109 | 2026-09-01 17:48:27 | 2026-09-01 18:24:01 |
| DB0ND-19 | 91 | 2026-09-01 16:47:01 | 2026-09-01 18:51:40 |
| DL1ZP-14 | 89 | 2026-09-01 16:49:15 | 2026-09-01 18:51:54 |
| DF7PN | 78 | 2026-09-01 16:49:54 | 2026-09-01 18:52:35 |
| CB1BUN | 77 | 2026-09-01 16:47:39 | 2026-09-01 18:39:39 |
| DL1XH-15 | 74 | 2026-09-01 17:56:33 | 2026-09-01 18:13:11 |
| DB0NH | 68 | 2026-09-01 17:23:57 | 2026-09-01 18:47:40 |
| BIOWL9-15 | 61 | 2026-09-01 16:58:06 | 2026-09-01 18:38:59 |
| DJ2DS-15 | 61 | 2026-09-01 17:22:25 | 2026-09-01 18:27:26 |
| HEMX73-11 | 52 | 2026-09-01 16:48:48 | 2026-09-01 18:34:14 |
| DL9PN | 51 | 2026-09-01 16:47:27 | 2026-09-01 18:33:03 |
| DM3KS-11 | 51 | 2026-09-01 16:50:58 | 2026-09-01 18:30:18 |
| DO3DL | 48 | 2026-09-01 17:17:05 | 2026-09-01 18:28:18 |
| DL0LBS | 46 | 2026-09-01 17:04:39 | 2026-09-01 18:42:29 |
| NBG1-10 | 45 | 2026-09-01 17:04:51 | 2026-09-01 18:43:34 |
| DF1GD-15 | 44 | 2026-09-01 17:06:25 | 2026-09-01 18:40:37 |
| DL8DAS-15 | 44 | 2026-09-01 17:11:05 | 2026-09-01 18:30:07 |
| AA1-15 | 41 | 2026-09-01 18:03:33 | 2026-09-01 18:14:45 |
| DL8DAS-14 | 40 | 2026-09-01 17:08:08 | 2026-09-01 18:30:21 |
| DM7RM-13 | 38 | 2026-09-01 17:13:57 | 2026-09-01 18:44:10 |
| BIOWL7-15 | 37 | 2026-09-01 17:05:22 | 2026-09-01 18:35:08 |
| DO1YAY-16 | 34 | 2026-09-01 17:05:33 | 2026-09-01 18:28:54 |
| DF3TZ-5 | 32 | 2026-09-01 17:08:23 | 2026-09-01 18:38:56 |
| DJ2KF-10 | 29 | 2026-09-01 17:21:21 | 2026-09-01 18:22:00 |
| DD1CC8 | 28 | 2026-09-01 17:18:43 | 2026-09-01 18:25:29 |
| DN1GJH-1 | 24 | 2026-09-01 17:28:07 | 2026-09-01 18:25:59 |
| BEGRI65-1 | 23 | 2026-09-01 17:48:32 | 2026-09-01 18:49:23 |
| AU51GT2 | 22 | 2026-09-01 17:24:06 | 2026-09-01 18:18:24 |
| DL3AQ-11 | 22 | 2026-09-01 17:56:06 | 2026-09-01 18:17:50 |
| SONCRA | 19 | 2026-09-01 17:46:11 | 2026-09-01 18:19:49 |
| DF2AP-13 | 16 | 2026-09-01 17:24:31 | 2026-09-01 18:09:00 |
| SSTOLZ84 | 16 | 2026-09-01 17:42:24 | 2026-09-01 18:19:40 |
| DL4BBY-15 | 16 | 2026-09-01 17:50:25 | 2026-09-01 18:26:25 |
| KANTATE | 16 | 2026-09-01 17:52:40 | 2026-09-01 18:38:04 |
| DD1CC2-15 | 14 | 2026-09-01 17:22:15 | 2026-09-01 18:17:36 |
| DH7VM-15 | 13 | 2026-09-01 16:56:41 | 2026-09-01 18:37:50 |
| SFWM-10 | 13 | 2026-09-01 17:24:37 | 2026-09-01 18:25:31 |
| HTAHTA | 11 | 2026-09-01 17:35:47 | 2026-09-01 17:58:33 |
| DJTTGO | 11 | 2026-09-01 17:35:56 | 2026-09-01 18:15:15 |
| DL8OAI-8 | 11 | 2026-09-01 17:50:30 | 2026-09-01 18:17:18 |
| SONDE2-11 | 10 | 2026-09-01 17:55:54 | 2026-09-01 18:14:32 |
| DJ3KS | 6 | 2026-09-01 17:15:31 | 2026-09-01 18:26:38 |
| DL2OL | 5 | 2026-09-01 17:43:36 | 2026-09-01 18:11:44 |
| DL6DJ-15 | 4 | 2026-09-01 18:06:48 | 2026-09-01 18:15:05 |
| DL1CLM-18 | 3 | 2026-09-01 17:40:34 | 2026-09-01 17:47:20 |
| DO2KSM | 2 | 2026-09-01 17:16:23 | 2026-09-01 17:17:26 |
| HEMX73-6 | 2 | 2026-09-01 17:30:33 | 2026-09-01 17:58:24 |
| IW2NTF | 2 | 2026-09-01 18:15:04 | 2026-09-01 18:15:14 |
| DK7TD | 1 | 2026-09-01 17:31:48 | 2026-09-01 17:31:48 |
| Receiver | Date | Latitude | Longitude | Direction | Speed | Altitude | Climb | Temperature | Humidity | Pressure | Voltage | Killtimer | Uptime | BKT | XDATA |
|---|---|---|---|---|---|---|---|---|---|---|---|---|---|---|---|
| DF7PN | 2026-09-01 18:52:35 | 49.73647 | 8.70982 | 107° | 18km/h | 457m | -2.8m/s | 20.0°C | 48.4% | 973.0hPa | 2.7V | 00:00:00 | 00:00:00 | 00:00:00 | |
| DB0UT-7 | 2026-09-01 18:52:05 | 49.73650 | 8.70917 | 84° | 24km/h | 493m | -2.8m/s | 19.8°C | 47.9% | 969.0hPa | 2.7V | 00:00:00 | 00:00:00 | 00:00:00 | |
| DF7PN | 2026-09-01 18:52:04 | 49.73648 | 8.70899 | 83° | 24km/h | 499m | -2.8m/s | 19.7°C | 48.9% | 968.5hPa | 2.7V | 00:00:00 | 00:00:00 | 00:00:00 | |
| DL1ZP-14 | 2026-09-01 18:51:54 | 49.73661 | 8.70830 | 102° | 11km/h | 526m | -2.9m/s | 19.8°C | 47.7% | 965.2hPa | 2.7V | 00:00:00 | 00:00:00 | 00:00:00 | |
| DB0UT-7 | 2026-09-01 18:51:50 | 49.73660 | 8.70807 | 80° | 24km/h | 538m | -2.9m/s | 19.6°C | 47.8% | 963.7hPa | 2.7V | 00:00:00 | 02:22:07 | 00:00:00 | |
| DB0UT-7 | 2026-09-01 18:51:45 | 49.73659 | 8.70760 | 94° | 27km/h | 554m | -3.3m/s | 19.4°C | 47.8% | 962.0hPa | 2.7V | 02:56:00 | 00:00:00 | 00:00:00 | |
| DB0ND-19 | 2026-09-01 18:51:40 | 49.73668 | 8.70709 | 116° | 26km/h | 572m | -4.0m/s | 19.3°C | 48.5% | 959.7hPa | 2.7V | 00:00:00 | 00:00:00 | 00:00:00 | |
| DB0UT-7 | 2026-09-01 18:51:40 | 49.73668 | 8.70709 | 117° | 22km/h | 572m | -3.9m/s | 19.2°C | 48.2% | 959.7hPa | 2.7V | 00:00:00 | 02:21:57 | 00:00:00 | |
| DB0UT-7 | 2026-09-01 18:51:35 | 49.73680 | 8.70673 | 102° | 18km/h | 591m | -3.4m/s | 19.2°C | 47.6% | 958.0hPa | 2.7V | 00:00:00 | 00:00:00 | 00:00:00 | |
| DB0UT-9 | 2026-09-01 18:51:34 | 49.73680 | 8.70673 | 103° | 15km/h | 591m | -3.5m/s | 19.2°C | 47.9% | 958.0hPa | 2.7V | 02:57:00 | 00:00:00 | 00:00:00 | |
| DF7PN | 2026-09-01 18:51:33 | 49.73680 | 8.70653 | 80° | 18km/h | 601m | -3.2m/s | 19.1°C | 48.2% | 956.9hPa | 2.7V | 00:00:00 | 00:00:00 | 00:00:00 | |
| DB0UT-7 | 2026-09-01 18:51:30 | 49.73679 | 8.70636 | 88° | 27km/h | 609m | -2.9m/s | 19.0°C | 48.3% | 955.9hPa | 2.7V | 02:56:00 | 02:21:47 | 00:00:00 | |
| DB0UT-7 | 2026-09-01 18:51:25 | 49.73683 | 8.70584 | 109° | 24km/h | 627m | -3.4m/s | 18.8°C | 48.5% | 954.2hPa | 2.7V | 00:00:00 | 00:00:00 | 00:00:00 | |
| DL1ZP-14 | 2026-09-01 18:51:23 | 49.73690 | 8.70558 | 119° | 20km/h | 638m | -3.3m/s | 18.8°C | 49.0% | 952.8hPa | 2.7V | 00:00:00 | 00:00:00 | 00:00:00 | |
| DB0UT-7 | 2026-09-01 18:51:20 | 49.73695 | 8.70544 | 114° | 18km/h | 645m | -3.3m/s | 18.7°C | 47.7% | 952.0hPa | 2.7V | 00:00:00 | 02:21:37 | 00:00:00 | |
| DB0UT-7 | 2026-09-01 18:51:15 | 49.73697 | 8.70508 | 90° | 27km/h | 662m | -3.5m/s | 18.5°C | 48.1% | 950.0hPa | 2.7V | 02:56:00 | 00:00:00 | 00:00:00 | |
| DB0UT-9 | 2026-09-01 18:51:14 | 49.73697 | 8.70508 | 91° | 26km/h | 662m | -3.6m/s | 18.6°C | 48.5% | 950.0hPa | 2.7V | 02:57:00 | 00:00:00 | 00:00:00 | |
| DB0ND-19 | 2026-09-01 18:51:09 | 49.73705 | 8.70445 | 113° | 26km/h | 683m | -3.3m/s | 18.4°C | 48.5% | 947.5hPa | 2.7V | 00:00:00 | 00:00:00 | 00:00:00 | |
| DB0UT-7 | 2026-09-01 18:51:05 | 49.73716 | 8.70415 | 119° | 18km/h | 698m | -3.6m/s | 18.2°C | 49.4% | 945.9hPa | 2.7V | 00:00:00 | 00:00:00 | 00:00:00 | |
| DF7PN | 2026-09-01 18:51:01 | 49.73719 | 8.70389 | 87° | 18km/h | 712m | -3.6m/s | 18.1°C | 50.8% | 944.4hPa | 2.7V | 00:00:00 | 00:00:00 | 00:00:00 | |
| DL1ZP-14 | 2026-09-01 18:50:52 | 49.73731 | 8.70300 | 117° | 22km/h | 745m | -3.7m/s | 17.8°C | 51.6% | 940.9hPa | 2.7V | 00:00:00 | 00:00:00 | 00:00:00 | |
| DB0UT-7 | 2026-09-01 18:50:49 | 49.73738 | 8.70279 | 108° | 18km/h | 756m | -3.1m/s | 17.6°C | 51.5% | 939.5hPa | 2.7V | 00:00:00 | 02:21:06 | 00:00:00 | |
| DB0UT-7 | 2026-09-01 18:50:44 | 49.73740 | 8.70241 | 87° | 27km/h | 774m | -3.3m/s | 17.4°C | 52.0% | 937.5hPa | 2.7V | 02:57:00 | 00:00:00 | 00:00:00 | |
| DB0UT-7 | 2026-09-01 18:50:39 | 49.73742 | 8.70188 | 104° | 26km/h | 792m | -3.5m/s | 17.3°C | 52.3% | 935.8hPa | 2.7V | 00:00:00 | 02:20:56 | 00:00:00 | |
| DB0ND-19 | 2026-09-01 18:50:38 | 49.73745 | 8.70177 | 109° | 27km/h | 796m | -3.4m/s | 17.3°C | 52.6% | 935.3hPa | 2.7V | 00:00:00 | 00:00:00 | 00:00:00 | |
| DB0UT-9 | 2026-09-01 18:50:32 | 49.73757 | 8.70135 | 112° | 18km/h | 813m | -3.6m/s | 17.2°C | 51.5% | 933.5hPa | 2.7V | 02:58:00 | 00:00:00 | 00:00:00 | |
| DF7PN | 2026-09-01 18:50:30 | 49.73759 | 8.70114 | 86° | 20km/h | 823m | -3.2m/s | 17.1°C | 51.7% | 932.3hPa | 2.7V | 00:00:00 | 00:00:00 | 00:00:00 | |
| DB0UT-7 | 2026-09-01 18:50:30 | 49.73758 | 8.70114 | 87° | 26km/h | 824m | -3.2m/s | 17.0°C | 51.4% | 932.2hPa | 2.7V | 00:00:00 | 00:00:00 | 00:00:00 | |
| DB0UT-7 | 2026-09-01 18:50:25 | 49.73758 | 8.70063 | 97° | 29km/h | 841m | -3.1m/s | 16.8°C | 51.9% | 930.4hPa | 2.7V | 02:57:00 | 02:20:42 | 00:00:00 | |
| DL1ZP-14 | 2026-09-01 18:50:21 | 49.73766 | 8.70019 | 116° | 26km/h | 855m | -3.5m/s | 16.8°C | 52.6% | 928.9hPa | 2.7V | 00:00:00 | 00:00:00 | 00:00:00 | |
| DB0UT-7 | 2026-09-01 18:50:20 | 49.73769 | 8.70010 | 117° | 20km/h | 858m | -3.5m/s | 16.7°C | 52.4% | 928.6hPa | 2.6V | 00:00:00 | 00:00:00 | 00:00:00 | |
| DB0UT-7 | 2026-09-01 18:50:15 | 49.73776 | 8.69973 | 85° | 26km/h | 876m | -2.9m/s | 16.5°C | 53.0% | 926.8hPa | 2.6V | 00:00:00 | 02:20:32 | 00:00:00 | |
| DB0UT-9 | 2026-09-01 18:50:10 | 49.73774 | 8.69933 | 94° | 29km/h | 889m | -3.4m/s | 16.4°C | 53.8% | 925.2hPa | 2.6V | 02:58:00 | 00:00:00 | 00:00:00 | |
| DB0UT-7 | 2026-09-01 18:50:10 | 49.73775 | 8.69922 | 100° | 27km/h | 893m | -3.1m/s | 16.3°C | 53.5% | 924.7hPa | 2.6V | 02:57:00 | 00:00:00 | 00:00:00 | |
| DB0ND-19 | 2026-09-01 18:50:07 | 49.73782 | 8.69889 | 113° | 26km/h | 903m | -3.2m/s | 16.3°C | 54.1% | 923.6hPa | 2.7V | 00:00:00 | 00:00:00 | 00:00:00 | |
| DB0UT-7 | 2026-09-01 18:50:05 | 49.73786 | 8.69872 | 113° | 18km/h | 909m | -3.4m/s | 16.2°C | 54.0% | 922.8hPa | 2.7V | 00:00:00 | 02:20:22 | 00:00:00 | |
| DF7PN | 2026-09-01 18:49:59 | 49.73792 | 8.69830 | 83° | 20km/h | 931m | -3.1m/s | 16.0°C | 55.0% | 920.7hPa | 2.7V | 00:00:00 | 00:00:00 | 00:00:00 | |
| DL1ZP-14 | 2026-09-01 18:49:50 | 49.73802 | 8.69737 | 117° | 22km/h | 962m | -3.5m/s | 15.7°C | 56.7% | 917.2hPa | 2.7V | 00:00:00 | 00:00:00 | 00:00:00 | |
| DB0UT-7 | 2026-09-01 18:49:50 | 49.73802 | 8.69737 | 118° | 20km/h | 962m | -3.4m/s | 15.7°C | 56.4% | 917.2hPa | 2.7V | 00:00:00 | 00:00:00 | 00:00:00 | |
| DB0UT-7 | 2026-09-01 18:49:45 | 49.73807 | 8.69702 | 87° | 26km/h | 979m | -2.9m/s | 15.5°C | 57.1% | 915.4hPa | 2.7V | 00:00:00 | 02:20:02 | 00:00:00 | |
| DB0UT-7 | 2026-09-01 18:49:40 | 49.73807 | 8.69651 | 96° | 20km/h | 995m | -3.0m/s | 15.3°C | 57.5% | 913.7hPa | 2.7V | 02:58:00 | 00:00:00 | 00:00:00 | |
| DB0ND-19 | 2026-09-01 18:49:36 | 49.73815 | 8.69611 | 115° | 22km/h | 1009m | -3.3m/s | 15.3°C | 58.2% | 912.1hPa | 2.7V | 00:00:00 | 00:00:00 | 00:00:00 | |
| DB0UT-9 | 2026-09-01 18:49:29 | 49.73823 | 8.69568 | 86° | 22km/h | 1031m | -3.3m/s | 15.1°C | 58.9% | 910.0hPa | 2.7V | 00:00:00 | 00:00:00 | 00:00:00 | |
| DF7PN | 2026-09-01 18:49:28 | 49.73822 | 8.69550 | 88° | 26km/h | 1038m | -3.2m/s | 15.0°C | 59.1% | 909.2hPa | 2.7V | 00:00:00 | 00:00:00 | 00:00:00 | |
| BEGRI65-1 | 2026-09-01 18:49:23 | 49.73826 | 8.69506 | 110° | 29km/h | 1052m | -3.6m/s | 14.9°C | 59.5% | 907.7hPa | 2.7V | 00:00:00 | 00:00:00 | 00:00:00 | |
| DL1ZP-14 | 2026-09-01 18:49:19 | 49.73837 | 8.69465 | 110° | 16km/h | 1070m | -3.4m/s | 14.7°C | 59.9% | 905.8hPa | 2.7V | 00:00:00 | 00:00:00 | 00:00:00 | |
| DK5PH-5 | 2026-09-01 18:49:12 | 49.73838 | 8.69407 | 96° | 26km/h | 1093m | -3.0m/s | 14.4°C | 60.3% | 903.3hPa | 2.7V | 00:00:00 | 02:19:29 | 00:00:00 | |
| DB0ND-19 | 2026-09-01 18:49:05 | 49.73852 | 8.69346 | 102° | 16km/h | 1116m | -3.4m/s | 14.2°C | 61.4% | 900.8hPa | 2.7V | 00:00:00 | 00:00:00 | 00:00:00 | |
| DB0UT-7 | 2026-09-01 18:49:03 | 49.73853 | 8.69333 | 86° | 24km/h | 1123m | -3.1m/s | 14.1°C | 61.6% | 899.8hPa | 2.7V | 00:00:00 | 02:19:20 | 00:00:00 | |
| BEGRI65-1 | 2026-09-01 18:49:02 | 49.73853 | 8.69333 | 86° | 18km/h | 1123m | -3.2m/s | 14.2°C | 61.9% | 899.8hPa | 2.7V | 02:59:00 | 00:00:00 | 00:00:00 | |
| DB0UT-9 | 2026-09-01 18:49:01 | 49.73852 | 8.69325 | 84° | 22km/h | 1127m | -3.5m/s | 14.1°C | 62.2% | 899.6hPa | 2.7V | 02:59:00 | 00:00:00 | 00:00:00 | |
| DF7PN | 2026-09-01 18:48:57 | 49.73853 | 8.69274 | 104° | 27km/h | 1144m | -3.2m/s | 14.0°C | 62.8% | 897.8hPa | 2.7V | 00:00:00 | 00:00:00 | 00:00:00 | |
| DL1ZP-14 | 2026-09-01 18:48:48 | 49.73863 | 8.69206 | 78° | 18km/h | 1175m | -3.3m/s | 13.7°C | 63.8% | 894.5hPa | 2.7V | 00:00:00 | 00:00:00 | 00:00:00 | |
| DB0UT-7 | 2026-09-01 18:48:43 | 49.73860 | 8.69158 | 91° | 22km/h | 1193m | -3.2m/s | 13.5°C | 64.0% | 892.7hPa | 2.6V | 02:59:00 | 02:19:00 | 00:00:00 | |
| DK5PH-5 | 2026-09-01 18:48:41 | 49.73862 | 8.69136 | 108° | 20km/h | 1200m | -3.1m/s | 13.4°C | 64.3% | 891.9hPa | 2.7V | 02:59:00 | 02:18:58 | 00:00:00 | |
| BEGRI65-1 | 2026-09-01 18:48:40 | 49.73862 | 8.69136 | 108° | 27km/h | 1200m | -3.2m/s | 13.4°C | 64.6% | 891.9hPa | 2.6V | 02:59:00 | 00:00:00 | 00:00:00 | |
| DB0UT-9 | 2026-09-01 18:48:39 | 49.73864 | 8.69127 | 109° | 24km/h | 1204m | -3.1m/s | 13.4°C | 64.8% | 891.7hPa | 2.6V | 02:59:00 | 00:00:00 | 00:00:00 | |
| DB0ND-19 | 2026-09-01 18:48:34 | 49.73869 | 8.69085 | 76° | 18km/h | 1223m | -2.9m/s | 13.2°C | 65.4% | 889.4hPa | 2.6V | 00:00:00 | 00:00:00 | 00:00:00 | |
| DB0UT-7 | 2026-09-01 18:48:33 | 49.73868 | 8.69078 | 75° | 26km/h | 1227m | -2.7m/s | 13.2°C | 65.3% | 889.1hPa | 2.6V | 00:00:00 | 00:00:00 | 00:00:00 | |
| DK5PH-5 | 2026-09-01 18:48:31 | 49.73865 | 8.69061 | 78° | 26km/h | 1233m | -2.8m/s | 13.1°C | 65.5% | 888.3hPa | 2.6V | 00:00:00 | 02:18:48 | 00:00:00 | |
| DF7PN | 2026-09-01 18:48:26 | 49.73861 | 8.69009 | 97° | 27km/h | 1249m | -3.1m/s | 13.0°C | 66.4% | 886.5hPa | 2.6V | 00:00:00 | 00:00:00 | 00:00:00 | |
| DB0UT-7 | 2026-09-01 18:48:23 | 49.73865 | 8.68979 | 109° | 22km/h | 1259m | -3.5m/s | 12.9°C | 66.5% | 885.5hPa | 2.6V | 00:00:00 | 02:18:40 | 00:00:00 | |
| DK5PH-5 | 2026-09-01 18:48:21 | 49.73868 | 8.68964 | 97° | 24km/h | 1266m | -3.4m/s | 12.8°C | 66.7% | 884.7hPa | 2.6V | 00:00:00 | 02:18:38 | 00:00:00 | |
| BEGRI65-1 | 2026-09-01 18:48:18 | 49.73867 | 8.68949 | 84° | 18km/h | 1273m | -3.5m/s | 12.8°C | 67.3% | 884.0hPa | 2.6V | 02:59:00 | 00:00:00 | 00:00:00 | |
| DB0UT-9 | 2026-09-01 18:48:18 | 49.73867 | 8.68949 | 84° | 18km/h | 1273m | -3.5m/s | 12.8°C | 67.3% | 884.0hPa | 2.6V | 02:59:00 | 00:00:00 | 00:00:00 | |
| DL1ZP-14 | 2026-09-01 18:48:17 | 49.73863 | 8.68924 | 74° | 26km/h | 1283m | -3.5m/s | 12.7°C | 67.8% | 883.1hPa | 2.6V | 00:00:00 | 00:00:00 | 00:00:00 | |
| DB0UT-7 | 2026-09-01 18:48:13 | 49.73860 | 8.68891 | 88° | 24km/h | 1294m | -2.9m/s | 12.5°C | 68.2% | 881.8hPa | 2.7V | 02:59:00 | 00:00:00 | 00:00:00 | |
| DK5PH-5 | 2026-09-01 18:48:11 | 49.73860 | 8.68868 | 100° | 22km/h | 1300m | -3.0m/s | 12.5°C | 68.6% | 881.2hPa | 2.7V | 02:59:00 | 02:18:28 | 00:00:00 | |
| DB0ND-19 | 2026-09-01 18:48:03 | 49.73861 | 8.68802 | 74° | 24km/h | 1327m | -3.2m/s | 12.3°C | 69.8% | 878.5hPa | 2.7V | 00:00:00 | 00:00:00 | 00:00:00 | |
| DB0UT-7 | 2026-09-01 18:48:03 | 49.73861 | 8.68801 | 75° | 24km/h | 1327m | -3.2m/s | 12.2°C | 69.5% | 878.4hPa | 2.7V | 00:00:00 | 02:18:20 | 00:00:00 | |
| DF7PN | 2026-09-01 18:47:55 | 49.73862 | 8.68727 | 87° | 16km/h | 1354m | -3.3m/s | 12.0°C | 70.4% | 875.6hPa | 2.7V | 00:00:00 | 00:00:00 | 00:00:00 | |
| DL1ZP-14 | 2026-09-01 18:47:46 | 49.73854 | 8.68632 | 98° | 24km/h | 1387m | -3.1m/s | 11.7°C | 72.5% | 872.3hPa | 2.7V | 00:00:00 | 00:00:00 | 00:00:00 | |
| DB0UT-7 | 2026-09-01 18:47:43 | 49.73855 | 8.68615 | 93° | 22km/h | 1393m | -3.0m/s | 11.6°C | 72.4% | 871.6hPa | 2.7V | 00:00:00 | 02:18:00 | 00:00:00 | |
| DK5PH-5 | 2026-09-01 18:47:41 | 49.73854 | 8.68601 | 72° | 26km/h | 1399m | -2.9m/s | 11.5°C | 72.9% | 870.9hPa | 2.6V | 03:00:00 | 02:17:58 | 00:00:00 | |
| DB0NH | 2026-09-01 18:47:40 | 49.73853 | 8.68593 | 73° | 26km/h | 1402m | -3.0m/s | 11.5°C | 72.9% | 870.5hPa | 2.7V | 00:00:00 | 02:17:57 | 00:00:00 | |
| DB0UT-9 | 2026-09-01 18:47:38 | 49.73851 | 8.68585 | 68° | 22km/h | 1405m | -2.9m/s | 11.5°C | 73.3% | 870.3hPa | 2.7V | 00:00:00 | 00:00:00 | 00:00:00 | |
| BEGRI65-1 | 2026-09-01 18:47:36 | 49.73846 | 8.68566 | 74° | 29km/h | 1412m | -3.3m/s | 11.4°C | 73.5% | 869.5hPa | 2.7V | 03:00:00 | 00:00:00 | 00:00:00 | |
| DB0ND-19 | 2026-09-01 18:47:32 | 49.73843 | 8.68512 | 94° | 22km/h | 1428m | -3.2m/s | 11.3°C | 74.0% | 868.0hPa | 2.7V | 00:00:00 | 00:00:00 | 00:00:00 | |
| DK5PH-5 | 2026-09-01 18:47:31 | 49.73844 | 8.68503 | 96° | 22km/h | 1432m | -3.3m/s | 11.2°C | 73.9% | 867.6hPa | 2.7V | 00:00:00 | 02:17:48 | 00:00:00 | |
| DB0NH | 2026-09-01 18:47:30 | 49.73844 | 8.68495 | 96° | 22km/h | 1435m | -3.2m/s | 11.2°C | 74.5% | 867.1hPa | 2.7V | 00:00:00 | 02:17:47 | 00:00:00 | |
| DF7PN | 2026-09-01 18:47:24 | 49.73836 | 8.68453 | 64° | 22km/h | 1456m | -3.4m/s | 11.0°C | 75.8% | 865.2hPa | 2.7V | 00:00:00 | 00:00:00 | 00:00:00 | |
| DK5PH-5 | 2026-09-01 18:47:21 | 49.73829 | 8.68424 | 73° | 22km/h | 1466m | -3.3m/s | 10.9°C | 75.9% | 864.0hPa | 2.7V | 00:00:00 | 02:17:38 | 00:00:00 | |
| DB0NH | 2026-09-01 18:47:20 | 49.73827 | 8.68412 | 78° | 22km/h | 1469m | -2.9m/s | 10.9°C | 76.3% | 863.6hPa | 2.7V | 03:00:00 | 02:17:37 | 00:00:00 | |
| DB0UT-7 | 2026-09-01 18:47:19 | 49.73826 | 8.68401 | 90° | 24km/h | 1472m | -2.9m/s | 10.8°C | 76.2% | 863.3hPa | 2.7V | 00:00:00 | 00:00:00 | 00:00:00 | |
| BEGRI65-1 | 2026-09-01 18:47:15 | 49.73827 | 8.68373 | 98° | 20km/h | 1483m | -3.7m/s | 10.8°C | 77.6% | 862.2hPa | 2.7V | 00:00:00 | 00:00:00 | 00:00:00 | |
| DL1ZP-14 | 2026-09-01 18:47:15 | 49.73828 | 8.68359 | 81° | 16km/h | 1490m | -3.4m/s | 10.7°C | 77.9% | 861.6hPa | 2.7V | 00:00:00 | 00:00:00 | 00:00:00 | |
| DK5PH-5 | 2026-09-01 18:47:11 | 49.73824 | 8.68339 | 62° | 26km/h | 1501m | -3.2m/s | 10.5°C | 78.0% | 860.3hPa | 2.7V | 00:00:00 | 02:17:28 | 00:00:00 | |
| DB0NH | 2026-09-01 18:47:10 | 49.73821 | 8.68332 | 64° | 26km/h | 1505m | -3.0m/s | 10.5°C | 78.0% | 860.0hPa | 2.7V | 00:00:00 | 02:17:27 | 00:00:00 | |
| DB0UT-9 | 2026-09-01 18:47:04 | 49.73812 | 8.68280 | 91° | 27km/h | 1522m | -3.8m/s | 10.4°C | 79.4% | 858.3hPa | 2.7V | 03:01:00 | 00:00:00 | 00:00:00 | |
| DB0ND-19 | 2026-09-01 18:47:01 | 49.73812 | 8.68245 | 89° | 16km/h | 1534m | -3.4m/s | 10.3°C | 79.8% | 857.0hPa | 2.7V | 00:00:00 | 00:00:00 | 00:00:00 | |
| DF7PN | 2026-09-01 18:46:53 | 49.73797 | 8.68174 | 84° | 27km/h | 1562m | -3.3m/s | 10.0°C | 80.9% | 854.1hPa | 2.7V | 00:00:00 | 00:00:00 | 00:00:00 | |
| DB0UT-7 | 2026-09-01 18:46:49 | 49.73797 | 8.68136 | 89° | 26km/h | 1576m | -3.5m/s | 9.8°C | 80.8% | 852.5hPa | 2.7V | 00:00:00 | 00:00:00 | 00:00:00 | |
| DB0UT-9 | 2026-09-01 18:46:44 | 49.73792 | 8.68106 | 62° | 26km/h | 1590m | -3.1m/s | 9.8°C | 81.6% | 851.2hPa | 2.7V | 03:01:00 | 00:00:00 | 00:00:00 | |
| DL1ZP-14 | 2026-09-01 18:46:44 | 49.73786 | 8.68086 | 71° | 27km/h | 1597m | -3.3m/s | 9.7°C | 81.9% | 850.6hPa | 2.7V | 00:00:00 | 00:00:00 | 00:00:00 | |
| DK5PH-5 | 2026-09-01 18:46:41 | 49.73782 | 8.68063 | 84° | 26km/h | 1604m | -3.9m/s | 9.6°C | 82.0% | 849.7hPa | 2.7V | 00:00:00 | 02:16:58 | 00:00:00 | |
| DB0NH | 2026-09-01 18:46:40 | 49.73782 | 8.68051 | 85° | 24km/h | 1608m | -2.9m/s | 9.5°C | 82.1% | 849.5hPa | 2.7V | 03:01:00 | 02:16:57 | 00:00:00 | |
| DB0UT-7 | 2026-09-01 18:46:39 | 49.73781 | 8.68040 | 90° | 26km/h | 1611m | -3.4m/s | 9.5°C | 82.3% | 849.1hPa | 2.6V | 00:00:00 | 02:16:56 | 00:00:00 | |
| DK5PH-5 | 2026-09-01 18:46:31 | 49.73773 | 8.67970 | 65° | 29km/h | 1639m | -3.3m/s | 9.3°C | 82.7% | 846.3hPa | 2.6V | 00:00:00 | 02:16:48 | 00:00:00 | |
| DB0ND-19 | 2026-09-01 18:46:30 | 49.73771 | 8.67959 | 74° | 29km/h | 1643m | -3.3m/s | 9.3°C | 83.2% | 845.8hPa | 2.6V | 00:00:00 | 00:00:00 | 00:00:00 | |
| DB0NH | 2026-09-01 18:46:30 | 49.73771 | 8.67959 | 75° | 29km/h | 1643m | -3.2m/s | 9.2°C | 83.0% | 845.8hPa | 2.6V | 00:00:00 | 02:16:47 | 00:00:00 | |
| DB0UT-7 | 2026-09-01 18:46:29 | 49.73769 | 8.67947 | 75° | 27km/h | 1646m | -3.3m/s | 9.2°C | 82.9% | 845.6hPa | 2.6V | 00:00:00 | 00:00:00 | 00:00:00 | |
| DB0UT-9 | 2026-09-01 18:46:23 | 49.73767 | 8.67888 | 97° | 26km/h | 1663m | -3.3m/s | 9.2°C | 81.9% | 843.8hPa | 2.6V | 00:00:00 | 00:00:00 | 00:00:00 | |
| DF7PN | 2026-09-01 18:46:22 | 49.73768 | 8.67870 | 83° | 22km/h | 1670m | -3.1m/s | 9.1°C | 82.2% | 843.3hPa | 2.6V | 00:00:00 | 00:00:00 | 00:00:00 | |
| DK5PH-5 | 2026-09-01 18:46:21 | 49.73767 | 8.67862 | 78° | 29km/h | 1673m | -3.0m/s | 9.0°C | 82.0% | 842.7hPa | 2.6V | 03:01:00 | 02:16:38 | 00:00:00 | |
| DB0NH | 2026-09-01 18:46:20 | 49.73765 | 8.67853 | 69° | 27km/h | 1676m | -3.0m/s | 9.0°C | 82.1% | 842.4hPa | 2.6V | 00:00:00 | 02:16:37 | 00:00:00 | |
| DB0UT-7 | 2026-09-01 18:46:19 | 49.73762 | 8.67843 | 68° | 29km/h | 1679m | -3.4m/s | 9.0°C | 82.2% | 842.2hPa | 2.6V | 03:01:00 | 02:16:36 | 00:00:00 | |
| DL1ZP-14 | 2026-09-01 18:46:12 | 49.73754 | 8.67759 | 95° | 26km/h | 1704m | -3.3m/s | 8.9°C | 80.8% | 839.6hPa | 2.6V | 00:00:00 | 00:00:00 | 00:00:00 | |
| DK5PH-5 | 2026-09-01 18:46:11 | 49.73755 | 8.67749 | 92° | 29km/h | 1707m | -3.2m/s | 8.9°C | 78.7% | 839.3hPa | 2.6V | 00:00:00 | 02:16:28 | 00:00:00 | |
| DB0UT-7 | 2026-09-01 18:46:09 | 49.73754 | 8.67732 | 77° | 29km/h | 1714m | -3.2m/s | 8.9°C | 78.6% | 838.6hPa | 2.7V | 00:00:00 | 00:00:00 | 00:00:00 | |
| DB0NH | 2026-09-01 18:46:07 | 49.73750 | 8.67712 | 74° | 35km/h | 1721m | -3.0m/s | 8.9°C | 78.8% | 838.0hPa | 2.7V | 00:00:00 | 02:16:24 | 00:00:00 | |
| DB0UT-9 | 2026-09-01 18:46:02 | 49.73742 | 8.67662 | 86° | 37km/h | 1734m | -2.9m/s | 8.8°C | 78.9% | 836.6hPa | 2.7V | 00:00:00 | 00:00:00 | 00:00:00 | |
| DB0ND-19 | 2026-09-01 18:45:59 | 49.73741 | 8.67603 | 91° | 37km/h | 1749m | -3.5m/s | 8.7°C | 79.7% | 834.9hPa | 2.7V | 00:00:00 | 00:00:00 | 00:00:00 | |
| DF7PN | 2026-09-01 18:45:51 | 49.73743 | 8.67507 | 79° | 24km/h | 1778m | -3.5m/s | 8.4°C | 80.9% | 832.1hPa | 2.7V | 00:00:00 | 00:00:00 | 00:00:00 | |
| DK5PH-5 | 2026-09-01 18:45:51 | 49.73743 | 8.67507 | 80° | 33km/h | 1779m | -3.4m/s | 8.3°C | 80.7% | 832.0hPa | 2.7V | 00:00:00 | 02:16:08 | 00:00:00 | |
| DB0NH | 2026-09-01 18:45:44 | 49.73733 | 8.67417 | 95° | 33km/h | 1805m | -4.0m/s | 8.2°C | 80.8% | 829.5hPa | 2.7V | 00:00:00 | 02:16:01 | 00:00:00 | |
| DL1ZP-14 | 2026-09-01 18:45:41 | 49.73736 | 8.67377 | 96° | 29km/h | 1817m | -3.4m/s | 8.2°C | 80.4% | 828.4hPa | 2.7V | 00:00:00 | 00:00:00 | 00:00:00 | |
| DK5PH-5 | 2026-09-01 18:45:41 | 49.73736 | 8.67377 | 97° | 33km/h | 1817m | -3.4m/s | 8.1°C | 80.2% | 828.4hPa | 2.7V | 03:02:00 | 02:15:58 | 00:00:00 | |
| DB0NH | 2026-09-01 18:45:34 | 49.73728 | 8.67295 | 79° | 33km/h | 1843m | -3.4m/s | 8.0°C | 79.8% | 825.7hPa | 2.6V | 00:00:00 | 02:15:51 | 00:00:00 | |
| DB0UT-7 | 2026-09-01 18:45:33 | 49.73726 | 8.67280 | 82° | 29km/h | 1846m | -3.6m/s | 7.9°C | 79.8% | 825.3hPa | 2.7V | 00:00:00 | 02:15:50 | 00:00:00 | |
| DB0UT-9 | 2026-09-01 18:45:32 | 49.73726 | 8.67280 | 82° | 38km/h | 1846m | -3.7m/s | 8.0°C | 79.9% | 825.4hPa | 2.7V | 03:03:00 | 00:00:00 | 00:00:00 | |
| DK5PH-5 | 2026-09-01 18:45:31 | 49.73724 | 8.67250 | 88° | 31km/h | 1854m | -3.6m/s | 7.9°C | 80.2% | 824.5hPa | 2.7V | 00:00:00 | 02:15:48 | 00:00:00 | |
| DB0ND-19 | 2026-09-01 18:45:28 | 49.73725 | 8.67209 | 93° | 29km/h | 1865m | -3.5m/s | 7.8°C | 80.8% | 823.5hPa | 2.7V | 00:00:00 | 00:00:00 | 00:00:00 | |
| DB0NH | 2026-09-01 18:45:24 | 49.73722 | 8.67167 | 74° | 35km/h | 1880m | -2.9m/s | 7.7°C | 79.6% | 822.0hPa | 2.7V | 00:00:00 | 02:15:41 | 00:00:00 | |
| DB0UT-7 | 2026-09-01 18:45:23 | 49.73720 | 8.67157 | 73° | 37km/h | 1883m | -3.4m/s | 7.7°C | 79.4% | 821.7hPa | 2.7V | 00:00:00 | 00:00:00 | 00:00:00 | |
| DK5PH-5 | 2026-09-01 18:45:21 | 49.73715 | 8.67133 | 74° | 37km/h | 1890m | -3.7m/s | 7.6°C | 79.3% | 820.9hPa | 2.6V | 00:00:00 | 02:15:38 | 00:00:00 | |
| DF7PN | 2026-09-01 18:45:20 | 49.73710 | 8.67105 | 78° | 40km/h | 1897m | -3.8m/s | 7.6°C | 79.7% | 820.2hPa | 2.6V | 00:00:00 | 00:00:00 | 00:00:00 | |
| DB0NH | 2026-09-01 18:45:14 | 49.73708 | 8.67030 | 95° | 38km/h | 1917m | -3.5m/s | 7.6°C | 76.3% | 818.2hPa | 2.6V | 03:02:00 | 02:15:31 | 00:00:00 | |
| DB0UT-7 | 2026-09-01 18:45:13 | 49.73709 | 8.67017 | 94° | 33km/h | 1921m | -3.3m/s | 7.6°C | 75.9% | 817.9hPa | 2.6V | 03:02:00 | 02:15:30 | 00:00:00 | |
| DK5PH-5 | 2026-09-01 18:45:11 | 49.73708 | 8.66994 | 87° | 37km/h | 1928m | -3.7m/s | 7.5°C | 75.8% | 817.2hPa | 2.6V | 00:00:00 | 02:15:28 | 00:00:00 | |
| DL1ZP-14 | 2026-09-01 18:45:10 | 49.73707 | 8.66984 | 73° | 27km/h | 1932m | -3.8m/s | 7.5°C | 76.2% | 816.8hPa | 2.6V | 00:00:00 | 00:00:00 | 00:00:00 | |
| DB0UT-9 | 2026-09-01 18:45:08 | 49.73705 | 8.66972 | 77° | 31km/h | 1935m | -3.8m/s | 7.5°C | 76.3% | 816.4hPa | 2.7V | 03:03:00 | 00:00:00 | 00:00:00 | |
| DB0ND-19 | 2026-09-01 18:44:57 | 49.73687 | 8.66793 | 76° | 27km/h | 1986m | -3.3m/s | 7.1°C | 77.9% | 811.6hPa | 2.7V | 00:00:00 | 00:00:00 | 00:00:00 | |
| DB0UT-7 | 2026-09-01 18:44:53 | 49.73680 | 8.66760 | 66° | 35km/h | 1997m | -3.4m/s | 6.9°C | 78.1% | 810.6hPa | 2.7V | 00:00:00 | 02:15:10 | 00:00:00 | |
| DK5PH-5 | 2026-09-01 18:44:51 | 49.73674 | 8.66734 | 72° | 37km/h | 2005m | -3.7m/s | 6.8°C | 78.4% | 809.7hPa | 2.7V | 00:00:00 | 02:15:08 | 00:00:00 | |
| BEGRI65-1 | 2026-09-01 18:44:44 | 49.73662 | 8.66640 | 87° | 37km/h | 2027m | -3.2m/s | 6.7°C | 79.3% | 807.6hPa | 2.7V | 00:00:00 | 00:00:00 | 00:00:00 | |
| DL1ZP-14 | 2026-09-01 18:44:39 | 49.73654 | 8.66570 | 66° | 29km/h | 2048m | -3.3m/s | 6.6°C | 79.4% | 805.4hPa | 2.7V | 00:00:00 | 00:00:00 | 00:00:00 | |
| DB0UT-7 | 2026-09-01 18:44:38 | 49.73651 | 8.66558 | 67° | 40km/h | 2052m | -3.1m/s | 6.5°C | 79.4% | 805.1hPa | 2.7V | 00:00:00 | 00:00:00 | 00:00:00 | |
| DK5PH-5 | 2026-09-01 18:44:31 | 49.73628 | 8.66454 | 79° | 37km/h | 2077m | -3.2m/s | 6.4°C | 77.9% | 802.6hPa | 2.7V | 00:00:00 | 02:14:48 | 00:00:00 | |
| DB0NH | 2026-09-01 18:44:27 | 49.73623 | 8.66397 | 76° | 35km/h | 2090m | -3.2m/s | 6.4°C | 76.0% | 801.4hPa | 2.7V | 00:00:00 | 02:14:44 | 00:00:00 | |
| DB0ND-19 | 2026-09-01 18:44:26 | 49.73618 | 8.66374 | 69° | 31km/h | 2096m | -3.5m/s | 6.4°C | 76.2% | 800.7hPa | 2.6V | 00:00:00 | 00:00:00 | 00:00:00 | |
| BEGRI65-1 | 2026-09-01 18:44:22 | 49.73611 | 8.66351 | 62° | 35km/h | 2103m | -3.5m/s | 6.4°C | 75.5% | 800.1hPa | 2.6V | 00:00:00 | 00:00:00 | 00:00:00 | |
| DF7PN | 2026-09-01 18:44:18 | 49.73585 | 8.66267 | 70° | 42km/h | 2125m | -3.4m/s | 6.2°C | 76.1% | 798.0hPa | 2.6V | 00:00:00 | 00:00:00 | 00:00:00 | |
| DK5PH-5 | 2026-09-01 18:44:11 | 49.73571 | 8.66183 | 70° | 38km/h | 2145m | -3.5m/s | 5.9°C | 77.2% | 796.0hPa | 2.6V | 00:00:00 | 02:14:28 | 00:00:00 | |
| DM7RM-13 | 2026-09-01 18:44:10 | 49.73571 | 8.66183 | 70° | 29km/h | 2145m | -3.5m/s | 5.9°C | 77.3% | 796.0hPa | 2.6V | 00:00:00 | 00:00:00 | 00:00:00 | |
| DL1ZP-14 | 2026-09-01 18:44:08 | 49.73559 | 8.66147 | 60° | 38km/h | 2155m | -3.3m/s | 5.9°C | 76.9% | 795.0hPa | 2.6V | 00:00:00 | 00:00:00 | 00:00:00 | |
| BEGRI65-1 | 2026-09-01 18:44:01 | 49.73533 | 8.66056 | 76° | 40km/h | 2176m | -3.4m/s | 5.8°C | 75.3% | 793.0hPa | 2.7V | 00:00:00 | 00:00:00 | 00:00:00 | |
| DB0ND-19 | 2026-09-01 18:43:55 | 49.73512 | 8.65951 | 60° | 38km/h | 2204m | -2.9m/s | 5.6°C | 75.4% | 790.4hPa | 2.7V | 00:00:00 | 00:00:00 | 00:00:00 | |
| DF7PN | 2026-09-01 18:43:47 | 49.73491 | 8.65834 | 80° | 33km/h | 2230m | -3.5m/s | 5.4°C | 75.3% | 787.7hPa | 2.7V | 00:00:00 | 00:00:00 | 00:00:00 | |
| DB0UT-9 | 2026-09-01 18:43:39 | 49.73470 | 8.65762 | 66° | 40km/h | 2250m | -3.0m/s | 5.4°C | 71.8% | 785.8hPa | 2.7V | 03:04:00 | 00:00:00 | 00:00:00 | |
| DL1ZP-14 | 2026-09-01 18:43:37 | 49.73459 | 8.65715 | 76° | 42km/h | 2260m | -3.9m/s | 5.3°C | 72.3% | 784.9hPa | 2.7V | 00:00:00 | 00:00:00 | 00:00:00 | |
| NBG1-10 | 2026-09-01 18:43:34 | 49.73453 | 8.65669 | 85° | 31km/h | 2270m | -3.2m/s | 5.1°C | 73.0% | 783.8hPa | 2.7V | 00:00:00 | 02:13:51 | 00:00:00 | |
| DK5PH-5 | 2026-09-01 18:43:31 | 49.73449 | 8.65634 | 74° | 35km/h | 2279m | -3.0m/s | 5.0°C | 72.9% | 783.0hPa | 2.7V | 00:00:00 | 02:13:48 | 00:00:00 | |
| DB0UT-7 | 2026-09-01 18:43:29 | 49.73444 | 8.65613 | 67° | 35km/h | 2286m | -3.5m/s | 5.0°C | 71.0% | 782.2hPa | 2.6V | 00:00:00 | 02:13:46 | 00:00:00 | |
| DB0NH | 2026-09-01 18:43:25 | 49.73428 | 8.65567 | 69° | 37km/h | 2299m | -3.4m/s | 4.9°C | 71.2% | 780.9hPa | 2.6V | 00:00:00 | 02:13:42 | 00:00:00 | |
| DB0ND-19 | 2026-09-01 18:43:24 | 49.73422 | 8.65536 | 77° | 38km/h | 2306m | -2.9m/s | 4.9°C | 71.4% | 780.4hPa | 2.6V | 00:00:00 | 00:00:00 | 00:00:00 | |
| DB0UT-9 | 2026-09-01 18:43:19 | 49.73418 | 8.65490 | 87° | 37km/h | 2316m | -3.0m/s | 4.8°C | 71.9% | 779.3hPa | 2.6V | 03:04:00 | 00:00:00 | 00:00:00 | |
| DF7PN | 2026-09-01 18:43:16 | 49.73412 | 8.65429 | 67° | 27km/h | 2330m | -3.1m/s | 4.6°C | 71.7% | 777.7hPa | 2.6V | 00:00:00 | 00:00:00 | 00:00:00 | |
| DK5PH-5 | 2026-09-01 18:43:11 | 49.73397 | 8.65384 | 67° | 35km/h | 2343m | -3.4m/s | 4.4°C | 73.6% | 776.4hPa | 2.6V | 00:00:00 | 02:13:28 | 00:00:00 | |
| DB0UT-7 | 2026-09-01 18:43:09 | 49.73389 | 8.65355 | 73° | 35km/h | 2350m | -3.5m/s | 4.3°C | 74.0% | 775.6hPa | 2.6V | 00:00:00 | 00:00:00 | 00:00:00 | |
| DL1ZP-14 | 2026-09-01 18:43:06 | 49.73383 | 8.65311 | 83° | 35km/h | 2360m | -3.5m/s | 4.3°C | 74.0% | 774.7hPa | 2.6V | 00:00:00 | 00:00:00 | 00:00:00 | |
| DB0NH | 2026-09-01 18:43:04 | 49.73381 | 8.65285 | 79° | 33km/h | 2367m | -3.3m/s | 4.2°C | 74.7% | 774.0hPa | 2.6V | 00:00:00 | 02:13:21 | 00:00:00 | |
| DB0ND-19 | 2026-09-01 18:42:53 | 49.73345 | 8.65137 | 76° | 35km/h | 2408m | -4.1m/s | 3.9°C | 74.6% | 770.0hPa | 2.6V | 00:00:00 | 00:00:00 | 00:00:00 | |
| DF7PN | 2026-09-01 18:42:44 | 49.73328 | 8.65035 | 78° | 31km/h | 2455m | -6.4m/s | 3.5°C | 68.6% | 765.5hPa | 2.6V | 00:00:00 | 00:00:00 | 00:00:00 | |
| DB0NH | 2026-09-01 18:42:39 | 49.73321 | 8.64973 | 83° | 37km/h | 2487m | -6.2m/s | 3.2°C | 69.2% | 762.6hPa | 2.6V | 03:05:00 | 02:12:56 | 00:00:00 | |
| BEGRI65-1 | 2026-09-01 18:42:38 | 49.73321 | 8.64973 | 84° | 31km/h | 2487m | -6.3m/s | 3.2°C | 69.2% | 762.7hPa | 2.7V | 00:00:00 | 00:00:00 | 00:00:00 | |
| DB0UT-9 | 2026-09-01 18:42:37 | 49.73320 | 8.64961 | 84° | 31km/h | 2493m | -6.3m/s | 3.2°C | 68.9% | 762.1hPa | 2.7V | 03:05:00 | 00:00:00 | 00:00:00 | |
| DL1ZP-14 | 2026-09-01 18:42:35 | 49.73318 | 8.64924 | 84° | 31km/h | 2512m | -6.3m/s | 3.1°C | 67.1% | 760.2hPa | 2.7V | 00:00:00 | 00:00:00 | 00:00:00 | |
| DK5PH-5 | 2026-09-01 18:42:31 | 49.73316 | 8.64873 | 88° | 37km/h | 2537m | -6.2m/s | 3.0°C | 63.2% | 757.9hPa | 2.7V | 03:05:00 | 02:12:48 | 00:00:00 | |
| DL0LBS | 2026-09-01 18:42:29 | 49.73315 | 8.64860 | 90° | 33km/h | 2542m | -6.0m/s | 3.0°C | 61.9% | 757.4hPa | 2.6V | 03:05:00 | 00:00:00 | 00:00:00 | |
| DB0UT-7 | 2026-09-01 18:42:28 | 49.73315 | 8.64834 | 92° | 38km/h | 2554m | -6.2m/s | 3.0°C | 59.6% | 756.2hPa | 2.6V | 00:00:00 | 00:00:00 | 00:00:00 | |
| DB0NH | 2026-09-01 18:42:17 | 49.73323 | 8.64680 | 98° | 42km/h | 2623m | -6.4m/s | 2.7°C | 46.9% | 749.9hPa | 2.6V | 00:00:00 | 02:12:34 | 00:00:00 | |
| DM7RM-13 | 2026-09-01 18:42:16 | 49.73323 | 8.64680 | 99° | 38km/h | 2623m | -6.5m/s | 2.8°C | 46.9% | 750.0hPa | 2.6V | 03:06:00 | 00:00:00 | 00:00:00 | |
| DF7PN | 2026-09-01 18:42:13 | 49.73328 | 8.64620 | 99° | 38km/h | 2648m | -6.4m/s | 2.8°C | 44.5% | 747.5hPa | 2.6V | 00:00:00 | 00:00:00 | 00:00:00 | |
| DK5PH-5 | 2026-09-01 18:42:11 | 49.73332 | 8.64588 | 102° | 40km/h | 2662m | -6.3m/s | 3.2°C | 38.8% | 746.3hPa | 2.6V | 00:00:00 | 02:12:28 | 00:00:00 | |
| DB0UT-7 | 2026-09-01 18:42:08 | 49.73338 | 8.64541 | 101° | 42km/h | 2681m | -6.4m/s | 3.4°C | 38.6% | 744.5hPa | 2.6V | 00:00:00 | 02:12:25 | 00:00:00 | |
| DL1ZP-14 | 2026-09-01 18:42:04 | 49.73346 | 8.64478 | 101° | 40km/h | 2706m | -6.5m/s | 3.5°C | 40.6% | 742.2hPa | 2.6V | 00:00:00 | 00:00:00 | 00:00:00 | |
| DB0ND-19 | 2026-09-01 18:41:50 | 49.73383 | 8.64261 | 107° | 40km/h | 2796m | -6.5m/s | 3.0°C | 44.5% | 734.0hPa | 2.7V | 00:00:00 | 00:00:00 | 00:00:00 | |
| DB0UT-7 | 2026-09-01 18:41:47 | 49.73393 | 8.64215 | 110° | 46km/h | 2816m | -6.5m/s | 2.9°C | 43.6% | 732.2hPa | 2.7V | 00:00:00 | 00:00:00 | 00:00:00 | |
| DF7PN | 2026-09-01 18:41:42 | 49.73413 | 8.64137 | 113° | 42km/h | 2847m | -6.4m/s | 2.7°C | 43.1% | 729.4hPa | 2.6V | 00:00:00 | 00:00:00 | 00:00:00 | |
| NBG1-10 | 2026-09-01 18:41:38 | 49.73431 | 8.64074 | 115° | 49km/h | 2873m | -6.2m/s | 2.5°C | 42.9% | 727.0hPa | 2.6V | 03:06:00 | 02:11:55 | 00:00:00 | |
| DB0UT-9 | 2026-09-01 18:41:35 | 49.73440 | 8.64042 | 116° | 46km/h | 2886m | -6.6m/s | 2.5°C | 42.6% | 725.9hPa | 2.6V | 03:06:00 | 00:00:00 | 00:00:00 | |
| DM7RM-13 | 2026-09-01 18:41:34 | 49.73445 | 8.64027 | 116° | 46km/h | 2892m | -6.6m/s | 2.5°C | 42.6% | 725.3hPa | 2.6V | 03:06:00 | 00:00:00 | 00:00:00 | |
| DL1ZP-14 | 2026-09-01 18:41:33 | 49.73455 | 8.63994 | 115° | 46km/h | 2905m | -6.5m/s | 2.4°C | 41.7% | 724.1hPa | 2.6V | 00:00:00 | 00:00:00 | 00:00:00 | |
| DK5PH-5 | 2026-09-01 18:41:31 | 49.73465 | 8.63961 | 117° | 49km/h | 2918m | -6.4m/s | 2.3°C | 42.0% | 722.9hPa | 2.7V | 00:00:00 | 02:11:48 | 00:00:00 | |
| DB0UT-7 | 2026-09-01 18:41:27 | 49.73487 | 8.63895 | 118° | 49km/h | 2944m | -6.5m/s | 2.2°C | 42.5% | 720.5hPa | 2.6V | 03:06:00 | 02:11:44 | 00:00:00 | |
| DB0ND-19 | 2026-09-01 18:41:20 | 49.73533 | 8.63758 | 115° | 51km/h | 2995m | -6.6m/s | 2.1°C | 42.5% | 716.0hPa | 2.6V | 00:00:00 | 00:00:00 | 00:00:00 | |
| DB0NH | 2026-09-01 18:41:18 | 49.73538 | 8.63740 | 115° | 49km/h | 3002m | -6.4m/s | 2.0°C | 42.3% | 715.3hPa | 2.6V | 00:00:00 | 02:11:35 | 00:00:00 | |
| NBG1-10 | 2026-09-01 18:41:14 | 49.73560 | 8.63669 | 115° | 49km/h | 3028m | -6.6m/s | 1.9°C | 40.7% | 713.1hPa | 2.6V | 00:00:00 | 02:11:31 | 00:00:00 | |
| BEGRI65-1 | 2026-09-01 18:41:13 | 49.73560 | 8.63669 | 116° | 49km/h | 3028m | -6.7m/s | 2.0°C | 40.6% | 713.1hPa | 2.6V | 00:00:00 | 00:00:00 | 00:00:00 | |
| DK5PH-5 | 2026-09-01 18:41:11 | 49.73575 | 8.63617 | 116° | 49km/h | 3048m | -7.6m/s | 1.9°C | 43.3% | 711.3hPa | 2.6V | 03:06:00 | 02:11:28 | 00:00:00 | |
| DB0UT-7 | 2026-09-01 18:41:07 | 49.73597 | 8.63546 | 115° | 49km/h | 3078m | -7.7m/s | 1.9°C | 43.7% | 708.5hPa | 2.6V | 00:00:00 | 00:00:00 | 00:00:00 | |
| DL1ZP-14 | 2026-09-01 18:41:02 | 49.73624 | 8.63458 | 115° | 49km/h | 3117m | -7.9m/s | 1.7°C | 44.3% | 705.3hPa | 2.6V | 00:00:00 | 00:00:00 | 00:00:00 | |
| DB0ND-19 | 2026-09-01 18:40:48 | 49.73704 | 8.63224 | 120° | 47km/h | 3227m | -7.8m/s | 1.1°C | 43.8% | 695.6hPa | 2.6V | 00:00:00 | 00:00:00 | 00:00:00 | |
| DL0LBS | 2026-09-01 18:40:46 | 49.73710 | 8.63208 | 121° | 49km/h | 3235m | -8.2m/s | 1.1°C | 44.5% | 695.0hPa | 2.6V | 03:07:00 | 00:00:00 | 00:00:00 | |
| DK5PH-5 | 2026-09-01 18:40:41 | 49.73746 | 8.63111 | 122° | 46km/h | 3283m | -7.9m/s | 1.1°C | 44.5% | 690.8hPa | 2.6V | 00:00:00 | 02:10:58 | 00:00:00 | |
| DF7PN | 2026-09-01 18:40:40 | 49.73752 | 8.63096 | 119° | 46km/h | 3291m | -7.9m/s | 1.1°C | 44.4% | 690.3hPa | 2.6V | 00:00:00 | 00:00:00 | 00:00:00 | |
| DF1GD-15 | 2026-09-01 18:40:37 | 49.73764 | 8.63065 | 123° | 46km/h | 3306m | -8.2m/s | 1.0°C | 44.6% | 688.7hPa | 2.6V | 03:07:00 | 00:00:00 | 00:00:00 | |
| DB0UT-7 | 2026-09-01 18:40:33 | 49.73795 | 8.62989 | 124° | 47km/h | 3348m | -8.4m/s | 0.6°C | 45.3% | 685.2hPa | 2.6V | 00:00:00 | 02:10:50 | 00:00:00 | |
| DM7RM-13 | 2026-09-01 18:40:32 | 49.73795 | 8.62989 | 124° | 47km/h | 3348m | -8.4m/s | 0.6°C | 45.2% | 685.3hPa | 2.6V | 03:08:00 | 00:00:00 | 00:00:00 | |
| DL1ZP-14 | 2026-09-01 18:40:31 | 49.73813 | 8.62944 | 123° | 44km/h | 3371m | -8.4m/s | 0.5°C | 46.0% | 683.2hPa | 2.6V | 00:00:00 | 00:00:00 | 00:00:00 | |
| DB0UT-9 | 2026-09-01 18:40:29 | 49.73812 | 8.62944 | 124° | 44km/h | 3371m | -8.4m/s | 0.5°C | 46.0% | 683.2hPa | 2.6V | 03:08:00 | 00:00:00 | 00:00:00 | |
| DL0LBS | 2026-09-01 18:40:26 | 49.73831 | 8.62900 | 125° | 46km/h | 3396m | -8.3m/s | 0.3°C | 46.3% | 681.1hPa | 2.6V | 03:08:00 | 00:00:00 | 00:00:00 | |
| NBG1-10 | 2026-09-01 18:40:18 | 49.73890 | 8.62769 | 127° | 47km/h | 3469m | -8.1m/s | -0.1°C | 46.4% | 674.9hPa | 2.6V | 00:00:00 | 02:10:35 | 00:00:00 | |
| DF1GD-15 | 2026-09-01 18:40:17 | 49.73891 | 8.62769 | 127° | 46km/h | 3469m | -8.1m/s | -0.1°C | 46.3% | 675.0hPa | 2.6V | 03:08:00 | 00:00:00 | 00:00:00 | |
| DM7RM-13 | 2026-09-01 18:40:12 | 49.73925 | 8.62696 | 127° | 47km/h | 3510m | -8.4m/s | -0.4°C | 44.9% | 671.5hPa | 2.6V | 03:08:00 | 00:00:00 | 00:00:00 | |
| DK5PH-5 | 2026-09-01 18:40:11 | 49.73939 | 8.62666 | 126° | 49km/h | 3526m | -8.2m/s | -0.4°C | 43.4% | 670.0hPa | 2.6V | 00:00:00 | 02:10:28 | 00:00:00 | |
| DF7PN | 2026-09-01 18:40:09 | 49.73954 | 8.62636 | 125° | 47km/h | 3542m | -8.5m/s | -0.4°C | 38.4% | 668.8hPa | 2.6V | 00:00:00 | 00:00:00 | 00:00:00 | |
| DL0LBS | 2026-09-01 18:40:05 | 49.73975 | 8.62590 | 127° | 47km/h | 3567m | -8.2m/s | -0.6°C | 35.2% | 666.7hPa | 2.6V | 03:08:00 | 00:00:00 | 00:00:00 | |
| DB0UT-9 | 2026-09-01 18:40:02 | 49.73996 | 8.62544 | 125° | 47km/h | 3592m | -8.3m/s | -0.8°C | 37.4% | 664.6hPa | 2.6V | 03:08:00 | 00:00:00 | 00:00:00 | |
| DL1ZP-14 | 2026-09-01 18:40:00 | 49.74024 | 8.62481 | 124° | 47km/h | 3624m | -8.4m/s | -1.1°C | 36.4% | 661.9hPa | 2.6V | 00:00:00 | 00:00:00 | 00:00:00 | |
| DB0ND-19 | 2026-09-01 18:39:46 | 49.74109 | 8.62271 | 119° | 47km/h | 3732m | -8.6m/s | -1.7°C | 30.9% | 653.1hPa | 2.6V | 00:00:00 | 00:00:00 | 00:00:00 | |
| DK5PH-5 | 2026-09-01 18:39:41 | 49.74138 | 8.62188 | 119° | 46km/h | 3773m | -8.2m/s | -1.8°C | 32.9% | 649.6hPa | 2.6V | 00:00:00 | 02:09:58 | 00:00:00 | |
| BEGRI65-1 | 2026-09-01 18:39:40 | 49.74138 | 8.62188 | 119° | 47km/h | 3773m | -8.3m/s | -1.9°C | 32.7% | 649.7hPa | 2.6V | 00:00:00 | 00:00:00 | 00:00:00 | |
| CB1BUN | 2026-09-01 18:39:39 | 49.74143 | 8.62173 | 119° | 47km/h | 3782m | -8.4m/s | -1.9°C | 32.8% | 648.9hPa | 2.6V | 00:00:00 | 00:00:00 | 00:00:00 | |
| DF7PN | 2026-09-01 18:39:38 | 49.74155 | 8.62140 | 117° | 46km/h | 3798m | -8.3m/s | -2.0°C | 33.0% | 647.6hPa | 2.6V | 00:00:00 | 00:00:00 | 00:00:00 | |
| DF1GD-15 | 2026-09-01 18:39:36 | 49.74160 | 8.62123 | 118° | 47km/h | 3807m | -8.3m/s | -2.1°C | 32.7% | 646.9hPa | 2.6V | 00:00:00 | 00:00:00 | 00:00:00 | |
| DB0UT-7 | 2026-09-01 18:39:30 | 49.74192 | 8.62008 | 112° | 46km/h | 3865m | -8.4m/s | -2.4°C | 32.7% | 642.0hPa | 2.6V | 03:08:00 | 02:09:47 | 00:00:00 | |
| DL1ZP-14 | 2026-09-01 18:39:29 | 49.74200 | 8.61975 | 111° | 46km/h | 3882m | -9.0m/s | -2.5°C | 31.6% | 640.8hPa | 2.6V | 00:00:00 | 00:00:00 | 00:00:00 | |
| DB0NH | 2026-09-01 18:39:27 | 49.74204 | 8.61958 | 112° | 47km/h | 3891m | -8.7m/s | -2.6°C | 31.3% | 640.0hPa | 2.6V | 03:08:00 | 02:09:44 | 00:00:00 | |
| DL0LBS | 2026-09-01 18:39:24 | 49.74212 | 8.61924 | 110° | 46km/h | 3908m | -8.3m/s | -2.6°C | 32.5% | 638.7hPa | 2.6V | 03:09:00 | 00:00:00 | 00:00:00 | |
| DM0DOS-11 | 2026-09-01 18:39:20 | 49.74247 | 8.61753 | 107° | 47km/h | 3993m | -8.7m/s | -3.1°C | 39.7% | 631.8hPa | 2.6V | 03:08:46 | 02:09:32 | 00:00:00 | |
| CB1BUN | 2026-09-01 18:39:18 | 49.74233 | 8.61822 | 109° | 47km/h | 3959m | -8.6m/s | -2.9°C | 38.9% | 634.6hPa | 2.6V | 00:00:00 | 00:00:00 | 00:00:00 | |
| BEGRI65-1 | 2026-09-01 18:39:17 | 49.74236 | 8.61805 | 107° | 46km/h | 3967m | -8.3m/s | -2.9°C | 39.1% | 633.9hPa | 2.6V | 00:00:00 | 00:00:00 | 00:00:00 | |
| DM0DOS-11 | 2026-09-01 18:39:15 | 49.74265 | 8.61665 | 104° | 46km/h | 4036m | -8.3m/s | -3.5°C | 40.6% | 628.5hPa | 2.6V | 03:08:51 | 02:09:27 | 00:00:00 | |
| NBG1-10 | 2026-09-01 18:39:12 | 49.74258 | 8.61700 | 107° | 47km/h | 4019m | -8.6m/s | -3.3°C | 40.2% | 629.8hPa | 2.6V | 00:00:00 | 02:09:29 | 00:00:00 | |
| DK5PH-5 | 2026-09-01 18:39:11 | 49.74262 | 8.61682 | 107° | 46km/h | 4027m | -8.8m/s | -3.4°C | 40.4% | 629.1hPa | 2.6V | 03:08:00 | 02:09:28 | 00:00:00 | |
| DM7RM-13 | 2026-09-01 18:39:10 | 49.74261 | 8.61682 | 107° | 47km/h | 4027m | -8.9m/s | -3.4°C | 40.1% | 629.1hPa | 2.6V | 03:09:00 | 00:00:00 | 00:00:00 | |
| DF7PN | 2026-09-01 18:39:07 | 49.74274 | 8.61613 | 107° | 46km/h | 4061m | -8.7m/s | -3.7°C | 40.7% | 626.5hPa | 2.6V | 00:00:00 | 00:00:00 | 00:00:00 | |
| DM0DOS-11 | 2026-09-01 18:39:05 | 49.74281 | 8.61577 | 106° | 47km/h | 4079m | -8.7m/s | -3.9°C | 41.2% | 625.1hPa | 2.6V | 03:08:56 | 02:09:22 | 00:00:00 | |
| DM0DOS-11 | 2026-09-01 18:39:05 | 49.74296 | 8.61490 | 106° | 46km/h | 4120m | -8.5m/s | -4.2°C | 42.9% | 621.7hPa | 2.5V | 03:09:01 | 02:09:17 | 00:00:00 | |
| DL0LBS | 2026-09-01 18:39:04 | 49.74281 | 8.61577 | 108° | 47km/h | 4079m | -8.7m/s | -3.9°C | 40.9% | 625.1hPa | 2.6V | 03:09:00 | 00:00:00 | 00:00:00 | |
| BIOWL9-15 | 2026-09-01 18:38:59 | 49.74317 | 8.61368 | 102° | 46km/h | 4180m | -8.8m/s | -4.8°C | 45.5% | 617.1hPa | 2.6V | 00:00:00 | 00:00:00 | 00:00:00 | |
| DF3TZ-5 | 2026-09-01 18:38:56 | 49.74332 | 8.61263 | 102° | 46km/h | 4232m | -8.6m/s | -5.1°C | 50.5% | 613.0hPa | 2.6V | 00:00:00 | 00:00:00 | 00:00:00 | |
| DF1GD-15 | 2026-09-01 18:38:55 | 49.74308 | 8.61421 | 105° | 47km/h | 4154m | -8.9m/s | -4.6°C | 43.7% | 619.1hPa | 2.6V | 00:00:00 | 00:00:00 | 00:00:00 | |
| DM7RM-13 | 2026-09-01 18:38:50 | 49.74321 | 8.61334 | 103° | 46km/h | 4197m | -8.9m/s | -4.9°C | 47.0% | 615.7hPa | 2.6V | 03:09:00 | 00:00:00 | 00:00:00 | |
| DM0DOS-11 | 2026-09-01 18:38:47 | 49.74332 | 8.61263 | 102° | 47km/h | 4232m | -8.6m/s | -5.1°C | 50.9% | 613hPa | 2.6V | 03:09:14 | 02:09:04 | 00:00:00 | |
| DM0DOS-11 | 2026-09-01 18:38:47 | 49.74345 | 8.61173 | 103° | 47km/h | 4275m | -8.9m/s | -5.3°C | 52.4% | 609.6hPa | 2.6V | 03:09:19 | 02:08:59 | 00:00:00 | |
| DB0ND-19 | 2026-09-01 18:38:44 | 49.74340 | 8.61209 | 102° | 46km/h | 4257m | -8.7m/s | -5.3°C | 55.7% | 611.0hPa | 2.5V | 00:00:00 | 00:00:00 | 00:00:00 | |
| DL0LBS | 2026-09-01 18:38:43 | 49.74340 | 8.61209 | 104° | 47km/h | 4258m | -8.7m/s | -5.3°C | 55.7% | 611.0hPa | 2.5V | 03:09:00 | 00:00:00 | 00:00:00 | |
| DM0DOS-11 | 2026-09-01 18:38:42 | 49.74360 | 8.61082 | 104° | 49km/h | 4318m | -8.8m/s | -5.6°C | 51.6% | 606.3hPa | 2.5V | 03:09:24 | 02:08:54 | 00:00:00 | |
| DB0NH | 2026-09-01 18:38:39 | 49.74354 | 8.61118 | 103° | 49km/h | 4301m | -8.6m/s | -5.4°C | 51.1% | 607.6hPa | 2.5V | 00:00:00 | 02:08:56 | 00:00:00 | |
| DM0DOS-11 | 2026-09-01 18:38:37 | 49.74375 | 8.60989 | 104° | 47km/h | 4361m | -8.4m/s | -5.9°C | 51.1% | 603hPa | 2.5V | 03:09:29 | 02:08:49 | 00:00:00 | |
| BIOWL1-15 | 2026-09-01 18:38:34 | 49.74369 | 8.61026 | 106° | 49km/h | 4343m | -8.8m/s | -5.7°C | 57.7% | 604.4hPa | 2.6V | 03:09:57 | 02:08:51 | 00:00:00 | |
| DF1GD-15 | 2026-09-01 18:38:34 | 49.74369 | 8.61026 | 107° | 49km/h | 4344m | -8.8m/s | -5.7°C | 51.2% | 604.4hPa | 2.6V | 03:09:00 | 00:00:00 | 00:00:00 | |
| DM0DOS-11 | 2026-09-01 18:38:32 | 49.74392 | 8.60896 | 103° | 49km/h | 4404m | -8.6m/s | -6.3°C | 51.7% | 599.6hPa | 2.6V | 03:09:34 | 02:08:44 | 00:00:00 | |
| DM7RM-13 | 2026-09-01 18:38:29 | 49.74382 | 8.60952 | 107° | 49km/h | 4378m | -8.9m/s | -6.1°C | 50.8% | 601.6hPa | 2.6V | 03:09:00 | 00:00:00 | 00:00:00 | |
| BIOWL9-15 | 2026-09-01 18:38:28 | 49.74392 | 8.60897 | 103° | 47km/h | 4404m | -8.6m/s | -6.3°C | 51.2% | 599.6hPa | 2.6V | 00:00:00 | 00:00:00 | 00:00:00 | |
| DM0DOS-11 | 2026-09-01 18:38:27 | 49.74408 | 8.60804 | 104° | 47km/h | 4448m | -8.7m/s | -6.7°C | 52.2% | 596.4hPa | 2.6V | 03:09:39 | 02:08:39 | 00:00:00 | |
| BIOWL1-15 | 2026-09-01 18:38:24 | 49.74401 | 8.60841 | 107° | 49km/h | 4431m | -9m/s | -6.5°C | 57.9% | 597.7hPa | 2.5V | 03:09:57 | 02:08:41 | 00:00:00 | |
| DB0UT-7 | 2026-09-01 18:38:24 | 49.74401 | 8.60841 | 107° | 49km/h | 4431m | -9.0m/s | -6.5°C | 52.0% | 597.6hPa | 2.6V | 00:00:00 | 02:08:41 | 00:00:00 | |
| DL0LBS | 2026-09-01 18:38:22 | 49.74405 | 8.60823 | 106° | 49km/h | 4439m | -9.1m/s | -6.6°C | 51.6% | 597.0hPa | 2.6V | 03:09:00 | 00:00:00 | 00:00:00 | |
| DM0DOS-11 | 2026-09-01 18:38:21 | 49.74426 | 8.60694 | 106° | 47km/h | 4500m | -8.6m/s | -7.1°C | 53% | 592.4hPa | 2.6V | 03:09:45 | 02:08:33 | 00:00:00 | |
| BEGRI65-1 | 2026-09-01 18:38:18 | 49.74417 | 8.60749 | 106° | 47km/h | 4474m | -8.8m/s | -6.9°C | 51.7% | 594.4hPa | 2.6V | 03:09:00 | 00:00:00 | 00:00:00 | |
| DM0DOS-11 | 2026-09-01 18:38:16 | 49.74442 | 8.60604 | 106° | 47km/h | 4544m | -8.7m/s | -7.5°C | 54.6% | 589hPa | 2.6V | 03:09:50 | 02:08:28 | 00:00:00 | |
| BIOWL1-15 | 2026-09-01 18:38:13 | 49.74436 | 8.60640 | 104° | 47km/h | 4527m | -8.7m/s | -7.4°C | 59.8% | 590.4hPa | 2.5V | 03:09:57 | 02:08:30 | 00:00:00 | |
| CB1BUN | 2026-09-01 18:38:12 | 49.74436 | 8.60640 | 105° | 47km/h | 4527m | -8.7m/s | -7.4°C | 53.4% | 590.4hPa | 2.5V | 03:09:00 | 00:00:00 | 00:00:00 | |
| DM0DOS-11 | 2026-09-01 18:38:11 | 49.74458 | 8.60512 | 103° | 47km/h | 4587m | -8.6m/s | -8°C | 56% | 585.8hPa | 2.5V | 03:09:55 | 02:08:23 | 00:00:00 | |
| BIOWL1-15 | 2026-09-01 18:38:05 | 49.74466 | 8.60457 | 105° | 49km/h | 4613m | -8.8m/s | -8.2°C | 62.3% | 583.8hPa | 2.6V | 03:10:48 | 02:08:20 | 00:00:00 | |
| KANTATE | 2026-09-01 18:38:04 | 49.74460 | 8.60494 | 105° | 49km/h | 4595m | -8.8m/s | -8.0°C | 55.6% | 585.2hPa | 2.5V | 00:00:00 | 00:00:00 | 00:00:00 | |
| DM0DOS-11 | 2026-09-01 18:38:01 | 49.74472 | 8.60420 | 101° | 47km/h | 4630m | -8.7m/s | -8.4°C | 57.1% | 582.5hPa | 2.5V | 03:10:00 | 02:08:18 | 00:00:00 | |
| DM0DOS-11 | 2026-09-01 18:38:01 | 49.74484 | 8.60328 | 102° | 49km/h | 4673m | -9m/s | -8.8°C | 59.7% | 579.3hPa | 2.5V | 03:10:05 | 02:08:13 | 00:00:00 | |
| BIOWL1-15 | 2026-09-01 18:37:53 | 49.74491 | 8.60272 | 101° | 49km/h | 4700m | -8.7m/s | -9°C | 66.6% | 577.3hPa | 2.6V | 03:10:48 | 02:08:10 | 00:00:00 | |
| CB1BUN | 2026-09-01 18:37:52 | 49.74492 | 8.60272 | 102° | 47km/h | 4700m | -8.7m/s | -9.0°C | 60.7% | 577.3hPa | 2.6V | 03:10:00 | 00:00:00 | 00:00:00 | |
| DM0DOS-11 | 2026-09-01 18:37:51 | 49.74496 | 8.60235 | 102° | 49km/h | 4718m | -9m/s | -9.2°C | 62.6% | 576hPa | 2.6V | 03:10:10 | 02:08:08 | 00:00:00 | |
| DM0DOS-11 | 2026-09-01 18:37:51 | 49.74508 | 8.60140 | 100° | 49km/h | 4761m | -9.1m/s | -9.6°C | 64.9% | 572.7hPa | 2.6V | 03:10:15 | 02:08:03 | 00:00:00 | |
| DH7VM-15 | 2026-09-01 18:37:50 | 49.74496 | 8.60234 | 103° | 49km/h | 4718m | -9.0m/s | -9.2°C | 61.9% | 576.0hPa | 2.6V | 00:00:00 | 00:00:00 | 00:00:00 | |
| DF1GD-15 | 2026-09-01 18:37:48 | 49.74501 | 8.60197 | 101° | 49km/h | 4735m | -8.7m/s | -9.3°C | 63.0% | 574.6hPa | 2.6V | 03:10:00 | 00:00:00 | 00:00:00 | |
| DM7RM-13 | 2026-09-01 18:37:47 | 49.74503 | 8.60178 | 100° | 49km/h | 4744m | -8.7m/s | -9.4°C | 63.4% | 574.1hPa | 2.6V | 03:10:00 | 00:00:00 | 00:00:00 | |
| DM0DOS-11 | 2026-09-01 18:37:46 | 49.74518 | 8.60044 | 99° | 49km/h | 4805m | -8.7m/s | -10°C | 66.1% | 569.5hPa | 2.6V | 03:10:20 | 02:07:58 | 00:00:00 | |
| BIOWL1-15 | 2026-09-01 18:37:44 | 49.74516 | 8.60063 | 99° | 49km/h | 4797m | -8.8m/s | -9.9°C | 70.6% | 570.2hPa | 2.6V | 03:10:48 | 02:07:59 | 00:00:00 | |
| DB0ND-19 | 2026-09-01 18:37:42 | 49.74516 | 8.60063 | 98° | 49km/h | 4797m | -8.8m/s | -9.9°C | 65.2% | 570.2hPa | 2.6V | 00:00:00 | 00:00:00 | 00:00:00 | |
| DM0DOS-11 | 2026-09-01 18:37:41 | 49.74527 | 8.59947 | 97° | 49km/h | 4849m | -8.7m/s | -10.3°C | 67.5% | 566.3hPa | 2.6V | 03:10:25 | 02:07:53 | 00:00:00 | |
| DK5PH-5 | 2026-09-01 18:37:41 | 49.74518 | 8.60044 | 100° | 53km/h | 4805m | -8.7m/s | -9.9°C | 66.1% | 569.5hPa | 2.6V | 00:00:00 | 02:07:58 | 00:00:00 | |
| KANTATE | 2026-09-01 18:37:38 | 49.74521 | 8.60005 | 99° | 49km/h | 4823m | -8.9m/s | -10.1°C | 66.1% | 568.2hPa | 2.6V | 00:00:00 | 00:00:00 | 00:00:00 | |
| BEGRI65-1 | 2026-09-01 18:37:37 | 49.74523 | 8.59986 | 99° | 49km/h | 4832m | -8.7m/s | -10.2°C | 66.2% | 567.5hPa | 2.6V | 03:10:00 | 00:00:00 | 00:00:00 | |
| DM0DOS-11 | 2026-09-01 18:37:36 | 49.74535 | 8.59849 | 96° | 51km/h | 4893m | -9m/s | -10.7°C | 69% | 563hPa | 2.6V | 03:10:30 | 02:07:48 | 00:00:00 | |
| BIOWL1-15 | 2026-09-01 18:37:31 | 49.74535 | 8.59849 | 97° | 51km/h | 4893m | -9m/s | -10.7°C | 73.2% | 563hPa | 2.6V | 03:10:48 | 02:07:48 | 00:00:00 | |
| DF1GD-15 | 2026-09-01 18:37:28 | 49.74538 | 8.59809 | 97° | 51km/h | 4911m | -9.3m/s | -10.9°C | 68.7% | 561.7hPa | 2.5V | 03:10:00 | 00:00:00 | 00:00:00 | |
| DM7RM-13 | 2026-09-01 18:37:26 | 49.74540 | 8.59769 | 98° | 51km/h | 4929m | -8.9m/s | -11.0°C | 69.1% | 560.5hPa | 2.5V | 03:10:00 | 00:00:00 | 00:00:00 | |
| DM0DOS-11 | 2026-09-01 18:37:24 | 49.74544 | 8.59708 | 96° | 53km/h | 4954m | -8.9m/s | -11.2°C | 70.9% | 558.4hPa | 2.5V | 03:10:37 | 02:07:41 | 00:00:00 | |
| DM0DOS-11 | 2026-09-01 18:37:24 | 49.74553 | 8.59603 | 97° | 55km/h | 5000m | -9.3m/s | -11.5°C | 72.3% | 555.2hPa | 2.5V | 03:10:42 | 02:07:36 | 00:00:00 | |
| BIOWL1-15 | 2026-09-01 18:37:23 | 49.74549 | 8.59645 | 98° | 53km/h | 4981m | -9.6m/s | -11.4°C | 75.4% | 556.5hPa | 2.6V | 03:10:48 | 02:07:38 | 00:00:00 | |
| DL0LBS | 2026-09-01 18:37:20 | 49.74549 | 8.59645 | 99° | 53km/h | 4981m | -9.6m/s | -11.4°C | 70.8% | 556.5hPa | 2.5V | 03:10:00 | 00:00:00 | 00:00:00 | |
| KANTATE | 2026-09-01 18:37:18 | 49.74553 | 8.59603 | 99° | 55km/h | 5000m | -9.3m/s | -11.5°C | 71.4% | 555.2hPa | 2.5V | 00:00:00 | 00:00:00 | 00:00:00 | |
| DB0NH | 2026-09-01 18:37:17 | 49.74556 | 8.59560 | 98° | 55km/h | 5018m | -9.0m/s | -11.5°C | 72.4% | 553.8hPa | 2.5V | 00:00:00 | 02:07:34 | 00:00:00 | |
| BEGRI65-1 | 2026-09-01 18:37:16 | 49.74556 | 8.59560 | 99° | 55km/h | 5018m | -9.1m/s | -11.6°C | 71.5% | 553.8hPa | 2.5V | 03:10:00 | 00:00:00 | 00:00:00 | |
| DM0DOS-11 | 2026-09-01 18:37:14 | 49.74571 | 8.59388 | 96° | 55km/h | 5090m | -8.9m/s | -12.1°C | 70.5% | 548.6hPa | 2.5V | 03:10:52 | 02:07:26 | 00:00:00 | |
| BIOWL1-15 | 2026-09-01 18:37:13 | 49.74568 | 8.59431 | 98° | 57km/h | 5072m | -9.4m/s | -12°C | 75.6% | 550hPa | 2.6V | 03:11:39 | 02:07:28 | 00:00:00 | |
| DK5PH-5 | 2026-09-01 18:37:11 | 49.74568 | 8.59431 | 98° | 53km/h | 5072m | -9.3m/s | -12.0°C | 72.5% | 549.9hPa | 2.6V | 03:10:00 | 02:07:28 | 00:00:00 | |
| DB0UT-9 | 2026-09-01 18:37:07 | 49.74573 | 8.59367 | 98° | 55km/h | 5099m | -9.2m/s | -12.1°C | 69.7% | 548.1hPa | 2.6V | 03:11:00 | 00:00:00 | 00:00:00 | |
| DM7RM-13 | 2026-09-01 18:37:05 | 49.74577 | 8.59324 | 99° | 55km/h | 5117m | -9.1m/s | -12.3°C | 69.8% | 546.7hPa | 2.6V | 03:11:00 | 00:00:00 | 00:00:00 | |
| DM0DOS-11 | 2026-09-01 18:37:04 | 49.74585 | 8.59177 | 96° | 53km/h | 5181m | -9.7m/s | -12.5°C | 68.9% | 542.2hPa | 2.6V | 03:11:02 | 02:07:16 | 00:00:00 | |
| BIOWL1-15 | 2026-09-01 18:37:02 | 49.74584 | 8.59198 | 94° | 53km/h | 5172m | -9.1m/s | -12.6°C | 72.8% | 542.8hPa | 2.6V | 03:11:39 | 02:07:17 | 00:00:00 | |
| BIOWL9-15 | 2026-09-01 18:36:55 | 49.74590 | 8.59075 | 92° | 51km/h | 5227m | -9.2m/s | -12.7°C | 67.2% | 538.9hPa | 2.5V | 00:00:00 | 00:00:00 | 00:00:00 | |
| DB0UT-7 | 2026-09-01 18:36:53 | 49.74591 | 8.59055 | 93° | 51km/h | 5236m | -9.3m/s | -12.6°C | 68.5% | 538.3hPa | 2.5V | 00:00:00 | 00:00:00 | 00:00:00 | |
| DM0DOS-11 | 2026-09-01 18:36:52 | 49.74593 | 8.58933 | 93° | 51km/h | 5292m | -9.3m/s | -13°C | 65% | 534.4hPa | 2.5V | 03:11:14 | 02:07:04 | 00:00:00 | |
| BIOWL1-15 | 2026-09-01 18:36:50 | 49.74592 | 8.58994 | 91° | 53km/h | 5264m | -9.2m/s | -12.8°C | 68.4% | 536.4hPa | 2.6V | 03:11:39 | 02:07:07 | 00:00:00 | |
| BIOWL1-15 | 2026-09-01 18:36:44 | 49.74596 | 8.58793 | 92° | 51km/h | 5358m | -9.6m/s | -13.5°C | 70.6% | 529.8hPa | 2.6V | 03:11:39 | 02:06:57 | 00:00:00 | |
| BIOWL1-15 | 2026-09-01 18:36:31 | 49.74601 | 8.58573 | 93° | 51km/h | 5461m | -9.4m/s | -14.2°C | 72.2% | 522.7hPa | 2.6V | 03:11:39 | 02:06:46 | 00:00:00 | |
| BIOWL1-15 | 2026-09-01 18:36:18 | 49.74609 | 8.58366 | 94° | 46km/h | 5564m | -9.2m/s | -14.8°C | 69.3% | 515.6hPa | 2.6V | 03:12:30 | 02:06:35 | 00:00:00 | |
| DM0DOS-11 | 2026-09-01 18:36:15 | 49.74614 | 8.58229 | 94° | 44km/h | 5638m | -9.5m/s | -15°C | 58.9% | 510.5hPa | 2.6V | 03:11:51 | 02:06:27 | 00:00:00 | |
| BIOWL1-15 | 2026-09-01 18:36:09 | 49.74616 | 8.58180 | 95° | 42km/h | 5667m | -9.5m/s | -14.9°C | 53.6% | 508.7hPa | 2.5V | 03:12:30 | 02:06:24 | 00:00:00 | |
| DM0DOS-11 | 2026-09-01 18:36:05 | 49.74623 | 8.58068 | 96° | 42km/h | 5733m | -9.3m/s | -15.1°C | 50% | 504.2hPa | 2.6V | 03:12:01 | 02:06:17 | 00:00:00 | |
| BIOWL1-15 | 2026-09-01 18:35:56 | 49.74627 | 8.58005 | 99° | 42km/h | 5770m | -9.8m/s | -15.4°C | 55.9% | 501.8hPa | 2.5V | 03:12:30 | 02:06:13 | 00:00:00 | |
| BIOWL1-15 | 2026-09-01 18:35:47 | 49.74646 | 8.57823 | 103° | 44km/h | 5873m | -9.3m/s | -16.3°C | 58.3% | 494.9hPa | 2.5V | 03:12:30 | 02:06:02 | 00:00:00 | |
| BIOWL1-15 | 2026-09-01 18:35:36 | 49.74671 | 8.57638 | 101° | 46km/h | 5977m | -9.5m/s | -16.6°C | 51% | 488.2hPa | 2.5V | 03:12:30 | 02:05:51 | 00:00:00 | |
| DM0DOS-11 | 2026-09-01 18:35:34 | 49.74682 | 8.57553 | 103° | 44km/h | 6024m | -9.4m/s | -16.9°C | 46.1% | 485.1hPa | 2.5V | 03:12:32 | 02:05:46 | 00:00:00 | |
| DO3MHA-11 | 2026-09-01 18:35:31 | 49.74677 | 8.57587 | 102° | 44km/h | 6005m | -9.7m/s | -16.7°C | 46.7% | 486.3hPa | 2.5V | 00:00:00 | 02:05:48 | 00:00:00 | |
| DF7PN | 2026-09-01 18:35:30 | 49.74682 | 8.57553 | 103° | 44km/h | 6024m | -9.4m/s | -16.9°C | 45.1% | 485.1hPa | 2.5V | 00:00:00 | 00:00:00 | 00:00:00 | |
| CB1BUN | 2026-09-01 18:35:28 | 49.74682 | 8.57553 | 105° | 44km/h | 6024m | -9.4m/s | -16.9°C | 45.1% | 485.1hPa | 2.5V | 03:13:00 | 00:00:00 | 00:00:00 | |
| DM0DOS-11 | 2026-09-01 18:35:24 | 49.74709 | 8.57384 | 105° | 44km/h | 6119m | -9.7m/s | -17.4°C | 39.8% | 478.8hPa | 2.5V | 03:12:42 | 02:05:36 | 00:00:00 | |
| BIOWL1-15 | 2026-09-01 18:35:23 | 49.74697 | 8.57451 | 105° | 46km/h | 6081m | -9.4m/s | -17.2°C | 47.1% | 481.4hPa | 2.6V | 03:13:21 | 02:05:40 | 00:00:00 | |
| DF1GD-15 | 2026-09-01 18:35:22 | 49.74697 | 8.57451 | 106° | 46km/h | 6081m | -9.4m/s | -17.2°C | 42.4% | 481.4hPa | 2.5V | 03:13:00 | 00:00:00 | 00:00:00 | |
| DB0UT-9 | 2026-09-01 18:35:21 | 49.74702 | 8.57417 | 107° | 46km/h | 6100m | -9.9m/s | -17.3°C | 40.4% | 480.2hPa | 2.5V | 03:13:00 | 00:00:00 | 00:00:00 | |
| DL1ZP-14 | 2026-09-01 18:35:20 | 49.74705 | 8.57401 | 106° | 44km/h | 6109m | -9.6m/s | -17.3°C | 39.4% | 479.5hPa | 2.5V | 00:00:00 | 00:00:00 | 00:00:00 | |
| DF3TZ-5 | 2026-09-01 18:35:18 | 49.74712 | 8.57367 | 106° | 46km/h | 6129m | -9.8m/s | -17.4°C | 38.5% | 478.3hPa | 2.5V | 00:00:00 | 00:00:00 | 00:00:00 | |
| DB0UT-7 | 2026-09-01 18:35:17 | 49.74715 | 8.57350 | 109° | 49km/h | 6139m | -9.8m/s | -17.4°C | 38.6% | 477.7hPa | 2.5V | 03:12:00 | 02:05:34 | 00:00:00 | |
| DM0DOS-11 | 2026-09-01 18:35:14 | 49.74744 | 8.57215 | 108° | 46km/h | 6216m | -9.6m/s | -17.8°C | 37.1% | 472.8hPa | 2.5V | 03:12:52 | 02:05:26 | 00:00:00 | |
| BIOWL1-15 | 2026-09-01 18:35:12 | 49.74733 | 8.57266 | 110° | 47km/h | 6187m | -10m/s | -17.7°C | 40.5% | 474.6hPa | 2.5V | 03:13:21 | 02:05:29 | 00:00:00 | |
| DK5PH-5 | 2026-09-01 18:35:11 | 49.74737 | 8.57249 | 110° | 49km/h | 6197m | -9.6m/s | -17.7°C | 36.9% | 474.0hPa | 2.5V | 03:12:00 | 02:05:28 | 00:00:00 | |
| BIOWL7-15 | 2026-09-01 18:35:08 | 49.74744 | 8.57215 | 109° | 46km/h | 6216m | -9.6m/s | -17.8°C | 36.1% | 472.8hPa | 2.5V | 00:00:00 | 00:00:00 | 00:00:00 | |
| DB0ND-19 | 2026-09-01 18:35:07 | 49.74752 | 8.57180 | 111° | 46km/h | 6236m | -9.8m/s | -18.0°C | 36.6% | 471.6hPa | 2.5V | 00:00:00 | 00:00:00 | 00:00:00 | |
| DM0DOS-11 | 2026-09-01 18:35:04 | 49.74786 | 8.57039 | 110° | 49km/h | 6314m | -10m/s | -18.7°C | 38.3% | 466.7hPa | 2.5V | 03:13:02 | 02:05:16 | 00:00:00 | |
| BIOWL1-15 | 2026-09-01 18:35:02 | 49.74773 | 8.57093 | 110° | 47km/h | 6285m | -9.9m/s | -18.4°C | 41.6% | 468.6hPa | 2.6V | 03:13:21 | 02:05:19 | 00:00:00 | |
| DF7PN | 2026-09-01 18:34:59 | 49.74790 | 8.57021 | 108° | 49km/h | 6324m | -9.6m/s | -18.8°C | 37.4% | 466.1hPa | 2.5V | 00:00:00 | 00:00:00 | 00:00:00 | |
| DO3MHA-11 | 2026-09-01 18:34:56 | 49.74797 | 8.56984 | 108° | 51km/h | 6343m | -9.6m/s | -18.9°C | 38.5% | 464.8hPa | 2.5V | 03:13:00 | 02:05:13 | 00:00:00 | |
| BEGRI65-1 | 2026-09-01 18:34:53 | 49.74805 | 8.56947 | 107° | 49km/h | 6362m | -9.7m/s | -19.1°C | 37.3% | 463.6hPa | 2.5V | 00:00:00 | 00:00:00 | 00:00:00 | |
| DM0DOS-11 | 2026-09-01 18:34:52 | 49.74828 | 8.56814 | 101° | 51km/h | 6430m | -9.5m/s | -19.5°C | 32.6% | 459.4hPa | 2.5V | 03:13:14 | 02:05:04 | 00:00:00 | |
| BIOWL1-15 | 2026-09-01 18:34:51 | 49.74815 | 8.56891 | 105° | 51km/h | 6391m | -10m/s | -19.4°C | 40.2% | 461.8hPa | 2.6V | 03:13:21 | 02:05:08 | 00:00:00 | |
| BIOWL9-15 | 2026-09-01 18:34:50 | 49.74819 | 8.56872 | 105° | 49km/h | 6401m | -9.7m/s | -19.5°C | 36.4% | 461.2hPa | 2.6V | 00:00:00 | 00:00:00 | 00:00:00 | |
| DL1ZP-14 | 2026-09-01 18:34:49 | 49.74822 | 8.56853 | 106° | 49km/h | 6411m | -9.7m/s | -19.5°C | 35.3% | 460.6hPa | 2.6V | 00:00:00 | 00:00:00 | 00:00:00 | |
| DF3TZ-5 | 2026-09-01 18:34:47 | 49.74828 | 8.56814 | 101° | 49km/h | 6430m | -9.5m/s | -19.5°C | 31.6% | 459.4hPa | 2.6V | 00:00:00 | 00:00:00 | 00:00:00 | |
| BIOWL1-15 | 2026-09-01 18:34:41 | 49.74842 | 8.56694 | 97° | 51km/h | 6487m | -9.5m/s | -19.5°C | 29.3% | 455.8hPa | 2.6V | 03:13:21 | 02:04:58 | 00:00:00 | |
| DB0UT-7 | 2026-09-01 18:34:41 | 49.74842 | 8.56694 | 98° | 55km/h | 6488m | -9.5m/s | -19.5°C | 26.5% | 455.7hPa | 2.6V | 00:00:00 | 00:00:00 | 00:00:00 | |
| DM0DOS-11 | 2026-09-01 18:34:40 | 49.74850 | 8.56570 | 94° | 55km/h | 6546m | -10.2m/s | -19.6°C | 20.2% | 452.2hPa | 2.6V | 03:13:26 | 02:04:52 | 00:00:00 | |
| BIOWL1-15 | 2026-09-01 18:34:32 | 49.74856 | 8.56465 | 95° | 55km/h | 6595m | -9.9m/s | -19.7°C | 18.7% | 449.2hPa | 2.5V | 03:14:12 | 02:04:47 | 00:00:00 | |
| DB0NH | 2026-09-01 18:34:31 | 49.74855 | 8.56486 | 95° | 60km/h | 6585m | -10.0m/s | -19.6°C | 16.6% | 449.7hPa | 2.5V | 03:13:00 | 02:04:48 | 00:00:00 | |
| DM0DOS-11 | 2026-09-01 18:34:30 | 49.74861 | 8.56357 | 94° | 55km/h | 6643m | -10m/s | -19.9°C | 14.4% | 446.3hPa | 2.5V | 03:13:36 | 02:04:42 | 00:00:00 | |
| BIOWL1-15 | 2026-09-01 18:34:21 | 49.74868 | 8.56227 | 94° | 55km/h | 6702m | -9.9m/s | -20.3°C | 16.2% | 442.8hPa | 2.6V | 03:14:12 | 02:04:36 | 00:00:00 | |
| DM0DOS-11 | 2026-09-01 18:34:20 | 49.74872 | 8.56140 | 94° | 55km/h | 6742m | -10m/s | -20.6°C | 13.8% | 440.5hPa | 2.5V | 03:13:46 | 02:04:32 | 00:00:00 | |
| BIOWL9-15 | 2026-09-01 18:34:19 | 49.74868 | 8.56227 | 94° | 55km/h | 6702m | -9.9m/s | -20.3°C | 13.3% | 442.8hPa | 2.6V | 00:00:00 | 00:00:00 | 00:00:00 | |
| DL1ZP-14 | 2026-09-01 18:34:18 | 49.74869 | 8.56206 | 95° | 57km/h | 6712m | -10.2m/s | -20.4°C | 13.2% | 442.2hPa | 2.6V | 00:00:00 | 00:00:00 | 00:00:00 | |
| DB0UT-9 | 2026-09-01 18:34:17 | 49.74869 | 8.56206 | 97° | 57km/h | 6712m | -10.2m/s | -20.4°C | 13.3% | 442.2hPa | 2.5V | 03:14:00 | 00:00:00 | 00:00:00 | |
| DO3MHA-11 | 2026-09-01 18:34:16 | 49.74871 | 8.56162 | 95° | 57km/h | 6732m | -9.8m/s | -20.5°C | 13.9% | 441.0hPa | 2.5V | 03:13:00 | 02:04:33 | 00:00:00 | |
| NBG1-10 | 2026-09-01 18:34:15 | 49.74872 | 8.56140 | 95° | 58km/h | 6742m | -9.9m/s | -20.5°C | 13.8% | 440.4hPa | 2.5V | 00:00:00 | 02:04:32 | 00:00:00 | |
| HEMX73-11 | 2026-09-01 18:34:14 | 49.74872 | 8.56140 | 95° | 55km/h | 6742m | -10.0m/s | -20.6°C | 13.1% | 440.5hPa | 2.5V | 00:00:00 | 00:00:00 | 00:00:00 | |
| DK5PH-5 | 2026-09-01 18:34:11 | 49.74875 | 8.56053 | 91° | 60km/h | 6781m | -9.5m/s | -20.9°C | 13.7% | 438.0hPa | 2.5V | 00:00:00 | 02:04:28 | 00:00:00 | |
| DM0DOS-11 | 2026-09-01 18:34:10 | 49.74876 | 8.55920 | 89° | 57km/h | 6838m | -9.9m/s | -21.4°C | 13.8% | 434.7hPa | 2.6V | 03:13:56 | 02:04:22 | 00:00:00 | |
| BIOWL1-15 | 2026-09-01 18:34:08 | 49.74876 | 8.55987 | 92° | 57km/h | 6810m | -9.5m/s | -21.2°C | 16.1% | 436.4hPa | 2.5V | 03:14:12 | 02:04:25 | 00:00:00 | |
| BIOWL1-15 | 2026-09-01 18:34:06 | 49.74876 | 8.55763 | 89° | 58km/h | 6907m | -10.1m/s | -21.9°C | 14.7% | 430.7hPa | 2.5V | 03:14:12 | 02:04:15 | 00:00:00 | |
| DO3MHA-11 | 2026-09-01 18:34:06 | 49.74877 | 8.55942 | 90° | 58km/h | 6828m | -9.9m/s | -21.3°C | 13.9% | 435.2hPa | 2.5V | 00:00:00 | 02:04:23 | 00:00:00 | |
| DB0ND-19 | 2026-09-01 18:34:05 | 49.74876 | 8.55920 | 89° | 57km/h | 6838m | -9.9m/s | -21.4°C | 13.0% | 434.7hPa | 2.6V | 00:00:00 | 00:00:00 | 00:00:00 | |
| CB1BUN | 2026-09-01 18:34:04 | 49.74876 | 8.55920 | 91° | 57km/h | 6838m | -9.9m/s | -21.4°C | 13.0% | 434.7hPa | 2.6V | 03:14:00 | 00:00:00 | 00:00:00 | |
| BIOWL7-15 | 2026-09-01 18:34:03 | 49.74876 | 8.55898 | 91° | 58km/h | 6848m | -10.2m/s | -21.5°C | 12.9% | 434.0hPa | 2.6V | 03:14:00 | 00:00:00 | 00:00:00 | |
| DF1GD-15 | 2026-09-01 18:34:01 | 49.74876 | 8.55853 | 91° | 57km/h | 6868m | -10.0m/s | -21.7°C | 12.9% | 432.9hPa | 2.6V | 03:14:00 | 00:00:00 | 00:00:00 | |
| DM0DOS-11 | 2026-09-01 18:34:00 | 49.74876 | 8.55693 | 88° | 60km/h | 6936m | -9.9m/s | -22°C | 12.6% | 428.9hPa | 2.6V | 03:14:06 | 02:04:12 | 00:00:00 | |
| DF7PN | 2026-09-01 18:33:57 | 49.74876 | 8.55716 | 88° | 58km/h | 6926m | -9.6m/s | -22.0°C | 11.9% | 429.5hPa | 2.5V | 00:00:00 | 00:00:00 | 00:00:00 | |
| DO3MHA-11 | 2026-09-01 18:33:56 | 49.74876 | 8.55716 | 89° | 60km/h | 6927m | -9.5m/s | -21.9°C | 12.6% | 429.5hPa | 2.5V | 00:00:00 | 02:04:13 | 00:00:00 | |
| BEGRI65-1 | 2026-09-01 18:33:53 | 49.74875 | 8.55669 | 90° | 62km/h | 6946m | -10.0m/s | -22.1°C | 11.8% | 428.5hPa | 2.5V | 03:14:00 | 00:00:00 | 00:00:00 | |
| DM0DOS-11 | 2026-09-01 18:33:50 | 49.74871 | 8.55454 | 87° | 62km/h | 7032m | -9.8m/s | -22.7°C | 13.2% | 423.3hPa | 2.5V | 03:14:16 | 02:04:02 | 00:00:00 | |
| BIOWL1-15 | 2026-09-01 18:33:49 | 49.74872 | 8.55502 | 88° | 60km/h | 7013m | -10m/s | -22.6°C | 14.9% | 424.4hPa | 2.5V | 03:15:03 | 02:04:04 | 00:00:00 | |
| BIOWL9-15 | 2026-09-01 18:33:48 | 49.74873 | 8.55525 | 88° | 60km/h | 7003m | -9.7m/s | -22.6°C | 12.0% | 424.9hPa | 2.5V | 00:00:00 | 00:00:00 | 00:00:00 | |
| DL1ZP-14 | 2026-09-01 18:33:47 | 49.74872 | 8.55502 | 88° | 60km/h | 7013m | -10.0m/s | -22.6°C | 12.1% | 424.4hPa | 2.5V | 00:00:00 | 00:00:00 | 00:00:00 | |
| DF3TZ-5 | 2026-09-01 18:33:45 | 49.74871 | 8.55454 | 87° | 60km/h | 7032m | -9.8m/s | -22.7°C | 12.4% | 423.3hPa | 2.6V | 00:00:00 | 00:00:00 | 00:00:00 | |
| CB1BUN | 2026-09-01 18:33:44 | 49.74870 | 8.55430 | 88° | 62km/h | 7042m | -9.8m/s | -22.8°C | 12.6% | 422.7hPa | 2.6V | 03:15:00 | 00:00:00 | 00:00:00 | |
| BIOWL7-15 | 2026-09-01 18:33:43 | 49.74870 | 8.55430 | 88° | 62km/h | 7042m | -9.8m/s | -22.8°C | 12.6% | 422.7hPa | 2.6V | 03:15:00 | 00:00:00 | 00:00:00 | |
| NBG1-10 | 2026-09-01 18:33:42 | 49.74868 | 8.55381 | 87° | 60km/h | 7062m | -9.8m/s | -22.8°C | 14.3% | 421.5hPa | 2.6V | 00:00:00 | 02:03:59 | 00:00:00 | |
| DK5PH-5 | 2026-09-01 18:33:41 | 49.74868 | 8.55357 | 87° | 60km/h | 7071m | -9.9m/s | -22.8°C | 15.2% | 421.0hPa | 2.6V | 00:00:00 | 02:03:58 | 00:00:00 | |
| DM0DOS-11 | 2026-09-01 18:33:40 | 49.74863 | 8.55215 | 87° | 60km/h | 7129m | -10.1m/s | -23.4°C | 16.7% | 417.7hPa | 2.6V | 03:14:26 | 02:03:52 | 00:00:00 | |
| BIOWL1-15 | 2026-09-01 18:33:37 | 49.74864 | 8.55263 | 88° | 60km/h | 7109m | -10m/s | -23.2°C | 19.2% | 418.8hPa | 2.6V | 03:15:03 | 02:03:54 | 00:00:00 | |
| DO3MHA-11 | 2026-09-01 18:33:36 | 49.74863 | 8.55239 | 88° | 60km/h | 7120m | -10.2m/s | -23.2°C | 16.4% | 418.2hPa | 2.6V | 03:14:00 | 02:03:53 | 00:00:00 | |
| DL0LBS | 2026-09-01 18:33:35 | 49.74863 | 8.55239 | 88° | 62km/h | 7120m | -10.2m/s | -23.3°C | 15.5% | 418.2hPa | 2.5V | 03:15:00 | 00:00:00 | 00:00:00 | |
| DB0ND-19 | 2026-09-01 18:33:34 | 49.74862 | 8.55192 | 86° | 58km/h | 7139m | -9.9m/s | -23.5°C | 16.0% | 417.1hPa | 2.5V | 00:00:00 | 00:00:00 | 00:00:00 | |
| BEGRI65-1 | 2026-09-01 18:33:33 | 49.74862 | 8.55192 | 88° | 60km/h | 7139m | -9.9m/s | -23.5°C | 16.0% | 417.1hPa | 2.5V | 03:15:00 | 00:00:00 | 00:00:00 | |
| DM0DOS-11 | 2026-09-01 18:33:30 | 49.74856 | 8.54980 | 87° | 60km/h | 7228m | -10.3m/s | -24.2°C | 22.5% | 412.1hPa | 2.5V | 03:14:36 | 02:03:42 | 00:00:00 | |
| BIOWL1-15 | 2026-09-01 18:33:26 | 49.74857 | 8.55004 | 89° | 62km/h | 7218m | -10.3m/s | -24.1°C | 26% | 412.6hPa | 2.5V | 03:15:03 | 02:03:43 | 00:00:00 | |
| DO3MHA-11 | 2026-09-01 18:33:26 | 49.74857 | 8.55004 | 89° | 60km/h | 7218m | -10.3m/s | -24.1°C | 22.2% | 412.6hPa | 2.5V | 00:00:00 | 02:03:43 | 00:00:00 | |
| DF7PN | 2026-09-01 18:33:25 | 49.74856 | 8.54980 | 87° | 60km/h | 7228m | -10.3m/s | -24.2°C | 21.4% | 412.1hPa | 2.5V | 00:00:00 | 00:00:00 | 00:00:00 | |
| CB1BUN | 2026-09-01 18:33:23 | 49.74855 | 8.54956 | 87° | 60km/h | 7238m | -9.9m/s | -24.3°C | 21.6% | 411.6hPa | 2.5V | 03:15:00 | 00:00:00 | 00:00:00 | |
| DM0DOS-11 | 2026-09-01 18:33:20 | 49.74848 | 8.54743 | 85° | 62km/h | 7326m | -10.1m/s | -25.2°C | 26.2% | 406.6hPa | 2.5V | 03:14:46 | 02:03:32 | 00:00:00 | |
| BIOWL1-15 | 2026-09-01 18:33:16 | 49.74849 | 8.54767 | 86° | 62km/h | 7316m | -10.2m/s | -25.1°C | 30% | 407.2hPa | 2.6V | 03:15:03 | 02:03:33 | 00:00:00 | |
| DO3MHA-11 | 2026-09-01 18:33:16 | 49.74849 | 8.54767 | 87° | 62km/h | 7316m | -10.1m/s | -25.0°C | 25.9% | 407.1hPa | 2.6V | 00:00:00 | 02:03:33 | 00:00:00 | |
| DF3TZ-5 | 2026-09-01 18:33:14 | 49.74847 | 8.54719 | 85° | 60km/h | 7336m | -10.0m/s | -25.3°C | 25.1% | 406.1hPa | 2.6V | 00:00:00 | 00:00:00 | 00:00:00 | |
| DB0NH | 2026-09-01 18:33:12 | 49.74845 | 8.54671 | 87° | 66km/h | 7356m | -10.0m/s | -25.4°C | 26.4% | 404.9hPa | 2.6V | 00:00:00 | 02:03:29 | 00:00:00 | |
| DK5PH-5 | 2026-09-01 18:33:11 | 49.74844 | 8.54647 | 86° | 68km/h | 7365m | -10.0m/s | -25.5°C | 26.3% | 404.4hPa | 2.6V | 03:14:00 | 02:03:28 | 00:00:00 | |
| DM0DOS-11 | 2026-09-01 18:33:10 | 49.74835 | 8.54501 | 83° | 64km/h | 7423m | -9.7m/s | -26°C | 24.4% | 401.2hPa | 2.6V | 03:14:56 | 02:03:22 | 00:00:00 | |
| NBG1-10 | 2026-09-01 18:33:09 | 49.74841 | 8.54598 | 85° | 68km/h | 7385m | -9.7m/s | -25.6°C | 25.7% | 403.3hPa | 2.5V | 03:14:00 | 02:03:26 | 00:00:00 | |
| DO3MHA-11 | 2026-09-01 18:33:06 | 49.74836 | 8.54525 | 84° | 66km/h | 7414m | -9.5m/s | -25.9°C | 24.8% | 401.7hPa | 2.5V | 00:00:00 | 02:03:23 | 00:00:00 | |
| DL9PN | 2026-09-01 18:33:03 | 49.74831 | 8.54451 | 84° | 64km/h | 7443m | -10.0m/s | -26.1°C | 22.6% | 400.1hPa | 2.6V | 00:00:00 | 00:00:00 | 00:00:00 | |
| DF1GD-15 | 2026-09-01 18:32:59 | 49.74826 | 8.54375 | 86° | 68km/h | 7472m | -10.4m/s | -26.3°C | 22.6% | 398.5hPa | 2.6V | 03:15:00 | 00:00:00 | 00:00:00 | |
| HEMX73-11 | 2026-09-01 18:32:58 | 49.74825 | 8.54349 | 86° | 68km/h | 7483m | -10.4m/s | -26.4°C | 22.9% | 398.0hPa | 2.6V | 03:15:00 | 00:00:00 | 00:00:00 | |
| DM0DOS-11 | 2026-09-01 18:32:57 | 49.74812 | 8.54166 | 85° | 69km/h | 7551m | -10.4m/s | -27°C | 24.4% | 394.2hPa | 2.6V | 03:15:09 | 02:03:09 | 00:00:00 | |
| BIOWL1-15 | 2026-09-01 18:32:55 | 49.74817 | 8.54245 | 84° | 68km/h | 7522m | -9.8m/s | -26.7°C | 28.9% | 395.8hPa | 2.5V | 03:15:54 | 02:03:12 | 00:00:00 | |
| DL0LBS | 2026-09-01 18:32:54 | 49.74817 | 8.54245 | 85° | 68km/h | 7522m | -9.8m/s | -26.7°C | 23.5% | 395.8hPa | 2.6V | 03:15:00 | 00:00:00 | 00:00:00 | |
| BEGRI65-1 | 2026-09-01 18:32:52 | 49.74814 | 8.54193 | 85° | 69km/h | 7541m | -9.9m/s | -26.9°C | 23.4% | 394.7hPa | 2.6V | 00:00:00 | 00:00:00 | 00:00:00 | |
| DM0DOS-11 | 2026-09-01 18:32:47 | 49.74794 | 8.53893 | 85° | 71km/h | 7648m | -9.6m/s | -27.7°C | 22.8% | 388.8hPa | 2.6V | 03:15:19 | 02:02:59 | 00:00:00 | |
| BIOWL1-15 | 2026-09-01 18:32:45 | 49.74799 | 8.53977 | 84° | 71km/h | 7619m | -9.7m/s | -27.5°C | 26.6% | 390.4hPa | 2.5V | 03:15:54 | 02:03:02 | 00:00:00 | |
| DF3TZ-5 | 2026-09-01 18:32:43 | 49.74796 | 8.53921 | 85° | 71km/h | 7638m | -10.3m/s | -27.6°C | 21.3% | 389.4hPa | 2.5V | 00:00:00 | 00:00:00 | 00:00:00 | |
| DB0NH | 2026-09-01 18:32:42 | 49.74794 | 8.53893 | 86° | 75km/h | 7648m | -9.5m/s | -27.7°C | 22.8% | 388.8hPa | 2.5V | 00:00:00 | 02:02:59 | 00:00:00 | |
| DB0UT-7 | 2026-09-01 18:32:41 | 49.74793 | 8.53866 | 85° | 73km/h | 7658m | -10.0m/s | -27.8°C | 22.9% | 388.3hPa | 2.5V | 00:00:00 | 00:00:00 | 00:00:00 | |
| DF1GD-15 | 2026-09-01 18:32:39 | 49.74789 | 8.53809 | 86° | 71km/h | 7677m | -9.7m/s | -28.0°C | 21.9% | 387.3hPa | 2.6V | 03:15:00 | 00:00:00 | 00:00:00 | |
| DM0DOS-11 | 2026-09-01 18:32:37 | 49.74778 | 8.53610 | 84° | 75km/h | 7745m | -10.5m/s | -28.6°C | 24.4% | 383.6hPa | 2.6V | 03:15:29 | 02:02:49 | 00:00:00 | |
| BIOWL1-15 | 2026-09-01 18:32:33 | 49.74780 | 8.53639 | 84° | 73km/h | 7736m | -9.8m/s | -28.5°C | 28.6% | 384.1hPa | 2.6V | 03:15:54 | 02:02:50 | 00:00:00 | |
| DL9PN | 2026-09-01 18:32:32 | 49.74777 | 8.53581 | 86° | 75km/h | 7755m | -10.7m/s | -28.6°C | 23.2% | 383.0hPa | 2.6V | 00:00:00 | 00:00:00 | 00:00:00 | |
| DH7VM-15 | 2026-09-01 18:32:28 | 49.74774 | 8.53523 | 86° | 73km/h | 7775m | -9.7m/s | -28.8°C | 23.7% | 382.0hPa | 2.6V | 00:00:00 | 00:00:00 | 00:00:00 | |
| DM0DOS-11 | 2026-09-01 18:32:27 | 49.74760 | 8.53325 | 85° | 77km/h | 7842m | -10.7m/s | -29.4°C | 26.1% | 378.3hPa | 2.6V | 03:15:39 | 02:02:39 | 00:00:00 | |
| BIOWL1-15 | 2026-09-01 18:32:23 | 49.74762 | 8.53354 | 85° | 75km/h | 7832m | -10.8m/s | -29.4°C | 30.5% | 378.8hPa | 2.6V | 03:15:54 | 02:02:40 | 00:00:00 | |
| CB1BUN | 2026-09-01 18:32:22 | 49.74762 | 8.53354 | 86° | 75km/h | 7832m | -10.8m/s | -29.4°C | 24.6% | 378.8hPa | 2.5V | 03:15:00 | 00:00:00 | 00:00:00 | |
| DF1GD-15 | 2026-09-01 18:32:17 | 49.74753 | 8.53207 | 86° | 77km/h | 7883m | -10.8m/s | -29.8°C | 25.1% | 376.2hPa | 2.5V | 03:15:00 | 00:00:00 | 00:00:00 | |
| DO3MHA-11 | 2026-09-01 18:32:16 | 49.74749 | 8.53148 | 83° | 75km/h | 7904m | -10.0m/s | -29.9°C | 26.8% | 375.2hPa | 2.5V | 03:15:00 | 02:02:33 | 00:00:00 | |
| BIOWL9-15 | 2026-09-01 18:32:15 | 49.74747 | 8.53119 | 82° | 73km/h | 7913m | -9.7m/s | -30.1°C | 25.3% | 374.7hPa | 2.5V | 00:00:00 | 00:00:00 | 00:00:00 | |
| DM0DOS-11 | 2026-09-01 18:32:14 | 49.74734 | 8.52947 | 82° | 73km/h | 7972m | -9.7m/s | -30.6°C | 29.2% | 371.6hPa | 2.5V | 03:15:52 | 02:02:26 | 00:00:00 | |
| BIOWL1-15 | 2026-09-01 18:32:14 | 49.74741 | 8.53034 | 84° | 75km/h | 7942m | -10.1m/s | -30.3°C | 32.1% | 373.1hPa | 2.6V | 03:15:54 | 02:02:29 | 00:00:00 | |
| DB0UT-9 | 2026-09-01 18:32:14 | 49.74745 | 8.53091 | 85° | 73km/h | 7923m | -10.0m/s | -30.1°C | 25.3% | 374.2hPa | 2.6V | 03:15:00 | 00:00:00 | 00:00:00 | |
| KANTATE | 2026-09-01 18:32:13 | 49.74745 | 8.53091 | 85° | 73km/h | 7923m | -10.0m/s | -30.1°C | 25.3% | 374.2hPa | 2.6V | 03:15:00 | 00:00:00 | 00:00:00 | |
| DB0NH | 2026-09-01 18:32:12 | 49.74741 | 8.53034 | 84° | 77km/h | 7942m | -10.0m/s | -30.3°C | 27.5% | 373.1hPa | 2.6V | 00:00:00 | 02:02:29 | 00:00:00 | |
| DO3MHA-11 | 2026-09-01 18:32:06 | 49.74728 | 8.52861 | 82° | 75km/h | 8003m | -9.8m/s | -30.8°C | 30.8% | 370.0hPa | 2.5V | 00:00:00 | 02:02:23 | 00:00:00 | |
| DM0DOS-11 | 2026-09-01 18:32:04 | 49.74710 | 8.52661 | 82° | 75km/h | 8071m | -10.8m/s | -31.5°C | 28.6% | 366.4hPa | 2.5V | 03:16:02 | 02:02:16 | 00:00:00 | |
| BIOWL1-15 | 2026-09-01 18:32:03 | 49.74718 | 8.52746 | 83° | 75km/h | 8042m | -10m/s | -31.2°C | 33.1% | 368hPa | 2.6V | 03:16:45 | 02:02:19 | 00:00:00 | |
| NBG1-10 | 2026-09-01 18:32:03 | 49.74721 | 8.52775 | 82° | 75km/h | 8032m | -10.1m/s | -31.1°C | 29.2% | 368.5hPa | 2.6V | 00:00:00 | 02:02:20 | 00:00:00 | |
| CB1BUN | 2026-09-01 18:32:02 | 49.74721 | 8.52775 | 83° | 73km/h | 8032m | -10.1m/s | -31.1°C | 27.5% | 368.5hPa | 2.5V | 03:16:00 | 00:00:00 | 00:00:00 | |
| DL9PN | 2026-09-01 18:32:01 | 49.74713 | 8.52689 | 83° | 73km/h | 8061m | -10.0m/s | -31.4°C | 26.8% | 367.0hPa | 2.5V | 00:00:00 | 00:00:00 | 00:00:00 | |
| DO3MHA-11 | 2026-09-01 18:31:56 | 49.74703 | 8.52574 | 82° | 75km/h | 8102m | -10.2m/s | -31.7°C | 29.3% | 364.8hPa | 2.5V | 00:00:00 | 02:02:13 | 00:00:00 | |
| HEMX73-11 | 2026-09-01 18:31:55 | 49.74702 | 8.52574 | 83° | 73km/h | 8102m | -10.3m/s | -31.8°C | 27.5% | 364.8hPa | 2.5V | 03:16:00 | 00:00:00 | 00:00:00 | |
| DM0DOS-11 | 2026-09-01 18:31:54 | 49.74681 | 8.52372 | 82° | 75km/h | 8171m | -10.5m/s | -32.4°C | 34.8% | 361.2hPa | 2.5V | 03:16:12 | 02:02:06 | 00:00:00 | |
| BIOWL1-15 | 2026-09-01 18:31:52 | 49.74691 | 8.52459 | 81° | 73km/h | 8141m | -10.5m/s | -32.1°C | 38.3% | 362.8hPa | 2.6V | 03:16:45 | 02:02:09 | 00:00:00 | |
| DF7PN | 2026-09-01 18:31:52 | 49.74691 | 8.52459 | 81° | 73km/h | 8141m | -10.5m/s | -32.1°C | 31.4% | 362.8hPa | 2.6V | 00:00:00 | 00:00:00 | 00:00:00 | |
| KANTATE | 2026-09-01 18:31:48 | 49.74681 | 8.52372 | 84° | 75km/h | 8172m | -10.5m/s | -32.4°C | 32.9% | 361.2hPa | 2.6V | 00:00:00 | 00:00:00 | 00:00:00 | |
| DO3MHA-11 | 2026-09-01 18:31:46 | 49.74672 | 8.52285 | 82° | 77km/h | 8202m | -10.8m/s | -32.6°C | 34.4% | 359.6hPa | 2.6V | 00:00:00 | 02:02:03 | 00:00:00 | |
| DM0DOS-11 | 2026-09-01 18:31:44 | 49.74652 | 8.52081 | 80° | 75km/h | 8273m | -10.1m/s | -33.3°C | 45.7% | 356.1hPa | 2.6V | 03:16:22 | 02:01:56 | 00:00:00 | |
| BIOWL1-15 | 2026-09-01 18:31:44 | 49.74661 | 8.52169 | 82° | 77km/h | 8243m | -10.9m/s | -33.1°C | 43.6% | 357.6hPa | 2.5V | 03:16:45 | 02:01:59 | 00:00:00 | |
| BIOWL1-15 | 2026-09-01 18:31:35 | 49.74627 | 8.51845 | 80° | 77km/h | 8354m | -10.2m/s | -34.1°C | 59.3% | 352hPa | 2.5V | 03:16:45 | 02:01:48 | 00:00:00 | |
| DM0DOS-11 | 2026-09-01 18:31:34 | 49.74620 | 8.51785 | 80° | 77km/h | 8374m | -10.8m/s | -34.3°C | 58.7% | 351hPa | 2.6V | 03:16:32 | 02:01:46 | 00:00:00 | |
| DB0UT-9 | 2026-09-01 18:31:33 | 49.74636 | 8.51934 | 84° | 78km/h | 8323m | -11.4m/s | -33.8°C | 49.4% | 353.5hPa | 2.6V | 03:16:00 | 00:00:00 | 00:00:00 | |
| DL0LBS | 2026-09-01 18:31:32 | 49.74634 | 8.51904 | 82° | 75km/h | 8334m | -10.3m/s | -33.9°C | 49.6% | 353.0hPa | 2.6V | 03:16:00 | 00:00:00 | 00:00:00 | |
| DL9PN | 2026-09-01 18:31:30 | 49.74621 | 8.51785 | 80° | 77km/h | 8374m | -10.9m/s | -34.3°C | 56.0% | 351.0hPa | 2.6V | 00:00:00 | 00:00:00 | 00:00:00 | |
| DO3MHA-11 | 2026-09-01 18:31:26 | 49.74610 | 8.51694 | 80° | 80km/h | 8406m | -10.4m/s | -34.5°C | 64.2% | 349.3hPa | 2.6V | 00:00:00 | 02:01:43 | 00:00:00 | |
| BEGRI65-1 | 2026-09-01 18:31:25 | 49.74610 | 8.51694 | 81° | 80km/h | 8406m | -10.4m/s | -34.5°C | 61.4% | 349.4hPa | 2.6V | 00:00:00 | 00:00:00 | 00:00:00 | |
| DM0DOS-11 | 2026-09-01 18:31:24 | 49.74585 | 8.51478 | 81° | 82km/h | 8476m | -10.7m/s | -35.1°C | 63.1% | 345.9hPa | 2.6V | 03:16:42 | 02:01:36 | 00:00:00 | |
| BIOWL1-15 | 2026-09-01 18:31:23 | 49.74592 | 8.51540 | 81° | 82km/h | 8456m | -10.7m/s | -34.9°C | 67.6% | 346.9hPa | 2.5V | 03:16:45 | 02:01:38 | 00:00:00 | |
| BIOWL7-15 | 2026-09-01 18:31:22 | 49.74599 | 8.51602 | 80° | 80km/h | 8436m | -10.5m/s | -34.8°C | 60.9% | 347.9hPa | 2.6V | 03:16:00 | 00:00:00 | 00:00:00 | |
| DF7PN | 2026-09-01 18:31:21 | 49.74592 | 8.51540 | 80° | 80km/h | 8456m | -10.7m/s | -34.9°C | 60.4% | 346.9hPa | 2.6V | 00:00:00 | 00:00:00 | 00:00:00 | |
| CB1BUN | 2026-09-01 18:31:20 | 49.74592 | 8.51540 | 82° | 82km/h | 8456m | -10.7m/s | -34.9°C | 60.4% | 346.9hPa | 2.6V | 03:16:00 | 00:00:00 | 00:00:00 | |
| DO3MHA-11 | 2026-09-01 18:31:16 | 49.74576 | 8.51386 | 82° | 80km/h | 8507m | -9.9m/s | -35.3°C | 61.7% | 344.4hPa | 2.6V | 00:00:00 | 02:01:33 | 00:00:00 | |
| HEMX73-11 | 2026-09-01 18:31:15 | 49.74573 | 8.51355 | 81° | 78km/h | 8517m | -10.2m/s | -35.5°C | 57.9% | 344.0hPa | 2.6V | 03:17:00 | 00:00:00 | 00:00:00 | |
| DM0DOS-11 | 2026-09-01 18:31:14 | 49.74556 | 8.51171 | 82° | 78km/h | 8580m | -10.1m/s | -36°C | 55.9% | 340.9hPa | 2.6V | 03:16:52 | 02:01:26 | 00:00:00 | |
| BIOWL1-15 | 2026-09-01 18:31:10 | 49.74558 | 8.51201 | 81° | 80km/h | 8569m | -10.8m/s | -35.9°C | 60.6% | 341.4hPa | 2.5V | 03:17:36 | 02:01:27 | 00:00:00 | |
| DF3TZ-5 | 2026-09-01 18:31:10 | 49.74556 | 8.51171 | 82° | 78km/h | 8580m | -10.1m/s | -36.0°C | 53.1% | 340.9hPa | 2.5V | 00:00:00 | 00:00:00 | 00:00:00 | |
| DO3MHA-11 | 2026-09-01 18:31:06 | 49.74547 | 8.51078 | 82° | 80km/h | 8611m | -10.7m/s | -36.3°C | 58.2% | 339.3hPa | 2.5V | 00:00:00 | 02:01:23 | 00:00:00 | |
| DM0DOS-11 | 2026-09-01 18:31:04 | 49.74529 | 8.50861 | 83° | 82km/h | 8683m | -11.2m/s | -37°C | 52.9% | 335.9hPa | 2.5V | 03:17:02 | 02:01:16 | 00:00:00 | |
| BIOWL1-15 | 2026-09-01 18:30:59 | 49.74529 | 8.50861 | 84° | 82km/h | 8683m | -11.2m/s | -37°C | 57.2% | 335.9hPa | 2.5V | 03:17:36 | 02:01:16 | 00:00:00 | |
| DL9PN | 2026-09-01 18:30:59 | 49.74527 | 8.50830 | 83° | 78km/h | 8694m | -10.2m/s | -37.1°C | 50.4% | 335.3hPa | 2.5V | 00:00:00 | 00:00:00 | 00:00:00 | |
| NBG1-10 | 2026-09-01 18:30:57 | 49.74524 | 8.50799 | 83° | 82km/h | 8705m | -11.4m/s | -37.2°C | 53.7% | 334.7hPa | 2.5V | 03:17:00 | 02:01:14 | 00:00:00 | |
| DO3MHA-11 | 2026-09-01 18:30:56 | 49.74521 | 8.50768 | 83° | 80km/h | 8716m | -10.5m/s | -37.3°C | 54.1% | 334.3hPa | 2.5V | 03:17:00 | 02:01:13 | 00:00:00 | |
| DM0DOS-11 | 2026-09-01 18:30:54 | 49.74501 | 8.50552 | 82° | 82km/h | 8789m | -11.3m/s | -38°C | 57.1% | 330.7hPa | 2.5V | 03:17:12 | 02:01:06 | 00:00:00 | |
| BIOWL1-15 | 2026-09-01 18:30:49 | 49.74501 | 8.50552 | 82° | 82km/h | 8789m | -11.3m/s | -38°C | 60.9% | 330.7hPa | 2.5V | 03:17:36 | 02:01:06 | 00:00:00 | |
| DO3MHA-11 | 2026-09-01 18:30:46 | 49.74493 | 8.50457 | 81° | 84km/h | 8821m | -9.9m/s | -38.2°C | 59.6% | 329.2hPa | 2.5V | 00:00:00 | 02:01:03 | 00:00:00 | |
| DM0DOS-11 | 2026-09-01 18:30:44 | 49.74472 | 8.50231 | 83° | 84km/h | 8893m | -10.2m/s | -38.8°C | 66.6% | 325.8hPa | 2.5V | 03:17:22 | 02:00:56 | 00:00:00 | |
| BIOWL1-15 | 2026-09-01 18:30:39 | 49.74473 | 8.50231 | 83° | 84km/h | 8893m | -10.2m/s | -38.8°C | 69.7% | 325.8hPa | 2.5V | 03:17:36 | 02:00:56 | 00:00:00 | |
| CB1BUN | 2026-09-01 18:30:38 | 49.74472 | 8.50231 | 84° | 84km/h | 8893m | -10.2m/s | -38.8°C | 63.2% | 325.8hPa | 2.6V | 03:17:00 | 00:00:00 | 00:00:00 | |
| DO3MHA-11 | 2026-09-01 18:30:36 | 49.74464 | 8.50134 | 82° | 84km/h | 8924m | -10.5m/s | -39.1°C | 71.4% | 324.2hPa | 2.6V | 00:00:00 | 02:00:53 | 00:00:00 | |
| DM0DOS-11 | 2026-09-01 18:30:34 | 49.74445 | 8.49904 | 82° | 86km/h | 8997m | -11m/s | -39.5°C | 76.5% | 320.9hPa | 2.5V | 03:17:32 | 02:00:46 | 00:00:00 | |
| BIOWL1-15 | 2026-09-01 18:30:30 | 49.74443 | 8.49871 | 83° | 84km/h | 9008m | -10.2m/s | -39.6°C | 79.1% | 320.4hPa | 2.5V | 03:17:36 | 02:00:45 | 00:00:00 | |
| DL0LBS | 2026-09-01 18:30:29 | 49.74448 | 8.49937 | 84° | 84km/h | 8987m | -10.4m/s | -39.4°C | 72.6% | 321.4hPa | 2.5V | 03:17:00 | 00:00:00 | 00:00:00 | |
| DL9PN | 2026-09-01 18:30:28 | 49.74440 | 8.49839 | 81° | 84km/h | 9018m | -10.5m/s | -39.6°C | 73.0% | 319.9hPa | 2.5V | 00:00:00 | 00:00:00 | 00:00:00 | |
| DO3MHA-11 | 2026-09-01 18:30:26 | 49.74436 | 8.49806 | 83° | 86km/h | 9028m | -10.5m/s | -39.6°C | 77.0% | 319.3hPa | 2.5V | 00:00:00 | 02:00:43 | 00:00:00 | |
| DM0DOS-11 | 2026-09-01 18:30:24 | 49.74417 | 8.49572 | 82° | 88km/h | 9105m | -11.3m/s | -40.3°C | 79.9% | 316hPa | 2.5V | 03:17:42 | 02:00:36 | 00:00:00 | |
| BIOWL1-15 | 2026-09-01 18:30:21 | 49.74411 | 8.49504 | 82° | 86km/h | 9128m | -10.6m/s | -40.5°C | 82.8% | 315hPa | 2.5V | 03:18:27 | 02:00:34 | 00:00:00 | |
| DL8DAS-14 | 2026-09-01 18:30:21 | 49.74419 | 8.49606 | 83° | 84km/h | 9095m | -10.9m/s | -40.2°C | 75.8% | 316.5hPa | 2.6V | 00:00:00 | 00:00:00 | 00:00:00 | |
| DF7PN | 2026-09-01 18:30:19 | 49.74417 | 8.49572 | 82° | 88km/h | 9106m | -11.3m/s | -40.3°C | 76.0% | 316.0hPa | 2.6V | 00:00:00 | 00:00:00 | 00:00:00 | |
| DM3KS-11 | 2026-09-01 18:30:18 | 49.74408 | 8.49471 | 82° | 84km/h | 9139m | -10.5m/s | -40.6°C | 76.4% | 314.5hPa | 2.6V | 00:00:00 | 00:00:00 | 00:00:00 | |
| DO3MHA-11 | 2026-09-01 18:30:16 | 49.74408 | 8.49471 | 83° | 86km/h | 9139m | -10.4m/s | -40.5°C | 80.3% | 314.4hPa | 2.6V | 03:17:00 | 02:00:33 | 00:00:00 | |
| DM0DOS-11 | 2026-09-01 18:30:14 | 49.74387 | 8.49235 | 82° | 86km/h | 9211m | -10.2m/s | -41.2°C | 81.4% | 311.1hPa | 2.6V | 03:17:52 | 02:00:26 | 00:00:00 | |
| BIOWL1-15 | 2026-09-01 18:30:08 | 49.74378 | 8.49134 | 81° | 86km/h | 9242m | -10.6m/s | -41.5°C | 82.5% | 309.6hPa | 2.5V | 03:18:27 | 02:00:23 | 00:00:00 | |
| DL8DAS-15 | 2026-09-01 18:30:07 | 49.74384 | 8.49201 | 83° | 88km/h | 9221m | -10.2m/s | -41.3°C | 77.2% | 310.5hPa | 2.5V | 00:00:00 | 00:00:00 | 00:00:00 | |
| DO3MHA-11 | 2026-09-01 18:30:06 | 49.74378 | 8.49134 | 81° | 89km/h | 9242m | -10.6m/s | -41.5°C | 80.0% | 309.5hPa | 2.5V | 00:00:00 | 02:00:23 | 00:00:00 | |
| DM0DOS-11 | 2026-09-01 18:30:04 | 49.74355 | 8.48895 | 82° | 88km/h | 9317m | -10.5m/s | -42°C | 71.4% | 306.3hPa | 2.6V | 03:18:02 | 02:00:16 | 00:00:00 | |
| BIOWL1-15 | 2026-09-01 18:29:56 | 49.74345 | 8.48792 | 82° | 91km/h | 9349m | -10.8m/s | -42.3°C | 73.5% | 304.9hPa | 2.5V | 03:18:27 | 02:00:13 | 00:00:00 | |
| BIOWL1-15 | 2026-09-01 18:29:45 | 49.74311 | 8.48406 | 82° | 89km/h | 9466m | -10.7m/s | -43.2°C | 68.4% | 299.6hPa | 2.5V | 03:18:27 | 02:00:02 | 00:00:00 | |
| DM0DOS-11 | 2026-09-01 18:29:44 | 49.74294 | 8.48199 | 82° | 86km/h | 9531m | -10.7m/s | -43.6°C | 59.2% | 296.8hPa | 2.5V | 03:18:22 | 01:59:56 | 00:00:00 | |
| BEGRI65-1 | 2026-09-01 18:29:41 | 49.74299 | 8.48267 | 83° | 88km/h | 9510m | -11.0m/s | -43.5°C | 0% | 0hPa | 2.5V | 00:00:00 | 00:00:00 | 00:00:00 | |
| DB0NH | 2026-09-01 18:29:40 | 49.74296 | 8.48232 | 83° | 84km/h | 9521m | -10.7m/s | -43.5°C | 60.9% | 297.2hPa | 2.5V | 00:00:00 | 01:59:57 | 00:00:00 | |
| DL8DAS-15 | 2026-09-01 18:29:38 | 49.74293 | 8.48199 | 84° | 86km/h | 9531m | -10.7m/s | -43.6°C | 55.3% | 296.8hPa | 2.5V | 00:00:00 | 00:00:00 | 00:00:00 | |
| DF3TZ-5 | 2026-09-01 18:29:37 | 49.74285 | 8.48099 | 83° | 86km/h | 9564m | -11.2m/s | -43.8°C | 50.9% | 295.3hPa | 2.5V | 00:00:00 | 00:00:00 | 00:00:00 | |
| DO3MHA-11 | 2026-09-01 18:29:36 | 49.74285 | 8.48099 | 84° | 84km/h | 9564m | -11.2m/s | -43.8°C | 54.7% | 295.2hPa | 2.5V | 00:00:00 | 01:59:53 | 00:00:00 | |
| DM0DOS-11 | 2026-09-01 18:29:34 | 49.74267 | 8.47869 | 82° | 84km/h | 9641m | -11.1m/s | -44.4°C | 53.1% | 292.1hPa | 2.5V | 03:18:32 | 01:59:46 | 00:00:00 | |
| BIOWL1-15 | 2026-09-01 18:29:34 | 49.74280 | 8.48032 | 82° | 84km/h | 9587m | -11m/s | -44°C | 57.4% | 294.4hPa | 2.5V | 03:18:27 | 01:59:51 | 00:00:00 | |
| DF1GD-15 | 2026-09-01 18:29:32 | 49.74277 | 8.48000 | 82° | 84km/h | 9598m | -10.9m/s | -44.1°C | 49.2% | 293.9hPa | 2.6V | 03:19:00 | 00:00:00 | 00:00:00 | |
| KANTATE | 2026-09-01 18:29:31 | 49.74274 | 8.47967 | 84° | 84km/h | 9609m | -10.8m/s | -44.2°C | 49.0% | 293.4hPa | 2.6V | 00:00:00 | 00:00:00 | 00:00:00 | |
| HEMX73-11 | 2026-09-01 18:29:30 | 49.74272 | 8.47935 | 83° | 84km/h | 9619m | -10.9m/s | -44.2°C | 48.7% | 293.0hPa | 2.6V | 03:19:00 | 00:00:00 | 00:00:00 | |
| DO3MHA-11 | 2026-09-01 18:29:26 | 49.74258 | 8.47772 | 82° | 84km/h | 9674m | -10.5m/s | -44.6°C | 54.3% | 290.6hPa | 2.6V | 03:18:00 | 01:59:43 | 00:00:00 | |
| DL9PN | 2026-09-01 18:29:25 | 49.74256 | 8.47739 | 81° | 82km/h | 9685m | -10.5m/s | -44.7°C | 50.8% | 290.1hPa | 2.5V | 00:00:00 | 00:00:00 | 00:00:00 | |
| DM0DOS-11 | 2026-09-01 18:29:24 | 49.74240 | 8.47542 | 84° | 86km/h | 9749m | -11.2m/s | -45.2°C | 58.5% | 287.3hPa | 2.5V | 03:18:42 | 01:59:36 | 00:00:00 | |
| BIOWL1-15 | 2026-09-01 18:29:23 | 49.74250 | 8.47674 | 82° | 84km/h | 9706m | -10.5m/s | -44.8°C | 59.3% | 289.2hPa | 2.5V | 03:19:18 | 01:59:40 | 00:00:00 | |
| BIOWL1-15 | 2026-09-01 18:29:15 | 49.74229 | 8.47343 | 87° | 86km/h | 9814m | -10.9m/s | -45.6°C | 66.3% | 284.6hPa | 2.5V | 03:19:18 | 01:59:30 | 00:00:00 | |
| DM0DOS-11 | 2026-09-01 18:29:14 | 49.74224 | 8.47211 | 87° | 86km/h | 9857m | -10.7m/s | -45.9°C | 65.7% | 282.8hPa | 2.6V | 03:18:52 | 01:59:26 | 00:00:00 | |
| BIOWL7-15 | 2026-09-01 18:29:13 | 49.74230 | 8.47376 | 87° | 86km/h | 9803m | -11.2m/s | -45.6°C | 58.5% | 285.0hPa | 2.5V | 03:19:00 | 00:00:00 | 00:00:00 | |
| DH7VM-15 | 2026-09-01 18:29:12 | 49.74229 | 8.47343 | 87° | 86km/h | 9814m | -10.9m/s | -45.6°C | 58.7% | 284.6hPa | 2.5V | 00:00:00 | 00:00:00 | 00:00:00 | |
| DK5PH-5 | 2026-09-01 18:29:11 | 49.74226 | 8.47277 | 87° | 89km/h | 9836m | -10.6m/s | -45.7°C | 64.4% | 283.6hPa | 2.5V | 03:18:00 | 01:59:28 | 00:00:00 | |
| DB0NH | 2026-09-01 18:29:10 | 49.74225 | 8.47244 | 88° | 89km/h | 9846m | -10.7m/s | -45.8°C | 65.1% | 283.2hPa | 2.5V | 03:18:00 | 01:59:27 | 00:00:00 | |
| BIOWL9-15 | 2026-09-01 18:29:09 | 49.74224 | 8.47211 | 87° | 84km/h | 9857m | -10.7m/s | -45.9°C | 61.3% | 282.8hPa | 2.5V | 00:00:00 | 00:00:00 | 00:00:00 | |
| DL8DAS-15 | 2026-09-01 18:29:08 | 49.74224 | 8.47210 | 88° | 86km/h | 9857m | -10.7m/s | -45.9°C | 61.3% | 282.8hPa | 2.5V | 00:00:00 | 00:00:00 | 00:00:00 | |
| DL1ZP-14 | 2026-09-01 18:29:07 | 49.74222 | 8.47144 | 86° | 84km/h | 9878m | -10.6m/s | -45.9°C | 61.8% | 281.9hPa | 2.5V | 00:00:00 | 00:00:00 | 00:00:00 | |
| DO3MHA-11 | 2026-09-01 18:29:06 | 49.74221 | 8.47111 | 88° | 86km/h | 9889m | -10.9m/s | -45.9°C | 66.4% | 281.3hPa | 2.6V | 00:00:00 | 01:59:23 | 00:00:00 | |
| DB0UT-9 | 2026-09-01 18:29:05 | 49.74221 | 8.47111 | 89° | 86km/h | 9889m | -11.0m/s | -46.0°C | 62.0% | 281.4hPa | 2.6V | 03:19:00 | 00:00:00 | 00:00:00 | |
| DM0DOS-11 | 2026-09-01 18:29:04 | 49.74215 | 8.46876 | 88° | 86km/h | 9965m | -10.8m/s | -46.5°C | 66.7% | 278.2hPa | 2.6V | 03:19:02 | 01:59:16 | 00:00:00 | |
| BIOWL1-15 | 2026-09-01 18:29:03 | 49.74217 | 8.46976 | 88° | 86km/h | 9932m | -10.8m/s | -46.3°C | 70.4% | 279.6hPa | 2.5V | 03:19:18 | 01:59:19 | 00:00:00 | |
| DB0ND-19 | 2026-09-01 18:28:55 | 49.74210 | 8.46706 | 87° | 88km/h | 10019m | -11.2m/s | -46.8°C | 61.0% | 276.0hPa | 2.5V | 00:00:00 | 00:00:00 | 00:00:00 | |
| DM0DOS-11 | 2026-09-01 18:28:54 | 49.74203 | 8.46532 | 85° | 91km/h | 10075m | -10.9m/s | -47.1°C | 63% | 273.8hPa | 2.5V | 03:19:12 | 01:59:06 | 00:00:00 | |
| BIOWL1-15 | 2026-09-01 18:28:54 | 49.74207 | 8.46637 | 87° | 89km/h | 10042m | -11m/s | -46.9°C | 68.7% | 275hPa | 2.5V | 03:19:18 | 01:59:09 | 00:00:00 | |
| DO1YAY-16 | 2026-09-01 18:28:54 | 49.74207 | 8.46637 | 86° | 88km/h | 10042m | -11.0m/s | -46.9°C | 59.8% | 275.0hPa | 2.5V | 00:00:00 | 00:00:00 | 00:00:00 | |
| DL8DAS-14 | 2026-09-01 18:28:48 | 49.74200 | 8.46460 | 85° | 91km/h | 10097m | -10.8m/s | -47.2°C | 57.6% | 272.8hPa | 2.5V | 00:00:00 | 00:00:00 | 00:00:00 | |
| DF7PN | 2026-09-01 18:28:46 | 49.74198 | 8.46424 | 86° | 91km/h | 10108m | -10.9m/s | -47.3°C | 57.8% | 272.4hPa | 2.5V | 00:00:00 | 00:00:00 | 00:00:00 | |
| BIOWL1-15 | 2026-09-01 18:28:45 | 49.74190 | 8.46240 | 86° | 95km/h | 10163m | -10.9m/s | -47.7°C | 67.5% | 270.1hPa | 2.5V | 03:20:09 | 01:58:58 | 00:00:00 | |
| DM3KS-11 | 2026-09-01 18:28:45 | 49.74195 | 8.46351 | 86° | 95km/h | 10130m | -11.0m/s | -47.4°C | 58.1% | 271.4hPa | 2.5V | 00:00:00 | 00:00:00 | 00:00:00 | |
| DM0DOS-11 | 2026-09-01 18:28:44 | 49.74186 | 8.46165 | 85° | 97km/h | 10185m | -11.1m/s | -47.8°C | 62.5% | 269.2hPa | 2.5V | 03:19:22 | 01:58:56 | 00:00:00 | |
| DK5PH-5 | 2026-09-01 18:28:41 | 49.74190 | 8.46240 | 86° | 99km/h | 10163m | -10.8m/s | -47.7°C | 62.9% | 270.1hPa | 2.5V | 00:00:00 | 01:58:58 | 00:00:00 | |
| DB0NH | 2026-09-01 18:28:40 | 49.74188 | 8.46203 | 87° | 99km/h | 10174m | -11.0m/s | -47.7°C | 62.9% | 269.6hPa | 2.5V | 00:00:00 | 01:58:57 | 00:00:00 | |
| BIOWL9-15 | 2026-09-01 18:28:38 | 49.74184 | 8.46128 | 84° | 97km/h | 10196m | -10.9m/s | -47.9°C | 57.7% | 268.8hPa | 2.5V | 00:00:00 | 00:00:00 | 00:00:00 | |
| DO3MHA-11 | 2026-09-01 18:28:36 | 49.74180 | 8.46052 | 87° | 99km/h | 10218m | -11.4m/s | -48.0°C | 62.0% | 267.8hPa | 2.5V | 00:00:00 | 01:58:53 | 00:00:00 | |
| DF3TZ-5 | 2026-09-01 18:28:35 | 49.74176 | 8.45975 | 85° | 97km/h | 10241m | -11.3m/s | -48.2°C | 56.8% | 266.9hPa | 2.5V | 00:00:00 | 00:00:00 | 00:00:00 | |
| DM0DOS-11 | 2026-09-01 18:28:34 | 49.74165 | 8.45784 | 85° | 99km/h | 10297m | -11.2m/s | -48.6°C | 61.4% | 264.7hPa | 2.5V | 03:19:32 | 01:58:46 | 00:00:00 | |
| BIOWL1-15 | 2026-09-01 18:28:30 | 49.74167 | 8.45822 | 85° | 99km/h | 10286m | -11.2m/s | -48.5°C | 66.4% | 265.1hPa | 2.5V | 03:20:09 | 01:58:47 | 00:00:00 | |
| DM7RM-13 | 2026-09-01 18:28:30 | 49.74167 | 8.45822 | 86° | 99km/h | 10286m | -11.2m/s | -48.5°C | 56.7% | 265.1hPa | 2.6V | 03:20:00 | 00:00:00 | 00:00:00 | |
| KANTATE | 2026-09-01 18:28:29 | 49.74167 | 8.45822 | 86° | 99km/h | 10286m | -11.2m/s | -48.5°C | 56.6% | 265.1hPa | 2.6V | 00:00:00 | 00:00:00 | 00:00:00 | |
| HEMX73-11 | 2026-09-01 18:28:28 | 49.74165 | 8.45784 | 86° | 99km/h | 10297m | -11.2m/s | -48.6°C | 56.6% | 264.7hPa | 2.6V | 03:20:00 | 00:00:00 | 00:00:00 | |
| DO3MHA-11 | 2026-09-01 18:28:26 | 49.74159 | 8.45669 | 86° | 99km/h | 10332m | -11.3m/s | -48.9°C | 61.3% | 263.2hPa | 2.6V | 00:00:00 | 01:58:43 | 00:00:00 | |
| DL8DAS-15 | 2026-09-01 18:28:25 | 49.74159 | 8.45669 | 86° | 99km/h | 10332m | -11.4m/s | -48.9°C | 56.5% | 263.3hPa | 2.5V | 03:20:00 | 00:00:00 | 00:00:00 | |
| DM0DOS-11 | 2026-09-01 18:28:24 | 49.74145 | 8.45401 | 84° | 99km/h | 10411m | -11.4m/s | -49.5°C | 59.7% | 260.1hPa | 2.5V | 03:19:42 | 01:58:36 | 00:00:00 | |
| BIOWL1-15 | 2026-09-01 18:28:21 | 49.74145 | 8.45401 | 85° | 99km/h | 10411m | -11.4m/s | -49.5°C | 65% | 260.1hPa | 2.5V | 03:20:09 | 01:58:36 | 00:00:00 | |
| DO3DL | 2026-09-01 18:28:18 | 49.74145 | 8.45401 | 86° | 99km/h | 10411m | -11.4m/s | -49.5°C | 54.9% | 260.1hPa | 2.6V | 00:00:00 | 00:00:00 | 00:00:00 | |
| DL8DAS-14 | 2026-09-01 18:28:17 | 49.74138 | 8.45285 | 84° | 99km/h | 10445m | -11.2m/s | -49.8°C | 54.1% | 258.8hPa | 2.6V | 00:00:00 | 00:00:00 | 00:00:00 | |
| DO3MHA-11 | 2026-09-01 18:28:16 | 49.74138 | 8.45285 | 85° | 100km/h | 10445m | -11.2m/s | -49.8°C | 59.0% | 258.7hPa | 2.6V | 00:00:00 | 01:58:33 | 00:00:00 | |
| DF7PN | 2026-09-01 18:28:15 | 49.74136 | 8.45246 | 85° | 99km/h | 10456m | -11.4m/s | -49.9°C | 53.4% | 258.4hPa | 2.6V | 00:00:00 | 00:00:00 | 00:00:00 | |
| DM0DOS-11 | 2026-09-01 18:28:14 | 49.74122 | 8.45012 | 84° | 100km/h | 10525m | -11.5m/s | -50.4°C | 53.6% | 255.6hPa | 2.6V | 03:19:52 | 01:58:26 | 00:00:00 | |
| BIOWL1-15 | 2026-09-01 18:28:11 | 49.74122 | 8.45012 | 85° | 100km/h | 10525m | -11.5m/s | -50.4°C | 58.6% | 255.7hPa | 2.6V | 03:20:09 | 01:58:26 | 00:00:00 | |
| DK5PH-5 | 2026-09-01 18:28:11 | 49.74127 | 8.45090 | 85° | 102km/h | 10502m | -11.5m/s | -50.2°C | 55.5% | 256.5hPa | 2.5V | 00:00:00 | 01:58:28 | 00:00:00 | |
| DB0NH | 2026-09-01 18:28:10 | 49.74125 | 8.45051 | 85° | 102km/h | 10514m | -11.4m/s | -50.2°C | 54.4% | 256.0hPa | 2.5V | 00:00:00 | 01:58:27 | 00:00:00 | |
| DM7RM-13 | 2026-09-01 18:28:09 | 49.74125 | 8.45051 | 86° | 100km/h | 10514m | -11.4m/s | -50.3°C | 49.7% | 256.1hPa | 2.5V | 03:20:00 | 00:00:00 | 00:00:00 | |
| DH7VM-15 | 2026-09-01 18:28:08 | 49.74122 | 8.45012 | 86° | 100km/h | 10525m | -11.5m/s | -50.4°C | 48.8% | 255.6hPa | 2.5V | 00:00:00 | 00:00:00 | 00:00:00 | |
| DO3DL | 2026-09-01 18:28:07 | 49.74118 | 8.44933 | 86° | 102km/h | 10548m | -11.5m/s | -50.5°C | 47.4% | 254.8hPa | 2.5V | 00:00:00 | 00:00:00 | 00:00:00 | |
| DO3MHA-11 | 2026-09-01 18:28:06 | 49.74115 | 8.44893 | 85° | 102km/h | 10560m | -11.5m/s | -50.5°C | 51.6% | 254.3hPa | 2.5V | 03:19:00 | 01:58:23 | 00:00:00 | |
| DL1ZP-14 | 2026-09-01 18:28:05 | 49.74113 | 8.44854 | 84° | 100km/h | 10571m | -11.5m/s | -50.6°C | 46.0% | 253.8hPa | 2.5V | 00:00:00 | 00:00:00 | 00:00:00 | |
| DM0DOS-11 | 2026-09-01 18:28:04 | 49.74099 | 8.44618 | 84° | 100km/h | 10640m | -11.4m/s | -51.2°C | 50.2% | 251.2hPa | 2.6V | 03:20:02 | 01:58:16 | 00:00:00 | |
| BIOWL1-15 | 2026-09-01 18:27:59 | 49.74099 | 8.44618 | 84° | 102km/h | 10640m | -11.4m/s | -51.2°C | 55.3% | 251.2hPa | 2.6V | 03:20:09 | 01:58:16 | 00:00:00 | |
| DL8DAS-15 | 2026-09-01 18:27:57 | 49.74096 | 8.44579 | 86° | 102km/h | 10651m | -11.5m/s | -51.3°C | 45.6% | 250.8hPa | 2.5V | 03:20:00 | 00:00:00 | 00:00:00 | |
| DO3MHA-11 | 2026-09-01 18:27:56 | 49.74091 | 8.44499 | 85° | 102km/h | 10674m | -11.5m/s | -51.4°C | 50.9% | 249.8hPa | 2.5V | 00:00:00 | 01:58:13 | 00:00:00 | |
| DM0DOS-11 | 2026-09-01 18:27:54 | 49.74069 | 8.44223 | 82° | 102km/h | 10754m | -11.4m/s | -52.2°C | 51.9% | 246.8hPa | 2.5V | 03:20:12 | 01:58:06 | 00:00:00 | |
| BIOWL1-15 | 2026-09-01 18:27:48 | 49.74066 | 8.44183 | 82° | 102km/h | 10766m | -11.5m/s | -52.3°C | 56.6% | 246.4hPa | 2.6V | 03:21:00 | 01:58:05 | 00:00:00 | |
| DL8DAS-14 | 2026-09-01 18:27:46 | 49.74055 | 8.44063 | 82° | 102km/h | 10800m | -11.5m/s | -52.6°C | 47.3% | 245.0hPa | 2.5V | 00:00:00 | 00:00:00 | 00:00:00 | |
| DL0LBS | 2026-09-01 18:27:45 | 49.74058 | 8.44103 | 83° | 104km/h | 10789m | -11.6m/s | -52.5°C | 47.2% | 245.5hPa | 2.5V | 03:21:00 | 00:00:00 | 00:00:00 | |
| DM0DOS-11 | 2026-09-01 18:27:44 | 49.74034 | 8.43819 | 82° | 106km/h | 10870m | -11.7m/s | -53.1°C | 51.9% | 242.4hPa | 2.5V | 03:20:22 | 01:57:56 | 00:00:00 | |
| BIOWL1-15 | 2026-09-01 18:27:39 | 49.74027 | 8.43736 | 83° | 106km/h | 10893m | -11.6m/s | -53.3°C | 56.2% | 241.6hPa | 2.6V | 03:21:00 | 01:57:54 | 00:00:00 | |
| NBG1-10 | 2026-09-01 18:27:39 | 49.74034 | 8.43819 | 83° | 110km/h | 10870m | -11.6m/s | -53.0°C | 51.9% | 242.4hPa | 2.5V | 00:00:00 | 01:57:56 | 00:00:00 | |
| DO3MHA-11 | 2026-09-01 18:27:36 | 49.74024 | 8.43695 | 83° | 108km/h | 10905m | -11.6m/s | -53.3°C | 51.2% | 241.1hPa | 2.5V | 00:00:00 | 01:57:53 | 00:00:00 | |
| DM0DOS-11 | 2026-09-01 18:27:34 | 49.73999 | 8.43403 | 82° | 108km/h | 10987m | -11.7m/s | -54.1°C | 52.1% | 238hPa | 2.5V | 03:20:32 | 01:57:46 | 00:00:00 | |
| BIOWL1-15 | 2026-09-01 18:27:28 | 49.73988 | 8.43277 | 82° | 108km/h | 11022m | -11.9m/s | -54.4°C | 56.7% | 236.7hPa | 2.6V | 03:21:00 | 01:57:43 | 00:00:00 | |
| DL8DAS-15 | 2026-09-01 18:27:27 | 49.73995 | 8.43361 | 83° | 108km/h | 10999m | -11.7m/s | -54.2°C | 46.9% | 237.6hPa | 2.6V | 03:21:00 | 00:00:00 | 00:00:00 | |
| DJ2DS-15 | 2026-09-01 18:27:26 | 49.73988 | 8.43277 | 82° | 110km/h | 11022m | -11.8m/s | -54.4°C | 52.5% | 236.7hPa | 2.6V | 00:00:00 | 01:57:43 | 00:00:00 | |
| DM0DOS-11 | 2026-09-01 18:27:24 | 49.73960 | 8.42984 | 82° | 110km/h | 11105m | -11.9m/s | -55.1°C | 51.9% | 233.7hPa | 2.5V | 03:20:42 | 01:57:36 | 00:00:00 | |
| BIOWL1-15 | 2026-09-01 18:27:15 | 49.73944 | 8.42814 | 81° | 111km/h | 11153m | -11.9m/s | -55.5°C | 54.3% | 231.9hPa | 2.6V | 03:21:00 | 01:57:32 | 00:00:00 | |
| BIOWL1-15 | 2026-09-01 18:27:05 | 49.73896 | 8.42382 | 80° | 113km/h | 11273m | -12.1m/s | -56.3°C | 50.5% | 227.7hPa | 2.6V | 03:21:00 | 01:57:22 | 00:00:00 | |
| DJ2DS-15 | 2026-09-01 18:27:05 | 49.73896 | 8.42382 | 81° | 102km/h | 11273m | -12.1m/s | -56.2°C | 47.7% | 227.6hPa | 2.6V | 00:00:00 | 01:57:22 | 00:00:00 | |
| DM0DOS-11 | 2026-09-01 18:27:04 | 49.73867 | 8.42122 | 79° | 111km/h | 11345m | -12m/s | -56.8°C | 43.8% | 225.1hPa | 2.6V | 03:21:02 | 01:57:16 | 00:00:00 | |
| BIOWL1-15 | 2026-09-01 18:26:56 | 49.73840 | 8.41907 | 79° | 111km/h | 11405m | -12.1m/s | -57.1°C | 42.1% | 222.9hPa | 2.6V | 03:21:51 | 01:57:11 | 00:00:00 | |
| DO3MHA-11 | 2026-09-01 18:26:56 | 49.73851 | 8.41993 | 80° | 113km/h | 11382m | -11.9m/s | -57.0°C | 42.0% | 223.7hPa | 2.5V | 00:00:00 | 01:57:13 | 00:00:00 | |
| DM0DOS-11 | 2026-09-01 18:26:54 | 49.73812 | 8.41692 | 78° | 113km/h | 11467m | -12.1m/s | -57.5°C | 37.9% | 220.8hPa | 2.6V | 03:21:12 | 01:57:06 | 00:00:00 | |
| DB0ND-19 | 2026-09-01 18:26:51 | 49.73818 | 8.41735 | 78° | 111km/h | 11454m | -12.1m/s | -57.4°C | 32.9% | 221.2hPa | 2.5V | 00:00:00 | 00:00:00 | 00:00:00 | |
| DL9PN | 2026-09-01 18:26:50 | 49.73818 | 8.41735 | 78° | 111km/h | 11454m | -12.1m/s | -57.4°C | 32.9% | 221.2hPa | 2.5V | 00:00:00 | 00:00:00 | 00:00:00 | |
| DF1GD-15 | 2026-09-01 18:26:49 | 49.73818 | 8.41735 | 80° | 113km/h | 11454m | -12.1m/s | -57.4°C | 33.0% | 221.2hPa | 2.5V | 03:21:00 | 00:00:00 | 00:00:00 | |
| DL8DAS-15 | 2026-09-01 18:26:48 | 49.73812 | 8.41692 | 80° | 113km/h | 11467m | -12.1m/s | -57.5°C | 32.3% | 220.8hPa | 2.5V | 03:21:00 | 00:00:00 | 00:00:00 | |
| DO3MHA-11 | 2026-09-01 18:26:46 | 49.73795 | 8.41561 | 79° | 113km/h | 11503m | -12.3m/s | -57.5°C | 35.8% | 219.5hPa | 2.5V | 03:21:00 | 01:57:03 | 00:00:00 | |
| HEMX73-11 | 2026-09-01 18:26:45 | 49.73795 | 8.41561 | 80° | 113km/h | 11503m | -12.3m/s | -57.6°C | 30.4% | 219.5hPa | 2.5V | 03:21:00 | 00:00:00 | 00:00:00 | |
| DM0DOS-11 | 2026-09-01 18:26:44 | 49.73760 | 8.41258 | 80° | 113km/h | 11589m | -12.2m/s | -57.6°C | 31.1% | 216.6hPa | 2.5V | 03:21:22 | 01:56:56 | 00:00:00 | |
| BIOWL1-15 | 2026-09-01 18:26:43 | 49.73779 | 8.41432 | 79° | 113km/h | 11540m | -12.2m/s | -57.8°C | 34.3% | 218.3hPa | 2.6V | 03:21:51 | 01:57:00 | 00:00:00 | |
| DF7PN | 2026-09-01 18:26:42 | 49.73769 | 8.41345 | 80° | 111km/h | 11565m | -12.3m/s | -57.8°C | 27.5% | 217.4hPa | 2.5V | 00:00:00 | 00:00:00 | 00:00:00 | |
| DB0UT-7 | 2026-09-01 18:26:41 | 49.73769 | 8.41345 | 81° | 113km/h | 11565m | -12.3m/s | -57.7°C | 32.9% | 217.4hPa | 2.5V | 00:00:00 | 00:00:00 | 00:00:00 | |
| DB0NH | 2026-09-01 18:26:40 | 49.73764 | 8.41301 | 81° | 113km/h | 11577m | -12.3m/s | -57.7°C | 32.0% | 216.9hPa | 2.5V | 00:00:00 | 01:56:57 | 00:00:00 | |
| DJ3KS | 2026-09-01 18:26:38 | 49.73760 | 8.41258 | 82° | 113km/h | 11589m | -12.2m/s | 0°C | 0% | 0hPa | 2.5V | 00:00:00 | 00:00:00 | 00:00:00 | |
| DO3MHA-11 | 2026-09-01 18:26:36 | 49.73746 | 8.41127 | 81° | 113km/h | 11626m | -12.2m/s | -57.6°C | 29.2% | 215.2hPa | 2.5V | 00:00:00 | 01:56:53 | 00:00:00 | |
| DM0DOS-11 | 2026-09-01 18:26:34 | 49.73716 | 8.40822 | 81° | 113km/h | 11713m | -12.5m/s | -57.4°C | 24.6% | 212.4hPa | 2.5V | 03:21:32 | 01:56:46 | 00:00:00 | |
| BIOWL1-15 | 2026-09-01 18:26:34 | 49.73729 | 8.40954 | 82° | 113km/h | 11676m | -12.4m/s | -57.6°C | 26.8% | 213.6hPa | 2.6V | 03:21:51 | 01:56:49 | 00:00:00 | |
| BIOWL9-15 | 2026-09-01 18:26:34 | 49.73733 | 8.40997 | 81° | 111km/h | 11663m | -12.4m/s | -57.6°C | 22.5% | 214.1hPa | 2.6V | 00:00:00 | 00:00:00 | 00:00:00 | |
| NBG1-10 | 2026-09-01 18:26:33 | 49.73733 | 8.40997 | 82° | 108km/h | 11663m | -12.3m/s | -57.6°C | 27.5% | 214.0hPa | 2.6V | 03:21:00 | 01:56:50 | 00:00:00 | |
| DL1ZP-14 | 2026-09-01 18:26:32 | 49.73729 | 8.40954 | 81° | 111km/h | 11676m | -12.4m/s | -57.6°C | 21.7% | 213.6hPa | 2.6V | 00:00:00 | 00:00:00 | 00:00:00 | |
| CB1BUN | 2026-09-01 18:26:31 | 49.73729 | 8.40953 | 82° | 113km/h | 11676m | -12.4m/s | -57.6°C | 21.7% | 213.6hPa | 2.5V | 03:21:00 | 00:00:00 | 00:00:00 | |
| DO3DL | 2026-09-01 18:26:30 | 49.73724 | 8.40910 | 83° | 113km/h | 11688m | -12.5m/s | -57.5°C | 21.1% | 213.2hPa | 2.5V | 00:00:00 | 00:00:00 | 00:00:00 | |
| DF1GD-15 | 2026-09-01 18:26:29 | 49.73720 | 8.40866 | 82° | 113km/h | 11701m | -12.5m/s | -57.4°C | 20.5% | 212.8hPa | 2.5V | 03:21:00 | 00:00:00 | 00:00:00 | |
| DO3MHA-11 | 2026-09-01 18:26:26 | 49.73702 | 8.40690 | 81° | 113km/h | 11751m | -12.3m/s | -57.3°C | 23.0% | 211.0hPa | 2.5V | 00:00:00 | 01:56:43 | 00:00:00 | |
| DL4BBY-15 | 2026-09-01 18:26:25 | 49.73697 | 8.40647 | 81° | 93km/h | 11763m | -12.5m/s | -57.7°C | 0% | 0hPa | 2.6V | 00:00:00 | 00:00:00 | 00:00:00 | |
| DM0DOS-11 | 2026-09-01 18:26:24 | 49.73669 | 8.40383 | 81° | 113km/h | 11838m | -12.5m/s | -57.5°C | 20.4% | 208.2hPa | 2.6V | 03:21:42 | 01:56:36 | 00:00:00 | |
| BIOWL1-15 | 2026-09-01 18:26:22 | 49.73683 | 8.40515 | 81° | 115km/h | 11801m | -12.5m/s | -57.4°C | 20.7% | 209.5hPa | 2.5V | 03:21:51 | 01:56:39 | 00:00:00 | |
| DB0ND-19 | 2026-09-01 18:26:20 | 49.73669 | 8.40383 | 81° | 113km/h | 11838m | -12.5m/s | -57.5°C | 15.8% | 208.2hPa | 2.6V | 00:00:00 | 00:00:00 | 00:00:00 | |
| DL9PN | 2026-09-01 18:26:19 | 49.73669 | 8.40383 | 81° | 113km/h | 11838m | -12.5m/s | -57.5°C | 15.8% | 208.2hPa | 2.6V | 00:00:00 | 00:00:00 | 00:00:00 | |
| DO1YAY-16 | 2026-09-01 18:26:18 | 49.73665 | 8.40339 | 81° | 111km/h | 11851m | -12.5m/s | -57.6°C | 15.3% | 207.8hPa | 2.6V | 00:00:00 | 00:00:00 | 00:00:00 | |
| DO3MHA-11 | 2026-09-01 18:26:16 | 49.73657 | 8.40253 | 83° | 106km/h | 11876m | -12.5m/s | -57.6°C | 18.9% | 206.9hPa | 2.6V | 00:00:00 | 01:56:33 | 00:00:00 | |
| DM0DOS-11 | 2026-09-01 18:26:14 | 49.73634 | 8.39959 | 83° | 104km/h | 11964m | -12.7m/s | -57.1°C | 15% | 204.1hPa | 2.6V | 03:21:52 | 01:56:26 | 00:00:00 | |
| BIOWL1-15 | 2026-09-01 18:26:13 | 49.73641 | 8.40041 | 83° | 106km/h | 11939m | -12.6m/s | -57.4°C | 14.1% | 204.9hPa | 2.5V | 03:21:51 | 01:56:28 | 00:00:00 | |
| DL8DAS-14 | 2026-09-01 18:26:13 | 49.73644 | 8.40082 | 83° | 106km/h | 11926m | -12.6m/s | -57.5°C | 12.4% | 205.3hPa | 2.6V | 00:00:00 | 00:00:00 | 00:00:00 | |
| DF7PN | 2026-09-01 18:26:11 | 49.73637 | 8.40000 | 83° | 104km/h | 11951m | -12.6m/s | -57.4°C | 11.4% | 204.5hPa | 2.6V | 00:00:00 | 00:00:00 | 00:00:00 | |
| DB0UT-7 | 2026-09-01 18:26:10 | 49.73637 | 8.40000 | 84° | 91km/h | 11951m | -12.6m/s | -57.3°C | 15.7% | 204.4hPa | 2.6V | 00:00:00 | 01:56:27 | 00:00:00 | |
| DM3KS-11 | 2026-09-01 18:26:09 | 49.73634 | 8.39959 | 83° | 104km/h | 11964m | -12.7m/s | -57.1°C | 10.9% | 204.1hPa | 2.6V | 00:00:00 | 00:00:00 | 00:00:00 | |
| DF1GD-15 | 2026-09-01 18:26:08 | 49.73634 | 8.39959 | 84° | 104km/h | 11964m | -12.7m/s | -57.1°C | 10.9% | 204.1hPa | 2.6V | 03:22:00 | 00:00:00 | 00:00:00 | |
| DB0NH | 2026-09-01 18:26:07 | 49.73628 | 8.39880 | 84° | 88km/h | 11989m | -12.7m/s | -56.6°C | 13.4% | 203.2hPa | 2.6V | 00:00:00 | 01:56:24 | 00:00:00 | |
| DO3MHA-11 | 2026-09-01 18:26:06 | 49.73625 | 8.39841 | 84° | 93km/h | 12002m | -12.6m/s | -56.4°C | 13.0% | 202.8hPa | 2.6V | 03:21:00 | 01:56:23 | 00:00:00 | |
| BIOWL7-15 | 2026-09-01 18:26:05 | 49.73625 | 8.39841 | 84° | 99km/h | 12002m | -12.6m/s | -56.5°C | 9.2% | 202.8hPa | 2.6V | 00:00:00 | 00:00:00 | 00:00:00 | |
| DM0DOS-11 | 2026-09-01 18:26:04 | 49.73598 | 8.39589 | 78° | 89km/h | 12090m | -12.7m/s | -55.3°C | 10.6% | 200.1hPa | 2.6V | 03:22:02 | 01:56:16 | 00:00:00 | |
| BIOWL1-15 | 2026-09-01 18:26:00 | 49.73603 | 8.39623 | 78° | 91km/h | 12077m | -12.7m/s | -55.4°C | 9.4% | 200.5hPa | 2.5V | 03:22:42 | 01:56:17 | 00:00:00 | |
| DF3TZ-5 | 2026-09-01 18:26:00 | 49.73599 | 8.39589 | 78° | 88km/h | 12090m | -12.7m/s | -55.3°C | 7.3% | 200.1hPa | 2.5V | 00:00:00 | 00:00:00 | 00:00:00 | |
| DN1GJH-1 | 2026-09-01 18:25:59 | 49.73603 | 8.39623 | 79° | 91km/h | 12077m | -12.7m/s | -55.4°C | 7.4% | 200.5hPa | 2.5V | 03:22:00 | 00:00:00 | 00:00:00 | |
| DH7VM-15 | 2026-09-01 18:25:58 | 49.73598 | 8.39589 | 79° | 89km/h | 12090m | -12.7m/s | -55.3°C | 7.3% | 200.1hPa | 2.5V | 00:00:00 | 00:00:00 | 00:00:00 | |
| KANTATE | 2026-09-01 18:25:57 | 49.73594 | 8.39555 | 79° | 89km/h | 12103m | -12.8m/s | -55.3°C | 7.2% | 199.7hPa | 2.5V | 03:22:00 | 00:00:00 | 00:00:00 | |
| DO3DL | 2026-09-01 18:25:56 | 49.73589 | 8.39521 | 78° | 88km/h | 12115m | -12.8m/s | -55.1°C | 7.0% | 199.2hPa | 2.5V | 00:00:00 | 00:00:00 | 00:00:00 | |
| DM0DOS-11 | 2026-09-01 18:25:54 | 49.73545 | 8.39257 | 75° | 86km/h | 12218m | -13m/s | -54.3°C | 9.5% | 196hPa | 2.5V | 03:22:12 | 01:56:06 | 00:00:00 | |
| BIOWL1-15 | 2026-09-01 18:25:52 | 49.73551 | 8.39290 | 75° | 88km/h | 12205m | -12.8m/s | -54.4°C | 8.4% | 196.5hPa | 2.5V | 03:22:42 | 01:56:07 | 00:00:00 | |
| DB0ND-19 | 2026-09-01 18:25:49 | 49.73540 | 8.39225 | 76° | 84km/h | 12231m | -12.8m/s | -54.3°C | 6.4% | 195.7hPa | 2.5V | 00:00:00 | 00:00:00 | 00:00:00 | |
| DL9PN | 2026-09-01 18:25:48 | 49.73540 | 8.39225 | 76° | 84km/h | 12231m | -12.8m/s | -54.3°C | 6.4% | 195.7hPa | 2.5V | 00:00:00 | 00:00:00 | 00:00:00 | |
| DO1YAY-16 | 2026-09-01 18:25:47 | 49.73530 | 8.39160 | 76° | 84km/h | 12256m | -12.8m/s | -54.5°C | 6.4% | 195.0hPa | 2.5V | 00:00:00 | 00:00:00 | 00:00:00 | |
| DO3MHA-11 | 2026-09-01 18:25:46 | 49.73530 | 8.39160 | 77° | 84km/h | 12257m | -12.7m/s | -54.4°C | 9.4% | 194.9hPa | 2.5V | 00:00:00 | 01:56:03 | 00:00:00 | |
| DM7RM-13 | 2026-09-01 18:25:45 | 49.73530 | 8.39160 | 78° | 84km/h | 12257m | -12.8m/s | -54.5°C | 6.4% | 195.0hPa | 2.5V | 03:22:00 | 00:00:00 | 00:00:00 | |
| DM0DOS-11 | 2026-09-01 18:25:44 | 49.73496 | 8.38934 | 76° | 86km/h | 12346m | -12.8m/s | -54.4°C | 9% | 192.2hPa | 2.5V | 03:22:22 | 01:55:56 | 00:00:00 | |
| BIOWL1-15 | 2026-09-01 18:25:42 | 49.73501 | 8.38966 | 76° | 86km/h | 12333m | -12.8m/s | -54.4°C | 7.9% | 192.6hPa | 2.5V | 03:22:42 | 01:55:57 | 00:00:00 | |
| DL8DAS-14 | 2026-09-01 18:25:42 | 49.73506 | 8.38999 | 77° | 84km/h | 12321m | -12.8m/s | -54.3°C | 6.1% | 193.0hPa | 2.6V | 00:00:00 | 00:00:00 | 00:00:00 | |
| DK5PH-5 | 2026-09-01 18:25:41 | 49.73506 | 8.38999 | 78° | 93km/h | 12321m | -12.8m/s | -54.3°C | 9.1% | 192.9hPa | 2.6V | 00:00:00 | 01:55:58 | 00:00:00 | |
| DB0UT-7 | 2026-09-01 18:25:40 | 49.73501 | 8.38966 | 77° | 93km/h | 12333m | -12.7m/s | -54.3°C | 9.1% | 192.5hPa | 2.6V | 00:00:00 | 00:00:00 | 00:00:00 | |
| DF7PN | 2026-09-01 18:25:39 | 49.73496 | 8.38934 | 76° | 84km/h | 12346m | -12.8m/s | -54.4°C | 6.0% | 192.2hPa | 2.6V | 00:00:00 | 00:00:00 | 00:00:00 | |
| DM3KS-11 | 2026-09-01 18:25:38 | 49.73491 | 8.38902 | 76° | 84km/h | 12359m | -12.8m/s | -54.5°C | 6.0% | 191.9hPa | 2.6V | 00:00:00 | 00:00:00 | 00:00:00 | |
| DB0NH | 2026-09-01 18:25:37 | 49.73486 | 8.38869 | 77° | 97km/h | 12372m | -12.8m/s | -54.4°C | 9.0% | 191.4hPa | 2.6V | 00:00:00 | 01:55:54 | 00:00:00 | |
| DO3MHA-11 | 2026-09-01 18:25:36 | 49.73481 | 8.38838 | 77° | 89km/h | 12385m | -12.6m/s | -54.2°C | 8.7% | 191.0hPa | 2.5V | 00:00:00 | 01:55:53 | 00:00:00 | |
| DL8DAS-15 | 2026-09-01 18:25:34 | 49.73475 | 8.38805 | 77° | 86km/h | 12397m | -12.9m/s | -54.2°C | 5.7% | 190.7hPa | 2.5V | 00:00:00 | 00:00:00 | 00:00:00 | |
| DM0DOS-11 | 2026-09-01 18:25:33 | 49.73439 | 8.38570 | 76° | 91km/h | 12487m | -13.1m/s | -54.2°C | 8.1% | 188hPa | 2.5V | 03:22:33 | 01:55:45 | 00:00:00 | |
| BIOWL9-15 | 2026-09-01 18:25:32 | 49.73460 | 8.38706 | 76° | 88km/h | 12436m | -12.9m/s | -54.4°C | 5.5% | 189.5hPa | 2.6V | 00:00:00 | 00:00:00 | 00:00:00 | |
| SFWM-10 | 2026-09-01 18:25:31 | 49.73460 | 8.38706 | 77° | 89km/h | 12436m | -12.9m/s | -54.4°C | 5.5% | 189.5hPa | 2.6V | 00:00:00 | 00:00:00 | 00:00:00 | |
| DL1ZP-14 | 2026-09-01 18:25:30 | 49.73450 | 8.38639 | 76° | 89km/h | 12461m | -12.9m/s | -54.2°C | 5.3% | 188.8hPa | 2.6V | 00:00:00 | 00:00:00 | 00:00:00 | |
| BIOWL1-15 | 2026-09-01 18:25:30 | 49.73450 | 8.38639 | 76° | 89km/h | 12461m | -12.9m/s | -54.2°C | 6.9% | 188.8hPa | 2.6V | 03:22:42 | 01:55:47 | 00:00:00 | |
| DD1CC8 | 2026-09-01 18:25:29 | 49.73439 | 8.38570 | 76° | 91km/h | 12487m | -13.1m/s | -54.2°C | 5.2% | 188.0hPa | 2.5V | 00:00:00 | 00:00:00 | 00:00:00 | |
| DF3TZ-5 | 2026-09-01 18:25:28 | 49.73439 | 8.38570 | 76° | 91km/h | 12487m | -13.1m/s | -54.2°C | 5.2% | 188.0hPa | 2.5V | 00:00:00 | 00:00:00 | 00:00:00 | |
| NBG1-10 | 2026-09-01 18:25:27 | 49.73434 | 8.38535 | 77° | 97km/h | 12501m | -12.9m/s | -54.0°C | 7.9% | 187.6hPa | 2.5V | 00:00:00 | 01:55:44 | 00:00:00 | |
| DO3MHA-11 | 2026-09-01 18:25:26 | 49.73428 | 8.38499 | 77° | 99km/h | 12514m | -12.9m/s | -53.9°C | 7.8% | 187.2hPa | 2.5V | 03:22:00 | 01:55:43 | 00:00:00 | |
| DM7RM-13 | 2026-09-01 18:25:25 | 49.73428 | 8.38499 | 78° | 95km/h | 12514m | -13.0m/s | -54.0°C | 5.0% | 187.3hPa | 2.6V | 03:22:00 | 00:00:00 | 00:00:00 | |
| BIOWL7-15 | 2026-09-01 18:25:24 | 49.73423 | 8.38464 | 78° | 95km/h | 12527m | -13.0m/s | -53.9°C | 4.9% | 186.9hPa | 2.6V | 00:00:00 | 00:00:00 | 00:00:00 | |
| DM0DOS-11 | 2026-09-01 18:25:23 | 49.73386 | 8.38201 | 78° | 102km/h | 12617m | -12.9m/s | -54.3°C | 7.4% | 184.3hPa | 2.6V | 03:22:43 | 01:55:35 | 00:00:00 | |
| BIOWL1-15 | 2026-09-01 18:25:19 | 49.73391 | 8.38240 | 78° | 100km/h | 12604m | -12.9m/s | -54.3°C | 5.8% | 184.6hPa | 2.6V | 03:22:42 | 01:55:36 | 00:00:00 | |
| DB0ND-19 | 2026-09-01 18:25:18 | 49.73381 | 8.38162 | 79° | 100km/h | 12630m | -12.7m/s | -54.4°C | 4.6% | 183.9hPa | 2.5V | 00:00:00 | 00:00:00 | 00:00:00 | |
| DL9PN | 2026-09-01 18:25:17 | 49.73381 | 8.38162 | 79° | 100km/h | 12630m | -12.7m/s | -54.4°C | 4.6% | 183.9hPa | 2.5V | 00:00:00 | 00:00:00 | 00:00:00 | |
| DO3MHA-11 | 2026-09-01 18:25:16 | 49.73376 | 8.38122 | 80° | 102km/h | 12643m | -12.8m/s | -54.4°C | 7.3% | 183.5hPa | 2.5V | 00:00:00 | 01:55:33 | 00:00:00 | |
| DM0DOS-11 | 2026-09-01 18:25:13 | 49.73352 | 8.37804 | 87° | 102km/h | 12746m | -12.8m/s | -54.6°C | 6.8% | 180.6hPa | 2.5V | 03:22:53 | 01:55:25 | 00:00:00 | |
| BIOWL1-15 | 2026-09-01 18:25:12 | 49.73352 | 8.37804 | 87° | 102km/h | 12746m | -12.8m/s | -54.6°C | 4.5% | 180.6hPa | 2.5V | 03:23:33 | 01:55:25 | 00:00:00 | |
| DL8DAS-14 | 2026-09-01 18:25:11 | 49.73356 | 8.37883 | 85° | 102km/h | 12720m | -12.7m/s | -54.7°C | 4.0% | 181.3hPa | 2.5V | 00:00:00 | 00:00:00 | 00:00:00 | |
| DB0UT-7 | 2026-09-01 18:25:10 | 49.73356 | 8.37883 | 86° | 77km/h | 12720m | -12.6m/s | -54.6°C | 6.9% | 181.3hPa | 2.5V | 03:22:00 | 01:55:27 | 00:00:00 | |
| CB1BUN | 2026-09-01 18:25:09 | 49.73354 | 8.37843 | 87° | 102km/h | 12733m | -12.8m/s | -54.7°C | 4.0% | 180.9hPa | 2.5V | 03:23:00 | 00:00:00 | 00:00:00 | |
| DB0NH | 2026-09-01 18:25:07 | 49.73351 | 8.37764 | 88° | 78km/h | 12758m | -12.7m/s | -54.5°C | 6.7% | 180.2hPa | 2.5V | 03:22:00 | 01:55:24 | 00:00:00 | |
| DO3MHA-11 | 2026-09-01 18:25:06 | 49.73351 | 8.37725 | 89° | 95km/h | 12771m | -12.9m/s | -54.5°C | 6.6% | 179.9hPa | 2.5V | 00:00:00 | 01:55:23 | 00:00:00 | |
| DL8DAS-15 | 2026-09-01 18:25:05 | 49.73351 | 8.37725 | 90° | 100km/h | 12771m | -12.9m/s | -54.5°C | 3.8% | 179.9hPa | 2.5V | 00:00:00 | 00:00:00 | 00:00:00 | |
| DO3DL | 2026-09-01 18:25:04 | 49.73351 | 8.37686 | 91° | 99km/h | 12784m | -12.9m/s | -54.4°C | 3.7% | 179.5hPa | 2.5V | 03:23:00 | 00:00:00 | 00:00:00 | |
| DM0DOS-11 | 2026-09-01 18:25:03 | 49.73355 | 8.37429 | 92° | 89km/h | 12874m | -12.9m/s | -54.2°C | 6% | 177hPa | 2.5V | 03:23:03 | 01:55:15 | 00:00:00 | |
| BIOWL1-15 | 2026-09-01 18:24:57 | 49.73356 | 8.37394 | 93° | 88km/h | 12887m | -13m/s | -54.2°C | 3.4% | 176.6hPa | 2.5V | 03:23:33 | 01:55:14 | 00:00:00 | |
| DO3MHA-11 | 2026-09-01 18:24:56 | 49.73357 | 8.37361 | 93° | 77km/h | 12900m | -12.9m/s | -54.0°C | 5.7% | 176.3hPa | 2.5V | 00:00:00 | 01:55:13 | 00:00:00 | |
| KANTATE | 2026-09-01 18:24:55 | 49.73357 | 8.37361 | 94° | 86km/h | 12900m | -13.0m/s | -54.1°C | 3.0% | 176.3hPa | 2.6V | 00:00:00 | 00:00:00 | 00:00:00 | |
| NBG1-10 | 2026-09-01 18:24:54 | 49.73359 | 8.37296 | 93° | 71km/h | 12927m | -13.0m/s | -54.0°C | 5.6% | 175.6hPa | 2.6V | 00:00:00 | 01:55:11 | 00:00:00 | |
| DM0DOS-11 | 2026-09-01 18:24:53 | 49.73364 | 8.37121 | 90° | 69km/h | 13004m | -13.3m/s | -53.9°C | 5.2% | 173.4hPa | 2.6V | 03:23:13 | 01:55:05 | 00:00:00 | |
| BIOWL1-15 | 2026-09-01 18:24:48 | 49.73364 | 8.37068 | 89° | 66km/h | 13031m | -13.1m/s | -53.8°C | 2.5% | 172.8hPa | 2.5V | 03:23:33 | 01:55:03 | 00:00:00 | |
| DF1GD-15 | 2026-09-01 18:24:47 | 49.73364 | 8.37094 | 91° | 68km/h | 13018m | -13.2m/s | -53.8°C | 2.6% | 173.1hPa | 2.6V | 03:23:00 | 00:00:00 | 00:00:00 | |
| DO3MHA-11 | 2026-09-01 18:24:46 | 49.73364 | 8.37068 | 89° | 64km/h | 13031m | -13.1m/s | -53.7°C | 5.1% | 172.7hPa | 2.6V | 03:23:00 | 01:55:03 | 00:00:00 | |
| DL8DAS-15 | 2026-09-01 18:24:45 | 49.73364 | 8.37068 | 90° | 66km/h | 13031m | -13.1m/s | -53.8°C | 2.6% | 172.8hPa | 2.6V | 00:00:00 | 00:00:00 | 00:00:00 | |
| DM7RM-13 | 2026-09-01 18:24:44 | 49.73363 | 8.37043 | 89° | 66km/h | 13044m | -13.2m/s | -53.6°C | 2.5% | 172.4hPa | 2.6V | 03:23:00 | 00:00:00 | 00:00:00 | |
| DM0DOS-11 | 2026-09-01 18:24:43 | 49.73351 | 8.36870 | 80° | 66km/h | 13137m | -13.7m/s | -53.6°C | 5% | 169.9hPa | 2.6V | 03:23:23 | 01:54:55 | 00:00:00 | |
| BIOWL1-15 | 2026-09-01 18:24:38 | 49.73345 | 8.36819 | 79° | 68km/h | 13165m | -13.5m/s | -53.5°C | 2.3% | 169.2hPa | 2.5V | 03:23:33 | 01:54:53 | 00:00:00 | |
| DF7PN | 2026-09-01 18:24:37 | 49.73348 | 8.36844 | 79° | 66km/h | 13151m | -13.5m/s | -53.6°C | 2.5% | 169.6hPa | 2.5V | 00:00:00 | 00:00:00 | 00:00:00 | |
| DO3MHA-11 | 2026-09-01 18:24:36 | 49.73345 | 8.36819 | 80° | 71km/h | 13165m | -13.4m/s | -53.4°C | 5.0% | 169.1hPa | 2.5V | 00:00:00 | 01:54:53 | 00:00:00 | |
| DB0NH | 2026-09-01 18:24:35 | 49.73342 | 8.36793 | 79° | 78km/h | 13178m | -13.5m/s | -53.3°C | 4.9% | 168.8hPa | 2.5V | 00:00:00 | 01:54:52 | 00:00:00 | |
| DM0DOS-11 | 2026-09-01 18:24:33 | 49.73318 | 8.36600 | 79° | 75km/h | 13273m | -13.7m/s | -53.5°C | 4.9% | 166.4hPa | 2.5V | 03:23:33 | 01:54:45 | 00:00:00 | |
| BIOWL1-15 | 2026-09-01 18:24:25 | 49.73307 | 8.36514 | 78° | 75km/h | 13314m | -13.5m/s | -53.6°C | 2.2% | 165.4hPa | 2.6V | 03:24:24 | 01:54:42 | 00:00:00 | |
| BIOWL1-15 | 2026-09-01 18:24:17 | 49.73261 | 8.36202 | 77° | 75km/h | 13466m | -13.9m/s | -52.9°C | 1.9% | 161.5hPa | 2.5V | 03:24:24 | 01:54:31 | 00:00:00 | |
| BIOWL1-15 | 2026-09-01 18:24:05 | 49.73225 | 8.35877 | 83° | 80km/h | 13620m | -14.3m/s | -52.7°C | 1.7% | 157.7hPa | 2.5V | 03:24:24 | 01:54:20 | 00:00:00 | |
| DO3DL | 2026-09-01 18:24:03 | 49.73227 | 8.35908 | 84° | 78km/h | 13606m | -14.2m/s | -52.7°C | 2.0% | 158.0hPa | 2.5V | 03:24:00 | 00:00:00 | 00:00:00 | |
| DN1GJH-1 | 2026-09-01 18:24:02 | 49.73225 | 8.35877 | 84° | 80km/h | 13620m | -14.3m/s | -52.7°C | 2.1% | 157.7hPa | 2.5V | 00:00:00 | 00:00:00 | 00:00:00 | |
| DM0DOS-11 | 2026-09-01 18:24:01 | 49.73210 | 8.35657 | 84° | 80km/h | 13720m | -14.3m/s | -52.4°C | 4.4% | 155.3hPa | 2.5V | 03:24:05 | 01:54:13 | 00:00:00 | |
| HSKMA3-T | 2026-09-01 18:24:01 | 49.73220 | 8.35815 | 84° | 80km/h | 13648m | -14.3m/s | -52.8°C | 1.8% | 157hPa | 2.5V | 03:27:48 | 01:54:18 | 00:00:00 | |
| BIOWL1-15 | 2026-09-01 18:23:55 | 49.73204 | 8.35563 | 85° | 80km/h | 13763m | -14.4m/s | -52.3°C | 1.6% | 154.2hPa | 2.6V | 03:24:24 | 01:54:10 | 00:00:00 | |
| DB0NH | 2026-09-01 18:23:53 | 49.73204 | 8.35563 | 85° | 77km/h | 13763m | -14.3m/s | -52.3°C | 4.4% | 154.2hPa | 2.6V | 00:00:00 | 01:54:10 | 00:00:00 | |
| KANTATE | 2026-09-01 18:23:52 | 49.73204 | 8.35563 | 86° | 80km/h | 13763m | -14.4m/s | -52.3°C | 2.0% | 154.2hPa | 2.5V | 00:00:00 | 00:00:00 | 00:00:00 | |
| DM0DOS-11 | 2026-09-01 18:23:50 | 49.73185 | 8.35320 | 82° | 78km/h | 13878m | -14.6m/s | -51.9°C | 4.2% | 151.5hPa | 2.5V | 03:24:16 | 01:54:02 | 00:00:00 | |
| BIOWL1-15 | 2026-09-01 18:23:42 | 49.73179 | 8.35229 | 84° | 78km/h | 13922m | -14.6m/s | -52.1°C | 1.5% | 150.5hPa | 2.6V | 03:24:24 | 01:53:59 | 00:00:00 | |
| BIOWL1-15 | 2026-09-01 18:23:33 | 49.73161 | 8.34901 | 86° | 73km/h | 14084m | -15m/s | -51.8°C | 1.3% | 146.7hPa | 2.5V | 03:25:15 | 01:53:48 | 00:00:00 | |
| BIOWL1-15 | 2026-09-01 18:23:26 | 49.73157 | 8.34597 | 91° | 69km/h | 14248m | -15.1m/s | -51.1°C | 1.2% | 143.1hPa | 2.5V | 03:25:15 | 01:53:37 | 00:00:00 | |
| BIOWL1-15 | 2026-09-01 18:23:11 | 49.73153 | 8.34307 | 85° | 68km/h | 14416m | -15.4m/s | -51.2°C | 1.2% | 139.4hPa | 2.5V | 03:25:15 | 01:53:26 | 00:00:00 | |
| HSKMA3-T | 2026-09-01 18:23:05 | 49.73148 | 8.34202 | 86° | 66km/h | 14477m | -15.4m/s | -51.1°C | 1.2% | 138.2hPa | 2.5V | 03:27:48 | 01:53:22 | 00:00:00 | |
| BIOWL1-15 | 2026-09-01 18:23:00 | 49.73142 | 8.34026 | 90° | 60km/h | 14585m | -15.5m/s | -51.6°C | 1.3% | 135.9hPa | 2.6V | 03:25:15 | 01:53:15 | 00:00:00 | |
| BIOWL1-15 | 2026-09-01 18:22:48 | 49.73149 | 8.33817 | 98° | 47km/h | 14740m | -15.8m/s | -52.3°C | 1.4% | 132.7hPa | 2.6V | 03:25:15 | 01:53:05 | 00:00:00 | |
| BIOWL1-15 | 2026-09-01 18:22:37 | 49.73156 | 8.33642 | 84° | 40km/h | 14913m | -15.8m/s | -52.9°C | 1.4% | 129.2hPa | 2.6V | 03:26:06 | 01:52:54 | 00:00:00 | |
| HSKMA3-T | 2026-09-01 18:22:35 | 49.73153 | 8.33610 | 80° | 44km/h | 14945m | -15.9m/s | -53.1°C | 1.5% | 128.6hPa | 2.5V | 03:27:48 | 01:52:52 | 00:00:00 | |
| BIOWL1-15 | 2026-09-01 18:22:26 | 49.73129 | 8.33435 | 78° | 58km/h | 15087m | -15.7m/s | -53.5°C | 1.5% | 125.7hPa | 2.5V | 03:26:06 | 01:52:43 | 00:00:00 | |
| HSKMA3-T | 2026-09-01 18:22:23 | 49.73120 | 8.33365 | 81° | 62km/h | 15135m | -15.6m/s | -53.8°C | 1.6% | 124.8hPa | 2.6V | 03:27:48 | 01:52:40 | 00:00:00 | |
| DB0NH | 2026-09-01 18:22:23 | 49.73120 | 8.33365 | 82° | 53km/h | 15135m | -15.5m/s | -53.7°C | 4.6% | 124.7hPa | 2.6V | 00:00:00 | 01:52:40 | 00:00:00 | |
| DF3TZ-5 | 2026-09-01 18:22:22 | 49.73118 | 8.33341 | 82° | 64km/h | 15150m | -15.8m/s | -53.9°C | 1.9% | 124.5hPa | 2.5V | 00:00:00 | 00:00:00 | 00:00:00 | |
| DO3DL | 2026-09-01 18:22:21 | 49.73118 | 8.33340 | 83° | 64km/h | 15150m | -15.8m/s | -53.9°C | 1.9% | 124.5hPa | 2.5V | 03:26:00 | 00:00:00 | 00:00:00 | |
| DF1GD-15 | 2026-09-01 18:22:20 | 49.73116 | 8.33316 | 85° | 64km/h | 15166m | -15.9m/s | -53.8°C | 1.9% | 124.2hPa | 2.5V | 03:26:00 | 00:00:00 | 00:00:00 | |
| HEMX73-11 | 2026-09-01 18:22:19 | 49.73115 | 8.33290 | 87° | 66km/h | 15182m | -16.0m/s | -53.7°C | 1.9% | 123.9hPa | 2.5V | 03:26:00 | 00:00:00 | 00:00:00 | |
| DM0DOS-11 | 2026-09-01 18:22:16 | 49.73125 | 8.33069 | 98° | 58km/h | 15326m | -15.8m/s | -52.8°C | 4.3% | 121.1hPa | 2.5V | 03:25:50 | 01:52:28 | 00:00:00 | |
| BIOWL1-15 | 2026-09-01 18:22:16 | 49.73115 | 8.33189 | 94° | 64km/h | 15246m | -15.9m/s | -53.5°C | 1.5% | 122.6hPa | 2.5V | 03:26:06 | 01:52:33 | 00:00:00 | |
| HSKMA3-T | 2026-09-01 18:22:13 | 49.73120 | 8.33116 | 98° | 60km/h | 15294m | -16m/s | -53.2°C | 1.5% | 121.7hPa | 2.6V | 03:27:48 | 01:52:30 | 00:00:00 | |
| BIOWL1-15 | 2026-09-01 18:22:07 | 49.73135 | 8.32965 | 95° | 49km/h | 15407m | -16.3m/s | -52.9°C | 1.4% | 119.7hPa | 2.5V | 03:26:06 | 01:52:23 | 00:00:00 | |
| DL4BBY-15 | 2026-09-01 18:22:07 | 49.73133 | 8.32984 | 97° | 53km/h | 15391m | -16.2m/s | -53.2°C | 0% | 0hPa | 2.5V | 00:00:00 | 00:00:00 | 00:00:00 | |
| DO3MHA-11 | 2026-09-01 18:22:06 | 49.73135 | 8.32965 | 96° | 49km/h | 15407m | -16.3m/s | -52.9°C | 4.2% | 119.6hPa | 2.5V | 03:25:00 | 01:52:23 | 00:00:00 | |
| DL8DAS-14 | 2026-09-01 18:22:04 | 49.73137 | 8.32926 | 92° | 46km/h | 15440m | -15.9m/s | -52.8°C | 1.7% | 119.0hPa | 2.5V | 00:00:00 | 00:00:00 | 00:00:00 | |
| DF7PN | 2026-09-01 18:22:02 | 49.73136 | 8.32889 | 85° | 47km/h | 15472m | -16.4m/s | -52.8°C | 1.7% | 118.4hPa | 2.5V | 00:00:00 | 00:00:00 | 00:00:00 | |
| DM3KS-11 | 2026-09-01 18:22:01 | 49.73135 | 8.32871 | 83° | 46km/h | 15488m | -16.3m/s | -52.8°C | 1.7% | 118.1hPa | 2.5V | 00:00:00 | 00:00:00 | 00:00:00 | |
| DJ2KF-10 | 2026-09-01 18:22:00 | 49.73133 | 8.32853 | 81° | 53km/h | 15505m | -16.5m/s | -52.8°C | 4.2% | 117.8hPa | 2.5V | 00:00:00 | 01:52:17 | 00:00:00 | |
| HEMX73-11 | 2026-09-01 18:21:58 | 49.73131 | 8.32834 | 79° | 49km/h | 15522m | -16.5m/s | -52.9°C | 1.7% | 117.5hPa | 2.5V | 03:26:00 | 00:00:00 | 00:00:00 | |
| DO3MHA-11 | 2026-09-01 18:21:56 | 49.73121 | 8.32777 | 74° | 58km/h | 15571m | -16.3m/s | -53.0°C | 4.2% | 116.6hPa | 2.5V | 00:00:00 | 01:52:13 | 00:00:00 | |
| DM0DOS-11 | 2026-09-01 18:21:55 | 49.73098 | 8.32650 | 77° | 60km/h | 15670m | -16.9m/s | -53.3°C | 4.3% | 114.8hPa | 2.5V | 03:26:11 | 01:52:07 | 00:00:00 | |
| BIOWL1-15 | 2026-09-01 18:21:55 | 49.73118 | 8.32757 | 74° | 53km/h | 15587m | -16.3m/s | -53.2°C | 1.4% | 116.3hPa | 2.5V | 03:26:06 | 01:52:12 | 00:00:00 | |
| HSKMA3-T | 2026-09-01 18:21:45 | 49.73087 | 8.32534 | 85° | 58km/h | 15755m | -16.5m/s | -53.5°C | 1.5% | 113.4hPa | 2.5V | 03:27:48 | 01:52:02 | 00:00:00 | |
| BIOWL1-15 | 2026-09-01 18:21:44 | 49.73087 | 8.32511 | 88° | 57km/h | 15771m | -16.6m/s | -53.6°C | 1.5% | 113.1hPa | 2.5V | 03:26:57 | 01:52:01 | 00:00:00 | |
| SFWM-10 | 2026-09-01 18:21:43 | 49.73086 | 8.32511 | 89° | 57km/h | 15771m | -16.6m/s | -53.6°C | 1.8% | 113.1hPa | 2.5V | 00:00:00 | 00:00:00 | 00:00:00 | |
| DM0DOS-11 | 2026-09-01 18:21:42 | 49.73084 | 8.32373 | 85° | 46km/h | 15886m | -16.4m/s | -53.5°C | 4.4% | 111.1hPa | 2.5V | 03:26:24 | 01:51:54 | 00:00:00 | |
| BIOWL1-15 | 2026-09-01 18:21:35 | 49.73078 | 8.32302 | 81° | 46km/h | 15954m | -16.5m/s | -53.7°C | 1.5% | 109.9hPa | 2.5V | 03:26:57 | 01:51:50 | 00:00:00 | |
| HSKMA3-T | 2026-09-01 18:21:27 | 49.73065 | 8.32191 | 78° | 47km/h | 16054m | -16.9m/s | -54.1°C | 1.6% | 108.2hPa | 2.5V | 03:27:48 | 01:51:44 | 00:00:00 | |
| DL1XH-west | 2026-09-01 18:21:26 | 49.73062 | 8.32172 | 78° | 49km/h | 16072m | -17.3m/s | -54.1°C | 1.6% | 107.9hPa | 2.6V | 03:26:57 | 01:51:43 | 00:00:00 | |
| BIOWL1-15 | 2026-09-01 18:21:25 | 49.73054 | 8.32117 | 77° | 49km/h | 16123m | -17.4m/s | -53.8°C | 1.5% | 107hPa | 2.5V | 03:26:57 | 01:51:40 | 00:00:00 | |
| BIOWL9-15 | 2026-09-01 18:21:24 | 49.73054 | 8.32117 | 77° | 47km/h | 16123m | -17.4m/s | -53.8°C | 1.8% | 107.0hPa | 2.6V | 00:00:00 | 00:00:00 | 00:00:00 | |
| DM0DOS-11 | 2026-09-01 18:21:22 | 49.73041 | 8.32002 | 80° | 53km/h | 16226m | -17.9m/s | -53.2°C | 4.2% | 105.4hPa | 2.6V | 03:26:44 | 01:51:34 | 00:00:00 | |
| DO3DL | 2026-09-01 18:21:21 | 49.73052 | 8.32098 | 79° | 49km/h | 16140m | -16.8m/s | -53.7°C | 1.7% | 106.8hPa | 2.6V | 03:26:00 | 00:00:00 | 00:00:00 | |
| DL1XH1-15 | 2026-09-01 18:21:20 | 49.73036 | 8.31962 | 81° | 53km/h | 16261m | -17.8m/s | -53°C | 4.1% | 104.8hPa | 2.6V | 03:26:46 | 01:51:32 | 00:00:00 | |
| DL1XH-west | 2026-09-01 18:21:15 | 49.73036 | 8.31962 | 82° | 53km/h | 16261m | -17.8m/s | -53°C | 1.2% | 104.8hPa | 2.6V | 03:26:57 | 01:51:32 | 00:00:00 | |
| BIOWL1-15 | 2026-09-01 18:21:14 | 49.73030 | 8.31903 | 78° | 49km/h | 16313m | -17.2m/s | -53.2°C | 1.2% | 103.9hPa | 2.5V | 03:26:57 | 01:51:29 | 00:00:00 | |
| DM0DOS-11 | 2026-09-01 18:21:12 | 49.73018 | 8.31810 | 76° | 49km/h | 16400m | -17.7m/s | -53.3°C | 4.1% | 102.5hPa | 2.5V | 03:26:54 | 01:51:24 | 00:00:00 | |
| DL1XH-west | 2026-09-01 18:21:05 | 49.73012 | 8.31775 | 76° | 47km/h | 16435m | -17.8m/s | -53.3°C | 1.2% | 102hPa | 2.5V | 03:26:57 | 01:51:22 | 00:00:00 | |
| DM0DOS-11 | 2026-09-01 18:21:02 | 49.72985 | 8.31634 | 72° | 49km/h | 16577m | -18.3m/s | -53.7°C | 4.3% | 99.7hPa | 2.6V | 03:27:04 | 01:51:14 | 00:00:00 | |
| BIOWL1-15 | 2026-09-01 18:21:01 | 49.72999 | 8.31706 | 75° | 47km/h | 16506m | -18.2m/s | -53.7°C | 1.3% | 100.8hPa | 2.5V | 03:27:48 | 01:51:18 | 00:00:00 | |
| DL1XH-west | 2026-09-01 18:20:55 | 49.72978 | 8.31596 | 72° | 53km/h | 16613m | -18.5m/s | -53.6°C | 1.3% | 99.2hPa | 2.5V | 03:27:48 | 01:51:12 | 00:00:00 | |
| BIOWL1-15 | 2026-09-01 18:20:54 | 49.72956 | 8.31493 | 71° | 58km/h | 16705m | -17.8m/s | -53.7°C | 1.2% | 97.8hPa | 2.5V | 03:27:48 | 01:51:07 | 00:00:00 | |
| BIOWL9-15 | 2026-09-01 18:20:52 | 49.72965 | 8.31535 | 70° | 55km/h | 16668m | -17.7m/s | -53.7°C | 1.6% | 98.4hPa | 2.6V | 00:00:00 | 00:00:00 | 00:00:00 | |
| DL1XH1-15 | 2026-09-01 18:20:51 | 49.72937 | 8.31381 | 77° | 58km/h | 16796m | -17.9m/s | -54.5°C | 4.5% | 96.5hPa | 2.6V | 03:27:16 | 01:51:02 | 00:00:00 | |
| DL1ZP-14 | 2026-09-01 18:20:51 | 49.72956 | 8.31493 | 70° | 57km/h | 16705m | -17.8m/s | -53.7°C | 1.5% | 97.8hPa | 2.5V | 00:00:00 | 00:00:00 | 00:00:00 | |
| DM0DOS-11 | 2026-09-01 18:20:50 | 49.72937 | 8.31381 | 77° | 58km/h | 16796m | -17.9m/s | -54.5°C | 4.5% | 96.5hPa | 2.6V | 03:27:16 | 01:51:02 | 00:00:00 | |
| DL1XH-west | 2026-09-01 18:20:45 | 49.72937 | 8.31381 | 77° | 60km/h | 16796m | -17.9m/s | -54.5°C | 1.4% | 96.5hPa | 2.6V | 03:27:48 | 01:51:02 | 00:00:00 | |
| BIOWL1-15 | 2026-09-01 18:20:40 | 49.72929 | 8.31263 | 91° | 62km/h | 16885m | -18.7m/s | -54.2°C | 1.4% | 95.1hPa | 2.6V | 03:27:48 | 01:50:57 | 00:00:00 | |
| DB0UT-7 | 2026-09-01 18:20:40 | 49.72929 | 8.31263 | 92° | 53km/h | 16886m | -18.6m/s | -54.1°C | 4.5% | 95.0hPa | 2.6V | 00:00:00 | 00:00:00 | 00:00:00 | |
| DL1XH1-15 | 2026-09-01 18:20:39 | 49.72933 | 8.31151 | 94° | 55km/h | 16975m | -18.9m/s | -54.3°C | 4.7% | 93.8hPa | 2.5V | 03:27:26 | 01:50:52 | 00:00:00 | |
| DL1XH-west | 2026-09-01 18:20:34 | 49.72934 | 8.31129 | 95° | 57km/h | 16993m | -19.2m/s | -54.2°C | 1.4% | 93.5hPa | 2.6V | 03:27:48 | 01:50:51 | 00:00:00 | |
| DN1GJH-1 | 2026-09-01 18:20:33 | 49.72934 | 8.31129 | 96° | 57km/h | 16993m | -19.2m/s | -54.2°C | 1.7% | 93.5hPa | 2.5V | 03:27:00 | 00:00:00 | 00:00:00 | |
| DL8DAS-14 | 2026-09-01 18:20:31 | 49.72937 | 8.31065 | 93° | 53km/h | 17049m | -19.7m/s | -53.7°C | 1.6% | 92.7hPa | 2.5V | 00:00:00 | 00:00:00 | 00:00:00 | |
| DM0DOS-11 | 2026-09-01 18:20:30 | 49.72939 | 8.30941 | 88° | 51km/h | 17165m | -19.1m/s | -53.8°C | 4.5% | 91hPa | 2.5V | 03:27:36 | 01:50:42 | 00:00:00 | |
| BIOWL1-15 | 2026-09-01 18:20:29 | 49.72939 | 8.31024 | 93° | 53km/h | 17088m | -19.7m/s | -53.8°C | 1.3% | 92.1hPa | 2.5V | 03:27:48 | 01:50:46 | 00:00:00 | |
| DL1XH-west | 2026-09-01 18:20:23 | 49.72938 | 8.30901 | 87° | 51km/h | 17204m | -18.8m/s | -53.6°C | 1.3% | 90.5hPa | 2.6V | 03:27:48 | 01:50:40 | 00:00:00 | |
| DO3DL | 2026-09-01 18:20:22 | 49.72938 | 8.30901 | 88° | 51km/h | 17204m | -18.8m/s | -53.6°C | 1.6% | 90.5hPa | 2.6V | 03:27:00 | 00:00:00 | 00:00:00 | |
| DL1XH1-15 | 2026-09-01 18:20:21 | 49.72934 | 8.30804 | 86° | 47km/h | 17297m | -18.8m/s | -52.9°C | 4.3% | 89.2hPa | 2.6V | 03:27:43 | 01:50:35 | 00:00:00 | |
| DM0DOS-11 | 2026-09-01 18:20:20 | 49.72931 | 8.30747 | 86° | 47km/h | 17354m | -18.8m/s | -52.7°C | 4.2% | 88.4hPa | 2.5V | 03:27:46 | 01:50:32 | 00:00:00 | |
| HSKMA3-T | 2026-09-01 18:20:19 | 49.72935 | 8.30822 | 87° | 47km/h | 17279m | -18.7m/s | -53°C | 1.2% | 89.4hPa | 2.5V | 03:27:48 | 01:50:36 | 00:00:00 | |
| DL1XH-west | 2026-09-01 18:20:13 | 49.72929 | 8.30710 | 86° | 49km/h | 17391m | -18.9m/s | -52.4°C | 1.1% | 87.8hPa | 2.6V | 03:27:48 | 01:50:30 | 00:00:00 | |
| DL8DAS-15 | 2026-09-01 18:20:12 | 49.72929 | 8.30710 | 87° | 49km/h | 17392m | -18.9m/s | -52.4°C | 1.5% | 87.9hPa | 2.5V | 03:27:00 | 00:00:00 | 00:00:00 | |
| DK5PH-5 | 2026-09-01 18:20:11 | 49.72927 | 8.30673 | 85° | 46km/h | 17429m | -19.2m/s | -52.5°C | 4.2% | 87.3hPa | 2.5V | 00:00:00 | 01:50:28 | 00:00:00 | |
| DM0DOS-11 | 2026-09-01 18:20:10 | 49.72918 | 8.30547 | 84° | 57km/h | 17543m | -19.3m/s | -51.8°C | 3.9% | 85.8hPa | 2.5V | 03:27:56 | 01:50:22 | 00:00:00 | |
| DL1XH1-15 | 2026-09-01 18:20:09 | 49.72923 | 8.30612 | 84° | 55km/h | 17486m | -19m/s | -51.8°C | 3.9% | 86.5hPa | 2.6V | 03:27:53 | 01:50:25 | 00:00:00 | |
| BIOWL1-15 | 2026-09-01 18:20:08 | 49.72923 | 8.30612 | 84° | 55km/h | 17487m | -19m/s | -51.8°C | 1% | 86.5hPa | 2.6V | 03:28:39 | 01:50:25 | 00:00:00 | |
| DL4BBY-15 | 2026-09-01 18:20:07 | 49.72921 | 8.30590 | 85° | 42km/h | 17506m | -19.1m/s | -51.9°C | 0% | 0hPa | 2.5V | 00:00:00 | 00:00:00 | 00:00:00 | |
| DJ2DS-15 | 2026-09-01 18:20:06 | 49.72918 | 8.30547 | 84° | 57km/h | 17543m | -19.3m/s | -51.8°C | 1.4% | 85.8hPa | 2.5V | 00:00:00 | 00:00:00 | 00:00:00 | |
| DO1YAY-16 | 2026-09-01 18:20:05 | 49.72918 | 8.30547 | 84° | 57km/h | 17543m | -19.3m/s | -51.8°C | 1.4% | 85.8hPa | 2.5V | 00:00:00 | 00:00:00 | 00:00:00 | |
| DL1XH1-15 | 2026-09-01 18:20:03 | 49.72911 | 8.30400 | 88° | 51km/h | 17680m | -20.6m/s | -52°C | 4% | 84hPa | 2.5V | 03:28:03 | 01:50:15 | 00:00:00 | |
| DL1XH-west | 2026-09-01 18:20:02 | 49.72914 | 8.30482 | 85° | 55km/h | 17600m | -20.2m/s | -52°C | 1% | 85hPa | 2.6V | 03:28:39 | 01:50:19 | 00:00:00 | |
| DM0DOS-11 | 2026-09-01 18:20:00 | 49.72913 | 8.30342 | 93° | 47km/h | 17741m | -20.4m/s | -51.9°C | 3.9% | 83.2hPa | 2.6V | 03:28:06 | 01:50:12 | 00:00:00 | |
| BIOWL1-15 | 2026-09-01 18:19:59 | 49.72912 | 8.30380 | 91° | 49km/h | 17700m | -20.8m/s | -52°C | 1.1% | 83.7hPa | 2.5V | 03:28:39 | 01:50:14 | 00:00:00 | |
| DF7PN | 2026-09-01 18:19:58 | 49.72911 | 8.30400 | 88° | 49km/h | 17680m | -20.6m/s | -52.0°C | 1.4% | 84.0hPa | 2.6V | 00:00:00 | 00:00:00 | 00:00:00 | |
| DM3KS-11 | 2026-09-01 18:19:57 | 49.72912 | 8.30361 | 93° | 47km/h | 17720m | -20.7m/s | -51.9°C | 1.4% | 83.5hPa | 2.6V | 00:00:00 | 00:00:00 | 00:00:00 | |
| DO3MHA-11 | 2026-09-01 18:19:56 | 49.72912 | 8.30361 | 94° | 40km/h | 17721m | -20.7m/s | -51.9°C | 4.0% | 83.4hPa | 2.6V | 00:00:00 | 01:50:13 | 00:00:00 | |
| DO3DL | 2026-09-01 18:19:55 | 49.72912 | 8.30361 | 94° | 49km/h | 17721m | -20.7m/s | -51.9°C | 1.4% | 83.5hPa | 2.5V | 03:28:00 | 00:00:00 | 00:00:00 | |
| DL0LBS | 2026-09-01 18:19:53 | 49.72914 | 8.30324 | 96° | 46km/h | 17762m | -20.4m/s | -51.9°C | 1.4% | 82.9hPa | 2.5V | 03:28:00 | 00:00:00 | 00:00:00 | |
| DN1GJH-1 | 2026-09-01 18:19:52 | 49.72915 | 8.30307 | 97° | 44km/h | 17782m | -20.1m/s | -51.9°C | 1.4% | 82.7hPa | 2.5V | 03:28:00 | 00:00:00 | 00:00:00 | |
| DL1XH1-15 | 2026-09-01 18:19:51 | 49.72923 | 8.30231 | 100° | 35km/h | 17881m | -20.3m/s | -51.6°C | 3.8% | 81.4hPa | 2.5V | 03:28:13 | 01:50:05 | 00:00:00 | |
| DL1XH-west | 2026-09-01 18:19:51 | 49.72918 | 8.30274 | 100° | 42km/h | 17821m | -20.1m/s | -51.8°C | 1% | 82.2hPa | 2.5V | 03:28:39 | 01:50:08 | 00:00:00 | |
| BIOWL9-15 | 2026-09-01 18:19:50 | 49.72920 | 8.30259 | 98° | 37km/h | 17841m | -20.0m/s | -51.7°C | 1.4% | 82.0hPa | 2.5V | 00:00:00 | 00:00:00 | 00:00:00 | |
| SONCRA | 2026-09-01 18:19:49 | 49.72921 | 8.30245 | 100° | 37km/h | 17861m | -20.1m/s | -51.6°C | 1.4% | 81.7hPa | 2.5V | 00:00:00 | 00:00:00 | 00:00:00 | |
| DL1ZP-14 | 2026-09-01 18:19:48 | 49.72923 | 8.30231 | 100° | 33km/h | 17881m | -20.3m/s | -51.6°C | 1.4% | 81.4hPa | 2.5V | 00:00:00 | 00:00:00 | 00:00:00 | |
| DM0DOS-11 | 2026-09-01 18:19:47 | 49.72928 | 8.30166 | 87° | 22km/h | 18001m | -20.2m/s | -51.4°C | 3.7% | 79.9hPa | 2.6V | 03:28:19 | 01:49:59 | 00:00:00 | |
| BIOWL1-15 | 2026-09-01 18:19:46 | 49.72925 | 8.30206 | 99° | 29km/h | 17921m | -20.3m/s | -51.6°C | 0.9% | 80.9hPa | 2.6V | 03:28:39 | 01:50:03 | 00:00:00 | |
| HSKMA3-T | 2026-09-01 18:19:45 | 49.72926 | 8.30195 | 98° | 27km/h | 17941m | -20.1m/s | -51.4°C | 0.9% | 80.7hPa | 2.6V | 03:29:30 | 01:50:02 | 00:00:00 | |
| DL1XH-west | 2026-09-01 18:19:41 | 49.72928 | 8.30157 | 84° | 22km/h | 18020m | -20.2m/s | -51.5°C | 0.9% | 79.7hPa | 2.5V | 03:28:39 | 01:49:58 | 00:00:00 | |
| DK5PH-5 | 2026-09-01 18:19:41 | 49.72927 | 8.30157 | 85° | 29km/h | 18020m | -20.2m/s | -51.5°C | 3.7% | 79.7hPa | 2.5V | 00:00:00 | 01:49:58 | 00:00:00 | |
| SSTOLZ84 | 2026-09-01 18:19:40 | 49.72926 | 8.30141 | 76° | 20km/h | 18060m | -20.3m/s | -51.7°C | 1.4% | 79.2hPa | 2.5V | 00:00:00 | 00:00:00 | 00:00:00 | |
| DL1XH1-15 | 2026-09-01 18:19:39 | 49.72924 | 8.30133 | 71° | 22km/h | 18080m | -20.2m/s | -51.8°C | 3.8% | 79hPa | 2.6V | 03:28:23 | 01:49:55 | 00:00:00 | |
| CB1BUN | 2026-09-01 18:19:39 | 49.72926 | 8.30141 | 78° | 22km/h | 18060m | -20.3m/s | -51.7°C | 1.4% | 79.2hPa | 2.5V | 03:28:00 | 00:00:00 | 00:00:00 | |
| DM0DOS-11 | 2026-09-01 18:19:38 | 49.72913 | 8.30087 | 68° | 22km/h | 18197m | -19.6m/s | -52.5°C | 4.1% | 77.5hPa | 2.5V | 03:28:29 | 01:49:49 | 00:00:00 | |
| BIOWL1-15 | 2026-09-01 18:19:35 | 49.72919 | 8.30110 | 68° | 22km/h | 18140m | -19.5m/s | -52.2°C | 1% | 78.3hPa | 2.6V | 03:28:39 | 01:49:52 | 00:00:00 | |
| DL1XH-west | 2026-09-01 18:19:31 | 49.72912 | 8.30079 | 78° | 22km/h | 18217m | -19.8m/s | -52.6°C | 1.1% | 77.3hPa | 2.5V | 03:28:39 | 01:49:48 | 00:00:00 | |
| DJ2DS-15 | 2026-09-01 18:19:30 | 49.72910 | 8.30060 | 80° | 26km/h | 18257m | -19.8m/s | -52.9°C | 1.5% | 76.8hPa | 2.6V | 00:00:00 | 00:00:00 | 00:00:00 | |
| DJ2DS-15 | 2026-09-01 18:19:29 | 49.72910 | 8.30060 | 81° | 33km/h | 18257m | -19.7m/s | -52.9°C | 4.2% | 76.8hPa | 2.6V | 00:00:00 | 01:49:46 | 00:00:00 | |
| DO3DL | 2026-09-01 18:19:28 | 49.72910 | 8.30060 | 81° | 26km/h | 18257m | -19.8m/s | -52.9°C | 1.5% | 76.8hPa | 2.6V | 03:28:00 | 00:00:00 | 00:00:00 | |
| DM0DOS-11 | 2026-09-01 18:19:27 | 49.72914 | 8.29970 | 97° | 40km/h | 18399m | -20.1m/s | -53.6°C | 4.5% | 75.1hPa | 2.6V | 03:28:39 | 01:49:39 | 00:00:00 | |
| BIOWL1-15 | 2026-09-01 18:19:24 | 49.72911 | 8.30000 | 100° | 38km/h | 18357m | -21.2m/s | -53.6°C | 1.3% | 75.7hPa | 2.5V | 03:28:39 | 01:49:41 | 00:00:00 | |
| DL1XH-west | 2026-09-01 18:19:20 | 49.72917 | 8.29940 | 101° | 40km/h | 18439m | -20.5m/s | -53.3°C | 1.3% | 74.7hPa | 2.5V | 03:29:30 | 01:49:37 | 00:00:00 | |
| BIOWL9-15 | 2026-09-01 18:19:19 | 49.72919 | 8.29925 | 102° | 38km/h | 18459m | -20.6m/s | -53.0°C | 1.6% | 74.5hPa | 2.5V | 00:00:00 | 00:00:00 | 00:00:00 | |
| SONCRA | 2026-09-01 18:19:18 | 49.72921 | 8.29911 | 103° | 37km/h | 18479m | -20.8m/s | -52.6°C | 1.5% | 74.2hPa | 2.5V | 00:00:00 | 00:00:00 | 00:00:00 | |
| DM0DOS-11 | 2026-09-01 18:19:17 | 49.72933 | 8.29839 | 100° | 24km/h | 18603m | -20.9m/s | -52.2°C | 4% | 72.8hPa | 2.5V | 03:28:49 | 01:49:29 | 00:00:00 | |
| BIOWL1-15 | 2026-09-01 18:19:13 | 49.72931 | 8.29849 | 106° | 27km/h | 18582m | -20.7m/s | -52.3°C | 1.1% | 73.1hPa | 2.5V | 03:29:30 | 01:49:30 | 00:00:00 | |
| DL1XH-west | 2026-09-01 18:19:09 | 49.72935 | 8.29813 | 95° | 20km/h | 18666m | -20.3m/s | -52.3°C | 1.1% | 72.2hPa | 2.6V | 03:29:30 | 01:49:26 | 00:00:00 | |
| BIOWL1-15 | 2026-09-01 18:19:07 | 49.72936 | 8.29770 | 87° | 16km/h | 18784m | -20.5m/s | -52.4°C | 1.1% | 70.8hPa | 2.6V | 03:29:30 | 01:49:20 | 00:00:00 | |
| DM0DOS-11 | 2026-09-01 18:19:07 | 49.72935 | 8.29763 | 88° | 16km/h | 18805m | -20.4m/s | -52.3°C | 4% | 70.6hPa | 2.7V | 03:28:59 | 01:49:19 | 00:00:00 | |
| DL4BBY-15 | 2026-09-01 18:19:07 | 49.72936 | 8.29797 | 92° | 33km/h | 18706m | -19.8m/s | -52.5°C | 0% | 0hPa | 2.5V | 00:00:00 | 00:00:00 | 00:00:00 | |
| DO3MHA-11 | 2026-09-01 18:19:06 | 49.72936 | 8.29790 | 91° | 18km/h | 18725m | -20.1m/s | -52.2°C | 4.0% | 71.4hPa | 2.5V | 00:00:00 | 01:49:23 | 00:00:00 | |
| DB0ND-19 | 2026-09-01 18:19:05 | 49.72936 | 8.29783 | 88° | 18km/h | 18744m | -20.2m/s | -52.3°C | 1.4% | 71.3hPa | 2.5V | 00:00:00 | 00:00:00 | 00:00:00 | |
| DL9PN | 2026-09-01 18:19:04 | 49.72936 | 8.29776 | 93° | 16km/h | 18764m | -20.4m/s | -52.4°C | 1.4% | 71.0hPa | 2.5V | 00:00:00 | 00:00:00 | 00:00:00 | |
| DL1XH1-15 | 2026-09-01 18:19:03 | 49.72932 | 8.29742 | 63° | 13km/h | 18886m | -21.2m/s | -52°C | 3.9% | 69.7hPa | 2.5V | 03:29:03 | 01:49:15 | 00:00:00 | |
| DL1XH-west | 2026-09-01 18:18:59 | 49.72933 | 8.29747 | 71° | 15km/h | 18866m | -21.3m/s | -52.1°C | 1% | 69.9hPa | 2.5V | 03:29:30 | 01:49:16 | 00:00:00 | |
| BIOWL1-15 | 2026-09-01 18:18:53 | 49.72921 | 8.29719 | 45° | 16km/h | 18994m | -21.1m/s | -52.2°C | 1% | 68.6hPa | 2.6V | 03:29:30 | 01:49:10 | 00:00:00 | |
| DN1GJH-1 | 2026-09-01 18:18:52 | 49.72918 | 8.29715 | 44° | 16km/h | 19015m | -21.1m/s | -52.4°C | 1.4% | 68.4hPa | 2.6V | 03:29:00 | 00:00:00 | 00:00:00 | |
| DL0LBS | 2026-09-01 18:18:51 | 49.72918 | 8.29715 | 44° | 16km/h | 19015m | -21.1m/s | -52.4°C | 1.4% | 68.4hPa | 2.6V | 03:29:00 | 00:00:00 | 00:00:00 | |
| DL1XH1-15 | 2026-09-01 18:18:50 | 49.72903 | 8.29692 | 51° | 24km/h | 19098m | -20.9m/s | -52.7°C | 4% | 67.5hPa | 2.6V | 03:29:13 | 01:49:05 | 00:00:00 | |
| DL1XH-west | 2026-09-01 18:18:48 | 49.72903 | 8.29692 | 51° | 24km/h | 19098m | -20.9m/s | -52.7°C | 1.1% | 67.5hPa | 2.6V | 03:29:30 | 01:49:05 | 00:00:00 | |
| HSKMA3-T | 2026-09-01 18:18:46 | 49.72895 | 8.29675 | 53° | 27km/h | 19140m | -21m/s | -52.9°C | 1.1% | 67hPa | 2.6V | 03:29:30 | 01:49:03 | 00:00:00 | |
| DM0DOS-11 | 2026-09-01 18:18:45 | 49.72871 | 8.29605 | 68° | 38km/h | 19269m | -22.3m/s | -53.5°C | 4.4% | 65.7hPa | 2.5V | 03:29:21 | 01:48:57 | 00:00:00 | |
| BIOWL1-15 | 2026-09-01 18:18:42 | 49.72879 | 8.29632 | 64° | 35km/h | 19226m | -21.8m/s | -53.3°C | 1.3% | 66.1hPa | 2.6V | 03:29:30 | 01:48:59 | 00:00:00 | |
| DO3MHA-11 | 2026-09-01 18:18:42 | 49.72879 | 8.29632 | 65° | 40km/h | 19226m | -21.8m/s | -53.2°C | 4.3% | 66.1hPa | 2.5V | 03:29:00 | 01:48:59 | 00:00:00 | |
| DK5PH-5 | 2026-09-01 18:18:41 | 49.72875 | 8.29619 | 68° | 35km/h | 19248m | -22.0m/s | -53.3°C | 4.3% | 65.8hPa | 2.5V | 00:00:00 | 01:48:58 | 00:00:00 | |
| SFWM-10 | 2026-09-01 18:18:40 | 49.72875 | 8.29619 | 68° | 38km/h | 19248m | -22.0m/s | -53.4°C | 1.5% | 65.9hPa | 2.5V | 03:29:00 | 00:00:00 | 00:00:00 | |
| DL1XH1-15 | 2026-09-01 18:18:38 | 49.72865 | 8.29575 | 73° | 42km/h | 19313m | -22.5m/s | -53.4°C | 4.4% | 65.3hPa | 2.5V | 03:29:23 | 01:48:55 | 00:00:00 | |
| DL1XH-west | 2026-09-01 18:18:37 | 49.72862 | 8.29560 | 76° | 42km/h | 19336m | -22.2m/s | -53.3°C | 1.3% | 65hPa | 2.6V | 03:29:30 | 01:48:54 | 00:00:00 | |
| HSKMA3-T | 2026-09-01 18:18:36 | 49.72860 | 8.29544 | 77° | 42km/h | 19358m | -22m/s | -53.3°C | 1.3% | 64.8hPa | 2.6V | 03:29:30 | 01:48:53 | 00:00:00 | |
| BIOWL1-15 | 2026-09-01 18:18:32 | 49.72853 | 8.29483 | 83° | 38km/h | 19445m | -21.7m/s | -53.4°C | 1.3% | 63.9hPa | 2.6V | 03:29:30 | 01:48:49 | 00:00:00 | |
| DL1XH-west | 2026-09-01 18:18:26 | 49.72851 | 8.29403 | 91° | 31km/h | 19575m | -22.8m/s | -53.2°C | 1.3% | 62.6hPa | 2.5V | 03:30:21 | 01:48:43 | 00:00:00 | |
| DL4BBY-15 | 2026-09-01 18:18:26 | 49.72850 | 8.29403 | 91° | 31km/h | 19576m | -22.8m/s | -53.6°C | 0% | 0hPa | 2.5V | 00:00:00 | 00:00:00 | 00:00:00 | |
| DM0DOS-11 | 2026-09-01 18:18:25 | 49.72849 | 8.29336 | 82° | 26km/h | 19713m | -22.5m/s | -52.7°C | 4.3% | 61.4hPa | 2.5V | 03:29:41 | 01:48:37 | 00:00:00 | |
| DF7PN | 2026-09-01 18:18:25 | 49.72851 | 8.29379 | 88° | 27km/h | 19622m | -22.8m/s | -52.9°C | 1.5% | 62.2hPa | 2.6V | 00:00:00 | 00:00:00 | 00:00:00 | |
| AU51GT2 | 2026-09-01 18:18:24 | 49.72851 | 8.29379 | 88° | 27km/h | 19622m | -22.8m/s | -52.9°C | 1.5% | 62.2hPa | 2.6V | 00:00:00 | 00:00:00 | 00:00:00 | |
| HSKMA3-T | 2026-09-01 18:18:24 | 49.72851 | 8.29379 | 88° | 29km/h | 19622m | -22.8m/s | -52.9°C | 1.3% | 62.2hPa | 2.6V | 03:32:03 | 01:48:41 | 00:00:00 | |
| DO3DL | 2026-09-01 18:18:23 | 49.72851 | 8.29379 | 89° | 29km/h | 19622m | -22.8m/s | -52.9°C | 1.5% | 62.2hPa | 2.6V | 03:30:00 | 00:00:00 | 00:00:00 | |
| DB0UT-9 | 2026-09-01 18:18:22 | 49.72850 | 8.29358 | 84° | 27km/h | 19667m | -22.9m/s | -52.8°C | 1.5% | 61.8hPa | 2.6V | 03:30:00 | 00:00:00 | 00:00:00 | |
| BIOWL1-15 | 2026-09-01 18:18:21 | 49.72850 | 8.29347 | 83° | 27km/h | 19690m | -22.8m/s | -52.8°C | 1.3% | 61.5hPa | 2.5V | 03:30:21 | 01:48:38 | 00:00:00 | |
| DL1XH1-15 | 2026-09-01 18:18:20 | 49.72848 | 8.29315 | 84° | 27km/h | 19758m | -22.3m/s | -52.4°C | 4.1% | 60.9hPa | 2.6V | 03:29:43 | 01:48:35 | 00:00:00 | |
| KANTATE | 2026-09-01 18:18:19 | 49.72849 | 8.29336 | 83° | 27km/h | 19713m | -22.5m/s | -52.7°C | 1.5% | 61.4hPa | 2.5V | 00:00:00 | 00:00:00 | 00:00:00 | |
| DJ2DS-15 | 2026-09-01 18:18:18 | 49.72847 | 8.29304 | 85° | 27km/h | 19781m | -22.5m/s | -52.3°C | 1.4% | 60.7hPa | 2.5V | 00:00:00 | 00:00:00 | 00:00:00 | |
| NBG1-10 | 2026-09-01 18:18:17 | 49.72847 | 8.29304 | 86° | 26km/h | 19781m | -22.5m/s | -52.3°C | 4.1% | 60.7hPa | 2.5V | 00:00:00 | 01:48:34 | 00:00:00 | |
| SONCRA | 2026-09-01 18:18:16 | 49.72847 | 8.29293 | 88° | 29km/h | 19804m | -22.4m/s | -52.3°C | 1.4% | 60.5hPa | 2.5V | 00:00:00 | 00:00:00 | 00:00:00 | |
| DM0DOS-11 | 2026-09-01 18:18:15 | 49.72852 | 8.29215 | 99° | 35km/h | 19942m | -23.6m/s | -52.5°C | 4.2% | 59.2hPa | 2.5V | 03:29:51 | 01:48:27 | 00:00:00 | |
| DL1XH-west | 2026-09-01 18:18:15 | 49.72847 | 8.29281 | 90° | 31km/h | 19826m | -22.5m/s | -52.4°C | 1.2% | 60.3hPa | 2.5V | 03:30:21 | 01:48:32 | 00:00:00 | |
| HSKMA3-T | 2026-09-01 18:18:13 | 49.72849 | 8.29255 | 96° | 35km/h | 19872m | -23.1m/s | -52.5°C | 1.2% | 59.9hPa | 2.5V | 03:32:03 | 01:48:30 | 00:00:00 | |
| BIOWL1-15 | 2026-09-01 18:18:10 | 49.72852 | 8.29215 | 100° | 35km/h | 19942m | -23.6m/s | -52.5°C | 1.2% | 59.2hPa | 2.5V | 03:30:21 | 01:48:27 | 00:00:00 | |
| DL1XH-west | 2026-09-01 18:18:04 | 49.72865 | 8.29137 | 110° | 33km/h | 20083m | -23m/s | -51.9°C | 1.1% | 58hPa | 2.6V | 03:30:21 | 01:48:21 | 00:00:00 | |
| HSKMA3-T | 2026-09-01 18:18:02 | 49.72872 | 8.29114 | 116° | 35km/h | 20130m | -22.8m/s | -52.1°C | 1.1% | 57.5hPa | 2.7V | 03:32:03 | 01:48:19 | 00:00:00 | |
| BIOWL1-15 | 2026-09-01 18:18:02 | 49.72879 | 8.29091 | 121° | 33km/h | 20175m | -23.5m/s | -52.2°C | 1.2% | 57.1hPa | 2.6V | 03:30:21 | 01:48:17 | 00:00:00 | |
| DL1XH-west | 2026-09-01 18:17:53 | 49.72907 | 8.29038 | 143° | 15km/h | 20344m | -23.4m/s | -51.9°C | 1.1% | 55.7hPa | 2.6V | 03:30:21 | 01:48:10 | 00:00:00 | |
| BIOWL1-15 | 2026-09-01 18:17:50 | 49.72913 | 8.29029 | 128° | 9km/h | 20415m | -22.9m/s | -52.2°C | 1.1% | 55.1hPa | 2.6V | 03:30:21 | 01:48:07 | 00:00:00 | |
| DL3AQ-11 | 2026-09-01 18:17:50 | 49.72919 | 8.29006 | 101° | 18km/h | 20530m | -23.3m/s | -52.2°C | 1.4% | 54.1hPa | 2.5V | 00:00:00 | 00:00:00 | 00:00:00 | |
| DM0DOS-11 | 2026-09-01 18:17:49 | 49.72919 | 8.28998 | 100° | 20km/h | 20554m | -23.6m/s | -52.2°C | 4.1% | 53.9hPa | 2.5V | 03:30:17 | 01:48:01 | 00:00:00 | |
| BIOWL9-15 | 2026-09-01 18:17:46 | 49.72918 | 8.29012 | 103° | 15km/h | 20507m | -23.3m/s | -52.3°C | 1.4% | 54.3hPa | 2.6V | 00:00:00 | 00:00:00 | 00:00:00 | |
| SONCRA | 2026-09-01 18:17:45 | 49.72919 | 8.29006 | 101° | 18km/h | 20530m | -23.3m/s | -52.2°C | 1.4% | 54.1hPa | 2.6V | 00:00:00 | 00:00:00 | 00:00:00 | |
| DL1XH-west | 2026-09-01 18:17:43 | 49.72921 | 8.28991 | 103° | 22km/h | 20577m | -23.7m/s | -52.3°C | 1.1% | 53.7hPa | 2.6V | 03:30:21 | 01:48:00 | 00:00:00 | |
| DF3TZ-5 | 2026-09-01 18:17:43 | 49.72922 | 8.28982 | 101° | 22km/h | 20601m | -24.3m/s | -52.4°C | 1.4% | 53.5hPa | 2.6V | 00:00:00 | 00:00:00 | 00:00:00 | |
| DO3MHA-11 | 2026-09-01 18:17:42 | 49.72921 | 8.28982 | 102° | 20km/h | 20601m | -24.2m/s | -52.4°C | 4.2% | 53.5hPa | 2.6V | 03:30:00 | 01:47:59 | 00:00:00 | |
| DK5PH-5 | 2026-09-01 18:17:41 | 49.72923 | 8.28974 | 101° | 13km/h | 20625m | -24.6m/s | -52.4°C | 4.2% | 53.3hPa | 2.6V | 00:00:00 | 01:47:58 | 00:00:00 | |
| DB0UT-7 | 2026-09-01 18:17:40 | 49.72923 | 8.28966 | 104° | 11km/h | 20649m | -24.4m/s | -52.5°C | 4.3% | 53.1hPa | 2.5V | 00:00:00 | 00:00:00 | 00:00:00 | |
| DM0DOS-11 | 2026-09-01 18:17:39 | 49.72929 | 8.28922 | 97° | 18km/h | 20796m | -23.8m/s | -51.8°C | 4% | 52hPa | 2.5V | 03:30:27 | 01:47:51 | 00:00:00 | |
| DL1XH1-15 | 2026-09-01 18:17:39 | 49.72926 | 8.28950 | 102° | 20km/h | 20698m | -24.7m/s | -52.2°C | 4.2% | 52.8hPa | 2.6V | 03:30:23 | 01:47:55 | 00:00:00 | |
| BIOWL1-15 | 2026-09-01 18:17:39 | 49.72925 | 8.28958 | 103° | 20km/h | 20673m | -24.7m/s | -52.5°C | 1.2% | 52.9hPa | 2.5V | 03:31:12 | 01:47:56 | 00:00:00 | |
| HSKMA3-T | 2026-09-01 18:17:38 | 49.72926 | 8.28950 | 102° | 20km/h | 20698m | -24.7m/s | -52.2°C | 1.2% | 52.8hPa | 2.6V | 03:32:03 | 01:47:55 | 00:00:00 | |
| DD1CC2-15 | 2026-09-01 18:17:36 | 49.72927 | 8.28942 | 100° | 18km/h | 20723m | -24.6m/s | -51.9°C | 1.4% | 52.5hPa | 2.6V | 03:31:00 | 00:00:00 | 00:00:00 | |
| CB1BUN | 2026-09-01 18:17:35 | 49.72927 | 8.28935 | 99° | 18km/h | 20748m | -24.3m/s | -51.7°C | 1.4% | 52.3hPa | 2.6V | 03:31:00 | 00:00:00 | 00:00:00 | |
| DL1XH1-15 | 2026-09-01 18:17:33 | 49.72935 | 8.28881 | 100° | 16km/h | 20939m | -24.8m/s | -52.2°C | 4.1% | 50.8hPa | 2.6V | 03:30:33 | 01:47:45 | 00:00:00 | |
| DL1XH-west | 2026-09-01 18:17:33 | 49.72929 | 8.28915 | 99° | 18km/h | 20819m | -23.8m/s | -52°C | 1.1% | 51.8hPa | 2.5V | 03:31:12 | 01:47:50 | 00:00:00 | |
| BIOWL1-15 | 2026-09-01 18:17:30 | 49.72935 | 8.28881 | 101° | 16km/h | 20939m | -24.8m/s | -52.2°C | 1.2% | 50.8hPa | 2.6V | 03:31:12 | 01:47:45 | 00:00:00 | |
| DL1XH-west | 2026-09-01 18:17:22 | 49.72936 | 8.28859 | 15° | 4km/h | 21088m | -24.6m/s | -52°C | 1.1% | 49.7hPa | 2.6V | 03:31:12 | 01:47:39 | 00:00:00 | |
| DM3KS-11 | 2026-09-01 18:17:22 | 49.72935 | 8.28858 | 355° | 4km/h | 21113m | -24.5m/s | -52.0°C | 1.4% | 49.4hPa | 2.7V | 00:00:00 | 00:00:00 | 00:00:00 | |
| DL1XH1-15 | 2026-09-01 18:17:21 | 49.72932 | 8.28861 | 333° | 5km/h | 21187m | -24.6m/s | -51.8°C | 4% | 48.9hPa | 2.6V | 03:30:43 | 01:47:35 | 00:00:00 | |
| DL8OAI-8 | 2026-09-01 18:17:18 | 49.72933 | 8.28860 | 331° | 5km/h | 21162m | -24.7m/s | -52.0°C | 1.4% | 49.0hPa | 2.7V | 00:00:00 | 00:00:00 | 00:00:00 | |
| DM0DOS-11 | 2026-09-01 18:17:17 | 49.72927 | 8.28859 | 65° | 2km/h | 21338m | -25.6m/s | -51.8°C | 3.9% | 47.8hPa | 2.7V | 03:30:49 | 01:47:29 | 00:00:00 | |
| BIOWL1-15 | 2026-09-01 18:17:17 | 49.72931 | 8.28862 | 335° | 5km/h | 21212m | -24.6m/s | -51.5°C | 1% | 48.7hPa | 2.6V | 03:31:12 | 01:47:34 | 00:00:00 | |
| DL1XH-west | 2026-09-01 18:17:11 | 49.72927 | 8.28858 | 81° | 2km/h | 21363m | -25.4m/s | -51.8°C | 1.1% | 47.6hPa | 2.6V | 03:31:12 | 01:47:28 | 00:00:00 | |
| DK5PH-5 | 2026-09-01 18:17:11 | 49.72927 | 8.28858 | 82° | 11km/h | 21363m | -25.3m/s | -51.8°C | 3.9% | 47.5hPa | 2.5V | 03:30:00 | 01:47:28 | 00:00:00 | |
| HEMX73-11 | 2026-09-01 18:17:10 | 49.72927 | 8.28858 | 82° | 2km/h | 21363m | -25.4m/s | -51.8°C | 1.3% | 47.6hPa | 2.5V | 03:31:00 | 00:00:00 | 00:00:00 | |
| DL1XH1-15 | 2026-09-01 18:17:09 | 49.72927 | 8.28855 | 93° | 4km/h | 21437m | -25.5m/s | -51.9°C | 3.9% | 47hPa | 2.5V | 03:30:53 | 01:47:25 | 00:00:00 | |
| DJ2DS-15 | 2026-09-01 18:17:09 | 49.72927 | 8.28856 | 100° | 13km/h | 21413m | -25.2m/s | -51.8°C | 3.9% | 47.2hPa | 2.5V | 03:30:00 | 01:47:26 | 00:00:00 | |
| DL0LBS | 2026-09-01 18:17:08 | 49.72927 | 8.28856 | 101° | 2km/h | 21413m | -25.2m/s | -51.8°C | 1.3% | 47.2hPa | 2.5V | 03:31:00 | 00:00:00 | 00:00:00 | |
| DM0DOS-11 | 2026-09-01 18:17:07 | 49.72925 | 8.28837 | 80° | 11km/h | 21589m | -26.5m/s | -51.8°C | 3.8% | 45.9hPa | 2.5V | 03:30:59 | 01:47:19 | 00:00:00 | |
| BIOWL1-15 | 2026-09-01 18:17:07 | 49.72927 | 8.28853 | 99° | 5km/h | 21462m | -25.4m/s | -51.9°C | 1% | 46.8hPa | 2.5V | 03:31:12 | 01:47:24 | 00:00:00 | |
| HSKMA3-T | 2026-09-01 18:17:06 | 49.72927 | 8.28851 | 90° | 7km/h | 21487m | -25.5m/s | -51.8°C | 1.1% | 46.7hPa | 2.6V | 03:32:03 | 01:47:23 | 00:00:00 | |
| DO3DL | 2026-09-01 18:17:05 | 49.72927 | 8.28851 | 91° | 7km/h | 21487m | -25.5m/s | -51.8°C | 1.3% | 46.7hPa | 2.6V | 03:31:00 | 00:00:00 | 00:00:00 | |
| SSTOLZ84 | 2026-09-01 18:17:04 | 49.72926 | 8.28845 | 80° | 9km/h | 21537m | -26.0m/s | -51.7°C | 1.3% | 46.3hPa | 2.6V | 00:00:00 | 00:00:00 | 00:00:00 | |
| DL1XH1-15 | 2026-09-01 18:17:03 | 49.72921 | 8.28820 | 55° | 11km/h | 21695m | -25.6m/s | -52.4°C | 3.9% | 45.2hPa | 2.6V | 03:31:03 | 01:47:15 | 00:00:00 | |
| DL1XH-west | 2026-09-01 18:17:00 | 49.72923 | 8.28829 | 63° | 13km/h | 21642m | -26.6m/s | -52.1°C | 1% | 45.5hPa | 2.5V | 03:31:12 | 01:47:17 | 00:00:00 | |
| BIOWL1-15 | 2026-09-01 18:16:56 | 49.72918 | 8.28811 | 65° | 15km/h | 21747m | -25.6m/s | -52.6°C | 1.2% | 44.8hPa | 2.6V | 03:31:12 | 01:47:13 | 00:00:00 | |
| DL8DAS-14 | 2026-09-01 18:16:54 | 49.72915 | 8.28799 | 67° | 18km/h | 21798m | -25.8m/s | -52.8°C | 1.4% | 44.5hPa | 2.5V | 00:00:00 | 00:00:00 | 00:00:00 | |
| DO3MHA-11 | 2026-09-01 18:16:52 | 49.72911 | 8.28785 | 79° | 15km/h | 21849m | -26.5m/s | -53.0°C | 4.2% | 44.0hPa | 2.5V | 00:00:00 | 01:47:09 | 00:00:00 | |
| DL1XH1-15 | 2026-09-01 18:16:51 | 49.72908 | 8.28753 | 86° | 18km/h | 21955m | -27.2m/s | -52.9°C | 4.2% | 43.4hPa | 2.5V | 03:31:13 | 01:47:05 | 00:00:00 | |
| DL1XH-west | 2026-09-01 18:16:50 | 49.72909 | 8.28767 | 81° | 22km/h | 21902m | -27m/s | -53°C | 1.3% | 43.7hPa | 2.5V | 03:31:12 | 01:47:07 | 00:00:00 | |
| BIOWL1-15 | 2026-09-01 18:16:45 | 49.72906 | 8.28738 | 86° | 7km/h | 22036m | -26.1m/s | -52.8°C | 1.2% | 42.8hPa | 2.6V | 03:32:03 | 01:47:02 | 00:00:00 | |
| DM0DOS-11 | 2026-09-01 18:16:44 | 49.72908 | 8.28730 | 23° | 2km/h | 22193m | -27.2m/s | -53.1°C | 4.2% | 41.8hPa | 2.5V | 03:31:22 | 01:46:56 | 00:00:00 | |
| DL1XH-west | 2026-09-01 18:16:39 | 49.72908 | 8.28729 | 23° | 2km/h | 22193m | -27.2m/s | -53.1°C | 1.3% | 41.8hPa | 2.5V | 03:32:03 | 01:46:56 | 00:00:00 | |
| BIOWL1-15 | 2026-09-01 18:16:36 | 49.72905 | 8.28729 | 23° | 2km/h | 22330m | -27.1m/s | -53.4°C | 1.4% | 40.9hPa | 2.6V | 03:32:03 | 01:46:51 | 00:00:00 | |
| DB0UT-9 | 2026-09-01 18:16:35 | 49.72906 | 8.28730 | 356° | 2km/h | 22275m | -27.6m/s | -53.5°C | 1.5% | 41.3hPa | 2.6V | 03:32:00 | 00:00:00 | 00:00:00 | |
| DM0DOS-11 | 2026-09-01 18:16:34 | 49.72903 | 8.28724 | 77° | 5km/h | 22464m | -27.2m/s | -53.2°C | 4.3% | 40.1hPa | 2.6V | 03:31:32 | 01:46:46 | 00:00:00 | |
| DL1XH-west | 2026-09-01 18:16:28 | 49.72903 | 8.28722 | 78° | 7km/h | 22491m | -27.6m/s | -53.2°C | 1.3% | 39.9hPa | 2.5V | 03:32:03 | 01:46:45 | 00:00:00 | |
| BIOWL1-15 | 2026-09-01 18:16:25 | 49.72899 | 8.28703 | 67° | 11km/h | 22630m | -28.2m/s | -53.2°C | 1.4% | 39hPa | 2.6V | 03:32:03 | 01:46:40 | 00:00:00 | |
| DJ2KF-10 | 2026-09-01 18:16:25 | 49.72901 | 8.28710 | 66° | 7km/h | 22574m | -28.2m/s | -53.2°C | 4.4% | 39.3hPa | 2.6V | 00:00:00 | 01:46:42 | 00:00:00 | |
| DL8DAS-14 | 2026-09-01 18:16:23 | 49.72899 | 8.28703 | 66° | 9km/h | 22630m | -28.2m/s | -53.2°C | 1.5% | 39.0hPa | 2.6V | 00:00:00 | 00:00:00 | 00:00:00 | |
| DL1XH1-15 | 2026-09-01 18:16:22 | 49.72900 | 8.28687 | 130° | 9km/h | 22770m | -27.6m/s | -52.8°C | 4.3% | 38.2hPa | 2.6V | 03:31:43 | 01:46:35 | 00:00:00 | |
| DL1XH-west | 2026-09-01 18:16:17 | 49.72901 | 8.28685 | 147° | 9km/h | 22797m | -27.6m/s | -52.7°C | 1.3% | 38hPa | 2.6V | 03:32:03 | 01:46:34 | 00:00:00 | |
| HSKMA3-T | 2026-09-01 18:16:15 | 49.72906 | 8.28682 | 161° | 11km/h | 22852m | -28.1m/s | -52.8°C | 1.3% | 37.7hPa | 2.5V | 03:32:03 | 01:46:32 | 00:00:00 | |
| BIOWL1-15 | 2026-09-01 18:16:13 | 49.72912 | 8.28680 | 179° | 11km/h | 22908m | -28.4m/s | -52.7°C | 1.3% | 37.4hPa | 2.6V | 03:32:03 | 01:46:30 | 00:00:00 | |
| BIOWL9-15 | 2026-09-01 18:16:13 | 49.72912 | 8.28680 | 179° | 9km/h | 22908m | -28.4m/s | -52.7°C | 1.4% | 37.4hPa | 2.6V | 00:00:00 | 00:00:00 | 00:00:00 | |
| DO3MHA-11 | 2026-09-01 18:16:12 | 49.72914 | 8.28680 | 186° | 9km/h | 22936m | -28.9m/s | -52.5°C | 4.3% | 37.2hPa | 2.6V | 00:00:00 | 01:46:29 | 00:00:00 | |
| DL1XH1-15 | 2026-09-01 18:16:11 | 49.72920 | 8.28683 | 274° | 5km/h | 23051m | -28.4m/s | -52.9°C | 4.4% | 36.6hPa | 2.6V | 03:31:53 | 01:46:25 | 00:00:00 | |
| DL1XH-west | 2026-09-01 18:16:07 | 49.72920 | 8.28686 | 306° | 7km/h | 23079m | -28.4m/s | -52.8°C | 1.4% | 36.4hPa | 2.7V | 03:32:03 | 01:46:24 | 00:00:00 | |
| DL3AQ-11 | 2026-09-01 18:16:06 | 49.72917 | 8.28690 | 334° | 9km/h | 23137m | -28.5m/s | -52.4°C | 1.4% | 36.1hPa | 2.5V | 00:00:00 | 00:00:00 | 00:00:00 | |
| DM0DOS-11 | 2026-09-01 18:16:04 | 49.72909 | 8.28692 | 99° | 2km/h | 23310m | -30.2m/s | -52.1°C | 4.2% | 35.1hPa | 2.5V | 03:32:02 | 01:46:16 | 00:00:00 | |
| HSKMA3-T | 2026-09-01 18:16:04 | 49.72915 | 8.28691 | 337° | 9km/h | 23166m | -28.5m/s | -52.5°C | 1.3% | 36hPa | 2.5V | 03:32:03 | 01:46:21 | 00:00:00 | |
| BIOWL1-15 | 2026-09-01 18:16:02 | 49.72911 | 8.28694 | 351° | 7km/h | 23222m | -28.8m/s | -52.4°C | 1.3% | 35.6hPa | 2.5V | 03:32:03 | 01:46:19 | 00:00:00 | |
| DL1XH-west | 2026-09-01 18:15:57 | 49.72910 | 8.28690 | 172° | 4km/h | 23370m | -29.5m/s | -52°C | 1.3% | 34.8hPa | 2.6V | 03:32:54 | 01:46:14 | 00:00:00 | |
| HSKMA3-T | 2026-09-01 18:15:54 | 49.72913 | 8.28693 | 268° | 9km/h | 23458m | -29.3m/s | -51.7°C | 1.2% | 34.4hPa | 2.6V | 03:33:45 | 01:46:11 | 00:00:00 | |
| DL1XH1-15 | 2026-09-01 18:15:53 | 49.72908 | 8.28717 | 312° | 15km/h | 23634m | -30.3m/s | -51.4°C | 4.2% | 33.4hPa | 2.6V | 03:32:13 | 01:46:05 | 00:00:00 | |
| BIOWL1-15 | 2026-09-01 18:15:52 | 49.72912 | 8.28700 | 282° | 11km/h | 23516m | -29.3m/s | -51.7°C | 1.3% | 34hPa | 2.5V | 03:32:54 | 01:46:09 | 00:00:00 | |
| DB0UT-9 | 2026-09-01 18:15:52 | 49.72912 | 8.28700 | 283° | 11km/h | 23516m | -29.3m/s | -51.7°C | 1.4% | 34.0hPa | 2.5V | 00:00:00 | 00:00:00 | 00:00:00 | |
| DM0DOS-11 | 2026-09-01 18:15:51 | 49.72902 | 8.28725 | 325° | 16km/h | 23694m | -30.1m/s | -51°C | 3.9% | 33.1hPa | 2.5V | 03:32:15 | 01:46:03 | 00:00:00 | |
| DL1XH-west | 2026-09-01 18:15:47 | 49.72905 | 8.28721 | 318° | 16km/h | 23664m | -30.2m/s | -51.2°C | 1.1% | 33.3hPa | 2.6V | 03:32:54 | 01:46:04 | 00:00:00 | |
| HSKMA3-T | 2026-09-01 18:15:43 | 49.72889 | 8.28734 | 340° | 20km/h | 23784m | -30.1m/s | -51.1°C | 1.1% | 32.7hPa | 2.7V | 03:33:45 | 01:46:00 | 00:00:00 | |
| DO3MHA-11 | 2026-09-01 18:15:42 | 49.72883 | 8.28737 | 342° | 20km/h | 23814m | -30.0m/s | -51.1°C | 4.0% | 32.4hPa | 2.6V | 03:32:00 | 01:45:59 | 00:00:00 | |
| DM0DOS-11 | 2026-09-01 18:15:41 | 49.72851 | 8.28749 | 352° | 18km/h | 23994m | -30.9m/s | -50.8°C | 4% | 31.6hPa | 2.6V | 03:32:25 | 01:45:53 | 00:00:00 | |
| BIOWL1-15 | 2026-09-01 18:15:41 | 49.72878 | 8.28740 | 345° | 22km/h | 23844m | -29.9m/s | -51.1°C | 1.1% | 32.4hPa | 2.5V | 03:32:54 | 01:45:58 | 00:00:00 | |
| DL1XH1-15 | 2026-09-01 18:15:41 | 49.72861 | 8.28746 | 342° | 22km/h | 23934m | -30.6m/s | -51.1°C | 4.1% | 31.9hPa | 2.7V | 03:32:23 | 01:45:55 | 00:00:00 | |
| DL1XH-west | 2026-09-01 18:15:36 | 49.72851 | 8.28749 | 352° | 18km/h | 23994m | -30.9m/s | -50.8°C | 1.1% | 31.6hPa | 2.6V | 03:32:54 | 01:45:53 | 00:00:00 | |
| HSKMA3-T | 2026-09-01 18:15:32 | 49.72832 | 8.28754 | 346° | 20km/h | 24119m | -31.2m/s | -50.4°C | 1% | 31.1hPa | 2.7V | 03:33:45 | 01:45:49 | 00:00:00 | |
| CB1BUN | 2026-09-01 18:15:32 | 49.72832 | 8.28754 | 347° | 20km/h | 24119m | -31.2m/s | -50.4°C | 1.3% | 31.1hPa | 2.7V | 03:32:00 | 00:00:00 | 00:00:00 | |
| DM0DOS-11 | 2026-09-01 18:15:31 | 49.72803 | 8.28756 | 20° | 20km/h | 24303m | -30.7m/s | -50.8°C | 4% | 30.2hPa | 2.7V | 03:32:35 | 01:45:43 | 00:00:00 | |
| BIOWL1-15 | 2026-09-01 18:15:30 | 49.72822 | 8.28757 | 351° | 20km/h | 24181m | -30.9m/s | -50.4°C | 1% | 30.8hPa | 2.5V | 03:32:54 | 01:45:47 | 00:00:00 | |
| DL1XH1-15 | 2026-09-01 18:15:28 | 49.72812 | 8.28758 | 0° | 20km/h | 24242m | -30.8m/s | -50.7°C | 3.9% | 30.5hPa | 2.6V | 03:32:33 | 01:45:45 | 00:00:00 | |
| DL1XH-west | 2026-09-01 18:15:25 | 49.72798 | 8.28753 | 29° | 22km/h | 24333m | -30.9m/s | -50.9°C | 1.2% | 30hPa | 2.6V | 03:32:54 | 01:45:42 | 00:00:00 | |
| HSKMA3-T | 2026-09-01 18:15:22 | 49.72785 | 8.28737 | 48° | 22km/h | 24427m | -32.2m/s | -51.1°C | 1.2% | 29.6hPa | 2.6V | 03:33:45 | 01:45:39 | 00:00:00 | |
| DO3MHA-11 | 2026-09-01 18:15:22 | 49.72785 | 8.28737 | 48° | 13km/h | 24428m | -32.2m/s | -51.0°C | 4.1% | 29.5hPa | 2.7V | 00:00:00 | 01:45:39 | 00:00:00 | |
| DM0DOS-11 | 2026-09-01 18:15:21 | 49.72771 | 8.28708 | 46° | 9km/h | 24619m | -31.6m/s | -50.1°C | 3.8% | 28.7hPa | 2.7V | 03:32:45 | 01:45:33 | 00:00:00 | |
| BIOWL1-15 | 2026-09-01 18:15:19 | 49.72777 | 8.28718 | 50° | 16km/h | 24524m | -31.7m/s | -50.7°C | 1.2% | 29.1hPa | 2.5V | 03:32:54 | 01:45:36 | 00:00:00 | |
| AU51GT2 | 2026-09-01 18:15:18 | 49.72775 | 8.28714 | 43° | 13km/h | 24556m | -31.7m/s | -50.5°C | 1.3% | 29.1hPa | 2.7V | 00:00:00 | 00:00:00 | 00:00:00 | |
| DM3KS-11 | 2026-09-01 18:15:17 | 49.72773 | 8.28710 | 37° | 11km/h | 24587m | -31.7m/s | -50.3°C | 1.3% | 28.9hPa | 2.7V | 00:00:00 | 00:00:00 | 00:00:00 | |
| DJTTGO | 2026-09-01 18:15:15 | 49.72769 | 8.28706 | 53° | 5km/h | 24650m | -31.7m/s | -50.1°C | 1.2% | 28.6hPa | 2.7V | 00:00:00 | 00:00:00 | 00:00:00 | |
| IW2NTF | 2026-09-01 18:15:14 | 49.72767 | 8.28703 | 279° | 0km/h | 24842m | -32.4m/s | 0°C | 0% | 0hPa | 2.7V | 03:32:52 | 01:45:26 | 00:00:00 | |
| DL1XH-west | 2026-09-01 18:15:14 | 49.72768 | 8.28705 | 12° | 4km/h | 24681m | -31.5m/s | -50.1°C | 1.1% | 28.4hPa | 2.6V | 03:32:54 | 01:45:31 | 00:00:00 | |
| DO3MHA-11 | 2026-09-01 18:15:12 | 49.72768 | 8.28703 | 106° | 2km/h | 24745m | -32.4m/s | -50.0°C | 3.9% | 28.1hPa | 2.5V | 00:00:00 | 01:45:29 | 00:00:00 | |
| DM0DOS-11 | 2026-09-01 18:15:11 | 49.72766 | 8.28704 | 337° | 4km/h | 24938m | -32.3m/s | -49.5°C | 3.7% | 27.4hPa | 2.5V | 03:32:55 | 01:45:23 | 00:00:00 | |
| BIOWL1-15 | 2026-09-01 18:15:08 | 49.72767 | 8.28703 | 338° | 2km/h | 24874m | -32.6m/s | -49.8°C | 1.1% | 27.6hPa | 2.7V | 03:32:54 | 01:45:25 | 00:00:00 | |
| HEMX73-11 | 2026-09-01 18:15:08 | 49.72767 | 8.28703 | 0° | 0km/h | 24874m | -32.6m/s | -49.8°C | 1.3% | 27.6hPa | 2.6V | 03:32:00 | 00:00:00 | 00:00:00 | |
| DL6DJ-15 | 2026-09-01 18:15:05 | 49.72761 | 8.28703 | 21° | 5km/h | 25066m | -32.6m/s | -49.7°C | 1.2% | 26.8hPa | 2.6V | 00:00:00 | 00:00:00 | 00:00:00 | |
| IW2NTF | 2026-09-01 18:15:04 | 49.72756 | 8.28697 | 47° | 11km/h | 25163m | -33.3m/s | 0°C | 0% | 0hPa | 2.6V | 00:00:00 | 01:45:16 | 00:00:00 | |
| DL1XH-west | 2026-09-01 18:15:03 | 49.72762 | 8.28704 | 28° | 5km/h | 25034m | -32.4m/s | -49.5°C | 0.9% | 27hPa | 2.6V | 03:33:45 | 01:45:20 | 00:00:00 | |
| DO3MHA-11 | 2026-09-01 18:15:02 | 49.72761 | 8.28703 | 22° | 11km/h | 25066m | -32.5m/s | -49.6°C | 3.7% | 26.8hPa | 2.6V | 03:32:00 | 01:45:19 | 00:00:00 | |
| DM0DOS-11 | 2026-09-01 18:15:01 | 49.72752 | 8.28685 | 66° | 15km/h | 25262m | -33.5m/s | -49.7°C | 3.7% | 26hPa | 2.6V | 03:33:05 | 01:45:13 | 00:00:00 | |
| SSTOLZ84 | 2026-09-01 18:15:00 | 49.72758 | 8.28700 | 41° | 7km/h | 25131m | -32.9m/s | -49.9°C | 1.3% | 26.6hPa | 2.7V | 00:00:00 | 00:00:00 | 00:00:00 | |
| DL1XH1-15 | 2026-09-01 18:14:58 | 49.72755 | 8.28694 | 55° | 11km/h | 25196m | -33.3m/s | -49.7°C | 3.7% | 26.3hPa | 2.7V | 03:33:03 | 01:45:15 | 00:00:00 | |
| HSKMA3-T | 2026-09-01 18:14:58 | 49.72755 | 8.28694 | 56° | 11km/h | 25196m | -33.3m/s | -49.7°C | 1% | 26.3hPa | 2.7V | 03:33:45 | 01:45:15 | 00:00:00 | |
| DL1XH-west | 2026-09-01 18:14:53 | 49.72748 | 8.28668 | 73° | 15km/h | 25361m | -32.9m/s | -49.7°C | 1% | 25.6hPa | 2.6V | 03:33:45 | 01:45:10 | 00:00:00 | |
| DL1XH1-15 | 2026-09-01 18:14:52 | 49.72739 | 8.28644 | 41° | 18km/h | 25521m | -30.6m/s | -49.8°C | 3.7% | 25hPa | 2.6V | 03:33:13 | 01:45:05 | 00:00:00 | |
| HSKMA3-T | 2026-09-01 18:14:47 | 49.72735 | 8.28640 | 27° | 20km/h | 25550m | -28.2m/s | -49.8°C | 1% | 24.8hPa | 2.7V | 03:33:45 | 01:45:04 | 00:00:00 | |
| AA1-15 | 2026-09-01 18:14:45 | 49.72725 | 8.28632 | 30° | 26km/h | 25600m | -22.1m/s | -49.7°C | 1% | 24.6hPa | 2.7V | 03:33:45 | 01:45:02 | 00:00:00 | |
| DL1XH-west | 2026-09-01 18:14:42 | 49.72708 | 8.28609 | 59° | 33km/h | 25661m | -20.2m/s | -49.7°C | 1.1% | 24.3hPa | 2.6V | 03:33:45 | 01:44:59 | 00:00:00 | |
| DO3MHA-11 | 2026-09-01 18:14:42 | 49.72708 | 8.28609 | 60° | 27km/h | 25661m | -20.2m/s | -49.6°C | 3.9% | 24.3hPa | 2.7V | 00:00:00 | 01:44:59 | 00:00:00 | |
| DM0DOS-11 | 2026-09-01 18:14:41 | 49.72692 | 8.28544 | 85° | 26km/h | 25782m | -20.1m/s | -49.6°C | 3.9% | 23.9hPa | 2.7V | 03:33:25 | 01:44:53 | 00:00:00 | |
| DK5PH-5 | 2026-09-01 18:14:41 | 49.72703 | 8.28599 | 61° | 26km/h | 25682m | -20.1m/s | -49.6°C | 3.9% | 24.2hPa | 2.7V | 00:00:00 | 01:44:58 | 00:00:00 | |
| DL1XH1-15 | 2026-09-01 18:14:40 | 49.72695 | 8.28565 | 73° | 29km/h | 25742m | -21.2m/s | -49.6°C | 3.9% | 24hPa | 2.6V | 03:33:23 | 01:44:55 | 00:00:00 | |
| BIOWL1-15 | 2026-09-01 18:14:39 | 49.72693 | 8.28544 | 85° | 26km/h | 25782m | -20.1m/s | -49.6°C | 1.1% | 23.9hPa | 2.7V | 03:33:45 | 01:44:53 | 00:00:00 | |
| HSKMA3-T | 2026-09-01 18:14:37 | 49.72694 | 8.28554 | 79° | 27km/h | 25763m | -19.6m/s | -49.7°C | 1% | 23.9hPa | 2.6V | 03:33:45 | 01:44:54 | 00:00:00 | |
| AA1-15 | 2026-09-01 18:14:35 | 49.72692 | 8.28536 | 87° | 20km/h | 25802m | -20.2m/s | -49.6°C | 1% | 23.8hPa | 2.7V | 03:33:45 | 01:44:52 | 00:00:00 | |
| DL6DJ-15 | 2026-09-01 18:14:34 | 49.72698 | 8.28515 | 130° | 18km/h | 25893m | -38.5m/s | -48.9°C | 1.2% | 23.7hPa | 2.5V | 00:00:00 | 00:00:00 | 00:00:00 | |
| SONDE2-11 | 2026-09-01 18:14:32 | 49.72701 | 8.28509 | 132° | 20km/h | 25929m | -35.2m/s | -49.0°C | 1.2% | 23.5hPa | 2.5V | 00:00:00 | 00:00:00 | 00:00:00 | |
| DM0DOS-11 | 2026-09-01 18:14:31 | 49.72721 | 8.28478 | 144° | 27km/h | 26092m | -36.9m/s | -48.7°C | 3.5% | 22.9hPa | 2.5V | 03:33:35 | 01:44:43 | 00:00:00 | |
| DL1XH-west | 2026-09-01 18:14:31 | 49.72701 | 8.28509 | 132° | 20km/h | 25929m | -35.2m/s | -49°C | 0.9% | 23.5hPa | 2.5V | 03:33:45 | 01:44:48 | 00:00:00 | |
| HSKMA3-T | 2026-09-01 18:14:26 | 49.72721 | 8.28478 | 145° | 27km/h | 26092m | -36.9m/s | -48.7°C | 0.8% | 22.9hPa | 2.5V | 03:33:45 | 01:44:43 | 00:00:00 | |
| BIOWL1-15 | 2026-09-01 18:14:25 | 49.72727 | 8.28472 | 146° | 27km/h | 26128m | -35.5m/s | -48.7°C | 0.8% | 22.8hPa | 2.5V | 03:33:45 | 01:44:42 | 00:00:00 | |
| AA1-15 | 2026-09-01 18:14:24 | 49.72733 | 8.28466 | 143° | 31km/h | 26162m | -34.3m/s | -48.8°C | 0.8% | 22.7hPa | 2.6V | 03:33:45 | 01:44:41 | 00:00:00 | |
| DO3DL | 2026-09-01 18:14:23 | 49.72732 | 8.28466 | 144° | 31km/h | 26162m | -34.3m/s | -48.8°C | 1.2% | 22.7hPa | 2.7V | 03:33:00 | 00:00:00 | 00:00:00 | |
| DL1XH1-15 | 2026-09-01 18:14:22 | 49.72759 | 8.28411 | 102° | 35km/h | 26328m | -22.9m/s | -49°C | 3.6% | 22hPa | 2.7V | 03:33:43 | 01:44:35 | 00:00:00 | |
| DO3MHA-11 | 2026-09-01 18:14:22 | 49.72744 | 8.28451 | 139° | 29km/h | 26224m | -28.0m/s | -48.8°C | 3.6% | 22.3hPa | 2.7V | 03:33:00 | 01:44:39 | 00:00:00 | |
| DM0DOS-11 | 2026-09-01 18:14:21 | 49.72760 | 8.28386 | 90° | 31km/h | 26374m | -23.6m/s | -49°C | 3.6% | 21.8hPa | 2.7V | 03:33:45 | 01:44:33 | 00:00:00 | |
| DL1XH-west | 2026-09-01 18:14:20 | 49.72754 | 8.28434 | 120° | 31km/h | 26278m | -26.6m/s | -49°C | 0.9% | 22.2hPa | 2.6V | 03:33:45 | 01:44:37 | 00:00:00 | |
| HSKMA3-T | 2026-09-01 18:14:16 | 49.72760 | 8.28386 | 91° | 31km/h | 26374m | -23.6m/s | -49°C | 0.9% | 21.8hPa | 2.7V | 03:33:45 | 01:44:33 | 00:00:00 | |
| BIOWL1-15 | 2026-09-01 18:14:14 | 49.72760 | 8.28365 | 96° | 26km/h | 26421m | -25m/s | -49°C | 1% | 21.6hPa | 2.6V | 03:34:36 | 01:44:31 | 00:00:00 | |
| AA1-15 | 2026-09-01 18:14:13 | 49.72761 | 8.28357 | 99° | 16km/h | 26445m | -24.3m/s | -49°C | 1% | 21.6hPa | 2.6V | 03:34:36 | 01:44:30 | 00:00:00 | |
| DL1XH-west | 2026-09-01 18:14:09 | 49.72775 | 8.28341 | 164° | 27km/h | 26542m | -25.2m/s | -49°C | 0.9% | 21.3hPa | 2.6V | 03:34:36 | 01:44:26 | 00:00:00 | |
| HSKMA3-T | 2026-09-01 18:14:06 | 49.72799 | 8.28330 | 163° | 37km/h | 26617m | -22.1m/s | -48.8°C | 1% | 21hPa | 2.7V | 03:34:36 | 01:44:23 | 00:00:00 | |
| BIOWL1-15 | 2026-09-01 18:14:06 | 49.72817 | 8.28320 | 161° | 35km/h | 26663m | -23.9m/s | -48.7°C | 1% | 20.9hPa | 2.5V | 03:34:36 | 01:44:21 | 00:00:00 | |
| AA1-15 | 2026-09-01 18:14:02 | 49.72833 | 8.28314 | 169° | 31km/h | 26715m | -22.7m/s | -48.7°C | 1% | 20.7hPa | 2.6V | 03:34:36 | 01:44:19 | 00:00:00 | |
| DM0DOS-11 | 2026-09-01 18:14:02 | 49.72873 | 8.28299 | 162° | 26km/h | 26869m | -25.6m/s | -48.2°C | 3.5% | 20.3hPa | 2.7V | 03:34:05 | 01:44:13 | 00:00:00 | |
| SONDE2-11 | 2026-09-01 18:14:01 | 49.72848 | 8.28308 | 165° | 27km/h | 26765m | -26.0m/s | -48.3°C | 1.2% | 20.6hPa | 2.6V | 00:00:00 | 00:00:00 | 00:00:00 | |
| DL1XH1-15 | 2026-09-01 18:14:00 | 49.72860 | 8.28303 | 168° | 26km/h | 26818m | -24.8m/s | -48.1°C | 3.6% | 20.4hPa | 2.6V | 03:34:03 | 01:44:15 | 00:00:00 | |
| DL1XH-west | 2026-09-01 18:13:59 | 49.72854 | 8.28305 | 167° | 24km/h | 26792m | -27.3m/s | -48.1°C | 0.9% | 20.5hPa | 2.5V | 03:34:36 | 01:44:16 | 00:00:00 | |
| HSKMA3-T | 2026-09-01 18:13:56 | 49.72872 | 8.28299 | 162° | 26km/h | 26869m | -25.6m/s | -48.2°C | 0.8% | 20.3hPa | 2.7V | 03:34:36 | 01:44:13 | 00:00:00 | |
| BIOWL1-15 | 2026-09-01 18:13:53 | 49.72892 | 8.28290 | 167° | 29km/h | 26946m | -25.8m/s | -48.6°C | 0.9% | 20hPa | 2.5V | 03:34:36 | 01:44:10 | 00:00:00 | |
| DL1XH1-15 | 2026-09-01 18:13:52 | 49.72934 | 8.28281 | 170° | 38km/h | 27070m | -26.1m/s | -48.2°C | 3.4% | 19.6hPa | 2.7V | 03:34:13 | 01:44:05 | 00:00:00 | |
| AA1-15 | 2026-09-01 18:13:51 | 49.72907 | 8.28287 | 172° | 33km/h | 26996m | -26.2m/s | -48.7°C | 0.9% | 19.9hPa | 2.6V | 03:34:36 | 01:44:08 | 00:00:00 | |
| DM0DOS-11 | 2026-09-01 18:13:50 | 49.72954 | 8.28276 | 167° | 22km/h | 27170m | -35.5m/s | -47.6°C | 3.2% | 19.4hPa | 2.6V | 03:34:16 | 01:44:02 | 00:00:00 | |
| DL1XH-west | 2026-09-01 18:13:48 | 49.72934 | 8.28281 | 171° | 38km/h | 27070m | -26.1m/s | -48.2°C | 0.8% | 19.6hPa | 2.7V | 03:34:36 | 01:44:05 | 00:00:00 | |
| HSKMA3-T | 2026-09-01 18:13:45 | 49.72954 | 8.28276 | 168° | 22km/h | 27170m | -35.5m/s | -47.6°C | 0.6% | 19.4hPa | 2.6V | 03:34:36 | 01:44:02 | 00:00:00 | |
| BIOWL1-15 | 2026-09-01 18:13:44 | 49.72968 | 8.28272 | 169° | 18km/h | 27249m | -14.4m/s | -47.6°C | 0.7% | 19.1hPa | 2.7V | 03:34:36 | 01:43:59 | 00:00:00 | |
| DF1GD-15 | 2026-09-01 18:13:43 | 49.72959 | 8.28275 | 171° | 20km/h | 27204m | -30.4m/s | -47.6°C | 1.1% | 19.3hPa | 2.6V | 03:34:00 | 00:00:00 | 00:00:00 | |
| DO3MHA-11 | 2026-09-01 18:13:42 | 49.72968 | 8.28272 | 170° | 18km/h | 27249m | -14.4m/s | -47.5°C | 3.3% | 19.0hPa | 2.6V | 03:34:00 | 01:43:59 | 00:00:00 | |
| DB0NH | 2026-09-01 18:13:41 | 49.72973 | 8.28271 | 169° | 20km/h | 27259m | -5.3m/s | -47.5°C | 3.4% | 19.0hPa | 2.6V | 00:00:00 | 01:43:58 | 00:00:00 | |
| DM0DOS-11 | 2026-09-01 18:13:40 | 49.73002 | 8.28263 | 174° | 16km/h | 27231m | 6.5m/s | -47.6°C | 3.4% | 19.1hPa | 2.6V | 03:34:26 | 01:43:52 | 00:00:00 | |
| AA1-15 | 2026-09-01 18:13:40 | 49.72978 | 8.28269 | 169° | 18km/h | 27259m | 4.1m/s | -47.6°C | 0.8% | 19hPa | 2.6V | 03:34:36 | 01:43:57 | 00:00:00 | |
| DL1XH1-15 | 2026-09-01 18:13:38 | 49.72987 | 8.28267 | 170° | 20km/h | 27248m | 6.6m/s | -47.6°C | 3.4% | 19hPa | 2.7V | 03:34:23 | 01:43:55 | 00:00:00 | |
| DL1XH-west | 2026-09-01 18:13:38 | 49.72987 | 8.28267 | 171° | 20km/h | 27248m | 6.6m/s | -47.6°C | 0.8% | 19hPa | 2.7V | 03:34:36 | 01:43:55 | 00:00:00 | |
| HSKMA3-T | 2026-09-01 18:13:35 | 49.73002 | 8.28263 | 174° | 16km/h | 27231m | 6.5m/s | -47.7°C | 0.7% | 19.1hPa | 2.6V | 03:34:36 | 01:43:52 | 00:00:00 | |
| DD1CC8 | 2026-09-01 18:13:34 | 49.73006 | 8.28263 | 178° | 11km/h | 27225m | 6.0m/s | -47.7°C | 1.1% | 19.1hPa | 2.6V | 00:00:00 | 00:00:00 | 00:00:00 | |
| DJTTGO | 2026-09-01 18:13:33 | 49.73006 | 8.28263 | 179° | 13km/h | 27225m | 6.0m/s | -47.7°C | 1.1% | 19.1hPa | 2.6V | 03:34:00 | 00:00:00 | 00:00:00 | |
| DL1XH1-15 | 2026-09-01 18:13:32 | 49.73030 | 8.28255 | 160° | 24km/h | 27192m | 6m/s | -47.9°C | 3.4% | 19.2hPa | 2.6V | 03:34:33 | 01:43:45 | 00:00:00 | |
| BIOWL1-15 | 2026-09-01 18:13:32 | 49.73011 | 8.28263 | 177° | 13km/h | 27214m | 5.3m/s | -47.7°C | 0.7% | 19.2hPa | 2.7V | 03:34:36 | 01:43:49 | 00:00:00 | |
| DO3MHA-11 | 2026-09-01 18:13:32 | 49.73011 | 8.28263 | 178° | 22km/h | 27215m | 5.2m/s | -47.7°C | 3.4% | 19.1hPa | 2.7V | 00:00:00 | 01:43:49 | 00:00:00 | |
| DM0DOS-11 | 2026-09-01 18:13:30 | 49.73045 | 8.28246 | 156° | 22km/h | 27175m | 5.6m/s | -47.9°C | 3.4% | 19.2hPa | 2.7V | 03:34:36 | 01:43:42 | 00:00:00 | |
| AA1-15 | 2026-09-01 18:13:29 | 49.73025 | 8.28258 | 162° | 24km/h | 27198m | 5.1m/s | -47.9°C | 0.8% | 19.2hPa | 2.6V | 03:34:36 | 01:43:46 | 00:00:00 | |
| DL1XH-west | 2026-09-01 18:13:27 | 49.73035 | 8.28252 | 160° | 22km/h | 27186m | 6.2m/s | -47.9°C | 0.8% | 19.2hPa | 2.7V | 03:34:36 | 01:43:44 | 00:00:00 | |
| HSKMA3-T | 2026-09-01 18:13:25 | 49.73045 | 8.28246 | 156° | 22km/h | 27175m | 5.6m/s | -47.9°C | 0.8% | 19.3hPa | 2.7V | 03:34:36 | 01:43:42 | 00:00:00 | |
| BIOWL1-15 | 2026-09-01 18:13:22 | 49.73063 | 8.28235 | 162° | 26km/h | 27157m | 4.8m/s | -47.9°C | 0.7% | 19.3hPa | 2.6V | 03:35:27 | 01:43:39 | 00:00:00 | |
| DL0LBS | 2026-09-01 18:13:21 | 49.73063 | 8.28235 | 162° | 26km/h | 27158m | 4.8m/s | -47.9°C | 1.1% | 19.3hPa | 2.6V | 03:35:00 | 00:00:00 | 00:00:00 | |
| DM0DOS-11 | 2026-09-01 18:13:20 | 49.73104 | 8.28224 | 167° | 26km/h | 27118m | 5.2m/s | -48.1°C | 3.4% | 19.4hPa | 2.6V | 03:34:46 | 01:43:32 | 00:00:00 | |
| AA1-15 | 2026-09-01 18:13:18 | 49.73085 | 8.28229 | 175° | 22km/h | 27135m | 6.1m/s | -48°C | 0.7% | 19.4hPa | 2.7V | 03:35:27 | 01:43:35 | 00:00:00 | |
| DL1XH-west | 2026-09-01 18:13:16 | 49.73097 | 8.28226 | 169° | 27km/h | 27123m | 4.5m/s | -48°C | 0.7% | 19.4hPa | 2.6V | 03:35:27 | 01:43:33 | 00:00:00 | |
| HSKMA3-T | 2026-09-01 18:13:14 | 49.73110 | 8.28222 | 167° | 24km/h | 27113m | 6.1m/s | -48.1°C | 0.7% | 19.5hPa | 2.7V | 03:35:27 | 01:43:31 | 00:00:00 | |
| BIOWL1-15 | 2026-09-01 18:13:11 | 49.73127 | 8.28214 | 159° | 24km/h | 27097m | 5.1m/s | -48.4°C | 0.8% | 19.5hPa | 2.6V | 03:35:27 | 01:43:28 | 00:00:00 | |
| DL1XH-15 | 2026-09-01 18:13:11 | 49.73154 | 8.28185 | 135° | 20km/h | 27070m | 5.5m/s | -48.7°C | 3.7% | 19.6hPa | 2.6V | 03:34:55 | 01:43:23 | 00:00:00 | |
| DB0NH | 2026-09-01 18:13:11 | 49.73127 | 8.28214 | 159° | 24km/h | 27098m | 5.0m/s | -48.3°C | 3.4% | 19.4hPa | 2.7V | 00:00:00 | 01:43:28 | 00:00:00 | |
| DL1XH1-15 | 2026-09-01 18:13:10 | 49.73144 | 8.28198 | 140° | 29km/h | 27081m | 4.7m/s | -48.6°C | 3.6% | 19.5hPa | 2.7V | 03:34:53 | 01:43:25 | 00:00:00 | |
| AA1-15 | 2026-09-01 18:13:07 | 49.73149 | 8.28191 | 136° | 26km/h | 27076m | 5.2m/s | -48.6°C | 0.9% | 19.5hPa | 2.7V | 03:35:27 | 01:43:24 | 00:00:00 | |
| DL1XH-west | 2026-09-01 18:13:05 | 49.73157 | 8.28180 | 146° | 16km/h | 27065m | 5.1m/s | -48.7°C | 0.9% | 19.6hPa | 2.6V | 03:35:27 | 01:43:22 | 00:00:00 | |
| HSKMA3-T | 2026-09-01 18:13:03 | 49.73165 | 8.28177 | 181° | 18km/h | 27054m | 5.8m/s | -48.8°C | 0.9% | 19.6hPa | 2.7V | 03:35:27 | 01:43:20 | 00:00:00 | |
| BIOWL1-15 | 2026-09-01 18:13:03 | 49.73177 | 8.28178 | 179° | 27km/h | 27043m | 5m/s | -48.8°C | 1% | 19.7hPa | 2.6V | 03:35:27 | 01:43:18 | 00:00:00 | |
| DL1XH1-15 | 2026-09-01 18:13:02 | 49.73197 | 8.28171 | 156° | 26km/h | 27027m | 5.7m/s | -48.8°C | 3.6% | 19.7hPa | 2.7V | 03:35:03 | 01:43:15 | 00:00:00 | |
| DL6DJ-15 | 2026-09-01 18:13:01 | 49.73184 | 8.28177 | 171° | 27km/h | 27038m | 5.5m/s | -48.8°C | -1.0% | -1.0hPa | 2.6V | 00:00:00 | 00:00:00 | 00:00:00 | |
| DM0DOS-11 | 2026-09-01 18:13:00 | 49.73215 | 8.28157 | 155° | 26km/h | 27009m | 5.7m/s | -48.7°C | 3.7% | 19.8hPa | 2.6V | 03:35:06 | 01:43:12 | 00:00:00 | |
| AA1-15 | 2026-09-01 18:12:56 | 49.73209 | 8.28162 | 153° | 26km/h | 27015m | 5.8m/s | -48.7°C | 0.9% | 19.7hPa | 2.7V | 03:35:27 | 01:43:13 | 00:00:00 | |
| DL1XH-west | 2026-09-01 18:12:55 | 49.73215 | 8.28157 | 155° | 26km/h | 27009m | 5.7m/s | -48.7°C | 1% | 19.8hPa | 2.6V | 03:35:27 | 01:43:12 | 00:00:00 | |
| HSKMA3-T | 2026-09-01 18:12:52 | 49.73231 | 8.28146 | 154° | 20km/h | 26992m | 6.4m/s | -48.6°C | 0.8% | 19.8hPa | 2.6V | 03:35:27 | 01:43:09 | 00:00:00 | |
| DO1YAY-16 | 2026-09-01 18:12:51 | 49.73239 | 8.28141 | 169° | 15km/h | 26982m | 5.1m/s | -48.6°C | 1.2% | 19.9hPa | 2.7V | 00:00:00 | 00:00:00 | 00:00:00 | |
| DM0DOS-11 | 2026-09-01 18:12:50 | 49.73264 | 8.28146 | 178° | 22km/h | 26953m | 6m/s | -48.5°C | 3.6% | 19.9hPa | 2.7V | 03:35:16 | 01:43:02 | 00:00:00 | |
| BIOWL1-15 | 2026-09-01 18:12:50 | 49.73239 | 8.28141 | 169° | 15km/h | 26982m | 5.1m/s | -48.6°C | 0.9% | 19.9hPa | 2.7V | 03:35:27 | 01:43:07 | 00:00:00 | |
| AA1-15 | 2026-09-01 18:12:45 | 49.73264 | 8.28146 | 179° | 22km/h | 26953m | 6m/s | -48.5°C | 0.9% | 19.9hPa | 2.7V | 03:35:27 | 01:43:02 | 00:00:00 | |
| DL1XH-west | 2026-09-01 18:12:44 | 49.73270 | 8.28145 | 169° | 24km/h | 26948m | 4.9m/s | -48.4°C | 0.9% | 19.9hPa | 2.7V | 03:35:27 | 01:43:01 | 00:00:00 | |
| AU51GT2 | 2026-09-01 18:12:43 | 49.73282 | 8.28141 | 167° | 26km/h | 26937m | 6.2m/s | -48.4°C | 1.2% | 20.0hPa | 2.6V | 00:00:00 | 00:00:00 | 00:00:00 | |
| DO3MHA-11 | 2026-09-01 18:12:42 | 49.73282 | 8.28141 | 168° | 22km/h | 26937m | 6.1m/s | -48.4°C | 3.6% | 19.9hPa | 2.6V | 00:00:00 | 01:42:59 | 00:00:00 | |
| DL1XH-15 | 2026-09-01 18:12:41 | 49.73315 | 8.28127 | 162° | 20km/h | 26903m | 6.3m/s | -48.2°C | 3.5% | 20.1hPa | 2.6V | 03:35:25 | 01:42:53 | 00:00:00 | |
| HSKMA3-T | 2026-09-01 18:12:41 | 49.73289 | 8.28139 | 171° | 26km/h | 26931m | 5.6m/s | -48.4°C | 0.9% | 20hPa | 2.6V | 03:35:27 | 01:42:58 | 00:00:00 | |
| BIOWL1-15 | 2026-09-01 18:12:39 | 49.73301 | 8.28136 | 165° | 22km/h | 26920m | 6.4m/s | -48.3°C | 0.8% | 20hPa | 2.7V | 03:35:27 | 01:42:56 | 00:00:00 | |
| AA1-15 | 2026-09-01 18:12:34 | 49.73326 | 8.28124 | 172° | 24km/h | 26890m | 5.7m/s | -48.1°C | 0.9% | 20.1hPa | 2.7V | 03:35:27 | 01:42:51 | 00:00:00 | |
| DL1XH-west | 2026-09-01 18:12:33 | 49.73332 | 8.28123 | 170° | 24km/h | 26884m | 6.6m/s | -48.1°C | 0.9% | 20.1hPa | 2.7V | 03:36:18 | 01:42:50 | 00:00:00 | |
| DO3MHA-11 | 2026-09-01 18:12:32 | 49.73338 | 8.28121 | 166° | 29km/h | 26878m | 5.3m/s | -48.1°C | 3.5% | 20.1hPa | 2.6V | 00:00:00 | 01:42:49 | 00:00:00 | |
| DL1XH-15 | 2026-09-01 18:12:31 | 49.73381 | 8.28109 | 161° | 29km/h | 26846m | 6.6m/s | -48.1°C | 3.5% | 20.3hPa | 2.6V | 03:35:35 | 01:42:43 | 00:00:00 | |
| HSKMA3-T | 2026-09-01 18:12:31 | 49.73344 | 8.28118 | 167° | 27km/h | 26873m | 4.6m/s | -48.1°C | 0.8% | 20.2hPa | 2.6V | 03:36:18 | 01:42:48 | 00:00:00 | |
| BIOWL1-15 | 2026-09-01 18:12:28 | 49.73366 | 8.28113 | 174° | 31km/h | 26857m | 4.7m/s | -48.1°C | 0.8% | 20.2hPa | 2.7V | 03:36:18 | 01:42:45 | 00:00:00 | |
| AA1-15 | 2026-09-01 18:12:23 | 49.73400 | 8.28093 | 150° | 29km/h | 26830m | 5.4m/s | -48.2°C | 0.8% | 20.3hPa | 2.6V | 03:36:18 | 01:42:40 | 00:00:00 | |
| DL1XH-west | 2026-09-01 18:12:22 | 49.73407 | 8.28087 | 156° | 31km/h | 26824m | 6.1m/s | -48.2°C | 0.7% | 20.3hPa | 2.7V | 03:36:18 | 01:42:39 | 00:00:00 | |
| DB0ND-19 | 2026-09-01 18:12:22 | 49.73414 | 8.28083 | 163° | 29km/h | 26818m | 5.6m/s | -48.1°C | 1.1% | 20.4hPa | 2.6V | 00:00:00 | 00:00:00 | 00:00:00 | |
| DL1XH1-15 | 2026-09-01 18:12:21 | 49.73438 | 8.28074 | 161° | 33km/h | 26802m | 6.4m/s | -48.2°C | 3.3% | 20.4hPa | 2.6V | 03:35:43 | 01:42:35 | 00:00:00 | |
| HSKMA3-T | 2026-09-01 18:12:20 | 49.73422 | 8.28080 | 167° | 31km/h | 26813m | 5.1m/s | -48.1°C | 0.7% | 20.4hPa | 2.7V | 03:36:18 | 01:42:37 | 00:00:00 | |
| BIOWL1-15 | 2026-09-01 18:12:18 | 49.73438 | 8.28074 | 161° | 33km/h | 26802m | 6.4m/s | -48.2°C | 0.7% | 20.4hPa | 2.6V | 03:36:18 | 01:42:35 | 00:00:00 | |
| AA1-15 | 2026-09-01 18:12:13 | 49.73480 | 8.28043 | 153° | 42km/h | 26774m | 4.9m/s | -48.5°C | 0.9% | 20.5hPa | 2.6V | 03:36:18 | 01:42:30 | 00:00:00 | |
| DL1XH-west | 2026-09-01 18:12:12 | 49.73489 | 8.28035 | 149° | 44km/h | 26768m | 6.5m/s | -48.6°C | 0.9% | 20.5hPa | 2.6V | 03:36:18 | 01:42:29 | 00:00:00 | |
| AU51GT2 | 2026-09-01 18:12:12 | 49.73498 | 8.28026 | 144° | 42km/h | 26762m | 5.7m/s | -48.6°C | 1.2% | 20.5hPa | 2.6V | 00:00:00 | 00:00:00 | 00:00:00 | |
| DL1XH-15 | 2026-09-01 18:12:11 | 49.73539 | 8.27990 | 158° | 29km/h | 26734m | 6.2m/s | -48.8°C | 3.6% | 20.6hPa | 2.6V | 03:35:55 | 01:42:23 | 00:00:00 | |
| HSKMA3-T | 2026-09-01 18:12:10 | 49.73507 | 8.28016 | 145° | 42km/h | 26757m | 4.8m/s | -48.6°C | 0.9% | 20.6hPa | 2.7V | 03:36:18 | 01:42:27 | 00:00:00 | |
| DL1XH1-15 | 2026-09-01 18:12:10 | 49.73523 | 8.28000 | 153° | 37km/h | 26745m | 5.6m/s | -48.7°C | 3.6% | 20.5hPa | 2.6V | 03:35:53 | 01:42:25 | 00:00:00 | |
| BIOWL1-15 | 2026-09-01 18:12:09 | 49.73531 | 8.27995 | 158° | 33km/h | 26740m | 4.9m/s | -48.7°C | 0.9% | 20.6hPa | 2.6V | 03:36:18 | 01:42:24 | 00:00:00 | |
| DJ2DS-15 | 2026-09-01 18:12:09 | 49.73515 | 8.28007 | 148° | 29km/h | 26751m | 6.1m/s | -48.6°C | 3.6% | 20.5hPa | 2.6V | 00:00:00 | 01:42:26 | 00:00:00 | |
| DB0UT-7 | 2026-09-01 18:12:08 | 49.73523 | 8.28000 | 154° | 24km/h | 26745m | 5.6m/s | -48.7°C | 3.6% | 20.5hPa | 2.6V | 00:00:00 | 01:42:25 | 00:00:00 | |
| BIOWL7-15 | 2026-09-01 18:12:06 | 49.73531 | 8.27995 | 159° | 33km/h | 26740m | 4.9m/s | -48.7°C | 1.2% | 20.6hPa | 2.6V | 03:36:00 | 00:00:00 | 00:00:00 | |
| DM7RM-13 | 2026-09-01 18:12:05 | 49.73538 | 8.27990 | 159° | 29km/h | 26735m | 6.2m/s | -48.8°C | 1.2% | 20.6hPa | 2.6V | 03:36:00 | 00:00:00 | 00:00:00 | |
| DB0UT-9 | 2026-09-01 18:12:04 | 49.73545 | 8.27986 | 156° | 27km/h | 26728m | 6.4m/s | -48.8°C | 1.2% | 20.6hPa | 2.6V | 03:36:00 | 00:00:00 | 00:00:00 | |
| DL1ZP-14 | 2026-09-01 18:12:03 | 49.73564 | 8.27973 | 158° | 27km/h | 26711m | 5.4m/s | -48.8°C | 1.2% | 20.7hPa | 2.6V | 00:00:00 | 00:00:00 | 00:00:00 | |
| DO3MHA-11 | 2026-09-01 18:12:02 | 49.73564 | 8.27973 | 159° | 29km/h | 26711m | 5.4m/s | -48.7°C | 3.5% | 20.6hPa | 2.6V | 00:00:00 | 01:42:19 | 00:00:00 | |
| DL1XH-15 | 2026-09-01 18:12:01 | 49.73602 | 8.27934 | 147° | 31km/h | 26677m | 5.8m/s | -48.7°C | 3.5% | 20.8hPa | 2.6V | 03:36:05 | 01:42:13 | 00:00:00 | |
| DL1XH-west | 2026-09-01 18:12:01 | 49.73571 | 8.27969 | 155° | 29km/h | 26705m | 4.6m/s | -48.8°C | 0.9% | 20.7hPa | 2.6V | 03:36:18 | 01:42:18 | 00:00:00 | |
| DM0DOS-11 | 2026-09-01 18:12:00 | 49.73608 | 8.27928 | 154° | 31km/h | 26672m | 4.4m/s | -48.8°C | 3.5% | 20.8hPa | 2.6V | 03:36:06 | 01:42:12 | 00:00:00 | |
| AA1-15 | 2026-09-01 18:12:00 | 49.73577 | 8.27963 | 148° | 29km/h | 26700m | 6.5m/s | -48.8°C | 0.8% | 20.7hPa | 2.7V | 03:36:18 | 01:42:17 | 00:00:00 | |
| HSKMA3-T | 2026-09-01 18:11:59 | 49.73583 | 8.27956 | 140° | 29km/h | 26694m | 5.7m/s | -48.8°C | 0.8% | 20.7hPa | 2.7V | 03:36:18 | 01:42:16 | 00:00:00 | |
| DL1XH1-15 | 2026-09-01 18:11:58 | 49.73589 | 8.27948 | 138° | 31km/h | 26688m | 4.8m/s | -48.8°C | 3.5% | 20.7hPa | 2.7V | 03:36:03 | 01:42:15 | 00:00:00 | |
| BIOWL1-15 | 2026-09-01 18:11:57 | 49.73595 | 8.27941 | 142° | 31km/h | 26683m | 5.9m/s | -48.7°C | 0.9% | 20.8hPa | 2.6V | 03:36:18 | 01:42:14 | 00:00:00 | |
| SONDE2-11 | 2026-09-01 18:11:56 | 49.73602 | 8.27934 | 147° | 31km/h | 26677m | 5.8m/s | -48.7°C | 1.2% | 20.8hPa | 2.6V | 00:00:00 | 00:00:00 | 00:00:00 | |
| SSTOLZ84 | 2026-09-01 18:11:54 | 49.73641 | 8.27910 | 180° | 16km/h | 26638m | 5.7m/s | -48.9°C | 1.2% | 20.9hPa | 2.6V | 00:00:00 | 00:00:00 | 00:00:00 | |
| DL1XH1-15 | 2026-09-01 18:11:53 | 49.73645 | 8.27910 | 178° | 16km/h | 26633m | 5.1m/s | -48.9°C | 3.6% | 21hPa | 2.6V | 03:36:13 | 01:42:05 | 00:00:00 | |
| DO3MHA-11 | 2026-09-01 18:11:52 | 49.73627 | 8.27915 | 157° | 18km/h | 26656m | 6.0m/s | -48.8°C | 3.6% | 20.8hPa | 2.7V | 00:00:00 | 01:42:09 | 00:00:00 | |
| DL1XH-15 | 2026-09-01 18:11:51 | 49.73652 | 8.27907 | 152° | 15km/h | 26621m | 5.8m/s | -48.9°C | 3.7% | 20.9hPa | 2.7V | 03:36:15 | 01:42:03 | 00:00:00 | |
| DB0ND-19 | 2026-09-01 18:11:51 | 49.73636 | 8.27911 | 170° | 16km/h | 26644m | 6.2m/s | -48.9°C | 1.2% | 20.9hPa | 2.6V | 00:00:00 | 00:00:00 | 00:00:00 | |
| DM0DOS-11 | 2026-09-01 18:11:50 | 49.73656 | 8.27904 | 141° | 18km/h | 26616m | 4.5m/s | -48.9°C | 3.6% | 21hPa | 2.6V | 03:36:16 | 01:42:02 | 00:00:00 | |
| DL1XH-west | 2026-09-01 18:11:50 | 49.73636 | 8.27911 | 171° | 16km/h | 26644m | 6.2m/s | -48.9°C | 1% | 20.9hPa | 2.6V | 03:36:18 | 01:42:07 | 00:00:00 | |
| HSKMA3-T | 2026-09-01 18:11:49 | 49.73641 | 8.27910 | 180° | 16km/h | 26638m | 5.7m/s | -48.9°C | 0.9% | 20.9hPa | 2.6V | 03:36:18 | 01:42:06 | 00:00:00 | |
| BIOWL1-15 | 2026-09-01 18:11:47 | 49.73649 | 8.27909 | 169° | 15km/h | 26627m | 6m/s | -48.9°C | 0.9% | 20.9hPa | 2.7V | 03:36:18 | 01:42:04 | 00:00:00 | |
| CB1BUN | 2026-09-01 18:11:46 | 49.73649 | 8.27909 | 169° | 15km/h | 26627m | 6.0m/s | -48.9°C | 1.2% | 21.0hPa | 2.6V | 03:36:00 | 00:00:00 | 00:00:00 | |
| DL2OL | 2026-09-01 18:11:44 | 49.73656 | 8.27903 | 142° | 18km/h | 26616m | 4.5m/s | -48.9°C | 1.2% | 21.0hPa | 2.6V | 00:00:00 | 00:00:00 | 00:00:00 | |
| DB0UT-9 | 2026-09-01 18:11:43 | 49.73660 | 8.27899 | 142° | 20km/h | 26611m | 5.0m/s | -48.9°C | 1.2% | 21.0hPa | 2.6V | 03:36:00 | 00:00:00 | 00:00:00 | |
| DL1XH1-15 | 2026-09-01 18:11:42 | 49.73685 | 8.27879 | 154° | 13km/h | 26579m | 5.1m/s | -49°C | 3.5% | 21.1hPa | 2.6V | 03:36:23 | 01:41:55 | 00:00:00 | |
| DO3MHA-11 | 2026-09-01 18:11:42 | 49.73669 | 8.27890 | 155° | 15km/h | 26601m | 5.1m/s | -48.9°C | 3.6% | 21.0hPa | 2.7V | 03:36:00 | 01:41:59 | 00:00:00 | |
| DL1XH-15 | 2026-09-01 18:11:41 | 49.73691 | 8.27877 | 174° | 11km/h | 26568m | 6.2m/s | -49.1°C | 3.6% | 21.1hPa | 2.7V | 03:36:25 | 01:41:53 | 00:00:00 | |
| AU51GT2 | 2026-09-01 18:11:41 | 49.73678 | 8.27884 | 158° | 16km/h | 26590m | 5.6m/s | -49.0°C | 1.2% | 21.1hPa | 2.7V | 00:00:00 | 00:00:00 | 00:00:00 | |
| DM0DOS-11 | 2026-09-01 18:11:40 | 49.73694 | 8.27876 | 177° | 13km/h | 26563m | 4.6m/s | -49.1°C | 3.5% | 21.2hPa | 2.7V | 03:36:26 | 01:41:52 | 00:00:00 | |
| BIOWL1-15 | 2026-09-01 18:11:39 | 49.73688 | 8.27877 | 164° | 11km/h | 26574m | 5.6m/s | -49.1°C | 0.9% | 21.1hPa | 2.6V | 03:37:09 | 01:41:54 | 00:00:00 | |
| DL1XH-west | 2026-09-01 18:11:39 | 49.73682 | 8.27881 | 155° | 15km/h | 26585m | 5.8m/s | -49.1°C | 0.9% | 21.1hPa | 2.6V | 03:37:09 | 01:41:56 | 00:00:00 | |
| HSKMA3-T | 2026-09-01 18:11:38 | 49.73685 | 8.27879 | 155° | 13km/h | 26579m | 5.1m/s | -49.1°C | 0.9% | 21.1hPa | 2.6V | 03:38:00 | 01:41:55 | 00:00:00 | |
| DB0UT-7 | 2026-09-01 18:11:38 | 49.73685 | 8.27879 | 155° | 11km/h | 26579m | 5.1m/s | -49.0°C | 3.5% | 21.0hPa | 2.6V | 00:00:00 | 00:00:00 | 00:00:00 | |
| DL8OAI-8 | 2026-09-01 18:11:36 | 49.73688 | 8.27877 | 165° | 11km/h | 26574m | 5.6m/s | -49.1°C | 1.2% | 21.1hPa | 2.6V | 03:37:00 | 00:00:00 | 00:00:00 | |
| BIOWL9-15 | 2026-09-01 18:11:34 | 49.73699 | 8.27875 | 161° | 7km/h | 26553m | 6.2m/s | -49.1°C | 1.2% | 21.2hPa | 2.6V | 00:00:00 | 00:00:00 | 00:00:00 | |
| DO3MHA-11 | 2026-09-01 18:11:32 | 49.73701 | 8.27873 | 138° | 9km/h | 26547m | 5.6m/s | -49.0°C | 3.6% | 21.2hPa | 2.6V | 00:00:00 | 01:41:49 | 00:00:00 | |
| DL1XH-15 | 2026-09-01 18:11:31 | 49.73713 | 8.27861 | 145° | 9km/h | 26512m | 5.6m/s | -49°C | 3.7% | 21.3hPa | 2.6V | 03:36:35 | 01:41:43 | 00:00:00 | |
| DM0DOS-11 | 2026-09-01 18:11:30 | 49.73715 | 8.27860 | 154° | 7km/h | 26507m | 4.6m/s | -49°C | 3.7% | 21.4hPa | 2.6V | 03:36:36 | 01:41:42 | 00:00:00 | |
| DL1XH1-15 | 2026-09-01 18:11:29 | 49.73709 | 8.27865 | 154° | 11km/h | 26524m | 5m/s | -49°C | 3.7% | 21.3hPa | 2.6V | 03:36:33 | 01:41:45 | 00:00:00 | |
| DL1XH-west | 2026-09-01 18:11:29 | 49.73706 | 8.27867 | 152° | 11km/h | 26529m | 5.7m/s | -49°C | 0.9% | 21.3hPa | 2.7V | 03:37:09 | 01:41:46 | 00:00:00 | |
| BIOWL1-15 | 2026-09-01 18:11:28 | 49.73713 | 8.27861 | 146° | 9km/h | 26512m | 5.6m/s | -49°C | 0.9% | 21.3hPa | 2.6V | 03:37:09 | 01:41:43 | 00:00:00 | |
| AA1-15 | 2026-09-01 18:11:28 | 49.73709 | 8.27865 | 154° | 11km/h | 26524m | 5m/s | -49°C | 1% | 21.3hPa | 2.6V | 03:37:09 | 01:41:45 | 00:00:00 | |
| DK5PH-5 | 2026-09-01 18:11:27 | 49.73711 | 8.27863 | 151° | 13km/h | 26519m | 6.3m/s | -49.0°C | 3.7% | 21.3hPa | 2.6V | 00:00:00 | 01:41:44 | 00:00:00 | |
| DL3AQ-11 | 2026-09-01 18:11:26 | 49.73715 | 8.27860 | 154° | 7km/h | 26507m | 4.6m/s | -49.0°C | 1.2% | 21.4hPa | 2.6V | 00:00:00 | 00:00:00 | 00:00:00 | |
| DJ2KF-10 | 2026-09-01 18:11:25 | 49.73715 | 8.27860 | 155° | 13km/h | 26507m | 4.6m/s | -48.9°C | 3.7% | 21.3hPa | 2.6V | 03:36:00 | 01:41:42 | 00:00:00 | |
| DM7RM-13 | 2026-09-01 18:11:24 | 49.73715 | 8.27860 | 156° | 7km/h | 26507m | 4.6m/s | -49.0°C | 1.3% | 21.4hPa | 2.7V | 03:37:00 | 00:00:00 | 00:00:00 | |
| DL1XH1-15 | 2026-09-01 18:11:23 | 49.73733 | 8.27862 | 193° | 9km/h | 26462m | 5.4m/s | -49.1°C | 3.6% | 21.5hPa | 2.7V | 03:36:44 | 01:41:34 | 00:00:00 | |
| SSTOLZ84 | 2026-09-01 18:11:23 | 49.73720 | 8.27858 | 179° | 11km/h | 26496m | 5.4m/s | -49.0°C | 1.2% | 21.4hPa | 2.6V | 00:00:00 | 00:00:00 | 00:00:00 | |
| DO3MHA-11 | 2026-09-01 18:11:22 | 49.73722 | 8.27858 | 184° | 7km/h | 26491m | 4.6m/s | -48.9°C | 3.6% | 21.4hPa | 2.6V | 00:00:00 | 01:41:39 | 00:00:00 | |
| DL1XH-15 | 2026-09-01 18:11:21 | 49.73735 | 8.27862 | 189° | 7km/h | 26456m | 6m/s | -49.1°C | 3.6% | 21.5hPa | 2.6V | 03:36:45 | 01:41:33 | 00:00:00 | |
| DM0DOS-11 | 2026-09-01 18:11:20 | 49.73737 | 8.27862 | 174° | 5km/h | 26450m | 5.6m/s | -49.1°C | 3.6% | 21.5hPa | 2.6V | 03:36:46 | 01:41:32 | 00:00:00 | |
| DL1XH-west | 2026-09-01 18:11:18 | 49.73730 | 8.27861 | 195° | 9km/h | 26468m | 6.5m/s | -49.1°C | 0.9% | 21.5hPa | 2.7V | 03:37:09 | 01:41:35 | 00:00:00 | |
| AA1-15 | 2026-09-01 18:11:18 | 49.73733 | 8.27862 | 194° | 9km/h | 26462m | 5.4m/s | -49.1°C | 0.9% | 21.5hPa | 2.7V | 03:37:09 | 01:41:34 | 00:00:00 | |
| BIOWL1-15 | 2026-09-01 18:11:15 | 49.73736 | 8.27862 | 174° | 5km/h | 26450m | 5.6m/s | -49.1°C | 0.9% | 21.5hPa | 2.6V | 03:37:09 | 01:41:32 | 00:00:00 | |
| DL8DAS-14 | 2026-09-01 18:11:13 | 49.73742 | 8.27859 | 160° | 11km/h | 26434m | 5.8m/s | -49.0°C | 1.2% | 21.6hPa | 2.7V | 00:00:00 | 00:00:00 | 00:00:00 | |
| DO3MHA-11 | 2026-09-01 18:11:12 | 49.73742 | 8.27859 | 161° | 15km/h | 26434m | 5.8m/s | -49.0°C | 3.7% | 21.5hPa | 2.7V | 00:00:00 | 01:41:29 | 00:00:00 | |
| DL1XH-15 | 2026-09-01 18:11:11 | 49.73761 | 8.27848 | 163° | 13km/h | 26402m | 5.8m/s | -49°C | 3.6% | 21.7hPa | 2.7V | 03:36:55 | 01:41:23 | 00:00:00 | |
| DM0DOS-11 | 2026-09-01 18:11:10 | 49.73764 | 8.27847 | 168° | 16km/h | 26396m | 5.8m/s | -49.1°C | 3.6% | 21.7hPa | 2.7V | 03:36:56 | 01:41:22 | 00:00:00 | |
| DL1XH-west | 2026-09-01 18:11:08 | 49.73755 | 8.27851 | 154° | 11km/h | 26412m | 5.3m/s | -49°C | 0.9% | 21.7hPa | 2.6V | 03:37:09 | 01:41:25 | 00:00:00 | |
| HSKMA3-T | 2026-09-01 18:11:07 | 49.73758 | 8.27850 | 158° | 11km/h | 26407m | 5m/s | -49°C | 0.9% | 21.7hPa | 2.6V | 03:38:00 | 01:41:24 | 00:00:00 | |
| BIOWL1-15 | 2026-09-01 18:11:04 | 49.73769 | 8.27845 | 168° | 18km/h | 26391m | 4.6m/s | -49°C | 0.9% | 21.7hPa | 2.7V | 03:37:09 | 01:41:21 | 00:00:00 | |
| BIOWL9-15 | 2026-09-01 18:11:03 | 49.73777 | 8.27841 | 152° | 15km/h | 26380m | 6.0m/s | -49.1°C | 1.2% | 21.8hPa | 2.6V | 00:00:00 | 00:00:00 | 00:00:00 | |
| DO3MHA-11 | 2026-09-01 18:11:02 | 49.73777 | 8.27841 | 153° | 18km/h | 26380m | 6.0m/s | -49.0°C | 3.6% | 21.7hPa | 2.6V | 03:36:00 | 01:41:19 | 00:00:00 | |
| DL1XH-15 | 2026-09-01 18:11:01 | 49.73796 | 8.27812 | 130° | 18km/h | 26346m | 6.5m/s | -49.1°C | 3.6% | 21.9hPa | 2.6V | 03:37:05 | 01:41:13 | 00:00:00 | |
| DL1XH-west | 2026-09-01 18:10:57 | 49.73793 | 8.27818 | 134° | 20km/h | 26352m | 5.2m/s | -49.1°C | 0.9% | 21.9hPa | 2.6V | 03:37:09 | 01:41:14 | 00:00:00 | |
| HSKMA3-T | 2026-09-01 18:10:56 | 49.73797 | 8.27812 | 130° | 18km/h | 26346m | 6.5m/s | -49.1°C | 0.9% | 21.9hPa | 2.6V | 03:38:00 | 01:41:13 | 00:00:00 | |
| BIOWL1-15 | 2026-09-01 18:10:53 | 49.73807 | 8.27798 | 149° | 20km/h | 26330m | 6.4m/s | -49.1°C | 0.9% | 21.9hPa | 2.7V | 03:37:09 | 01:41:10 | 00:00:00 | |
| DL1XH1-15 | 2026-09-01 18:10:52 | 49.73826 | 8.27781 | 131° | 15km/h | 26302m | 4.7m/s | -49.1°C | 3.7% | 22hPa | 2.7V | 03:37:13 | 01:41:05 | 00:00:00 | |
| SFWM-10 | 2026-09-01 18:10:51 | 49.73811 | 8.27794 | 157° | 20km/h | 26324m | 4.9m/s | -49.1°C | 1.2% | 21.9hPa | 2.6V | 03:37:00 | 00:00:00 | 00:00:00 | |
| DL1XH-15 | 2026-09-01 18:10:51 | 49.73832 | 8.27771 | 131° | 20km/h | 26291m | 6m/s | -49.1°C | 3.7% | 22.1hPa | 2.6V | 03:37:15 | 01:41:03 | 00:00:00 | |
| DM0DOS-11 | 2026-09-01 18:10:50 | 49.73835 | 8.27765 | 131° | 22km/h | 26286m | 5.2m/s | -49.1°C | 3.6% | 22.1hPa | 2.6V | 03:37:16 | 01:41:02 | 00:00:00 | |
| DL1XH-west | 2026-09-01 18:10:46 | 49.73832 | 8.27770 | 132° | 20km/h | 26291m | 6m/s | -49.1°C | 0.9% | 22.1hPa | 2.6V | 03:38:00 | 01:41:03 | 00:00:00 | |
| AA1-15 | 2026-09-01 18:10:45 | 49.73835 | 8.27765 | 132° | 22km/h | 26286m | 5.2m/s | -49.1°C | 0.9% | 22.1hPa | 2.6V | 03:38:00 | 01:41:02 | 00:00:00 | |
| BIOWL1-15 | 2026-09-01 18:10:43 | 49.73842 | 8.27751 | 122° | 20km/h | 26275m | 6.3m/s | -49°C | 0.9% | 22.1hPa | 2.7V | 03:38:00 | 01:41:00 | 00:00:00 | |
| DO3MHA-11 | 2026-09-01 18:10:42 | 49.73845 | 8.27745 | 122° | 16km/h | 26269m | 4.8m/s | -49.0°C | 3.7% | 22.1hPa | 2.7V | 00:00:00 | 01:40:59 | 00:00:00 | |
| DO3DL | 2026-09-01 18:10:41 | 49.73847 | 8.27738 | 128° | 18km/h | 26264m | 5.1m/s | -49.1°C | 1.2% | 22.1hPa | 2.7V | 03:38:00 | 00:00:00 | 00:00:00 | |
| DM0DOS-11 | 2026-09-01 18:10:40 | 49.73868 | 8.27716 | 144° | 13km/h | 26231m | 4.5m/s | -49.1°C | 3.6% | 22.3hPa | 2.7V | 03:37:26 | 01:40:52 | 00:00:00 | |
| HSKMA3-T | 2026-09-01 18:10:40 | 49.73850 | 8.27733 | 137° | 20km/h | 26259m | 6.3m/s | -49.1°C | 0.9% | 22.2hPa | 2.6V | 03:38:00 | 01:40:57 | 00:00:00 | |
| DL1XH-west | 2026-09-01 18:10:36 | 49.73865 | 8.27718 | 146° | 13km/h | 26236m | 5.3m/s | -49.1°C | 0.9% | 22.2hPa | 2.7V | 03:38:00 | 01:40:53 | 00:00:00 | |
| AA1-15 | 2026-09-01 18:10:34 | 49.73871 | 8.27712 | 144° | 15km/h | 26226m | 6.1m/s | -49.1°C | 0.9% | 22.3hPa | 2.6V | 03:38:00 | 01:40:51 | 00:00:00 | |
| DL1XH1-15 | 2026-09-01 18:10:33 | 49.73891 | 8.27672 | 121° | 27km/h | 26191m | 6.1m/s | -49°C | 3.6% | 22.4hPa | 2.6V | 03:37:33 | 01:40:45 | 00:00:00 | |
| BIOWL1-15 | 2026-09-01 18:10:32 | 49.73878 | 8.27703 | 135° | 22km/h | 26215m | 5.1m/s | -49.1°C | 0.9% | 22.3hPa | 2.6V | 03:38:00 | 01:40:49 | 00:00:00 | |
| BIOWL9-15 | 2026-09-01 18:10:32 | 49.73882 | 8.27697 | 128° | 22km/h | 26209m | 6.3m/s | -49.1°C | 1.2% | 22.4hPa | 2.7V | 00:00:00 | 00:00:00 | 00:00:00 | |
| DM0DOS-11 | 2026-09-01 18:10:30 | 49.73903 | 8.27648 | 132° | 22km/h | 26174m | 6.3m/s | -49°C | 3.6% | 22.4hPa | 2.7V | 03:37:36 | 01:40:42 | 00:00:00 | |
| HSKMA3-T | 2026-09-01 18:10:29 | 49.73888 | 8.27680 | 118° | 26km/h | 26197m | 5.1m/s | -49°C | 0.9% | 22.4hPa | 2.6V | 03:38:00 | 01:40:46 | 00:00:00 | |
| DL1XH-west | 2026-09-01 18:10:25 | 49.73903 | 8.27648 | 133° | 22km/h | 26174m | 6.3m/s | -49°C | 0.9% | 22.5hPa | 2.7V | 03:38:00 | 01:40:42 | 00:00:00 | |
| AA1-15 | 2026-09-01 18:10:23 | 49.73910 | 8.27638 | 141° | 18km/h | 26163m | 4.8m/s | -49°C | 0.8% | 22.5hPa | 2.6V | 03:38:00 | 01:40:40 | 00:00:00 | |
| BIOWL1-15 | 2026-09-01 18:10:22 | 49.73914 | 8.27634 | 150° | 18km/h | 26157m | 6.4m/s | -49°C | 0.9% | 22.5hPa | 2.6V | 03:38:00 | 01:40:39 | 00:00:00 | |
| DO3MHA-11 | 2026-09-01 18:10:22 | 49.73914 | 8.27634 | 150° | 20km/h | 26158m | 6.4m/s | -48.9°C | 3.6% | 22.5hPa | 2.7V | 03:37:00 | 01:40:39 | 00:00:00 | |
| DL1XH1-15 | 2026-09-01 18:10:21 | 49.73931 | 8.27619 | 132° | 16km/h | 26135m | 5.7m/s | -49.1°C | 3.6% | 22.6hPa | 2.7V | 03:37:43 | 01:40:35 | 00:00:00 | |
| SSTOLZ84 | 2026-09-01 18:10:21 | 49.73923 | 8.27627 | 155° | 18km/h | 26146m | 4.6m/s | -49.1°C | 1.2% | 22.6hPa | 2.5V | 00:00:00 | 00:00:00 | 00:00:00 | |
| DM0DOS-11 | 2026-09-01 18:10:20 | 49.73938 | 8.27601 | 121° | 22km/h | 26119m | 6.1m/s | -49.2°C | 3.6% | 22.6hPa | 2.5V | 03:37:46 | 01:40:32 | 00:00:00 | |
| HSKMA3-T | 2026-09-01 18:10:18 | 49.73931 | 8.27619 | 133° | 16km/h | 26135m | 5.7m/s | -49.1°C | 0.9% | 22.6hPa | 2.7V | 03:38:00 | 01:40:35 | 00:00:00 | |
| DL1XH-west | 2026-09-01 18:10:14 | 49.73941 | 8.27593 | 127° | 24km/h | 26113m | 5.3m/s | -49.2°C | 0.9% | 22.7hPa | 2.6V | 03:38:00 | 01:40:31 | 00:00:00 | |
| AA1-15 | 2026-09-01 18:10:12 | 49.73948 | 8.27578 | 124° | 24km/h | 26103m | 5.5m/s | -49.2°C | 0.9% | 22.7hPa | 2.7V | 03:38:00 | 01:40:29 | 00:00:00 | |
| BIOWL1-15 | 2026-09-01 18:10:11 | 49.73951 | 8.27571 | 116° | 22km/h | 26097m | 6m/s | -49.3°C | 1% | 22.7hPa | 2.5V | 03:38:00 | 01:40:28 | 00:00:00 | |
| HSKMA3-T | 2026-09-01 18:10:07 | 49.73961 | 8.27539 | 123° | 24km/h | 26074m | 5.2m/s | -49.4°C | 0.9% | 22.8hPa | 2.7V | 03:38:00 | 01:40:24 | 00:00:00 | |
| DM3KS-11 | 2026-09-01 18:10:07 | 49.73964 | 8.27532 | 122° | 20km/h | 26069m | 5.5m/s | -49.4°C | 1.2% | 22.8hPa | 2.7V | 00:00:00 | 00:00:00 | 00:00:00 | |
| DL1XH-15 | 2026-09-01 18:10:06 | 49.73975 | 8.27508 | 141° | 11km/h | 26040m | 5.1m/s | -49.4°C | 3.6% | 22.9hPa | 2.7V | 03:38:00 | 01:40:18 | 00:00:00 | |
| DL1XH-west | 2026-09-01 18:10:04 | 49.73969 | 8.27519 | 119° | 15km/h | 26057m | 5.3m/s | -49.5°C | 0.9% | 22.9hPa | 2.6V | 03:38:00 | 01:40:21 | 00:00:00 | |
| BIOWL1-15 | 2026-09-01 18:10:01 | 49.73975 | 8.27508 | 141° | 11km/h | 26040m | 5.1m/s | -49.4°C | 0.9% | 22.9hPa | 2.7V | 03:38:00 | 01:40:18 | 00:00:00 | |
| BIOWL9-15 | 2026-09-01 18:10:01 | 49.73977 | 8.27505 | 128° | 9km/h | 26034m | 6.1m/s | -49.4°C | 1.2% | 22.9hPa | 2.6V | 00:00:00 | 00:00:00 | 00:00:00 | |
| SONCRA | 2026-09-01 18:09:59 | 49.73979 | 8.27501 | 109° | 11km/h | 26028m | 5.5m/s | -49.4°C | 1.2% | 23.0hPa | 2.6V | 00:00:00 | 00:00:00 | 00:00:00 | |
| DL1ZP-14 | 2026-09-01 18:09:58 | 49.73980 | 8.27496 | 100° | 15km/h | 26023m | 4.7m/s | -49.4°C | 1.2% | 23.0hPa | 2.6V | 00:00:00 | 00:00:00 | 00:00:00 | |
| DK5PH-5 | 2026-09-01 18:09:57 | 49.73980 | 8.27490 | 105° | 16km/h | 26018m | 6.1m/s | -49.4°C | 3.7% | 23.0hPa | 2.6V | 00:00:00 | 01:40:14 | 00:00:00 | |
| DL1XH-15 | 2026-09-01 18:09:56 | 49.73986 | 8.27443 | 90° | 16km/h | 25984m | 5.1m/s | -49.4°C | 3.7% | 23.1hPa | 2.6V | 03:38:10 | 01:40:08 | 00:00:00 | |
| HSKMA3-T | 2026-09-01 18:09:56 | 49.73982 | 8.27483 | 109° | 20km/h | 26012m | 6.1m/s | -49.4°C | 1% | 23.1hPa | 2.6V | 03:38:51 | 01:40:13 | 00:00:00 | |
| DJ2DS-15 | 2026-09-01 18:09:53 | 49.73986 | 8.27458 | 95° | 20km/h | 25995m | 6.5m/s | -49.4°C | 1.2% | 23.1hPa | 2.6V | 00:00:00 | 00:00:00 | 00:00:00 | |
| DL1XH-west | 2026-09-01 18:09:53 | 49.73986 | 8.27458 | 95° | 22km/h | 25995m | 6.5m/s | -49.4°C | 1% | 23.1hPa | 2.5V | 03:38:51 | 01:40:10 | 00:00:00 | |
| DO3MHA-11 | 2026-09-01 18:09:52 | 49.73986 | 8.27450 | 90° | 15km/h | 25989m | 5.2m/s | -49.4°C | 3.8% | 23.1hPa | 2.6V | 00:00:00 | 01:40:09 | 00:00:00 | |
| DN1GJH-1 | 2026-09-01 18:09:51 | 49.73986 | 8.27450 | 90° | 20km/h | 25989m | 5.3m/s | -49.4°C | 1.3% | 23.1hPa | 2.6V | 03:38:00 | 00:00:00 | 00:00:00 | |
| DM0DOS-11 | 2026-09-01 18:09:50 | 49.73989 | 8.27415 | 87° | 11km/h | 25950m | 5.2m/s | -49.3°C | 3.6% | 23.3hPa | 2.6V | 03:38:16 | 01:40:02 | 00:00:00 | |
| BIOWL1-15 | 2026-09-01 18:09:50 | 49.73987 | 8.27436 | 99° | 15km/h | 25978m | 6.4m/s | -49.4°C | 1% | 23.2hPa | 2.7V | 03:38:51 | 01:40:07 | 00:00:00 | |
| SSTOLZ84 | 2026-09-01 18:09:50 | 49.73987 | 8.27431 | 108° | 13km/h | 25973m | 5.0m/s | -49.4°C | 1.2% | 23.2hPa | 2.7V | 00:00:00 | 00:00:00 | 00:00:00 | |
| DL3AQ-11 | 2026-09-01 18:09:49 | 49.73987 | 8.27431 | 108° | 13km/h | 25973m | 5.0m/s | -49.4°C | 1.2% | 23.2hPa | 2.7V | 00:00:00 | 00:00:00 | 00:00:00 | |
| DB0ND-19 | 2026-09-01 18:09:47 | 49.73989 | 8.27419 | 85° | 9km/h | 25956m | 5.6m/s | -49.3°C | 1.2% | 23.2hPa | 2.7V | 00:00:00 | 00:00:00 | 00:00:00 | |
| DL1XH-15 | 2026-09-01 18:09:46 | 49.73994 | 8.27387 | 104° | 27km/h | 25928m | 5.1m/s | -49.2°C | 3.5% | 23.3hPa | 2.7V | 03:38:20 | 01:39:58 | 00:00:00 | |
| HSKMA3-T | 2026-09-01 18:09:45 | 49.73989 | 8.27415 | 87° | 11km/h | 25950m | 5.2m/s | -49.3°C | 0.9% | 23.3hPa | 2.6V | 03:38:51 | 01:40:02 | 00:00:00 | |
| DL9PN | 2026-09-01 18:09:45 | 49.73989 | 8.27415 | 87° | 9km/h | 25951m | 5.2m/s | -49.3°C | 1.2% | 23.3hPa | 2.6V | 00:00:00 | 00:00:00 | 00:00:00 | |
| DO1YAY-16 | 2026-09-01 18:09:44 | 49.73989 | 8.27410 | 99° | 13km/h | 25945m | 6.3m/s | -49.3°C | 1.2% | 23.3hPa | 2.6V | 00:00:00 | 00:00:00 | 00:00:00 | |
| DL1XH1-15 | 2026-09-01 18:09:43 | 49.73995 | 8.27356 | 87° | 26km/h | 25911m | 5.2m/s | -49.4°C | 3.6% | 23.4hPa | 2.6V | 03:38:23 | 01:39:55 | 00:00:00 | |
| DL1XH-west | 2026-09-01 18:09:43 | 49.73990 | 8.27404 | 108° | 18km/h | 25938m | 6m/s | -49.3°C | 0.9% | 23.3hPa | 2.7V | 03:38:51 | 01:40:00 | 00:00:00 | |
| DO3MHA-11 | 2026-09-01 18:09:42 | 49.73992 | 8.27396 | 109° | 22km/h | 25934m | 4.4m/s | -49.2°C | 3.5% | 23.3hPa | 2.5V | 03:38:00 | 01:39:59 | 00:00:00 | |
| DM0DOS-11 | 2026-09-01 18:09:40 | 49.73995 | 8.27331 | 90° | 16km/h | 25894m | 5.2m/s | -49.4°C | 3.7% | 23.4hPa | 2.5V | 03:38:26 | 01:39:52 | 00:00:00 | |
| BIOWL1-15 | 2026-09-01 18:09:40 | 49.73995 | 8.27376 | 98° | 27km/h | 25923m | 6.6m/s | -49.3°C | 0.9% | 23.4hPa | 2.5V | 03:38:51 | 01:39:57 | 00:00:00 | |
| AA1-15 | 2026-09-01 18:09:39 | 49.73995 | 8.27366 | 90° | 27km/h | 25917m | 5.8m/s | -49.3°C | 0.9% | 23.4hPa | 2.6V | 03:38:51 | 01:39:56 | 00:00:00 | |
| DB0NH | 2026-09-01 18:09:39 | 49.73995 | 8.27366 | 90° | 13km/h | 25917m | 5.7m/s | -49.3°C | 3.5% | 23.4hPa | 2.6V | 00:00:00 | 01:39:56 | 00:00:00 | |
| DB0UT-7 | 2026-09-01 18:09:38 | 49.73995 | 8.27356 | 88° | 13km/h | 25911m | 5.2m/s | -49.3°C | 3.6% | 23.4hPa | 2.7V | 00:00:00 | 00:00:00 | 00:00:00 | |
| DL1XH-15 | 2026-09-01 18:09:36 | 49.73994 | 8.27312 | 96° | 9km/h | 25870m | 6.6m/s | -49.4°C | 3.7% | 23.5hPa | 2.7V | 03:38:30 | 01:39:48 | 00:00:00 | |
| HSKMA3-T | 2026-09-01 18:09:34 | 49.73995 | 8.27325 | 82° | 15km/h | 25888m | 6.6m/s | -49.4°C | 1% | 23.5hPa | 2.6V | 03:38:51 | 01:39:51 | 00:00:00 | |
| DL1XH-west | 2026-09-01 18:09:33 | 49.73994 | 8.27320 | 75° | 13km/h | 25882m | 6.1m/s | -49.4°C | 1% | 23.5hPa | 2.6V | 03:38:51 | 01:39:50 | 00:00:00 | |
| AA1-15 | 2026-09-01 18:09:29 | 49.73995 | 8.27304 | 103° | 11km/h | 25860m | 5.1m/s | -49.5°C | 1% | 23.6hPa | 2.5V | 03:38:51 | 01:39:46 | 00:00:00 | |
| HSKMA3-T | 2026-09-01 18:09:24 | 49.73994 | 8.27279 | 99° | 16km/h | 25832m | 6.1m/s | -49.7°C | 1% | 23.7hPa | 2.7V | 03:38:51 | 01:39:41 | 00:00:00 | |
| CB1BUN | 2026-09-01 18:09:23 | 49.73994 | 8.27279 | 100° | 16km/h | 25832m | 6.1m/s | -49.7°C | 1.2% | 23.7hPa | 2.6V | 03:38:00 | 00:00:00 | 00:00:00 | |
| DL1XH-15 | 2026-09-01 18:09:22 | 49.73998 | 8.27236 | 96° | 9km/h | 25791m | 5.8m/s | -49.7°C | 3.7% | 23.8hPa | 2.6V | 03:38:44 | 01:39:34 | 00:00:00 | |
| DL1XH-west | 2026-09-01 18:09:22 | 49.73996 | 8.27265 | 109° | 18km/h | 25821m | 5m/s | -49.7°C | 1% | 23.7hPa | 2.5V | 03:38:51 | 01:39:39 | 00:00:00 | |
| DO3MHA-11 | 2026-09-01 18:09:22 | 49.73996 | 8.27265 | 110° | 11km/h | 25821m | 5.0m/s | -49.7°C | 3.7% | 23.7hPa | 2.7V | 00:00:00 | 01:39:39 | 00:00:00 | |
| SONDE2-11 | 2026-09-01 18:09:21 | 49.73998 | 8.27259 | 101° | 16km/h | 25815m | 6.3m/s | -49.7°C | 1.2% | 23.7hPa | 2.7V | 00:00:00 | 00:00:00 | 00:00:00 | |
| DM0DOS-11 | 2026-09-01 18:09:19 | 49.73997 | 8.27231 | 347° | 4km/h | 25774m | 5.7m/s | -49.7°C | 3.7% | 23.9hPa | 2.7V | 03:38:47 | 01:39:31 | 00:00:00 | |
| BIOWL1-15 | 2026-09-01 18:09:19 | 49.73998 | 8.27246 | 84° | 15km/h | 25803m | 5.5m/s | -49.7°C | 1% | 23.8hPa | 2.7V | 03:38:51 | 01:39:36 | 00:00:00 | |
| AA1-15 | 2026-09-01 18:09:18 | 49.73998 | 8.27241 | 88° | 13km/h | 25797m | 6.1m/s | -49.7°C | 1% | 23.8hPa | 2.7V | 03:38:51 | 01:39:35 | 00:00:00 | |
| HSKMA3-T | 2026-09-01 18:09:13 | 49.73997 | 8.27232 | 309° | 5km/h | 25768m | 5m/s | -49.7°C | 1% | 23.9hPa | 2.7V | 03:38:51 | 01:39:30 | 00:00:00 | |
| DL1XH-west | 2026-09-01 18:09:11 | 49.73996 | 8.27236 | 247° | 7km/h | 25757m | 6m/s | -49.7°C | 1% | 23.9hPa | 2.5V | 03:38:51 | 01:39:28 | 00:00:00 | |
| DL3AQ-11 | 2026-09-01 18:09:10 | 49.73998 | 8.27242 | 244° | 7km/h | 25746m | 5.5m/s | -49.8°C | 1.2% | 24.0hPa | 2.5V | 00:00:00 | 00:00:00 | 00:00:00 | |
| DM0DOS-11 | 2026-09-01 18:09:09 | 49.73996 | 8.27242 | 76° | 9km/h | 25716m | 5.4m/s | -49.7°C | 3.7% | 24.1hPa | 2.5V | 03:38:57 | 01:39:21 | 00:00:00 | |
| BIOWL1-15 | 2026-09-01 18:09:09 | 49.73998 | 8.27242 | 245° | 7km/h | 25746m | 5.5m/s | -49.8°C | 1% | 24hPa | 2.6V | 03:39:42 | 01:39:26 | 00:00:00 | |
| DL1XH1-15 | 2026-09-01 18:09:08 | 49.73999 | 8.27244 | 269° | 5km/h | 25740m | 6.3m/s | -49.8°C | 3.7% | 24hPa | 2.6V | 03:38:53 | 01:39:25 | 00:00:00 | |
| AA1-15 | 2026-09-01 18:09:07 | 49.73999 | 8.27246 | 317° | 4km/h | 25734m | 5.7m/s | -49.8°C | 1.1% | 24.1hPa | 2.7V | 03:40:33 | 01:39:24 | 00:00:00 | |
| HSKMA3-T | 2026-09-01 18:09:03 | 49.73996 | 8.27238 | 75° | 11km/h | 25711m | 5.6m/s | -49.7°C | 1% | 24.1hPa | 2.5V | 03:39:42 | 01:39:20 | 00:00:00 | |
| DL1XH-15 | 2026-09-01 18:09:02 | 49.73995 | 8.27227 | 199° | 9km/h | 25676m | 5.8m/s | -49.7°C | 3.7% | 24.3hPa | 2.6V | 03:39:04 | 01:39:14 | 00:00:00 | |
| DL1XH-west | 2026-09-01 18:09:01 | 49.73994 | 8.27230 | 54° | 9km/h | 25699m | 4.8m/s | -49.7°C | 0.9% | 24.2hPa | 2.7V | 03:39:42 | 01:39:18 | 00:00:00 | |
| DF2AP-13 | 2026-09-01 18:09:00 | 49.73992 | 8.27227 | 53° | 15km/h | 25694m | 4.6m/s | -49.6°C | 3.7% | 24.1hPa | 2.7V | 00:00:00 | 01:39:17 | 00:00:00 | |
| DM0DOS-11 | 2026-09-01 18:08:59 | 49.74001 | 8.27232 | 200° | 5km/h | 25658m | 5.2m/s | -49.7°C | 3.7% | 24.3hPa | 2.7V | 03:39:07 | 01:39:11 | 00:00:00 | |
| BIOWL1-15 | 2026-09-01 18:08:58 | 49.73993 | 8.27226 | 188° | 5km/h | 25682m | 6.5m/s | -49.7°C | 1% | 24.2hPa | 2.5V | 03:39:42 | 01:39:15 | 00:00:00 | |
| AA1-15 | 2026-09-01 18:08:54 | 49.74001 | 8.27232 | 200° | 5km/h | 25658m | 5.2m/s | -49.7°C | 1% | 24.3hPa | 2.7V | 03:40:33 | 01:39:11 | 00:00:00 | |
| NBG1-10 | 2026-09-01 18:08:54 | 49.74001 | 8.27232 | 201° | 15km/h | 25658m | 5.1m/s | -49.7°C | 3.7% | 24.3hPa | 2.7V | 00:00:00 | 01:39:11 | 00:00:00 | |
| DL1XH-15 | 2026-09-01 18:08:52 | 49.73992 | 8.27202 | 38° | 18km/h | 25617m | 4.6m/s | -49.6°C | 3.7% | 24.5hPa | 2.7V | 03:39:14 | 01:39:04 | 00:00:00 | |
| HSKMA3-T | 2026-09-01 18:08:52 | 49.74002 | 8.27229 | 104° | 9km/h | 25646m | 6.4m/s | -49.7°C | 1% | 24.4hPa | 2.5V | 03:39:42 | 01:39:09 | 00:00:00 | |
| BIOWL1-15 | 2026-09-01 18:08:50 | 49.73995 | 8.27207 | 43° | 20km/h | 25622m | 5.1m/s | -49.7°C | 1% | 24.5hPa | 2.7V | 03:39:42 | 01:39:05 | 00:00:00 | |
| DL1XH-west | 2026-09-01 18:08:50 | 49.74001 | 8.27219 | 68° | 18km/h | 25635m | 5.8m/s | -49.7°C | 1% | 24.4hPa | 2.6V | 03:39:42 | 01:39:07 | 00:00:00 | |
| DL1XH1-15 | 2026-09-01 18:08:49 | 49.73996 | 8.27207 | 43° | 20km/h | 25622m | 5m/s | -49.7°C | 3.7% | 24.5hPa | 2.7V | 03:39:13 | 01:39:05 | 00:00:00 | |
| SSTOLZ84 | 2026-09-01 18:08:48 | 49.73992 | 8.27202 | 38° | 18km/h | 25618m | 4.6m/s | -49.7°C | 1.2% | 24.5hPa | 2.7V | 00:00:00 | 00:00:00 | 00:00:00 | |
| DL3AQ-11 | 2026-09-01 18:08:45 | 49.73987 | 8.27194 | 60° | 11km/h | 25606m | 6.4m/s | -49.7°C | 1.2% | 24.5hPa | 2.7V | 00:00:00 | 00:00:00 | 00:00:00 | |
| DJTTGO | 2026-09-01 18:08:44 | 49.73986 | 8.27193 | 61° | 11km/h | 25606m | 6.4m/s | -49.7°C | 1.2% | 24.5hPa | 2.7V | 00:00:00 | 00:00:00 | 00:00:00 | |
| DL1XH1-15 | 2026-09-01 18:08:43 | 49.73990 | 8.27172 | 100° | 11km/h | 25567m | 5.7m/s | -49.9°C | 3.8% | 24.7hPa | 2.7V | 03:39:23 | 01:38:55 | 00:00:00 | |
| AA1-15 | 2026-09-01 18:08:43 | 49.73986 | 8.27186 | 106° | 9km/h | 25594m | 5.4m/s | -49.9°C | 1% | 24.6hPa | 2.7V | 03:40:33 | 01:39:00 | 00:00:00 | |
| DL9PN | 2026-09-01 18:08:43 | 49.73987 | 8.27183 | 113° | 7km/h | 25589m | 5.7m/s | -50.0°C | 1.2% | 24.6hPa | 2.7V | 00:00:00 | 00:00:00 | 00:00:00 | |
| DL1XH-15 | 2026-09-01 18:08:42 | 49.73990 | 8.27167 | 93° | 18km/h | 25561m | 6.5m/s | -49.9°C | 3.8% | 24.7hPa | 2.7V | 03:39:24 | 01:38:54 | 00:00:00 | |
| HSKMA3-T | 2026-09-01 18:08:41 | 49.73988 | 8.27180 | 121° | 7km/h | 25583m | 6.2m/s | -49.9°C | 1% | 24.6hPa | 2.5V | 03:39:42 | 01:38:58 | 00:00:00 | |
| DL1XH-west | 2026-09-01 18:08:40 | 49.73989 | 8.27178 | 119° | 5km/h | 25577m | 5.2m/s | -49.9°C | 1% | 24.6hPa | 2.6V | 03:39:42 | 01:38:57 | 00:00:00 | |
| BIOWL1-15 | 2026-09-01 18:08:38 | 49.73990 | 8.27172 | 100° | 11km/h | 25567m | 5.7m/s | -49.9°C | 1% | 24.7hPa | 2.7V | 03:39:42 | 01:38:55 | 00:00:00 | |
| DL8DAS-14 | 2026-09-01 18:08:38 | 49.73990 | 8.27167 | 93° | 16km/h | 25561m | 6.5m/s | -49.9°C | 1.3% | 24.7hPa | 2.6V | 00:00:00 | 00:00:00 | 00:00:00 | |
| DO3DL | 2026-09-01 18:08:37 | 49.73990 | 8.27167 | 94° | 18km/h | 25561m | 6.5m/s | -49.9°C | 1.3% | 24.7hPa | 2.6V | 03:39:00 | 00:00:00 | 00:00:00 | |
| HEMX73-11 | 2026-09-01 18:08:35 | 49.73990 | 8.27158 | 86° | 24km/h | 25555m | 5.3m/s | -49.9°C | 1.3% | 24.7hPa | 2.6V | 03:39:00 | 00:00:00 | 00:00:00 | |
| DD1CC2-15 | 2026-09-01 18:08:34 | 49.73989 | 8.27148 | 78° | 29km/h | 25550m | 5.2m/s | -49.9°C | 1.3% | 24.7hPa | 2.6V | 03:39:00 | 00:00:00 | 00:00:00 | |
| DL0LBS | 2026-09-01 18:08:33 | 49.73987 | 8.27136 | 71° | 31km/h | 25544m | 6.3m/s | -49.9°C | 1.3% | 24.8hPa | 2.6V | 03:39:00 | 00:00:00 | 00:00:00 | |
| DL1XH-15 | 2026-09-01 18:08:32 | 49.73967 | 8.27070 | 73° | 20km/h | 25504m | 6.2m/s | -49.7°C | 3.7% | 24.9hPa | 2.6V | 03:39:34 | 01:38:44 | 00:00:00 | |
| BIOWL1-15 | 2026-09-01 18:08:32 | 49.73968 | 8.27077 | 75° | 22km/h | 25510m | 5.6m/s | -49.7°C | 1% | 24.9hPa | 2.5V | 03:39:42 | 01:38:45 | 00:00:00 | |
| AA1-15 | 2026-09-01 18:08:31 | 49.73976 | 8.27105 | 59° | 29km/h | 25528m | 5.5m/s | -49.8°C | 1% | 24.8hPa | 2.7V | 03:40:33 | 01:38:48 | 00:00:00 | |
| DL1XH1-15 | 2026-09-01 18:08:31 | 49.73968 | 8.27077 | 75° | 22km/h | 25510m | 5.5m/s | -49.7°C | 3.7% | 24.9hPa | 2.5V | 03:39:33 | 01:38:45 | 00:00:00 | |
| DL1XH-west | 2026-09-01 18:08:30 | 49.73972 | 8.27095 | 65° | 27km/h | 25522m | 6.6m/s | -49.8°C | 1% | 24.9hPa | 2.7V | 03:39:42 | 01:38:47 | 00:00:00 | |
| DF2AP-13 | 2026-09-01 18:08:30 | 49.73972 | 8.27095 | 66° | 16km/h | 25522m | 6.6m/s | -49.7°C | 3.8% | 24.8hPa | 2.7V | 03:39:00 | 01:38:47 | 00:00:00 | |
| DJ2DS-15 | 2026-09-01 18:08:29 | 49.73970 | 8.27086 | 72° | 18km/h | 25515m | 5.7m/s | -49.7°C | 3.7% | 24.8hPa | 2.5V | 00:00:00 | 01:38:46 | 00:00:00 | |
| BIOWL7-15 | 2026-09-01 18:08:28 | 49.73970 | 8.27086 | 73° | 24km/h | 25515m | 5.8m/s | -49.7°C | 1.2% | 24.9hPa | 2.5V | 00:00:00 | 00:00:00 | 00:00:00 | |
| BIOWL9-15 | 2026-09-01 18:08:27 | 49.73967 | 8.27070 | 73° | 18km/h | 25504m | 6.2m/s | -49.7°C | 1.2% | 24.9hPa | 2.5V | 00:00:00 | 00:00:00 | 00:00:00 | |
| SONCRA | 2026-09-01 18:08:26 | 49.73965 | 8.27063 | 66° | 16km/h | 25497m | 6.5m/s | -49.7°C | 1.2% | 24.9hPa | 2.5V | 00:00:00 | 00:00:00 | 00:00:00 | |
| DL4BBY-15 | 2026-09-01 18:08:25 | 49.73963 | 8.27057 | 59° | 15km/h | 25492m | 5.7m/s | -50.0°C | 0% | 0hPa | 2.5V | 00:00:00 | 00:00:00 | 00:00:00 | |
| DD1CC8 | 2026-09-01 18:08:24 | 49.73958 | 8.27045 | 60° | 18km/h | 25479m | 6.9m/s | -49.7°C | 1.2% | 25.0hPa | 2.5V | 00:00:00 | 00:00:00 | 00:00:00 | |
| DL1XH-15 | 2026-09-01 18:08:22 | 49.73939 | 8.27004 | 43° | 24km/h | 25445m | 5.6m/s | -49.6°C | 3.7% | 25.1hPa | 2.5V | 03:39:44 | 01:38:34 | 00:00:00 | |
| HSKMA3-T | 2026-09-01 18:08:20 | 49.73951 | 8.27024 | 56° | 22km/h | 25462m | 5.7m/s | -49.7°C | 1% | 25.1hPa | 2.7V | 03:39:42 | 01:38:37 | 00:00:00 | |
| DL1XH1-15 | 2026-09-01 18:08:19 | 49.73943 | 8.27011 | 41° | 24km/h | 25450m | 5.1m/s | -49.6°C | 3.7% | 25.1hPa | 2.7V | 03:39:43 | 01:38:35 | 00:00:00 | |
| DL1XH-west | 2026-09-01 18:08:19 | 49.73947 | 8.27017 | 47° | 22km/h | 25456m | 6.3m/s | -49.6°C | 1% | 25.1hPa | 2.7V | 03:39:42 | 01:38:36 | 00:00:00 | |
| DM0DOS-11 | 2026-09-01 18:08:17 | 49.73925 | 8.26976 | 53° | 11km/h | 25417m | 6.2m/s | -49.7°C | 3.7% | 25.2hPa | 2.7V | 03:39:49 | 01:38:29 | 00:00:00 | |
| BIOWL1-15 | 2026-09-01 18:08:17 | 49.73939 | 8.27004 | 43° | 24km/h | 25445m | 5.6m/s | -49.6°C | 1% | 25.1hPa | 2.5V | 03:40:33 | 01:38:34 | 00:00:00 | |
| SSTOLZ84 | 2026-09-01 18:08:17 | 49.73934 | 8.26998 | 49° | 22km/h | 25439m | 6.4m/s | -49.7°C | 1.2% | 25.2hPa | 2.6V | 00:00:00 | 00:00:00 | 00:00:00 | |
| DO3DL | 2026-09-01 18:08:15 | 49.73934 | 8.26998 | 50° | 24km/h | 25439m | 6.4m/s | -49.7°C | 1.2% | 25.2hPa | 2.6V | 03:40:00 | 00:00:00 | 00:00:00 | |
| DF1GD-15 | 2026-09-01 18:08:14 | 49.73931 | 8.26991 | 59° | 20km/h | 25433m | 5.3m/s | -49.6°C | 1.3% | 25.2hPa | 2.6V | 03:40:00 | 00:00:00 | 00:00:00 | |
| DL1XH1-15 | 2026-09-01 18:08:13 | 49.73920 | 8.26962 | 59° | 11km/h | 25393m | 5.4m/s | -49.8°C | 3.7% | 25.3hPa | 2.6V | 03:39:53 | 01:38:25 | 00:00:00 | |
| DL1XH-15 | 2026-09-01 18:08:12 | 49.73919 | 8.26958 | 43° | 11km/h | 25387m | 6.6m/s | -49.8°C | 3.8% | 25.4hPa | 2.7V | 03:39:54 | 01:38:24 | 00:00:00 | |
| HSKMA3-T | 2026-09-01 18:08:10 | 49.73923 | 8.26969 | 65° | 11km/h | 25405m | 7.1m/s | -49.8°C | 1% | 25.3hPa | 2.5V | 03:40:33 | 01:38:27 | 00:00:00 | |
| DL1XH-west | 2026-09-01 18:08:09 | 49.73922 | 8.26965 | 65° | 11km/h | 25399m | 5.5m/s | -49.8°C | 1% | 25.3hPa | 2.5V | 03:40:33 | 01:38:26 | 00:00:00 | |
| BIOWL1-15 | 2026-09-01 18:08:08 | 49.73916 | 8.26956 | 31° | 11km/h | 25381m | 5.3m/s | -49.8°C | 1% | 25.4hPa | 2.7V | 03:40:33 | 01:38:23 | 00:00:00 | |
| AA1-15 | 2026-09-01 18:08:07 | 49.73919 | 8.26958 | 43° | 11km/h | 25387m | 6.6m/s | -49.8°C | 1.1% | 25.4hPa | 2.7V | 03:40:33 | 01:38:24 | 00:00:00 | |
| DL8DAS-14 | 2026-09-01 18:08:07 | 49.73916 | 8.26956 | 31° | 11km/h | 25382m | 5.3m/s | -49.8°C | 1.2% | 25.4hPa | 2.6V | 00:00:00 | 00:00:00 | 00:00:00 | |
| DL3AQ-11 | 2026-09-01 18:08:06 | 49.73914 | 8.26953 | 34° | 13km/h | 25376m | 5.7m/s | -49.8°C | 1.2% | 25.4hPa | 2.6V | 00:00:00 | 00:00:00 | 00:00:00 | |
| DJ2DS-15 | 2026-09-01 18:08:05 | 49.73911 | 8.26950 | 41° | 15km/h | 25370m | 7.0m/s | -49.8°C | 1.2% | 25.5hPa | 2.6V | 00:00:00 | 00:00:00 | 00:00:00 | |
| DF7PN | 2026-09-01 18:08:04 | 49.73908 | 8.26945 | 47° | 15km/h | 25364m | 5.2m/s | -49.8°C | 1.2% | 25.5hPa | 2.6V | 00:00:00 | 00:00:00 | 00:00:00 | |
| AU51GT2 | 2026-09-01 18:08:03 | 49.73908 | 8.26945 | 47° | 15km/h | 25364m | 5.2m/s | -49.8°C | 1.2% | 25.5hPa | 2.6V | 00:00:00 | 00:00:00 | 00:00:00 | |
| DL1XH-15 | 2026-09-01 18:08:02 | 49.73895 | 8.26926 | 71° | 9km/h | 25329m | 5.2m/s | -49.8°C | 3.7% | 25.6hPa | 2.6V | 03:40:04 | 01:38:14 | 00:00:00 | |
| CB1BUN | 2026-09-01 18:08:02 | 49.73906 | 8.26941 | 44° | 16km/h | 25359m | 5.0m/s | -49.8°C | 1.2% | 25.5hPa | 2.5V | 03:40:00 | 00:00:00 | 00:00:00 | |
| DL1XH1-15 | 2026-09-01 18:08:01 | 49.73896 | 8.26930 | 56° | 9km/h | 25335m | 6.9m/s | -49.8°C | 3.7% | 25.6hPa | 2.5V | 03:40:03 | 01:38:15 | 00:00:00 | |
| HSKMA3-T | 2026-09-01 18:08:00 | 49.73900 | 8.26934 | 33° | 11km/h | 25347m | 5.7m/s | -49.8°C | 1% | 25.5hPa | 2.7V | 03:40:33 | 01:38:17 | 00:00:00 | |
| DL1XH-west | 2026-09-01 18:07:58 | 49.73896 | 8.26930 | 57° | 9km/h | 25335m | 6.9m/s | -49.8°C | 1% | 25.6hPa | 2.5V | 03:40:33 | 01:38:15 | 00:00:00 | |
| DM0DOS-11 | 2026-09-01 18:07:57 | 49.73886 | 8.26914 | 24° | 15km/h | 25302m | 5m/s | -49.8°C | 3.7% | 25.7hPa | 2.5V | 03:40:09 | 01:38:09 | 00:00:00 | |
| AA1-15 | 2026-09-01 18:07:56 | 49.73894 | 8.26923 | 70° | 9km/h | 25324m | 4.5m/s | -49.8°C | 1% | 25.6hPa | 2.6V | 03:40:33 | 01:38:13 | 00:00:00 | |
| SONCRA | 2026-09-01 18:07:55 | 49.73893 | 8.26920 | 55° | 7km/h | 25319m | 6.4m/s | -49.8°C | 1.2% | 25.6hPa | 2.7V | 00:00:00 | 00:00:00 | 00:00:00 | |
| DL1ZP-14 | 2026-09-01 18:07:54 | 49.73892 | 8.26917 | 31° | 9km/h | 25313m | 5.9m/s | -49.8°C | 1.2% | 25.7hPa | 2.7V | 00:00:00 | 00:00:00 | 00:00:00 | |
| DD1CC8 | 2026-09-01 18:07:53 | 49.73886 | 8.26914 | 24° | 13km/h | 25302m | 5.0m/s | -49.8°C | 1.2% | 25.7hPa | 2.5V | 00:00:00 | 00:00:00 | 00:00:00 | |
| DL1XH-15 | 2026-09-01 18:07:52 | 49.73872 | 8.26896 | 36° | 11km/h | 25273m | 5.2m/s | -49.7°C | 3.8% | 25.8hPa | 2.5V | 03:40:14 | 01:38:04 | 00:00:00 | |
| DO3MHA-11 | 2026-09-01 18:07:52 | 49.73886 | 8.26914 | 25° | 13km/h | 25303m | 4.9m/s | -49.8°C | 3.7% | 25.7hPa | 2.7V | 00:00:00 | 01:38:09 | 00:00:00 | |
| DH7VM-15 | 2026-09-01 18:07:51 | 49.73886 | 8.26914 | 25° | 15km/h | 25303m | 5.0m/s | -49.8°C | 1.2% | 25.7hPa | 2.7V | 00:00:00 | 00:00:00 | 00:00:00 | |
| DL1XH1-15 | 2026-09-01 18:07:49 | 49.73875 | 8.26899 | 41° | 13km/h | 25279m | 6.7m/s | -49.8°C | 3.8% | 25.8hPa | 2.7V | 03:40:13 | 01:38:05 | 00:00:00 | |
| HSKMA3-T | 2026-09-01 18:07:49 | 49.73877 | 8.26903 | 47° | 15km/h | 25285m | 5.3m/s | -49.8°C | 1% | 25.8hPa | 2.7V | 03:40:33 | 01:38:06 | 00:00:00 | |
| SONDE2-11 | 2026-09-01 18:07:48 | 49.73875 | 8.26899 | 41° | 13km/h | 25279m | 6.7m/s | -49.8°C | 1.2% | 25.8hPa | 2.7V | 00:00:00 | 00:00:00 | 00:00:00 | |
| DM0DOS-11 | 2026-09-01 18:07:47 | 49.73861 | 8.26881 | 43° | 11km/h | 25246m | 5.3m/s | -49.7°C | 3.8% | 25.9hPa | 2.7V | 03:40:19 | 01:37:59 | 00:00:00 | |
| DL1XH-west | 2026-09-01 18:07:47 | 49.73872 | 8.26896 | 36° | 11km/h | 25273m | 5.2m/s | -49.7°C | 1% | 25.8hPa | 2.5V | 03:40:33 | 01:38:04 | 00:00:00 | |
| AA1-15 | 2026-09-01 18:07:46 | 49.73870 | 8.26894 | 31° | 11km/h | 25268m | 4.6m/s | -49.8°C | 1% | 25.8hPa | 2.6V | 03:40:33 | 01:38:03 | 00:00:00 | |
| SSTOLZ84 | 2026-09-01 18:07:45 | 49.73868 | 8.26892 | 39° | 9km/h | 25263m | 6.5m/s | -49.8°C | -1.0% | 25.9hPa | 2.6V | 00:00:00 | 00:00:00 | 00:00:00 | |
| DN1GJH-1 | 2026-09-01 18:07:44 | 49.73868 | 8.26892 | 41° | 11km/h | 25263m | 6.5m/s | -49.8°C | 1.3% | 25.9hPa | 2.6V | 03:40:00 | 00:00:00 | 00:00:00 | |
| DL1XH1-15 | 2026-09-01 18:07:43 | 49.73852 | 8.26878 | 357° | 11km/h | 25223m | 6.4m/s | -49.7°C | 3.8% | 26hPa | 2.6V | 03:40:23 | 01:37:55 | 00:00:00 | |
| DL1XH-15 | 2026-09-01 18:07:42 | 49.73849 | 8.26878 | 8° | 13km/h | 25217m | 5.7m/s | -49.7°C | 3.8% | 26.1hPa | 2.7V | 03:40:24 | 01:37:54 | 00:00:00 | |
| HSKMA3-T | 2026-09-01 18:07:38 | 49.73852 | 8.26878 | 358° | 11km/h | 25223m | 6.4m/s | -49.7°C | 1% | 26hPa | 2.6V | 03:40:33 | 01:37:55 | 00:00:00 | |
| DL1XH-west | 2026-09-01 18:07:36 | 49.73846 | 8.26877 | 10° | 13km/h | 25212m | 5m/s | -49.7°C | 1% | 26.1hPa | 2.7V | 03:40:33 | 01:37:53 | 00:00:00 | |
| BIOWL1-15 | 2026-09-01 18:07:35 | 49.73843 | 8.26877 | 5° | 11km/h | 25206m | 6.6m/s | -49.6°C | 1% | 26.1hPa | 2.7V | 03:40:33 | 01:37:52 | 00:00:00 | |
| DL1XH1-15 | 2026-09-01 18:07:33 | 49.73831 | 8.26865 | 6° | 9km/h | 25166m | 6.7m/s | -49.6°C | 3.7% | 26.2hPa | 2.6V | 03:40:33 | 01:37:45 | 00:00:00 | |
| DL1XH-15 | 2026-09-01 18:07:33 | 49.73828 | 8.26865 | 343° | 11km/h | 25160m | 5.5m/s | -49.6°C | 3.7% | 26.3hPa | 2.6V | 03:40:34 | 01:37:44 | 00:00:00 | |
| HSKMA3-T | 2026-09-01 18:07:28 | 49.73831 | 8.26865 | 6° | 9km/h | 25166m | 6.7m/s | -49.6°C | 1% | 26.3hPa | 2.6V | 03:40:33 | 01:37:45 | 00:00:00 | |
| DL1XH-west | 2026-09-01 18:07:26 | 49.73825 | 8.26867 | 339° | 13km/h | 25155m | 4.7m/s | -49.6°C | 1% | 26.3hPa | 2.7V | 03:41:24 | 01:37:43 | 00:00:00 | |
| BIOWL1-15 | 2026-09-01 18:07:25 | 49.73822 | 8.26868 | 343° | 15km/h | 25150m | 6.6m/s | -49.6°C | 0.9% | 26.3hPa | 2.7V | 03:41:24 | 01:37:42 | 00:00:00 | |
| DJ2KF-10 | 2026-09-01 18:07:25 | 49.73822 | 8.26868 | 344° | 7km/h | 25150m | 6.5m/s | -49.6°C | 3.7% | 26.3hPa | 2.5V | 03:40:00 | 01:37:42 | 00:00:00 | |
| SONCRA | 2026-09-01 18:07:24 | 49.73819 | 8.26870 | 348° | 13km/h | 25144m | 5.5m/s | -49.6°C | 1.2% | 26.4hPa | 2.5V | 00:00:00 | 00:00:00 | 00:00:00 | |
| DL1ZP-14 | 2026-09-01 18:07:23 | 49.73816 | 8.26871 | 351° | 9km/h | 25138m | 5.1m/s | -49.6°C | 1.2% | 26.4hPa | 2.5V | 00:00:00 | 00:00:00 | 00:00:00 | |
| DL1XH-15 | 2026-09-01 18:07:22 | 49.73813 | 8.26863 | 69° | 9km/h | 25105m | 4.7m/s | -49.7°C | 3.8% | 26.5hPa | 2.7V | 03:40:44 | 01:37:34 | 00:00:00 | |
| DD1CC8 | 2026-09-01 18:07:22 | 49.73813 | 8.26871 | 49° | 0km/h | 25127m | 5.0m/s | -49.6°C | 1.2% | 26.4hPa | 2.7V | 00:00:00 | 00:00:00 | 00:00:00 | |
| CB1BUN | 2026-09-01 18:07:20 | 49.73813 | 8.26871 | 122° | 4km/h | 25122m | 4.7m/s | -49.6°C | 1.3% | 26.5hPa | 2.7V | 03:41:00 | 00:00:00 | 00:00:00 | |
| DO3DL | 2026-09-01 18:07:19 | 49.73813 | 8.26871 | 122° | 4km/h | 25122m | 4.7m/s | -49.6°C | 1.3% | 26.5hPa | 2.7V | 03:41:00 | 00:00:00 | 00:00:00 | |
| DM7RM-13 | 2026-09-01 18:07:18 | 49.73813 | 8.26869 | 106° | 7km/h | 25116m | 6.4m/s | -49.7°C | 1.3% | 26.5hPa | 2.7V | 03:41:00 | 00:00:00 | 00:00:00 | |
| DM0DOS-11 | 2026-09-01 18:07:17 | 49.73806 | 8.26861 | 343° | 11km/h | 25078m | 6.3m/s | -49.6°C | 3.7% | 26.6hPa | 2.7V | 03:40:49 | 01:37:29 | 00:00:00 | |
| HSKMA3-T | 2026-09-01 18:07:17 | 49.73813 | 8.26863 | 70° | 9km/h | 25105m | 4.7m/s | -49.7°C | 1% | 26.5hPa | 2.7V | 03:42:15 | 01:37:34 | 00:00:00 | |
| DL1XH-west | 2026-09-01 18:07:15 | 49.73811 | 8.26858 | 24° | 4km/h | 25094m | 6.3m/s | -49.7°C | 1% | 26.5hPa | 2.5V | 03:41:24 | 01:37:32 | 00:00:00 | |
| BIOWL1-15 | 2026-09-01 18:07:14 | 49.73810 | 8.26858 | 340° | 5km/h | 25088m | 4.8m/s | -49.7°C | 1% | 26.6hPa | 2.5V | 03:41:24 | 01:37:31 | 00:00:00 | |
| DO3DL | 2026-09-01 18:07:13 | 49.73808 | 8.26860 | 337° | 9km/h | 25084m | 4.7m/s | -49.7°C | 1.3% | 26.6hPa | 2.7V | 03:41:00 | 00:00:00 | 00:00:00 | |
| DL1XH-15 | 2026-09-01 18:07:12 | 49.73796 | 8.26864 | 308° | 2km/h | 25049m | 5m/s | -49.5°C | 3.7% | 26.7hPa | 2.7V | 03:40:54 | 01:37:24 | 00:00:00 | |
| AA1-15 | 2026-09-01 18:07:08 | 49.73797 | 8.26863 | 323° | 4km/h | 25055m | 5.5m/s | -49.5°C | 0.9% | 26.7hPa | 2.7V | 03:43:06 | 01:37:25 | 00:00:00 | |
| DB0NH | 2026-09-01 18:07:08 | 49.73797 | 8.26863 | 324° | 5km/h | 25055m | 5.5m/s | -49.5°C | 3.6% | 26.7hPa | 2.6V | 00:00:00 | 01:37:25 | 00:00:00 | |
| DM0DOS-11 | 2026-09-01 18:07:07 | 49.73794 | 8.26862 | 337° | 0km/h | 25021m | 5.8m/s | -49.3°C | 3.6% | 26.9hPa | 2.6V | 03:40:59 | 01:37:19 | 00:00:00 | |
| HSKMA3-T | 2026-09-01 18:07:07 | 49.73796 | 8.26864 | 308° | 2km/h | 25049m | 5m/s | -49.5°C | 1% | 26.8hPa | 2.7V | 03:42:15 | 01:37:24 | 00:00:00 | |
| DL1XH-west | 2026-09-01 18:07:05 | 49.73795 | 8.26864 | 49° | 4km/h | 25038m | 5.5m/s | -49.4°C | 1% | 26.8hPa | 2.5V | 03:41:24 | 01:37:22 | 00:00:00 | |
| BIOWL1-15 | 2026-09-01 18:07:03 | 49.73794 | 8.26862 | 53° | 2km/h | 25027m | 6m/s | -49.4°C | 0.9% | 26.8hPa | 2.5V | 03:41:24 | 01:37:20 | 00:00:00 | |
| DL1XH-15 | 2026-09-01 18:07:02 | 49.73785 | 8.26862 | 3° | 13km/h | 24995m | 4.9m/s | -49.3°C | 3.7% | 27hPa | 2.5V | 03:41:04 | 01:37:14 | 00:00:00 | |
| DO3MHA-11 | 2026-09-01 18:07:02 | 49.73794 | 8.26862 | 338° | 5km/h | 25022m | 5.8m/s | -49.3°C | 3.6% | 26.8hPa | 2.6V | 03:40:00 | 01:37:19 | 00:00:00 | |
| DK5PH-5 | 2026-09-01 18:07:01 | 49.73793 | 8.26862 | 325° | 7km/h | 25016m | 4.7m/s | -49.3°C | 3.6% | 26.8hPa | 2.7V | 00:00:00 | 01:37:18 | 00:00:00 | |
| DF2AP-13 | 2026-09-01 18:07:00 | 49.73792 | 8.26863 | 349° | 9km/h | 25012m | 5.0m/s | -49.3°C | 3.6% | 26.8hPa | 2.7V | 00:00:00 | 01:37:17 | 00:00:00 | |
| CB1BUN | 2026-09-01 18:06:59 | 49.73791 | 8.26863 | 2° | 9km/h | 25006m | 6.6m/s | -49.3°C | 1.2% | 26.9hPa | 2.5V | 03:41:00 | 00:00:00 | 00:00:00 | |
| DO3DL | 2026-09-01 18:06:58 | 49.73791 | 8.26863 | 2° | 9km/h | 25006m | 6.6m/s | -49.3°C | 1.2% | 26.9hPa | 2.5V | 03:41:00 | 00:00:00 | 00:00:00 | |
| DM0DOS-11 | 2026-09-01 18:06:57 | 49.73779 | 8.26864 | 142° | 2km/h | 24967m | 5.6m/s | -49.4°C | 3.7% | 27.1hPa | 2.5V | 03:41:09 | 01:37:09 | 00:00:00 | |
| HSKMA3-T | 2026-09-01 18:06:56 | 49.73782 | 8.26862 | 356° | 9km/h | 24989m | 6.2m/s | -49.4°C | 1% | 27hPa | 2.6V | 03:42:15 | 01:37:13 | 00:00:00 | |
| BIOWL1-15 | 2026-09-01 18:06:53 | 49.73779 | 8.26864 | 261° | 0km/h | 24973m | 6.5m/s | -49.4°C | 0.9% | 27.1hPa | 2.5V | 03:41:24 | 01:37:10 | 00:00:00 | |
| DJ2DS-15 | 2026-09-01 18:06:53 | 49.73779 | 8.26864 | 142° | 0km/h | 24967m | 5.6m/s | -49.4°C | 1.2% | 27.1hPa | 2.5V | 00:00:00 | 00:00:00 | 00:00:00 | |
| DL1ZP-14 | 2026-09-01 18:06:52 | 49.73779 | 8.26864 | 142° | 0km/h | 24967m | 5.6m/s | -49.4°C | 1.2% | 27.1hPa | 2.5V | 00:00:00 | 00:00:00 | 00:00:00 | |
| DD1CC8 | 2026-09-01 18:06:51 | 49.73781 | 8.26865 | 201° | 4km/h | 24956m | 6.5m/s | -49.5°C | 1.2% | 27.1hPa | 2.7V | 00:00:00 | 00:00:00 | 00:00:00 | |
| DL6DJ-15 | 2026-09-01 18:06:48 | 49.73784 | 8.26871 | 253° | 5km/h | 24939m | 6.1m/s | -49.5°C | -1.0% | 27.2hPa | 2.7V | 00:00:00 | 00:00:00 | 00:00:00 | |
| DM0DOS-11 | 2026-09-01 18:06:47 | 49.73778 | 8.26880 | 294° | 11km/h | 24911m | 5.5m/s | -49.9°C | 3.7% | 27.3hPa | 2.7V | 03:41:19 | 01:36:59 | 00:00:00 | |
| HSKMA3-T | 2026-09-01 18:06:45 | 49.73783 | 8.26874 | 341° | 7km/h | 24927m | 4.7m/s | -49.6°C | 0.9% | 27.2hPa | 2.5V | 03:42:15 | 01:37:02 | 00:00:00 | |
| DL1XH-west | 2026-09-01 18:06:43 | 49.73779 | 8.26877 | 322° | 9km/h | 24917m | 6.1m/s | -49.8°C | 1% | 27.3hPa | 2.7V | 03:41:24 | 01:37:00 | 00:00:00 | |
| NBG1-10 | 2026-09-01 18:06:43 | 49.73779 | 8.26877 | 322° | 7km/h | 24918m | 6.0m/s | -49.8°C | 3.7% | 27.2hPa | 2.7V | 00:00:00 | 01:37:00 | 00:00:00 | |
| DL1XH-15 | 2026-09-01 18:06:42 | 49.73782 | 8.26895 | 210° | 11km/h | 24885m | 5.3m/s | -49.9°C | 3.7% | 27.4hPa | 2.7V | 03:41:24 | 01:36:54 | 00:00:00 | |
| DO3MHA-11 | 2026-09-01 18:06:42 | 49.73778 | 8.26880 | 295° | 11km/h | 24912m | 5.5m/s | -49.8°C | 3.7% | 27.3hPa | 2.7V | 00:00:00 | 01:36:59 | 00:00:00 | |
| DN1GJH-1 | 2026-09-01 18:06:40 | 49.73777 | 8.26884 | 273° | 11km/h | 24907m | 4.4m/s | -49.9°C | 1.3% | 27.3hPa | 2.7V | 00:00:00 | 00:00:00 | 00:00:00 | |
| DO3DL | 2026-09-01 18:06:38 | 49.73780 | 8.26893 | 217° | 9km/h | 24891m | 5.2m/s | -49.9°C | 1.2% | 27.4hPa | 2.7V | 03:41:00 | 00:00:00 | 00:00:00 | |
| CB1BUN | 2026-09-01 18:06:37 | 49.73780 | 8.26893 | 217° | 9km/h | 24891m | 5.2m/s | -49.9°C | 1.2% | 27.4hPa | 2.7V | 03:41:00 | 00:00:00 | 00:00:00 | |
| DM7RM-13 | 2026-09-01 18:06:36 | 49.73782 | 8.26895 | 211° | 11km/h | 24885m | 5.3m/s | -49.9°C | 1.3% | 27.4hPa | 2.7V | 03:41:00 | 00:00:00 | 00:00:00 | |
| DM0DOS-11 | 2026-09-01 18:06:35 | 49.73796 | 8.26906 | 175° | 9km/h | 24857m | 5.6m/s | -49.8°C | 3.7% | 27.6hPa | 2.7V | 03:41:29 | 01:36:49 | 00:00:00 | |
| AA1-15 | 2026-09-01 18:06:35 | 49.73788 | 8.26901 | 213° | 15km/h | 24874m | 4.6m/s | -49.9°C | 0.9% | 27.4hPa | 2.5V | 03:43:06 | 01:36:52 | 00:00:00 | |
| HSKMA3-T | 2026-09-01 18:06:34 | 49.73791 | 8.26904 | 207° | 13km/h | 24869m | 5m/s | -49.8°C | 1% | 27.5hPa | 2.5V | 03:42:15 | 01:36:51 | 00:00:00 | |
| BIOWL1-15 | 2026-09-01 18:06:34 | 49.73796 | 8.26906 | 175° | 9km/h | 24857m | 5.6m/s | -49.8°C | 1% | 27.6hPa | 2.7V | 03:42:15 | 01:36:49 | 00:00:00 | |
| DL8DAS-14 | 2026-09-01 18:06:34 | 49.73793 | 8.26905 | 194° | 11km/h | 24863m | 6.3m/s | -49.8°C | 1.2% | 27.5hPa | 2.5V | 00:00:00 | 00:00:00 | 00:00:00 | |
| DL1XH1-15 | 2026-09-01 18:06:33 | 49.73798 | 8.26906 | 343° | 4km/h | 24834m | 5.1m/s | -49.9°C | 3.7% | 27.6hPa | 2.5V | 03:41:33 | 01:36:45 | 00:00:00 | |
| DL1XH-west | 2026-09-01 18:06:33 | 49.73793 | 8.26905 | 194° | 11km/h | 24863m | 6.3m/s | -49.8°C | 0.9% | 27.5hPa | 2.5V | 03:42:15 | 01:36:50 | 00:00:00 | |
| DO3MHA-11 | 2026-09-01 18:06:32 | 49.73796 | 8.26906 | 176° | 4km/h | 24858m | 5.5m/s | -49.8°C | 3.7% | 27.5hPa | 2.7V | 00:00:00 | 01:36:49 | 00:00:00 | |
| DK5PH-5 | 2026-09-01 18:06:31 | 49.73798 | 8.26905 | 164° | 7km/h | 24852m | 5.4m/s | -49.8°C | 3.7% | 27.5hPa | 2.5V | 00:00:00 | 01:36:48 | 00:00:00 | |
| DM3KS-11 | 2026-09-01 18:06:30 | 49.73799 | 8.26905 | 305° | 2km/h | 24840m | 5.6m/s | -50.0°C | 1.2% | 27.6hPa | 2.5V | 00:00:00 | 00:00:00 | 00:00:00 | |
| DJ2DS-15 | 2026-09-01 18:06:29 | 49.73799 | 8.26905 | 306° | 7km/h | 24840m | 5.6m/s | -49.9°C | 3.7% | 27.6hPa | 2.5V | 03:41:00 | 01:36:46 | 00:00:00 | |
| DD1CC2-15 | 2026-09-01 18:06:28 | 49.73799 | 8.26905 | 307° | 2km/h | 24840m | 5.6m/s | -50.0°C | 1.2% | 27.6hPa | 2.5V | 03:42:00 | 00:00:00 | 00:00:00 | |
| DM0DOS-11 | 2026-09-01 18:06:27 | 49.73794 | 8.26906 | 238° | 4km/h | 24800m | 5m/s | -50.2°C | 3.7% | 27.8hPa | 2.5V | 03:41:39 | 01:36:39 | 00:00:00 | |
| DL1XH-west | 2026-09-01 18:06:23 | 49.73793 | 8.26904 | 273° | 4km/h | 24806m | 5.5m/s | -50.1°C | 1% | 27.8hPa | 2.7V | 03:42:15 | 01:36:40 | 00:00:00 | |
| DL1XH-15 | 2026-09-01 18:06:22 | 49.73797 | 8.26902 | 100° | 4km/h | 24772m | 4.7m/s | -50.3°C | 3.8% | 27.9hPa | 2.5V | 03:41:44 | 01:36:34 | 00:00:00 | |
| DL1XH1-15 | 2026-09-01 18:06:22 | 49.73796 | 8.26903 | 143° | 4km/h | 24777m | 6.5m/s | -50.3°C | 3.7% | 27.9hPa | 2.7V | 03:41:43 | 01:36:35 | 00:00:00 | |
| BIOWL1-15 | 2026-09-01 18:06:21 | 49.73794 | 8.26906 | 173° | 2km/h | 24795m | 6.6m/s | -50.2°C | 1% | 27.8hPa | 2.5V | 03:42:15 | 01:36:38 | 00:00:00 | |
| HSKMA3-T | 2026-09-01 18:06:20 | 49.73795 | 8.26905 | 140° | 4km/h | 24788m | 5.4m/s | -50.2°C | 1% | 27.8hPa | 2.6V | 03:42:15 | 01:36:37 | 00:00:00 | |
| DF3TZ-5 | 2026-09-01 18:06:20 | 49.73796 | 8.26904 | 135° | 4km/h | 24783m | 5.1m/s | -50.3°C | 1.2% | 27.9hPa | 2.7V | 00:00:00 | 00:00:00 | 00:00:00 | |
| DD1CC8 | 2026-09-01 18:06:19 | 49.73796 | 8.26904 | 135° | 4km/h | 24783m | 5.1m/s | -50.3°C | 1.2% | 27.9hPa | 2.7V | 00:00:00 | 00:00:00 | 00:00:00 | |
| DO3DL | 2026-09-01 18:06:18 | 49.73796 | 8.26904 | 137° | 5km/h | 24784m | 5.1m/s | -50.3°C | 1.2% | 27.8hPa | 2.7V | 03:42:00 | 00:00:00 | 00:00:00 | |
| DM0DOS-11 | 2026-09-01 18:06:17 | 49.73788 | 8.26886 | 26° | 15km/h | 24743m | 6m/s | -50.3°C | 3.8% | 28hPa | 2.7V | 03:41:49 | 01:36:29 | 00:00:00 | |
| DM7RM-13 | 2026-09-01 18:06:16 | 49.73797 | 8.26902 | 102° | 4km/h | 24772m | 4.7m/s | -50.3°C | 1.3% | 27.9hPa | 2.7V | 03:42:00 | 00:00:00 | 00:00:00 | |
| SONDE2-11 | 2026-09-01 18:06:15 | 49.73796 | 8.26897 | 56° | 11km/h | 24760m | 6.0m/s | -50.3°C | 1.2% | 27.9hPa | 2.7V | 00:00:00 | 00:00:00 | 00:00:00 | |
| DB0UT-9 | 2026-09-01 18:06:13 | 49.73793 | 8.26893 | 49° | 15km/h | 24755m | 5.1m/s | -50.3°C | 1.3% | 28.0hPa | 2.7V | 03:42:00 | 00:00:00 | 00:00:00 | |
| DL1XH-15 | 2026-09-01 18:06:12 | 49.73777 | 8.26873 | 92° | 7km/h | 24716m | 4.8m/s | -50.3°C | 3.8% | 28.1hPa | 2.7V | 03:41:54 | 01:36:24 | 00:00:00 | |
| DL1XH-west | 2026-09-01 18:06:12 | 49.73788 | 8.26886 | 26° | 15km/h | 24743m | 6m/s | -50.3°C | 1% | 28hPa | 2.7V | 03:42:15 | 01:36:29 | 00:00:00 | |
| BIOWL1-15 | 2026-09-01 18:06:11 | 49.73784 | 8.26884 | 19° | 15km/h | 24737m | 5.1m/s | -50.3°C | 1% | 28.1hPa | 2.5V | 03:42:15 | 01:36:28 | 00:00:00 | |
| DL1XH1-15 | 2026-09-01 18:06:10 | 49.73777 | 8.26876 | 66° | 9km/h | 24721m | 4.5m/s | -50.3°C | 3.8% | 28.1hPa | 2.6V | 03:41:53 | 01:36:25 | 00:00:00 | |
| AA1-15 | 2026-09-01 18:06:10 | 49.73781 | 8.26882 | 25° | 13km/h | 24732m | 5.4m/s | -50.3°C | 1% | 28.1hPa | 2.5V | 03:43:06 | 01:36:27 | 00:00:00 | |
| HSKMA3-T | 2026-09-01 18:06:09 | 49.73779 | 8.26879 | 44° | 11km/h | 24726m | 6.1m/s | -50.3°C | 1% | 28.1hPa | 2.5V | 03:42:15 | 01:36:26 | 00:00:00 | |
| DJ2DS-15 | 2026-09-01 18:06:09 | 49.73779 | 8.26879 | 44° | 11km/h | 24727m | 6.0m/s | -50.3°C | 3.8% | 28.0hPa | 2.5V | 00:00:00 | 01:36:26 | 00:00:00 | |
| DB0NH | 2026-09-01 18:06:08 | 49.73777 | 8.26876 | 67° | 20km/h | 24721m | 4.5m/s | -50.2°C | 3.8% | 28.1hPa | 2.5V | 03:41:00 | 01:36:25 | 00:00:00 | |
| DO1YAY-16 | 2026-09-01 18:06:07 | 49.73777 | 8.26873 | 92° | 7km/h | 24716m | 4.8m/s | -50.3°C | 1.3% | 28.1hPa | 2.5V | 00:00:00 | 00:00:00 | 00:00:00 | |
| DL3AQ-11 | 2026-09-01 18:06:06 | 49.73778 | 8.26868 | 141° | 5km/h | 24705m | 5.2m/s | -50.3°C | 1.3% | 28.2hPa | 2.5V | 00:00:00 | 00:00:00 | 00:00:00 | |
| DM0DOS-11 | 2026-09-01 18:06:05 | 49.73782 | 8.26861 | 99° | 9km/h | 24688m | 4.4m/s | -50.3°C | 3.8% | 28.3hPa | 2.5V | 03:41:59 | 01:36:19 | 00:00:00 | |
| DL1XH1-15 | 2026-09-01 18:06:03 | 49.73778 | 8.26852 | 31° | 9km/h | 24668m | 5m/s | -50.4°C | 3.7% | 28.3hPa | 2.5V | 03:42:03 | 01:36:15 | 00:00:00 | |
| DL8DAS-14 | 2026-09-01 18:06:03 | 49.73782 | 8.26861 | 99° | 7km/h | 24688m | 4.4m/s | -50.3°C | 1.3% | 28.3hPa | 2.5V | 00:00:00 | 00:00:00 | 00:00:00 | |
| DL1XH-15 | 2026-09-01 18:06:02 | 49.73776 | 8.26849 | 41° | 13km/h | 24662m | 6.5m/s | -50.5°C | 3.7% | 28.4hPa | 2.5V | 03:42:04 | 01:36:14 | 00:00:00 | |
| DL1XH-west | 2026-09-01 18:06:01 | 49.73782 | 8.26858 | 80° | 7km/h | 24683m | 4.8m/s | -50.3°C | 1% | 28.3hPa | 2.7V | 03:42:15 | 01:36:18 | 00:00:00 | |
| AA1-15 | 2026-09-01 18:05:59 | 49.73780 | 8.26853 | 33° | 7km/h | 24673m | 4.8m/s | -50.4°C | 0.9% | 28.3hPa | 2.5V | 03:43:06 | 01:36:16 | 00:00:00 | |
| HSKMA3-T | 2026-09-01 18:05:58 | 49.73778 | 8.26852 | 32° | 9km/h | 24668m | 5m/s | -50.4°C | 1% | 28.4hPa | 2.5V | 03:42:15 | 01:36:15 | 00:00:00 | |
| BIOWL7-15 | 2026-09-01 18:05:57 | 49.73778 | 8.26852 | 33° | 9km/h | 24668m | 5.0m/s | -50.4°C | 1.2% | 28.3hPa | 2.5V | 00:00:00 | 00:00:00 | 00:00:00 | |
| CB1BUN | 2026-09-01 18:05:56 | 49.73774 | 8.26845 | 53° | 16km/h | 24656m | 5.7m/s | -50.5°C | 1.2% | 28.4hPa | 2.5V | 03:42:00 | 00:00:00 | 00:00:00 | |
| DM0DOS-11 | 2026-09-01 18:05:55 | 49.73766 | 8.26824 | 68° | 15km/h | 24634m | 5.2m/s | -50.6°C | 3.8% | 28.5hPa | 2.5V | 03:42:09 | 01:36:09 | 00:00:00 | |
| DJ2KF-10 | 2026-09-01 18:05:55 | 49.73771 | 8.26840 | 58° | 20km/h | 24651m | 4.4m/s | -50.4°C | 3.7% | 28.4hPa | 2.7V | 00:00:00 | 01:36:12 | 00:00:00 | |
| DN1GJH-1 | 2026-09-01 18:05:54 | 49.73771 | 8.26840 | 58° | 18km/h | 24651m | 4.4m/s | -50.5°C | 1.3% | 28.4hPa | 2.7V | 00:00:00 | 00:00:00 | 00:00:00 | |
| DL1XH1-15 | 2026-09-01 18:05:53 | 49.73759 | 8.26801 | 61° | 15km/h | 24612m | 5.8m/s | -50.6°C | 3.7% | 28.6hPa | 2.7V | 03:42:13 | 01:36:05 | 00:00:00 | |
| DL1XH-15 | 2026-09-01 18:05:52 | 49.73758 | 8.26796 | 54° | 11km/h | 24607m | 5.2m/s | -50.7°C | 3.8% | 28.6hPa | 2.7V | 03:42:14 | 01:36:04 | 00:00:00 | |
| DL1XH-west | 2026-09-01 18:05:51 | 49.73764 | 8.26818 | 71° | 16km/h | 24628m | 6.6m/s | -50.6°C | 1% | 28.5hPa | 2.5V | 03:42:15 | 01:36:08 | 00:00:00 | |
| HSKMA3-T | 2026-09-01 18:05:48 | 49.73759 | 8.26801 | 61° | 15km/h | 24612m | 5.8m/s | -50.7°C | 1% | 28.6hPa | 2.7V | 03:42:15 | 01:36:05 | 00:00:00 | |
| DD1CC2-15 | 2026-09-01 18:05:45 | 49.73756 | 8.26793 | 52° | 11km/h | 24602m | 4.3m/s | -50.8°C | 1.3% | 28.6hPa | 2.7V | 03:42:00 | 00:00:00 | 00:00:00 | |
| DO3DL | 2026-09-01 18:05:44 | 49.73754 | 8.26789 | 56° | 15km/h | 24597m | 6.1m/s | -50.8°C | 1.3% | 28.6hPa | 2.7V | 03:43:00 | 00:00:00 | 00:00:00 | |
| DL8OAI-8 | 2026-09-01 18:05:43 | 49.73752 | 8.26783 | 59° | 18km/h | 24591m | 5.5m/s | -50.9°C | 1.3% | 28.7hPa | 2.7V | 03:43:00 | 00:00:00 | 00:00:00 | |
| DL1XH-15 | 2026-09-01 18:05:42 | 49.73721 | 8.26734 | 47° | 27km/h | 24553m | 4.2m/s | -51.1°C | 3.9% | 28.9hPa | 2.7V | 03:42:24 | 01:35:54 | 00:00:00 | |
| DO3MHA-11 | 2026-09-01 18:05:42 | 49.73745 | 8.26770 | 49° | 26km/h | 24581m | 5.7m/s | -50.9°C | 3.8% | 28.7hPa | 2.7V | 03:42:00 | 01:35:59 | 00:00:00 | |
| DL1XH1-15 | 2026-09-01 18:05:41 | 49.73726 | 8.26742 | 47° | 29km/h | 24558m | 5.2m/s | -51.1°C | 3.9% | 28.8hPa | 2.7V | 03:42:23 | 01:35:55 | 00:00:00 | |
| DL1XH-west | 2026-09-01 18:05:41 | 49.73741 | 8.26763 | 42° | 26km/h | 24575m | 5.8m/s | -51°C | 1.1% | 28.8hPa | 2.5V | 03:43:06 | 01:35:58 | 00:00:00 | |
| BIOWL1-15 | 2026-09-01 18:05:40 | 49.73736 | 8.26757 | 40° | 26km/h | 24570m | 5.2m/s | -51°C | 1.1% | 28.8hPa | 2.5V | 03:43:06 | 01:35:57 | 00:00:00 | |
| HSKMA3-T | 2026-09-01 18:05:38 | 49.73726 | 8.26742 | 48° | 29km/h | 24558m | 5.2m/s | -51.1°C | 1.1% | 28.8hPa | 2.7V | 03:43:06 | 01:35:55 | 00:00:00 | |
| AA1-15 | 2026-09-01 18:05:35 | 49.73712 | 8.26721 | 36° | 24km/h | 24543m | 5.6m/s | -51.1°C | 1.1% | 28.9hPa | 2.5V | 03:43:06 | 01:35:52 | 00:00:00 | |
| CB1BUN | 2026-09-01 18:05:34 | 49.73712 | 8.26721 | 37° | 24km/h | 24543m | 5.6m/s | -51.1°C | 1.3% | 28.9hPa | 2.5V | 03:43:00 | 00:00:00 | 00:00:00 | |
| DN1GJH-1 | 2026-09-01 18:05:33 | 49.73707 | 8.26716 | 34° | 22km/h | 24538m | 5.0m/s | -51.1°C | 1.3% | 28.9hPa | 2.5V | 03:43:00 | 00:00:00 | 00:00:00 | |
| DL1XH-15 | 2026-09-01 18:05:32 | 49.73679 | 8.26684 | 36° | 16km/h | 24498m | 6.5m/s | -51.3°C | 4% | 29.1hPa | 2.5V | 03:42:34 | 01:35:44 | 00:00:00 | |
| BIOWL1-15 | 2026-09-01 18:05:31 | 49.73686 | 8.26691 | 30° | 16km/h | 24510m | 6m/s | -51.3°C | 1.1% | 29hPa | 2.7V | 03:43:06 | 01:35:46 | 00:00:00 | |
| DL1XH-west | 2026-09-01 18:05:30 | 49.73690 | 8.26695 | 37° | 18km/h | 24516m | 6.3m/s | -51.3°C | 1.1% | 29hPa | 2.7V | 03:43:06 | 01:35:47 | 00:00:00 | |
| DL1XH1-15 | 2026-09-01 18:05:30 | 49.73683 | 8.26688 | 29° | 16km/h | 24504m | 5.3m/s | -51.3°C | 3.9% | 29.1hPa | 2.5V | 03:42:33 | 01:35:45 | 00:00:00 | |
| HSKMA3-T | 2026-09-01 18:05:27 | 49.73679 | 8.26684 | 37° | 16km/h | 24498m | 6.5m/s | -51.3°C | 1.1% | 29.1hPa | 2.5V | 03:43:06 | 01:35:44 | 00:00:00 | |
| DM0DOS-11 | 2026-09-01 18:05:25 | 49.73662 | 8.26666 | 23° | 18km/h | 24472m | 4.6m/s | -51.4°C | 4% | 29.2hPa | 2.5V | 03:42:39 | 01:35:39 | 00:00:00 | |
| DJ2KF-10 | 2026-09-01 18:05:25 | 49.73673 | 8.26676 | 41° | 20km/h | 24489m | 4.0m/s | -51.3°C | 4.0% | 29.1hPa | 2.7V | 03:42:00 | 01:35:42 | 00:00:00 | |
| DB0NH | 2026-09-01 18:05:24 | 49.73669 | 8.26672 | 35° | 18km/h | 24484m | 6.1m/s | -51.3°C | 4.0% | 29.1hPa | 2.7V | 00:00:00 | 01:35:41 | 00:00:00 | |
| DL1XH1-15 | 2026-09-01 18:05:23 | 49.73643 | 8.26651 | 27° | 22km/h | 24452m | 5.5m/s | -51.4°C | 4% | 29.3hPa | 2.7V | 03:42:43 | 01:35:35 | 00:00:00 | |
| DL1XH-15 | 2026-09-01 18:05:22 | 49.73639 | 8.26647 | 18° | 20km/h | 24446m | 5.7m/s | -51.4°C | 4% | 29.3hPa | 2.5V | 03:42:44 | 01:35:34 | 00:00:00 | |
| DL1XH-west | 2026-09-01 18:05:20 | 49.73653 | 8.26659 | 31° | 22km/h | 24462m | 5.5m/s | -51.4°C | 1.2% | 29.3hPa | 2.7V | 03:43:06 | 01:35:37 | 00:00:00 | |
| BIOWL1-15 | 2026-09-01 18:05:18 | 49.73644 | 8.26651 | 27° | 22km/h | 24452m | 5.5m/s | -51.4°C | 1.2% | 29.3hPa | 2.7V | 03:43:06 | 01:35:35 | 00:00:00 | |
| HSKMA3-T | 2026-09-01 18:05:17 | 49.73639 | 8.26647 | 18° | 20km/h | 24446m | 5.7m/s | -51.4°C | 1.2% | 29.4hPa | 2.5V | 03:43:06 | 01:35:34 | 00:00:00 | |
| DM7RM-13 | 2026-09-01 18:05:16 | 49.73638 | 8.26647 | 19° | 20km/h | 24446m | 5.7m/s | -51.4°C | 1.4% | 29.3hPa | 2.7V | 03:43:00 | 00:00:00 | 00:00:00 | |
| DM0DOS-11 | 2026-09-01 18:05:15 | 49.73610 | 8.26639 | 4° | 24km/h | 24419m | 6.3m/s | -51.2°C | 4% | 29.5hPa | 2.7V | 03:42:49 | 01:35:29 | 00:00:00 | |
| CB1BUN | 2026-09-01 18:05:14 | 49.73628 | 8.26644 | 12° | 22km/h | 24435m | 5.7m/s | -51.3°C | 1.3% | 29.4hPa | 2.7V | 03:43:00 | 00:00:00 | 00:00:00 | |
| SONDE2-11 | 2026-09-01 18:05:13 | 49.73616 | 8.26640 | 10° | 24km/h | 24424m | 4.2m/s | -51.3°C | 1.3% | 29.4hPa | 2.7V | 00:00:00 | 00:00:00 | 00:00:00 | |
| DL1XH-15 | 2026-09-01 18:05:12 | 49.73585 | 8.26636 | 11° | 18km/h | 24392m | 4.3m/s | -51.2°C | 4% | 29.6hPa | 2.7V | 03:42:54 | 01:35:24 | 00:00:00 | |
| DO3MHA-11 | 2026-09-01 18:05:12 | 49.73610 | 8.26638 | 5° | 18km/h | 24419m | 6.2m/s | -51.2°C | 4.0% | 29.4hPa | 2.5V | 00:00:00 | 01:35:29 | 00:00:00 | |
| DL1XH1-15 | 2026-09-01 18:05:11 | 49.73590 | 8.26637 | 12° | 18km/h | 24396m | 4.4m/s | -51.2°C | 4% | 29.6hPa | 2.5V | 03:42:53 | 01:35:25 | 00:00:00 | |
| AA1-15 | 2026-09-01 18:05:11 | 49.73605 | 8.26638 | 359° | 22km/h | 24413m | 5.8m/s | -51.3°C | 1.2% | 0hPa | 2.7V | 03:43:06 | 01:35:28 | 00:00:00 | |
| BIOWL1-15 | 2026-09-01 18:05:10 | 49.73590 | 8.26637 | 12° | 18km/h | 24396m | 4.4m/s | -51.2°C | 1.1% | 29.6hPa | 2.5V | 03:43:06 | 01:35:25 | 00:00:00 | |
| DL1XH-west | 2026-09-01 18:05:10 | 49.73599 | 8.26638 | 359° | 20km/h | 24407m | 5.4m/s | -51.2°C | 1.1% | 29.5hPa | 2.5V | 03:43:06 | 01:35:27 | 00:00:00 | |
| HSKMA3-T | 2026-09-01 18:05:06 | 49.73581 | 8.26634 | 6° | 16km/h | 24386m | 6.2m/s | -51.3°C | 1.2% | 29.6hPa | 2.7V | 03:43:06 | 01:35:23 | 00:00:00 | |
| DO1YAY-16 | 2026-09-01 18:05:05 | 49.73573 | 8.26635 | 352° | 15km/h | 24376m | 4.9m/s | -51.2°C | 1.4% | 29.7hPa | 2.5V | 00:00:00 | 00:00:00 | 00:00:00 | |
| DJTTGO | 2026-09-01 18:05:04 | 49.73573 | 8.26635 | 354° | 15km/h | 24376m | 4.9m/s | -51.2°C | 1.4% | 29.7hPa | 2.5V | 03:43:00 | 00:00:00 | 00:00:00 | |
| DO3DL | 2026-09-01 18:05:03 | 49.73573 | 8.26635 | 354° | 15km/h | 24376m | 4.9m/s | -51.2°C | 1.4% | 29.7hPa | 2.5V | 03:43:00 | 00:00:00 | 00:00:00 | |
| DL1XH-15 | 2026-09-01 18:05:02 | 49.73541 | 8.26638 | 353° | 18km/h | 24337m | 6m/s | -51.2°C | 4% | 29.8hPa | 2.5V | 03:43:04 | 01:35:14 | 00:00:00 | |
| DL1XH-west | 2026-09-01 18:05:00 | 49.73555 | 8.26635 | 358° | 20km/h | 24354m | 6m/s | -51.2°C | 1.2% | 29.8hPa | 2.7V | 03:43:06 | 01:35:17 | 00:00:00 | |
| BIOWL1-15 | 2026-09-01 18:05:00 | 49.73545 | 8.26637 | 349° | 18km/h | 24342m | 4.8m/s | -51.2°C | 1.2% | 29.8hPa | 2.5V | 03:43:06 | 01:35:15 | 00:00:00 | |
| DL1XH1-15 | 2026-09-01 18:04:59 | 49.73545 | 8.26637 | 348° | 18km/h | 24342m | 4.8m/s | -51.2°C | 4% | 29.8hPa | 2.5V | 03:43:03 | 01:35:15 | 00:00:00 | |
| DM0DOS-11 | 2026-09-01 18:04:55 | 49.73520 | 8.26641 | 342° | 15km/h | 24310m | 4.2m/s | -51.2°C | 4% | 30hPa | 2.5V | 03:43:09 | 01:35:09 | 00:00:00 | |
| HSKMA3-T | 2026-09-01 18:04:55 | 49.73531 | 8.26639 | 360° | 18km/h | 24326m | 5m/s | -51.2°C | 1.1% | 29.9hPa | 2.7V | 03:43:06 | 01:35:12 | 00:00:00 | |
| DJ2KF-10 | 2026-09-01 18:04:55 | 49.73531 | 8.26638 | 360° | 18km/h | 24326m | 4.9m/s | -51.2°C | 4.0% | 29.8hPa | 2.7V | 00:00:00 | 01:35:12 | 00:00:00 | |
| DL1XH1-15 | 2026-09-01 18:04:53 | 49.73503 | 8.26648 | 338° | 18km/h | 24290m | 5.6m/s | -51.1°C | 3.9% | 30.1hPa | 2.7V | 03:43:13 | 01:35:05 | 00:00:00 | |
| DB0NH | 2026-09-01 18:04:53 | 49.73523 | 8.26640 | 348° | 18km/h | 24315m | 5.1m/s | -51.2°C | 4.0% | 29.9hPa | 2.7V | 00:00:00 | 01:35:10 | 00:00:00 | |
| DL1XH-15 | 2026-09-01 18:04:52 | 49.73499 | 8.26651 | 327° | 18km/h | 24284m | 5.8m/s | -51.1°C | 3.9% | 30.1hPa | 2.7V | 03:43:14 | 01:35:04 | 00:00:00 | |
| DL1XH-west | 2026-09-01 18:04:49 | 49.73507 | 8.26645 | 346° | 18km/h | 24295m | 4.3m/s | -51.2°C | 1.1% | 30hPa | 2.6V | 03:43:57 | 01:35:06 | 00:00:00 | |
| BIOWL1-15 | 2026-09-01 18:04:47 | 49.73499 | 8.26651 | 327° | 18km/h | 24284m | 5.8m/s | -51.1°C | 1.1% | 30.1hPa | 2.7V | 03:43:57 | 01:35:04 | 00:00:00 | |
| HSKMA3-T | 2026-09-01 18:04:45 | 49.73492 | 8.26658 | 324° | 16km/h | 24274m | 5.8m/s | -51.1°C | 1.1% | 30.1hPa | 2.5V | 03:43:57 | 01:35:02 | 00:00:00 | |
| DM0DOS-11 | 2026-09-01 18:04:44 | 49.73481 | 8.26669 | 322° | 16km/h | 24257m | 6m/s | -51°C | 3.9% | 30.2hPa | 2.7V | 03:43:19 | 01:34:59 | 00:00:00 | |
| DJTTGO | 2026-09-01 18:04:43 | 49.73488 | 8.26662 | 332° | 16km/h | 24268m | 5.6m/s | -51.0°C | 1.3% | 30.2hPa | 2.7V | 03:43:00 | 00:00:00 | 00:00:00 | |
| DL1XH-15 | 2026-09-01 18:04:42 | 49.73466 | 8.26688 | 342° | 16km/h | 24232m | 4.2m/s | -51°C | 3.9% | 30.3hPa | 2.7V | 03:43:24 | 01:34:54 | 00:00:00 | |
| DO3MHA-11 | 2026-09-01 18:04:42 | 49.73481 | 8.26669 | 323° | 16km/h | 24258m | 5.9m/s | -50.9°C | 3.9% | 30.2hPa | 2.5V | 00:00:00 | 01:34:59 | 00:00:00 | |
| DL1XH1-15 | 2026-09-01 18:04:41 | 49.73470 | 8.26685 | 334° | 15km/h | 24236m | 5.6m/s | -51°C | 3.9% | 30.3hPa | 2.5V | 03:43:23 | 01:34:55 | 00:00:00 | |
| DL1XH-west | 2026-09-01 18:04:39 | 49.73473 | 8.26682 | 319° | 15km/h | 24242m | 5.7m/s | -51°C | 1% | 30.3hPa | 2.5V | 03:43:57 | 01:34:56 | 00:00:00 | |
| BIOWL1-15 | 2026-09-01 18:04:36 | 49.73462 | 8.26690 | 342° | 16km/h | 24227m | 4.7m/s | -51°C | 1.2% | 30.4hPa | 2.7V | 03:43:57 | 01:34:53 | 00:00:00 | |
| HSKMA3-T | 2026-09-01 18:04:35 | 49.73458 | 8.26692 | 335° | 16km/h | 24222m | 5.7m/s | -51°C | 1.1% | 30.4hPa | 2.7V | 03:43:57 | 01:34:52 | 00:00:00 | |
| DL9PN | 2026-09-01 18:04:34 | 49.73454 | 8.26695 | 325° | 15km/h | 24216m | 5.4m/s | -51.0°C | 1.3% | 30.4hPa | 2.5V | 00:00:00 | 00:00:00 | 00:00:00 | |
| CB1BUN | 2026-09-01 18:04:33 | 49.73454 | 8.26695 | 327° | 15km/h | 24217m | 5.4m/s | -51.0°C | 1.3% | 30.4hPa | 2.5V | 03:43:00 | 00:00:00 | 00:00:00 | |
| DL1XH-15 | 2026-09-01 18:04:32 | 49.73423 | 8.26709 | 343° | 27km/h | 24179m | 4.7m/s | -51.1°C | 3.8% | 30.6hPa | 2.5V | 03:43:34 | 01:34:44 | 00:00:00 | |
| DL1XH-west | 2026-09-01 18:04:28 | 49.73429 | 8.26707 | 345° | 24km/h | 24184m | 5.6m/s | -51.1°C | 1% | 30.6hPa | 2.7V | 03:43:57 | 01:34:45 | 00:00:00 | |
| BIOWL1-15 | 2026-09-01 18:04:27 | 49.73409 | 8.26715 | 350° | 33km/h | 24167m | 5m/s | -51.1°C | 1.1% | 30.6hPa | 2.5V | 03:43:57 | 01:34:42 | 00:00:00 | |
| HSKMA3-T | 2026-09-01 18:04:24 | 49.73401 | 8.26717 | 347° | 31km/h | 24163m | 4.6m/s | -51.1°C | 1.1% | 30.7hPa | 2.7V | 03:43:57 | 01:34:41 | 00:00:00 | |
| DJTTGO | 2026-09-01 18:04:23 | 49.73393 | 8.26720 | 343° | 29km/h | 24158m | 6.4m/s | -51.1°C | 1.3% | 30.7hPa | 2.7V | 03:43:00 | 00:00:00 | 00:00:00 | |
| DL1XH-15 | 2026-09-01 18:04:22 | 49.73372 | 8.26735 | 351° | 5km/h | 24126m | 4.9m/s | -50.9°C | 3.8% | 30.8hPa | 2.7V | 03:43:44 | 01:34:34 | 00:00:00 | |
| AA1-15 | 2026-09-01 18:04:17 | 49.73372 | 8.26735 | 352° | 7km/h | 24126m | 4.9m/s | 0°C | 0% | 0hPa | 2.7V | 18:12:15 | 01:34:34 | 00:00:00 | |
| BIOWL1-15 | 2026-09-01 18:04:15 | 49.73370 | 8.26737 | 326° | 7km/h | 24115m | 4.7m/s | -50.9°C | 1.1% | 30.9hPa | 2.5V | 03:43:57 | 01:34:32 | 00:00:00 | |
| DM0DOS-11 | 2026-09-01 18:04:14 | 49.73359 | 8.26742 | 352° | 24km/h | 24098m | 5.8m/s | -51°C | 3.9% | 31hPa | 2.7V | 03:43:49 | 01:34:29 | 00:00:00 | |
| HSKMA3-T | 2026-09-01 18:04:13 | 49.73364 | 8.26741 | 348° | 16km/h | 24104m | 6.5m/s | -51°C | 1.1% | 31hPa | 2.6V | 03:43:57 | 01:34:30 | 00:00:00 | |
| DL1XH-15 | 2026-09-01 18:04:12 | 49.73322 | 8.26752 | 349° | 33km/h | 24070m | 4.8m/s | -51.4°C | 3.8% | 31.1hPa | 2.5V | 03:43:54 | 01:34:24 | 00:00:00 | |
| DO3MHA-11 | 2026-09-01 18:04:12 | 49.73359 | 8.26742 | 353° | 26km/h | 24099m | 5.7m/s | -51.0°C | 3.9% | 30.9hPa | 2.5V | 00:00:00 | 01:34:29 | 00:00:00 | |
| DL1XH1-15 | 2026-09-01 18:04:11 | 49.73330 | 8.26750 | 349° | 33km/h | 24076m | 6.4m/s | -51.4°C | 3.9% | 31.1hPa | 2.5V | 03:43:53 | 01:34:25 | 00:00:00 | |
| DL1XH-west | 2026-09-01 18:04:07 | 49.73322 | 8.26752 | 350° | 33km/h | 24070m | 4.9m/s | -51.4°C | 1% | 31.1hPa | 2.5V | 03:43:57 | 01:34:24 | 00:00:00 | |
| AA1-15 | 2026-09-01 18:04:06 | 49.73315 | 8.26754 | 346° | 27km/h | 24065m | 4.3m/s | 0°C | 0% | 0hPa | 2.7V | 18:12:15 | 01:34:23 | 00:00:00 | |
| BIOWL1-15 | 2026-09-01 18:04:05 | 49.73309 | 8.26757 | 338° | 22km/h | 24060m | 6.4m/s | -51.5°C | 1.1% | 31.2hPa | 2.7V | 03:43:57 | 01:34:22 | 00:00:00 | |
| DM0DOS-11 | 2026-09-01 18:04:04 | 49.73299 | 8.26767 | 325° | 9km/h | 24043m | 6m/s | -51.7°C | 4% | 31.2hPa | 2.6V | 03:43:59 | 01:34:19 | 00:00:00 | |
| HSKMA3-T | 2026-09-01 18:04:03 | 49.73302 | 8.26764 | 319° | 11km/h | 24049m | 5.3m/s | -51.6°C | 1.1% | 31.2hPa | 2.5V | 03:44:48 | 01:34:20 | 00:00:00 | |
| DO1YAY-16 | 2026-09-01 18:04:03 | 49.73300 | 8.26767 | 325° | 7km/h | 24044m | 6.0m/s | -51.7°C | 1.3% | 31.2hPa | 2.5V | 00:00:00 | 00:00:00 | 00:00:00 | |
| DL1XH-15 | 2026-09-01 18:04:02 | 49.73285 | 8.26776 | 345° | 22km/h | 24018m | 4.9m/s | -51.8°C | 4% | 31.4hPa | 2.5V | 03:44:04 | 01:34:14 | 00:00:00 | |
| DL1XH-west | 2026-09-01 18:03:56 | 49.73279 | 8.26777 | 354° | 27km/h | 24013m | 6.4m/s | -51.8°C | 1.2% | 31.4hPa | 2.5V | 03:44:48 | 01:34:13 | 00:00:00 | |
| DJ2KF-10 | 2026-09-01 18:03:55 | 49.73271 | 8.26778 | 359° | 22km/h | 24007m | 5.4m/s | -51.8°C | 4.0% | 31.4hPa | 2.6V | 00:00:00 | 01:34:12 | 00:00:00 | |
| DM0DOS-11 | 2026-09-01 18:03:54 | 49.73248 | 8.26781 | 347° | 29km/h | 23990m | 5.4m/s | -51.8°C | 4% | 31.5hPa | 2.7V | 03:44:09 | 01:34:09 | 00:00:00 | |
| BIOWL1-15 | 2026-09-01 18:03:54 | 49.73263 | 8.26778 | 358° | 33km/h | 24001m | 5m/s | -51.8°C | 1.2% | 31.4hPa | 2.7V | 03:44:48 | 01:34:11 | 00:00:00 | |
| DB0NH | 2026-09-01 18:03:53 | 49.73255 | 8.26779 | 355° | 18km/h | 23996m | 6.5m/s | -51.7°C | 4.0% | 31.4hPa | 2.5V | 03:44:00 | 01:34:10 | 00:00:00 | |
| DO3MHA-11 | 2026-09-01 18:03:52 | 49.73248 | 8.26781 | 348° | 22km/h | 23990m | 5.3m/s | -51.7°C | 4.0% | 31.4hPa | 2.5V | 00:00:00 | 01:34:09 | 00:00:00 | |
| DL1XH-15 | 2026-09-01 18:03:50 | 49.73209 | 8.26799 | 332° | 20km/h | 23950m | 4.7m/s | -51.7°C | 4.1% | 31.7hPa | 2.5V | 03:44:16 | 01:34:02 | 00:00:00 | |
| DL1XH-west | 2026-09-01 18:03:46 | 49.73213 | 8.26795 | 332° | 20km/h | 23955m | 5.9m/s | -51.7°C | 1.2% | 31.6hPa | 2.5V | 03:44:48 | 01:34:03 | 00:00:00 | |
| DL1ZP-14 | 2026-09-01 18:03:46 | 49.73209 | 8.26799 | 332° | 20km/h | 23950m | 4.7m/s | -51.7°C | 1.4% | 31.7hPa | 2.5V | 00:00:00 | 00:00:00 | 00:00:00 | |
| DM0DOS-11 | 2026-09-01 18:03:44 | 49.73195 | 8.26807 | 344° | 20km/h | 23934m | 4.8m/s | -51.8°C | 4% | 31.8hPa | 2.7V | 03:44:19 | 01:33:59 | 00:00:00 | |
| BIOWL1-15 | 2026-09-01 18:03:43 | 49.73199 | 8.26805 | 345° | 20km/h | 23939m | 4.9m/s | -51.7°C | 1.2% | 31.8hPa | 2.7V | 03:44:48 | 01:34:00 | 00:00:00 | |
| DL1XH1-15 | 2026-09-01 18:03:42 | 49.73175 | 8.26819 | 340° | 22km/h | 23912m | 5.7m/s | -51.8°C | 4% | 31.9hPa | 2.5V | 03:44:23 | 01:33:55 | 00:00:00 | |
| DO3MHA-11 | 2026-09-01 18:03:42 | 49.73194 | 8.26806 | 345° | 24km/h | 23934m | 4.8m/s | -51.7°C | 4.0% | 31.7hPa | 2.7V | 03:44:00 | 01:33:59 | 00:00:00 | |
| DL1XH-15 | 2026-09-01 18:03:40 | 49.73157 | 8.26828 | 335° | 29km/h | 23896m | 6.7m/s | -51.9°C | 4% | 32hPa | 2.7V | 03:44:26 | 01:33:52 | 00:00:00 | |
| DL1XH-west | 2026-09-01 18:03:35 | 49.73157 | 8.26828 | 335° | 29km/h | 23896m | 6.7m/s | -51.9°C | 1.2% | 32hPa | 2.7V | 03:44:48 | 01:33:52 | 00:00:00 | |
| DM0DOS-11 | 2026-09-01 18:03:34 | 49.73140 | 8.26845 | 325° | 24km/h | 23879m | 6.3m/s | -51.9°C | 4.1% | 32hPa | 2.5V | 03:44:29 | 01:33:49 | 00:00:00 | |
| AA1-15 | 2026-09-01 18:03:33 | 49.73145 | 8.26839 | 326° | 27km/h | 23885m | 4.9m/s | 0°C | 0% | 0hPa | 2.5V | 18:12:15 | 01:33:50 | 00:00:00 | |
| DO3MHA-11 | 2026-09-01 18:03:32 | 49.73140 | 8.26845 | 326° | 16km/h | 23880m | 6.3m/s | -51.8°C | 4.1% | 32.0hPa | 2.5V | 00:00:00 | 01:33:49 | 00:00:00 | |
| DL1XH1-15 | 2026-09-01 18:03:31 | 49.73129 | 8.26867 | 287° | 16km/h | 23857m | 4.8m/s | -51.8°C | 4.1% | 32.2hPa | 2.5V | 03:44:33 | 01:33:45 | 00:00:00 | |
| DK5PH-5 | 2026-09-01 18:03:31 | 49.73135 | 8.26850 | 318° | 16km/h | 23874m | 4.9m/s | -51.8°C | 4.1% | 32.0hPa | 2.7V | 03:44:00 | 01:33:48 | 00:00:00 | |
| DL1XH-15 | 2026-09-01 18:03:30 | 49.73124 | 8.26885 | 302° | 15km/h | 23834m | 6.7m/s | -51.8°C | 3.9% | 32.3hPa | 2.7V | 03:44:37 | 01:33:41 | 00:00:00 | |
| HSKMA3-T | 2026-09-01 18:03:29 | 49.73130 | 8.26861 | 293° | 16km/h | 23862m | 5.9m/s | -51.8°C | 1.2% | 32.1hPa | 2.7V | 03:44:48 | 01:33:46 | 00:00:00 | |
| BIOWL1-15 | 2026-09-01 18:03:24 | 49.73118 | 8.26895 | 319° | 18km/h | 23823m | 5.6m/s | -51.7°C | 1.1% | 32.4hPa | 2.5V | 03:44:48 | 01:33:39 | 00:00:00 | |
| DM0DOS-11 | 2026-09-01 18:03:24 | 49.73118 | 8.26895 | 318° | 18km/h | 23823m | 5.6m/s | -51.7°C | 3.9% | 32.3hPa | 2.5V | 03:44:39 | 01:33:39 | 00:00:00 | |
| DL1XH-west | 2026-09-01 18:03:24 | 49.73123 | 8.26885 | 302° | 15km/h | 23834m | 6.7m/s | -51.8°C | 1.1% | 32.3hPa | 2.7V | 03:44:48 | 01:33:41 | 00:00:00 | |
| DM3KS-11 | 2026-09-01 18:03:23 | 49.73121 | 8.26890 | 309° | 16km/h | 23828m | 5.0m/s | -51.8°C | 1.3% | 32.3hPa | 2.7V | 00:00:00 | 00:00:00 | 00:00:00 | |
| DO3MHA-11 | 2026-09-01 18:03:22 | 49.73118 | 8.26895 | 319° | 18km/h | 23823m | 5.6m/s | -51.7°C | 3.9% | 32.3hPa | 2.7V | 00:00:00 | 01:33:39 | 00:00:00 | |
| DD1CC2-15 | 2026-09-01 18:03:21 | 49.73118 | 8.26895 | 320° | 18km/h | 23823m | 5.6m/s | -51.7°C | 1.3% | 32.3hPa | 2.7V | 03:44:00 | 00:00:00 | 00:00:00 | |
| DL1XH1-15 | 2026-09-01 18:03:19 | 49.73101 | 8.26910 | 323° | 20km/h | 23802m | 5.6m/s | -51.6°C | 3.9% | 32.4hPa | 2.7V | 03:44:43 | 01:33:35 | 00:00:00 | |
| HSKMA3-T | 2026-09-01 18:03:19 | 49.73101 | 8.26910 | 323° | 20km/h | 23802m | 5.6m/s | -51.6°C | 1.1% | 32.4hPa | 2.7V | 03:44:48 | 01:33:35 | 00:00:00 | |
| BIOWL9-15 | 2026-09-01 18:03:17 | 49.73098 | 8.26915 | 310° | 18km/h | 23796m | 6.0m/s | -51.7°C | 1.3% | 32.5hPa | 2.7V | 00:00:00 | 00:00:00 | 00:00:00 | |
| DL1XH-15 | 2026-09-01 18:03:16 | 49.73093 | 8.26950 | 275° | 18km/h | 23762m | 5.2m/s | -51.8°C | 4% | 32.6hPa | 2.7V | 03:44:50 | 01:33:28 | 00:00:00 | |
| DO3DL | 2026-09-01 18:03:15 | 49.73095 | 8.26921 | 297° | 16km/h | 23791m | 4.7m/s | -51.7°C | 1.3% | 32.5hPa | 2.7V | 03:44:00 | 00:00:00 | 00:00:00 | |
| DM0DOS-11 | 2026-09-01 18:03:14 | 49.73093 | 8.26943 | 268° | 16km/h | 23768m | 6.7m/s | -51.8°C | 4% | 32.6hPa | 2.7V | 03:44:49 | 01:33:29 | 00:00:00 | |
| DL1XH-west | 2026-09-01 18:03:14 | 49.73093 | 8.26931 | 276° | 13km/h | 23779m | 5.1m/s | -51.7°C | 1.1% | 32.5hPa | 2.5V | 03:44:48 | 01:33:31 | 00:00:00 | |
| BIOWL1-15 | 2026-09-01 18:03:12 | 49.73093 | 8.26943 | 269° | 16km/h | 23768m | 6.7m/s | -51.8°C | 1.2% | 32.6hPa | 2.7V | 03:45:39 | 01:33:29 | 00:00:00 | |
| HSKMA3-T | 2026-09-01 18:03:08 | 49.73088 | 8.26966 | 317° | 16km/h | 23745m | 4.7m/s | -52°C | 1.2% | 32.7hPa | 2.6V | 03:45:39 | 01:33:25 | 00:00:00 | |
| BIOWL1-15 | 2026-09-01 18:03:05 | 49.73066 | 8.26997 | 317° | 13km/h | 23713m | 5.4m/s | -52.2°C | 1.2% | 32.9hPa | 2.5V | 03:45:39 | 01:33:19 | 00:00:00 | |
| DL1XH-15 | 2026-09-01 18:03:05 | 49.73063 | 8.27004 | 295° | 13km/h | 23701m | 6.6m/s | -52.2°C | 4.1% | 32.9hPa | 2.7V | 03:45:01 | 01:33:17 | 00:00:00 | |
| DM0DOS-11 | 2026-09-01 18:03:04 | 49.73066 | 8.26997 | 316° | 13km/h | 23713m | 5.4m/s | -52.2°C | 4.1% | 32.9hPa | 2.5V | 03:44:59 | 01:33:19 | 00:00:00 | |
| DL1XH-west | 2026-09-01 18:03:04 | 49.73073 | 8.26988 | 315° | 20km/h | 23724m | 5m/s | -52.2°C | 1.2% | 32.8hPa | 2.5V | 03:45:39 | 01:33:21 | 00:00:00 | |
| HSKMA3-T | 2026-09-01 18:02:58 | 49.73061 | 8.27014 | 277° | 15km/h | 23690m | 5.2m/s | -52.1°C | 1.3% | 33hPa | 2.7V | 03:45:39 | 01:33:15 | 00:00:00 | |
| DL3AQ-11 | 2026-09-01 18:02:57 | 49.73061 | 8.27024 | 259° | 9km/h | 23678m | 6.1m/s | -52.1°C | 1.4% | 33.1hPa | 2.6V | 00:00:00 | 00:00:00 | 00:00:00 | |
| DL8DAS-14 | 2026-09-01 18:02:56 | 49.73061 | 8.27024 | 259° | 9km/h | 23678m | 6.1m/s | -52.1°C | 1.4% | 33.1hPa | 2.6V | 00:00:00 | 00:00:00 | 00:00:00 | |
| DL1XH-15 | 2026-09-01 18:02:55 | 49.73061 | 8.27048 | 272° | 5km/h | 23643m | 5.3m/s | -52°C | 4.1% | 33.2hPa | 2.6V | 03:45:11 | 01:33:07 | 00:00:00 | |
| DL1XH-west | 2026-09-01 18:02:53 | 49.73062 | 8.27037 | 273° | 13km/h | 23660m | 6m/s | -52.1°C | 1.2% | 33.1hPa | 2.7V | 03:45:39 | 01:33:10 | 00:00:00 | |
| BIOWL1-15 | 2026-09-01 18:02:51 | 49.73061 | 8.27046 | 276° | 9km/h | 23649m | 6.8m/s | -52°C | 1.2% | 33.2hPa | 2.5V | 03:45:39 | 01:33:08 | 00:00:00 | |
| HSKMA3-T | 2026-09-01 18:02:48 | 49.73061 | 8.27052 | 264° | 5km/h | 23631m | 6.8m/s | -52°C | 1.2% | 33.3hPa | 2.7V | 03:45:39 | 01:33:05 | 00:00:00 | |
| BIOWL9-15 | 2026-09-01 18:02:47 | 49.73063 | 8.27057 | 222° | 7km/h | 23620m | 5.6m/s | -52.0°C | 1.3% | 33.4hPa | 2.5V | 00:00:00 | 00:00:00 | 00:00:00 | |
| SONCRA | 2026-09-01 18:02:45 | 49.73068 | 8.27061 | 197° | 13km/h | 23609m | 4.5m/s | -52.0°C | 1.4% | 33.4hPa | 2.5V | 00:00:00 | 00:00:00 | 00:00:00 | |
| DL1XH-15 | 2026-09-01 18:02:44 | 49.73081 | 8.27079 | 241° | 13km/h | 23582m | 5.3m/s | -52°C | 4.1% | 33.5hPa | 2.5V | 03:45:22 | 01:32:56 | 00:00:00 | |
| DL1XH-west | 2026-09-01 18:02:43 | 49.73071 | 8.27063 | 204° | 15km/h | 23604m | 4.3m/s | -52°C | 1.2% | 33.4hPa | 2.6V | 03:45:39 | 01:33:00 | 00:00:00 | |
| BIOWL1-15 | 2026-09-01 18:02:41 | 49.73079 | 8.27074 | 241° | 15km/h | 23587m | 4.6m/s | -52°C | 1.2% | 33.5hPa | 2.7V | 03:45:39 | 01:32:57 | 00:00:00 | |
| DL1XH1-15 | 2026-09-01 18:02:40 | 49.73082 | 8.27083 | 230° | 9km/h | 23576m | 6.5m/s | -52.1°C | 4.1% | 33.6hPa | 2.5V | 03:45:23 | 01:32:55 | 00:00:00 | |
| HSKMA3-T | 2026-09-01 18:02:37 | 49.73084 | 8.27085 | 199° | 9km/h | 23570m | 6.5m/s | -52.1°C | 1.2% | 33.6hPa | 2.5V | 03:45:39 | 01:32:54 | 00:00:00 | |
| DO3DL | 2026-09-01 18:02:35 | 49.73086 | 8.27085 | 175° | 11km/h | 23563m | 6.1m/s | -52.1°C | 1.4% | 33.6hPa | 2.7V | 03:45:00 | 00:00:00 | 00:00:00 | |
| DL1XH-15 | 2026-09-01 18:02:34 | 49.73107 | 8.27076 | 174° | 16km/h | 23523m | 5.2m/s | -52°C | 4% | 33.9hPa | 2.7V | 03:45:32 | 01:32:46 | 00:00:00 | |
| DL1XH-west | 2026-09-01 18:02:33 | 49.73094 | 8.27081 | 158° | 9km/h | 23545m | 5.7m/s | -52°C | 1.3% | 33.7hPa | 2.6V | 03:45:39 | 01:32:50 | 00:00:00 | |
| BIOWL1-15 | 2026-09-01 18:02:30 | 49.73107 | 8.27076 | 175° | 16km/h | 23523m | 5.2m/s | -52°C | 1.2% | 33.9hPa | 2.7V | 03:45:39 | 01:32:46 | 00:00:00 | |
| DL1XH1-15 | 2026-09-01 18:02:28 | 49.73111 | 8.27076 | 182° | 16km/h | 23517m | 7m/s | -52°C | 4% | 33.9hPa | 2.5V | 03:45:33 | 01:32:45 | 00:00:00 | |
| HSKMA3-T | 2026-09-01 18:02:27 | 49.73115 | 8.27077 | 188° | 15km/h | 23510m | 5.6m/s | -52°C | 1.2% | 33.9hPa | 2.5V | 03:45:39 | 01:32:44 | 00:00:00 | |
| DL4BBY-15 | 2026-09-01 18:02:25 | 49.73123 | 8.27077 | 178° | 5km/h | 23499m | 6.7m/s | -52.3°C | 0% | 0hPa | 2.6V | 00:00:00 | 00:00:00 | 00:00:00 | |
| DL1XH-15 | 2026-09-01 18:02:24 | 49.73137 | 8.27077 | 175° | 7km/h | 23464m | 5.1m/s | -51.8°C | 4% | 34.2hPa | 2.6V | 03:45:42 | 01:32:36 | 00:00:00 | |
| DF1GD-15 | 2026-09-01 18:02:23 | 49.73126 | 8.27077 | 172° | 13km/h | 23493m | 4.7m/s | -51.9°C | 1.4% | 34.0hPa | 2.7V | 03:45:00 | 00:00:00 | 00:00:00 | |
| DL1XH1-15 | 2026-09-01 18:02:22 | 49.73138 | 8.27077 | 186° | 5km/h | 23460m | 4.6m/s | -51.8°C | 4% | 34.2hPa | 2.7V | 03:45:43 | 01:32:35 | 00:00:00 | |
| DL1XH-west | 2026-09-01 18:02:22 | 49.73131 | 8.27076 | 182° | 9km/h | 23482m | 6.5m/s | -51.9°C | 1.2% | 34.1hPa | 2.7V | 03:45:39 | 01:32:39 | 00:00:00 | |
| BIOWL1-15 | 2026-09-01 18:02:19 | 49.73137 | 8.27077 | 175° | 7km/h | 23464m | 5.1m/s | -51.8°C | 1.2% | 34.2hPa | 2.6V | 03:46:30 | 01:32:36 | 00:00:00 | |
| HSKMA3-T | 2026-09-01 18:02:17 | 49.73139 | 8.27077 | 209° | 4km/h | 23454m | 6.5m/s | -51.8°C | 1.2% | 34.2hPa | 2.7V | 03:46:30 | 01:32:34 | 00:00:00 | |
| DL8OAI-8 | 2026-09-01 18:02:17 | 49.73139 | 8.27077 | 210° | 4km/h | 23454m | 6.5m/s | -51.8°C | 1.4% | 34.3hPa | 2.5V | 03:46:00 | 00:00:00 | 00:00:00 | |
| KANTATE | 2026-09-01 18:02:16 | 49.73139 | 8.27077 | 210° | 4km/h | 23454m | 6.5m/s | -51.8°C | 1.3% | 34.3hPa | 2.5V | 00:00:00 | 00:00:00 | 00:00:00 | |
| BIOWL9-15 | 2026-09-01 18:02:15 | 49.73140 | 8.27078 | 239° | 0km/h | 23443m | 5.3m/s | -51.8°C | 1.3% | 34.3hPa | 2.5V | 00:00:00 | 00:00:00 | 00:00:00 | |
| DL1XH-15 | 2026-09-01 18:02:14 | 49.73146 | 8.27075 | 207° | 4km/h | 23408m | 5.2m/s | -52°C | 4% | 34.5hPa | 2.5V | 03:45:52 | 01:32:26 | 00:00:00 | |
| DL1XH-west | 2026-09-01 18:02:11 | 49.73144 | 8.27075 | 154° | 5km/h | 23420m | 6m/s | -52°C | 1.2% | 34.4hPa | 2.7V | 03:46:30 | 01:32:28 | 00:00:00 | |
| SFWM-10 | 2026-09-01 18:02:10 | 49.73144 | 8.27075 | 155° | 5km/h | 23420m | 6.0m/s | -52.0°C | 1.3% | 34.4hPa | 2.5V | 00:00:00 | 00:00:00 | 00:00:00 | |
| DL1XH1-15 | 2026-09-01 18:02:09 | 49.73147 | 8.27076 | 194° | 5km/h | 23402m | 6.5m/s | -52.1°C | 4% | 34.5hPa | 2.5V | 03:45:53 | 01:32:25 | 00:00:00 | |
| BIOWL1-15 | 2026-09-01 18:02:08 | 49.73147 | 8.27076 | 195° | 5km/h | 23402m | 6.5m/s | -52.1°C | 1.2% | 34.5hPa | 2.5V | 03:46:30 | 01:32:25 | 00:00:00 | |
| HSKMA3-T | 2026-09-01 18:02:07 | 49.73148 | 8.27076 | 188° | 5km/h | 23396m | 5.4m/s | -52.1°C | 1.1% | 34.5hPa | 2.6V | 03:46:30 | 01:32:24 | 00:00:00 | |
| SONDE2-11 | 2026-09-01 18:02:07 | 49.73150 | 8.27077 | 209° | 4km/h | 23391m | 5.0m/s | -52.2°C | 1.4% | 34.6hPa | 2.5V | 00:00:00 | 00:00:00 | 00:00:00 | |
| DL3AQ-11 | 2026-09-01 18:02:06 | 49.73150 | 8.27078 | 258° | 4km/h | 23385m | 7.2m/s | -52.2°C | 1.3% | 34.6hPa | 2.5V | 00:00:00 | 00:00:00 | 00:00:00 | |
| DJ2DS-15 | 2026-09-01 18:02:04 | 49.73150 | 8.27079 | 299° | 4km/h | 23379m | 5.5m/s | -52.2°C | 1.4% | 34.7hPa | 2.5V | 00:00:00 | 00:00:00 | 00:00:00 | |
| DL1XH1-15 | 2026-09-01 18:02:03 | 49.73141 | 8.27075 | 7° | 9km/h | 23344m | 4.7m/s | -52.3°C | 4.1% | 34.8hPa | 2.5V | 03:46:03 | 01:32:15 | 00:00:00 | |
| DL1XH-west | 2026-09-01 18:02:00 | 49.73146 | 8.27077 | 35° | 9km/h | 23355m | 6.1m/s | -52.2°C | 1.2% | 34.7hPa | 2.7V | 03:46:30 | 01:32:17 | 00:00:00 | |
| DF2AP-13 | 2026-09-01 18:02:00 | 49.73146 | 8.27077 | 35° | 9km/h | 23356m | 6.0m/s | -52.2°C | 4.0% | 34.7hPa | 2.7V | 00:00:00 | 01:32:17 | 00:00:00 | |
| DL1XH-15 | 2026-09-01 18:01:59 | 49.73134 | 8.27075 | 350° | 7km/h | 23323m | 5.1m/s | -52.6°C | 4.1% | 35hPa | 2.7V | 03:46:07 | 01:32:11 | 00:00:00 | |
| BIOWL1-15 | 2026-09-01 18:01:57 | 49.73139 | 8.27075 | 2° | 9km/h | 23339m | 4.7m/s | -52.3°C | 1.2% | 34.8hPa | 2.5V | 03:46:30 | 01:32:14 | 00:00:00 | |
| HSKMA3-T | 2026-09-01 18:01:56 | 49.73137 | 8.27075 | 10° | 5km/h | 23333m | 6.5m/s | -52.5°C | 1.2% | 34.9hPa | 2.6V | 03:46:30 | 01:32:13 | 00:00:00 | |
| DL4BBY-15 | 2026-09-01 18:01:55 | 49.73136 | 8.27074 | 4° | 9km/h | 23329m | 4.5m/s | -52.9°C | 0% | 0hPa | 2.5V | 00:00:00 | 00:00:00 | 00:00:00 | |
| DM0DOS-11 | 2026-09-01 18:01:54 | 49.73130 | 8.27078 | 326° | 11km/h | 23311m | 4.7m/s | -52.6°C | 4.1% | 35hPa | 2.5V | 03:46:09 | 01:32:09 | 00:00:00 | |
| DO3MHA-11 | 2026-09-01 18:01:52 | 49.73130 | 8.27077 | 327° | 11km/h | 23312m | 4.7m/s | -52.6°C | 4.1% | 34.9hPa | 2.7V | 00:00:00 | 01:32:09 | 00:00:00 | |
| DL1XH1-15 | 2026-09-01 18:01:51 | 49.73123 | 8.27085 | 345° | 7km/h | 23290m | 4.3m/s | -52.6°C | 4.1% | 35.1hPa | 2.7V | 03:46:13 | 01:32:05 | 00:00:00 | |
| DF7PN | 2026-09-01 18:01:51 | 49.73128 | 8.27080 | 323° | 11km/h | 23307m | 4.6m/s | -52.6°C | 1.4% | 35.0hPa | 2.5V | 00:00:00 | 00:00:00 | 00:00:00 | |
| DL3AQ-11 | 2026-09-01 18:01:50 | 49.73124 | 8.27084 | 325° | 5km/h | 23296m | 5.9m/s | -52.6°C | 1.4% | 35.1hPa | 2.5V | 00:00:00 | 00:00:00 | 00:00:00 | |
| DL1XH-15 | 2026-09-01 18:01:49 | 49.73111 | 8.27089 | 343° | 16km/h | 23269m | 4.9m/s | -52.6°C | 0% | 35.2hPa | 2.5V | 03:46:17 | 01:32:01 | 00:00:00 | |
| DL1XH-west | 2026-09-01 18:01:49 | 49.73124 | 8.27084 | 326° | 7km/h | 23296m | 5.9m/s | -52.6°C | 1.3% | 35.1hPa | 2.6V | 03:46:30 | 01:32:06 | 00:00:00 | |
| BIOWL1-15 | 2026-09-01 18:01:47 | 49.73121 | 8.27086 | 353° | 9km/h | 23286m | 5.2m/s | -52.6°C | 1.3% | 35.1hPa | 2.7V | 03:46:30 | 01:32:04 | 00:00:00 | |
| HSKMA3-T | 2026-09-01 18:01:46 | 49.73118 | 8.27086 | 350° | 13km/h | 23280m | 6.4m/s | -52.5°C | 1.2% | 35.2hPa | 2.7V | 03:46:30 | 01:32:03 | 00:00:00 | |
| BIOWL7-15 | 2026-09-01 18:01:45 | 49.73118 | 8.27086 | 351° | 13km/h | 23280m | 6.4m/s | -52.5°C | 1.4% | 35.2hPa | 2.7V | 00:00:00 | 00:00:00 | 00:00:00 | |
| BIOWL9-15 | 2026-09-01 18:01:44 | 49.73111 | 8.27089 | 343° | 15km/h | 23269m | 4.9m/s | -52.6°C | 1.4% | 35.2hPa | 2.7V | 00:00:00 | 00:00:00 | 00:00:00 | |
| SONCRA | 2026-09-01 18:01:43 | 49.73104 | 8.27093 | 334° | 11km/h | 23258m | 5.7m/s | -52.7°C | 1.4% | 35.3hPa | 2.7V | 00:00:00 | 00:00:00 | 00:00:00 | |
| DO3MHA-11 | 2026-09-01 18:01:42 | 49.73104 | 8.27093 | 335° | 7km/h | 23258m | 5.6m/s | -52.7°C | 4.2% | 35.3hPa | 2.7V | 03:46:00 | 01:31:59 | 00:00:00 | |
| DL1ZP-14 | 2026-09-01 18:01:41 | 49.73102 | 8.27095 | 326° | 9km/h | 23252m | 5.4m/s | -52.8°C | 1.4% | 35.3hPa | 2.7V | 00:00:00 | 00:00:00 | 00:00:00 | |
| DL1XH1-15 | 2026-09-01 18:01:40 | 49.73095 | 8.27103 | 320° | 11km/h | 23236m | 4.3m/s | -52.7°C | 4.4% | 35.4hPa | 2.6V | 03:46:23 | 01:31:55 | 00:00:00 | |
| DL1XH-15 | 2026-09-01 18:01:39 | 49.73092 | 8.27110 | 285° | 4km/h | 23214m | 5.4m/s | -52.7°C | 0% | 35.5hPa | 2.5V | 03:46:27 | 01:31:51 | 00:00:00 | |
| DL1XH-west | 2026-09-01 18:01:38 | 49.73095 | 8.27103 | 321° | 11km/h | 23236m | 4.3m/s | -52.7°C | 1.4% | 35.4hPa | 2.6V | 03:46:30 | 01:31:55 | 00:00:00 | |
| BIOWL1-15 | 2026-09-01 18:01:36 | 49.73092 | 8.27107 | 287° | 4km/h | 23224m | 6m/s | -52.8°C | 1.4% | 35.5hPa | 2.7V | 03:46:30 | 01:31:53 | 00:00:00 | |
| HSKMA3-T | 2026-09-01 18:01:35 | 49.73092 | 8.27109 | 261° | 4km/h | 23219m | 4.5m/s | -52.7°C | 1.3% | 35.5hPa | 2.7V | 03:46:30 | 01:31:52 | 00:00:00 | |
| DM0DOS-11 | 2026-09-01 18:01:34 | 49.73090 | 8.27113 | 316° | 9km/h | 23203m | 4.8m/s | -52.7°C | 4.2% | 35.6hPa | 2.5V | 03:46:29 | 01:31:49 | 00:00:00 | |
| KANTATE | 2026-09-01 18:01:33 | 49.73092 | 8.27110 | 286° | 4km/h | 23214m | 5.4m/s | -52.7°C | 1.4% | 35.5hPa | 2.5V | 00:00:00 | 00:00:00 | 00:00:00 | |
| DB0NH | 2026-09-01 18:01:32 | 49.73090 | 8.27113 | 317° | 13km/h | 23203m | 4.8m/s | -52.7°C | 4.2% | 35.6hPa | 2.5V | 03:46:00 | 01:31:49 | 00:00:00 | |
| DK5PH-5 | 2026-09-01 18:01:31 | 49.73088 | 8.27116 | 317° | 9km/h | 23198m | 5.0m/s | -52.6°C | 4.1% | 35.6hPa | 2.7V | 03:46:00 | 01:31:48 | 00:00:00 | |
| DF2AP-13 | 2026-09-01 18:01:30 | 49.73086 | 8.27119 | 315° | 9km/h | 23193m | 6.0m/s | -52.6°C | 4.1% | 35.6hPa | 2.7V | 00:00:00 | 01:31:47 | 00:00:00 | |
| DL1XH-15 | 2026-09-01 18:01:29 | 49.73081 | 8.27128 | 187° | 4km/h | 23159m | 6m/s | -52.5°C | 0% | 35.9hPa | 2.7V | 03:46:37 | 01:31:41 | 00:00:00 | |
| DL1XH-west | 2026-09-01 18:01:27 | 49.73082 | 8.27125 | 321° | 7km/h | 23175m | 6.5m/s | -52.5°C | 1.3% | 35.8hPa | 2.5V | 03:47:21 | 01:31:44 | 00:00:00 | |
| BIOWL1-15 | 2026-09-01 18:01:26 | 49.73081 | 8.27127 | 317° | 5km/h | 23170m | 4.6m/s | -52.6°C | 1.2% | 35.8hPa | 2.6V | 03:47:21 | 01:31:43 | 00:00:00 | |
| DL3AQ-11 | 2026-09-01 18:01:26 | 49.73080 | 8.27128 | 285° | 2km/h | 23165m | 5.7m/s | -52.6°C | 1.4% | 35.8hPa | 2.5V | 00:00:00 | 00:00:00 | 00:00:00 | |
| DL4BBY-15 | 2026-09-01 18:01:25 | 49.73080 | 8.27128 | 286° | 11km/h | 23165m | 5.6m/s | -52.9°C | 0% | 0hPa | 2.5V | 00:00:00 | 00:00:00 | 00:00:00 | |
| DM0DOS-11 | 2026-09-01 18:01:24 | 49.73084 | 8.27129 | 192° | 7km/h | 23148m | 6.3m/s | -52.5°C | 4.2% | 35.9hPa | 2.5V | 03:46:39 | 01:31:39 | 00:00:00 | |
| HSKMA3-T | 2026-09-01 18:01:24 | 49.73081 | 8.27128 | 188° | 4km/h | 23159m | 6m/s | -52.6°C | 1.4% | 35.9hPa | 2.7V | 03:47:21 | 01:31:41 | 00:00:00 | |
| DL1XH-west | 2026-09-01 18:01:16 | 49.73094 | 8.27142 | 223° | 9km/h | 23114m | 4.5m/s | -52.5°C | 1.2% | 36.1hPa | 2.5V | 03:47:21 | 01:31:33 | 00:00:00 | |
| NBG1-10 | 2026-09-01 18:01:16 | 49.73094 | 8.27142 | 224° | 13km/h | 23114m | 4.5m/s | -52.5°C | 4.0% | 36.0hPa | 2.7V | 00:00:00 | 01:31:33 | 00:00:00 | |
| DL8OAI-8 | 2026-09-01 18:01:15 | 49.73095 | 8.27142 | 224° | 9km/h | 23114m | 4.5m/s | -52.5°C | 1.4% | 36.1hPa | 2.7V | 03:47:00 | 00:00:00 | 00:00:00 | |
| DM0DOS-11 | 2026-09-01 18:01:14 | 49.73100 | 8.27153 | 212° | 11km/h | 23089m | 5.6m/s | -52.7°C | 4.2% | 36.2hPa | 2.7V | 03:46:49 | 01:31:29 | 00:00:00 | |
| HSKMA3-T | 2026-09-01 18:01:13 | 49.73098 | 8.27151 | 231° | 11km/h | 23095m | 6.4m/s | -52.6°C | 1.3% | 36.2hPa | 2.6V | 03:47:21 | 01:31:30 | 00:00:00 | |
| BIOWL1-15 | 2026-09-01 18:01:07 | 49.73118 | 8.27165 | 182° | 16km/h | 23051m | 5.6m/s | -52.6°C | 1.3% | 36.4hPa | 2.7V | 03:47:21 | 01:31:22 | 00:00:00 | |
| DL1XH-15 | 2026-09-01 18:01:06 | 49.73133 | 8.27171 | 201° | 15km/h | 23028m | 6.2m/s | -52.5°C | 0% | 0hPa | 2.7V | 03:47:00 | 01:31:18 | 00:00:00 | |
| DL1XH-west | 2026-09-01 18:01:06 | 49.73115 | 8.27165 | 185° | 15km/h | 23057m | 6.1m/s | -52.6°C | 1.3% | 36.4hPa | 2.7V | 03:47:21 | 01:31:23 | 00:00:00 | |
| DM0DOS-11 | 2026-09-01 18:01:04 | 49.73130 | 8.27168 | 202° | 15km/h | 23034m | 5.4m/s | -52.5°C | 4.2% | 36.5hPa | 2.6V | 03:46:59 | 01:31:19 | 00:00:00 | |
| HSKMA3-T | 2026-09-01 18:01:03 | 49.73126 | 8.27167 | 194° | 15km/h | 23040m | 6.5m/s | -52.5°C | 1.3% | 36.5hPa | 2.5V | 03:47:21 | 01:31:20 | 00:00:00 | |
| DL1XH1-15 | 2026-09-01 18:01:02 | 49.73143 | 8.27178 | 212° | 13km/h | 23011m | 6.4m/s | -52.4°C | 4.1% | 36.7hPa | 2.5V | 03:47:03 | 01:31:15 | 00:00:00 | |
| DB0ND-19 | 2026-09-01 18:00:59 | 49.73140 | 8.27175 | 204° | 15km/h | 23017m | 4.4m/s | -52.4°C | 1.4% | 36.6hPa | 2.7V | 00:00:00 | 00:00:00 | 00:00:00 | |
| DM0DOS-11 | 2026-09-01 18:00:57 | 49.73160 | 8.27186 | 187° | 11km/h | 22979m | 6m/s | -52.2°C | 4% | 36.9hPa | 2.7V | 03:47:09 | 01:31:09 | 00:00:00 | |
| BIOWL1-15 | 2026-09-01 18:00:57 | 49.73151 | 8.27184 | 196° | 13km/h | 22995m | 6.4m/s | -52.3°C | 1.2% | 36.8hPa | 2.6V | 03:47:21 | 01:31:12 | 00:00:00 | |
| DL1XH-west | 2026-09-01 18:00:56 | 49.73148 | 8.27183 | 210° | 11km/h | 23001m | 4.7m/s | -52.3°C | 1.2% | 36.8hPa | 2.5V | 03:47:21 | 01:31:13 | 00:00:00 | |
| HSKMA3-T | 2026-09-01 18:00:53 | 49.73157 | 8.27186 | 181° | 13km/h | 22985m | 4.9m/s | -52.3°C | 1.2% | 36.8hPa | 2.7V | 03:47:21 | 01:31:10 | 00:00:00 | |
| DO3MHA-11 | 2026-09-01 18:00:52 | 49.73160 | 8.27186 | 188° | 15km/h | 22980m | 6.0m/s | -52.2°C | 4.0% | 36.8hPa | 2.5V | 00:00:00 | 01:31:09 | 00:00:00 | |
| DJ2KF-10 | 2026-09-01 18:00:51 | 49.73163 | 8.27186 | 191° | 15km/h | 22974m | 4.9m/s | -52.2°C | 4.0% | 36.8hPa | 2.5V | 00:00:00 | 01:31:08 | 00:00:00 | |
| DL1XH1-15 | 2026-09-01 18:00:50 | 49.73173 | 8.27188 | 177° | 18km/h | 22959m | 5.5m/s | -52.4°C | 4% | 37hPa | 2.7V | 03:47:13 | 01:31:05 | 00:00:00 | |
| DL8DAS-15 | 2026-09-01 18:00:49 | 49.73166 | 8.27187 | 190° | 13km/h | 22970m | 4.2m/s | -52.3°C | 1.4% | 36.9hPa | 2.7V | 00:00:00 | 00:00:00 | 00:00:00 | |
| DJ2DS-15 | 2026-09-01 18:00:48 | 49.73173 | 8.27188 | 178° | 15km/h | 22959m | 5.5m/s | -52.3°C | 4.0% | 36.9hPa | 2.7V | 00:00:00 | 01:31:05 | 00:00:00 | |
| DM0DOS-11 | 2026-09-01 18:00:47 | 49.73196 | 8.27185 | 154° | 13km/h | 22925m | 5.5m/s | -52.5°C | 4.2% | 37.2hPa | 2.7V | 03:47:19 | 01:30:59 | 00:00:00 | |
| DL1XH-west | 2026-09-01 18:00:45 | 49.73186 | 8.27187 | 182° | 15km/h | 22942m | 5.4m/s | -52.5°C | 1.2% | 37.1hPa | 2.6V | 03:47:21 | 01:31:02 | 00:00:00 | |
| HSKMA3-T | 2026-09-01 18:00:42 | 49.73196 | 8.27185 | 154° | 13km/h | 22925m | 5.5m/s | 0°C | 0% | 37.2hPa | 2.7V | 03:47:21 | 01:30:59 | 00:00:00 | |
| DO3MHA-11 | 2026-09-01 18:00:42 | 49.73196 | 8.27185 | 155° | 15km/h | 22926m | 5.4m/s | -52.5°C | 4.2% | 37.1hPa | 2.5V | 00:00:00 | 01:30:59 | 00:00:00 | |
| HEMX73-11 | 2026-09-01 18:00:41 | 49.73196 | 8.27185 | 155° | 13km/h | 22926m | 5.5m/s | -52.6°C | 1.4% | 37.2hPa | 2.5V | 03:47:00 | 00:00:00 | 00:00:00 | |
| DB0UT-9 | 2026-09-01 18:00:40 | 49.73199 | 8.27182 | 146° | 11km/h | 22920m | 5.6m/s | -52.6°C | 1.4% | 37.2hPa | 2.5V | 03:47:00 | 00:00:00 | 00:00:00 | |
| DL1ZP-14 | 2026-09-01 18:00:39 | 49.73202 | 8.27177 | 117° | 9km/h | 22908m | 4.4m/s | -52.5°C | 1.4% | 37.2hPa | 2.5V | 00:00:00 | 00:00:00 | 00:00:00 | |
| DL1XH-15 | 2026-09-01 18:00:38 | 49.73217 | 8.27147 | 131° | 16km/h | 22876m | 5.9m/s | -52.6°C | 0% | 0hPa | 2.5V | 03:47:28 | 01:30:50 | 00:00:00 | |
| DB0NH | 2026-09-01 18:00:38 | 49.73203 | 8.27173 | 118° | 15km/h | 22904m | 4.8m/s | -52.5°C | 4.3% | 37.2hPa | 2.5V | 00:00:00 | 01:30:55 | 00:00:00 | |
| DM0DOS-11 | 2026-09-01 18:00:37 | 49.73220 | 8.27143 | 128° | 15km/h | 22871m | 5.3m/s | -52.6°C | 4.1% | 37.5hPa | 2.5V | 03:47:29 | 01:30:49 | 00:00:00 | |
| DL1XH-west | 2026-09-01 18:00:34 | 49.73214 | 8.27152 | 133° | 18km/h | 22882m | 5.4m/s | -52.6°C | 1.3% | 37.4hPa | 2.7V | 03:48:12 | 01:30:51 | 00:00:00 | |
| SONDE2-11 | 2026-09-01 18:00:34 | 49.73217 | 8.27147 | 131° | 15km/h | 22876m | 5.9m/s | -52.6°C | 1.4% | 37.5hPa | 2.5V | 00:00:00 | 00:00:00 | 00:00:00 | |
| DL1XH1-15 | 2026-09-01 18:00:32 | 49.73228 | 8.27125 | 118° | 11km/h | 22849m | 6.4m/s | -52.6°C | 4.1% | 37.6hPa | 2.5V | 03:47:33 | 01:30:45 | 00:00:00 | |
| HSKMA3-T | 2026-09-01 18:00:31 | 49.73222 | 8.27138 | 128° | 16km/h | 22865m | 6.8m/s | 0°C | 0% | 37.5hPa | 2.6V | 03:48:12 | 01:30:48 | 00:00:00 | |
| DF2AP-13 | 2026-09-01 18:00:30 | 49.73224 | 8.27133 | 126° | 13km/h | 22859m | 4.4m/s | -52.6°C | 4.1% | 37.5hPa | 2.5V | 03:47:00 | 01:30:47 | 00:00:00 | |
| DL8DAS-15 | 2026-09-01 18:00:29 | 49.73224 | 8.27133 | 127° | 16km/h | 22859m | 4.5m/s | -52.6°C | 1.4% | 37.6hPa | 2.5V | 03:48:00 | 00:00:00 | 00:00:00 | |
| DJ2DS-15 | 2026-09-01 18:00:28 | 49.73228 | 8.27125 | 119° | 13km/h | 22849m | 6.4m/s | -52.5°C | 4.1% | 37.6hPa | 2.5V | 00:00:00 | 01:30:45 | 00:00:00 | |
| DM0DOS-11 | 2026-09-01 18:00:26 | 49.73236 | 8.27100 | 107° | 13km/h | 22817m | 6m/s | -52.5°C | 4.1% | 37.8hPa | 2.5V | 03:47:39 | 01:30:39 | 00:00:00 | |
| DL1XH-15 | 2026-09-01 18:00:26 | 49.73237 | 8.27095 | 102° | 13km/h | 22812m | 5.1m/s | -52.6°C | 0% | 0hPa | 2.5V | 03:47:40 | 01:30:38 | 00:00:00 | |
| DL1XH-west | 2026-09-01 18:00:24 | 49.73233 | 8.27110 | 121° | 15km/h | 22828m | 3.7m/s | -52.6°C | 1.2% | 37.7hPa | 2.7V | 03:48:12 | 01:30:41 | 00:00:00 | |
| BIOWL1-15 | 2026-09-01 18:00:23 | 49.73235 | 8.27105 | 119° | 15km/h | 22823m | 5.5m/s | -52.5°C | 1.2% | 37.8hPa | 2.7V | 03:48:12 | 01:30:40 | 00:00:00 | |
| HSKMA3-T | 2026-09-01 18:00:21 | 49.73237 | 8.27095 | 103° | 13km/h | 22812m | 5.1m/s | 0°C | 0% | 37.8hPa | 2.5V | 03:48:12 | 01:30:38 | 00:00:00 | |
| DJ2KF-10 | 2026-09-01 18:00:21 | 49.73237 | 8.27095 | 103° | 13km/h | 22812m | 5.1m/s | -52.5°C | 4.2% | 37.8hPa | 2.7V | 00:00:00 | 01:30:38 | 00:00:00 | |
| DN1GJH-1 | 2026-09-01 18:00:20 | 49.73237 | 8.27095 | 104° | 13km/h | 22812m | 5.1m/s | -52.6°C | 1.5% | 37.8hPa | 2.7V | 03:48:00 | 00:00:00 | 00:00:00 | |
| DB0UT-9 | 2026-09-01 18:00:19 | 49.73238 | 8.27090 | 106° | 15km/h | 22807m | 5.5m/s | -52.6°C | 1.4% | 37.9hPa | 2.7V | 03:48:00 | 00:00:00 | 00:00:00 | |
| DF7PN | 2026-09-01 18:00:18 | 49.73241 | 8.27071 | 97° | 16km/h | 22791m | 6.2m/s | -52.5°C | 1.4% | 38.0hPa | 2.7V | 00:00:00 | 00:00:00 | 00:00:00 | |
| DL3AQ-11 | 2026-09-01 18:00:17 | 49.73242 | 8.27064 | 87° | 16km/h | 22785m | 5.5m/s | -52.5°C | 1.4% | 38.0hPa | 2.7V | 00:00:00 | 00:00:00 | 00:00:00 | |
| DM0DOS-11 | 2026-09-01 18:00:16 | 49.73241 | 8.27039 | 84° | 13km/h | 22764m | 4.7m/s | -52.6°C | 4.1% | 38.1hPa | 2.7V | 03:47:49 | 01:30:29 | 00:00:00 | |
| DJ2DS-15 | 2026-09-01 18:00:16 | 49.73242 | 8.27064 | 87° | 16km/h | 22785m | 5.5m/s | -52.5°C | 1.4% | 38.0hPa | 2.6V | 00:00:00 | 00:00:00 | 00:00:00 | |
| DL1XH-15 | 2026-09-01 18:00:15 | 49.73239 | 8.27032 | 48° | 7km/h | 22753m | 5.2m/s | -52.7°C | 0% | 0hPa | 2.6V | 03:47:51 | 01:30:27 | 00:00:00 | |
| DL1XH-west | 2026-09-01 18:00:14 | 49.73241 | 8.27051 | 87° | 16km/h | 22774m | 6.2m/s | -52.6°C | 1.2% | 38.1hPa | 2.6V | 03:48:12 | 01:30:31 | 00:00:00 | |
| BIOWL1-15 | 2026-09-01 18:00:12 | 49.73241 | 8.27039 | 85° | 13km/h | 22764m | 4.7m/s | -52.6°C | 1.2% | 38.1hPa | 2.7V | 03:48:12 | 01:30:29 | 00:00:00 | |
| HSKMA3-T | 2026-09-01 18:00:10 | 49.73239 | 8.27032 | 48° | 7km/h | 22753m | 5.2m/s | 0°C | 0% | 38.2hPa | 2.6V | 03:48:12 | 01:30:27 | 00:00:00 | |
| NBG1-10 | 2026-09-01 18:00:10 | 49.73239 | 8.27032 | 49° | 13km/h | 22753m | 5.2m/s | -52.6°C | 4.2% | 38.1hPa | 2.6V | 00:00:00 | 01:30:27 | 00:00:00 | |
| KANTATE | 2026-09-01 18:00:09 | 49.73239 | 8.27032 | 49° | 7km/h | 22753m | 5.2m/s | -52.7°C | 1.4% | 38.2hPa | 2.6V | 03:48:00 | 00:00:00 | 00:00:00 | |
| DB0NH | 2026-09-01 18:00:08 | 49.73237 | 8.27029 | 77° | 13km/h | 22741m | 5.6m/s | -52.7°C | 4.2% | 38.2hPa | 2.6V | 00:00:00 | 01:30:25 | 00:00:00 | |
| DM0DOS-11 | 2026-09-01 18:00:07 | 49.73231 | 8.27009 | 72° | 15km/h | 22710m | 5.7m/s | -52.9°C | 4.2% | 38.4hPa | 2.6V | 03:47:59 | 01:30:19 | 00:00:00 | |
| DL1XH-west | 2026-09-01 18:00:03 | 49.73233 | 8.27015 | 62° | 15km/h | 22715m | 5.6m/s | -52.9°C | 1.2% | 38.4hPa | 2.5V | 03:48:12 | 01:30:20 | 00:00:00 | |
| DL1XH1-15 | 2026-09-01 18:00:02 | 49.73225 | 8.26985 | 57° | 16km/h | 22688m | 4.8m/s | -53°C | 4.2% | 38.6hPa | 2.7V | 03:48:03 | 01:30:15 | 00:00:00 | |
| BIOWL1-15 | 2026-09-01 18:00:01 | 49.73230 | 8.27003 | 75° | 16km/h | 22705m | 4.8m/s | -52.9°C | 1.2% | 38.5hPa | 2.6V | 03:48:12 | 01:30:18 | 00:00:00 | |
| HSKMA3-T | 2026-09-01 17:59:59 | 49.73227 | 8.26991 | 61° | 18km/h | 22694m | 6.1m/s | 0°C | 0% | 38.5hPa | 2.7V | 03:48:12 | 01:30:16 | 00:00:00 | |
| DL1XH-15 | 2026-09-01 17:59:58 | 49.73215 | 8.26960 | 49° | 16km/h | 22661m | 4.6m/s | -53°C | 0% | 0hPa | 2.7V | 03:48:08 | 01:30:10 | 00:00:00 | |
| DM0DOS-11 | 2026-09-01 17:59:57 | 49.73212 | 8.26955 | 49° | 15km/h | 22656m | 4.8m/s | -53°C | 4.2% | 38.8hPa | 2.5V | 03:48:09 | 01:30:09 | 00:00:00 | |
| DL1XH-west | 2026-09-01 17:59:53 | 49.73215 | 8.26960 | 49° | 16km/h | 22661m | 4.6m/s | -53°C | 1.3% | 38.7hPa | 2.7V | 03:48:12 | 01:30:10 | 00:00:00 | |
| DO3MHA-11 | 2026-09-01 17:59:52 | 49.73212 | 8.26955 | 50° | 15km/h | 22657m | 4.8m/s | -53.0°C | 4.2% | 38.7hPa | 2.7V | 00:00:00 | 01:30:09 | 00:00:00 | |
| DJ2KF-10 | 2026-09-01 17:59:51 | 49.73210 | 8.26951 | 58° | 11km/h | 22652m | 5.9m/s | -53.0°C | 4.3% | 38.7hPa | 2.7V | 00:00:00 | 01:30:08 | 00:00:00 | |
| DL1XH1-15 | 2026-09-01 17:59:50 | 49.73205 | 8.26938 | 49° | 15km/h | 22635m | 5.6m/s | -53.1°C | 4.3% | 38.9hPa | 2.7V | 03:48:13 | 01:30:05 | 00:00:00 | |
| BIOWL1-15 | 2026-09-01 17:59:50 | 49.73208 | 8.26946 | 63° | 13km/h | 22646m | 4.7m/s | -53.1°C | 1.2% | 38.8hPa | 2.6V | 03:48:12 | 01:30:07 | 00:00:00 | |
| DL3AQ-11 | 2026-09-01 17:59:50 | 49.73207 | 8.26942 | 58° | 11km/h | 22641m | 5.3m/s | -53.1°C | 1.5% | 38.9hPa | 2.6V | 00:00:00 | 00:00:00 | 00:00:00 | |
| DL1XH-15 | 2026-09-01 17:59:48 | 49.73194 | 8.26914 | 67° | 15km/h | 22609m | 6m/s | -53.2°C | 0% | 0hPa | 2.6V | 00:00:00 | 01:30:00 | 00:00:00 | |
| DM0DOS-11 | 2026-09-01 17:59:47 | 49.73193 | 8.26908 | 69° | 15km/h | 22603m | 5m/s | -53.1°C | 4.3% | 39.1hPa | 2.7V | 03:48:19 | 01:29:59 | 00:00:00 | |
| DF7PN | 2026-09-01 17:59:47 | 49.73200 | 8.26929 | 50° | 15km/h | 22625m | 5.0m/s | -53.1°C | 1.4% | 39.0hPa | 2.5V | 00:00:00 | 00:00:00 | 00:00:00 | |
| DM3KS-11 | 2026-09-01 17:59:46 | 49.73200 | 8.26929 | 50° | 15km/h | 22625m | 5.0m/s | -53.1°C | 1.4% | 39.0hPa | 2.5V | 00:00:00 | 00:00:00 | 00:00:00 | |
| HSKMA3-T | 2026-09-01 17:59:44 | 49.73196 | 8.26919 | 68° | 15km/h | 22614m | 4.8m/s | 0°C | 0% | 39hPa | 2.5V | 18:12:15 | 01:30:01 | 00:00:00 | |
| DL1XH-west | 2026-09-01 17:59:42 | 49.73193 | 8.26908 | 69° | 15km/h | 22603m | 5m/s | -53.2°C | 1.4% | 39.1hPa | 2.7V | 03:49:03 | 01:29:59 | 00:00:00 | |
| BIOWL1-15 | 2026-09-01 17:59:40 | 49.73191 | 8.26898 | 91° | 13km/h | 22593m | 6.5m/s | -53.2°C | 1.4% | 39.1hPa | 2.7V | 03:49:03 | 01:29:57 | 00:00:00 | |
| DL2OL | 2026-09-01 17:59:40 | 49.73191 | 8.26897 | 92° | 13km/h | 22593m | 6.5m/s | -53.1°C | 1.5% | 39.1hPa | 2.6V | 00:00:00 | 00:00:00 | 00:00:00 | |
| DO3DL | 2026-09-01 17:59:39 | 49.73191 | 8.26897 | 92° | 13km/h | 22593m | 6.5m/s | -53.1°C | 1.5% | 39.1hPa | 2.6V | 03:49:00 | 00:00:00 | 00:00:00 | |
| DL1XH-15 | 2026-09-01 17:59:38 | 49.73197 | 8.26879 | 116° | 4km/h | 22555m | 4.6m/s | -53.1°C | 0% | 0hPa | 2.6V | 00:00:00 | 01:29:50 | 00:00:00 | |
| DL1XH1-15 | 2026-09-01 17:59:38 | 49.73194 | 8.26889 | 123° | 11km/h | 22581m | 5m/s | -53.2°C | 4.3% | 39.2hPa | 2.5V | 03:48:23 | 01:29:55 | 00:00:00 | |
| DB0NH | 2026-09-01 17:59:38 | 49.73193 | 8.26889 | 124° | 11km/h | 22582m | 4.9m/s | -53.1°C | 4.3% | 39.2hPa | 2.5V | 00:00:00 | 01:29:55 | 00:00:00 | |
| DM0DOS-11 | 2026-09-01 17:59:37 | 49.73198 | 8.26877 | 90° | 7km/h | 22550m | 5.1m/s | -53.1°C | 4.2% | 39.4hPa | 2.6V | 03:48:29 | 01:29:49 | 00:00:00 | |
| HSKMA3-T | 2026-09-01 17:59:34 | 49.73197 | 8.26880 | 135° | 4km/h | 22560m | 5.8m/s | 0°C | 0% | 39.3hPa | 2.6V | 18:12:15 | 01:29:51 | 00:00:00 | |
| DL1XH1-15 | 2026-09-01 17:59:32 | 49.73195 | 8.26857 | 89° | 16km/h | 22528m | 5.6m/s | -53°C | 4.2% | 39.5hPa | 2.5V | 03:48:33 | 01:29:45 | 00:00:00 | |
| BIOWL1-15 | 2026-09-01 17:59:31 | 49.73195 | 8.26864 | 79° | 16km/h | 22534m | 5.2m/s | -53.1°C | 1.3% | 39.5hPa | 2.7V | 03:49:03 | 01:29:46 | 00:00:00 | |
| DL1XH-west | 2026-09-01 17:59:31 | 49.73197 | 8.26874 | 73° | 11km/h | 22544m | 5.9m/s | -53.1°C | 1.3% | 39.4hPa | 2.7V | 03:49:03 | 01:29:48 | 00:00:00 | |
| DK5PH-5 | 2026-09-01 17:59:31 | 49.73197 | 8.26874 | 73° | 11km/h | 22545m | 5.8m/s | -53.1°C | 4.2% | 39.4hPa | 2.7V | 03:48:00 | 01:29:48 | 00:00:00 | |
| DF2AP-13 | 2026-09-01 17:59:30 | 49.73196 | 8.26869 | 72° | 11km/h | 22539m | 4.5m/s | -53.1°C | 4.2% | 39.4hPa | 2.7V | 00:00:00 | 01:29:47 | 00:00:00 | |
| DL1XH-15 | 2026-09-01 17:59:28 | 49.73196 | 8.26833 | 90° | 7km/h | 22503m | 4.7m/s | -53°C | 0% | 0hPa | 2.7V | 00:00:00 | 01:29:40 | 00:00:00 | |
| DJ2DS-15 | 2026-09-01 17:59:28 | 49.73195 | 8.26857 | 90° | 11km/h | 22529m | 5.6m/s | -53.0°C | 4.2% | 39.5hPa | 2.7V | 00:00:00 | 01:29:45 | 00:00:00 | |
| DM0DOS-11 | 2026-09-01 17:59:27 | 49.73196 | 8.26830 | 107° | 7km/h | 22498m | 5.9m/s | -53°C | 4.3% | 39.7hPa | 2.7V | 03:48:39 | 01:29:39 | 00:00:00 | |
| DL1XH-west | 2026-09-01 17:59:21 | 49.73197 | 8.26827 | 121° | 9km/h | 22493m | 4.6m/s | -52.9°C | 1.3% | 39.8hPa | 2.5V | 03:49:03 | 01:29:38 | 00:00:00 | |
| DJ2KF-10 | 2026-09-01 17:59:21 | 49.73197 | 8.26827 | 121° | 9km/h | 22493m | 4.5m/s | -52.9°C | 4.3% | 39.7hPa | 2.5V | 03:48:00 | 01:29:38 | 00:00:00 | |
| DL1XH1-15 | 2026-09-01 17:59:20 | 49.73199 | 8.26814 | 84° | 13km/h | 22477m | 5.1m/s | -52.9°C | 4.2% | 39.9hPa | 2.7V | 03:48:43 | 01:29:35 | 00:00:00 | |
| BIOWL1-15 | 2026-09-01 17:59:19 | 49.73199 | 8.26819 | 101° | 11km/h | 22483m | 6.2m/s | -53°C | 1.3% | 39.8hPa | 2.6V | 03:49:03 | 01:29:36 | 00:00:00 | |
| DF1GD-15 | 2026-09-01 17:59:18 | 49.73199 | 8.26819 | 102° | 11km/h | 22484m | 6.2m/s | -53.0°C | 1.5% | 39.8hPa | 2.7V | 03:49:00 | 00:00:00 | 00:00:00 | |
| DM0DOS-11 | 2026-09-01 17:59:17 | 49.73200 | 8.26786 | 97° | 11km/h | 22446m | 5.6m/s | -53.2°C | 4.3% | 40hPa | 2.7V | 03:48:49 | 01:29:29 | 00:00:00 | |
| BIOWL1-15 | 2026-09-01 17:59:13 | 49.73202 | 8.26777 | 142° | 5km/h | 22430m | 5.1m/s | -53.2°C | 1.3% | 40.1hPa | 2.6V | 03:49:03 | 01:29:26 | 00:00:00 | |
| DL1XH-west | 2026-09-01 17:59:10 | 49.73201 | 8.26779 | 124° | 7km/h | 22436m | 6.1m/s | -53.2°C | 1.3% | 40.1hPa | 2.5V | 03:49:03 | 01:29:27 | 00:00:00 | |
| DL1XH1-15 | 2026-09-01 17:59:09 | 49.73203 | 8.26777 | 114° | 2km/h | 22425m | 4.6m/s | -53.1°C | 4.3% | 40.2hPa | 2.6V | 03:48:53 | 01:29:25 | 00:00:00 | |
| DB0NH | 2026-09-01 17:59:09 | 49.73202 | 8.26777 | 115° | 5km/h | 22425m | 4.6m/s | -53.1°C | 4.3% | 40.1hPa | 2.6V | 03:48:00 | 01:29:25 | 00:00:00 | |
| DJ2DS-15 | 2026-09-01 17:59:08 | 49.73202 | 8.26777 | 115° | 7km/h | 22425m | 4.6m/s | -53.1°C | 4.3% | 40.1hPa | 2.6V | 00:00:00 | 01:29:25 | 00:00:00 | |
| DM0DOS-11 | 2026-09-01 17:59:07 | 49.73195 | 8.26766 | 37° | 13km/h | 22392m | 6.2m/s | -53.1°C | 4.3% | 40.4hPa | 2.6V | 03:48:59 | 01:29:19 | 00:00:00 | |
| DL1ZP-14 | 2026-09-01 17:59:06 | 49.73201 | 8.26774 | 34° | 5km/h | 22414m | 4.6m/s | -53.1°C | 1.4% | 40.3hPa | 2.7V | 00:00:00 | 00:00:00 | 00:00:00 | |
| DF3TZ-5 | 2026-09-01 17:59:05 | 49.73200 | 8.26773 | 37° | 5km/h | 22409m | 6.3m/s | -53.1°C | 1.4% | 40.3hPa | 2.5V | 00:00:00 | 00:00:00 | 00:00:00 | |
| DJ2DS-15 | 2026-09-01 17:59:04 | 49.73199 | 8.26771 | 42° | 5km/h | 22403m | 5.1m/s | -53.1°C | 1.4% | 40.3hPa | 2.5V | 00:00:00 | 00:00:00 | 00:00:00 | |
| DL1XH1-15 | 2026-09-01 17:59:02 | 49.73186 | 8.26757 | 6° | 4km/h | 22372m | 4.7m/s | -53.1°C | 4.3% | 40.5hPa | 2.5V | 03:49:03 | 01:29:15 | 00:00:00 | |
| DL1XH-west | 2026-09-01 17:59:00 | 49.73187 | 8.26758 | 34° | 9km/h | 22377m | 6.1m/s | -53.1°C | 1.3% | 40.5hPa | 2.7V | 03:49:03 | 01:29:16 | 00:00:00 | |
| DN1GJH-1 | 2026-09-01 17:58:59 | 49.73189 | 8.26760 | 35° | 13km/h | 22382m | 4.2m/s | -53.1°C | 1.5% | 40.4hPa | 2.7V | 03:49:00 | 00:00:00 | 00:00:00 | |
| DL1XH-15 | 2026-09-01 17:58:58 | 49.73182 | 8.26767 | 282° | 7km/h | 22345m | 6.3m/s | 0°C | 0% | 0hPa | 2.7V | 00:00:00 | 01:29:10 | 00:00:00 | |
| BIOWL1-15 | 2026-09-01 17:58:58 | 49.73186 | 8.26757 | 7° | 4km/h | 22372m | 4.7m/s | -53.1°C | 1.3% | 40.5hPa | 2.5V | 03:49:03 | 01:29:15 | 00:00:00 | |
| DL3AQ-11 | 2026-09-01 17:58:57 | 49.73184 | 8.26759 | 301° | 5km/h | 22362m | 5.6m/s | -53.2°C | 1.5% | 40.6hPa | 2.7V | 00:00:00 | 00:00:00 | 00:00:00 | |
| DL4BBY-15 | 2026-09-01 17:58:55 | 49.73184 | 8.26761 | 304° | 5km/h | 22356m | 5.4m/s | -53.6°C | 0% | 0hPa | 2.7V | 00:00:00 | 00:00:00 | 00:00:00 | |
| DD1CC2-15 | 2026-09-01 17:58:54 | 49.73183 | 8.26761 | 304° | 9km/h | 22356m | 5.4m/s | -53.2°C | 1.6% | 40.6hPa | 2.7V | 03:49:00 | 00:00:00 | 00:00:00 | |
| BIOWL7-15 | 2026-09-01 17:58:53 | 49.73182 | 8.26764 | 300° | 9km/h | 22351m | 5.2m/s | -53.1°C | 1.5% | 40.6hPa | 2.7V | 03:49:00 | 00:00:00 | 00:00:00 | |
| DO3MHA-11 | 2026-09-01 17:58:52 | 49.73182 | 8.26769 | 265° | 5km/h | 22339m | 5.0m/s | -53.0°C | 4.3% | 40.7hPa | 2.7V | 00:00:00 | 01:29:09 | 00:00:00 | |
| DJ2KF-10 | 2026-09-01 17:58:51 | 49.73182 | 8.26770 | 277° | 5km/h | 22335m | 4.5m/s | -53.0°C | 4.3% | 40.7hPa | 2.7V | 00:00:00 | 01:29:08 | 00:00:00 | |
| DL1XH1-15 | 2026-09-01 17:58:50 | 49.73179 | 8.26769 | 40° | 7km/h | 22319m | 4.8m/s | -53°C | 4.3% | 40.8hPa | 2.7V | 03:49:13 | 01:29:05 | 00:00:00 | |
| BIOWL1-15 | 2026-09-01 17:58:48 | 49.73179 | 8.26769 | 40° | 7km/h | 22319m | 4.8m/s | -53°C | 1.3% | 40.8hPa | 2.7V | 03:49:54 | 01:29:05 | 00:00:00 | |
| DJ2DS-15 | 2026-09-01 17:58:48 | 49.73179 | 8.26769 | 41° | 5km/h | 22319m | 4.7m/s | -52.9°C | 4.3% | 40.8hPa | 2.7V | 00:00:00 | 01:29:05 | 00:00:00 | |
| DL1XH-15 | 2026-09-01 17:58:47 | 49.73176 | 8.26770 | 252° | 9km/h | 22286m | 6.4m/s | 0°C | 0% | 0hPa | 2.7V | 00:00:00 | 01:28:59 | 00:00:00 | |
| DL3AQ-11 | 2026-09-01 17:58:46 | 49.73176 | 8.26764 | 26° | 2km/h | 22302m | 6.4m/s | -53.0°C | 1.4% | 41.0hPa | 2.6V | 00:00:00 | 00:00:00 | 00:00:00 | |
| DF7PN | 2026-09-01 17:58:45 | 49.73175 | 8.26764 | 304° | 4km/h | 22296m | 4.8m/s | -53.0°C | 1.4% | 41.0hPa | 2.6V | 00:00:00 | 00:00:00 | 00:00:00 | |
| DM3KS-11 | 2026-09-01 17:58:44 | 49.73175 | 8.26766 | 267° | 5km/h | 22292m | 3.9m/s | -53.0°C | 1.4% | 41.0hPa | 2.6V | 00:00:00 | 00:00:00 | 00:00:00 | |
| DL1XH1-15 | 2026-09-01 17:58:43 | 49.73180 | 8.26785 | 242° | 7km/h | 22265m | 4.8m/s | -53.1°C | 4.3% | 41.2hPa | 2.6V | 03:49:23 | 01:28:55 | 00:00:00 | |
| DO3MHA-11 | 2026-09-01 17:58:42 | 49.73175 | 8.26770 | 253° | 7km/h | 22287m | 6.4m/s | -53.0°C | 4.3% | 41.0hPa | 2.6V | 00:00:00 | 01:28:59 | 00:00:00 | |
| BIOWL9-15 | 2026-09-01 17:58:38 | 49.73180 | 8.26785 | 242° | 7km/h | 22265m | 4.8m/s | -53.1°C | 1.5% | 41.2hPa | 2.6V | 00:00:00 | 00:00:00 | 00:00:00 | |
| DM0DOS-11 | 2026-09-01 17:58:37 | 49.73182 | 8.26783 | 77° | 4km/h | 22232m | 6.2m/s | -53°C | 4.3% | 41.4hPa | 2.6V | 03:49:29 | 01:28:49 | 00:00:00 | |
| DL1XH-west | 2026-09-01 17:58:37 | 49.73181 | 8.26788 | 217° | 5km/h | 22259m | 6.1m/s | -53.1°C | 1.3% | 41.2hPa | 2.7V | 03:49:54 | 01:28:54 | 00:00:00 | |
| HEMX73-11 | 2026-09-01 17:58:36 | 49.73181 | 8.26788 | 218° | 5km/h | 22260m | 6.1m/s | -53.1°C | 1.4% | 41.2hPa | 2.7V | 03:49:00 | 00:00:00 | 00:00:00 | |
| DL1XH-15 | 2026-09-01 17:58:35 | 49.73182 | 8.26780 | 131° | 2km/h | 22221m | 4.3m/s | 0°C | 0% | 0hPa | 2.7V | 00:00:00 | 01:28:47 | 00:00:00 | |
| DF3TZ-5 | 2026-09-01 17:58:34 | 49.73182 | 8.26786 | 68° | 4km/h | 22243m | 6.1m/s | -53.0°C | 1.4% | 41.3hPa | 2.7V | 00:00:00 | 00:00:00 | 00:00:00 | |
| HTAHTA | 2026-09-01 17:58:33 | 49.73182 | 8.26783 | 77° | 4km/h | 22232m | 6.2m/s | -53.0°C | 1.4% | 41.4hPa | 2.7V | 00:00:00 | 00:00:00 | 00:00:00 | |
| DL1XH1-15 | 2026-09-01 17:58:32 | 49.73182 | 8.26779 | 73° | 2km/h | 22211m | 4.6m/s | -52.9°C | 4.3% | 41.5hPa | 2.7V | 03:49:33 | 01:28:45 | 00:00:00 | |
| DO3MHA-11 | 2026-09-01 17:58:32 | 49.73182 | 8.26783 | 78° | 4km/h | 22232m | 6.1m/s | -52.9°C | 4.3% | 41.4hPa | 2.6V | 00:00:00 | 01:28:49 | 00:00:00 | |
| NBG1-10 | 2026-09-01 17:58:31 | 49.73182 | 8.26781 | 106° | 7km/h | 22227m | 5.0m/s | -52.9°C | 4.3% | 41.4hPa | 2.6V | 03:49:00 | 01:28:48 | 00:00:00 | |
| DL3AQ-11 | 2026-09-01 17:58:30 | 49.73182 | 8.26780 | 87° | 0km/h | 22217m | 5.7m/s | -52.9°C | 1.5% | 41.5hPa | 2.6V | 00:00:00 | 00:00:00 | 00:00:00 | |
| DB0NH | 2026-09-01 17:58:29 | 49.73182 | 8.26780 | 88° | 7km/h | 22217m | 5.6m/s | -52.9°C | 4.3% | 41.4hPa | 2.6V | 00:00:00 | 01:28:46 | 00:00:00 | |
| DJ2DS-15 | 2026-09-01 17:58:28 | 49.73182 | 8.26779 | 74° | 7km/h | 22212m | 4.6m/s | -52.8°C | 4.3% | 41.5hPa | 2.6V | 03:49:00 | 01:28:45 | 00:00:00 | |
| DM0DOS-11 | 2026-09-01 17:58:27 | 49.73186 | 8.26768 | 115° | 4km/h | 22180m | 4.1m/s | -52.6°C | 4.3% | 41.8hPa | 2.6V | 03:49:39 | 01:28:39 | 00:00:00 | |
| DL1XH-west | 2026-09-01 17:58:26 | 49.73183 | 8.26777 | 126° | 5km/h | 22201m | 6.2m/s | -52.8°C | 1.3% | 41.6hPa | 2.6V | 03:49:54 | 01:28:43 | 00:00:00 | |
| DL4BBY-15 | 2026-09-01 17:58:25 | 49.73184 | 8.26775 | 128° | 9km/h | 22196m | 5.0m/s | -53.1°C | 0% | 0hPa | 2.7V | 00:00:00 | 00:00:00 | 00:00:00 | |
| HEMX73-6 | 2026-09-01 17:58:24 | 49.73185 | 8.26772 | 125° | 40km/h | 22190m | 6.0m/s | -52.7°C | 4.4% | 41.6hPa | 2.7V | 00:00:00 | 01:28:41 | 00:00:00 | |
| CB1BUN | 2026-09-01 17:58:23 | 49.73185 | 8.26772 | 126° | 7km/h | 22190m | 6.0m/s | -52.7°C | 1.5% | 41.7hPa | 2.7V | 03:49:00 | 00:00:00 | 00:00:00 | |
| DO3MHA-11 | 2026-09-01 17:58:22 | 49.73186 | 8.26768 | 116° | 9km/h | 22180m | 4.0m/s | -52.6°C | 4.3% | 41.7hPa | 2.7V | 03:49:00 | 01:28:39 | 00:00:00 | |
| DJ2KF-10 | 2026-09-01 17:58:21 | 49.73187 | 8.26767 | 127° | 9km/h | 22175m | 5.3m/s | -52.5°C | 4.3% | 41.7hPa | 2.7V | 00:00:00 | 01:28:38 | 00:00:00 | |
| DL1XH1-15 | 2026-09-01 17:58:20 | 49.73190 | 8.26758 | 96° | 9km/h | 22159m | 6.3m/s | -52.4°C | 4.2% | 41.9hPa | 2.7V | 03:49:43 | 01:28:35 | 00:00:00 | |
| DL1XH-15 | 2026-09-01 17:58:19 | 49.73188 | 8.26741 | 94° | 9km/h | 22138m | 5.3m/s | 0°C | 0% | 0hPa | 2.6V | 00:00:00 | 01:28:31 | 00:00:00 | |
| DM0DOS-11 | 2026-09-01 17:58:17 | 49.73188 | 8.26735 | 89° | 5km/h | 22127m | 6m/s | -52.3°C | 4.2% | 42.1hPa | 2.7V | 03:49:49 | 01:28:29 | 00:00:00 | |
| DL1XH-west | 2026-09-01 17:58:16 | 49.73189 | 8.26750 | 75° | 13km/h | 22149m | 4.1m/s | -52.4°C | 1.2% | 41.9hPa | 2.5V | 03:49:54 | 01:28:33 | 00:00:00 | |
| DB0UT-9 | 2026-09-01 17:58:15 | 49.73189 | 8.26749 | 76° | 13km/h | 22149m | 4.1m/s | -52.4°C | 1.4% | 41.9hPa | 2.6V | 03:49:00 | 00:00:00 | 00:00:00 | |
| AU51GT2 | 2026-09-01 17:58:14 | 49.73188 | 8.26741 | 94° | 9km/h | 22138m | 5.3m/s | -52.3°C | 1.4% | 42.0hPa | 2.6V | 00:00:00 | 00:00:00 | 00:00:00 | |
| DD1CC2-15 | 2026-09-01 17:58:13 | 49.73188 | 8.26741 | 96° | 9km/h | 22138m | 5.3m/s | -52.3°C | 1.4% | 42.0hPa | 2.6V | 03:49:00 | 00:00:00 | 00:00:00 | |
| DO3MHA-11 | 2026-09-01 17:58:12 | 49.73188 | 8.26735 | 90° | 7km/h | 22127m | 6.0m/s | -52.3°C | 4.2% | 42.0hPa | 2.6V | 00:00:00 | 01:28:29 | 00:00:00 | |
| DL8OAI-8 | 2026-09-01 17:58:11 | 49.73188 | 8.26735 | 91° | 5km/h | 22127m | 6.0m/s | -52.3°C | 1.5% | 42.1hPa | 2.6V | 03:49:00 | 00:00:00 | 00:00:00 | |
| KANTATE | 2026-09-01 17:58:10 | 49.73188 | 8.26733 | 113° | 4km/h | 22122m | 4.7m/s | -52.3°C | 1.4% | 42.1hPa | 2.6V | 00:00:00 | 00:00:00 | 00:00:00 | |
| DL1XH1-15 | 2026-09-01 17:58:08 | 49.73193 | 8.26730 | 170° | 9km/h | 22105m | 4.2m/s | -52.2°C | 4.1% | 42.2hPa | 2.6V | 03:49:53 | 01:28:25 | 00:00:00 | |
| DL1XH-15 | 2026-09-01 17:58:08 | 49.73203 | 8.26724 | 140° | 11km/h | 22080m | 4.7m/s | 0°C | 0% | 0hPa | 2.6V | 00:00:00 | 01:28:20 | 00:00:00 | |
| BIOWL1-15 | 2026-09-01 17:58:06 | 49.73197 | 8.26729 | 163° | 7km/h | 22095m | 4.5m/s | -52.2°C | 1.2% | 42.3hPa | 2.7V | 03:50:45 | 01:28:23 | 00:00:00 | |
| DL3AQ-11 | 2026-09-01 17:58:06 | 49.73198 | 8.26728 | 153° | 7km/h | 22090m | 4.5m/s | -52.2°C | 1.4% | 42.3hPa | 2.6V | 00:00:00 | 00:00:00 | 00:00:00 | |
| DM0DOS-11 | 2026-09-01 17:58:05 | 49.73204 | 8.26721 | 131° | 9km/h | 22075m | 4.6m/s | -52.2°C | 4.1% | 42.4hPa | 2.6V | 03:49:59 | 01:28:19 | 00:00:00 | |
| DL1XH-west | 2026-09-01 17:58:05 | 49.73198 | 8.26728 | 153° | 7km/h | 22090m | 4.5m/s | -52.2°C | 1.2% | 42.3hPa | 2.7V | 03:50:45 | 01:28:22 | 00:00:00 | |
| BIOWL1-15 | 2026-09-01 17:57:56 | 49.73206 | 8.26697 | 88° | 15km/h | 22043m | 5.8m/s | -52.2°C | 1.2% | 42.7hPa | 2.6V | 03:50:45 | 01:28:13 | 00:00:00 | |
| DM0DOS-11 | 2026-09-01 17:57:55 | 49.73208 | 8.26678 | 119° | 15km/h | 22020m | 5.5m/s | -52.2°C | 4.1% | 42.8hPa | 2.7V | 03:50:09 | 01:28:09 | 00:00:00 | |
| DL1XH-west | 2026-09-01 17:57:54 | 49.73206 | 8.26687 | 91° | 13km/h | 22032m | 5.1m/s | -52.2°C | 1.2% | 42.7hPa | 2.7V | 03:50:45 | 01:28:11 | 00:00:00 | |
| DB0ND-19 | 2026-09-01 17:57:53 | 49.73208 | 8.26678 | 119° | 15km/h | 22020m | 5.5m/s | -52.2°C | 1.4% | 42.8hPa | 2.6V | 00:00:00 | 00:00:00 | 00:00:00 | |
| DO3MHA-11 | 2026-09-01 17:57:52 | 49.73208 | 8.26678 | 120° | 18km/h | 22020m | 5.5m/s | -52.2°C | 4.1% | 42.8hPa | 2.6V | 00:00:00 | 01:28:09 | 00:00:00 | |
| DJ2KF-10 | 2026-09-01 17:57:51 | 49.73210 | 8.26673 | 126° | 24km/h | 22016m | 3.7m/s | -52.2°C | 4.1% | 42.8hPa | 2.6V | 00:00:00 | 01:28:08 | 00:00:00 | |
| DL1XH1-15 | 2026-09-01 17:57:50 | 49.73214 | 8.26659 | 91° | 13km/h | 22000m | 4.3m/s | -52.2°C | 4.1% | 43hPa | 2.7V | 03:50:13 | 01:28:05 | 00:00:00 | |
| DL3AQ-11 | 2026-09-01 17:57:50 | 49.73214 | 8.26663 | 110° | 11km/h | 22005m | 5.7m/s | -52.2°C | 1.4% | 42.9hPa | 2.7V | 00:00:00 | 00:00:00 | 00:00:00 | |
| DL8DAS-14 | 2026-09-01 17:57:46 | 49.73214 | 8.26646 | 86° | 18km/h | 21989m | 6.1m/s | -52.2°C | 1.4% | 43.0hPa | 2.7V | 00:00:00 | 00:00:00 | 00:00:00 | |
| DM0DOS-11 | 2026-09-01 17:57:45 | 49.73211 | 8.26608 | 74° | 26km/h | 21966m | 5.7m/s | -52.1°C | 4.1% | 43.2hPa | 2.7V | 03:50:19 | 01:27:59 | 00:00:00 | |
| BIOWL1-15 | 2026-09-01 17:57:45 | 49.73214 | 8.26637 | 88° | 24km/h | 21983m | 5.6m/s | -52.2°C | 1.2% | 43hPa | 2.6V | 03:50:45 | 01:28:02 | 00:00:00 | |
| DL1XH-west | 2026-09-01 17:57:43 | 49.73212 | 8.26618 | 79° | 26km/h | 21972m | 6.8m/s | -52.1°C | 1.2% | 43.1hPa | 2.7V | 03:50:45 | 01:28:00 | 00:00:00 | |
| AU51GT2 | 2026-09-01 17:57:43 | 49.73211 | 8.26608 | 74° | 26km/h | 21966m | 5.7m/s | -52.2°C | 1.4% | 43.2hPa | 2.6V | 00:00:00 | 00:00:00 | 00:00:00 | |
| DM3KS-11 | 2026-09-01 17:57:42 | 49.73209 | 8.26598 | 75° | 24km/h | 21961m | 5.4m/s | -52.2°C | 1.4% | 43.2hPa | 2.6V | 00:00:00 | 00:00:00 | 00:00:00 | |
| DL0LBS | 2026-09-01 17:57:40 | 49.73209 | 8.26598 | 77° | 26km/h | 21961m | 5.4m/s | -52.2°C | 1.4% | 43.2hPa | 2.6V | 03:50:00 | 00:00:00 | 00:00:00 | |
| DL3AQ-11 | 2026-09-01 17:57:37 | 49.73207 | 8.26558 | 92° | 16km/h | 21933m | 4.7m/s | -52.3°C | 1.4% | 43.4hPa | 2.6V | 00:00:00 | 00:00:00 | 00:00:00 | |
| DM0DOS-11 | 2026-09-01 17:57:36 | 49.73204 | 8.26514 | 71° | 33km/h | 21906m | 4.7m/s | -52.4°C | 4.1% | 43.6hPa | 2.6V | 03:50:30 | 01:27:48 | 00:00:00 | |
| BIOWL1-15 | 2026-09-01 17:57:34 | 49.73208 | 8.26543 | 94° | 22km/h | 21922m | 5.1m/s | -52.3°C | 1.2% | 43.5hPa | 2.7V | 03:50:45 | 01:27:51 | 00:00:00 | |
| DL1XH-west | 2026-09-01 17:57:32 | 49.73206 | 8.26525 | 75° | 27km/h | 21911m | 4.8m/s | -52.4°C | 1.2% | 43.5hPa | 2.6V | 03:50:45 | 01:27:49 | 00:00:00 | |
| BIOWL1-15 | 2026-09-01 17:57:23 | 49.73185 | 8.26420 | 82° | 22km/h | 21862m | 6m/s | -52.6°C | 1.3% | 43.8hPa | 2.7V | 03:50:45 | 01:27:40 | 00:00:00 | |
| DL1XH-west | 2026-09-01 17:57:21 | 49.73183 | 8.26405 | 77° | 20km/h | 21851m | 4.2m/s | -52.7°C | 1.4% | 43.9hPa | 2.6V | 03:50:45 | 01:27:38 | 00:00:00 | |
| DL1XH1-15 | 2026-09-01 17:57:20 | 49.73180 | 8.26380 | 82° | 24km/h | 21836m | 4.8m/s | -52.7°C | 4.3% | 44hPa | 2.7V | 03:50:43 | 01:27:35 | 00:00:00 | |
| HSKMA3-T | 2026-09-01 17:57:19 | 49.73181 | 8.26389 | 83° | 24km/h | 21841m | 5.9m/s | 0°C | 0% | 44hPa | 2.6V | 18:12:15 | 01:27:36 | 00:00:00 | |
| DO1YAY-16 | 2026-09-01 17:57:19 | 49.73180 | 8.26380 | 82° | 24km/h | 21836m | 4.8m/s | -52.7°C | 1.5% | 44.0hPa | 2.6V | 00:00:00 | 00:00:00 | 00:00:00 | |
| DJ2DS-15 | 2026-09-01 17:57:16 | 49.73178 | 8.26362 | 73° | 22km/h | 21825m | 5.6m/s | -52.6°C | 1.5% | 44.1hPa | 2.6V | 00:00:00 | 00:00:00 | 00:00:00 | |
| DM0DOS-11 | 2026-09-01 17:57:16 | 49.73166 | 8.26321 | 51° | 22km/h | 21797m | 6m/s | -52.5°C | 4.2% | 44.3hPa | 2.7V | 03:50:50 | 01:27:28 | 00:00:00 | |
| DL8DAS-14 | 2026-09-01 17:57:15 | 49.73176 | 8.26353 | 71° | 22km/h | 21819m | 4.9m/s | -52.6°C | 1.4% | 44.1hPa | 2.6V | 00:00:00 | 00:00:00 | 00:00:00 | |
| HEMX73-11 | 2026-09-01 17:57:14 | 49.73174 | 8.26345 | 73° | 24km/h | 21814m | 6.1m/s | -52.6°C | 1.5% | 44.2hPa | 2.6V | 03:51:00 | 00:00:00 | 00:00:00 | |
| DL1XH1-15 | 2026-09-01 17:57:13 | 49.73154 | 8.26300 | 55° | 24km/h | 21783m | 5.8m/s | -52.4°C | 4.2% | 44.4hPa | 2.6V | 03:50:53 | 01:27:25 | 00:00:00 | |
| BIOWL1-15 | 2026-09-01 17:57:13 | 49.73172 | 8.26336 | 67° | 24km/h | 21808m | 4.7m/s | -52.5°C | 1.3% | 44.2hPa | 2.6V | 03:51:36 | 01:27:30 | 00:00:00 | |
| DL1XH-west | 2026-09-01 17:57:11 | 49.73166 | 8.26321 | 52° | 22km/h | 21797m | 6m/s | -52.5°C | 1.3% | 44.3hPa | 2.7V | 03:51:36 | 01:27:28 | 00:00:00 | |
| DL8DAS-15 | 2026-09-01 17:57:10 | 49.73166 | 8.26321 | 53° | 22km/h | 21797m | 6.0m/s | -52.5°C | 1.5% | 44.3hPa | 2.6V | 00:00:00 | 00:00:00 | 00:00:00 | |
| DL8OAI-8 | 2026-09-01 17:57:09 | 49.73162 | 8.26314 | 46° | 24km/h | 21792m | 4.4m/s | -52.5°C | 1.5% | 44.4hPa | 2.6V | 03:51:00 | 00:00:00 | 00:00:00 | |
| DJ2DS-15 | 2026-09-01 17:57:08 | 49.73155 | 8.26300 | 56° | 16km/h | 21783m | 5.7m/s | -52.3°C | 4.2% | 44.4hPa | 2.6V | 03:50:00 | 01:27:25 | 00:00:00 | |
| DM0DOS-11 | 2026-09-01 17:57:06 | 49.73144 | 8.26250 | 76° | 16km/h | 21745m | 4.3m/s | -52.3°C | 4.2% | 44.7hPa | 2.6V | 03:51:00 | 01:27:18 | 00:00:00 | |
| HSKMA3-T | 2026-09-01 17:57:06 | 49.73149 | 8.26284 | 71° | 22km/h | 21772m | 5m/s | 0°C | 0% | 0hPa | 2.7V | 18:12:15 | 01:27:23 | 00:00:00 | |
| BIOWL7-15 | 2026-09-01 17:57:05 | 49.73149 | 8.26284 | 72° | 22km/h | 21772m | 5.0m/s | -52.3°C | 1.5% | 44.5hPa | 2.7V | 03:51:00 | 00:00:00 | 00:00:00 | |
| DJTTGO | 2026-09-01 17:57:04 | 49.73147 | 8.26276 | 73° | 20km/h | 21767m | 5.7m/s | -52.3°C | 1.5% | 44.5hPa | 2.7V | 03:51:00 | 00:00:00 | 00:00:00 | |
| SONCRA | 2026-09-01 17:57:03 | 49.73146 | 8.26263 | 79° | 16km/h | 21756m | 5.5m/s | -52.3°C | 1.5% | 44.6hPa | 2.7V | 00:00:00 | 00:00:00 | 00:00:00 | |
| DL1XH1-15 | 2026-09-01 17:57:02 | 49.73138 | 8.26235 | 36° | 15km/h | 21729m | 4.8m/s | -52.2°C | 4.2% | 44.8hPa | 2.7V | 03:51:03 | 01:27:15 | 00:00:00 | |
| BIOWL1-15 | 2026-09-01 17:57:02 | 49.73145 | 8.26256 | 82° | 18km/h | 21751m | 5.7m/s | -52.3°C | 1.3% | 44.6hPa | 2.6V | 03:51:36 | 01:27:19 | 00:00:00 | |
| DL1XH-west | 2026-09-01 17:57:00 | 49.73143 | 8.26244 | 63° | 16km/h | 21741m | 5.4m/s | -52.3°C | 1.3% | 44.7hPa | 2.7V | 03:51:36 | 01:27:17 | 00:00:00 | |
| DL0LBS | 2026-09-01 17:56:59 | 49.73140 | 8.26239 | 48° | 15km/h | 21735m | 6.0m/s | -52.2°C | 1.5% | 44.7hPa | 2.6V | 03:51:00 | 00:00:00 | 00:00:00 | |
| DB0UT-7 | 2026-09-01 17:56:58 | 49.73138 | 8.26235 | 37° | 16km/h | 21730m | 4.8m/s | -52.2°C | 4.2% | 44.7hPa | 2.6V | 03:51:00 | 01:27:15 | 00:00:00 | |
| DM0DOS-11 | 2026-09-01 17:56:56 | 49.73123 | 8.26204 | 81° | 15km/h | 21693m | 6m/s | -52.1°C | 4.1% | 45hPa | 2.6V | 03:51:10 | 01:27:08 | 00:00:00 | |
| HSKMA3-T | 2026-09-01 17:56:55 | 49.73129 | 8.26223 | 54° | 15km/h | 21714m | 4.3m/s | 0°C | 0% | 0hPa | 2.6V | 18:12:15 | 01:27:12 | 00:00:00 | |
| BIOWL1-15 | 2026-09-01 17:56:54 | 49.73124 | 8.26209 | 70° | 13km/h | 21698m | 4.8m/s | -52.1°C | 1.2% | 45hPa | 2.6V | 03:51:36 | 01:27:09 | 00:00:00 | |
| DB0ND-19 | 2026-09-01 17:56:51 | 49.73122 | 8.26198 | 87° | 18km/h | 21687m | 5.7m/s | -52.1°C | 1.4% | 45.1hPa | 2.7V | 00:00:00 | 00:00:00 | 00:00:00 | |
| DL1XH1-15 | 2026-09-01 17:56:50 | 49.73122 | 8.26183 | 87° | 18km/h | 21677m | 6.2m/s | -52°C | 4.2% | 45.2hPa | 2.7V | 03:51:13 | 01:27:05 | 00:00:00 | |
| DL1XH-west | 2026-09-01 17:56:49 | 49.73122 | 8.26190 | 88° | 20km/h | 21682m | 4.5m/s | -52°C | 1.3% | 45.1hPa | 2.7V | 03:51:36 | 01:27:06 | 00:00:00 | |
| DO1YAY-16 | 2026-09-01 17:56:48 | 49.73121 | 8.26176 | 82° | 16km/h | 21672m | 4.4m/s | -52.0°C | 1.4% | 45.2hPa | 2.7V | 00:00:00 | 00:00:00 | 00:00:00 | |
| DM0DOS-11 | 2026-09-01 17:56:46 | 49.73110 | 8.26138 | 50° | 15km/h | 21640m | 3.8m/s | -51.7°C | 4.1% | 45.4hPa | 2.7V | 03:51:20 | 01:26:58 | 00:00:00 | |
| DL3AQ-11 | 2026-09-01 17:56:45 | 49.73119 | 8.26161 | 72° | 20km/h | 21661m | 5.7m/s | -51.9°C | 1.4% | 45.2hPa | 2.7V | 00:00:00 | 00:00:00 | 00:00:00 | |
| BIOWL1-15 | 2026-09-01 17:56:41 | 49.73110 | 8.26138 | 50° | 15km/h | 21640m | 3.8m/s | -51.7°C | 1.2% | 45.4hPa | 2.7V | 03:51:36 | 01:26:58 | 00:00:00 | |
| CB1BUN | 2026-09-01 17:56:41 | 49.73110 | 8.26138 | 51° | 15km/h | 21641m | 3.8m/s | -51.7°C | 1.4% | 45.4hPa | 2.6V | 03:51:00 | 00:00:00 | 00:00:00 | |
| DM7RM-13 | 2026-09-01 17:56:40 | 49.73110 | 8.26138 | 51° | 15km/h | 21641m | 3.8m/s | -51.7°C | 1.4% | 45.4hPa | 2.6V | 03:51:00 | 00:00:00 | 00:00:00 | |
| DL1XH1-15 | 2026-09-01 17:56:39 | 49.73105 | 8.26121 | 81° | 18km/h | 21626m | 4m/s | -51.7°C | 4.1% | 45.5hPa | 2.6V | 03:51:23 | 01:26:55 | 00:00:00 | |
| DL1XH-west | 2026-09-01 17:56:39 | 49.73105 | 8.26114 | 88° | 18km/h | 21621m | 5.2m/s | -51.7°C | 1.2% | 45.5hPa | 2.6V | 03:51:36 | 01:26:54 | 00:00:00 | |
| DL0LBS | 2026-09-01 17:56:38 | 49.73106 | 8.26127 | 73° | 18km/h | 21630m | 5.0m/s | -51.7°C | 1.4% | 45.5hPa | 2.7V | 03:51:00 | 00:00:00 | 00:00:00 | |
| DM0DOS-11 | 2026-09-01 17:56:36 | 49.73107 | 8.26081 | 79° | 11km/h | 21589m | 6.2m/s | -51.5°C | 3.9% | 45.8hPa | 2.7V | 03:51:30 | 01:26:48 | 00:00:00 | |
| BIOWL9-15 | 2026-09-01 17:56:34 | 49.73107 | 8.26092 | 101° | 15km/h | 21599m | 5.1m/s | -51.5°C | 1.4% | 45.7hPa | 2.6V | 00:00:00 | 00:00:00 | 00:00:00 | |
| DL1XH-15 | 2026-09-01 17:56:33 | 49.73100 | 8.26063 | 54° | 15km/h | 21567m | 4.2m/s | 0°C | 0% | 0hPa | 2.6V | 00:00:00 | 01:26:44 | 00:00:00 | |
| DL1XH1-15 | 2026-09-01 17:56:32 | 49.73102 | 8.26068 | 57° | 15km/h | 21572m | 5m/s | -51.4°C | 4% | 45.9hPa | 2.6V | 03:51:33 | 01:26:45 | 00:00:00 | |
| BIOWL1-15 | 2026-09-01 17:56:31 | 49.73107 | 8.26081 | 79° | 11km/h | 21590m | 6.2m/s | -51.5°C | 1.1% | 45.8hPa | 2.7V | 03:51:36 | 01:26:48 | 00:00:00 | |
| DL1XH-west | 2026-09-01 17:56:27 | 49.73100 | 8.26063 | 55° | 15km/h | 21567m | 4.2m/s | -51.5°C | 1.1% | 45.9hPa | 2.6V | 03:51:36 | 01:26:44 | 00:00:00 | |
| BIOWL1-15 | 2026-09-01 17:56:23 | 49.73095 | 8.26030 | 111° | 16km/h | 21536m | 6.4m/s | -51.5°C | 1.1% | 46.1hPa | 2.6V | 03:52:27 | 01:26:38 | 00:00:00 | |
| DO3MHA-11 | 2026-09-01 17:56:22 | 49.73094 | 8.26036 | 101° | 15km/h | 21542m | 5.3m/s | -51.4°C | 3.9% | 46.0hPa | 2.6V | 03:51:00 | 01:26:39 | 00:00:00 | |
| DJ2KF-10 | 2026-09-01 17:56:21 | 49.73095 | 8.26030 | 111° | 13km/h | 21536m | 6.3m/s | -51.4°C | 3.9% | 46.1hPa | 2.6V | 00:00:00 | 01:26:38 | 00:00:00 | |
| DL1XH1-15 | 2026-09-01 17:56:20 | 49.73102 | 8.26015 | 127° | 18km/h | 21520m | 5.7m/s | -51.5°C | 3.9% | 46.2hPa | 2.7V | 03:51:43 | 01:26:35 | 00:00:00 | |
| DL1XH-west | 2026-09-01 17:56:17 | 49.73104 | 8.26009 | 122° | 18km/h | 21516m | 4.5m/s | -51.5°C | 1.1% | 46.3hPa | 2.7V | 03:52:27 | 01:26:34 | 00:00:00 | |
| DL8DAS-15 | 2026-09-01 17:56:16 | 49.73104 | 8.26009 | 123° | 18km/h | 21516m | 4.5m/s | -51.5°C | 1.4% | 46.3hPa | 2.6V | 00:00:00 | 00:00:00 | 00:00:00 | |
| DH7VM-15 | 2026-09-01 17:56:15 | 49.73107 | 8.26003 | 121° | 15km/h | 21511m | 4.1m/s | -51.5°C | 1.4% | 46.3hPa | 2.6V | 00:00:00 | 00:00:00 | 00:00:00 | |
| DL2OL | 2026-09-01 17:56:14 | 49.73108 | 8.25999 | 119° | 11km/h | 21506m | 6.2m/s | -51.5°C | 1.4% | 46.3hPa | 2.6V | 00:00:00 | 00:00:00 | 00:00:00 | |
| DL8DAS-14 | 2026-09-01 17:56:13 | 49.73109 | 8.25993 | 66° | 7km/h | 21495m | 5.2m/s | -51.6°C | 1.3% | 46.4hPa | 2.6V | 00:00:00 | 00:00:00 | 00:00:00 | |
| DO3MHA-11 | 2026-09-01 17:56:12 | 49.73108 | 8.25990 | 55° | 13km/h | 21489m | 6.2m/s | -51.5°C | 4.0% | 46.4hPa | 2.6V | 00:00:00 | 01:26:29 | 00:00:00 | |
| BIOWL1-15 | 2026-09-01 17:56:12 | 49.73104 | 8.25982 | 56° | 13km/h | 21480m | 4.3m/s | -51.6°C | 1.2% | 46.5hPa | 2.6V | 03:52:27 | 01:26:27 | 00:00:00 | |
| DN1GJH-1 | 2026-09-01 17:56:10 | 49.73106 | 8.25986 | 55° | 13km/h | 21484m | 4.1m/s | -51.6°C | 1.4% | 46.5hPa | 2.6V | 03:52:00 | 00:00:00 | 00:00:00 | |
| DL1XH1-15 | 2026-09-01 17:56:08 | 49.73101 | 8.25974 | 72° | 11km/h | 21470m | 4.6m/s | -51.7°C | 4% | 46.6hPa | 2.6V | 03:51:53 | 01:26:25 | 00:00:00 | |
| DJ2DS-15 | 2026-09-01 17:56:08 | 49.73101 | 8.25974 | 73° | 11km/h | 21470m | 4.5m/s | -51.7°C | 4.0% | 46.6hPa | 2.6V | 00:00:00 | 01:26:25 | 00:00:00 | |
| DL8OAI-8 | 2026-09-01 17:56:07 | 49.73101 | 8.25974 | 73° | 11km/h | 21470m | 4.6m/s | -51.7°C | 1.4% | 46.6hPa | 2.6V | 03:52:00 | 00:00:00 | 00:00:00 | |
| DM0DOS-11 | 2026-09-01 17:56:06 | 49.73106 | 8.25945 | 138° | 11km/h | 21433m | 5.4m/s | -51.8°C | 4% | 46.9hPa | 2.6V | 03:52:00 | 01:26:18 | 00:00:00 | |
| DL1XH-west | 2026-09-01 17:56:06 | 49.73101 | 8.25965 | 94° | 15km/h | 21460m | 5.6m/s | -51.7°C | 1.2% | 46.7hPa | 2.7V | 03:52:27 | 01:26:23 | 00:00:00 | |
| DL3AQ-11 | 2026-09-01 17:56:06 | 49.73101 | 8.25959 | 101° | 15km/h | 21455m | 4.7m/s | -51.7°C | 1.4% | 46.8hPa | 2.6V | 00:00:00 | 00:00:00 | 00:00:00 | |
| DJ2DS-15 | 2026-09-01 17:56:04 | 49.73103 | 8.25950 | 121° | 9km/h | 21444m | 5.1m/s | -51.7°C | 1.4% | 46.8hPa | 2.6V | 00:00:00 | 00:00:00 | 00:00:00 | |
| DL1XH1-15 | 2026-09-01 17:56:02 | 49.73112 | 8.25941 | 175° | 7km/h | 21417m | 5m/s | -51.7°C | 4% | 47hPa | 2.6V | 03:52:03 | 01:26:15 | 00:00:00 | |
| BIOWL1-15 | 2026-09-01 17:56:01 | 49.73110 | 8.25941 | 163° | 7km/h | 21423m | 6.1m/s | -51.8°C | 1.2% | 47hPa | 2.7V | 03:52:27 | 01:26:16 | 00:00:00 | |
| DL1XH-west | 2026-09-01 17:55:56 | 49.73115 | 8.25939 | 126° | 7km/h | 21408m | 5.3m/s | -51.7°C | 1.2% | 47.1hPa | 2.6V | 03:52:27 | 01:26:13 | 00:00:00 | |
| SONDE2-11 | 2026-09-01 17:55:54 | 49.73113 | 8.25905 | 67° | 13km/h | 21378m | 3.8m/s | -52.0°C | 1.4% | 47.3hPa | 2.7V | 00:00:00 | 00:00:00 | 00:00:00 | |
| DF1GD-15 | 2026-09-01 17:55:53 | 49.73116 | 8.25923 | 87° | 18km/h | 21393m | 4.4m/s | -51.8°C | 1.5% | 47.2hPa | 2.7V | 03:52:00 | 00:00:00 | 00:00:00 | |
| DO3MHA-11 | 2026-09-01 17:55:52 | 49.73116 | 8.25917 | 79° | 9km/h | 21388m | 5.6m/s | -51.8°C | 4.1% | 47.2hPa | 2.7V | 00:00:00 | 01:26:09 | 00:00:00 | |
| DJ2KF-10 | 2026-09-01 17:55:51 | 49.73115 | 8.25910 | 71° | 9km/h | 21383m | 5.1m/s | -51.9°C | 4.1% | 47.2hPa | 2.7V | 00:00:00 | 01:26:08 | 00:00:00 | |
| DL1XH1-15 | 2026-09-01 17:55:50 | 49.73112 | 8.25897 | 88° | 9km/h | 21368m | 4.7m/s | -51.9°C | 4.1% | 47.3hPa | 2.7V | 03:52:13 | 01:26:05 | 00:00:00 | |
| BIOWL1-15 | 2026-09-01 17:55:50 | 49.73112 | 8.25897 | 89° | 9km/h | 21368m | 4.7m/s | -51.9°C | 1.2% | 47.3hPa | 2.7V | 03:52:27 | 01:26:05 | 00:00:00 | |
| DL1XH-west | 2026-09-01 17:55:45 | 49.73113 | 8.25893 | 242° | 4km/h | 21353m | 5.1m/s | -51.9°C | 1.2% | 47.4hPa | 2.6V | 03:52:27 | 01:26:02 | 00:00:00 | |
| DO3MHA-11 | 2026-09-01 17:55:42 | 49.73112 | 8.25895 | 38° | 7km/h | 21339m | 5.2m/s | -51.8°C | 4.1% | 47.5hPa | 2.6V | 03:52:00 | 01:25:59 | 00:00:00 | |
| DO3DL | 2026-09-01 17:55:40 | 49.73111 | 8.25893 | 41° | 9km/h | 21334m | 4.6m/s | -51.9°C | 1.4% | 47.6hPa | 2.6V | 03:52:00 | 00:00:00 | 00:00:00 | |
| DL1XH1-15 | 2026-09-01 17:55:39 | 49.73104 | 8.25885 | 48° | 13km/h | 21317m | 5.2m/s | -51.7°C | 4% | 47.7hPa | 2.6V | 03:52:23 | 01:25:55 | 00:00:00 | |
| BIOWL1-15 | 2026-09-01 17:55:37 | 49.73103 | 8.25881 | 65° | 11km/h | 21312m | 5.5m/s | -51.6°C | 1.1% | 47.8hPa | 2.7V | 03:52:27 | 01:25:54 | 00:00:00 | |
| DL1XH-west | 2026-09-01 17:55:34 | 49.73101 | 8.25873 | 64° | 2km/h | 21297m | 5.4m/s | -51.6°C | 1.2% | 47.9hPa | 2.6V | 03:52:27 | 01:25:51 | 00:00:00 | |
| BIOWL1-15 | 2026-09-01 17:55:29 | 49.73099 | 8.25876 | 4° | 13km/h | 21260m | 5m/s | -51.6°C | 1% | 48.1hPa | 2.6V | 03:53:18 | 01:25:44 | 00:00:00 | |
| DL1XH-west | 2026-09-01 17:55:24 | 49.73088 | 8.25872 | 14° | 16km/h | 21245m | 4.8m/s | -52°C | 1.2% | 48.3hPa | 2.7V | 03:53:18 | 01:25:41 | 00:00:00 | |
| DJTTGO | 2026-09-01 17:55:23 | 49.73088 | 8.25872 | 15° | 16km/h | 21245m | 4.8m/s | -52.0°C | 1.4% | 48.3hPa | 2.6V | 03:53:00 | 00:00:00 | 00:00:00 | |
| DO3MHA-11 | 2026-09-01 17:55:22 | 49.73081 | 8.25871 | 355° | 4km/h | 21236m | 4.2m/s | -52.1°C | 4.1% | 48.3hPa | 2.6V | 00:00:00 | 01:25:39 | 00:00:00 | |
| DJ2KF-10 | 2026-09-01 17:55:21 | 49.73080 | 8.25871 | 346° | 7km/h | 21231m | 5.0m/s | -52.3°C | 4.2% | 48.3hPa | 2.6V | 03:52:00 | 01:25:38 | 00:00:00 | |
| SSTOLZ84 | 2026-09-01 17:55:20 | 49.73079 | 8.25871 | 193° | 0km/h | 21225m | 5.5m/s | -52.3°C | 1.4% | 48.4hPa | 2.6V | 00:00:00 | 00:00:00 | 00:00:00 | |
| DM0DOS-11 | 2026-09-01 17:55:19 | 49.73084 | 8.25872 | 101° | 4km/h | 21193m | 5.2m/s | -52.2°C | 4.2% | 48.6hPa | 2.6V | 03:52:47 | 01:25:31 | 00:00:00 | |
| BIOWL1-15 | 2026-09-01 17:55:18 | 49.73083 | 8.25873 | 201° | 4km/h | 21204m | 4.2m/s | -52.3°C | 1.2% | 48.6hPa | 2.6V | 03:53:18 | 01:25:33 | 00:00:00 | |
| DL1XH-west | 2026-09-01 17:55:14 | 49.73084 | 8.25871 | 54° | 4km/h | 21188m | 5.5m/s | -52.2°C | 1.2% | 48.7hPa | 2.6V | 03:53:18 | 01:25:30 | 00:00:00 | |
| BIOWL1-15 | 2026-09-01 17:55:07 | 49.73075 | 8.25849 | 85° | 4km/h | 21146m | 4.9m/s | -52.2°C | 1.2% | 49hPa | 2.7V | 03:53:18 | 01:25:22 | 00:00:00 | |
| DB0UT-9 | 2026-09-01 17:55:06 | 49.73076 | 8.25854 | 80° | 11km/h | 21157m | 5.6m/s | -52.2°C | 1.5% | 48.9hPa | 2.7V | 00:00:00 | 00:00:00 | 00:00:00 | |
| DM0DOS-11 | 2026-09-01 17:55:04 | 49.73076 | 8.25836 | 69° | 5km/h | 21113m | 5.3m/s | -52.2°C | 4.1% | 49.2hPa | 2.7V | 03:53:02 | 01:25:16 | 00:00:00 | |
| DL1XH-west | 2026-09-01 17:55:03 | 49.73076 | 8.25845 | 101° | 7km/h | 21136m | 6m/s | -52.2°C | 1.2% | 49.1hPa | 2.6V | 03:53:18 | 01:25:20 | 00:00:00 | |
| BIOWL1-15 | 2026-09-01 17:54:54 | 49.73074 | 8.25820 | 90° | 11km/h | 21087m | 5.4m/s | -52.3°C | 1.3% | 49.5hPa | 2.7V | 03:53:18 | 01:25:11 | 00:00:00 | |
| DL1XH-west | 2026-09-01 17:54:53 | 49.73074 | 8.25815 | 90° | 13km/h | 21081m | 5.8m/s | -52.2°C | 1.2% | 49.5hPa | 2.7V | 03:53:18 | 01:25:10 | 00:00:00 | |
| DJ2DS-15 | 2026-09-01 17:54:52 | 49.73073 | 8.25805 | 87° | 11km/h | 21071m | 6.3m/s | -52.2°C | 1.4% | 49.6hPa | 2.7V | 00:00:00 | 00:00:00 | 00:00:00 | |
| SSTOLZ84 | 2026-09-01 17:54:49 | 49.73073 | 8.25797 | 81° | 11km/h | 21061m | 4.8m/s | -52.2°C | 1.4% | 49.6hPa | 2.7V | 00:00:00 | 00:00:00 | 00:00:00 | |
| DJ2DS-15 | 2026-09-01 17:54:48 | 49.73072 | 8.25792 | 78° | 16km/h | 21056m | 5.9m/s | -52.2°C | 4.1% | 49.7hPa | 2.7V | 00:00:00 | 01:25:05 | 00:00:00 | |
| DM0DOS-11 | 2026-09-01 17:54:47 | 49.73069 | 8.25756 | 99° | 18km/h | 21023m | 4.2m/s | -52.3°C | 4.1% | 49.9hPa | 2.7V | 03:53:19 | 01:24:59 | 00:00:00 | |
| DB0ND-19 | 2026-09-01 17:54:47 | 49.73070 | 8.25781 | 71° | 13km/h | 21044m | 6.2m/s | -52.3°C | 1.4% | 49.8hPa | 2.7V | 00:00:00 | 00:00:00 | 00:00:00 | |
| BIOWL1-15 | 2026-09-01 17:54:45 | 49.73068 | 8.25763 | 91° | 18km/h | 21028m | 6.3m/s | -52.3°C | 1.2% | 49.9hPa | 2.7V | 03:53:18 | 01:25:00 | 00:00:00 | |
| DN1GJH-1 | 2026-09-01 17:54:44 | 49.73069 | 8.25775 | 77° | 15km/h | 21039m | 5.0m/s | -52.3°C | 1.5% | 49.8hPa | 2.6V | 03:53:00 | 00:00:00 | 00:00:00 | |
| DL8OAI-8 | 2026-09-01 17:54:43 | 49.73069 | 8.25770 | 85° | 15km/h | 21034m | 4.3m/s | -52.4°C | 1.5% | 49.8hPa | 2.6V | 00:00:00 | 00:00:00 | 00:00:00 | |
| DL1XH1-15 | 2026-09-01 17:54:42 | 49.73075 | 8.25729 | 110° | 20km/h | 21002m | 5.7m/s | -52.3°C | 4.1% | 50.1hPa | 2.6V | 03:53:23 | 01:24:55 | 00:00:00 | |
| DL1XH-west | 2026-09-01 17:54:42 | 49.73069 | 8.25756 | 100° | 20km/h | 21023m | 4.2m/s | -52.3°C | 1.3% | 50hPa | 2.7V | 03:54:09 | 01:24:59 | 00:00:00 | |
| BIOWL1-15 | 2026-09-01 17:54:35 | 49.73078 | 8.25695 | 85° | 16km/h | 20975m | 5.8m/s | -52.4°C | 1.3% | 50.3hPa | 2.6V | 03:54:09 | 01:24:50 | 00:00:00 | |
| DM0DOS-11 | 2026-09-01 17:54:34 | 49.73078 | 8.25669 | 95° | 15km/h | 20954m | 4.8m/s | -52.4°C | 4.2% | 50.5hPa | 2.7V | 03:53:32 | 01:24:46 | 00:00:00 | |
| DL1XH-west | 2026-09-01 17:54:32 | 49.73078 | 8.25688 | 88° | 18km/h | 20970m | 5.3m/s | -52.4°C | 1.2% | 50.4hPa | 2.6V | 03:54:09 | 01:24:49 | 00:00:00 | |
| DO3MHA-11 | 2026-09-01 17:54:32 | 49.73078 | 8.25688 | 89° | 16km/h | 20970m | 5.2m/s | -52.3°C | 4.2% | 50.3hPa | 2.6V | 00:00:00 | 01:24:49 | 00:00:00 | |
| DL1XH1-15 | 2026-09-01 17:54:31 | 49.73078 | 8.25663 | 98° | 15km/h | 20949m | 5.5m/s | -52.4°C | 4.1% | 50.5hPa | 2.6V | 03:53:33 | 01:24:45 | 00:00:00 | |
| DK5PH-5 | 2026-09-01 17:54:31 | 49.73077 | 8.25681 | 89° | 18km/h | 20965m | 4.3m/s | -52.3°C | 4.1% | 50.4hPa | 2.7V | 00:00:00 | 01:24:48 | 00:00:00 | |
| HEMX73-11 | 2026-09-01 17:54:29 | 49.73078 | 8.25675 | 92° | 16km/h | 20960m | 6.3m/s | -52.4°C | 1.5% | 50.5hPa | 2.7V | 03:54:00 | 00:00:00 | 00:00:00 | |
| DJ2DS-15 | 2026-09-01 17:54:28 | 49.73078 | 8.25663 | 99° | 18km/h | 20949m | 5.5m/s | -52.4°C | 4.1% | 50.5hPa | 2.7V | 03:53:00 | 01:24:45 | 00:00:00 | |
| DB0NH | 2026-09-01 17:54:27 | 49.73079 | 8.25657 | 102° | 18km/h | 20944m | 5.2m/s | -52.3°C | 4.2% | 50.5hPa | 2.7V | 00:00:00 | 01:24:44 | 00:00:00 | |
| DD1CC2-15 | 2026-09-01 17:54:26 | 49.73079 | 8.25657 | 102° | 16km/h | 20944m | 5.3m/s | -52.4°C | 1.5% | 50.6hPa | 2.7V | 03:54:00 | 00:00:00 | 00:00:00 | |
| DL4BBY-15 | 2026-09-01 17:54:25 | 49.73080 | 8.25644 | 102° | 18km/h | 20933m | 6.3m/s | -52.7°C | 0% | 0hPa | 2.7V | 00:00:00 | 00:00:00 | 00:00:00 | |
| DL1XH1-15 | 2026-09-01 17:54:23 | 49.73082 | 8.25597 | 75° | 16km/h | 20897m | 4.9m/s | -52.4°C | 4.2% | 50.9hPa | 2.7V | 03:53:43 | 01:24:35 | 00:00:00 | |
| BIOWL1-15 | 2026-09-01 17:54:22 | 49.73083 | 8.25626 | 97° | 18km/h | 20918m | 6.1m/s | -52.4°C | 1.3% | 50.8hPa | 2.6V | 03:54:09 | 01:24:39 | 00:00:00 | |
| DL1XH-west | 2026-09-01 17:54:21 | 49.73083 | 8.25619 | 93° | 20km/h | 20912m | 4.8m/s | -52.4°C | 1.3% | 50.8hPa | 2.6V | 03:54:09 | 01:24:38 | 00:00:00 | |
| DJ2KF-10 | 2026-09-01 17:54:21 | 49.73083 | 8.25619 | 93° | 18km/h | 20913m | 4.7m/s | -52.3°C | 4.2% | 50.8hPa | 2.6V | 00:00:00 | 01:24:38 | 00:00:00 | |
| DM0DOS-11 | 2026-09-01 17:54:19 | 49.73075 | 8.25570 | 60° | 16km/h | 20875m | 6.1m/s | -52.2°C | 4.2% | 51.1hPa | 2.6V | 03:53:47 | 01:24:31 | 00:00:00 | |
| BIOWL1-15 | 2026-09-01 17:54:13 | 49.73071 | 8.25551 | 82° | 20km/h | 20858m | 5.2m/s | -52.1°C | 1.2% | 51.2hPa | 2.7V | 03:54:09 | 01:24:28 | 00:00:00 | |
| DO3MHA-11 | 2026-09-01 17:54:12 | 49.73071 | 8.25558 | 76° | 22km/h | 20864m | 5.7m/s | -52.1°C | 4.2% | 51.2hPa | 2.6V | 00:00:00 | 01:24:29 | 00:00:00 | |
| DL1XH1-15 | 2026-09-01 17:54:11 | 49.73071 | 8.25526 | 96° | 22km/h | 20842m | 5.1m/s | -52°C | 4.1% | 51.4hPa | 2.6V | 03:53:53 | 01:24:25 | 00:00:00 | |
| DL1XH-west | 2026-09-01 17:54:10 | 49.73070 | 8.25543 | 87° | 22km/h | 20854m | 4.8m/s | -52°C | 1.2% | 51.3hPa | 2.6V | 03:54:09 | 01:24:27 | 00:00:00 | |
| DL8DAS-14 | 2026-09-01 17:54:09 | 49.73070 | 8.25535 | 92° | 20km/h | 20848m | 6.5m/s | -52.0°C | 1.4% | 51.3hPa | 2.7V | 00:00:00 | 00:00:00 | 00:00:00 | |
| DJ2DS-15 | 2026-09-01 17:54:08 | 49.73070 | 8.25526 | 97° | 18km/h | 20843m | 5.0m/s | -51.9°C | 4.1% | 51.3hPa | 2.7V | 00:00:00 | 01:24:25 | 00:00:00 | |
| DJTTGO | 2026-09-01 17:54:07 | 49.73071 | 8.25526 | 97° | 22km/h | 20843m | 5.1m/s | -52.0°C | 1.4% | 51.4hPa | 2.7V | 03:54:00 | 00:00:00 | 00:00:00 | |
| AU51GT2 | 2026-09-01 17:54:06 | 49.73072 | 8.25498 | 89° | 24km/h | 20826m | 4.4m/s | -51.8°C | 1.4% | 51.5hPa | 2.7V | 00:00:00 | 00:00:00 | 00:00:00 | |
| DF7PN | 2026-09-01 17:54:05 | 49.73072 | 8.25498 | 89° | 24km/h | 20826m | 4.4m/s | -51.8°C | 1.4% | 51.5hPa | 2.7V | 00:00:00 | 00:00:00 | 00:00:00 | |
| DM3KS-11 | 2026-09-01 17:54:04 | 49.73071 | 8.25489 | 86° | 20km/h | 20821m | 5.8m/s | -51.8°C | 1.4% | 51.5hPa | 2.7V | 00:00:00 | 00:00:00 | 00:00:00 | |
| DL1XH1-15 | 2026-09-01 17:54:03 | 49.73063 | 8.25455 | 75° | 11km/h | 20788m | 6m/s | -51.7°C | 3.9% | 51.8hPa | 2.7V | 03:54:03 | 01:24:15 | 00:00:00 | |
| DL1XH-west | 2026-09-01 17:54:00 | 49.73066 | 8.25464 | 58° | 16km/h | 20799m | 5.2m/s | -51.7°C | 1.1% | 51.7hPa | 2.7V | 03:54:09 | 01:24:17 | 00:00:00 | |
| BIOWL9-15 | 2026-09-01 17:53:58 | 49.73063 | 8.25455 | 75° | 11km/h | 20788m | 6.0m/s | -51.7°C | 1.3% | 51.8hPa | 2.6V | 00:00:00 | 00:00:00 | 00:00:00 | |
| SONCRA | 2026-09-01 17:53:57 | 49.73063 | 8.25444 | 97° | 16km/h | 20777m | 6.4m/s | -51.7°C | 1.4% | 51.9hPa | 2.6V | 00:00:00 | 00:00:00 | 00:00:00 | |
| DL1ZP-14 | 2026-09-01 17:53:55 | 49.73064 | 8.25437 | 100° | 20km/h | 20772m | 5.1m/s | -51.6°C | 1.4% | 52.0hPa | 2.6V | 00:00:00 | 00:00:00 | 00:00:00 | |
| DD1CC8 | 2026-09-01 17:53:54 | 49.73065 | 8.25430 | 104° | 20km/h | 20766m | 5.8m/s | -51.6°C | 1.3% | 52.0hPa | 2.7V | 00:00:00 | 00:00:00 | 00:00:00 | |
| HTAHTA | 2026-09-01 17:53:53 | 49.73067 | 8.25415 | 99° | 18km/h | 20755m | 5.1m/s | -51.7°C | 1.3% | 52.1hPa | 2.7V | 00:00:00 | 00:00:00 | 00:00:00 | |
| DL0LBS | 2026-09-01 17:53:52 | 49.73067 | 8.25414 | 100° | 20km/h | 20756m | 5.1m/s | -51.7°C | 1.4% | 52.1hPa | 2.7V | 03:54:00 | 00:00:00 | 00:00:00 | |
| DL1XH1-15 | 2026-09-01 17:53:51 | 49.73067 | 8.25386 | 79° | 13km/h | 20734m | 5.7m/s | -52.1°C | 4% | 52.2hPa | 2.7V | 03:54:13 | 01:24:05 | 00:00:00 | |
| DL1XH-west | 2026-09-01 17:53:50 | 49.73068 | 8.25399 | 89° | 20km/h | 20744m | 4.4m/s | -52°C | 1.1% | 52.2hPa | 2.6V | 03:55:00 | 01:24:07 | 00:00:00 | |
| BIOWL1-15 | 2026-09-01 17:53:49 | 49.73068 | 8.25392 | 84° | 16km/h | 20740m | 4.9m/s | -52.1°C | 1.1% | 52.2hPa | 2.7V | 03:55:00 | 01:24:06 | 00:00:00 | |
| SSTOLZ84 | 2026-09-01 17:53:47 | 49.73066 | 8.25378 | 74° | 9km/h | 20724m | 6.1m/s | -52.2°C | 1.4% | 52.3hPa | 2.6V | 00:00:00 | 00:00:00 | 00:00:00 | |
| DB0ND-19 | 2026-09-01 17:53:45 | 49.73064 | 8.25368 | 84° | 13km/h | 20713m | 4.3m/s | -52.4°C | 1.4% | 52.4hPa | 2.6V | 00:00:00 | 00:00:00 | 00:00:00 | |
| DO3MHA-11 | 2026-09-01 17:53:42 | 49.73065 | 8.25358 | 104° | 27km/h | 20703m | 4.7m/s | -52.6°C | 4.2% | 52.4hPa | 2.6V | 03:54:00 | 01:23:59 | 00:00:00 | |
| DO1YAY-16 | 2026-09-01 17:53:41 | 49.73066 | 8.25351 | 107° | 20km/h | 20698m | 4.3m/s | -52.8°C | 1.4% | 52.5hPa | 2.6V | 00:00:00 | 00:00:00 | 00:00:00 | |
| DL8DAS-15 | 2026-09-01 17:53:40 | 49.73066 | 8.25351 | 108° | 20km/h | 20698m | 4.3m/s | -52.8°C | 1.5% | 52.5hPa | 2.6V | 03:55:00 | 00:00:00 | 00:00:00 | |
| DL1XH1-15 | 2026-09-01 17:53:39 | 49.73070 | 8.25319 | 95° | 35km/h | 20682m | 4m/s | -52.8°C | 4.2% | 52.7hPa | 2.6V | 03:54:23 | 01:23:55 | 00:00:00 | |
| DL1XH-west | 2026-09-01 17:53:39 | 49.73069 | 8.25331 | 99° | 31km/h | 20687m | 5.6m/s | -52.8°C | 1.3% | 52.6hPa | 2.6V | 03:55:00 | 01:23:56 | 00:00:00 | |
| BIOWL1-15 | 2026-09-01 17:53:38 | 49.73070 | 8.25319 | 96° | 35km/h | 20683m | 4m/s | -52.8°C | 1.3% | 52.7hPa | 2.6V | 03:55:00 | 01:23:55 | 00:00:00 | |
| DB0UT-7 | 2026-09-01 17:53:38 | 49.73070 | 8.25319 | 96° | 20km/h | 20683m | 3.9m/s | -52.7°C | 4.2% | 52.6hPa | 2.6V | 00:00:00 | 01:23:55 | 00:00:00 | |
| DO3DL | 2026-09-01 17:53:37 | 49.73070 | 8.25319 | 97° | 35km/h | 20683m | 4.0m/s | -52.8°C | 1.5% | 52.7hPa | 2.6V | 03:55:00 | 00:00:00 | 00:00:00 | |
| AU51GT2 | 2026-09-01 17:53:35 | 49.73073 | 8.25271 | 93° | 24km/h | 20664m | 4.9m/s | -52.7°C | 1.5% | 52.8hPa | 2.6V | 00:00:00 | 00:00:00 | 00:00:00 | |
| DF7PN | 2026-09-01 17:53:34 | 49.73073 | 8.25271 | 93° | 24km/h | 20664m | 4.9m/s | -52.7°C | 1.5% | 52.8hPa | 2.6V | 00:00:00 | 00:00:00 | 00:00:00 | |
| DL1XH1-15 | 2026-09-01 17:53:33 | 49.73073 | 8.25221 | 91° | 22km/h | 20631m | 6.3m/s | -52.5°C | 4.2% | 53.1hPa | 2.6V | 03:54:33 | 01:23:45 | 00:00:00 | |
| BIOWL1-15 | 2026-09-01 17:53:29 | 49.73073 | 8.25213 | 88° | 22km/h | 20626m | 4.4m/s | -52.5°C | 1.3% | 53.1hPa | 2.6V | 03:55:00 | 01:23:44 | 00:00:00 | |
| DL1XH-west | 2026-09-01 17:53:29 | 49.73073 | 8.25230 | 96° | 22km/h | 20637m | 5.2m/s | -52.5°C | 1.3% | 53hPa | 2.7V | 03:55:00 | 01:23:46 | 00:00:00 | |
| DB0NH | 2026-09-01 17:53:27 | 49.73073 | 8.25212 | 89° | 13km/h | 20626m | 4.3m/s | -52.4°C | 4.2% | 53.1hPa | 2.6V | 00:00:00 | 01:23:44 | 00:00:00 | |
| SONCRA | 2026-09-01 17:53:26 | 49.73073 | 8.25197 | 93° | 18km/h | 20616m | 6.1m/s | -52.4°C | 1.5% | 53.2hPa | 2.6V | 00:00:00 | 00:00:00 | 00:00:00 | |
| DM0DOS-11 | 2026-09-01 17:53:25 | 49.73072 | 8.25167 | 78° | 16km/h | 20591m | 4.5m/s | -52.3°C | 4.2% | 53.4hPa | 2.6V | 03:54:41 | 01:23:37 | 00:00:00 | |
| DL4BBY-15 | 2026-09-01 17:53:25 | 49.73073 | 8.25197 | 94° | 13km/h | 20616m | 6.1m/s | -52.8°C | 0% | 0hPa | 2.7V | 00:00:00 | 00:00:00 | 00:00:00 | |
| DO3DL | 2026-09-01 17:53:24 | 49.73073 | 8.25197 | 95° | 18km/h | 20616m | 6.1m/s | -52.4°C | 1.5% | 53.2hPa | 2.7V | 03:55:00 | 00:00:00 | 00:00:00 | |
| DD1CC8 | 2026-09-01 17:53:23 | 49.73074 | 8.25184 | 95° | 13km/h | 20606m | 4.6m/s | -52.4°C | 1.5% | 53.3hPa | 2.7V | 00:00:00 | 00:00:00 | 00:00:00 | |
| DO3MHA-11 | 2026-09-01 17:53:22 | 49.73074 | 8.25179 | 83° | 16km/h | 20601m | 5.9m/s | -52.3°C | 4.3% | 53.3hPa | 2.7V | 00:00:00 | 01:23:39 | 00:00:00 | |
| DL1XH1-15 | 2026-09-01 17:53:21 | 49.73071 | 8.25154 | 84° | 18km/h | 20580m | 5m/s | -52.3°C | 4.2% | 53.5hPa | 2.7V | 03:54:43 | 01:23:35 | 00:00:00 | |
| DL1XH-west | 2026-09-01 17:53:18 | 49.73071 | 8.25154 | 85° | 18km/h | 20580m | 5m/s | -52.3°C | 1.3% | 53.5hPa | 2.7V | 03:55:00 | 01:23:35 | 00:00:00 | |
| BIOWL1-15 | 2026-09-01 17:53:16 | 49.73070 | 8.25139 | 78° | 18km/h | 20569m | 4.1m/s | -52.2°C | 1.3% | 53.6hPa | 2.6V | 03:55:00 | 01:23:33 | 00:00:00 | |
| NBG1-10 | 2026-09-01 17:53:16 | 49.73070 | 8.25139 | 78° | 11km/h | 20569m | 4.0m/s | -52.2°C | 4.1% | 53.6hPa | 2.7V | 00:00:00 | 01:23:33 | 00:00:00 | |
| DM7RM-13 | 2026-09-01 17:53:15 | 49.73070 | 8.25139 | 79° | 18km/h | 20569m | 4.1m/s | -52.2°C | 1.5% | 53.6hPa | 2.7V | 03:55:00 | 00:00:00 | 00:00:00 | |
| CB1BUN | 2026-09-01 17:53:14 | 49.73069 | 8.25132 | 82° | 16km/h | 20565m | 4.6m/s | -52.2°C | 1.4% | 53.6hPa | 2.7V | 03:55:00 | 00:00:00 | 00:00:00 | |
| BIOWL7-15 | 2026-09-01 17:53:13 | 49.73069 | 8.25126 | 92° | 15km/h | 20560m | 6.0m/s | -52.2°C | 1.4% | 53.7hPa | 2.7V | 03:55:00 | 00:00:00 | 00:00:00 | |
| DO3MHA-11 | 2026-09-01 17:53:12 | 49.73069 | 8.25117 | 101° | 20km/h | 20550m | 4.1m/s | -52.1°C | 4.0% | 53.7hPa | 2.7V | 00:00:00 | 01:23:29 | 00:00:00 | |
| DM0DOS-11 | 2026-09-01 17:53:11 | 49.73068 | 8.25091 | 93° | 11km/h | 20519m | 4.4m/s | -52.2°C | 4.2% | 54hPa | 2.7V | 03:54:55 | 01:23:23 | 00:00:00 | |
| DL0LBS | 2026-09-01 17:53:10 | 49.73070 | 8.25113 | 90° | 9km/h | 20544m | 6.2m/s | -52.1°C | 1.4% | 53.8hPa | 2.6V | 03:55:00 | 00:00:00 | 00:00:00 | |
| DL1XH1-15 | 2026-09-01 17:53:09 | 49.73068 | 8.25100 | 83° | 13km/h | 20529m | 5.5m/s | -52.1°C | 4.1% | 53.9hPa | 2.6V | 03:54:53 | 01:23:25 | 00:00:00 | |
| BIOWL1-15 | 2026-09-01 17:53:07 | 49.73068 | 8.25091 | 93° | 11km/h | 20519m | 4.4m/s | -52.2°C | 1.3% | 54hPa | 2.7V | 03:55:00 | 01:23:23 | 00:00:00 | |
| DL1XH-west | 2026-09-01 17:53:07 | 49.73068 | 8.25095 | 92° | 13km/h | 20524m | 4.9m/s | -52.2°C | 1.2% | 54hPa | 2.6V | 03:55:00 | 01:23:24 | 00:00:00 | |
| DF1GD-15 | 2026-09-01 17:53:06 | 49.73068 | 8.25095 | 93° | 13km/h | 20524m | 4.9m/s | -52.2°C | 1.5% | 54.0hPa | 2.6V | 03:55:00 | 00:00:00 | 00:00:00 | |
| AU51GT2 | 2026-09-01 17:53:04 | 49.73068 | 8.25081 | 97° | 5km/h | 20504m | 6.0m/s | -52.2°C | 1.5% | 54.2hPa | 2.6V | 00:00:00 | 00:00:00 | 00:00:00 | |
| DL1XH1-15 | 2026-09-01 17:53:03 | 49.73070 | 8.25065 | 101° | 11km/h | 20472m | 5.5m/s | -52°C | 4.1% | 54.4hPa | 2.6V | 03:55:04 | 01:23:14 | 00:00:00 | |
| DL1XH-west | 2026-09-01 17:52:57 | 49.73070 | 8.25065 | 102° | 11km/h | 20472m | 5.5m/s | -52°C | 1.2% | 54.4hPa | 2.6V | 03:55:51 | 01:23:14 | 00:00:00 | |
| BIOWL1-15 | 2026-09-01 17:52:55 | 49.73070 | 8.25057 | 81° | 9km/h | 20462m | 6.1m/s | -52°C | 1.2% | 54.5hPa | 2.7V | 03:55:51 | 01:23:12 | 00:00:00 | |
| SONCRA | 2026-09-01 17:52:55 | 49.73070 | 8.25054 | 67° | 7km/h | 20457m | 4.3m/s | -52.0°C | 1.4% | 54.6hPa | 2.7V | 00:00:00 | 00:00:00 | 00:00:00 | |
| DL1ZP-14 | 2026-09-01 17:52:53 | 49.73069 | 8.25051 | 78° | 5km/h | 20453m | 4.5m/s | -52.0°C | 1.4% | 54.6hPa | 2.7V | 00:00:00 | 00:00:00 | 00:00:00 | |
| DL1XH1-15 | 2026-09-01 17:52:52 | 49.73080 | 8.25043 | 171° | 13km/h | 20422m | 4.6m/s | -51.8°C | 4.1% | 54.9hPa | 2.7V | 03:55:14 | 01:23:04 | 00:00:00 | |
| DL1XH-west | 2026-09-01 17:52:47 | 49.73080 | 8.25043 | 172° | 13km/h | 20422m | 4.6m/s | -51.8°C | 1.2% | 54.9hPa | 2.7V | 03:55:51 | 01:23:04 | 00:00:00 | |
| BIOWL1-15 | 2026-09-01 17:52:45 | 49.73088 | 8.25041 | 172° | 18km/h | 20410m | 4.7m/s | -51.8°C | 1.2% | 54.9hPa | 2.6V | 03:55:51 | 01:23:02 | 00:00:00 | |
| DO3DL | 2026-09-01 17:52:44 | 49.73088 | 8.25041 | 173° | 18km/h | 20411m | 4.7m/s | -51.8°C | 1.4% | 54.9hPa | 2.6V | 00:00:00 | 00:00:00 | 00:00:00 | |
| NBG1-10 | 2026-09-01 17:52:43 | 49.73095 | 8.25039 | 161° | 22km/h | 20399m | 4.6m/s | -51.7°C | 4.0% | 55.0hPa | 2.6V | 03:55:00 | 01:23:00 | 00:00:00 | |
| DB0UT-9 | 2026-09-01 17:52:42 | 49.73095 | 8.25039 | 162° | 11km/h | 20399m | 4.7m/s | -51.8°C | 1.4% | 55.0hPa | 2.7V | 03:55:00 | 00:00:00 | 00:00:00 | |
| KANTATE | 2026-09-01 17:52:40 | 49.73100 | 8.25034 | 141° | 13km/h | 20389m | 6.7m/s | -51.9°C | 0% | 0hPa | 2.7V | 00:00:00 | 00:00:00 | 00:00:00 | |
| DL1XH1-15 | 2026-09-01 17:52:39 | 49.73105 | 8.25019 | 115° | 11km/h | 20367m | 3.7m/s | -51.7°C | 4% | 55.3hPa | 2.7V | 03:55:24 | 01:22:54 | 00:00:00 | |
| DL1XH-west | 2026-09-01 17:52:36 | 49.73107 | 8.25015 | 129° | 15km/h | 20362m | 5.7m/s | -51.7°C | 1.2% | 55.4hPa | 2.7V | 03:55:51 | 01:22:53 | 00:00:00 | |
| BIOWL1-15 | 2026-09-01 17:52:34 | 49.73114 | 8.25006 | 146° | 20km/h | 20351m | 5.3m/s | -51.7°C | 1.1% | 55.4hPa | 2.6V | 03:55:51 | 01:22:51 | 00:00:00 | |
| CB1BUN | 2026-09-01 17:52:33 | 49.73114 | 8.25006 | 147° | 20km/h | 20351m | 5.3m/s | -51.7°C | 1.4% | 55.4hPa | 2.6V | 03:55:00 | 00:00:00 | 00:00:00 | |
| DF7PN | 2026-09-01 17:52:32 | 49.73122 | 8.24998 | 149° | 20km/h | 20341m | 4.2m/s | -51.6°C | 1.4% | 55.5hPa | 2.6V | 00:00:00 | 00:00:00 | 00:00:00 | |
| DK5PH-5 | 2026-09-01 17:52:31 | 49.73127 | 8.24993 | 148° | 27km/h | 20336m | 6.2m/s | -51.6°C | 4.0% | 55.5hPa | 2.6V | 00:00:00 | 01:22:48 | 00:00:00 | |
| DL0LBS | 2026-09-01 17:52:30 | 49.73127 | 8.24993 | 148° | 24km/h | 20336m | 6.2m/s | -51.6°C | 1.4% | 55.6hPa | 2.6V | 03:55:00 | 00:00:00 | 00:00:00 | |
| DL1XH1-15 | 2026-09-01 17:52:27 | 49.73146 | 8.24968 | 130° | 24km/h | 20313m | 4.5m/s | -51.6°C | 4% | 55.8hPa | 2.6V | 03:55:34 | 01:22:44 | 00:00:00 | |
| DL1XH-west | 2026-09-01 17:52:25 | 49.73154 | 8.24953 | 124° | 26km/h | 20302m | 4.6m/s | -51.6°C | 1.1% | 55.9hPa | 2.6V | 03:55:51 | 01:22:42 | 00:00:00 | |
| BIOWL1-15 | 2026-09-01 17:52:24 | 49.73157 | 8.24945 | 124° | 24km/h | 20297m | 6m/s | -51.7°C | 1.1% | 55.9hPa | 2.7V | 03:55:51 | 01:22:41 | 00:00:00 | |
| DD1CC2-15 | 2026-09-01 17:52:23 | 49.73157 | 8.24945 | 125° | 24km/h | 20297m | 6.0m/s | -51.7°C | 1.4% | 55.9hPa | 2.6V | 03:55:00 | 00:00:00 | 00:00:00 | |
| DL1ZP-14 | 2026-09-01 17:52:22 | 49.73163 | 8.24932 | 131° | 20km/h | 20287m | 4.1m/s | -51.7°C | 1.4% | 56.0hPa | 2.6V | 00:00:00 | 00:00:00 | 00:00:00 | |
| DL1XH1-15 | 2026-09-01 17:52:21 | 49.73186 | 8.24898 | 138° | 26km/h | 20261m | 5.4m/s | -51.7°C | 4% | 56.2hPa | 2.7V | 03:55:44 | 01:22:34 | 00:00:00 | |
| DL1XH-west | 2026-09-01 17:52:15 | 49.73196 | 8.24882 | 128° | 29km/h | 20251m | 5.8m/s | -51.8°C | 1.2% | 56.3hPa | 2.6V | 03:55:51 | 01:22:32 | 00:00:00 | |
| BIOWL1-15 | 2026-09-01 17:52:14 | 49.73200 | 8.24873 | 119° | 31km/h | 20245m | 4.7m/s | -51.7°C | 1.2% | 56.4hPa | 2.6V | 03:55:51 | 01:22:31 | 00:00:00 | |
| SSTOLZ84 | 2026-09-01 17:52:14 | 49.73200 | 8.24873 | 118° | 31km/h | 20245m | 4.7m/s | -51.7°C | 1.4% | 56.4hPa | 2.7V | 00:00:00 | 00:00:00 | 00:00:00 | |
| DO3MHA-11 | 2026-09-01 17:52:12 | 49.73206 | 8.24849 | 109° | 31km/h | 20237m | 5.4m/s | -51.8°C | 4.0% | 56.4hPa | 2.7V | 03:55:00 | 01:22:29 | 00:00:00 | |
| DB0ND-19 | 2026-09-01 17:52:11 | 49.73209 | 8.24837 | 104° | 29km/h | 20231m | 5.5m/s | -51.8°C | 1.4% | 56.5hPa | 2.6V | 00:00:00 | 00:00:00 | 00:00:00 | |
| NBG1-10 | 2026-09-01 17:52:10 | 49.73210 | 8.24826 | 105° | 29km/h | 20226m | 4.8m/s | -51.9°C | 4.0% | 56.5hPa | 2.6V | 00:00:00 | 01:22:27 | 00:00:00 | |
| DL1XH1-15 | 2026-09-01 17:52:09 | 49.73218 | 8.24795 | 116° | 29km/h | 20210m | 4.6m/s | -52.1°C | 4% | 56.6hPa | 2.6V | 03:55:54 | 01:22:24 | 00:00:00 | |
| DL1XH-west | 2026-09-01 17:52:04 | 49.73228 | 8.24763 | 114° | 33km/h | 20196m | 4.3m/s | -52.1°C | 1.2% | 56.8hPa | 2.6V | 03:56:42 | 01:22:21 | 00:00:00 | |
| BIOWL1-15 | 2026-09-01 17:52:03 | 49.73231 | 8.24750 | 114° | 37km/h | 20191m | 5.5m/s | -52.1°C | 1.2% | 56.8hPa | 2.6V | 03:56:42 | 01:22:20 | 00:00:00 | |
| DL1XH-west | 2026-09-01 17:51:53 | 49.73248 | 8.24627 | 91° | 27km/h | 20140m | 4.5m/s | -52°C | 1.2% | 57.3hPa | 2.7V | 03:56:42 | 01:22:10 | 00:00:00 | |
| SONCRA | 2026-09-01 17:51:53 | 49.73248 | 8.24616 | 93° | 29km/h | 20135m | 5.3m/s | -51.9°C | 1.4% | 57.4hPa | 2.6V | 00:00:00 | 00:00:00 | 00:00:00 | |
| DL1ZP-14 | 2026-09-01 17:51:51 | 49.73248 | 8.24604 | 94° | 31km/h | 20131m | 4.0m/s | -51.9°C | 1.4% | 57.4hPa | 2.6V | 00:00:00 | 00:00:00 | 00:00:00 | |
| DD1CC8 | 2026-09-01 17:51:50 | 49.73249 | 8.24591 | 92° | 31km/h | 20126m | 5.9m/s | -51.8°C | 1.4% | 57.4hPa | 2.7V | 00:00:00 | 00:00:00 | 00:00:00 | |
| HTAHTA | 2026-09-01 17:51:49 | 49.73249 | 8.24579 | 90° | 31km/h | 20121m | 4.6m/s | -51.8°C | 1.4% | 57.5hPa | 2.7V | 00:00:00 | 00:00:00 | 00:00:00 | |
| DL1XH-west | 2026-09-01 17:51:42 | 49.73253 | 8.24492 | 87° | 24km/h | 20086m | 5.1m/s | -52°C | 1.2% | 57.8hPa | 2.7V | 03:56:42 | 01:21:59 | 00:00:00 | |
| DO3MHA-11 | 2026-09-01 17:51:42 | 49.73253 | 8.24492 | 88° | 26km/h | 20087m | 5.1m/s | -51.9°C | 4.0% | 57.7hPa | 2.7V | 00:00:00 | 01:21:59 | 00:00:00 | |
| DB0ND-19 | 2026-09-01 17:51:40 | 49.73253 | 8.24475 | 82° | 18km/h | 20076m | 4.5m/s | -52.1°C | 1.4% | 57.9hPa | 2.7V | 00:00:00 | 00:00:00 | 00:00:00 | |
| DL1XH1-15 | 2026-09-01 17:51:39 | 49.73248 | 8.24452 | 74° | 24km/h | 20061m | 4.8m/s | -52.4°C | 4% | 58hPa | 2.7V | 03:56:24 | 01:21:54 | 00:00:00 | |
| DB0UT-7 | 2026-09-01 17:51:38 | 49.73250 | 8.24460 | 72° | 33km/h | 20066m | 4.2m/s | -52.3°C | 4.0% | 57.9hPa | 2.6V | 00:00:00 | 01:21:55 | 00:00:00 | |
| NBG1-10 | 2026-09-01 17:51:37 | 49.73248 | 8.24451 | 75° | 31km/h | 20061m | 4.7m/s | -52.3°C | 4.0% | 58.0hPa | 2.6V | 00:00:00 | 01:21:54 | 00:00:00 | |
| DL8DAS-15 | 2026-09-01 17:51:36 | 49.73248 | 8.24451 | 76° | 24km/h | 20061m | 4.8m/s | -52.4°C | 1.4% | 58.0hPa | 2.6V | 00:00:00 | 00:00:00 | 00:00:00 | |
| DL8DAS-14 | 2026-09-01 17:51:34 | 49.73247 | 8.24419 | 89° | 33km/h | 20045m | 6.2m/s | -52.3°C | 1.4% | 58.1hPa | 2.6V | 00:00:00 | 00:00:00 | 00:00:00 | |
| DL8OAI-8 | 2026-09-01 17:51:33 | 49.73247 | 8.24419 | 90° | 33km/h | 20045m | 6.2m/s | -52.3°C | 1.5% | 58.1hPa | 2.6V | 00:00:00 | 00:00:00 | 00:00:00 | |
| DL1XH1-15 | 2026-09-01 17:51:32 | 49.73248 | 8.24326 | 89° | 29km/h | 20009m | 4.9m/s | -52.4°C | 4.1% | 58.5hPa | 2.6V | 03:56:34 | 01:21:44 | 00:00:00 | |
| DL1XH-west | 2026-09-01 17:51:32 | 49.73247 | 8.24391 | 91° | 37km/h | 20035m | 4.3m/s | -52.3°C | 1.1% | 58.2hPa | 2.7V | 03:56:42 | 01:21:49 | 00:00:00 | |
| DO3MHA-11 | 2026-09-01 17:51:32 | 49.73247 | 8.24391 | 91° | 31km/h | 20035m | 4.2m/s | -52.2°C | 4.0% | 58.2hPa | 2.6V | 03:56:00 | 01:21:49 | 00:00:00 | |
| DK5PH-5 | 2026-09-01 17:51:31 | 49.73247 | 8.24377 | 95° | 33km/h | 20030m | 6.0m/s | -52.2°C | 4.0% | 58.2hPa | 2.6V | 03:56:00 | 01:21:48 | 00:00:00 | |
| DF7PN | 2026-09-01 17:51:30 | 49.73248 | 8.24350 | 93° | 33km/h | 20019m | 5.8m/s | -52.3°C | 1.4% | 58.4hPa | 2.6V | 00:00:00 | 00:00:00 | 00:00:00 | |
| DM3KS-11 | 2026-09-01 17:51:29 | 49.73248 | 8.24350 | 93° | 33km/h | 20019m | 5.8m/s | -52.3°C | 1.4% | 58.4hPa | 2.6V | 00:00:00 | 00:00:00 | 00:00:00 | |
| DJ2DS-15 | 2026-09-01 17:51:28 | 49.73249 | 8.24337 | 90° | 33km/h | 20014m | 5.2m/s | -52.2°C | 4.0% | 58.4hPa | 2.6V | 00:00:00 | 01:21:45 | 00:00:00 | |
| DB0NH | 2026-09-01 17:51:27 | 49.73248 | 8.24325 | 90° | 27km/h | 20009m | 4.8m/s | -52.3°C | 4.1% | 58.4hPa | 2.6V | 00:00:00 | 01:21:44 | 00:00:00 | |
| DL8DAS-15 | 2026-09-01 17:51:26 | 49.73248 | 8.24325 | 90° | 29km/h | 20009m | 4.9m/s | -52.4°C | 1.5% | 58.5hPa | 2.6V | 00:00:00 | 00:00:00 | 00:00:00 | |
| DL4BBY-15 | 2026-09-01 17:51:25 | 49.73248 | 8.24304 | 90° | 33km/h | 19999m | 4.2m/s | -52.8°C | 0% | 0hPa | 2.6V | 00:00:00 | 00:00:00 | 00:00:00 | |
| BIOWL9-15 | 2026-09-01 17:51:23 | 49.73247 | 8.24283 | 79° | 29km/h | 19987m | 4.7m/s | -52.4°C | 1.5% | 58.7hPa | 2.6V | 00:00:00 | 00:00:00 | 00:00:00 | |
| SONCRA | 2026-09-01 17:51:22 | 49.73245 | 8.24259 | 84° | 33km/h | 19977m | 4.8m/s | -52.5°C | 1.5% | 58.7hPa | 2.6V | 00:00:00 | 00:00:00 | 00:00:00 | |
| DL1XH1-15 | 2026-09-01 17:51:21 | 49.73240 | 8.24200 | 84° | 42km/h | 19956m | 5.8m/s | -52.5°C | 4.2% | 58.9hPa | 2.6V | 03:56:44 | 01:21:34 | 00:00:00 | |
| BIOWL1-15 | 2026-09-01 17:51:21 | 49.73245 | 8.24259 | 84° | 33km/h | 19977m | 4.8m/s | -52.5°C | 1.3% | 58.7hPa | 2.6V | 03:56:42 | 01:21:38 | 00:00:00 | |
| DL1XH-west | 2026-09-01 17:51:10 | 49.73234 | 8.24105 | 81° | 26km/h | 19922m | 4.2m/s | -52.4°C | 1.2% | 59.2hPa | 2.6V | 03:57:33 | 01:21:27 | 00:00:00 | |
| DL1XH1-15 | 2026-09-01 17:51:09 | 49.73228 | 8.24077 | 63° | 26km/h | 19906m | 5.3m/s | -52.4°C | 4.1% | 59.4hPa | 2.7V | 03:56:54 | 01:21:24 | 00:00:00 | |
| DL1XH-west | 2026-09-01 17:50:59 | 49.73208 | 8.23984 | 81° | 35km/h | 19867m | 4.1m/s | -52.4°C | 1.2% | 59.8hPa | 2.6V | 03:57:33 | 01:21:16 | 00:00:00 | |
| DF7PN | 2026-09-01 17:50:59 | 49.73207 | 8.23972 | 77° | 31km/h | 19862m | 5.7m/s | -52.4°C | 1.5% | 59.8hPa | 2.6V | 00:00:00 | 00:00:00 | 00:00:00 | |
| DL1XH1-15 | 2026-09-01 17:50:58 | 49.73204 | 8.23960 | 71° | 31km/h | 19857m | 4.9m/s | -52.4°C | 4.2% | 59.9hPa | 2.6V | 03:57:04 | 01:21:14 | 00:00:00 | |
| DB0UT-9 | 2026-09-01 17:50:57 | 49.73207 | 8.23972 | 79° | 33km/h | 19862m | 5.7m/s | -52.4°C | 1.5% | 59.8hPa | 2.7V | 03:57:00 | 00:00:00 | 00:00:00 | |
| DL4BBY-15 | 2026-09-01 17:50:55 | 49.73199 | 8.23937 | 70° | 26km/h | 19847m | 6.0m/s | -52.7°C | 0% | 0hPa | 2.7V | 00:00:00 | 00:00:00 | 00:00:00 | |
| DL8DAS-15 | 2026-09-01 17:50:54 | 49.73199 | 8.23937 | 70° | 31km/h | 19846m | 6.1m/s | -52.3°C | 1.5% | 60.0hPa | 2.7V | 03:57:00 | 00:00:00 | 00:00:00 | |
| DL1XH1-15 | 2026-09-01 17:50:52 | 49.73174 | 8.23864 | 60° | 27km/h | 19806m | 5.2m/s | -52.1°C | 4% | 60.3hPa | 2.7V | 03:57:14 | 01:21:04 | 00:00:00 | |
| BIOWL1-15 | 2026-09-01 17:50:48 | 49.73177 | 8.23873 | 62° | 27km/h | 19811m | 4.9m/s | -52.1°C | 1.2% | 60.3hPa | 2.7V | 03:57:33 | 01:21:05 | 00:00:00 | |
| DD1CC8 | 2026-09-01 17:50:48 | 49.73173 | 8.23864 | 60° | 26km/h | 19807m | 5.2m/s | -52.1°C | 1.4% | 60.3hPa | 2.7V | 00:00:00 | 00:00:00 | 00:00:00 | |
| HTAHTA | 2026-09-01 17:50:47 | 49.73173 | 8.23864 | 60° | 26km/h | 19807m | 5.2m/s | -52.1°C | 1.4% | 60.3hPa | 2.7V | 00:00:00 | 00:00:00 | 00:00:00 | |
| DF1GD-15 | 2026-09-01 17:50:43 | 49.73165 | 8.23835 | 71° | 27km/h | 19791m | 5.0m/s | -52.0°C | 1.5% | 60.5hPa | 2.7V | 03:57:00 | 00:00:00 | 00:00:00 | |
| DO3MHA-11 | 2026-09-01 17:50:42 | 49.73160 | 8.23816 | 66° | 26km/h | 19783m | 5.2m/s | -52.0°C | 4.1% | 60.5hPa | 2.7V | 00:00:00 | 01:20:59 | 00:00:00 | |
| DL1XH1-15 | 2026-09-01 17:50:41 | 49.73142 | 8.23776 | 48° | 26km/h | 19756m | 6.1m/s | -51.9°C | 3.9% | 60.8hPa | 2.7V | 03:57:24 | 01:20:54 | 00:00:00 | |
| DL1XH-west | 2026-09-01 17:50:38 | 49.73146 | 8.23783 | 53° | 26km/h | 19762m | 4.8m/s | -52°C | 1.1% | 60.8hPa | 2.7V | 03:57:33 | 01:20:55 | 00:00:00 | |
| DB0UT-7 | 2026-09-01 17:50:38 | 49.73146 | 8.23783 | 53° | 24km/h | 19762m | 4.7m/s | -51.9°C | 3.9% | 60.7hPa | 2.7V | 03:57:00 | 01:20:55 | 00:00:00 | |
| DB0UT-9 | 2026-09-01 17:50:37 | 49.73146 | 8.23783 | 54° | 26km/h | 19762m | 4.8m/s | -52.0°C | 1.4% | 60.8hPa | 2.7V | 03:57:00 | 00:00:00 | 00:00:00 | |
| DO1YAY-16 | 2026-09-01 17:50:35 | 49.73133 | 8.23761 | 50° | 26km/h | 19746m | 5.0m/s | -51.9°C | 1.4% | 60.9hPa | 2.7V | 00:00:00 | 00:00:00 | 00:00:00 | |
| DB0NH | 2026-09-01 17:50:32 | 49.73122 | 8.23734 | 57° | 29km/h | 19731m | 6.2m/s | -51.8°C | 3.9% | 61.0hPa | 2.7V | 03:57:00 | 01:20:49 | 00:00:00 | |
| NBG1-10 | 2026-09-01 17:50:31 | 49.73118 | 8.23725 | 58° | 26km/h | 19725m | 4.9m/s | -51.8°C | 3.9% | 61.1hPa | 2.7V | 03:57:00 | 01:20:48 | 00:00:00 | |
| DL8OAI-8 | 2026-09-01 17:50:30 | 49.73118 | 8.23725 | 58° | 26km/h | 19725m | 4.9m/s | -51.9°C | 0% | 61.1hPa | 2.7V | 00:00:00 | 00:00:00 | 00:00:00 | |
| DL1XH1-15 | 2026-09-01 17:50:29 | 49.73106 | 8.23693 | 55° | 20km/h | 19703m | 6.6m/s | -52°C | 4% | 61.3hPa | 2.7V | 03:57:34 | 01:20:44 | 00:00:00 | |
| DL1XH-west | 2026-09-01 17:50:27 | 49.73106 | 8.23693 | 56° | 20km/h | 19703m | 6.6m/s | -52°C | 1.2% | 61.3hPa | 2.7V | 03:58:24 | 01:20:44 | 00:00:00 | |
| DL4BBY-15 | 2026-09-01 17:50:25 | 49.73100 | 8.23683 | 48° | 27km/h | 19694m | 3.2m/s | -52.5°C | 0% | 0hPa | 2.6V | 00:00:00 | 00:00:00 | 00:00:00 | |
| DL0LBS | 2026-09-01 17:50:24 | 49.73100 | 8.23683 | 49° | 15km/h | 19693m | 3.2m/s | -52.1°C | 1.5% | 61.4hPa | 2.6V | 03:58:00 | 00:00:00 | 00:00:00 | |
| DO3DL | 2026-09-01 17:50:23 | 49.73098 | 8.23678 | 56° | 15km/h | 19689m | 4.9m/s | -52.2°C | 1.4% | 61.4hPa | 2.6V | 00:00:00 | 00:00:00 | 00:00:00 | |
| DL1XH1-15 | 2026-09-01 17:50:22 | 49.73085 | 8.23617 | 80° | 26km/h | 19653m | 5.3m/s | -52.6°C | 4% | 61.8hPa | 2.6V | 03:57:44 | 01:20:34 | 00:00:00 | |
| BIOWL1-15 | 2026-09-01 17:50:16 | 49.73084 | 8.23608 | 79° | 24km/h | 19648m | 5.3m/s | -52.6°C | 1.2% | 61.8hPa | 2.6V | 03:58:24 | 01:20:33 | 00:00:00 | |
| DN1GJH-1 | 2026-09-01 17:50:15 | 49.73083 | 8.23608 | 80° | 24km/h | 19648m | 5.3m/s | -52.6°C | 1.4% | 61.8hPa | 2.7V | 03:58:00 | 00:00:00 | 00:00:00 | |
| DL1XH1-15 | 2026-09-01 17:50:11 | 49.73071 | 8.23518 | 79° | 31km/h | 19600m | 4.1m/s | -52.6°C | 4.3% | 62.3hPa | 2.7V | 03:57:54 | 01:20:24 | 00:00:00 | |
| BIOWL1-15 | 2026-09-01 17:50:07 | 49.73067 | 8.23493 | 74° | 33km/h | 19589m | 5.2m/s | -52.6°C | 1.3% | 62.4hPa | 2.6V | 03:58:24 | 01:20:22 | 00:00:00 | |
| DL1XH-west | 2026-09-01 17:50:06 | 49.73069 | 8.23505 | 76° | 33km/h | 19595m | 6m/s | -52.6°C | 1.3% | 62.4hPa | 2.6V | 03:58:24 | 01:20:23 | 00:00:00 | |
| DO1YAY-16 | 2026-09-01 17:50:04 | 49.73065 | 8.23481 | 75° | 31km/h | 19584m | 4.8m/s | -52.7°C | 1.5% | 62.4hPa | 2.6V | 00:00:00 | 00:00:00 | 00:00:00 | |
| DJ2DS-15 | 2026-09-01 17:50:03 | 49.73063 | 8.23469 | 78° | 31km/h | 19579m | 5.4m/s | -52.8°C | 1.5% | 62.5hPa | 2.6V | 00:00:00 | 00:00:00 | 00:00:00 | |
| DO3MHA-11 | 2026-09-01 17:50:02 | 49.73062 | 8.23457 | 80° | 35km/h | 19574m | 4.4m/s | -52.8°C | 4.2% | 62.5hPa | 2.6V | 00:00:00 | 01:20:19 | 00:00:00 | |
| DK5PH-5 | 2026-09-01 17:50:01 | 49.73060 | 8.23445 | 77° | 37km/h | 19569m | 5.8m/s | -52.8°C | 4.2% | 62.5hPa | 2.6V | 00:00:00 | 01:20:18 | 00:00:00 | |
| DL1XH1-15 | 2026-09-01 17:49:58 | 49.73051 | 8.23398 | 74° | 33km/h | 19547m | 4.9m/s | -52.9°C | 4.1% | 62.8hPa | 2.6V | 03:58:04 | 01:20:14 | 00:00:00 | |
| BIOWL1-15 | 2026-09-01 17:49:57 | 49.73045 | 8.23372 | 70° | 38km/h | 19537m | 5.8m/s | -52.8°C | 1.2% | 62.9hPa | 2.7V | 03:58:24 | 01:20:12 | 00:00:00 | |
| DL1XH-west | 2026-09-01 17:49:56 | 49.73048 | 8.23385 | 73° | 35km/h | 19542m | 5.1m/s | -52.9°C | 1.2% | 62.9hPa | 2.7V | 03:58:24 | 01:20:13 | 00:00:00 | |
| DM3KS-11 | 2026-09-01 17:49:56 | 49.73048 | 8.23385 | 73° | 35km/h | 19542m | 5.1m/s | -52.9°C | 1.5% | 62.9hPa | 2.7V | 00:00:00 | 00:00:00 | 00:00:00 | |
| DB0NH | 2026-09-01 17:49:55 | 49.73045 | 8.23372 | 70° | 40km/h | 19537m | 5.7m/s | -52.8°C | 4.1% | 62.9hPa | 2.7V | 00:00:00 | 01:20:12 | 00:00:00 | |
| DN1GJH-1 | 2026-09-01 17:49:54 | 49.73045 | 8.23372 | 70° | 38km/h | 19537m | 5.8m/s | -52.8°C | 1.5% | 62.9hPa | 2.6V | 03:58:00 | 00:00:00 | 00:00:00 | |
| DL1XH1-15 | 2026-09-01 17:49:53 | 49.73021 | 8.23252 | 79° | 35km/h | 19491m | 4.2m/s | -52.8°C | 4.3% | 63.4hPa | 2.6V | 03:58:15 | 01:20:03 | 00:00:00 | |
| BIOWL1-15 | 2026-09-01 17:49:45 | 49.73019 | 8.23238 | 78° | 35km/h | 19486m | 5.2m/s | -52.9°C | 1.3% | 63.4hPa | 2.7V | 03:58:24 | 01:20:02 | 00:00:00 | |
| DL0LBS | 2026-09-01 17:49:43 | 49.73016 | 8.23225 | 76° | 37km/h | 19481m | 5.6m/s | -52.8°C | 1.5% | 63.5hPa | 2.6V | 03:58:00 | 00:00:00 | 00:00:00 | |
| DO3MHA-11 | 2026-09-01 17:49:42 | 49.73012 | 8.23196 | 79° | 38km/h | 19471m | 5.5m/s | -52.7°C | 4.2% | 63.5hPa | 2.6V | 00:00:00 | 01:19:59 | 00:00:00 | |
| DF1GD-15 | 2026-09-01 17:49:41 | 49.73012 | 8.23196 | 79° | 37km/h | 19471m | 5.6m/s | -52.8°C | 1.5% | 63.6hPa | 2.6V | 03:58:00 | 00:00:00 | 00:00:00 | |
| DM0DOS-11 | 2026-09-01 17:49:40 | 49.73002 | 8.23094 | 75° | 35km/h | 19435m | 5.1m/s | -52.9°C | 4.1% | 63.9hPa | 2.6V | 03:58:26 | 01:19:52 | 00:00:00 | |
| DL1XH1-15 | 2026-09-01 17:49:40 | 49.73005 | 8.23121 | 83° | 38km/h | 19444m | 5.9m/s | -52.9°C | 4.1% | 63.8hPa | 2.6V | 03:58:24 | 01:19:54 | 00:00:00 | |
| DL1XH-west | 2026-09-01 17:49:34 | 49.72999 | 8.23080 | 69° | 37km/h | 19429m | 5.3m/s | -53°C | 1.3% | 64hPa | 2.6V | 03:59:15 | 01:19:51 | 00:00:00 | |
| DO1YAY-16 | 2026-09-01 17:49:33 | 49.72991 | 8.23053 | 65° | 37km/h | 19419m | 5.6m/s | -53.1°C | 1.5% | 64.0hPa | 2.6V | 00:00:00 | 00:00:00 | 00:00:00 | |
| DO3MHA-11 | 2026-09-01 17:49:32 | 49.72991 | 8.23053 | 66° | 46km/h | 19420m | 5.5m/s | -53.1°C | 4.3% | 64.0hPa | 2.6V | 03:58:00 | 01:19:49 | 00:00:00 | |
| DK5PH-5 | 2026-09-01 17:49:31 | 49.72987 | 8.23040 | 69° | 42km/h | 19415m | 4.6m/s | -53.1°C | 4.3% | 64.1hPa | 2.6V | 03:58:00 | 01:19:48 | 00:00:00 | |
| DM0DOS-11 | 2026-09-01 17:49:30 | 49.72968 | 8.22936 | 78° | 47km/h | 19384m | 4.4m/s | -52.9°C | 4.2% | 64.4hPa | 2.6V | 03:58:36 | 01:19:42 | 00:00:00 | |
| BIOWL1-15 | 2026-09-01 17:49:26 | 49.72965 | 8.22917 | 78° | 49km/h | 19379m | 5.6m/s | -52.9°C | 1.3% | 64.5hPa | 2.6V | 03:59:15 | 01:19:41 | 00:00:00 | |
| DL1XH-west | 2026-09-01 17:49:23 | 49.72963 | 8.22899 | 78° | 47km/h | 19375m | 4m/s | -52.9°C | 1.2% | 64.5hPa | 2.6V | 03:59:15 | 01:19:40 | 00:00:00 | |
| DL1XH1-15 | 2026-09-01 17:49:23 | 49.72945 | 8.22801 | 65° | 42km/h | 19344m | 6.2m/s | -52.9°C | 4.2% | 64.8hPa | 2.6V | 03:58:44 | 01:19:34 | 00:00:00 | |
| DL2OL | 2026-09-01 17:49:21 | 49.72959 | 8.22864 | 80° | 42km/h | 19365m | 5.1m/s | -52.8°C | 1.5% | 64.6hPa | 2.7V | 00:00:00 | 00:00:00 | 00:00:00 | |
| DM0DOS-11 | 2026-09-01 17:49:20 | 49.72936 | 8.22772 | 62° | 42km/h | 19334m | 5.7m/s | -52.9°C | 4.2% | 64.9hPa | 2.7V | 03:58:46 | 01:19:32 | 00:00:00 | |
| BIOWL1-15 | 2026-09-01 17:49:14 | 49.72931 | 8.22757 | 63° | 44km/h | 19328m | 5m/s | -52.9°C | 1.3% | 65hPa | 2.6V | 03:59:15 | 01:19:31 | 00:00:00 | |
| DL1XH-west | 2026-09-01 17:49:12 | 49.72922 | 8.22727 | 69° | 42km/h | 19318m | 5.8m/s | -52.9°C | 1.3% | 65.1hPa | 2.6V | 03:59:15 | 01:19:29 | 00:00:00 | |
| DM0DOS-11 | 2026-09-01 17:49:09 | 49.72895 | 8.22613 | 61° | 37km/h | 19278m | 6.1m/s | -53.1°C | 4.3% | 65.5hPa | 2.7V | 03:58:57 | 01:19:21 | 00:00:00 | |
| DL1XH1-15 | 2026-09-01 17:49:08 | 49.72906 | 8.22652 | 70° | 38km/h | 19293m | 5.7m/s | -53°C | 4.3% | 65.3hPa | 2.6V | 03:58:54 | 01:19:24 | 00:00:00 | |
| BIOWL1-15 | 2026-09-01 17:49:08 | 49.72895 | 8.22613 | 62° | 37km/h | 19278m | 6.1m/s | -53.1°C | 1.3% | 65.5hPa | 2.7V | 03:59:15 | 01:19:21 | 00:00:00 | |
| DL1XH-west | 2026-09-01 17:49:01 | 49.72879 | 8.22575 | 56° | 38km/h | 19261m | 4.6m/s | -53.1°C | 1.3% | 65.7hPa | 2.6V | 03:59:15 | 01:19:18 | 00:00:00 | |
| DL8DAS-14 | 2026-09-01 17:48:59 | 49.72868 | 8.22548 | 55° | 44km/h | 19251m | 5.6m/s | -53.1°C | 1.5% | 65.8hPa | 2.7V | 00:00:00 | 00:00:00 | 00:00:00 | |
| DL1XH1-15 | 2026-09-01 17:48:58 | 49.72855 | 8.22521 | 53° | 42km/h | 19242m | 5.7m/s | -53°C | 4.3% | 65.8hPa | 2.7V | 03:59:04 | 01:19:14 | 00:00:00 | |
| BIOWL1-15 | 2026-09-01 17:48:53 | 49.72833 | 8.22477 | 52° | 35km/h | 19222m | 5.5m/s | -52.9°C | 1.3% | 66.1hPa | 2.7V | 03:59:15 | 01:19:10 | 00:00:00 | |
| DL1XH1-15 | 2026-09-01 17:48:53 | 49.72806 | 8.22423 | 57° | 31km/h | 19191m | 5m/s | -52.8°C | 4.3% | 66.4hPa | 2.6V | 03:59:14 | 01:19:04 | 00:00:00 | |
| DL1XH-west | 2026-09-01 17:48:50 | 49.72818 | 8.22448 | 52° | 27km/h | 19206m | 5.1m/s | -52.8°C | 1.3% | 66.2hPa | 2.6V | 03:59:15 | 01:19:07 | 00:00:00 | |
| BIOWL9-15 | 2026-09-01 17:48:48 | 49.72810 | 8.22432 | 53° | 27km/h | 19196m | 6.0m/s | -52.8°C | 1.5% | 66.3hPa | 2.6V | 00:00:00 | 00:00:00 | 00:00:00 | |
| BIOWL1-15 | 2026-09-01 17:48:47 | 49.72790 | 8.22380 | 59° | 31km/h | 19172m | 4.4m/s | -52.7°C | 1.3% | 66.6hPa | 2.6V | 04:00:06 | 01:19:00 | 00:00:00 | |
| SONCRA | 2026-09-01 17:48:46 | 49.72802 | 8.22412 | 60° | 33km/h | 19187m | 3.3m/s | -52.7°C | 1.5% | 66.4hPa | 2.7V | 00:00:00 | 00:00:00 | 00:00:00 | |
| DL1ZP-14 | 2026-09-01 17:48:45 | 49.72798 | 8.22401 | 60° | 31km/h | 19183m | 5.0m/s | -52.7°C | 1.5% | 66.5hPa | 2.7V | 00:00:00 | 00:00:00 | 00:00:00 | |
| DD1CC8 | 2026-09-01 17:48:44 | 49.72790 | 8.22380 | 58° | 29km/h | 19172m | 4.4m/s | -52.7°C | 1.5% | 66.6hPa | 2.7V | 00:00:00 | 00:00:00 | 00:00:00 | |
| HTAHTA | 2026-09-01 17:48:43 | 49.72790 | 8.22380 | 58° | 29km/h | 19172m | 4.4m/s | -52.7°C | 1.5% | 66.6hPa | 2.7V | 00:00:00 | 00:00:00 | 00:00:00 | |
| DL0LBS | 2026-09-01 17:48:41 | 49.72786 | 8.22369 | 58° | 33km/h | 19167m | 6.3m/s | -52.7°C | 1.5% | 66.6hPa | 2.7V | 04:00:00 | 00:00:00 | 00:00:00 | |
| DM0DOS-11 | 2026-09-01 17:48:39 | 49.72755 | 8.22305 | 55° | 24km/h | 19127m | 5.9m/s | -52.5°C | 4.2% | 67.1hPa | 2.7V | 03:59:27 | 01:18:51 | 00:00:00 | |
| DL1XH-west | 2026-09-01 17:48:39 | 49.72773 | 8.22341 | 52° | 26km/h | 19151m | 5.4m/s | -52.6°C | 1.3% | 66.8hPa | 2.7V | 04:00:06 | 01:18:56 | 00:00:00 | |
| HSKMA3-T | 2026-09-01 17:48:37 | 49.72765 | 8.22328 | 51° | 22km/h | 19142m | 5.2m/s | 0°C | 0% | 0hPa | 2.6V | 18:12:15 | 01:18:54 | 00:00:00 | |
| BIOWL1-15 | 2026-09-01 17:48:35 | 49.72752 | 8.22298 | 58° | 22km/h | 19122m | 4.8m/s | -52.5°C | 1.2% | 67.1hPa | 2.7V | 04:00:06 | 01:18:50 | 00:00:00 | |
| DB0UT-7 | 2026-09-01 17:48:34 | 49.72755 | 8.22305 | 56° | 20km/h | 19127m | 5.8m/s | -52.5°C | 4.2% | 67.0hPa | 2.7V | 03:59:00 | 01:18:51 | 00:00:00 | |
| DN1GJH-1 | 2026-09-01 17:48:33 | 49.72755 | 8.22305 | 57° | 24km/h | 19127m | 5.9m/s | -52.5°C | 1.5% | 67.1hPa | 2.6V | 04:00:00 | 00:00:00 | 00:00:00 | |
| BEGRI65-1 | 2026-09-01 17:48:32 | 49.72752 | 8.22298 | 59° | 22km/h | 19122m | 4.8m/s | 0°C | 0% | 0hPa | 2.6V | 00:00:00 | 00:00:00 | 00:00:00 | |
| DL1XH1-15 | 2026-09-01 17:48:31 | 49.72732 | 8.22245 | 54° | 22km/h | 19093m | 4.7m/s | -52.2°C | 4.1% | 67.4hPa | 2.6V | 03:59:34 | 01:18:44 | 00:00:00 | |
| DL1XH-west | 2026-09-01 17:48:29 | 49.72739 | 8.22262 | 60° | 29km/h | 19102m | 4m/s | -52.3°C | 1.2% | 67.3hPa | 2.7V | 04:00:06 | 01:18:46 | 00:00:00 | |
| HSKMA3-T | 2026-09-01 17:48:27 | 49.72732 | 8.22245 | 54° | 22km/h | 19093m | 4.7m/s | 0°C | 0% | 0hPa | 2.6V | 18:12:15 | 01:18:44 | 00:00:00 | |
| DL8DAS-15 | 2026-09-01 17:48:27 | 49.72732 | 8.22245 | 55° | 22km/h | 19093m | 4.7m/s | -52.2°C | 1.5% | 67.4hPa | 2.6V | 00:00:00 | 00:00:00 | 00:00:00 | |
| DO3DL | 2026-09-01 17:48:26 | 49.72732 | 8.22245 | 55° | 22km/h | 19093m | 4.7m/s | -52.2°C | 1.4% | 67.4hPa | 2.6V | 04:00:00 | 00:00:00 | 00:00:00 | |
| DM0DOS-11 | 2026-09-01 17:48:25 | 49.72711 | 8.22206 | 46° | 20km/h | 19058m | 4.5m/s | -52°C | 4.1% | 67.8hPa | 2.6V | 03:59:41 | 01:18:37 | 00:00:00 | |
| BIOWL1-15 | 2026-09-01 17:48:22 | 49.72717 | 8.22216 | 50° | 15km/h | 19068m | 4.3m/s | -52.1°C | 1.2% | 67.7hPa | 2.7V | 04:00:06 | 01:18:39 | 00:00:00 | |
| DJ2KF-10 | 2026-09-01 17:48:21 | 49.72714 | 8.22211 | 48° | 16km/h | 19063m | 5.7m/s | -52.0°C | 4.1% | 67.6hPa | 2.7V | 00:00:00 | 01:18:38 | 00:00:00 | |
| DL1XH1-15 | 2026-09-01 17:48:20 | 49.72701 | 8.22189 | 48° | 20km/h | 19042m | 4.3m/s | -51.9°C | 4.1% | 67.9hPa | 2.7V | 03:59:44 | 01:18:34 | 00:00:00 | |
| DL1XH-west | 2026-09-01 17:48:18 | 49.72704 | 8.22195 | 48° | 20km/h | 19047m | 6.1m/s | -52°C | 1.1% | 67.9hPa | 2.7V | 04:00:06 | 01:18:35 | 00:00:00 | |
| BIOWL9-15 | 2026-09-01 17:48:17 | 49.72701 | 8.22189 | 48° | 20km/h | 19042m | 4.3m/s | -51.9°C | 1.5% | 67.9hPa | 2.6V | 00:00:00 | 00:00:00 | 00:00:00 | |
| DO3MHA-11 | 2026-09-01 17:48:15 | 49.72693 | 8.22176 | 46° | 18km/h | 19032m | 5.4m/s | -51.8°C | 4.0% | 68.0hPa | 2.6V | 00:00:00 | 01:18:32 | 00:00:00 | |
| DM0DOS-11 | 2026-09-01 17:48:14 | 49.72673 | 8.22139 | 51° | 16km/h | 19003m | 4.9m/s | -51.8°C | 4.1% | 68.3hPa | 2.6V | 03:59:52 | 01:18:26 | 00:00:00 | |
| BIOWL1-15 | 2026-09-01 17:48:11 | 49.72678 | 8.22149 | 54° | 18km/h | 19013m | 4.2m/s | -51.8°C | 1.2% | 68.2hPa | 2.7V | 04:00:06 | 01:18:28 | 00:00:00 | |
| BIOWL7-15 | 2026-09-01 17:48:09 | 49.72675 | 8.22144 | 53° | 18km/h | 19009m | 5.6m/s | -51.8°C | 1.5% | 68.3hPa | 2.6V | 00:00:00 | 00:00:00 | 00:00:00 | |
| DL1XH1-15 | 2026-09-01 17:48:08 | 49.72669 | 8.22130 | 56° | 11km/h | 18992m | 4.1m/s | -51.8°C | 4% | 68.5hPa | 2.6V | 03:59:54 | 01:18:24 | 00:00:00 | |
| DL1XH-west | 2026-09-01 17:48:07 | 49.72669 | 8.22130 | 56° | 11km/h | 18992m | 4.1m/s | -51.8°C | 1.1% | 68.5hPa | 2.6V | 04:00:06 | 01:18:24 | 00:00:00 | |
| DO3DL | 2026-09-01 17:48:06 | 49.72669 | 8.22130 | 57° | 11km/h | 18993m | 4.1m/s | -51.8°C | 1.4% | 68.5hPa | 2.7V | 04:00:00 | 00:00:00 | 00:00:00 | |
| DO3MHA-11 | 2026-09-01 17:48:05 | 49.72665 | 8.22122 | 50° | 16km/h | 18984m | 6.0m/s | -51.8°C | 4.0% | 68.5hPa | 2.7V | 00:00:00 | 01:18:22 | 00:00:00 | |
| DM0DOS-11 | 2026-09-01 17:48:04 | 49.72647 | 8.22091 | 52° | 15km/h | 18955m | 4.4m/s | -51.7°C | 4% | 68.8hPa | 2.7V | 04:00:02 | 01:18:16 | 00:00:00 | |
| DB0UT-7 | 2026-09-01 17:48:04 | 49.72662 | 8.22117 | 46° | 15km/h | 18979m | 4.4m/s | -51.8°C | 4.0% | 68.6hPa | 2.6V | 00:00:00 | 00:00:00 | 00:00:00 | |
| DB0ND-19 | 2026-09-01 17:48:03 | 49.72659 | 8.22112 | 44° | 20km/h | 18974m | 3.9m/s | -51.8°C | 1.5% | 68.6hPa | 2.6V | 00:00:00 | 00:00:00 | 00:00:00 | |
| DL1XH1-15 | 2026-09-01 17:48:02 | 49.72643 | 8.22083 | 54° | 15km/h | 18945m | 4.8m/s | -51.6°C | 4% | 69hPa | 2.6V | 04:00:04 | 01:18:14 | 00:00:00 | |
| BIOWL1-15 | 2026-09-01 17:48:00 | 49.72650 | 8.22096 | 54° | 15km/h | 18959m | 4.3m/s | -51.7°C | 1.2% | 68.8hPa | 2.7V | 04:00:06 | 01:18:17 | 00:00:00 | |
| DL1XH-west | 2026-09-01 17:47:56 | 49.72641 | 8.22078 | 63° | 15km/h | 18939m | 5.3m/s | -51.6°C | 1.2% | 69hPa | 2.6V | 04:00:06 | 01:18:13 | 00:00:00 | |
| AU51GT2 | 2026-09-01 17:47:53 | 49.72639 | 8.22065 | 84° | 9km/h | 18924m | 5.0m/s | -51.6°C | 1.4% | 69.2hPa | 2.6V | 00:00:00 | 00:00:00 | 00:00:00 | |
| DL1XH1-15 | 2026-09-01 17:47:52 | 49.72637 | 8.22037 | 80° | 15km/h | 18895m | 5.5m/s | -51.5°C | 3.9% | 69.5hPa | 2.6V | 04:00:14 | 01:18:04 | 00:00:00 | |
| DM3KS-11 | 2026-09-01 17:47:52 | 49.72638 | 8.22058 | 73° | 9km/h | 18915m | 4.0m/s | -51.6°C | 1.4% | 69.3hPa | 2.7V | 00:00:00 | 00:00:00 | 00:00:00 | |
| DJ2KF-10 | 2026-09-01 17:47:51 | 49.72638 | 8.22058 | 74° | 18km/h | 18915m | 4.0m/s | -51.5°C | 4.0% | 69.2hPa | 2.7V | 00:00:00 | 01:18:08 | 00:00:00 | |
| DO3DL | 2026-09-01 17:47:50 | 49.72638 | 8.22058 | 75° | 11km/h | 18915m | 4.0m/s | -51.6°C | 1.4% | 69.3hPa | 2.7V | 00:00:00 | 00:00:00 | 00:00:00 | |
| DM0DOS-11 | 2026-09-01 17:47:49 | 49.72635 | 8.22019 | 93° | 15km/h | 18880m | 6.8m/s | -51.6°C | 3.9% | 69.6hPa | 2.7V | 04:00:17 | 01:18:01 | 00:00:00 | |
| BIOWL1-15 | 2026-09-01 17:47:49 | 49.72637 | 8.22048 | 88° | 15km/h | 18904m | 4.9m/s | -51.5°C | 1.1% | 69.4hPa | 2.7V | 04:00:57 | 01:18:06 | 00:00:00 | |
| DL1XH-west | 2026-09-01 17:47:46 | 49.72636 | 8.22031 | 76° | 15km/h | 18890m | 4.7m/s | -51.5°C | 1.1% | 69.6hPa | 2.6V | 04:00:57 | 01:18:03 | 00:00:00 | |
| DO3MHA-11 | 2026-09-01 17:47:45 | 49.72635 | 8.22025 | 83° | 15km/h | 18886m | 3.6m/s | -51.5°C | 3.9% | 69.6hPa | 2.6V | 00:00:00 | 01:18:02 | 00:00:00 | |
| SONCRA | 2026-09-01 17:47:44 | 49.72635 | 8.22019 | 93° | 15km/h | 18880m | 6.8m/s | -51.6°C | 1.4% | 69.6hPa | 2.7V | 00:00:00 | 00:00:00 | 00:00:00 | |
| DL1ZP-14 | 2026-09-01 17:47:43 | 49.72636 | 8.22008 | 98° | 13km/h | 18869m | 6.8m/s | -51.7°C | 1.4% | 69.8hPa | 2.7V | 00:00:00 | 00:00:00 | 00:00:00 | |
| DL1XH1-15 | 2026-09-01 17:47:42 | 49.72643 | 8.21981 | 109° | 16km/h | 18842m | 5.7m/s | -51.8°C | 3.9% | 70hPa | 2.7V | 04:00:24 | 01:17:54 | 00:00:00 | |
| HTAHTA | 2026-09-01 17:47:41 | 49.72637 | 8.22003 | 100° | 11km/h | 18863m | 4.0m/s | -51.8°C | 1.4% | 69.8hPa | 2.6V | 00:00:00 | 00:00:00 | 00:00:00 | |
| DM0DOS-11 | 2026-09-01 17:47:39 | 49.72647 | 8.21961 | 109° | 20km/h | 18827m | 4.2m/s | -52.1°C | 4.1% | 70.2hPa | 2.6V | 04:00:27 | 01:17:51 | 00:00:00 | |
| BIOWL1-15 | 2026-09-01 17:47:38 | 49.72641 | 8.21987 | 114° | 16km/h | 18848m | 4.9m/s | -51.8°C | 1.1% | 70hPa | 2.6V | 04:00:57 | 01:17:55 | 00:00:00 | |
| DL1XH-west | 2026-09-01 17:47:36 | 49.72644 | 8.21975 | 108° | 18km/h | 18837m | 5m/s | -51.9°C | 1.1% | 70.1hPa | 2.7V | 04:00:57 | 01:17:53 | 00:00:00 | |
| DO3MHA-11 | 2026-09-01 17:47:35 | 49.72645 | 8.21968 | 111° | 22km/h | 18832m | 6.0m/s | -51.9°C | 4.0% | 70.1hPa | 2.6V | 00:00:00 | 01:17:52 | 00:00:00 | |
| SSTOLZ84 | 2026-09-01 17:47:34 | 49.72647 | 8.21961 | 109° | 20km/h | 18827m | 4.3m/s | -52.1°C | 1.5% | 70.2hPa | 2.6V | 00:00:00 | 00:00:00 | 00:00:00 | |
| DB0UT-7 | 2026-09-01 17:47:33 | 49.72649 | 8.21953 | 106° | 24km/h | 18822m | 5.2m/s | -52.1°C | 4.1% | 70.2hPa | 2.6V | 04:00:00 | 01:17:50 | 00:00:00 | |
| DL1XH1-15 | 2026-09-01 17:47:32 | 49.72656 | 8.21905 | 100° | 24km/h | 18793m | 5.6m/s | -51.9°C | 4.1% | 70.6hPa | 2.6V | 04:00:34 | 01:17:44 | 00:00:00 | |
| DK5PH-5 | 2026-09-01 17:47:31 | 49.72651 | 8.21939 | 100° | 24km/h | 18812m | 3.8m/s | -52.1°C | 4.1% | 70.4hPa | 2.7V | 00:00:00 | 01:17:48 | 00:00:00 | |
| DM0DOS-11 | 2026-09-01 17:47:29 | 49.72659 | 8.21874 | 98° | 31km/h | 18778m | 5.2m/s | -51.9°C | 4% | 70.7hPa | 2.7V | 04:00:37 | 01:17:41 | 00:00:00 | |
| BIOWL1-15 | 2026-09-01 17:47:28 | 49.72655 | 8.21915 | 105° | 24km/h | 18798m | 3.9m/s | -52°C | 1.2% | 70.5hPa | 2.6V | 04:00:57 | 01:17:45 | 00:00:00 | |
| DL1XH-west | 2026-09-01 17:47:26 | 49.72657 | 8.21896 | 97° | 26km/h | 18788m | 4.5m/s | -51.9°C | 1.2% | 70.7hPa | 2.7V | 04:00:57 | 01:17:43 | 00:00:00 | |
| BIOWL1-15 | 2026-09-01 17:47:20 | 49.72661 | 8.21805 | 93° | 27km/h | 18748m | 4.4m/s | -52°C | 1.2% | 71.1hPa | 2.6V | 04:00:57 | 01:17:35 | 00:00:00 | |
| DL1CLM-18 | 2026-09-01 17:47:20 | 49.72660 | 8.21826 | 92° | 29km/h | 18758m | 5.4m/s | 0°C | 0% | 0hPa | 2.6V | 00:00:00 | 00:00:00 | 00:00:00 | |
| DL1XH1-15 | 2026-09-01 17:47:19 | 49.72661 | 8.21795 | 88° | 26km/h | 18742m | 5.9m/s | -52°C | 4.1% | 71.2hPa | 2.6V | 04:00:44 | 01:17:34 | 00:00:00 | |
| DM0DOS-11 | 2026-09-01 17:47:19 | 49.72661 | 8.21767 | 96° | 24km/h | 18726m | 4.6m/s | -52°C | 4.1% | 71.3hPa | 2.7V | 04:00:47 | 01:17:31 | 00:00:00 | |
| DL1XH-west | 2026-09-01 17:47:15 | 49.72661 | 8.21776 | 93° | 24km/h | 18732m | 6.3m/s | -52°C | 1.2% | 71.2hPa | 2.7V | 04:00:57 | 01:17:32 | 00:00:00 | |
| DO3MHA-11 | 2026-09-01 17:47:15 | 49.72661 | 8.21776 | 93° | 22km/h | 18732m | 6.2m/s | -52.0°C | 4.0% | 71.2hPa | 2.7V | 00:00:00 | 01:17:32 | 00:00:00 | |
| NBG1-10 | 2026-09-01 17:47:13 | 49.72662 | 8.21758 | 95° | 26km/h | 18721m | 5.5m/s | -51.9°C | 4.0% | 71.3hPa | 2.7V | 00:00:00 | 01:17:30 | 00:00:00 | |
| DL1XH1-15 | 2026-09-01 17:47:12 | 49.72665 | 8.21710 | 94° | 20km/h | 18690m | 4.7m/s | -51.9°C | 3.9% | 71.7hPa | 2.7V | 04:00:54 | 01:17:24 | 00:00:00 | |
| DL1ZP-14 | 2026-09-01 17:47:12 | 49.72662 | 8.21742 | 94° | 18km/h | 18711m | 4.2m/s | -51.9°C | 1.4% | 71.5hPa | 2.6V | 00:00:00 | 00:00:00 | 00:00:00 | |
| DF3TZ-5 | 2026-09-01 17:47:11 | 49.72663 | 8.21734 | 98° | 20km/h | 18706m | 5.9m/s | -51.9°C | 1.5% | 71.5hPa | 2.6V | 00:00:00 | 00:00:00 | 00:00:00 | |
| HTAHTA | 2026-09-01 17:47:10 | 49.72663 | 8.21734 | 98° | 20km/h | 18706m | 5.9m/s | -51.9°C | 1.5% | 71.5hPa | 2.6V | 00:00:00 | 00:00:00 | 00:00:00 | |
| DM0DOS-11 | 2026-09-01 17:47:09 | 49.72668 | 8.21686 | 106° | 24km/h | 18674m | 4.3m/s | -51.9°C | 3.9% | 71.9hPa | 2.6V | 04:00:57 | 01:17:21 | 00:00:00 | |
| BIOWL1-15 | 2026-09-01 17:47:08 | 49.72665 | 8.21718 | 98° | 20km/h | 18696m | 6.1m/s | -51.9°C | 1.1% | 71.7hPa | 2.7V | 04:00:57 | 01:17:25 | 00:00:00 | |
| DL1XH-west | 2026-09-01 17:47:04 | 49.72668 | 8.21686 | 107° | 24km/h | 18674m | 4.4m/s | -51.9°C | 1.1% | 71.9hPa | 2.6V | 04:00:57 | 01:17:21 | 00:00:00 | |
| BIOWL1-15 | 2026-09-01 17:47:00 | 49.72682 | 8.21630 | 109° | 29km/h | 18644m | 5.9m/s | -51.9°C | 1.2% | 72.2hPa | 2.6V | 04:01:48 | 01:17:15 | 00:00:00 | |
| DL9PN | 2026-09-01 17:46:58 | 49.72684 | 8.21619 | 102° | 27km/h | 18639m | 5.0m/s | -51.9°C | 1.5% | 72.3hPa | 2.7V | 00:00:00 | 00:00:00 | 00:00:00 | |
| DO1YAY-16 | 2026-09-01 17:46:57 | 49.72684 | 8.21619 | 102° | 27km/h | 18639m | 5.0m/s | -51.9°C | 1.5% | 72.3hPa | 2.7V | 00:00:00 | 00:00:00 | 00:00:00 | |
| DF1GD-15 | 2026-09-01 17:46:56 | 49.72684 | 8.21619 | 104° | 29km/h | 18639m | 5.0m/s | -51.9°C | 1.5% | 72.3hPa | 2.7V | 04:01:00 | 00:00:00 | 00:00:00 | |
| DM0DOS-11 | 2026-09-01 17:46:55 | 49.72696 | 8.21539 | 116° | 29km/h | 18603m | 5.6m/s | -52.2°C | 4.1% | 72.7hPa | 2.7V | 04:01:11 | 01:17:07 | 00:00:00 | |
| DL1XH-west | 2026-09-01 17:46:53 | 49.72689 | 8.21571 | 102° | 31km/h | 18618m | 4.8m/s | -52.1°C | 1.2% | 72.5hPa | 2.6V | 04:01:48 | 01:17:10 | 00:00:00 | |
| BIOWL1-15 | 2026-09-01 17:46:49 | 49.72707 | 8.21509 | 119° | 27km/h | 18589m | 5.2m/s | -52.1°C | 1.1% | 72.9hPa | 2.6V | 04:01:48 | 01:17:04 | 00:00:00 | |
| DJ2DS-15 | 2026-09-01 17:46:48 | 49.72703 | 8.21519 | 121° | 33km/h | 18594m | 4.5m/s | -52.1°C | 4.0% | 72.7hPa | 2.7V | 00:00:00 | 01:17:05 | 00:00:00 | |
| BIOWL7-15 | 2026-09-01 17:46:47 | 49.72703 | 8.21519 | 121° | 29km/h | 18594m | 4.5m/s | -52.1°C | 1.5% | 72.8hPa | 2.7V | 04:01:00 | 00:00:00 | 00:00:00 | |
| DL1XH1-15 | 2026-09-01 17:46:42 | 49.72741 | 8.21393 | 105° | 37km/h | 18541m | 5.9m/s | -52°C | 3.9% | 73.4hPa | 2.7V | 04:01:24 | 01:16:54 | 00:00:00 | |
| DL1XH-west | 2026-09-01 17:46:42 | 49.72726 | 8.21458 | 116° | 31km/h | 18565m | 5.3m/s | -51.9°C | 1.1% | 73.2hPa | 2.6V | 04:01:48 | 01:16:59 | 00:00:00 | |
| BIOWL1-15 | 2026-09-01 17:46:39 | 49.72741 | 8.21393 | 105° | 37km/h | 18541m | 5.9m/s | -52°C | 1.1% | 73.4hPa | 2.7V | 04:01:48 | 01:16:54 | 00:00:00 | |
| DL0LBS | 2026-09-01 17:46:37 | 49.72738 | 8.21407 | 109° | 38km/h | 18546m | 3.9m/s | -52.0°C | 1.4% | 73.4hPa | 2.6V | 04:01:00 | 00:00:00 | 00:00:00 | |
| DF2AP-13 | 2026-09-01 17:46:36 | 49.72743 | 8.21380 | 102° | 44km/h | 18535m | 5.3m/s | -52.0°C | 3.9% | 73.4hPa | 2.6V | 00:00:00 | 01:16:53 | 00:00:00 | |
| DO3MHA-11 | 2026-09-01 17:46:35 | 49.72745 | 8.21367 | 103° | 37km/h | 18530m | 5.1m/s | -52.1°C | 3.9% | 73.5hPa | 2.7V | 04:01:00 | 01:16:52 | 00:00:00 | |
| DB0UT-7 | 2026-09-01 17:46:33 | 49.72750 | 8.21341 | 106° | 42km/h | 18520m | 3.6m/s | -52.2°C | 3.9% | 73.6hPa | 2.7V | 00:00:00 | 01:16:50 | 00:00:00 | |
| DL1XH1-15 | 2026-09-01 17:46:32 | 49.72765 | 8.21258 | 106° | 40km/h | 18489m | 5.5m/s | -53°C | 4.2% | 74hPa | 2.7V | 04:01:34 | 01:16:44 | 00:00:00 | |
| DL1XH-west | 2026-09-01 17:46:32 | 49.72752 | 8.21328 | 103° | 33km/h | 18515m | 6m/s | -52.4°C | 1.1% | 73.7hPa | 2.7V | 04:01:48 | 01:16:49 | 00:00:00 | |
| BIOWL1-15 | 2026-09-01 17:46:31 | 49.72765 | 8.21258 | 106° | 42km/h | 18489m | 5.5m/s | -53°C | 1.2% | 74hPa | 2.7V | 04:01:48 | 01:16:44 | 00:00:00 | |
| DK5PH-5 | 2026-09-01 17:46:31 | 49.72754 | 8.21315 | 103° | 42km/h | 18510m | 5.1m/s | -52.4°C | 4.0% | 73.7hPa | 2.6V | 00:00:00 | 01:16:48 | 00:00:00 | |
| DB0ND-19 | 2026-09-01 17:46:30 | 49.72756 | 8.21302 | 105° | 35km/h | 18504m | 6.1m/s | -52.6°C | 1.4% | 73.8hPa | 2.6V | 00:00:00 | 00:00:00 | 00:00:00 | |
| DB0UT-9 | 2026-09-01 17:46:29 | 49.72756 | 8.21302 | 107° | 37km/h | 18504m | 6.1m/s | -52.6°C | 1.5% | 73.8hPa | 2.6V | 04:01:00 | 00:00:00 | 00:00:00 | |
| DJ2DS-15 | 2026-09-01 17:46:28 | 49.72762 | 8.21273 | 109° | 44km/h | 18494m | 4.1m/s | -52.8°C | 4.1% | 73.9hPa | 2.6V | 00:00:00 | 01:16:45 | 00:00:00 | |
| DL9PN | 2026-09-01 17:46:27 | 49.72768 | 8.21242 | 104° | 42km/h | 18484m | 4.6m/s | -53.0°C | 1.5% | 74.0hPa | 2.6V | 00:00:00 | 00:00:00 | 00:00:00 | |
| DO1YAY-16 | 2026-09-01 17:46:26 | 49.72768 | 8.21242 | 104° | 42km/h | 18484m | 4.6m/s | -53.0°C | 1.5% | 74.0hPa | 2.6V | 00:00:00 | 00:00:00 | 00:00:00 | |
| DO3MHA-11 | 2026-09-01 17:46:25 | 49.72771 | 8.21226 | 106° | 46km/h | 18479m | 6.1m/s | -53.0°C | 4.1% | 74.1hPa | 2.6V | 00:00:00 | 01:16:42 | 00:00:00 | |
| DO3DL | 2026-09-01 17:46:23 | 49.72774 | 8.21209 | 106° | 46km/h | 18473m | 4.7m/s | -53.1°C | 1.5% | 74.2hPa | 2.6V | 00:00:00 | 00:00:00 | 00:00:00 | |
| DL8DAS-15 | 2026-09-01 17:46:22 | 49.72776 | 8.21192 | 103° | 46km/h | 18468m | 5.5m/s | -53.2°C | 1.5% | 74.2hPa | 2.6V | 00:00:00 | 00:00:00 | 00:00:00 | |
| DL1XH1-15 | 2026-09-01 17:46:21 | 49.72785 | 8.21087 | 94° | 44km/h | 18435m | 4.9m/s | -53.4°C | 4.3% | 74.6hPa | 2.6V | 04:01:44 | 01:16:34 | 00:00:00 | |
| DL1XH-west | 2026-09-01 17:46:21 | 49.72780 | 8.21157 | 96° | 44km/h | 18457m | 4.6m/s | -53.3°C | 1.2% | 74.4hPa | 2.7V | 04:01:48 | 01:16:38 | 00:00:00 | |
| DJ2KF-10 | 2026-09-01 17:46:21 | 49.72780 | 8.21157 | 97° | 38km/h | 18457m | 4.6m/s | -53.3°C | 4.2% | 74.3hPa | 2.6V | 00:00:00 | 01:16:38 | 00:00:00 | |
| AU51GT2 | 2026-09-01 17:46:20 | 49.72781 | 8.21140 | 97° | 44km/h | 18452m | 6.2m/s | -53.4°C | 1.5% | 74.4hPa | 2.6V | 00:00:00 | 00:00:00 | 00:00:00 | |
| DM3KS-11 | 2026-09-01 17:46:19 | 49.72784 | 8.21104 | 95° | 44km/h | 18441m | 6.1m/s | -53.4°C | 1.6% | 74.5hPa | 2.6V | 00:00:00 | 00:00:00 | 00:00:00 | |
| DM0DOS-11 | 2026-09-01 17:46:17 | 49.72793 | 8.21002 | 97° | 42km/h | 18411m | 5m/s | -53.4°C | 4.2% | 74.9hPa | 2.6V | 04:01:49 | 01:16:29 | 00:00:00 | |
| BIOWL1-15 | 2026-09-01 17:46:17 | 49.72785 | 8.21087 | 95° | 44km/h | 18435m | 4.9m/s | -53.4°C | 1.3% | 74.6hPa | 2.6V | 04:01:48 | 01:16:34 | 00:00:00 | |
| DL1CLM-18 | 2026-09-01 17:46:16 | 49.72785 | 8.21087 | 96° | 44km/h | 18435m | 4.9m/s | 0°C | 0% | 0hPa | 2.7V | 00:00:00 | 00:00:00 | 00:00:00 | |
| DO3MHA-11 | 2026-09-01 17:46:15 | 49.72787 | 8.21053 | 99° | 42km/h | 18425m | 5.7m/s | -53.3°C | 4.2% | 74.7hPa | 2.7V | 00:00:00 | 01:16:32 | 00:00:00 | |
| BIOWL9-15 | 2026-09-01 17:46:14 | 49.72791 | 8.21018 | 99° | 44km/h | 18416m | 5.4m/s | -53.4°C | 1.5% | 74.8hPa | 2.6V | 00:00:00 | 00:00:00 | 00:00:00 | |
| SONCRA | 2026-09-01 17:46:11 | 49.72794 | 8.20985 | 96° | 42km/h | 18406m | 4.4m/s | 0°C | -1.0% | 74.9hPa | 2.6V | 00:00:00 | 00:00:00 | 00:00:00 | |
| DL1XH-west | 2026-09-01 17:46:11 | 49.72794 | 8.20985 | 97° | 42km/h | 18406m | 4.4m/s | -53.4°C | 1.2% | 74.9hPa | 2.6V | 04:02:39 | 01:16:28 | 00:00:00 | |
| DD1CC2-15 | 2026-09-01 17:46:09 | 49.72795 | 8.20969 | 99° | 42km/h | 18401m | 5.2m/s | -53.5°C | 1.6% | 75.0hPa | 2.6V | 04:02:00 | 00:00:00 | 00:00:00 | |
| DL1XH1-15 | 2026-09-01 17:46:08 | 49.72798 | 8.20922 | 88° | 38km/h | 18385m | 4.7m/s | -53.6°C | 4.4% | 75.2hPa | 2.6V | 04:01:54 | 01:16:24 | 00:00:00 | |
| BIOWL1-15 | 2026-09-01 17:46:06 | 49.72798 | 8.20907 | 89° | 38km/h | 18380m | 5m/s | -53.6°C | 1.3% | 75.2hPa | 2.6V | 04:02:39 | 01:16:23 | 00:00:00 | |
| DL1XH-west | 2026-09-01 17:46:01 | 49.72799 | 8.20841 | 98° | 31km/h | 18354m | 6.2m/s | -53.5°C | 1.3% | 75.5hPa | 2.7V | 04:02:39 | 01:16:18 | 00:00:00 | |
| DK5PH-5 | 2026-09-01 17:46:01 | 49.72799 | 8.20840 | 99° | 29km/h | 18354m | 6.2m/s | -53.4°C | 4.4% | 75.5hPa | 2.7V | 04:02:00 | 01:16:18 | 00:00:00 | |
| DL1XH1-15 | 2026-09-01 17:46:00 | 49.72805 | 8.20793 | 96° | 29km/h | 18334m | 3.5m/s | -53.4°C | 4.4% | 75.8hPa | 2.7V | 04:02:04 | 01:16:14 | 00:00:00 | |
| BIOWL1-15 | 2026-09-01 17:45:58 | 49.72806 | 8.20781 | 96° | 31km/h | 18329m | 5.2m/s | -53.4°C | 1.4% | 75.8hPa | 2.7V | 04:02:39 | 01:16:13 | 00:00:00 | |
| DL1XH-west | 2026-09-01 17:45:50 | 49.72804 | 8.20707 | 84° | 31km/h | 18299m | 4.3m/s | -53.2°C | 1.3% | 76.2hPa | 2.7V | 04:02:39 | 01:16:07 | 00:00:00 | |
| AU51GT2 | 2026-09-01 17:45:49 | 49.72803 | 8.20695 | 83° | 29km/h | 18294m | 4.7m/s | -53.1°C | 1.5% | 76.3hPa | 2.6V | 00:00:00 | 00:00:00 | 00:00:00 | |
| DL1XH1-15 | 2026-09-01 17:45:48 | 49.72801 | 8.20673 | 82° | 27km/h | 18284m | 3.9m/s | -53°C | 4.3% | 76.4hPa | 2.6V | 04:02:14 | 01:16:04 | 00:00:00 | |
| BIOWL1-15 | 2026-09-01 17:45:45 | 49.72800 | 8.20651 | 92° | 29km/h | 18274m | 4.9m/s | -52.9°C | 1.3% | 76.5hPa | 2.7V | 04:02:39 | 01:16:02 | 00:00:00 | |
| DL1XH-west | 2026-09-01 17:45:39 | 49.72802 | 8.20585 | 88° | 29km/h | 18243m | 5.9m/s | -52.7°C | 1.3% | 76.9hPa | 2.7V | 04:02:39 | 01:15:56 | 00:00:00 | |
| DL1XH1-15 | 2026-09-01 17:45:38 | 49.72800 | 8.20564 | 76° | 27km/h | 18233m | 3.4m/s | -52.6°C | 4.2% | 77hPa | 2.6V | 04:02:24 | 01:15:54 | 00:00:00 | |
| BIOWL1-15 | 2026-09-01 17:45:38 | 49.72796 | 8.20533 | 81° | 24km/h | 18219m | 5.4m/s | -52.6°C | 1.2% | 77.1hPa | 2.7V | 04:02:39 | 01:15:51 | 00:00:00 | |
| DF3TZ-5 | 2026-09-01 17:45:38 | 49.72800 | 8.20564 | 76° | 26km/h | 18233m | 3.4m/s | -52.6°C | 1.5% | 77.0hPa | 2.7V | 00:00:00 | 00:00:00 | 00:00:00 | |
| DD1CC8 | 2026-09-01 17:45:37 | 49.72800 | 8.20564 | 76° | 26km/h | 18233m | 3.4m/s | -52.6°C | 1.5% | 77.0hPa | 2.7V | 00:00:00 | 00:00:00 | 00:00:00 | |
| DL0LBS | 2026-09-01 17:45:36 | 49.72800 | 8.20564 | 78° | 27km/h | 18233m | 3.4m/s | -52.6°C | 1.5% | 77.0hPa | 2.7V | 04:02:00 | 00:00:00 | 00:00:00 | |
| DO3MHA-11 | 2026-09-01 17:45:35 | 49.72797 | 8.20543 | 82° | 24km/h | 18224m | 3.7m/s | -52.5°C | 4.2% | 77.0hPa | 2.7V | 00:00:00 | 01:15:52 | 00:00:00 | |
| HEMX73-11 | 2026-09-01 17:45:34 | 49.72796 | 8.20533 | 82° | 24km/h | 18219m | 5.4m/s | -52.6°C | 1.5% | 77.1hPa | 2.7V | 04:02:00 | 00:00:00 | 00:00:00 | |
| DF1GD-15 | 2026-09-01 17:45:33 | 49.72796 | 8.20533 | 82° | 24km/h | 18219m | 5.4m/s | -52.6°C | 1.6% | 77.1hPa | 2.7V | 04:02:00 | 00:00:00 | 00:00:00 | |
| DL1XH1-15 | 2026-09-01 17:45:32 | 49.72797 | 8.20469 | 87° | 26km/h | 18185m | 3.2m/s | -52.3°C | 4.1% | 77.6hPa | 2.7V | 04:02:34 | 01:15:44 | 00:00:00 | |
| DL1XH-west | 2026-09-01 17:45:28 | 49.72797 | 8.20479 | 90° | 26km/h | 18190m | 4.9m/s | -52.4°C | 1.2% | 77.5hPa | 2.7V | 04:02:39 | 01:15:45 | 00:00:00 | |
| BIOWL1-15 | 2026-09-01 17:45:24 | 49.72797 | 8.20436 | 90° | 27km/h | 18171m | 4.5m/s | -52.2°C | 1.2% | 77.8hPa | 2.6V | 04:02:39 | 01:15:41 | 00:00:00 | |
| DB0NH | 2026-09-01 17:45:23 | 49.72796 | 8.20426 | 88° | 22km/h | 18166m | 5.5m/s | -52.2°C | 4.1% | 77.8hPa | 2.7V | 00:00:00 | 01:15:40 | 00:00:00 | |
| DL8DAS-14 | 2026-09-01 17:45:22 | 49.72796 | 8.20407 | 87° | 24km/h | 18156m | 6.3m/s | -52.2°C | 1.5% | 78.0hPa | 2.7V | 00:00:00 | 00:00:00 | 00:00:00 | |
| DL1XH1-15 | 2026-09-01 17:45:21 | 49.72794 | 8.20374 | 85° | 16km/h | 18137m | 3.2m/s | -52.1°C | 4.2% | 78.2hPa | 2.7V | 04:02:44 | 01:15:34 | 00:00:00 | |
| DL1XH-west | 2026-09-01 17:45:18 | 49.72795 | 8.20381 | 85° | 18km/h | 18141m | 5.4m/s | -52.1°C | 1.1% | 78.1hPa | 2.6V | 04:03:30 | 01:15:35 | 00:00:00 | |
| BIOWL1-15 | 2026-09-01 17:45:13 | 49.72794 | 8.20343 | 86° | 22km/h | 18117m | 5.5m/s | -52.1°C | 1.2% | 78.4hPa | 2.6V | 04:03:30 | 01:15:30 | 00:00:00 | |
| DF1GD-15 | 2026-09-01 17:45:12 | 49.72794 | 8.20343 | 87° | 22km/h | 18117m | 5.5m/s | -52.1°C | 1.6% | 78.4hPa | 2.6V | 04:03:00 | 00:00:00 | 00:00:00 | |
| BIOWL9-15 | 2026-09-01 17:45:11 | 49.72793 | 8.20325 | 87° | 24km/h | 18108m | 5.5m/s | -52.0°C | 1.5% | 78.5hPa | 2.6V | 00:00:00 | 00:00:00 | 00:00:00 | |
| DL1XH1-15 | 2026-09-01 17:45:09 | 49.72794 | 8.20285 | 92° | 22km/h | 18087m | 3.3m/s | -51.8°C | 4.1% | 78.8hPa | 2.6V | 04:02:54 | 01:15:24 | 00:00:00 | |
| DL1XH-west | 2026-09-01 17:45:07 | 49.72794 | 8.20285 | 93° | 22km/h | 18087m | 3.3m/s | -51.8°C | 1.2% | 78.8hPa | 2.6V | 04:03:30 | 01:15:24 | 00:00:00 | |
| BIOWL1-15 | 2026-09-01 17:45:03 | 49.72799 | 8.20255 | 126° | 15km/h | 18066m | 7.7m/s | -51.7°C | 1.1% | 79hPa | 2.7V | 04:03:30 | 01:15:20 | 00:00:00 | |
| DL1XH-west | 2026-09-01 17:44:56 | 49.72818 | 8.20196 | 102° | 35km/h | 18019m | 7.4m/s | -51.1°C | 1% | 79.6hPa | 2.6V | 04:03:30 | 01:15:13 | 00:00:00 | |
| BIOWL1-15 | 2026-09-01 17:44:55 | 49.72824 | 8.20156 | 101° | 33km/h | 17997m | 7.7m/s | -51.2°C | 1% | 79.9hPa | 2.7V | 04:03:30 | 01:15:10 | 00:00:00 | |
| DO3MHA-11 | 2026-09-01 17:44:55 | 49.72820 | 8.20182 | 104° | 33km/h | 18011m | 8.3m/s | -51.0°C | 3.7% | 79.7hPa | 2.7V | 04:03:00 | 01:15:12 | 00:00:00 | |
| DO3DL | 2026-09-01 17:44:54 | 49.72820 | 8.20182 | 105° | 37km/h | 18011m | 8.3m/s | -51.1°C | 1.4% | 79.7hPa | 2.7V | 00:00:00 | 00:00:00 | 00:00:00 | |
| DB0NH | 2026-09-01 17:44:53 | 49.72824 | 8.20156 | 102° | 42km/h | 17997m | 7.6m/s | -51.2°C | 3.7% | 79.8hPa | 2.7V | 00:00:00 | 01:15:10 | 00:00:00 | |
| DL1XH1-15 | 2026-09-01 17:44:52 | 49.72834 | 8.20084 | 108° | 33km/h | 17957m | 6.3m/s | -51.6°C | 3.9% | 80.4hPa | 2.7V | 04:03:14 | 01:15:04 | 00:00:00 | |
| DL1XH-west | 2026-09-01 17:44:45 | 49.72838 | 8.20057 | 98° | 38km/h | 17945m | 5m/s | -51.7°C | 1.1% | 80.5hPa | 2.7V | 04:03:30 | 01:15:02 | 00:00:00 | |
| BIOWL1-15 | 2026-09-01 17:44:44 | 49.72843 | 8.20007 | 103° | 47km/h | 17927m | 4.2m/s | -51.7°C | 1% | 80.8hPa | 2.6V | 04:03:30 | 01:14:59 | 00:00:00 | |
| DL1XH1-15 | 2026-09-01 17:44:40 | 49.72857 | 8.19921 | 110° | 44km/h | 17901m | 4m/s | -51.9°C | 3.9% | 81.1hPa | 2.6V | 04:03:24 | 01:14:54 | 00:00:00 | |
| DL1XH-west | 2026-09-01 17:44:34 | 49.72868 | 8.19876 | 104° | 38km/h | 17886m | 4.2m/s | -52.1°C | 1.1% | 81.3hPa | 2.7V | 04:03:30 | 01:14:51 | 00:00:00 | |
| BIOWL1-15 | 2026-09-01 17:44:33 | 49.72874 | 8.19829 | 100° | 44km/h | 17872m | 4.5m/s | -52.1°C | 1.1% | 81.5hPa | 2.6V | 04:03:30 | 01:14:48 | 00:00:00 | |
| DL1XH-west | 2026-09-01 17:44:23 | 49.72880 | 8.19675 | 92° | 47km/h | 17831m | 4.7m/s | -52.4°C | 1.1% | 82hPa | 2.7V | 04:04:21 | 01:14:40 | 00:00:00 | |
| BIOWL1-15 | 2026-09-01 17:44:21 | 49.72883 | 8.19621 | 93° | 46km/h | 17816m | 4.4m/s | -52.4°C | 1.1% | 82.1hPa | 2.6V | 04:04:21 | 01:14:37 | 00:00:00 | |
| DL1XH-west | 2026-09-01 17:44:12 | 49.72875 | 8.19482 | 81° | 44km/h | 17776m | 4.7m/s | -52.3°C | 1.2% | 82.7hPa | 2.7V | 04:04:21 | 01:14:29 | 00:00:00 | |
| DF1GD-15 | 2026-09-01 17:44:11 | 49.72875 | 8.19482 | 82° | 44km/h | 17777m | 4.7m/s | -52.3°C | 1.5% | 82.7hPa | 2.7V | 04:04:00 | 00:00:00 | 00:00:00 | |
| DL1XH1-15 | 2026-09-01 17:44:10 | 49.72871 | 8.19390 | 89° | 51km/h | 17750m | 5.5m/s | -52.4°C | 4.1% | 83hPa | 2.7V | 04:03:54 | 01:14:24 | 00:00:00 | |
| BIOWL1-15 | 2026-09-01 17:44:09 | 49.72873 | 8.19429 | 87° | 47km/h | 17760m | 6.1m/s | -52.4°C | 1.2% | 82.9hPa | 2.6V | 04:04:21 | 01:14:26 | 00:00:00 | |
| DL1XH-west | 2026-09-01 17:44:02 | 49.72869 | 8.19288 | 85° | 53km/h | 17725m | 5.8m/s | -52.3°C | 1.2% | 83.4hPa | 2.6V | 04:04:21 | 01:14:19 | 00:00:00 | |
| DK5PH-5 | 2026-09-01 17:44:01 | 49.72867 | 8.19267 | 85° | 55km/h | 17720m | 5.2m/s | -52.2°C | 4.1% | 83.4hPa | 2.6V | 00:00:00 | 01:14:18 | 00:00:00 | |
| DL1XH1-15 | 2026-09-01 17:43:58 | 49.72859 | 8.19186 | 82° | 53km/h | 17697m | 6.1m/s | -52.2°C | 4.1% | 83.7hPa | 2.6V | 04:04:04 | 01:14:14 | 00:00:00 | |
| BIOWL1-15 | 2026-09-01 17:43:58 | 49.72861 | 8.19207 | 79° | 53km/h | 17703m | 5m/s | -52.2°C | 1.1% | 83.6hPa | 2.7V | 04:04:21 | 01:14:15 | 00:00:00 | |
| DB0UT-9 | 2026-09-01 17:43:56 | 49.72859 | 8.19186 | 83° | 53km/h | 17697m | 6.1m/s | -52.2°C | 1.5% | 83.7hPa | 2.7V | 04:04:00 | 00:00:00 | 00:00:00 | |
| DO3MHA-11 | 2026-09-01 17:43:55 | 49.72856 | 8.19144 | 84° | 53km/h | 17687m | 5.4m/s | -52.2°C | 4.1% | 83.8hPa | 2.7V | 00:00:00 | 01:14:12 | 00:00:00 | |
| DM7RM-13 | 2026-09-01 17:43:54 | 49.72855 | 8.19144 | 85° | 55km/h | 17687m | 5.4m/s | -52.2°C | 1.5% | 83.8hPa | 2.7V | 04:04:00 | 00:00:00 | 00:00:00 | |
| DL1XH1-15 | 2026-09-01 17:43:52 | 49.72842 | 8.18983 | 80° | 55km/h | 17646m | 4.9m/s | -52.4°C | 4.1% | 84.4hPa | 2.7V | 04:04:14 | 01:14:04 | 00:00:00 | |
| DL1XH-west | 2026-09-01 17:43:51 | 49.72849 | 8.19062 | 85° | 51km/h | 17666m | 5m/s | -52.5°C | 1.2% | 84.1hPa | 2.6V | 04:04:21 | 01:14:08 | 00:00:00 | |
| BIOWL1-15 | 2026-09-01 17:43:48 | 49.72845 | 8.19003 | 80° | 51km/h | 17651m | 5.5m/s | -52.4°C | 1.1% | 84.3hPa | 2.7V | 04:04:21 | 01:14:05 | 00:00:00 | |
| DJ2DS-15 | 2026-09-01 17:43:48 | 49.72845 | 8.19003 | 81° | 55km/h | 17651m | 5.4m/s | -52.4°C | 4.0% | 84.2hPa | 2.7V | 04:04:00 | 01:14:05 | 00:00:00 | |
| DJ3KS | 2026-09-01 17:43:46 | 49.72842 | 8.18983 | 81° | 55km/h | 17646m | 4.9m/s | 0°C | 0% | 0hPa | 2.6V | 00:00:00 | 00:00:00 | 00:00:00 | |
| DO3MHA-11 | 2026-09-01 17:43:45 | 49.72838 | 8.18940 | 81° | 62km/h | 17635m | 5.4m/s | -52.4°C | 4.1% | 84.5hPa | 2.6V | 00:00:00 | 01:14:02 | 00:00:00 | |
| DF7PN | 2026-09-01 17:43:44 | 49.72835 | 8.18917 | 79° | 60km/h | 17629m | 6.2m/s | -52.5°C | 1.5% | 84.6hPa | 2.7V | 00:00:00 | 00:00:00 | 00:00:00 | |
| DM3KS-11 | 2026-09-01 17:43:43 | 49.72832 | 8.18894 | 78° | 62km/h | 17624m | 4.4m/s | -52.5°C | 1.5% | 84.7hPa | 2.7V | 00:00:00 | 00:00:00 | 00:00:00 | |
| DO3DL | 2026-09-01 17:43:42 | 49.72832 | 8.18893 | 80° | 64km/h | 17624m | 4.4m/s | -52.5°C | 1.5% | 84.7hPa | 2.7V | 04:04:00 | 00:00:00 | 00:00:00 | |
| DL1XH1-15 | 2026-09-01 17:43:41 | 49.72820 | 8.18748 | 81° | 58km/h | 17593m | 4.5m/s | -52.2°C | 4.2% | 85.1hPa | 2.7V | 04:04:24 | 01:13:54 | 00:00:00 | |
| DL1XH-west | 2026-09-01 17:43:41 | 49.72827 | 8.18845 | 83° | 64km/h | 17613m | 5.3m/s | -52.4°C | 1.3% | 84.8hPa | 2.6V | 04:04:21 | 01:13:58 | 00:00:00 | |
| BIOWL1-15 | 2026-09-01 17:43:38 | 49.72822 | 8.18771 | 83° | 62km/h | 17598m | 5.2m/s | -52.3°C | 1.3% | 85hPa | 2.7V | 04:05:12 | 01:13:55 | 00:00:00 | |
| BIOWL9-15 | 2026-09-01 17:43:38 | 49.72820 | 8.18748 | 81° | 58km/h | 17594m | 4.5m/s | -52.2°C | 1.5% | 85.1hPa | 2.7V | 00:00:00 | 00:00:00 | 00:00:00 | |
| DL2OL | 2026-09-01 17:43:36 | 49.72820 | 8.18748 | 83° | 58km/h | 17594m | 4.5m/s | 0°C | 0% | 85.1hPa | 2.7V | 00:00:00 | 00:00:00 | 00:00:00 | |
| DO3MHA-11 | 2026-09-01 17:43:35 | 49.72833 | 8.18704 | 84° | 47km/h | 17583m | 5.1m/s | -52.1°C | 4.0% | 85.2hPa | 2.7V | 00:00:00 | 01:13:52 | 00:00:00 | |
| DM0DOS-11 | 2026-09-01 17:43:34 | 49.72803 | 8.18593 | 81° | 44km/h | 17550m | 4.7m/s | -52.3°C | 3.9% | 85.6hPa | 2.7V | 04:04:32 | 01:13:46 | 00:00:00 | |
| BIOWL1-15 | 2026-09-01 17:43:33 | 49.72800 | 8.18558 | 82° | 47km/h | 17539m | 4.7m/s | -52.4°C | 1.2% | 85.8hPa | 2.6V | 04:05:12 | 01:13:44 | 00:00:00 | |
| DL1XH-west | 2026-09-01 17:43:31 | 49.72807 | 8.18628 | 77° | 47km/h | 17562m | 5.2m/s | -52.2°C | 1.1% | 85.5hPa | 2.7V | 04:05:12 | 01:13:48 | 00:00:00 | |
| DK5PH-5 | 2026-09-01 17:43:31 | 49.72807 | 8.18628 | 77° | 47km/h | 17562m | 5.2m/s | -52.2°C | 3.9% | 85.4hPa | 2.6V | 04:04:00 | 01:13:48 | 00:00:00 | |
| HEMX73-11 | 2026-09-01 17:43:30 | 49.72807 | 8.18628 | 78° | 47km/h | 17562m | 5.2m/s | -52.2°C | 1.4% | 85.5hPa | 2.6V | 04:05:00 | 00:00:00 | 00:00:00 | |
| DL1XH1-15 | 2026-09-01 17:43:29 | 49.72800 | 8.18558 | 82° | 47km/h | 17539m | 4.7m/s | -52.4°C | 4.1% | 85.8hPa | 2.6V | 04:04:34 | 01:13:44 | 00:00:00 | |
| DJ2DS-15 | 2026-09-01 17:43:28 | 49.72801 | 8.18576 | 81° | 46km/h | 17545m | 6.4m/s | -52.3°C | 4.0% | 85.7hPa | 2.7V | 00:00:00 | 01:13:45 | 00:00:00 | |
| DJ2DS-15 | 2026-09-01 17:43:27 | 49.72798 | 8.18540 | 85° | 46km/h | 17535m | 5.6m/s | -52.5°C | 1.5% | 85.8hPa | 2.7V | 00:00:00 | 00:00:00 | 00:00:00 | |
| DO3MHA-11 | 2026-09-01 17:43:25 | 49.72797 | 8.18522 | 89° | 46km/h | 17529m | 5.8m/s | -52.4°C | 4.1% | 85.9hPa | 2.7V | 00:00:00 | 01:13:42 | 00:00:00 | |
| DM0DOS-11 | 2026-09-01 17:43:24 | 49.72794 | 8.18408 | 85° | 46km/h | 17495m | 6.7m/s | -52.5°C | 4.1% | 86.3hPa | 2.7V | 04:04:42 | 01:13:36 | 00:00:00 | |
| DL1XH-west | 2026-09-01 17:43:21 | 49.72795 | 8.18445 | 88° | 49km/h | 17506m | 6.8m/s | -52.5°C | 1.1% | 86.2hPa | 2.6V | 04:05:12 | 01:13:38 | 00:00:00 | |
| DO1YAY-16 | 2026-09-01 17:43:20 | 49.72795 | 8.18426 | 88° | 46km/h | 17501m | 5.2m/s | -52.5°C | 1.5% | 86.3hPa | 2.6V | 00:00:00 | 00:00:00 | 00:00:00 | |
| DL1XH1-15 | 2026-09-01 17:43:17 | 49.72792 | 8.18375 | 84° | 40km/h | 17483m | 6.4m/s | -52.7°C | 4.1% | 86.5hPa | 2.6V | 04:04:44 | 01:13:34 | 00:00:00 | |
| BIOWL1-15 | 2026-09-01 17:43:16 | 49.72791 | 8.18360 | 85° | 38km/h | 17478m | 4.7m/s | -52.8°C | 1.2% | 86.6hPa | 2.6V | 04:05:12 | 01:13:33 | 00:00:00 | |
| DL1XH-west | 2026-09-01 17:43:11 | 49.72783 | 8.18281 | 82° | 47km/h | 17452m | 4.6m/s | -52.7°C | 1.2% | 86.9hPa | 2.6V | 04:05:12 | 01:13:28 | 00:00:00 | |
| BIOWL1-15 | 2026-09-01 17:43:07 | 49.72770 | 8.18164 | 80° | 51km/h | 17419m | 6m/s | -52.6°C | 1.2% | 87.4hPa | 2.6V | 04:05:12 | 01:13:22 | 00:00:00 | |
| DL8DAS-15 | 2026-09-01 17:43:06 | 49.72774 | 8.18204 | 83° | 51km/h | 17431m | 6.2m/s | -52.6°C | 1.6% | 87.2hPa | 2.7V | 00:00:00 | 00:00:00 | 00:00:00 | |
| DL1XH1-15 | 2026-09-01 17:43:05 | 49.72759 | 8.18073 | 78° | 46km/h | 17392m | 4.9m/s | -52.8°C | 4.2% | 87.8hPa | 2.7V | 04:05:01 | 01:13:17 | 00:00:00 | |
| DL1XH-west | 2026-09-01 17:43:00 | 49.72759 | 8.18073 | 78° | 46km/h | 17392m | 4.9m/s | -52.8°C | 1.3% | 87.8hPa | 2.7V | 04:05:12 | 01:13:17 | 00:00:00 | |
| BIOWL1-15 | 2026-09-01 17:42:56 | 49.72755 | 8.17961 | 93° | 51km/h | 17360m | 6.5m/s | -53.1°C | 1.3% | 88.2hPa | 2.6V | 04:05:12 | 01:13:11 | 00:00:00 | |
| DO3MHA-11 | 2026-09-01 17:42:55 | 49.72754 | 8.17981 | 90° | 49km/h | 17365m | 4.9m/s | -53.0°C | 4.1% | 88.1hPa | 2.7V | 00:00:00 | 01:13:12 | 00:00:00 | |
| DL1XH1-15 | 2026-09-01 17:42:53 | 49.72756 | 8.17885 | 88° | 47km/h | 17338m | 5.9m/s | -53.2°C | 4.1% | 88.5hPa | 2.7V | 04:05:11 | 01:13:07 | 00:00:00 | |
| DL1XH-west | 2026-09-01 17:42:50 | 49.72756 | 8.17885 | 88° | 47km/h | 17338m | 5.9m/s | -53.2°C | 1.2% | 88.5hPa | 2.7V | 04:05:12 | 01:13:07 | 00:00:00 | |
| DO1YAY-16 | 2026-09-01 17:42:49 | 49.72755 | 8.17848 | 84° | 47km/h | 17328m | 3.9m/s | -53.2°C | 1.5% | 88.6hPa | 2.6V | 00:00:00 | 00:00:00 | 00:00:00 | |
| DL8DAS-14 | 2026-09-01 17:42:47 | 49.72751 | 8.17811 | 77° | 46km/h | 17318m | 5.9m/s | -53.3°C | 1.6% | 88.8hPa | 2.6V | 00:00:00 | 00:00:00 | 00:00:00 | |
| BIOWL1-15 | 2026-09-01 17:42:43 | 49.72743 | 8.17758 | 81° | 47km/h | 17302m | 4.7m/s | -53.4°C | 1.3% | 89hPa | 2.6V | 04:06:03 | 01:13:00 | 00:00:00 | |
| AU51GT2 | 2026-09-01 17:42:43 | 49.72743 | 8.17758 | 80° | 46km/h | 17303m | 4.7m/s | -53.4°C | 1.6% | 89.0hPa | 2.7V | 00:00:00 | 00:00:00 | 00:00:00 | |
| DL1XH1-15 | 2026-09-01 17:42:40 | 49.72737 | 8.17705 | 80° | 46km/h | 17286m | 5.9m/s | -53.4°C | 4.3% | 89.2hPa | 2.7V | 04:05:21 | 01:12:57 | 00:00:00 | |
| DL1XH-west | 2026-09-01 17:42:39 | 49.72736 | 8.17687 | 83° | 47km/h | 17281m | 5.6m/s | -53.4°C | 1.3% | 89.3hPa | 2.7V | 04:06:03 | 01:12:56 | 00:00:00 | |
| CB1BUN | 2026-09-01 17:42:37 | 49.72733 | 8.17650 | 84° | 47km/h | 17271m | 5.6m/s | -53.6°C | 1.6% | 89.4hPa | 2.6V | 04:06:00 | 00:00:00 | 00:00:00 | |
| BIOWL9-15 | 2026-09-01 17:42:36 | 49.72731 | 8.17614 | 87° | 46km/h | 17262m | 4.6m/s | -53.7°C | 1.6% | 89.5hPa | 2.6V | 00:00:00 | 00:00:00 | 00:00:00 | |
| DL1XH1-15 | 2026-09-01 17:42:35 | 49.72733 | 8.17521 | 95° | 49km/h | 17236m | 5.8m/s | -53.9°C | 4.2% | 89.9hPa | 2.6V | 04:05:31 | 01:12:47 | 00:00:00 | |
| BIOWL1-15 | 2026-09-01 17:42:32 | 49.72732 | 8.17558 | 93° | 47km/h | 17246m | 5.9m/s | -53.9°C | 1.3% | 89.8hPa | 2.6V | 04:06:03 | 01:12:49 | 00:00:00 | |
| DL1XH-west | 2026-09-01 17:42:29 | 49.72735 | 8.17502 | 97° | 51km/h | 17230m | 5.2m/s | -54°C | 1.4% | 90hPa | 2.7V | 04:06:03 | 01:12:46 | 00:00:00 | |
| BIOWL1-15 | 2026-09-01 17:42:24 | 49.72736 | 8.17359 | 87° | 53km/h | 17193m | 5.3m/s | -54.2°C | 1.4% | 90.5hPa | 2.7V | 04:06:03 | 01:12:39 | 00:00:00 | |
| SSTOLZ84 | 2026-09-01 17:42:24 | 49.72737 | 8.17379 | 88° | 53km/h | 17199m | 6.3m/s | -54.2°C | 1.7% | 90.4hPa | 2.6V | 00:00:00 | 00:00:00 | 00:00:00 | |
| DL1XH1-15 | 2026-09-01 17:42:23 | 49.72735 | 8.17318 | 88° | 51km/h | 17182m | 4.8m/s | -54.2°C | 4.4% | 90.6hPa | 2.6V | 04:05:41 | 01:12:37 | 00:00:00 | |
| DB0ND-19 | 2026-09-01 17:42:22 | 49.72736 | 8.17359 | 86° | 51km/h | 17193m | 5.3m/s | -54.2°C | 1.7% | 90.5hPa | 2.6V | 00:00:00 | 00:00:00 | 00:00:00 | |
| DM0DOS-11 | 2026-09-01 17:42:19 | 49.72732 | 8.17209 | 88° | 46km/h | 17151m | 5.7m/s | -54.4°C | 4.5% | 91hPa | 2.6V | 04:05:47 | 01:12:31 | 00:00:00 | |
| DL1XH-west | 2026-09-01 17:42:19 | 49.72735 | 8.17299 | 87° | 49km/h | 17178m | 4.7m/s | -54.2°C | 1.5% | 90.7hPa | 2.6V | 04:06:03 | 01:12:36 | 00:00:00 | |
| BIOWL1-15 | 2026-09-01 17:42:15 | 49.72730 | 8.17152 | 89° | 51km/h | 17136m | 5.4m/s | -54.3°C | 1.4% | 91.3hPa | 2.7V | 04:06:03 | 01:12:28 | 00:00:00 | |
| DJ2DS-15 | 2026-09-01 17:42:15 | 49.72732 | 8.17209 | 88° | 46km/h | 17152m | 5.7m/s | -54.4°C | 1.7% | 91.0hPa | 2.6V | 00:00:00 | 00:00:00 | 00:00:00 | |
| DL1XH1-15 | 2026-09-01 17:42:13 | 49.72729 | 8.17132 | 89° | 55km/h | 17131m | 4.3m/s | -54.3°C | 4.4% | 91.4hPa | 2.6V | 04:05:51 | 01:12:27 | 00:00:00 | |
| AU51GT2 | 2026-09-01 17:42:12 | 49.72730 | 8.17172 | 86° | 49km/h | 17141m | 5.1m/s | -54.3°C | 1.7% | 91.2hPa | 2.6V | 00:00:00 | 00:00:00 | 00:00:00 | |
| DF7PN | 2026-09-01 17:42:11 | 49.72730 | 8.17152 | 88° | 51km/h | 17136m | 5.4m/s | -54.3°C | 1.6% | 91.3hPa | 2.6V | 00:00:00 | 00:00:00 | 00:00:00 | |
| DM3KS-11 | 2026-09-01 17:42:10 | 49.72730 | 8.17132 | 89° | 53km/h | 17131m | 4.3m/s | -54.3°C | 1.6% | 91.4hPa | 2.6V | 00:00:00 | 00:00:00 | 00:00:00 | |
| DM0DOS-11 | 2026-09-01 17:42:09 | 49.72724 | 8.17005 | 87° | 53km/h | 17101m | 4.8m/s | -54.2°C | 4.4% | 91.8hPa | 2.6V | 04:05:57 | 01:12:21 | 00:00:00 | |
| DL1XH-west | 2026-09-01 17:42:08 | 49.72728 | 8.17090 | 85° | 53km/h | 17121m | 4.8m/s | -54.3°C | 1.4% | 91.5hPa | 2.6V | 04:06:03 | 01:12:25 | 00:00:00 | |
| DJ2DS-15 | 2026-09-01 17:42:08 | 49.72728 | 8.17090 | 85° | 53km/h | 17121m | 4.8m/s | -54.2°C | 4.4% | 91.5hPa | 2.7V | 04:05:00 | 01:12:25 | 00:00:00 | |
| DO3MHA-11 | 2026-09-01 17:42:05 | 49.72724 | 8.17027 | 87° | 51km/h | 17106m | 4.3m/s | -54.1°C | 4.4% | 91.7hPa | 2.7V | 00:00:00 | 01:12:22 | 00:00:00 | |
| DL8DAS-15 | 2026-09-01 17:42:04 | 49.72725 | 8.17027 | 88° | 55km/h | 17106m | 4.4m/s | -54.2°C | 1.7% | 91.8hPa | 2.7V | 04:06:00 | 00:00:00 | 00:00:00 | |
| DN1GJH-1 | 2026-09-01 17:42:03 | 49.72724 | 8.17005 | 88° | 53km/h | 17102m | 4.8m/s | -54.2°C | 1.7% | 91.8hPa | 2.7V | 04:06:00 | 00:00:00 | 00:00:00 | |
| DL1XH1-15 | 2026-09-01 17:42:02 | 49.72719 | 8.16924 | 84° | 53km/h | 17081m | 5.1m/s | -54.2°C | 0% | 92.1hPa | 2.7V | 04:06:01 | 01:12:17 | 00:00:00 | |
| BIOWL1-15 | 2026-09-01 17:42:01 | 49.72720 | 8.16945 | 85° | 53km/h | 17087m | 6m/s | -54.2°C | 1.4% | 92hPa | 2.7V | 04:06:03 | 01:12:18 | 00:00:00 | |
| DL1XH-west | 2026-09-01 17:41:57 | 49.72715 | 8.16865 | 86° | 49km/h | 17066m | 4.1m/s | -54.5°C | 1.5% | 92.3hPa | 2.6V | 04:07:45 | 01:12:14 | 00:00:00 | |
| BIOWL1-15 | 2026-09-01 17:41:50 | 49.72719 | 8.16726 | 98° | 53km/h | 17032m | 4.8m/s | -54.6°C | 1.5% | 92.8hPa | 2.7V | 04:06:54 | 01:12:07 | 00:00:00 | |
| DK5PH-5 | 2026-09-01 17:41:49 | 49.72721 | 8.16706 | 98° | 57km/h | 17027m | 4.8m/s | -54.6°C | 4.5% | 92.8hPa | 2.6V | 00:00:00 | 01:12:06 | 00:00:00 | |
| DJ2DS-15 | 2026-09-01 17:41:48 | 49.72723 | 8.16685 | 97° | 57km/h | 17022m | 4.8m/s | -54.6°C | 4.5% | 92.9hPa | 2.6V | 00:00:00 | 01:12:05 | 00:00:00 | |
| DM0DOS-11 | 2026-09-01 17:41:47 | 49.72729 | 8.16554 | 90° | 60km/h | 16993m | 4.7m/s | -54.5°C | 4.5% | 93.3hPa | 2.6V | 04:06:19 | 01:11:59 | 00:00:00 | |
| DO1YAY-16 | 2026-09-01 17:41:47 | 49.72725 | 8.16644 | 95° | 55km/h | 17013m | 5.6m/s | -54.6°C | 1.7% | 93.1hPa | 2.6V | 00:00:00 | 00:00:00 | 00:00:00 | |
| DL1XH-west | 2026-09-01 17:41:47 | 49.72725 | 8.16644 | 95° | 55km/h | 17013m | 5.6m/s | -54.6°C | 1.5% | 93.1hPa | 2.6V | 04:07:45 | 01:12:03 | 00:00:00 | |
| DL8DAS-14 | 2026-09-01 17:41:45 | 49.72728 | 8.16600 | 93° | 57km/h | 17003m | 5.9m/s | -54.5°C | 1.7% | 93.2hPa | 2.6V | 00:00:00 | 00:00:00 | 00:00:00 | |
| DL1XH1-15 | 2026-09-01 17:41:44 | 49.72728 | 8.16505 | 86° | 64km/h | 16983m | 4.1m/s | -54.4°C | 0% | 0hPa | 2.6V | 00:00:00 | 01:11:57 | 00:00:00 | |
| BIOWL1-15 | 2026-09-01 17:41:40 | 49.72728 | 8.16505 | 87° | 66km/h | 16983m | 4.1m/s | -54.4°C | 1.5% | 93.5hPa | 2.6V | 04:06:54 | 01:11:57 | 00:00:00 | |
| DF7PN | 2026-09-01 17:41:40 | 49.72728 | 8.16505 | 86° | 64km/h | 16983m | 4.1m/s | -54.4°C | 1.7% | 93.5hPa | 2.7V | 00:00:00 | 00:00:00 | 00:00:00 | |
| DM3KS-11 | 2026-09-01 17:41:39 | 49.72727 | 8.16481 | 85° | 62km/h | 16977m | 6.2m/s | -54.4°C | 1.8% | 93.6hPa | 2.7V | 00:00:00 | 00:00:00 | 00:00:00 | |
| DJ2DS-15 | 2026-09-01 17:41:38 | 49.72725 | 8.16457 | 83° | 60km/h | 16972m | 4.8m/s | -54.4°C | 1.8% | 93.7hPa | 2.7V | 00:00:00 | 00:00:00 | 00:00:00 | |
| DM0DOS-11 | 2026-09-01 17:41:37 | 49.72713 | 8.16324 | 81° | 51km/h | 16942m | 3.3m/s | -54.2°C | 4.4% | 94.1hPa | 2.7V | 04:06:29 | 01:11:49 | 00:00:00 | |
| DL1XH-west | 2026-09-01 17:41:35 | 49.72720 | 8.16387 | 82° | 58km/h | 16957m | 4.7m/s | -54.3°C | 1.5% | 93.9hPa | 2.6V | 04:07:45 | 01:11:52 | 00:00:00 | |
| DO3MHA-11 | 2026-09-01 17:41:35 | 49.72719 | 8.16387 | 83° | 55km/h | 16958m | 4.7m/s | -54.3°C | 4.5% | 93.8hPa | 2.6V | 04:06:00 | 01:11:52 | 00:00:00 | |
| BIOWL9-15 | 2026-09-01 17:41:34 | 49.72715 | 8.16344 | 81° | 51km/h | 16947m | 4.8m/s | -54.3°C | 1.7% | 94.0hPa | 2.6V | 00:00:00 | 00:00:00 | 00:00:00 | |
| DL8DAS-15 | 2026-09-01 17:41:32 | 49.72715 | 8.16344 | 82° | 53km/h | 16947m | 4.8m/s | -54.3°C | 1.7% | 94.0hPa | 2.6V | 00:00:00 | 00:00:00 | 00:00:00 | |
| DL1XH1-15 | 2026-09-01 17:41:31 | 49.72710 | 8.16283 | 84° | 55km/h | 16932m | 4.9m/s | -54.3°C | 0% | 0hPa | 2.6V | 00:00:00 | 01:11:47 | 00:00:00 | |
| BIOWL1-15 | 2026-09-01 17:41:30 | 49.72710 | 8.16283 | 84° | 55km/h | 16932m | 4.9m/s | -54.3°C | 1.4% | 94.2hPa | 2.6V | 04:06:54 | 01:11:47 | 00:00:00 | |
| DD1CC8 | 2026-09-01 17:41:29 | 49.72707 | 8.16240 | 84° | 55km/h | 16923m | 5.9m/s | -54.4°C | 1.7% | 94.4hPa | 2.7V | 00:00:00 | 00:00:00 | 00:00:00 | |
| DJ2DS-15 | 2026-09-01 17:41:28 | 49.72707 | 8.16240 | 85° | 57km/h | 16923m | 5.8m/s | -54.3°C | 4.4% | 94.4hPa | 2.7V | 00:00:00 | 01:11:45 | 00:00:00 | |
| DM0DOS-11 | 2026-09-01 17:41:27 | 49.72693 | 8.16115 | 74° | 55km/h | 16890m | 5m/s | -54.5°C | 4.6% | 94.9hPa | 2.7V | 04:06:39 | 01:11:39 | 00:00:00 | |
| DL0LBS | 2026-09-01 17:41:26 | 49.72705 | 8.16219 | 83° | 55km/h | 16917m | 5.8m/s | -54.4°C | 1.7% | 94.5hPa | 2.6V | 04:06:00 | 00:00:00 | 00:00:00 | |
| DL1XH1-15 | 2026-09-01 17:41:25 | 49.72685 | 8.16074 | 74° | 55km/h | 16880m | 6.8m/s | -54.5°C | 0% | 0hPa | 2.6V | 00:00:00 | 01:11:37 | 00:00:00 | |
| DL1XH-west | 2026-09-01 17:41:24 | 49.72699 | 8.16156 | 81° | 55km/h | 16901m | 4.6m/s | -54.5°C | 1.5% | 94.7hPa | 2.6V | 04:07:45 | 01:11:41 | 00:00:00 | |
| BIOWL1-15 | 2026-09-01 17:41:19 | 49.72682 | 8.16052 | 75° | 57km/h | 16875m | 4.3m/s | -54.5°C | 1.5% | 95.1hPa | 2.6V | 04:06:54 | 01:11:36 | 00:00:00 | |
| DK5PH-5 | 2026-09-01 17:41:19 | 49.72682 | 8.16052 | 75° | 58km/h | 16875m | 4.3m/s | -54.5°C | 4.6% | 95.0hPa | 2.6V | 00:00:00 | 01:11:36 | 00:00:00 | |
| DM0DOS-11 | 2026-09-01 17:41:17 | 49.72652 | 8.15904 | 67° | 58km/h | 16838m | 4.9m/s | -54.5°C | 4.7% | 95.6hPa | 2.7V | 04:06:49 | 01:11:29 | 00:00:00 | |
| DL1XH-west | 2026-09-01 17:41:13 | 49.72657 | 8.15925 | 70° | 58km/h | 16844m | 6m/s | -54.6°C | 1.6% | 95.5hPa | 2.6V | 04:07:45 | 01:11:30 | 00:00:00 | |
| DL1XH1-15 | 2026-09-01 17:41:12 | 49.72640 | 8.15862 | 67° | 60km/h | 16828m | 5.5m/s | 0°C | 0% | 0hPa | 2.7V | 00:00:00 | 01:11:27 | 00:00:00 | |
| BIOWL1-15 | 2026-09-01 17:41:10 | 49.72628 | 8.15819 | 64° | 60km/h | 16819m | 6.1m/s | -54.4°C | 1.6% | 95.9hPa | 2.6V | 04:06:54 | 01:11:25 | 00:00:00 | |
| DL1XH-west | 2026-09-01 17:41:02 | 49.72586 | 8.15693 | 61° | 57km/h | 16787m | 4.1m/s | -54.2°C | 1.5% | 96.4hPa | 2.6V | 04:07:45 | 01:11:19 | 00:00:00 | |
| BIOWL1-15 | 2026-09-01 17:40:58 | 49.72559 | 8.15620 | 57° | 55km/h | 16766m | 3.3m/s | -54.1°C | 1.5% | 96.7hPa | 2.6V | 04:07:45 | 01:11:15 | 00:00:00 | |
| BIOWL1-15 | 2026-09-01 17:40:51 | 49.72479 | 8.15408 | 60° | 55km/h | 16712m | 6.2m/s | -53.7°C | 1.5% | 97.6hPa | 2.6V | 04:07:45 | 01:11:04 | 00:00:00 | |
| DL1XH-west | 2026-09-01 17:40:51 | 49.72507 | 8.15484 | 63° | 58km/h | 16731m | 4.1m/s | -53.8°C | 1.5% | 97.3hPa | 2.6V | 04:07:45 | 01:11:08 | 00:00:00 | |
| DL8DAS-15 | 2026-09-01 17:40:50 | 49.72507 | 8.15484 | 64° | 58km/h | 16731m | 4.1m/s | -53.8°C | 1.8% | 97.3hPa | 2.7V | 00:00:00 | 00:00:00 | 00:00:00 | |
| DM0DOS-11 | 2026-09-01 17:40:49 | 49.72459 | 8.15356 | 59° | 51km/h | 16696m | 4.1m/s | -53.6°C | 4.5% | 97.8hPa | 2.7V | 04:07:17 | 01:11:01 | 00:00:00 | |
| DB0ND-19 | 2026-09-01 17:40:49 | 49.72486 | 8.15427 | 58° | 55km/h | 16717m | 4.8m/s | -53.7°C | 1.8% | 97.5hPa | 2.6V | 00:00:00 | 00:00:00 | 00:00:00 | |
| DL9PN | 2026-09-01 17:40:45 | 49.72465 | 8.15373 | 58° | 51km/h | 16701m | 6.0m/s | -53.7°C | 1.7% | 97.7hPa | 2.6V | 00:00:00 | 00:00:00 | 00:00:00 | |
| DL1XH-west | 2026-09-01 17:40:40 | 49.72436 | 8.15285 | 64° | 49km/h | 16675m | 5.5m/s | -53.5°C | 1.5% | 98.1hPa | 2.6V | 04:07:45 | 01:10:57 | 00:00:00 | |
| BIOWL1-15 | 2026-09-01 17:40:36 | 49.72414 | 8.15213 | 63° | 51km/h | 16655m | 5.6m/s | -53.3°C | 1.4% | 98.4hPa | 2.6V | 04:07:45 | 01:10:53 | 00:00:00 | |
| DL1XH1-15 | 2026-09-01 17:40:35 | 49.72408 | 8.15195 | 60° | 51km/h | 16649m | 5m/s | 0°C | 0% | 0hPa | 2.6V | 00:00:00 | 01:10:52 | 00:00:00 | |
| DO3MHA-11 | 2026-09-01 17:40:35 | 49.72408 | 8.15195 | 61° | 49km/h | 16649m | 4.9m/s | -53.3°C | 4.3% | 98.4hPa | 2.6V | 00:00:00 | 01:10:52 | 00:00:00 | |
| DL1CLM-18 | 2026-09-01 17:40:34 | 49.72408 | 8.15195 | 62° | 51km/h | 16649m | 5.0m/s | 0°C | 0% | 0hPa | 2.6V | 00:00:00 | 00:00:00 | 00:00:00 | |
| BIOWL9-15 | 2026-09-01 17:40:32 | 49.72383 | 8.15125 | 60° | 49km/h | 16630m | 5.4m/s | -53.2°C | 1.6% | 98.8hPa | 2.6V | 00:00:00 | 00:00:00 | 00:00:00 | |
| DL1XH1-15 | 2026-09-01 17:40:30 | 49.72351 | 8.15024 | 66° | 44km/h | 16600m | 4.3m/s | 0°C | 0% | 0hPa | 2.6V | 00:00:00 | 01:10:42 | 00:00:00 | |
| DL1XH-west | 2026-09-01 17:40:30 | 49.72377 | 8.15108 | 60° | 49km/h | 16625m | 4.8m/s | -53.1°C | 1.4% | 98.9hPa | 2.6V | 04:07:45 | 01:10:47 | 00:00:00 | |
| BIOWL1-15 | 2026-09-01 17:40:25 | 49.72351 | 8.15024 | 67° | 44km/h | 16600m | 4.3m/s | -53°C | 1.4% | 99.2hPa | 2.6V | 04:07:45 | 01:10:42 | 00:00:00 | |
| DL1XH-west | 2026-09-01 17:40:19 | 49.72324 | 8.14930 | 62° | 44km/h | 16570m | 5.8m/s | -53.2°C | 1.4% | 99.7hPa | 2.6V | 04:07:45 | 01:10:36 | 00:00:00 | |
| DK5PH-5 | 2026-09-01 17:40:19 | 49.72324 | 8.14930 | 63° | 44km/h | 16570m | 5.8m/s | -53.2°C | 4.3% | 99.7hPa | 2.6V | 00:00:00 | 01:10:36 | 00:00:00 | |
| DD1CC2-15 | 2026-09-01 17:40:18 | 49.72324 | 8.14930 | 63° | 44km/h | 16570m | 5.8m/s | -53.2°C | 1.7% | 99.7hPa | 2.6V | 04:07:00 | 00:00:00 | 00:00:00 | |
| DH7VM-15 | 2026-09-01 17:40:17 | 49.72319 | 8.14915 | 61° | 47km/h | 16565m | 4.0m/s | -53.3°C | 1.7% | 99.8hPa | 2.6V | 00:00:00 | 00:00:00 | 00:00:00 | |
| DO3MHA-11 | 2026-09-01 17:40:15 | 49.72300 | 8.14869 | 57° | 42km/h | 16550m | 4.7m/s | -53.2°C | 4.4% | 100.0hPa | 2.6V | 00:00:00 | 01:10:32 | 00:00:00 | |
| BIOWL1-15 | 2026-09-01 17:40:15 | 49.72300 | 8.14869 | 57° | 46km/h | 16550m | 4.8m/s | -53.2°C | 1.5% | 100hPa | 2.6V | 04:08:36 | 01:10:32 | 00:00:00 | |
| DL9PN | 2026-09-01 17:40:14 | 49.72294 | 8.14854 | 61° | 46km/h | 16545m | 4.9m/s | -53.2°C | 1.7% | 100.1hPa | 2.7V | 00:00:00 | 00:00:00 | 00:00:00 | |
| DL1XH1-15 | 2026-09-01 17:40:12 | 49.72281 | 8.14808 | 71° | 40km/h | 16531m | 4.6m/s | 0°C | 0% | 0hPa | 2.7V | 00:00:00 | 01:10:28 | 00:00:00 | |
| DL1XH-west | 2026-09-01 17:40:09 | 49.72277 | 8.14778 | 79° | 40km/h | 16521m | 5.1m/s | -53.2°C | 1.5% | 100.5hPa | 2.6V | 04:08:36 | 01:10:26 | 00:00:00 | |
| BIOWL1-15 | 2026-09-01 17:40:06 | 49.72266 | 8.14704 | 74° | 42km/h | 16497m | 4.7m/s | -53.2°C | 1.5% | 100.9hPa | 2.7V | 04:08:36 | 01:10:21 | 00:00:00 | |
| DL1XH-west | 2026-09-01 17:39:58 | 49.72240 | 8.14603 | 69° | 51km/h | 16469m | 5.1m/s | -53.2°C | 1.5% | 101.3hPa | 2.6V | 04:08:36 | 01:10:15 | 00:00:00 | |
| BIOWL1-15 | 2026-09-01 17:39:56 | 49.72226 | 8.14533 | 79° | 46km/h | 16450m | 4.2m/s | -53.1°C | 1.4% | 101.6hPa | 2.6V | 04:08:36 | 01:10:11 | 00:00:00 | |
| DD1CC8 | 2026-09-01 17:39:56 | 49.72229 | 8.14551 | 75° | 46km/h | 16455m | 6.0m/s | -53.2°C | 1.7% | 101.5hPa | 2.7V | 00:00:00 | 00:00:00 | 00:00:00 | |
| DO3MHA-11 | 2026-09-01 17:39:55 | 49.72229 | 8.14551 | 76° | 40km/h | 16455m | 6.0m/s | -53.1°C | 4.3% | 101.5hPa | 2.7V | 04:08:00 | 01:10:12 | 00:00:00 | |
| DM0DOS-11 | 2026-09-01 17:39:54 | 49.72217 | 8.14458 | 79° | 38km/h | 16425m | 4.4m/s | -53°C | 4.3% | 102hPa | 2.7V | 04:08:12 | 01:10:06 | 00:00:00 | |
| DL1XH-west | 2026-09-01 17:39:47 | 49.72213 | 8.14429 | 75° | 38km/h | 16415m | 5.1m/s | -53°C | 1.4% | 102.1hPa | 2.6V | 04:08:36 | 01:10:04 | 00:00:00 | |
| DB0ND-19 | 2026-09-01 17:39:47 | 49.72210 | 8.14414 | 74° | 38km/h | 16411m | 4.2m/s | -52.9°C | 1.7% | 102.2hPa | 2.6V | 00:00:00 | 00:00:00 | 00:00:00 | |
| BIOWL1-15 | 2026-09-01 17:39:44 | 49.72201 | 8.14350 | 77° | 42km/h | 16390m | 4m/s | -52.8°C | 1.4% | 102.6hPa | 2.6V | 04:08:36 | 01:09:59 | 00:00:00 | |
| DL1XH-west | 2026-09-01 17:39:35 | 49.72186 | 8.14232 | 80° | 42km/h | 16356m | 4.2m/s | -53°C | 1.5% | 103.1hPa | 2.6V | 04:08:36 | 01:09:52 | 00:00:00 | |
| DO3MHA-11 | 2026-09-01 17:39:35 | 49.72186 | 8.14232 | 81° | 46km/h | 16357m | 4.2m/s | -52.9°C | 4.4% | 103.0hPa | 2.6V | 00:00:00 | 01:09:52 | 00:00:00 | |
| SFWM-10 | 2026-09-01 17:39:34 | 49.72184 | 8.14216 | 79° | 42km/h | 16352m | 5.6m/s | -53.0°C | 0% | 103.2hPa | 2.6V | 00:00:00 | 00:00:00 | 00:00:00 | |
| DJ3KS | 2026-09-01 17:39:33 | 49.72184 | 8.14216 | 79° | 42km/h | 16352m | 5.6m/s | 0°C | 0% | 0hPa | 2.6V | 00:00:00 | 00:00:00 | 00:00:00 | |
| DM0DOS-11 | 2026-09-01 17:39:32 | 49.72169 | 8.14094 | 81° | 51km/h | 16317m | 5m/s | -52.9°C | 4.3% | 103.7hPa | 2.6V | 04:08:34 | 01:09:44 | 00:00:00 | |
| BIOWL1-15 | 2026-09-01 17:39:31 | 49.72178 | 8.14168 | 81° | 44km/h | 16337m | 4m/s | -53°C | 1.5% | 103.4hPa | 2.6V | 04:08:36 | 01:09:48 | 00:00:00 | |
| DL1XH-west | 2026-09-01 17:39:24 | 49.72162 | 8.14034 | 79° | 51km/h | 16303m | 4.9m/s | 0°C | 0% | 104hPa | 2.7V | 04:09:27 | 01:09:41 | 00:00:00 | |
| DL0LBS | 2026-09-01 17:39:23 | 49.72160 | 8.14014 | 83° | 49km/h | 16297m | 5.7m/s | -52.9°C | 1.8% | 104.1hPa | 2.6V | 04:09:00 | 00:00:00 | 00:00:00 | |
| DJTTGO | 2026-09-01 17:39:22 | 49.72160 | 8.14014 | 83° | 49km/h | 16297m | 5.7m/s | 0°C | 0% | 0hPa | 2.6V | 00:00:00 | 00:00:00 | 00:00:00 | |
| DM0DOS-11 | 2026-09-01 17:39:21 | 49.72148 | 8.13889 | 80° | 44km/h | 16263m | 5.9m/s | -53°C | 4.4% | 104.6hPa | 2.6V | 04:08:45 | 01:09:33 | 00:00:00 | |
| BIOWL1-15 | 2026-09-01 17:39:19 | 49.72153 | 8.13940 | 80° | 46km/h | 16278m | 4.2m/s | -53°C | 1.5% | 104.4hPa | 2.7V | 04:09:27 | 01:09:36 | 00:00:00 | |
| DL1XH-west | 2026-09-01 17:39:13 | 49.72142 | 8.13841 | 79° | 40km/h | 16248m | 4.1m/s | 0°C | 0% | 0hPa | 2.7V | 04:09:27 | 01:09:30 | 00:00:00 | |
| BIOWL1-15 | 2026-09-01 17:39:08 | 49.72127 | 8.13761 | 74° | 46km/h | 16223m | 4.6m/s | -52.8°C | 1.5% | 105.2hPa | 2.7V | 04:09:27 | 01:09:25 | 00:00:00 | |
| DL1XH-west | 2026-09-01 17:39:02 | 49.72112 | 8.13658 | 79° | 42km/h | 16193m | 4m/s | 0°C | 0% | 0hPa | 2.6V | 04:09:27 | 01:09:19 | 00:00:00 | |
| BIOWL1-15 | 2026-09-01 17:38:58 | 49.72107 | 8.13595 | 83° | 42km/h | 16173m | 4.6m/s | -52.9°C | 1.6% | 106.1hPa | 2.7V | 04:09:27 | 01:09:15 | 00:00:00 | |
| DL1XH-west | 2026-09-01 17:38:52 | 49.72095 | 8.13485 | 78° | 51km/h | 16144m | 5.5m/s | 0°C | 0% | 0hPa | 2.7V | 04:09:27 | 01:09:09 | 00:00:00 | |
| BIOWL1-15 | 2026-09-01 17:38:47 | 49.72083 | 8.13393 | 80° | 42km/h | 16120m | 5.8m/s | -53.2°C | 1.6% | 107hPa | 2.7V | 04:09:27 | 01:09:04 | 00:00:00 | |
| DL1XH-west | 2026-09-01 17:38:41 | 49.72081 | 8.13295 | 92° | 44km/h | 16092m | 4.9m/s | 0°C | 0% | 0hPa | 2.7V | 04:09:27 | 01:08:58 | 00:00:00 | |
| BIOWL1-15 | 2026-09-01 17:38:38 | 49.72078 | 8.13205 | 87° | 47km/h | 16068m | 5.4m/s | -53.4°C | 1.7% | 107.8hPa | 2.6V | 04:09:27 | 01:08:53 | 00:00:00 | |
| DL1XH-west | 2026-09-01 17:38:31 | 49.72075 | 8.13110 | 88° | 49km/h | 16044m | 4.6m/s | 0°C | 0% | 0hPa | 2.7V | 18:12:15 | 01:08:48 | 00:00:00 | |
| BIOWL1-15 | 2026-09-01 17:38:29 | 49.72064 | 8.12986 | 79° | 58km/h | 16015m | 5.6m/s | -53.5°C | 1.7% | 108.7hPa | 2.6V | 04:10:18 | 01:08:42 | 00:00:00 | |
| DL1XH-west | 2026-09-01 17:38:21 | 49.72054 | 8.12895 | 83° | 58km/h | 15997m | 4.2m/s | 0°C | 0% | 0hPa | 2.6V | 18:12:15 | 01:08:38 | 00:00:00 | |
| BIOWL1-15 | 2026-09-01 17:38:15 | 49.72040 | 8.12772 | 76° | 47km/h | 15968m | 5.5m/s | -53.4°C | 1.7% | 109.5hPa | 2.6V | 04:10:18 | 01:08:32 | 00:00:00 | |
| DL1XH-west | 2026-09-01 17:38:10 | 49.72030 | 8.12682 | 86° | 47km/h | 15944m | 5.1m/s | 0°C | 0% | 0hPa | 2.6V | 18:12:15 | 01:08:27 | 00:00:00 | |
| BIOWL1-15 | 2026-09-01 17:38:08 | 49.72023 | 8.12565 | 86° | 53km/h | 15915m | 5.8m/s | -53.1°C | 1.6% | 110.4hPa | 2.6V | 04:10:18 | 01:08:21 | 00:00:00 | |
| BIOWL1-15 | 2026-09-01 17:37:53 | 49.72027 | 8.12354 | 93° | 51km/h | 15864m | 3.8m/s | -53°C | 1.6% | 111.3hPa | 2.6V | 04:10:18 | 01:08:10 | 00:00:00 | |
| DL1ZP-14 | 2026-09-01 17:37:53 | 49.72028 | 8.12334 | 96° | 51km/h | 15859m | 5.8m/s | -53.0°C | 1.8% | 111.4hPa | 2.7V | 00:00:00 | 00:00:00 | 00:00:00 | |
| DF3TZ-5 | 2026-09-01 17:37:52 | 49.72028 | 8.12334 | 96° | 51km/h | 15859m | 5.8m/s | -53.0°C | 1.8% | 111.4hPa | 2.7V | 00:00:00 | 00:00:00 | 00:00:00 | |
| HTAHTA | 2026-09-01 17:37:51 | 49.72030 | 8.12314 | 99° | 51km/h | 15854m | 4.8m/s | -53.0°C | 1.8% | 111.5hPa | 2.7V | 00:00:00 | 00:00:00 | 00:00:00 | |
| BIOWL1-15 | 2026-09-01 17:37:42 | 49.72050 | 8.12137 | 98° | 55km/h | 15810m | 3.4m/s | -53°C | 1.6% | 112.3hPa | 2.7V | 04:11:09 | 01:07:59 | 00:00:00 | |
| BIOWL1-15 | 2026-09-01 17:37:31 | 49.72066 | 8.11892 | 93° | 60km/h | 15759m | 4.4m/s | -53°C | 1.5% | 113.1hPa | 2.7V | 04:11:09 | 01:07:48 | 00:00:00 | |
| BIOWL1-15 | 2026-09-01 17:37:20 | 49.72065 | 8.11624 | 91° | 64km/h | 15707m | 3.2m/s | -52.7°C | 1.5% | 114hPa | 2.7V | 04:11:09 | 01:07:37 | 00:00:00 | |
| BIOWL1-15 | 2026-09-01 17:37:10 | 49.72057 | 8.11384 | 84° | 60km/h | 15662m | 4.8m/s | -52.5°C | 1.5% | 114.8hPa | 2.6V | 04:11:09 | 01:07:27 | 00:00:00 | |
| BIOWL1-15 | 2026-09-01 17:36:59 | 49.72038 | 8.11133 | 81° | 60km/h | 15610m | 3.8m/s | -52.7°C | 1.5% | 115.8hPa | 2.6V | 04:11:09 | 01:07:16 | 00:00:00 | |
| BIOWL1-15 | 2026-09-01 17:36:49 | 49.72011 | 8.10918 | 80° | 51km/h | 15562m | 4.9m/s | -52.7°C | 1.6% | 116.6hPa | 2.6V | 04:12:00 | 01:07:06 | 00:00:00 | |
| HTAHTA | 2026-09-01 17:36:49 | 49.72003 | 8.10843 | 81° | 47km/h | 15544m | 3.6m/s | -52.6°C | -1.0% | 116.9hPa | 2.7V | 00:00:00 | 00:00:00 | 00:00:00 | |
| BIOWL1-15 | 2026-09-01 17:36:37 | 49.71996 | 8.10680 | 88° | 53km/h | 15505m | 4.3m/s | -52.6°C | 1.5% | 117.7hPa | 2.7V | 04:12:00 | 01:06:54 | 00:00:00 | |
| BIOWL1-15 | 2026-09-01 17:36:27 | 49.71999 | 8.10487 | 93° | 55km/h | 15459m | 3.6m/s | -52.5°C | 1.5% | 118.5hPa | 2.7V | 04:12:00 | 01:06:44 | 00:00:00 | |
| CB1BUN | 2026-09-01 17:36:26 | 49.72000 | 8.10465 | 96° | 57km/h | 15455m | 5.3m/s | -52.5°C | 1.8% | 118.6hPa | 2.7V | 04:12:00 | 00:00:00 | 00:00:00 | |
| DO3MHA-11 | 2026-09-01 17:36:25 | 49.72001 | 8.10443 | 98° | 53km/h | 15450m | 3.9m/s | -52.5°C | 4.3% | 118.6hPa | 2.7V | 00:00:00 | 01:06:42 | 00:00:00 | |
| DM0DOS-11 | 2026-09-01 17:36:24 | 49.72006 | 8.10377 | 93° | 55km/h | 15437m | 4.2m/s | -52.6°C | 4.4% | 118.9hPa | 2.7V | 04:11:39 | 01:06:39 | 00:00:00 | |
| BIOWL1-15 | 2026-09-01 17:36:20 | 49.72018 | 8.10260 | 103° | 51km/h | 15410m | 3.8m/s | -52.6°C | 1.5% | 119.4hPa | 2.7V | 04:12:00 | 01:06:33 | 00:00:00 | |
| DK5PH-5 | 2026-09-01 17:36:19 | 49.72010 | 8.10317 | 101° | 60km/h | 15424m | 4.8m/s | -52.6°C | 4.4% | 119.1hPa | 2.7V | 00:00:00 | 01:06:36 | 00:00:00 | |
| HTAHTA | 2026-09-01 17:36:18 | 49.72012 | 8.10298 | 103° | 47km/h | 15420m | 4.1m/s | -52.6°C | -1.0% | 119.2hPa | 2.7V | 00:00:00 | 00:00:00 | 00:00:00 | |
| DL0LBS | 2026-09-01 17:36:16 | 49.72015 | 8.10279 | 104° | 49km/h | 15415m | 5.6m/s | -52.7°C | 1.8% | 119.3hPa | 2.7V | 04:12:00 | 00:00:00 | 00:00:00 | |
| DO3MHA-11 | 2026-09-01 17:36:15 | 49.72021 | 8.10240 | 104° | 58km/h | 15406m | 4.7m/s | -52.6°C | 4.4% | 119.4hPa | 2.7V | 00:00:00 | 01:06:32 | 00:00:00 | |
| DM0DOS-11 | 2026-09-01 17:36:14 | 49.72031 | 8.10178 | 102° | 57km/h | 15392m | 5.2m/s | -52.5°C | 4.4% | 119.7hPa | 2.7V | 04:11:49 | 01:06:29 | 00:00:00 | |
| BIOWL1-15 | 2026-09-01 17:36:07 | 49.72049 | 8.10019 | 99° | 60km/h | 15358m | 5.4m/s | -52.5°C | 1.5% | 120.3hPa | 2.7V | 04:12:00 | 01:06:22 | 00:00:00 | |
| DO3MHA-11 | 2026-09-01 17:36:05 | 49.72049 | 8.10019 | 100° | 62km/h | 15359m | 5.4m/s | -52.4°C | 4.3% | 120.3hPa | 2.6V | 00:00:00 | 01:06:22 | 00:00:00 | |
| DM0DOS-11 | 2026-09-01 17:36:04 | 49.72056 | 8.09949 | 99° | 60km/h | 15345m | 3.6m/s | -52.5°C | 4.3% | 120.6hPa | 2.6V | 04:11:59 | 01:06:19 | 00:00:00 | |
| DL8DAS-14 | 2026-09-01 17:36:03 | 49.72054 | 8.09972 | 98° | 60km/h | 15349m | 5.2m/s | -52.5°C | 1.8% | 120.5hPa | 2.7V | 00:00:00 | 00:00:00 | 00:00:00 | |
| DN1GJH-1 | 2026-09-01 17:36:02 | 49.72053 | 8.09972 | 100° | 60km/h | 15350m | 5.2m/s | -52.5°C | 1.9% | 120.5hPa | 2.7V | 04:12:00 | 00:00:00 | 00:00:00 | |
| AU51GT2 | 2026-09-01 17:36:00 | 49.72065 | 8.09877 | 101° | 60km/h | 15330m | 4.8m/s | -52.5°C | 1.8% | 120.9hPa | 2.7V | 00:00:00 | 00:00:00 | 00:00:00 | |
| DM3KS-11 | 2026-09-01 17:35:58 | 49.72071 | 8.09831 | 99° | 60km/h | 15321m | 3.6m/s | -52.4°C | 1.8% | 121.1hPa | 2.7V | 00:00:00 | 00:00:00 | 00:00:00 | |
| HEMX73-11 | 2026-09-01 17:35:57 | 49.72071 | 8.09830 | 101° | 62km/h | 15321m | 3.6m/s | -52.4°C | 1.8% | 121.1hPa | 2.7V | 04:12:00 | 00:00:00 | 00:00:00 | |
| DJTTGO | 2026-09-01 17:35:56 | 49.72071 | 8.09830 | 101° | 62km/h | 15321m | 3.6m/s | 0°C | 0% | 0hPa | 2.7V | 00:00:00 | 00:00:00 | 00:00:00 | |
| DO3MHA-11 | 2026-09-01 17:35:55 | 49.72076 | 8.09781 | 98° | 68km/h | 15312m | 4.3m/s | -52.4°C | 4.2% | 121.2hPa | 2.7V | 00:00:00 | 01:06:12 | 00:00:00 | |
| DM0DOS-11 | 2026-09-01 17:35:54 | 49.72080 | 8.09703 | 93° | 66km/h | 15298m | 3.8m/s | -52.4°C | 4.2% | 121.5hPa | 2.7V | 04:12:09 | 01:06:09 | 00:00:00 | |
| BIOWL1-15 | 2026-09-01 17:35:54 | 49.72078 | 8.09755 | 95° | 68km/h | 15307m | 4.2m/s | -52.4°C | 1.5% | 121.3hPa | 2.6V | 04:12:51 | 01:06:11 | 00:00:00 | |
| BIOWL9-15 | 2026-09-01 17:35:52 | 49.72080 | 8.09703 | 93° | 66km/h | 15298m | 3.8m/s | -52.5°C | 1.8% | 121.5hPa | 2.7V | 00:00:00 | 00:00:00 | 00:00:00 | |
| DF3TZ-5 | 2026-09-01 17:35:48 | 49.72087 | 8.09572 | 94° | 68km/h | 15275m | 4.2m/s | -52.5°C | 1.8% | 121.9hPa | 2.7V | 00:00:00 | 00:00:00 | 00:00:00 | |
| HTAHTA | 2026-09-01 17:35:47 | 49.72088 | 8.09545 | 94° | 69km/h | 15271m | 5.1m/s | 0°C | -1.0% | -1.0hPa | 2.7V | 00:00:00 | 00:00:00 | 00:00:00 | |
| DO3MHA-11 | 2026-09-01 17:35:45 | 49.72090 | 8.09518 | 95° | 73km/h | 15266m | 4.0m/s | -52.7°C | 4.3% | 122.1hPa | 2.7V | 04:12:00 | 01:06:02 | 00:00:00 | |
| DM0DOS-11 | 2026-09-01 17:35:44 | 49.72093 | 8.09434 | 94° | 71km/h | 15252m | 5.1m/s | -53°C | 4.4% | 122.4hPa | 2.7V | 04:12:19 | 01:05:59 | 00:00:00 | |
| BIOWL1-15 | 2026-09-01 17:35:43 | 49.72092 | 8.09462 | 93° | 71km/h | 15257m | 4.1m/s | -52.9°C | 1.6% | 122.3hPa | 2.6V | 04:12:51 | 01:06:00 | 00:00:00 | |
| DB0NH | 2026-09-01 17:35:41 | 49.72095 | 8.09406 | 96° | 71km/h | 15247m | 4.7m/s | -52.9°C | 4.5% | 122.4hPa | 2.6V | 00:00:00 | 01:05:58 | 00:00:00 | |
| DJ2DS-15 | 2026-09-01 17:35:40 | 49.72097 | 8.09378 | 96° | 73km/h | 15243m | 3.9m/s | -52.9°C | 4.4% | 122.5hPa | 2.6V | 00:00:00 | 01:05:57 | 00:00:00 | |
| DF1GD-15 | 2026-09-01 17:35:39 | 49.72097 | 8.09378 | 96° | 73km/h | 15243m | 4.0m/s | -53.0°C | 1.9% | 122.5hPa | 2.6V | 04:12:00 | 00:00:00 | 00:00:00 | |
| DJ2DS-15 | 2026-09-01 17:35:38 | 49.72099 | 8.09321 | 93° | 73km/h | 15233m | 4.2m/s | -53.0°C | 1.9% | 122.7hPa | 2.6V | 00:00:00 | 00:00:00 | 00:00:00 | |
| DL8DAS-15 | 2026-09-01 17:35:37 | 49.72100 | 8.09321 | 95° | 73km/h | 15233m | 4.2m/s | -53.0°C | 1.9% | 122.7hPa | 2.6V | 04:12:00 | 00:00:00 | 00:00:00 | |
| HEMX73-11 | 2026-09-01 17:35:36 | 49.72101 | 8.09292 | 96° | 75km/h | 15228m | 6.0m/s | -53.0°C | 1.9% | 122.8hPa | 2.6V | 04:12:00 | 00:00:00 | 00:00:00 | |
| DO3MHA-11 | 2026-09-01 17:35:35 | 49.72103 | 8.09233 | 93° | 71km/h | 15218m | 5.8m/s | -53.0°C | 4.4% | 122.9hPa | 2.6V | 00:00:00 | 01:05:52 | 00:00:00 | |
| DM0DOS-11 | 2026-09-01 17:35:34 | 49.72105 | 8.09146 | 91° | 73km/h | 15203m | 4.9m/s | -53°C | 4.4% | 123.3hPa | 2.6V | 04:12:29 | 01:05:49 | 00:00:00 | |
| BIOWL1-15 | 2026-09-01 17:35:32 | 49.72105 | 8.09146 | 92° | 75km/h | 15203m | 4.9m/s | -53°C | 1.6% | 123.3hPa | 2.6V | 04:12:51 | 01:05:49 | 00:00:00 | |
| DB0UT-7 | 2026-09-01 17:35:32 | 49.72105 | 8.09146 | 92° | 71km/h | 15203m | 4.8m/s | -53.0°C | 4.4% | 123.2hPa | 2.7V | 00:00:00 | 01:05:49 | 00:00:00 | |
| DF2AP-13 | 2026-09-01 17:35:31 | 49.72106 | 8.09118 | 92° | 71km/h | 15199m | 4.2m/s | -53.0°C | 4.5% | 123.3hPa | 2.7V | 00:00:00 | 01:05:48 | 00:00:00 | |
| NBG1-10 | 2026-09-01 17:35:28 | 49.72106 | 8.09036 | 91° | 69km/h | 15184m | 5.6m/s | -53.0°C | 4.5% | 123.6hPa | 2.7V | 00:00:00 | 01:05:45 | 00:00:00 | |
| DM3KS-11 | 2026-09-01 17:35:27 | 49.72107 | 8.08983 | 89° | 68km/h | 15173m | 5.1m/s | -53.1°C | 1.9% | 123.9hPa | 2.7V | 00:00:00 | 00:00:00 | 00:00:00 | |
| DO3MHA-11 | 2026-09-01 17:35:25 | 49.72106 | 8.08956 | 88° | 71km/h | 15168m | 5.5m/s | -53.0°C | 4.5% | 123.9hPa | 2.7V | 00:00:00 | 01:05:42 | 00:00:00 | |
| DM0DOS-11 | 2026-09-01 17:35:24 | 49.72104 | 8.08872 | 87° | 73km/h | 15154m | 4m/s | -53.1°C | 4.5% | 124.2hPa | 2.7V | 04:12:39 | 01:05:39 | 00:00:00 | |
| BIOWL1-15 | 2026-09-01 17:35:24 | 49.72103 | 8.08872 | 88° | 73km/h | 15154m | 4m/s | -53.1°C | 1.6% | 124.2hPa | 2.7V | 04:12:51 | 01:05:39 | 00:00:00 | |
| DJ2KF-10 | 2026-09-01 17:35:24 | 49.72105 | 8.08929 | 87° | 69km/h | 15163m | 3.3m/s | -53.0°C | 4.5% | 124.0hPa | 2.6V | 00:00:00 | 01:05:41 | 00:00:00 | |
| CB1BUN | 2026-09-01 17:35:23 | 49.72105 | 8.08929 | 88° | 71km/h | 15163m | 3.3m/s | -53.1°C | 1.9% | 124.1hPa | 2.6V | 04:12:00 | 00:00:00 | 00:00:00 | |
| BIOWL9-15 | 2026-09-01 17:35:21 | 49.72102 | 8.08844 | 86° | 73km/h | 15149m | 6.0m/s | -53.1°C | 1.9% | 124.3hPa | 2.6V | 00:00:00 | 00:00:00 | 00:00:00 | |
| DJ2DS-15 | 2026-09-01 17:35:20 | 49.72101 | 8.08815 | 86° | 71km/h | 15144m | 4.0m/s | -53.1°C | 4.5% | 124.4hPa | 2.6V | 04:12:00 | 01:05:37 | 00:00:00 | |
| DK5PH-5 | 2026-09-01 17:35:19 | 49.72100 | 8.08788 | 88° | 68km/h | 15139m | 5.9m/s | -53.1°C | 4.5% | 124.5hPa | 2.6V | 00:00:00 | 01:05:36 | 00:00:00 | |
| DJ3KS | 2026-09-01 17:35:18 | 49.72100 | 8.08788 | 88° | 71km/h | 15139m | 5.9m/s | 0°C | 0% | 0hPa | 2.7V | 00:00:00 | 00:00:00 | 00:00:00 | |
| DF3TZ-5 | 2026-09-01 17:35:17 | 49.72097 | 8.08706 | 85° | 68km/h | 15124m | 4.0m/s | -53.2°C | 1.9% | 124.8hPa | 2.7V | 00:00:00 | 00:00:00 | 00:00:00 | |
| DD1CC8 | 2026-09-01 17:35:16 | 49.72097 | 8.08706 | 85° | 68km/h | 15124m | 4.0m/s | -53.2°C | 1.9% | 124.8hPa | 2.7V | 00:00:00 | 00:00:00 | 00:00:00 | |
| DO3MHA-11 | 2026-09-01 17:35:15 | 49.72095 | 8.08679 | 87° | 73km/h | 15119m | 5.2m/s | -53.2°C | 4.5% | 124.9hPa | 2.7V | 00:00:00 | 01:05:32 | 00:00:00 | |
| DM0DOS-11 | 2026-09-01 17:35:14 | 49.72092 | 8.08597 | 84° | 71km/h | 15103m | 5.2m/s | -53.2°C | 4.6% | 125.2hPa | 2.6V | 04:12:49 | 01:05:29 | 00:00:00 | |
| BIOWL1-15 | 2026-09-01 17:35:11 | 49.72091 | 8.08570 | 85° | 73km/h | 15099m | 4.7m/s | -53.2°C | 1.7% | 125.3hPa | 2.6V | 04:12:51 | 01:05:28 | 00:00:00 | |
| DB0NH | 2026-09-01 17:35:10 | 49.72089 | 8.08541 | 86° | 66km/h | 15094m | 4.6m/s | -53.1°C | 4.6% | 125.3hPa | 2.6V | 04:12:00 | 01:05:27 | 00:00:00 | |
| DB0ND-19 | 2026-09-01 17:35:07 | 49.72081 | 8.08455 | 78° | 75km/h | 15078m | 4.3m/s | -53.1°C | 1.9% | 125.7hPa | 2.6V | 00:00:00 | 00:00:00 | 00:00:00 | |
| DO3MHA-11 | 2026-09-01 17:35:05 | 49.72074 | 8.08397 | 81° | 66km/h | 15069m | 5.3m/s | -52.9°C | 4.6% | 125.8hPa | 2.6V | 00:00:00 | 01:05:22 | 00:00:00 | |
| DM0DOS-11 | 2026-09-01 17:35:04 | 49.72066 | 8.08315 | 82° | 68km/h | 15055m | 4.4m/s | -52.9°C | 4.6% | 126.2hPa | 2.6V | 04:12:59 | 01:05:19 | 00:00:00 | |
| BIOWL1-15 | 2026-09-01 17:35:01 | 49.72065 | 8.08289 | 85° | 66km/h | 15050m | 5.9m/s | -52.9°C | 1.6% | 126.3hPa | 2.6V | 04:13:42 | 01:05:18 | 00:00:00 | |
| AU51GT2 | 2026-09-01 17:34:57 | 49.72059 | 8.08192 | 82° | 60km/h | 15031m | 4.2m/s | -52.7°C | 1.9% | 126.7hPa | 2.7V | 00:00:00 | 00:00:00 | 00:00:00 | |
| DF7PN | 2026-09-01 17:34:56 | 49.72058 | 8.08169 | 83° | 60km/h | 15026m | 5.3m/s | -52.7°C | 1.9% | 126.8hPa | 2.7V | 00:00:00 | 00:00:00 | 00:00:00 | |
| DO3MHA-11 | 2026-09-01 17:34:55 | 49.72056 | 8.08145 | 82° | 62km/h | 15022m | 4.1m/s | -52.7°C | 4.4% | 126.8hPa | 2.7V | 04:13:00 | 01:05:12 | 00:00:00 | |
| DM0DOS-11 | 2026-09-01 17:34:54 | 49.72046 | 8.08074 | 76° | 64km/h | 15007m | 5.2m/s | -52.7°C | 4.4% | 127.1hPa | 2.7V | 04:13:09 | 01:05:09 | 00:00:00 | |
| BIOWL1-15 | 2026-09-01 17:34:50 | 49.72039 | 8.08024 | 79° | 66km/h | 14997m | 3.8m/s | -52.6°C | 1.6% | 127.3hPa | 2.6V | 04:13:42 | 01:05:07 | 00:00:00 | |
| DF3TZ-5 | 2026-09-01 17:34:46 | 49.72025 | 8.07905 | 84° | 60km/h | 14973m | 4.2m/s | -52.5°C | 2.0% | 127.8hPa | 2.6V | 00:00:00 | 00:00:00 | 00:00:00 | |
| DO3MHA-11 | 2026-09-01 17:34:45 | 49.72025 | 8.07905 | 85° | 57km/h | 14973m | 4.2m/s | -52.5°C | 4.5% | 127.7hPa | 2.6V | 00:00:00 | 01:05:02 | 00:00:00 | |
| DM0DOS-11 | 2026-09-01 17:34:44 | 49.72019 | 8.07837 | 80° | 57km/h | 14958m | 4.5m/s | -52.6°C | 4.5% | 128.1hPa | 2.7V | 04:13:19 | 01:04:59 | 00:00:00 | |
| BIOWL1-15 | 2026-09-01 17:34:41 | 49.72012 | 8.07770 | 79° | 55km/h | 14942m | 5.9m/s | -52.5°C | 1.7% | 128.4hPa | 2.6V | 04:13:42 | 01:04:56 | 00:00:00 | |
| BIOWL1-15 | 2026-09-01 17:34:28 | 49.71992 | 8.07543 | 83° | 51km/h | 14886m | 4.2m/s | -52.5°C | 1.6% | 129.5hPa | 2.7V | 04:13:42 | 01:04:45 | 00:00:00 | |
| AU51GT2 | 2026-09-01 17:34:27 | 49.71990 | 8.07503 | 87° | 51km/h | 14876m | 5.9m/s | -52.5°C | 1.9% | 129.7hPa | 2.7V | 00:00:00 | 00:00:00 | 00:00:00 | |
| DJ2DS-15 | 2026-09-01 17:34:26 | 49.71990 | 8.07503 | 87° | 51km/h | 14876m | 5.9m/s | -52.5°C | 1.9% | 129.7hPa | 2.7V | 00:00:00 | 00:00:00 | 00:00:00 | |
| DO3MHA-11 | 2026-09-01 17:34:25 | 49.71989 | 8.07482 | 91° | 49km/h | 14871m | 4.1m/s | -52.5°C | 4.4% | 129.8hPa | 2.7V | 00:00:00 | 01:04:42 | 00:00:00 | |
| DM0DOS-11 | 2026-09-01 17:34:24 | 49.71991 | 8.07425 | 96° | 49km/h | 14855m | 6.2m/s | -52.5°C | 4.4% | 130.1hPa | 2.7V | 04:13:39 | 01:04:39 | 00:00:00 | |
| BIOWL1-15 | 2026-09-01 17:34:17 | 49.71998 | 8.07331 | 98° | 49km/h | 14830m | 6m/s | -52.5°C | 1.6% | 130.6hPa | 2.7V | 04:14:33 | 01:04:34 | 00:00:00 | |
| DO3MHA-11 | 2026-09-01 17:34:15 | 49.72001 | 8.07293 | 97° | 53km/h | 14820m | 4.9m/s | -52.4°C | 4.3% | 130.8hPa | 2.7V | 00:00:00 | 01:04:32 | 00:00:00 | |
| DM0DOS-11 | 2026-09-01 17:34:14 | 49.72007 | 8.07232 | 101° | 55km/h | 14805m | 4.3m/s | -52.4°C | 4.4% | 131.2hPa | 2.6V | 04:13:49 | 01:04:29 | 00:00:00 | |
| BIOWL1-15 | 2026-09-01 17:34:06 | 49.72024 | 8.07108 | 101° | 51km/h | 14774m | 4.1m/s | -52.3°C | 1.6% | 131.8hPa | 2.7V | 04:14:33 | 01:04:23 | 00:00:00 | |
| DO3MHA-11 | 2026-09-01 17:34:05 | 49.72026 | 8.07088 | 102° | 58km/h | 14769m | 5.8m/s | -52.2°C | 4.4% | 131.8hPa | 2.7V | 04:13:00 | 01:04:22 | 00:00:00 | |
| DM0DOS-11 | 2026-09-01 17:34:04 | 49.72034 | 8.07027 | 98° | 55km/h | 14754m | 4.6m/s | -52.2°C | 4.4% | 132.2hPa | 2.7V | 04:13:59 | 01:04:19 | 00:00:00 | |
| DD1CC2-15 | 2026-09-01 17:34:03 | 49.72029 | 8.07068 | 102° | 53km/h | 14764m | 4.5m/s | 0°C | 0% | 0hPa | 2.6V | 04:14:00 | 00:00:00 | 00:00:00 | |
| DO1YAY-16 | 2026-09-01 17:34:01 | 49.72036 | 8.07005 | 99° | 57km/h | 14749m | 4.8m/s | -52.2°C | 1.9% | 132.3hPa | 2.6V | 00:00:00 | 00:00:00 | 00:00:00 | |
| DL8DAS-14 | 2026-09-01 17:33:59 | 49.72041 | 8.06960 | 100° | 62km/h | 14740m | 3.2m/s | -52.2°C | 1.9% | 132.5hPa | 2.6V | 00:00:00 | 00:00:00 | 00:00:00 | |
| DM0DOS-11 | 2026-09-01 17:33:57 | 49.72054 | 8.06793 | 91° | 58km/h | 14705m | 5m/s | -52°C | 4.3% | 133.2hPa | 2.6V | 04:14:09 | 01:04:09 | 00:00:00 | |
| BIOWL1-15 | 2026-09-01 17:33:55 | 49.72050 | 8.06863 | 97° | 62km/h | 14720m | 5.4m/s | -52.1°C | 1.5% | 132.9hPa | 2.7V | 04:14:33 | 01:04:12 | 00:00:00 | |
| DF7PN | 2026-09-01 17:33:54 | 49.72052 | 8.06839 | 96° | 60km/h | 14715m | 3.9m/s | -52.1°C | 1.9% | 133.0hPa | 2.7V | 00:00:00 | 00:00:00 | 00:00:00 | |
| DM3KS-11 | 2026-09-01 17:33:53 | 49.72053 | 8.06816 | 94° | 58km/h | 14710m | 6.4m/s | -52.0°C | 1.8% | 133.1hPa | 2.7V | 00:00:00 | 00:00:00 | 00:00:00 | |
| DJ2DS-15 | 2026-09-01 17:33:50 | 49.72055 | 8.06746 | 92° | 60km/h | 14695m | 5.8m/s | -51.9°C | 1.8% | 133.4hPa | 2.7V | 00:00:00 | 00:00:00 | 00:00:00 | |
| DK5PH-5 | 2026-09-01 17:33:49 | 49.72056 | 8.06722 | 94° | 69km/h | 14690m | 4.1m/s | -51.9°C | 4.2% | 133.5hPa | 2.7V | 00:00:00 | 01:04:06 | 00:00:00 | |
| NBG1-10 | 2026-09-01 17:33:48 | 49.72057 | 8.06697 | 94° | 69km/h | 14685m | 5.8m/s | -51.9°C | 4.2% | 133.6hPa | 2.6V | 04:14:00 | 01:04:05 | 00:00:00 | |
| DM0DOS-11 | 2026-09-01 17:33:47 | 49.72063 | 8.06548 | 93° | 66km/h | 14655m | 4.8m/s | -51.9°C | 4.2% | 134.2hPa | 2.6V | 04:14:19 | 01:03:59 | 00:00:00 | |
| BIOWL1-15 | 2026-09-01 17:33:46 | 49.72060 | 8.06599 | 96° | 66km/h | 14665m | 4.4m/s | -51.9°C | 1.5% | 134hPa | 2.6V | 04:14:33 | 01:04:01 | 00:00:00 | |
| DO3MHA-11 | 2026-09-01 17:33:45 | 49.72059 | 8.06623 | 94° | 68km/h | 14670m | 5.4m/s | -51.8°C | 4.2% | 133.9hPa | 2.7V | 00:00:00 | 01:04:02 | 00:00:00 | |
| DF3TZ-5 | 2026-09-01 17:33:44 | 49.72062 | 8.06573 | 95° | 66km/h | 14660m | 4.5m/s | -51.9°C | 1.8% | 134.1hPa | 2.6V | 00:00:00 | 00:00:00 | 00:00:00 | |
| DD1CC8 | 2026-09-01 17:33:43 | 49.72062 | 8.06573 | 95° | 66km/h | 14660m | 4.5m/s | -51.9°C | 1.8% | 134.1hPa | 2.6V | 00:00:00 | 00:00:00 | 00:00:00 | |
| DD1CC2-15 | 2026-09-01 17:33:42 | 49.72062 | 8.06573 | 96° | 66km/h | 14660m | 4.5m/s | 0°C | 0% | 0hPa | 2.6V | 04:14:00 | 00:00:00 | 00:00:00 | |
| DL8DAS-15 | 2026-09-01 17:33:40 | 49.72064 | 8.06495 | 93° | 69km/h | 14647m | 5.4m/s | -51.8°C | 1.9% | 134.4hPa | 2.6V | 00:00:00 | 00:00:00 | 00:00:00 | |
| DM0DOS-11 | 2026-09-01 17:33:37 | 49.72058 | 8.06283 | 85° | 71km/h | 14610m | 5.6m/s | -52°C | 4.4% | 135.2hPa | 2.6V | 04:14:29 | 01:03:49 | 00:00:00 | |
| BIOWL1-15 | 2026-09-01 17:33:34 | 49.72060 | 8.06337 | 85° | 68km/h | 14619m | 4.8m/s | -52°C | 1.5% | 135hPa | 2.7V | 04:14:33 | 01:03:51 | 00:00:00 | |
| HEMX73-11 | 2026-09-01 17:33:33 | 49.72060 | 8.06337 | 86° | 68km/h | 14619m | 4.8m/s | -52.0°C | 1.9% | 135.0hPa | 2.6V | 04:14:00 | 00:00:00 | 00:00:00 | |
| DF2AP-13 | 2026-09-01 17:33:31 | 49.72056 | 8.06255 | 87° | 71km/h | 14605m | 5.0m/s | -51.9°C | 4.4% | 135.2hPa | 2.6V | 00:00:00 | 01:03:48 | 00:00:00 | |
| DL9PN | 2026-09-01 17:33:30 | 49.72056 | 8.06227 | 89° | 71km/h | 14600m | 6.1m/s | -51.9°C | 1.9% | 135.4hPa | 2.6V | 00:00:00 | 00:00:00 | 00:00:00 | |
| DL8DAS-15 | 2026-09-01 17:33:29 | 49.72056 | 8.06227 | 91° | 73km/h | 14600m | 6.1m/s | -51.9°C | 1.9% | 135.4hPa | 2.6V | 00:00:00 | 00:00:00 | 00:00:00 | |
| DL8DAS-14 | 2026-09-01 17:33:28 | 49.72057 | 8.06170 | 91° | 73km/h | 14590m | 5.3m/s | -51.8°C | 1.9% | 135.6hPa | 2.6V | 00:00:00 | 00:00:00 | 00:00:00 | |
| BIOWL7-15 | 2026-09-01 17:33:27 | 49.72056 | 8.06170 | 93° | 75km/h | 14590m | 5.3m/s | -51.8°C | 1.9% | 135.6hPa | 2.6V | 04:14:00 | 00:00:00 | 00:00:00 | |
| DM0DOS-11 | 2026-09-01 17:33:25 | 49.72050 | 8.05997 | 82° | 73km/h | 14561m | 5.8m/s | -51.7°C | 4.2% | 136.2hPa | 2.6V | 04:14:39 | 01:03:39 | 00:00:00 | |
| BIOWL1-15 | 2026-09-01 17:33:23 | 49.72053 | 8.06025 | 85° | 75km/h | 14566m | 4.3m/s | -51.7°C | 1.5% | 136.1hPa | 2.6V | 04:15:24 | 01:03:40 | 00:00:00 | |
| DJ2KF-10 | 2026-09-01 17:33:23 | 49.72053 | 8.06025 | 85° | 69km/h | 14566m | 4.3m/s | -51.7°C | 4.2% | 136.1hPa | 2.6V | 00:00:00 | 01:03:40 | 00:00:00 | |
| DM3KS-11 | 2026-09-01 17:33:22 | 49.72051 | 8.05997 | 82° | 73km/h | 14561m | 5.9m/s | -51.7°C | 1.8% | 136.2hPa | 2.7V | 00:00:00 | 00:00:00 | 00:00:00 | |
| SFWM-10 | 2026-09-01 17:33:21 | 49.72050 | 8.05997 | 83° | 73km/h | 14561m | 5.9m/s | -51.7°C | 0% | 136.2hPa | 2.7V | 04:15:00 | 00:00:00 | 00:00:00 | |
| DJ2DS-15 | 2026-09-01 17:33:20 | 49.72045 | 8.05940 | 81° | 71km/h | 14552m | 4.7m/s | -51.6°C | 4.2% | 136.3hPa | 2.7V | 00:00:00 | 01:03:37 | 00:00:00 | |
| DK5PH-5 | 2026-09-01 17:33:19 | 49.72042 | 8.05912 | 82° | 69km/h | 14547m | 5.0m/s | -51.5°C | 4.2% | 136.5hPa | 2.7V | 04:14:00 | 01:03:36 | 00:00:00 | |
| CB1BUN | 2026-09-01 17:33:18 | 49.72042 | 8.05912 | 83° | 73km/h | 14547m | 5.1m/s | -51.6°C | 1.8% | 136.5hPa | 2.7V | 04:15:00 | 00:00:00 | 00:00:00 | |
| DM0DOS-11 | 2026-09-01 17:33:17 | 49.72034 | 8.05717 | 89° | 71km/h | 14512m | 4.5m/s | -51.3°C | 4.2% | 137.2hPa | 2.7V | 04:14:49 | 01:03:29 | 00:00:00 | |
| BIOWL1-15 | 2026-09-01 17:33:12 | 49.72034 | 8.05717 | 89° | 71km/h | 14512m | 4.6m/s | -51.3°C | 1.4% | 137.2hPa | 2.7V | 04:15:24 | 01:03:29 | 00:00:00 | |
| DB0UT-7 | 2026-09-01 17:33:10 | 49.72033 | 8.05662 | 88° | 68km/h | 14504m | 4.8m/s | -51.2°C | 4.2% | 137.3hPa | 2.6V | 00:00:00 | 01:03:27 | 00:00:00 | |
| DL8DAS-15 | 2026-09-01 17:33:08 | 49.72032 | 8.05634 | 88° | 71km/h | 14499m | 4.9m/s | -51.2°C | 1.9% | 137.5hPa | 2.6V | 04:15:00 | 00:00:00 | 00:00:00 | |
| BIOWL7-15 | 2026-09-01 17:33:06 | 49.72030 | 8.05580 | 88° | 68km/h | 14489m | 3.7m/s | -51.2°C | 1.8% | 137.7hPa | 2.6V | 00:00:00 | 00:00:00 | 00:00:00 | |
| DM0DOS-11 | 2026-09-01 17:33:05 | 49.72025 | 8.05445 | 85° | 68km/h | 14466m | 4.1m/s | -51.4°C | 4.2% | 138.2hPa | 2.6V | 04:14:59 | 01:03:19 | 00:00:00 | |
| BIOWL1-15 | 2026-09-01 17:33:03 | 49.72025 | 8.05445 | 86° | 68km/h | 14466m | 4.1m/s | -51.4°C | 1.5% | 138.2hPa | 2.6V | 04:15:24 | 01:03:19 | 00:00:00 | |
| DL9PN | 2026-09-01 17:32:59 | 49.72020 | 8.05368 | 84° | 62km/h | 14453m | 5.9m/s | -51.4°C | 1.9% | 138.4hPa | 2.7V | 00:00:00 | 00:00:00 | 00:00:00 | |
| DL8DAS-14 | 2026-09-01 17:32:57 | 49.72018 | 8.05321 | 86° | 58km/h | 14444m | 3.8m/s | -51.4°C | 1.8% | 138.7hPa | 2.7V | 00:00:00 | 00:00:00 | 00:00:00 | |
| DM0DOS-11 | 2026-09-01 17:32:55 | 49.72015 | 8.05198 | 86° | 69km/h | 14422m | 4.3m/s | -51.3°C | 4.1% | 139.2hPa | 2.7V | 04:15:09 | 01:03:09 | 00:00:00 | |
| BIOWL1-15 | 2026-09-01 17:32:51 | 49.72014 | 8.05170 | 87° | 73km/h | 14416m | 6.1m/s | -51.4°C | 1.5% | 139.2hPa | 2.7V | 04:15:24 | 01:03:08 | 00:00:00 | |
| BIOWL9-15 | 2026-09-01 17:32:46 | 49.72011 | 8.05035 | 90° | 62km/h | 14392m | 5.5m/s | -51.2°C | 1.8% | 139.8hPa | 2.7V | 00:00:00 | 00:00:00 | 00:00:00 | |
| DM0DOS-11 | 2026-09-01 17:32:45 | 49.72017 | 8.04930 | 96° | 73km/h | 14371m | 5.2m/s | -51.2°C | 4.1% | 140.2hPa | 2.7V | 04:15:19 | 01:02:59 | 00:00:00 | |
| BIOWL1-15 | 2026-09-01 17:32:42 | 49.72020 | 8.04873 | 93° | 73km/h | 14361m | 3.8m/s | -51.3°C | 1.4% | 140.4hPa | 2.6V | 04:15:24 | 01:02:57 | 00:00:00 | |
| DF3TZ-5 | 2026-09-01 17:32:42 | 49.72019 | 8.04901 | 94° | 73km/h | 14366m | 5.3m/s | -51.2°C | 1.8% | 140.4hPa | 2.6V | 00:00:00 | 00:00:00 | 00:00:00 | |
| DD1CC8 | 2026-09-01 17:32:41 | 49.72019 | 8.04901 | 94° | 73km/h | 14366m | 5.3m/s | -51.2°C | 1.8% | 140.4hPa | 2.6V | 00:00:00 | 00:00:00 | 00:00:00 | |
| DJ2DS-15 | 2026-09-01 17:32:40 | 49.72020 | 8.04873 | 94° | 75km/h | 14361m | 3.8m/s | -51.2°C | 4.1% | 140.4hPa | 2.6V | 00:00:00 | 01:02:57 | 00:00:00 | |
| SFWM-10 | 2026-09-01 17:32:39 | 49.72020 | 8.04873 | 94° | 73km/h | 14361m | 3.8m/s | -51.3°C | 0% | 0hPa | 2.8V | 04:15:00 | 00:00:00 | 00:00:00 | |
| DJ2DS-15 | 2026-09-01 17:32:38 | 49.72022 | 8.04790 | 90° | 69km/h | 14347m | 5.6m/s | -51.4°C | 1.8% | 140.7hPa | 2.8V | 00:00:00 | 00:00:00 | 00:00:00 | |
| DL8DAS-15 | 2026-09-01 17:32:37 | 49.72022 | 8.04790 | 92° | 71km/h | 14347m | 5.6m/s | -51.4°C | 1.9% | 140.7hPa | 2.8V | 04:15:00 | 00:00:00 | 00:00:00 | |
| DB0UT-9 | 2026-09-01 17:32:36 | 49.72022 | 8.04790 | 92° | 71km/h | 14347m | 5.6m/s | -51.4°C | 1.9% | 140.7hPa | 2.8V | 04:15:00 | 00:00:00 | 00:00:00 | |
| DM0DOS-11 | 2026-09-01 17:32:35 | 49.72023 | 8.04650 | 89° | 77km/h | 14323m | 3.9m/s | -51.4°C | 4.3% | 141.3hPa | 2.8V | 04:15:29 | 01:02:49 | 00:00:00 | |
| BIOWL1-15 | 2026-09-01 17:32:29 | 49.72024 | 8.04558 | 92° | 78km/h | 14310m | 3.5m/s | -51.5°C | 1.6% | 141.6hPa | 2.6V | 04:16:15 | 01:02:46 | 00:00:00 | |
| DO1YAY-16 | 2026-09-01 17:32:28 | 49.72025 | 8.04497 | 89° | 77km/h | 14302m | 4.5m/s | -51.5°C | 1.9% | 141.7hPa | 2.7V | 00:00:00 | 00:00:00 | 00:00:00 | |
| DL8DAS-14 | 2026-09-01 17:32:26 | 49.72024 | 8.04467 | 88° | 75km/h | 14297m | 4.0m/s | -51.5°C | 1.9% | 141.8hPa | 2.7V | 00:00:00 | 00:00:00 | 00:00:00 | |
| DM0DOS-11 | 2026-09-01 17:32:25 | 49.72022 | 8.04350 | 86° | 77km/h | 14280m | 4.8m/s | -51.5°C | 4.3% | 142.2hPa | 2.7V | 04:15:39 | 01:02:39 | 00:00:00 | |
| BIOWL1-15 | 2026-09-01 17:32:20 | 49.72016 | 8.04225 | 87° | 82km/h | 14262m | 3.8m/s | -51.4°C | 1.5% | 142.7hPa | 2.7V | 04:16:15 | 01:02:35 | 00:00:00 | |
| DJ2DS-15 | 2026-09-01 17:32:20 | 49.72019 | 8.04288 | 87° | 80km/h | 14271m | 5.6m/s | -51.3°C | 4.2% | 142.4hPa | 2.6V | 00:00:00 | 01:02:37 | 00:00:00 | |
| DK5PH-5 | 2026-09-01 17:32:19 | 49.72017 | 8.04256 | 88° | 78km/h | 14266m | 4.9m/s | -51.3°C | 4.2% | 142.5hPa | 2.6V | 00:00:00 | 01:02:36 | 00:00:00 | |
| SFWM-10 | 2026-09-01 17:32:17 | 49.72017 | 8.04224 | 88° | 82km/h | 14262m | 3.8m/s | -51.4°C | 0% | 0hPa | 2.7V | 00:00:00 | 00:00:00 | 00:00:00 | |
| DB0UT-9 | 2026-09-01 17:32:16 | 49.72015 | 8.04192 | 87° | 84km/h | 14257m | 6.0m/s | -51.4°C | 1.9% | 142.8hPa | 2.7V | 04:16:00 | 00:00:00 | 00:00:00 | |
| DM0DOS-11 | 2026-09-01 17:32:15 | 49.72010 | 8.03996 | 90° | 82km/h | 14228m | 5.7m/s | -51.5°C | 4.1% | 143.3hPa | 2.7V | 04:15:50 | 01:02:28 | 00:00:00 | |
| BIOWL1-15 | 2026-09-01 17:32:08 | 49.72010 | 8.03905 | 90° | 75km/h | 14215m | 3.5m/s | -51.5°C | 1.5% | 143.7hPa | 2.6V | 04:16:15 | 01:02:25 | 00:00:00 | |
| DM0DOS-11 | 2026-09-01 17:32:05 | 49.72006 | 8.03698 | 87° | 78km/h | 14185m | 4.1m/s | -51.7°C | 4.4% | 144.3hPa | 2.8V | 04:16:00 | 01:02:18 | 00:00:00 | |
| BIOWL1-15 | 2026-09-01 17:31:59 | 49.72002 | 8.03574 | 88° | 78km/h | 14169m | 4.3m/s | -51.8°C | 1.7% | 144.7hPa | 2.8V | 04:16:15 | 01:02:14 | 00:00:00 | |
| DK7TD | 2026-09-01 17:31:48 | 49.72002 | 8.03322 | 85° | 69km/h | 14130m | 4.4m/s | 0°C | 0% | 0hPa | 2.6V | 18:12:15 | 01:02:05 | 00:00:00 | |
| BIOWL1-15 | 2026-09-01 17:31:47 | 49.72000 | 8.03295 | 83° | 69km/h | 14125m | 3.8m/s | -52.2°C | 1.8% | 145.7hPa | 2.6V | 04:16:15 | 01:02:04 | 00:00:00 | |
| DM0DOS-11 | 2026-09-01 17:31:46 | 49.71986 | 8.03125 | 85° | 75km/h | 14099m | 4.8m/s | -52.2°C | 4.5% | 146.3hPa | 2.6V | 04:16:20 | 01:01:58 | 00:00:00 | |
| DO3MHA-11 | 2026-09-01 17:31:45 | 49.71995 | 8.03239 | 84° | 75km/h | 14117m | 3.9m/s | -52.2°C | 4.5% | 145.8hPa | 2.7V | 00:00:00 | 01:02:02 | 00:00:00 | |
| BIOWL9-15 | 2026-09-01 17:31:44 | 49.71993 | 8.03211 | 82° | 73km/h | 14112m | 4.8m/s | -52.3°C | 2.1% | 146.0hPa | 2.7V | 00:00:00 | 00:00:00 | 00:00:00 | |
| DF3TZ-5 | 2026-09-01 17:31:40 | 49.71984 | 8.03067 | 85° | 73km/h | 14090m | 4.7m/s | -52.3°C | 2.1% | 146.5hPa | 2.7V | 00:00:00 | 00:00:00 | 00:00:00 | |
| DD1CC8 | 2026-09-01 17:31:39 | 49.71984 | 8.03067 | 85° | 73km/h | 14090m | 4.7m/s | -52.3°C | 2.1% | 146.5hPa | 2.7V | 00:00:00 | 00:00:00 | 00:00:00 | |
| BIOWL7-15 | 2026-09-01 17:31:38 | 49.71983 | 8.03067 | 87° | 75km/h | 14090m | 4.7m/s | -52.3°C | 2.1% | 146.5hPa | 2.7V | 00:00:00 | 00:00:00 | 00:00:00 | |
| DM0DOS-11 | 2026-09-01 17:31:36 | 49.71966 | 8.02829 | 81° | 75km/h | 14055m | 4.7m/s | -52.6°C | 4.7% | 147.3hPa | 2.7V | 04:16:30 | 01:01:48 | 00:00:00 | |
| BIOWL1-15 | 2026-09-01 17:31:36 | 49.71979 | 8.02978 | 85° | 78km/h | 14077m | 2.5m/s | -52.4°C | 2% | 146.8hPa | 2.8V | 04:17:06 | 01:01:53 | 00:00:00 | |
| BIOWL1-15 | 2026-09-01 17:31:27 | 49.71953 | 8.02654 | 85° | 78km/h | 14028m | 5.5m/s | -52.8°C | 2.1% | 147.9hPa | 2.7V | 04:17:06 | 01:01:42 | 00:00:00 | |
| DB0NH | 2026-09-01 17:31:27 | 49.71957 | 8.02713 | 85° | 75km/h | 14038m | 4.7m/s | -52.7°C | 4.7% | 147.7hPa | 2.8V | 00:00:00 | 01:01:44 | 00:00:00 | |
| DM0DOS-11 | 2026-09-01 17:31:26 | 49.71943 | 8.02527 | 80° | 84km/h | 14010m | 3.4m/s | -52.8°C | 4.7% | 148.3hPa | 2.8V | 04:16:40 | 01:01:38 | 00:00:00 | |
| BIOWL1-15 | 2026-09-01 17:31:16 | 49.71917 | 8.02313 | 82° | 77km/h | 13979m | 3.5m/s | -52.8°C | 2.1% | 149.1hPa | 2.8V | 04:17:06 | 01:01:31 | 00:00:00 | |
| DM0DOS-11 | 2026-09-01 17:31:15 | 49.71908 | 8.02227 | 79° | 73km/h | 13964m | 3.3m/s | -52.7°C | 4.7% | 149.4hPa | 2.8V | 04:16:50 | 01:01:28 | 00:00:00 | |
| DO3MHA-11 | 2026-09-01 17:31:15 | 49.71920 | 8.02342 | 80° | 75km/h | 13983m | 4.7m/s | -52.8°C | 4.8% | 148.9hPa | 2.7V | 00:00:00 | 01:01:32 | 00:00:00 | |
| DB0UT-9 | 2026-09-01 17:31:14 | 49.71920 | 8.02342 | 81° | 77km/h | 13983m | 4.8m/s | -52.8°C | 2.3% | 149.0hPa | 2.6V | 04:17:00 | 00:00:00 | 00:00:00 | |
| BIOWL9-15 | 2026-09-01 17:31:13 | 49.71914 | 8.02284 | 80° | 75km/h | 13975m | 4.3m/s | -52.8°C | -1.0% | 149.1hPa | 2.6V | 00:00:00 | 00:00:00 | 00:00:00 | |
| DL8DAS-15 | 2026-09-01 17:31:12 | 49.71914 | 8.02284 | 82° | 75km/h | 13975m | 4.3m/s | -52.8°C | 2.2% | 149.1hPa | 2.6V | 00:00:00 | 00:00:00 | 00:00:00 | |
| DB0UT-7 | 2026-09-01 17:31:10 | 49.71904 | 8.02198 | 81° | 75km/h | 13960m | 5.6m/s | -52.7°C | 4.7% | 149.4hPa | 2.6V | 00:00:00 | 01:01:27 | 00:00:00 | |
| DL1ZP-14 | 2026-09-01 17:31:09 | 49.71897 | 8.02141 | 78° | 73km/h | 13951m | 5.2m/s | -52.8°C | 2.2% | 149.7hPa | 2.6V | 00:00:00 | 00:00:00 | 00:00:00 | |
| DD1CC8 | 2026-09-01 17:31:08 | 49.71897 | 8.02141 | 78° | 73km/h | 13951m | 5.2m/s | -52.8°C | 2.2% | 149.7hPa | 2.8V | 00:00:00 | 00:00:00 | 00:00:00 | |
| DL0LBS | 2026-09-01 17:31:07 | 49.71897 | 8.02141 | 79° | 73km/h | 13951m | 5.2m/s | -52.8°C | 2.2% | 149.7hPa | 2.8V | 04:17:00 | 00:00:00 | 00:00:00 | |
| DN1GJH-1 | 2026-09-01 17:31:06 | 49.71893 | 8.02113 | 80° | 75km/h | 13946m | 4.3m/s | -52.8°C | 2.2% | 149.8hPa | 2.8V | 00:00:00 | 00:00:00 | 00:00:00 | |
| DO3MHA-11 | 2026-09-01 17:31:05 | 49.71887 | 8.02056 | 81° | 73km/h | 13938m | 4.3m/s | -52.7°C | 4.7% | 150.0hPa | 2.8V | 00:00:00 | 01:01:22 | 00:00:00 | |
| DM0DOS-11 | 2026-09-01 17:31:04 | 49.71877 | 8.01945 | 85° | 75km/h | 13920m | 3.6m/s | -52.8°C | 4.7% | 150.4hPa | 2.8V | 04:17:00 | 01:01:18 | 00:00:00 | |
| BIOWL1-15 | 2026-09-01 17:31:03 | 49.71881 | 8.02001 | 82° | 71km/h | 13929m | 3.4m/s | -52.8°C | 2.1% | 150.2hPa | 2.7V | 04:17:06 | 01:01:20 | 00:00:00 | |
| NBG1-10 | 2026-09-01 17:31:03 | 49.71881 | 8.02001 | 82° | 77km/h | 13929m | 3.3m/s | -52.7°C | 4.7% | 150.2hPa | 2.7V | 04:16:00 | 01:01:20 | 00:00:00 | |
| DL8DAS-15 | 2026-09-01 17:31:02 | 49.71881 | 8.02001 | 83° | 71km/h | 13929m | 3.4m/s | -52.8°C | 2.2% | 150.2hPa | 2.6V | 00:00:00 | 00:00:00 | 00:00:00 | |
| DB0ND-19 | 2026-09-01 17:30:59 | 49.71874 | 8.01886 | 84° | 73km/h | 13911m | 4.3m/s | -52.8°C | 2.2% | 150.7hPa | 2.6V | 00:00:00 | 00:00:00 | 00:00:00 | |
| DB0NH | 2026-09-01 17:30:57 | 49.71870 | 8.01829 | 85° | 78km/h | 13903m | 4.0m/s | -52.7°C | 4.7% | 150.8hPa | 2.6V | 00:00:00 | 01:01:14 | 00:00:00 | |
| DO3MHA-11 | 2026-09-01 17:30:55 | 49.71867 | 8.01772 | 87° | 75km/h | 13893m | 3.9m/s | -52.7°C | 4.7% | 151.0hPa | 2.6V | 00:00:00 | 01:01:12 | 00:00:00 | |
| DM0DOS-11 | 2026-09-01 17:30:54 | 49.71862 | 8.01659 | 86° | 73km/h | 13874m | 5.2m/s | -52.7°C | 4.8% | 151.5hPa | 2.6V | 04:17:10 | 01:01:08 | 00:00:00 | |
| BIOWL1-15 | 2026-09-01 17:30:52 | 49.71863 | 8.01687 | 86° | 71km/h | 13879m | 3.9m/s | -52.8°C | 2.1% | 151.4hPa | 2.6V | 04:17:57 | 01:01:09 | 00:00:00 | |
| DJ2DS-15 | 2026-09-01 17:30:50 | 49.71860 | 8.01601 | 85° | 77km/h | 13866m | 4.0m/s | -52.8°C | 2.3% | 151.7hPa | 2.7V | 00:00:00 | 00:00:00 | 00:00:00 | |
| AU51GT2 | 2026-09-01 17:30:49 | 49.71860 | 8.01601 | 85° | 77km/h | 13866m | 4.0m/s | -52.8°C | 2.3% | 151.7hPa | 2.7V | 00:00:00 | 00:00:00 | 00:00:00 | |
| DF7PN | 2026-09-01 17:30:48 | 49.71856 | 8.01541 | 84° | 75km/h | 13857m | 4.0m/s | -52.8°C | 2.2% | 151.9hPa | 2.7V | 00:00:00 | 00:00:00 | 00:00:00 | |
| DM3KS-11 | 2026-09-01 17:30:47 | 49.71856 | 8.01541 | 84° | 75km/h | 13857m | 4.0m/s | -52.8°C | 2.2% | 151.9hPa | 2.7V | 00:00:00 | 00:00:00 | 00:00:00 | |
| DL0LBS | 2026-09-01 17:30:46 | 49.71856 | 8.01541 | 86° | 77km/h | 13857m | 4.0m/s | -52.8°C | 2.3% | 151.9hPa | 2.7V | 04:17:00 | 00:00:00 | 00:00:00 | |
| DO3MHA-11 | 2026-09-01 17:30:45 | 49.71853 | 8.01481 | 87° | 80km/h | 13847m | 4.1m/s | -52.7°C | 4.8% | 152.0hPa | 2.7V | 04:17:00 | 01:01:02 | 00:00:00 | |
| DM0DOS-11 | 2026-09-01 17:30:44 | 49.71848 | 8.01361 | 86° | 80km/h | 13830m | 3.1m/s | -52.7°C | 4.7% | 152.5hPa | 2.8V | 04:17:20 | 01:00:58 | 00:00:00 | |
| BIOWL1-15 | 2026-09-01 17:30:41 | 49.71848 | 8.01361 | 87° | 80km/h | 13830m | 3.1m/s | -52.7°C | 2.1% | 152.5hPa | 2.8V | 04:17:57 | 01:00:58 | 00:00:00 | |
| DJ2DS-15 | 2026-09-01 17:30:40 | 49.71847 | 8.01330 | 86° | 82km/h | 13826m | 5.0m/s | -52.7°C | 4.6% | 152.6hPa | 2.7V | 00:00:00 | 01:00:57 | 00:00:00 | |
| DL1ZP-14 | 2026-09-01 17:30:38 | 49.71841 | 8.01233 | 85° | 82km/h | 13812m | 3.7m/s | -52.7°C | 2.2% | 153.0hPa | 2.6V | 00:00:00 | 00:00:00 | 00:00:00 | |
| DD1CC8 | 2026-09-01 17:30:37 | 49.71841 | 8.01233 | 85° | 82km/h | 13812m | 3.7m/s | -52.7°C | 2.2% | 153.0hPa | 2.6V | 00:00:00 | 00:00:00 | 00:00:00 | |
| DO3MHA-11 | 2026-09-01 17:30:35 | 49.71837 | 8.01169 | 83° | 80km/h | 13804m | 4.6m/s | -52.7°C | 4.6% | 153.2hPa | 2.6V | 00:00:00 | 01:00:52 | 00:00:00 | |
| DM0DOS-11 | 2026-09-01 17:30:34 | 49.71827 | 8.01046 | 79° | 77km/h | 13785m | 4m/s | -52.9°C | 4.8% | 153.6hPa | 2.6V | 04:17:30 | 01:00:48 | 00:00:00 | |
| BIOWL1-15 | 2026-09-01 17:30:34 | 49.71823 | 8.01016 | 80° | 78km/h | 13781m | 4.7m/s | -53°C | 2.1% | 153.7hPa | 2.7V | 04:17:57 | 01:00:47 | 00:00:00 | |
| HEMX73-6 | 2026-09-01 17:30:33 | 49.71832 | 8.01106 | 84° | 88km/h | 13795m | 4.3m/s | -52.8°C | 4.7% | 153.3hPa | 2.6V | 00:00:00 | 01:00:50 | 00:00:00 | |
| DB0UT-9 | 2026-09-01 17:30:32 | 49.71832 | 8.01106 | 84° | 78km/h | 13795m | 4.4m/s | -52.8°C | 2.2% | 153.4hPa | 2.6V | 04:17:00 | 00:00:00 | 00:00:00 | |
| DF2AP-13 | 2026-09-01 17:30:31 | 49.71826 | 8.01045 | 80° | 78km/h | 13785m | 4.0m/s | -52.9°C | 4.8% | 153.6hPa | 2.6V | 00:00:00 | 01:00:48 | 00:00:00 | |
| NBG1-10 | 2026-09-01 17:30:30 | 49.71823 | 8.01016 | 80° | 78km/h | 13781m | 4.7m/s | -52.9°C | 4.8% | 153.6hPa | 2.6V | 00:00:00 | 01:00:47 | 00:00:00 | |
| HEMX73-11 | 2026-09-01 17:30:29 | 49.71823 | 8.01016 | 81° | 78km/h | 13781m | 4.7m/s | -53.0°C | 2.3% | 153.7hPa | 2.6V | 04:17:00 | 00:00:00 | 00:00:00 | |
| DB0ND-19 | 2026-09-01 17:30:28 | 49.71816 | 8.00955 | 79° | 78km/h | 13772m | 4.0m/s | -52.9°C | 2.3% | 153.9hPa | 2.6V | 00:00:00 | 00:00:00 | 00:00:00 | |
| DO3DL | 2026-09-01 17:30:27 | 49.71816 | 8.00955 | 81° | 80km/h | 13772m | 4.0m/s | -52.9°C | 2.3% | 153.9hPa | 2.6V | 00:00:00 | 00:00:00 | 00:00:00 | |
| DL0LBS | 2026-09-01 17:30:26 | 49.71812 | 8.00925 | 79° | 80km/h | 13768m | 5.2m/s | -52.9°C | 2.4% | 154.0hPa | 2.6V | 04:17:00 | 00:00:00 | 00:00:00 | |
| DB0NH | 2026-09-01 17:30:25 | 49.71804 | 8.00863 | 78° | 77km/h | 13758m | 5.3m/s | -52.8°C | 4.9% | 154.2hPa | 2.6V | 00:00:00 | 01:00:42 | 00:00:00 | |
| DM0DOS-11 | 2026-09-01 17:30:24 | 49.71786 | 8.00736 | 74° | 82km/h | 13739m | 3.9m/s | -52.8°C | 4.8% | 154.7hPa | 2.6V | 04:17:40 | 01:00:38 | 00:00:00 | |
| BIOWL1-15 | 2026-09-01 17:30:19 | 49.71775 | 8.00674 | 75° | 82km/h | 13730m | 4.5m/s | -52.9°C | 2.2% | 154.9hPa | 2.8V | 04:17:57 | 01:00:36 | 00:00:00 | |
| DK5PH-5 | 2026-09-01 17:30:19 | 49.71775 | 8.00674 | 76° | 77km/h | 13730m | 4.4m/s | -52.8°C | 4.8% | 154.8hPa | 2.7V | 00:00:00 | 01:00:36 | 00:00:00 | |
| AU51GT2 | 2026-09-01 17:30:18 | 49.71769 | 8.00643 | 73° | 80km/h | 13725m | 5.2m/s | -52.8°C | 2.3% | 155.0hPa | 2.7V | 00:00:00 | 00:00:00 | 00:00:00 | |
| DF7PN | 2026-09-01 17:30:17 | 49.71757 | 8.00583 | 73° | 78km/h | 13717m | 3.9m/s | -52.9°C | 2.2% | 155.2hPa | 2.7V | 00:00:00 | 00:00:00 | 00:00:00 | |
| DM3KS-11 | 2026-09-01 17:30:16 | 49.71752 | 8.00553 | 75° | 78km/h | 13712m | 5.5m/s | -52.8°C | 2.2% | 155.3hPa | 2.7V | 00:00:00 | 00:00:00 | 00:00:00 | |
| DM0DOS-11 | 2026-09-01 17:30:15 | 49.71736 | 8.00436 | 80° | 75km/h | 13692m | 5.4m/s | -52.7°C | 4.8% | 155.8hPa | 2.7V | 04:17:50 | 01:00:28 | 00:00:00 | |
| BIOWL1-15 | 2026-09-01 17:30:11 | 49.71729 | 8.00379 | 78° | 75km/h | 13683m | 5.3m/s | -52.7°C | 2.2% | 156hPa | 2.8V | 04:17:57 | 01:00:26 | 00:00:00 | |
| DB0UT-7 | 2026-09-01 17:30:10 | 49.71732 | 8.00407 | 80° | 73km/h | 13687m | 3.6m/s | -52.6°C | 4.9% | 155.9hPa | 2.7V | 00:00:00 | 01:00:27 | 00:00:00 | |
| BIOWL7-15 | 2026-09-01 17:30:09 | 49.71732 | 8.00407 | 81° | 75km/h | 13687m | 3.7m/s | -52.7°C | 2.4% | 155.9hPa | 2.6V | 00:00:00 | 00:00:00 | 00:00:00 | |
| DM7RM-13 | 2026-09-01 17:30:08 | 49.71729 | 8.00379 | 79° | 75km/h | 13683m | 5.3m/s | -52.7°C | 2.4% | 156.0hPa | 2.6V | 04:17:00 | 00:00:00 | 00:00:00 | |
| DL1ZP-14 | 2026-09-01 17:30:07 | 49.71717 | 8.00293 | 79° | 75km/h | 13669m | 3.2m/s | -52.6°C | 2.3% | 156.4hPa | 2.6V | 00:00:00 | 00:00:00 | 00:00:00 | |
| DD1CC8 | 2026-09-01 17:30:06 | 49.71713 | 8.00263 | 77° | 75km/h | 13664m | 5.9m/s | -52.7°C | 2.2% | 156.4hPa | 2.6V | 00:00:00 | 00:00:00 | 00:00:00 | |
| DO3MHA-11 | 2026-09-01 17:30:05 | 49.71713 | 8.00263 | 78° | 75km/h | 13664m | 5.8m/s | -52.6°C | 4.7% | 156.4hPa | 2.6V | 00:00:00 | 01:00:22 | 00:00:00 | |
| DM0DOS-11 | 2026-09-01 17:30:04 | 49.71697 | 8.00147 | 79° | 75km/h | 13646m | 5m/s | -52.9°C | 4.9% | 156.9hPa | 2.6V | 04:18:00 | 01:00:18 | 00:00:00 | |
| BIOWL1-15 | 2026-09-01 17:29:58 | 49.71689 | 8.00061 | 85° | 75km/h | 13633m | 3.6m/s | -52.9°C | 2.3% | 157.2hPa | 2.8V | 04:18:48 | 01:00:15 | 00:00:00 | |
| NBG1-10 | 2026-09-01 17:29:57 | 49.71688 | 8.00032 | 85° | 71km/h | 13629m | 5.1m/s | -52.9°C | 4.9% | 157.3hPa | 2.8V | 00:00:00 | 01:00:14 | 00:00:00 | |
| DM0DOS-11 | 2026-09-01 17:29:56 | 49.71674 | 7.99860 | 79° | 73km/h | 13601m | 3.9m/s | -52.8°C | 4.9% | 158hPa | 2.8V | 04:18:10 | 01:00:08 | 00:00:00 | |
| BIOWL1-15 | 2026-09-01 17:29:47 | 49.71659 | 7.99747 | 78° | 73km/h | 13582m | 4m/s | -52.9°C | 2.4% | 158.5hPa | 2.8V | 04:18:48 | 01:00:04 | 00:00:00 | |
| DF7PN | 2026-09-01 17:29:46 | 49.71653 | 7.99691 | 81° | 71km/h | 13573m | 3.9m/s | -52.9°C | 2.4% | 158.7hPa | 2.8V | 00:00:00 | 00:00:00 | 00:00:00 | |
| DM3KS-11 | 2026-09-01 17:29:45 | 49.71653 | 7.99691 | 81° | 71km/h | 13573m | 3.9m/s | -52.9°C | 2.4% | 158.7hPa | 2.8V | 00:00:00 | 00:00:00 | 00:00:00 | |
| BIOWL1-15 | 2026-09-01 17:29:37 | 49.71633 | 7.99485 | 78° | 66km/h | 13536m | 3.8m/s | -53.1°C | 2.5% | 159.6hPa | 2.8V | 04:18:48 | 00:59:54 | 00:00:00 | |
| BIOWL1-15 | 2026-09-01 17:29:28 | 49.71592 | 7.99195 | 80° | 71km/h | 13486m | 5.7m/s | -52.9°C | 2.6% | 160.9hPa | 2.8V | 04:18:48 | 00:59:43 | 00:00:00 | |
| DM0DOS-11 | 2026-09-01 17:29:26 | 49.71579 | 7.99057 | 79° | 75km/h | 13463m | 4m/s | -52.9°C | 5.1% | 161.4hPa | 2.8V | 04:18:40 | 00:59:38 | 00:00:00 | |
| DB0ND-19 | 2026-09-01 17:29:26 | 49.71592 | 7.99195 | 80° | 69km/h | 13486m | 5.7m/s | -52.9°C | 2.6% | 160.9hPa | 2.6V | 00:00:00 | 00:00:00 | 00:00:00 | |
| DO3MHA-11 | 2026-09-01 17:29:25 | 49.71589 | 7.99168 | 82° | 73km/h | 13482m | 3.2m/s | -52.9°C | 5.1% | 161.0hPa | 2.6V | 00:00:00 | 00:59:42 | 00:00:00 | |
| NBG1-10 | 2026-09-01 17:29:24 | 49.71587 | 7.99140 | 83° | 71km/h | 13477m | 5.6m/s | -52.9°C | 5.1% | 161.0hPa | 2.6V | 00:00:00 | 00:59:41 | 00:00:00 | |
| DJ2KF-10 | 2026-09-01 17:29:23 | 49.71584 | 7.99113 | 83° | 71km/h | 13472m | 4.0m/s | -52.9°C | 5.1% | 161.2hPa | 2.6V | 00:00:00 | 00:59:40 | 00:00:00 | |
| DO1YAY-16 | 2026-09-01 17:29:21 | 49.71579 | 7.99057 | 79° | 73km/h | 13463m | 4.0m/s | -52.9°C | 2.6% | 161.5hPa | 2.6V | 00:00:00 | 00:00:00 | 00:00:00 | |
| DB0NH | 2026-09-01 17:29:20 | 49.71575 | 7.99028 | 79° | 71km/h | 13458m | 5.6m/s | -52.8°C | 5.1% | 161.5hPa | 2.6V | 00:00:00 | 00:59:37 | 00:00:00 | |
| DK5PH-5 | 2026-09-01 17:29:19 | 49.71571 | 7.99000 | 78° | 71km/h | 13453m | 4.2m/s | -52.8°C | 5.1% | 161.6hPa | 2.6V | 00:00:00 | 00:59:36 | 00:00:00 | |
| DM0DOS-11 | 2026-09-01 17:29:16 | 49.71537 | 7.98776 | 79° | 73km/h | 13416m | 4.8m/s | -52.7°C | 5% | 162.6hPa | 2.7V | 04:18:50 | 00:59:28 | 00:00:00 | |
| BIOWL1-15 | 2026-09-01 17:29:16 | 49.71558 | 7.98916 | 75° | 75km/h | 13439m | 3.3m/s | -52.8°C | 2.6% | 162hPa | 2.8V | 04:18:48 | 00:59:33 | 00:00:00 | |
| DF7PN | 2026-09-01 17:29:15 | 49.71549 | 7.98861 | 77° | 71km/h | 13430m | 3.7m/s | -52.7°C | 2.5% | 162.3hPa | 2.7V | 00:00:00 | 00:00:00 | 00:00:00 | |
| DM3KS-11 | 2026-09-01 17:29:14 | 49.71549 | 7.98861 | 77° | 71km/h | 13430m | 3.7m/s | -52.7°C | 2.5% | 162.3hPa | 2.7V | 00:00:00 | 00:00:00 | 00:00:00 | |
| DB0UT-7 | 2026-09-01 17:29:10 | 49.71534 | 7.98748 | 80° | 71km/h | 13412m | 4.9m/s | -52.7°C | 5.0% | 162.7hPa | 2.7V | 00:00:00 | 00:59:27 | 00:00:00 | |
| DF1GD-15 | 2026-09-01 17:29:09 | 49.71534 | 7.98748 | 80° | 73km/h | 13412m | 5.0m/s | -52.7°C | 2.6% | 162.8hPa | 2.7V | 00:00:00 | 00:00:00 | 00:00:00 | |
| DN1GJH-1 | 2026-09-01 17:29:08 | 49.71530 | 7.98720 | 80° | 73km/h | 13407m | 3.9m/s | -52.7°C | 2.6% | 162.8hPa | 2.7V | 04:19:00 | 00:00:00 | 00:00:00 | |
| HEMX73-11 | 2026-09-01 17:29:07 | 49.71526 | 7.98692 | 79° | 73km/h | 13403m | 5.3m/s | -52.7°C | 2.5% | 162.9hPa | 2.7V | 04:19:00 | 00:00:00 | 00:00:00 | |
| DM0DOS-11 | 2026-09-01 17:29:06 | 49.71500 | 7.98504 | 77° | 66km/h | 13370m | 3.7m/s | -52.7°C | 5% | 163.8hPa | 2.7V | 04:19:00 | 00:59:18 | 00:00:00 | |
| BIOWL1-15 | 2026-09-01 17:29:06 | 49.71515 | 7.98609 | 79° | 71km/h | 13388m | 4.6m/s | -52.7°C | 2.6% | 163.3hPa | 2.7V | 04:19:39 | 00:59:22 | 00:00:00 | |
| BIOWL1-15 | 2026-09-01 17:28:57 | 49.71482 | 7.98345 | 82° | 75km/h | 13340m | 4.1m/s | -52.6°C | 2.6% | 164.5hPa | 2.6V | 04:19:39 | 00:59:12 | 00:00:00 | |
| DM0DOS-11 | 2026-09-01 17:28:56 | 49.71471 | 7.98231 | 79° | 73km/h | 13322m | 4.5m/s | -52.6°C | 5.2% | 165hPa | 2.8V | 04:19:10 | 00:59:08 | 00:00:00 | |
| DB0ND-19 | 2026-09-01 17:28:55 | 49.71482 | 7.98345 | 82° | 75km/h | 13340m | 4.1m/s | -52.6°C | 2.6% | 164.5hPa | 2.7V | 00:00:00 | 00:00:00 | 00:00:00 | |
| DO1YAY-16 | 2026-09-01 17:28:50 | 49.71468 | 7.98203 | 79° | 71km/h | 13318m | 4.2m/s | -52.7°C | 2.7% | 165.1hPa | 2.7V | 00:00:00 | 00:00:00 | 00:00:00 | |
| DK5PH-5 | 2026-09-01 17:28:49 | 49.71464 | 7.98176 | 80° | 71km/h | 13313m | 4.9m/s | -52.7°C | 5.2% | 165.2hPa | 2.7V | 00:00:00 | 00:59:06 | 00:00:00 | |
| DF1GD-15 | 2026-09-01 17:28:48 | 49.71464 | 7.98176 | 80° | 69km/h | 13313m | 5.0m/s | -52.7°C | 2.7% | 165.3hPa | 2.7V | 00:00:00 | 00:00:00 | 00:00:00 | |
| DN1GJH-1 | 2026-09-01 17:28:47 | 49.71461 | 7.98150 | 81° | 68km/h | 13308m | 4.4m/s | -52.7°C | 0% | 0hPa | 2.7V | 04:19:00 | 00:00:00 | 00:00:00 | |
| DM7RM-13 | 2026-09-01 17:28:46 | 49.71458 | 7.98124 | 81° | 68km/h | 13304m | 4.6m/s | -52.7°C | 2.7% | 165.5hPa | 2.7V | 04:19:00 | 00:00:00 | 00:00:00 | |
| DM0DOS-11 | 2026-09-01 17:28:45 | 49.71444 | 7.97961 | 83° | 75km/h | 13275m | 3.9m/s | -52.7°C | 5.1% | 166.2hPa | 2.7V | 04:19:20 | 00:58:58 | 00:00:00 | |
| BIOWL1-15 | 2026-09-01 17:28:44 | 49.71450 | 7.98045 | 83° | 69km/h | 13290m | 4.8m/s | -52.8°C | 2.7% | 165.9hPa | 2.8V | 04:19:39 | 00:59:01 | 00:00:00 | |
| BIOWL1-15 | 2026-09-01 17:28:37 | 49.71420 | 7.97735 | 78° | 71km/h | 13237m | 3.8m/s | -52.8°C | 2.9% | 167.2hPa | 2.8V | 04:19:39 | 00:58:50 | 00:00:00 | |
| DM0DOS-11 | 2026-09-01 17:28:35 | 49.71413 | 7.97681 | 79° | 69km/h | 13227m | 4.2m/s | -52.9°C | 5.4% | 167.5hPa | 2.7V | 04:19:30 | 00:58:48 | 00:00:00 | |
| DF3TZ-5 | 2026-09-01 17:28:33 | 49.71420 | 7.97735 | 77° | 71km/h | 13237m | 3.8m/s | -52.8°C | 2.7% | 167.2hPa | 2.8V | 00:00:00 | 00:00:00 | 00:00:00 | |
| DO3MHA-11 | 2026-09-01 17:28:32 | 49.71416 | 7.97708 | 79° | 69km/h | 13232m | 5.8m/s | -52.8°C | 5.3% | 167.3hPa | 2.8V | 00:00:00 | 00:58:49 | 00:00:00 | |
| CB1BUN | 2026-09-01 17:28:31 | 49.71412 | 7.97681 | 80° | 69km/h | 13227m | 4.2m/s | -52.9°C | 2.8% | 167.5hPa | 2.8V | 04:19:00 | 00:00:00 | 00:00:00 | |
| SFWM-10 | 2026-09-01 17:28:30 | 49.71412 | 7.97681 | 80° | 69km/h | 13227m | 4.2m/s | -52.9°C | 0% | 0hPa | 2.8V | 00:00:00 | 00:00:00 | 00:00:00 | |
| DB0UT-9 | 2026-09-01 17:28:29 | 49.71409 | 7.97654 | 80° | 69km/h | 13223m | 5.7m/s | -52.9°C | 2.9% | 167.7hPa | 2.8V | 04:19:00 | 00:00:00 | 00:00:00 | |
| DN1GJH-1 | 2026-09-01 17:28:27 | 49.71403 | 7.97601 | 81° | 68km/h | 13213m | 4.9m/s | 0°C | 0% | 0hPa | 2.8V | 04:19:00 | 00:00:00 | 00:00:00 | |
| DM0DOS-11 | 2026-09-01 17:28:25 | 49.71384 | 7.97417 | 79° | 73km/h | 13181m | 4.9m/s | -52.9°C | 5.5% | 168.7hPa | 2.8V | 04:19:40 | 00:58:38 | 00:00:00 | |
| BIOWL1-15 | 2026-09-01 17:28:23 | 49.71390 | 7.97472 | 81° | 69km/h | 13191m | 5.3m/s | -52.9°C | 3% | 168.4hPa | 2.7V | 04:19:39 | 00:58:40 | 00:00:00 | |
| DJ2KF-10 | 2026-09-01 17:28:23 | 49.71390 | 7.97471 | 82° | 68km/h | 13191m | 5.3m/s | -52.9°C | 5.4% | 168.4hPa | 2.7V | 00:00:00 | 00:58:40 | 00:00:00 | |
| DO3MHA-11 | 2026-09-01 17:28:22 | 49.71387 | 7.97444 | 82° | 71km/h | 13186m | 4.5m/s | -52.8°C | 5.4% | 168.5hPa | 2.7V | 00:00:00 | 00:58:39 | 00:00:00 | |
| DJ2DS-15 | 2026-09-01 17:28:20 | 49.71381 | 7.97389 | 79° | 68km/h | 13177m | 5.0m/s | -52.9°C | 5.4% | 168.8hPa | 2.7V | 00:00:00 | 00:58:37 | 00:00:00 | |
| DK5PH-5 | 2026-09-01 17:28:19 | 49.71377 | 7.97360 | 79° | 66km/h | 13172m | 5.3m/s | -52.9°C | 5.5% | 168.9hPa | 2.7V | 04:19:00 | 00:58:36 | 00:00:00 | |
| DB0NH | 2026-09-01 17:28:18 | 49.71373 | 7.97332 | 80° | 66km/h | 13167m | 4.3m/s | -52.8°C | 5.5% | 169.0hPa | 2.7V | 04:19:00 | 00:58:35 | 00:00:00 | |
| NBG1-10 | 2026-09-01 17:28:17 | 49.71370 | 7.97305 | 79° | 66km/h | 13162m | 4.3m/s | -52.8°C | 5.4% | 169.2hPa | 2.8V | 04:19:00 | 00:58:34 | 00:00:00 | |
| DM0DOS-11 | 2026-09-01 17:28:15 | 49.71350 | 7.97151 | 80° | 66km/h | 13132m | 5.5m/s | -52.7°C | 5.4% | 170hPa | 2.8V | 04:19:50 | 00:58:28 | 00:00:00 | |
| BIOWL1-15 | 2026-09-01 17:28:12 | 49.71352 | 7.97176 | 81° | 64km/h | 13137m | 5.1m/s | -52.7°C | 3.1% | 169.8hPa | 2.8V | 04:20:30 | 00:58:29 | 00:00:00 | |
| DO3MHA-11 | 2026-09-01 17:28:12 | 49.71352 | 7.97176 | 81° | 68km/h | 13137m | 5.0m/s | -52.6°C | 5.4% | 169.8hPa | 2.7V | 04:19:00 | 00:58:29 | 00:00:00 | |
| CB1BUN | 2026-09-01 17:28:10 | 49.71347 | 7.97125 | 82° | 68km/h | 13128m | 2.7m/s | -52.6°C | 2.9% | 170.2hPa | 2.8V | 04:20:00 | 00:00:00 | 00:00:00 | |
| SFWM-10 | 2026-09-01 17:28:09 | 49.71347 | 7.97125 | 82° | 68km/h | 13128m | 2.7m/s | -52.6°C | 0% | 0hPa | 2.8V | 00:00:00 | 00:00:00 | 00:00:00 | |
| DB0UT-9 | 2026-09-01 17:28:08 | 49.71344 | 7.97100 | 84° | 68km/h | 13124m | 6.3m/s | -52.6°C | 2.8% | 170.2hPa | 2.8V | 04:20:00 | 00:00:00 | 00:00:00 | |
| DN1GJH-1 | 2026-09-01 17:28:07 | 49.71340 | 7.97047 | 84° | 69km/h | 13114m | 5.8m/s | 0°C | 0% | 0hPa | 2.8V | 00:00:00 | 00:00:00 | 00:00:00 | |
| DM0DOS-11 | 2026-09-01 17:28:05 | 49.71327 | 7.96892 | 80° | 64km/h | 13087m | 4.4m/s | -52.7°C | 5.5% | 171.2hPa | 2.8V | 04:20:00 | 00:58:18 | 00:00:00 | |
| BIOWL1-15 | 2026-09-01 17:28:02 | 49.71330 | 7.96917 | 81° | 64km/h | 13091m | 4.7m/s | -52.7°C | 3.3% | 171.1hPa | 2.7V | 04:20:30 | 00:58:19 | 00:00:00 | |
| DO3MHA-11 | 2026-09-01 17:28:02 | 49.71330 | 7.96917 | 81° | 62km/h | 13091m | 4.6m/s | -52.7°C | 5.5% | 171.0hPa | 2.7V | 00:00:00 | 00:58:19 | 00:00:00 | |
| DF2AP-13 | 2026-09-01 17:28:01 | 49.71327 | 7.96892 | 81° | 64km/h | 13087m | 4.3m/s | -52.7°C | 5.5% | 171.1hPa | 2.7V | 00:00:00 | 00:58:18 | 00:00:00 | |
| DJ2DS-15 | 2026-09-01 17:28:00 | 49.71325 | 7.96868 | 81° | 62km/h | 13082m | 5.0m/s | -52.7°C | 5.5% | 171.3hPa | 2.7V | 00:00:00 | 00:58:17 | 00:00:00 | |
| BIOWL7-15 | 2026-09-01 17:27:59 | 49.71325 | 7.96868 | 82° | 62km/h | 13082m | 5.0m/s | -52.8°C | 3.0% | 171.3hPa | 2.7V | 04:20:00 | 00:00:00 | 00:00:00 | |
| DM0DOS-11 | 2026-09-01 17:27:55 | 49.71314 | 7.96650 | 86° | 62km/h | 13039m | 4.9m/s | -52.9°C | 5.8% | 172.5hPa | 2.7V | 04:20:10 | 00:58:08 | 00:00:00 | |
| BIOWL1-15 | 2026-09-01 17:27:52 | 49.71315 | 7.96674 | 87° | 64km/h | 13043m | 4m/s | -52.9°C | 3.6% | 172.4hPa | 2.7V | 04:20:30 | 00:58:09 | 00:00:00 | |
| DJ2DS-15 | 2026-09-01 17:27:49 | 49.71312 | 7.96603 | 84° | 58km/h | 13029m | 4.8m/s | -52.9°C | 3.2% | 172.7hPa | 2.8V | 00:00:00 | 00:00:00 | 00:00:00 | |
| DO1YAY-16 | 2026-09-01 17:27:48 | 49.71310 | 7.96579 | 82° | 60km/h | 13024m | 6.1m/s | -52.9°C | 3.3% | 172.9hPa | 2.8V | 00:00:00 | 00:00:00 | 00:00:00 | |
| DL8DAS-14 | 2026-09-01 17:27:47 | 49.71308 | 7.96556 | 81° | 60km/h | 13019m | 4.0m/s | -52.9°C | 3.2% | 173.0hPa | 2.8V | 00:00:00 | 00:00:00 | 00:00:00 | |
| DM0DOS-11 | 2026-09-01 17:27:45 | 49.71303 | 7.96414 | 92° | 68km/h | 12990m | 4.5m/s | -52.9°C | 6% | 173.8hPa | 2.8V | 04:20:20 | 00:57:58 | 00:00:00 | |
| BIOWL1-15 | 2026-09-01 17:27:43 | 49.71303 | 7.96414 | 93° | 68km/h | 12990m | 4.5m/s | -52.9°C | 4% | 173.8hPa | 2.8V | 04:20:30 | 00:57:58 | 00:00:00 | |
| DO3MHA-11 | 2026-09-01 17:27:42 | 49.71303 | 7.96440 | 92° | 69km/h | 12995m | 4.8m/s | -52.8°C | 6.0% | 173.6hPa | 2.7V | 00:00:00 | 00:57:59 | 00:00:00 | |
| DF7PN | 2026-09-01 17:27:41 | 49.71303 | 7.96414 | 92° | 68km/h | 12990m | 4.5m/s | -52.9°C | 3.4% | 173.8hPa | 2.7V | 00:00:00 | 00:00:00 | 00:00:00 | |
| DJ2DS-15 | 2026-09-01 17:27:40 | 49.71304 | 7.96387 | 95° | 69km/h | 12984m | 6.6m/s | -52.8°C | 6.1% | 173.9hPa | 2.7V | 00:00:00 | 00:57:57 | 00:00:00 | |
| BIOWL7-15 | 2026-09-01 17:27:38 | 49.71306 | 7.96361 | 98° | 68km/h | 12979m | 4.4m/s | -52.8°C | 3.6% | 174.0hPa | 2.8V | 04:20:00 | 00:00:00 | 00:00:00 | |
| BIOWL9-15 | 2026-09-01 17:27:36 | 49.71315 | 7.96253 | 96° | 68km/h | 12959m | 5.5m/s | -52.8°C | 3.7% | 174.6hPa | 2.8V | 00:00:00 | 00:00:00 | 00:00:00 | |
| DM0DOS-11 | 2026-09-01 17:27:35 | 49.71324 | 7.96147 | 98° | 68km/h | 12938m | 5.4m/s | -52.8°C | 6.3% | 175.2hPa | 2.8V | 04:20:30 | 00:57:48 | 00:00:00 | |
| BIOWL1-15 | 2026-09-01 17:27:31 | 49.71324 | 7.96147 | 98° | 68km/h | 12938m | 5.4m/s | -52.8°C | 4.7% | 175.2hPa | 2.8V | 04:20:30 | 00:57:48 | 00:00:00 | |
| DF2AP-13 | 2026-09-01 17:27:31 | 49.71324 | 7.96147 | 99° | 80km/h | 12938m | 5.4m/s | -52.8°C | 6.3% | 175.1hPa | 2.7V | 04:20:00 | 00:57:48 | 00:00:00 | |
| DD1CC8 | 2026-09-01 17:27:30 | 49.71326 | 7.96121 | 95° | 64km/h | 12932m | 6.9m/s | -52.9°C | 3.8% | 175.3hPa | 2.7V | 00:00:00 | 00:00:00 | 00:00:00 | |
| CB1BUN | 2026-09-01 17:27:28 | 49.71327 | 7.96096 | 96° | 66km/h | 12927m | 3.4m/s | -52.9°C | 3.9% | 175.4hPa | 2.7V | 04:21:00 | 00:00:00 | 00:00:00 | |
| SFWM-10 | 2026-09-01 17:27:27 | 49.71329 | 7.96070 | 96° | 68km/h | 12922m | 5.4m/s | 0°C | 0% | 0hPa | 2.7V | 00:00:00 | 00:00:00 | 00:00:00 | |
| DM0DOS-11 | 2026-09-01 17:27:25 | 49.71345 | 7.95873 | 96° | 77km/h | 12888m | 5.2m/s | -53.2°C | 7.1% | 176.5hPa | 2.7V | 04:20:40 | 00:57:38 | 00:00:00 | |
| BIOWL1-15 | 2026-09-01 17:27:20 | 49.71347 | 7.95843 | 96° | 78km/h | 12883m | 3.4m/s | -53.2°C | 5.7% | 176.7hPa | 2.7V | 04:21:21 | 00:57:37 | 00:00:00 | |
| DJ2DS-15 | 2026-09-01 17:27:20 | 49.71347 | 7.95843 | 96° | 86km/h | 12883m | 3.4m/s | -53.1°C | 7.1% | 176.6hPa | 2.8V | 00:00:00 | 00:57:37 | 00:00:00 | |
| DK5PH-5 | 2026-09-01 17:27:19 | 49.71349 | 7.95812 | 96° | 89km/h | 12879m | 4.8m/s | -53.2°C | 7.1% | 176.7hPa | 2.8V | 00:00:00 | 00:57:36 | 00:00:00 | |
| DB0NH | 2026-09-01 17:27:18 | 49.71351 | 7.95782 | 96° | 89km/h | 12875m | 4.4m/s | -53.2°C | 7.2% | 176.8hPa | 2.8V | 00:00:00 | 00:57:35 | 00:00:00 | |
| DO1YAY-16 | 2026-09-01 17:27:17 | 49.71353 | 7.95751 | 96° | 78km/h | 12870m | 3.9m/s | -53.3°C | 4.6% | 177.0hPa | 2.8V | 00:00:00 | 00:00:00 | 00:00:00 | |
| DL8DAS-14 | 2026-09-01 17:27:16 | 49.71355 | 7.95720 | 96° | 80km/h | 12866m | 5.2m/s | -53.3°C | 4.6% | 177.2hPa | 2.8V | 00:00:00 | 00:00:00 | 00:00:00 | |
| DM0DOS-11 | 2026-09-01 17:27:15 | 49.71370 | 7.95558 | 99° | 88km/h | 12843m | 4.7m/s | -53.5°C | 7.6% | 177.8hPa | 2.8V | 04:20:50 | 00:57:28 | 00:00:00 | |
| BIOWL1-15 | 2026-09-01 17:27:09 | 49.71377 | 7.95491 | 100° | 86km/h | 12834m | 4.9m/s | -53.8°C | 6.5% | 178.1hPa | 2.7V | 04:21:21 | 00:57:26 | 00:00:00 | |
| CB1BUN | 2026-09-01 17:27:07 | 49.71381 | 7.95458 | 100° | 86km/h | 12830m | 3.8m/s | -53.8°C | 5.0% | 178.1hPa | 2.8V | 04:21:00 | 00:00:00 | 00:00:00 | |
| DB0UT-9 | 2026-09-01 17:27:06 | 49.71384 | 7.95425 | 100° | 88km/h | 12825m | 5.3m/s | -53.9°C | 5.1% | 178.3hPa | 2.8V | 04:21:00 | 00:00:00 | 00:00:00 | |
| DM0DOS-11 | 2026-09-01 17:27:05 | 49.71401 | 7.95212 | 94° | 97km/h | 12797m | 4.6m/s | -54°C | 8.2% | 179hPa | 2.8V | 04:21:00 | 00:57:18 | 00:00:00 | |
| BIOWL1-15 | 2026-09-01 17:26:59 | 49.71405 | 7.95138 | 94° | 95km/h | 12788m | 2.9m/s | -54.1°C | 7% | 179.3hPa | 2.8V | 04:21:21 | 00:57:16 | 00:00:00 | |
| DM0DOS-11 | 2026-09-01 17:26:55 | 49.71418 | 7.94845 | 93° | 89km/h | 12752m | 3.9m/s | -54.1°C | 8.5% | 180.3hPa | 2.7V | 04:21:10 | 00:57:08 | 00:00:00 | |
| BIOWL1-15 | 2026-09-01 17:26:48 | 49.71420 | 7.94738 | 90° | 95km/h | 12738m | 4.6m/s | -54°C | 7.3% | 180.7hPa | 2.8V | 04:21:21 | 00:57:05 | 00:00:00 | |
| DO1YAY-16 | 2026-09-01 17:26:46 | 49.71420 | 7.94663 | 88° | 97km/h | 12728m | 5.4m/s | -53.9°C | 5.6% | 181.0hPa | 2.8V | 00:00:00 | 00:00:00 | 00:00:00 | |
| DM0DOS-11 | 2026-09-01 17:26:45 | 49.71415 | 7.94464 | 89° | 102km/h | 12702m | 3.9m/s | -54.2°C | 9% | 181.7hPa | 2.8V | 04:21:20 | 00:56:58 | 00:00:00 | |
| BIOWL1-15 | 2026-09-01 17:26:37 | 49.71413 | 7.94304 | 87° | 100km/h | 12685m | 4.1m/s | -54.3°C | 7.9% | 182.2hPa | 2.8V | 04:22:12 | 00:56:54 | 00:00:00 | |
| DM0DOS-11 | 2026-09-01 17:26:35 | 49.71399 | 7.94069 | 82° | 106km/h | 12655m | 5.6m/s | -54.3°C | 9.2% | 183.1hPa | 2.8V | 04:21:30 | 00:56:48 | 00:00:00 | |
| BIOWL1-15 | 2026-09-01 17:26:27 | 49.71387 | 7.93904 | 83° | 108km/h | 12636m | 4.9m/s | -54.3°C | 8% | 183.6hPa | 2.7V | 04:22:12 | 00:56:44 | 00:00:00 | |
| BIOWL1-15 | 2026-09-01 17:26:17 | 49.71348 | 7.93522 | 79° | 97km/h | 12591m | 4.6m/s | -53.9°C | 8.2% | 184.9hPa | 2.8V | 04:22:12 | 00:56:34 | 00:00:00 | |
| BIOWL1-15 | 2026-09-01 17:26:06 | 49.71295 | 7.93114 | 78° | 95km/h | 12539m | 5.7m/s | -53.7°C | 8.3% | 186.4hPa | 2.8V | 04:22:12 | 00:56:23 | 00:00:00 | |
| DM0DOS-11 | 2026-09-01 17:26:05 | 49.71270 | 7.92930 | 78° | 95km/h | 12517m | 4.6m/s | -53.6°C | 9.7% | 187.1hPa | 2.8V | 04:22:00 | 00:56:18 | 00:00:00 | |
| BIOWL1-15 | 2026-09-01 17:25:56 | 49.71246 | 7.92750 | 78° | 91km/h | 12494m | 4m/s | -53.4°C | 8.7% | 187.7hPa | 2.7V | 04:22:12 | 00:56:13 | 00:00:00 | |
| DM0DOS-11 | 2026-09-01 17:25:55 | 49.71219 | 7.92577 | 76° | 93km/h | 12471m | 5.4m/s | -53.2°C | 9.5% | 188.3hPa | 2.7V | 04:22:10 | 00:56:08 | 00:00:00 | |
| DO3MHA-11 | 2026-09-01 17:25:52 | 49.71224 | 7.92611 | 77° | 91km/h | 12476m | 4.5m/s | -53.2°C | 9.5% | 188.2hPa | 2.7V | 00:00:00 | 00:56:09 | 00:00:00 | |
| DJ2KF-10 | 2026-09-01 17:25:51 | 49.71219 | 7.92577 | 77° | 86km/h | 12472m | 5.4m/s | -53.2°C | 9.5% | 188.3hPa | 2.7V | 00:00:00 | 00:56:08 | 00:00:00 | |
| DO3DL | 2026-09-01 17:25:50 | 49.71219 | 7.92577 | 78° | 93km/h | 12472m | 5.4m/s | -53.3°C | 6.5% | 188.4hPa | 2.8V | 04:22:00 | 00:00:00 | 00:00:00 | |
| DK5PH-5 | 2026-09-01 17:25:49 | 49.71208 | 7.92507 | 77° | 86km/h | 12462m | 5.4m/s | -53.2°C | 9.5% | 188.6hPa | 2.8V | 04:22:00 | 00:56:06 | 00:00:00 | |
| DB0NH | 2026-09-01 17:25:48 | 49.71203 | 7.92473 | 78° | 84km/h | 12457m | 4.8m/s | -53.2°C | 9.6% | 188.7hPa | 2.8V | 04:22:00 | 00:56:05 | 00:00:00 | |
| DM0DOS-11 | 2026-09-01 17:25:45 | 49.71171 | 7.92228 | 80° | 91km/h | 12427m | 4.1m/s | -53°C | 10% | 189.7hPa | 2.8V | 04:22:20 | 00:55:58 | 00:00:00 | |
| BIOWL1-15 | 2026-09-01 17:25:45 | 49.71189 | 7.92367 | 78° | 91km/h | 12444m | 5.3m/s | -53.1°C | 9.1% | 189.2hPa | 2.7V | 04:23:03 | 00:56:02 | 00:00:00 | |
| BIOWL1-15 | 2026-09-01 17:25:36 | 49.71147 | 7.91997 | 80° | 82km/h | 12392m | 4.7m/s | -53.4°C | 10.3% | 190.7hPa | 2.7V | 04:23:03 | 00:55:51 | 00:00:00 | |
| DM0DOS-11 | 2026-09-01 17:25:35 | 49.71134 | 7.91901 | 77° | 82km/h | 12379m | 5.3m/s | -53.5°C | 10.7% | 191.1hPa | 2.8V | 04:22:30 | 00:55:48 | 00:00:00 | |
| DL8DAS-15 | 2026-09-01 17:25:34 | 49.71151 | 7.92029 | 82° | 84km/h | 12397m | 5.5m/s | -53.3°C | 7.5% | 190.5hPa | 2.7V | 04:23:00 | 00:00:00 | 00:00:00 | |
| DO3MHA-11 | 2026-09-01 17:25:32 | 49.71139 | 7.91933 | 78° | 80km/h | 12383m | 2.6m/s | -53.4°C | 10.8% | 190.9hPa | 2.7V | 00:00:00 | 00:55:49 | 00:00:00 | |
| DF2AP-13 | 2026-09-01 17:25:31 | 49.71134 | 7.91901 | 78° | 86km/h | 12380m | 5.3m/s | -53.5°C | 10.7% | 191.0hPa | 2.7V | 00:00:00 | 00:55:48 | 00:00:00 | |
| NBG1-10 | 2026-09-01 17:25:29 | 49.71127 | 7.91838 | 84° | 88km/h | 12369m | 4.4m/s | -53.6°C | 10.9% | 191.4hPa | 2.7V | 04:22:00 | 00:55:46 | 00:00:00 | |
| BIOWL7-15 | 2026-09-01 17:25:28 | 49.71128 | 7.91838 | 85° | 80km/h | 12369m | 4.4m/s | -53.6°C | 7.8% | 191.4hPa | 2.7V | 00:00:00 | 00:00:00 | 00:00:00 | |
| DF3TZ-5 | 2026-09-01 17:25:27 | 49.71124 | 7.91776 | 84° | 80km/h | 12360m | 5.2m/s | -53.7°C | 7.9% | 191.6hPa | 2.7V | 00:00:00 | 00:00:00 | 00:00:00 | |
| DD1CC8 | 2026-09-01 17:25:26 | 49.71122 | 7.91745 | 85° | 78km/h | 12356m | 4.3m/s | -53.7°C | 7.9% | 191.8hPa | 2.7V | 00:00:00 | 00:00:00 | 00:00:00 | |
| DM0DOS-11 | 2026-09-01 17:25:25 | 49.71114 | 7.91590 | 84° | 86km/h | 12332m | 4.8m/s | -53.8°C | 11.4% | 192.4hPa | 2.7V | 04:22:40 | 00:55:38 | 00:00:00 | |
| BIOWL1-15 | 2026-09-01 17:25:24 | 49.71119 | 7.91684 | 86° | 77km/h | 12345m | 4m/s | -53.7°C | 11.1% | 192.1hPa | 2.8V | 04:23:03 | 00:55:41 | 00:00:00 | |
| DB0UT-9 | 2026-09-01 17:25:23 | 49.71119 | 7.91684 | 87° | 77km/h | 12345m | 4.0m/s | -53.7°C | 8.1% | 192.1hPa | 2.7V | 04:23:00 | 00:00:00 | 00:00:00 | |
| DO3MHA-11 | 2026-09-01 17:25:22 | 49.71115 | 7.91622 | 85° | 88km/h | 12336m | 3.1m/s | -53.7°C | 11.5% | 192.3hPa | 2.7V | 00:00:00 | 00:55:39 | 00:00:00 | |
| DJ2KF-10 | 2026-09-01 17:25:21 | 49.71113 | 7.91590 | 85° | 91km/h | 12332m | 4.8m/s | -53.7°C | 11.4% | 192.4hPa | 2.7V | 00:00:00 | 00:55:38 | 00:00:00 | |
| DM7RM-13 | 2026-09-01 17:25:20 | 49.71114 | 7.91590 | 86° | 86km/h | 12332m | 4.8m/s | -53.8°C | 8.3% | 192.5hPa | 2.7V | 04:23:00 | 00:00:00 | 00:00:00 | |
| DK5PH-5 | 2026-09-01 17:25:19 | 49.71110 | 7.91521 | 87° | 91km/h | 12323m | 4.1m/s | -53.8°C | 11.7% | 192.7hPa | 2.7V | 00:00:00 | 00:55:36 | 00:00:00 | |
| DB0ND-19 | 2026-09-01 17:25:18 | 49.71107 | 7.91451 | 85° | 89km/h | 12314m | 3.8m/s | -53.8°C | 8.7% | 193.0hPa | 2.7V | 00:00:00 | 00:00:00 | 00:00:00 | |
| DB0NH | 2026-09-01 17:25:17 | 49.71107 | 7.91451 | 86° | 91km/h | 12314m | 3.7m/s | -53.7°C | 12.0% | 193.0hPa | 2.7V | 00:00:00 | 00:55:34 | 00:00:00 | |
| DL0LBS | 2026-09-01 17:25:16 | 49.71107 | 7.91451 | 87° | 91km/h | 12314m | 3.8m/s | -53.8°C | 8.8% | 193.0hPa | 2.8V | 04:23:00 | 00:00:00 | 00:00:00 | |
| DM0DOS-11 | 2026-09-01 17:25:15 | 49.71102 | 7.91250 | 88° | 84km/h | 12289m | 4.3m/s | -53.8°C | 12.2% | 193.8hPa | 2.8V | 04:22:50 | 00:55:28 | 00:00:00 | |
| BIOWL1-15 | 2026-09-01 17:25:15 | 49.71104 | 7.91315 | 88° | 84km/h | 12297m | 4.7m/s | -53.7°C | 12.1% | 193.6hPa | 2.7V | 04:23:03 | 00:55:30 | 00:00:00 | |
| DL9PN | 2026-09-01 17:25:13 | 49.71103 | 7.91283 | 87° | 82km/h | 12293m | 3.0m/s | -53.8°C | 8.9% | 193.7hPa | 2.7V | 00:00:00 | 00:00:00 | 00:00:00 | |
| DO3MHA-11 | 2026-09-01 17:25:12 | 49.71103 | 7.91282 | 88° | 89km/h | 12293m | 3.0m/s | -53.7°C | 12.2% | 193.7hPa | 2.7V | 00:00:00 | 00:55:29 | 00:00:00 | |
| DB0UT-7 | 2026-09-01 17:25:10 | 49.71102 | 7.91217 | 90° | 91km/h | 12285m | 4.1m/s | -53.8°C | 12.2% | 193.9hPa | 2.8V | 00:00:00 | 00:55:27 | 00:00:00 | |
| DO3DL | 2026-09-01 17:25:09 | 49.71102 | 7.91217 | 90° | 84km/h | 12285m | 4.1m/s | -53.8°C | 9.0% | 193.9hPa | 2.8V | 04:23:00 | 00:00:00 | 00:00:00 | |
| BIOWL7-15 | 2026-09-01 17:25:07 | 49.71101 | 7.91150 | 89° | 88km/h | 12276m | 3.9m/s | -54.0°C | 9.2% | 194.2hPa | 2.8V | 00:00:00 | 00:00:00 | 00:00:00 | |
| DF7PN | 2026-09-01 17:25:06 | 49.71100 | 7.91081 | 89° | 89km/h | 12266m | 4.4m/s | -54.1°C | 9.2% | 194.5hPa | 2.8V | 00:00:00 | 00:00:00 | 00:00:00 | |
| DM0DOS-11 | 2026-09-01 17:25:05 | 49.71099 | 7.90897 | 88° | 97km/h | 12242m | 5.6m/s | -54.1°C | 12.8% | 195.3hPa | 2.8V | 04:23:00 | 00:55:18 | 00:00:00 | |
| BIOWL1-15 | 2026-09-01 17:25:04 | 49.71100 | 7.90935 | 90° | 97km/h | 12247m | 4m/s | -54.2°C | 13.3% | 195.1hPa | 2.8V | 04:23:03 | 00:55:19 | 00:00:00 | |
| DB0UT-9 | 2026-09-01 17:25:03 | 49.71100 | 7.91009 | 90° | 95km/h | 12256m | 3.8m/s | -54.2°C | 9.4% | 194.8hPa | 2.7V | 04:23:00 | 00:00:00 | 00:00:00 | |
| DO3MHA-11 | 2026-09-01 17:25:02 | 49.71099 | 7.90935 | 90° | 93km/h | 12247m | 4.0m/s | -54.1°C | 12.9% | 195.0hPa | 2.7V | 00:00:00 | 00:55:19 | 00:00:00 | |
| DF2AP-13 | 2026-09-01 17:25:01 | 49.71099 | 7.90897 | 89° | 91km/h | 12243m | 5.5m/s | -54.1°C | 12.8% | 195.2hPa | 2.7V | 04:23:00 | 00:55:18 | 00:00:00 | |
| DM7RM-13 | 2026-09-01 17:24:59 | 49.71098 | 7.90860 | 87° | 97km/h | 12237m | 4.5m/s | -54.2°C | 9.8% | 195.4hPa | 2.7V | 04:23:00 | 00:00:00 | 00:00:00 | |
| DF1GD-15 | 2026-09-01 17:24:57 | 49.71094 | 7.90786 | 85° | 93km/h | 12229m | 4.8m/s | -54.1°C | 9.9% | 195.6hPa | 2.7V | 04:23:00 | 00:00:00 | 00:00:00 | |
| NBG1-10 | 2026-09-01 17:24:56 | 49.71087 | 7.90715 | 82° | 93km/h | 12220m | 4.2m/s | -54.0°C | 13.3% | 195.9hPa | 2.7V | 00:00:00 | 00:55:13 | 00:00:00 | |
| DM0DOS-11 | 2026-09-01 17:24:55 | 49.71073 | 7.90535 | 85° | 95km/h | 12198m | 4.5m/s | -54.2°C | 14% | 196.6hPa | 2.7V | 04:23:10 | 00:55:08 | 00:00:00 | |
| BIOWL1-15 | 2026-09-01 17:24:53 | 49.71073 | 7.90535 | 85° | 95km/h | 12198m | 4.5m/s | -54.3°C | 15.4% | 196.6hPa | 2.7V | 04:23:54 | 00:55:08 | 00:00:00 | |
| DB0ND-19 | 2026-09-01 17:24:47 | 49.71063 | 7.90354 | 85° | 88km/h | 12176m | 4.3m/s | -54.8°C | 12.2% | 197.2hPa | 2.8V | 00:00:00 | 00:00:00 | 00:00:00 | |
| DM0DOS-11 | 2026-09-01 17:24:45 | 49.71051 | 7.90180 | 80° | 89km/h | 12154m | 3.9m/s | -55.3°C | 17.4% | 197.9hPa | 2.8V | 04:23:20 | 00:54:58 | 00:00:00 | |
| BIOWL1-15 | 2026-09-01 17:24:41 | 49.71051 | 7.90180 | 81° | 89km/h | 12154m | 3.9m/s | -55.3°C | 18.9% | 197.9hPa | 2.8V | 04:23:54 | 00:54:58 | 00:00:00 | |
| DB0UT-7 | 2026-09-01 17:24:40 | 49.71047 | 7.90146 | 82° | 99km/h | 12149m | 5.4m/s | -55.3°C | 17.6% | 198.0hPa | 2.8V | 04:23:00 | 00:00:00 | 00:00:00 | |
| HEMX73-11 | 2026-09-01 17:24:39 | 49.71047 | 7.90146 | 82° | 89km/h | 12149m | 5.4m/s | -55.3°C | 13.8% | 198.1hPa | 2.8V | 04:23:00 | 00:00:00 | 00:00:00 | |
| DM7RM-13 | 2026-09-01 17:24:38 | 49.71044 | 7.90111 | 82° | 89km/h | 12145m | 3.8m/s | -55.4°C | 14.1% | 198.2hPa | 2.8V | 04:23:00 | 00:00:00 | 00:00:00 | |
| SFWM-10 | 2026-09-01 17:24:37 | 49.71040 | 7.90077 | 81° | 89km/h | 12140m | 5.6m/s | 0°C | 0% | 0hPa | 2.8V | 00:00:00 | 00:00:00 | 00:00:00 | |
| DF1GD-15 | 2026-09-01 17:24:36 | 49.71036 | 7.90043 | 82° | 88km/h | 12136m | 3.0m/s | -55.7°C | 15.0% | 198.5hPa | 2.8V | 00:00:00 | 00:00:00 | 00:00:00 | |
| DM0DOS-11 | 2026-09-01 17:24:35 | 49.71024 | 7.89832 | 87° | 93km/h | 12109m | 4.5m/s | -55.9°C | 20.7% | 199.3hPa | 2.8V | 04:23:30 | 00:54:48 | 00:00:00 | |
| BIOWL1-15 | 2026-09-01 17:24:32 | 49.71022 | 7.89795 | 87° | 95km/h | 12104m | 5.7m/s | -55.9°C | 23% | 199.5hPa | 2.8V | 04:23:54 | 00:54:47 | 00:00:00 | |
| DO3MHA-11 | 2026-09-01 17:24:32 | 49.71025 | 7.89868 | 88° | 97km/h | 12114m | 4.2m/s | -55.8°C | 20.5% | 199.2hPa | 2.7V | 00:00:00 | 00:54:49 | 00:00:00 | |
| DF2AP-13 | 2026-09-01 17:24:31 | 49.71023 | 7.89832 | 88° | 104km/h | 12109m | 4.5m/s | -55.8°C | 20.7% | 199.3hPa | 2.7V | 00:00:00 | 00:54:48 | 00:00:00 | |
| DO3DL | 2026-09-01 17:24:30 | 49.71023 | 7.89832 | 89° | 93km/h | 12109m | 4.5m/s | -55.9°C | 16.5% | 199.3hPa | 2.7V | 00:00:00 | 00:00:00 | 00:00:00 | |
| BIOWL7-15 | 2026-09-01 17:24:26 | 49.71017 | 7.89685 | 86° | 95km/h | 12090m | 4.0m/s | -56.4°C | 18.3% | 199.9hPa | 2.7V | 00:00:00 | 00:00:00 | 00:00:00 | |
| DM0DOS-11 | 2026-09-01 17:24:25 | 49.71009 | 7.89454 | 88° | 102km/h | 12063m | 5.5m/s | -56.7°C | 25.1% | 200.8hPa | 2.7V | 04:23:40 | 00:54:38 | 00:00:00 | |
| BIOWL1-15 | 2026-09-01 17:24:19 | 49.71008 | 7.89374 | 89° | 102km/h | 12054m | 5.3m/s | -56.7°C | 26.9% | 201hPa | 2.8V | 04:23:54 | 00:54:36 | 00:00:00 | |
| DK5PH-5 | 2026-09-01 17:24:19 | 49.71008 | 7.89373 | 89° | 110km/h | 12054m | 5.2m/s | -56.7°C | 25.4% | 201.0hPa | 2.7V | 00:00:00 | 00:54:36 | 00:00:00 | |
| DO3DL | 2026-09-01 17:24:18 | 49.71007 | 7.89334 | 89° | 104km/h | 12050m | 3.8m/s | -56.8°C | 21.0% | 201.2hPa | 2.7V | 00:00:00 | 00:00:00 | 00:00:00 | |
| DB0ND-19 | 2026-09-01 17:24:16 | 49.71002 | 7.89211 | 85° | 106km/h | 12035m | 4.7m/s | -57.0°C | 22.4% | 201.7hPa | 2.7V | 00:00:00 | 00:00:00 | 00:00:00 | |
| DM0DOS-11 | 2026-09-01 17:24:15 | 49.70993 | 7.89039 | 84° | 115km/h | 12018m | 5.3m/s | -57.2°C | 28.5% | 202.2hPa | 2.7V | 04:23:50 | 00:54:28 | 00:00:00 | |
| BIOWL1-15 | 2026-09-01 17:24:11 | 49.70988 | 7.88951 | 86° | 113km/h | 12010m | 3.7m/s | -57.2°C | 29.8% | 202.4hPa | 2.8V | 04:23:54 | 00:54:26 | 00:00:00 | |
| DL9PN | 2026-09-01 17:24:11 | 49.70990 | 7.88994 | 85° | 111km/h | 12014m | 3.7m/s | -57.2°C | 24.1% | 202.4hPa | 2.7V | 00:00:00 | 00:00:00 | 00:00:00 | |
| DL8DAS-14 | 2026-09-01 17:24:10 | 49.70988 | 7.88951 | 86° | 111km/h | 12010m | 3.7m/s | -57.2°C | 23.7% | 202.4hPa | 2.7V | 00:00:00 | 00:00:00 | 00:00:00 | |
| AU51GT2 | 2026-09-01 17:24:06 | 49.70983 | 7.88822 | 86° | 106km/h | 11995m | 5.4m/s | -57.2°C | 24.2% | 203.0hPa | 2.7V | 00:00:00 | 00:00:00 | 00:00:00 | |
| DM0DOS-11 | 2026-09-01 17:24:05 | 49.70979 | 7.88617 | 89° | 104km/h | 11972m | 4.5m/s | -57.1°C | 31.1% | 203.7hPa | 2.7V | 04:24:00 | 00:54:18 | 00:00:00 | |
| BIOWL1-15 | 2026-09-01 17:23:59 | 49.70978 | 7.88533 | 89° | 111km/h | 11963m | 5.2m/s | -57.1°C | 32.8% | 204hPa | 2.8V | 04:24:45 | 00:54:16 | 00:00:00 | |
| BIOWL9-15 | 2026-09-01 17:23:58 | 49.70977 | 7.88489 | 87° | 113km/h | 11958m | 4.0m/s | -57.1°C | 27.2% | 204.1hPa | 2.8V | 00:00:00 | 00:00:00 | 00:00:00 | |
| DB0NH | 2026-09-01 17:23:57 | 49.70975 | 7.88444 | 88° | 120km/h | 11953m | 6.6m/s | -57.1°C | 33.2% | 0hPa | 2.8V | 00:00:00 | 00:54:14 | 00:00:00 | |
| DM0DOS-11 | 2026-09-01 17:23:56 | 49.70967 | 7.88173 | 89° | 115km/h | 11922m | 2.2m/s | -57.2°C | 33.8% | 205.3hPa | 2.8V | 04:24:10 | 00:54:08 | 00:00:00 | |
| BIOWL1-15 | 2026-09-01 17:23:48 | 49.70967 | 7.88037 | 88° | 119km/h | 11907m | 4.8m/s | -57.3°C | 35.9% | 205.8hPa | 2.7V | 04:24:45 | 00:54:05 | 00:00:00 | |
| DL8DAS-15 | 2026-09-01 17:23:47 | 49.70967 | 7.88037 | 89° | 119km/h | 11907m | 4.8m/s | -57.3°C | 28.9% | 205.8hPa | 2.8V | 00:00:00 | 00:00:00 | 00:00:00 | |
| DM0DOS-11 | 2026-09-01 17:23:46 | 49.70951 | 7.87708 | 83° | 122km/h | 11873m | 4.7m/s | -57.5°C | 36.3% | 206.9hPa | 2.8V | 04:24:20 | 00:53:58 | 00:00:00 | |
| BIOWL1-15 | 2026-09-01 17:23:37 | 49.70938 | 7.87517 | 83° | 124km/h | 11853m | 4.3m/s | -57.7°C | 38.8% | 207.6hPa | 2.8V | 04:24:45 | 00:53:54 | 00:00:00 | |
| DM7RM-13 | 2026-09-01 17:23:37 | 49.70938 | 7.87517 | 84° | 124km/h | 11853m | 4.3m/s | -57.7°C | 32.9% | 207.6hPa | 2.8V | 04:24:00 | 00:00:00 | 00:00:00 | |
| DM0DOS-11 | 2026-09-01 17:23:36 | 49.70913 | 7.87242 | 81° | 113km/h | 11826m | 5.2m/s | -57.6°C | 39.7% | 208.4hPa | 2.8V | 04:24:30 | 00:53:48 | 00:00:00 | |
| BIOWL1-15 | 2026-09-01 17:23:29 | 49.70894 | 7.87063 | 82° | 119km/h | 11808m | 4.3m/s | -57.5°C | 40.6% | 209.1hPa | 2.8V | 04:24:45 | 00:53:44 | 00:00:00 | |
| BIOWL9-15 | 2026-09-01 17:23:27 | 49.70894 | 7.87063 | 81° | 119km/h | 11808m | 4.3m/s | -57.5°C | 34.4% | 209.1hPa | 2.8V | 00:00:00 | 00:00:00 | 00:00:00 | |
| DM0DOS-11 | 2026-09-01 17:23:26 | 49.70863 | 7.86781 | 78° | 124km/h | 11781m | 5.9m/s | -57.5°C | 42% | 209.9hPa | 2.8V | 04:24:40 | 00:53:38 | 00:00:00 | |
| BIOWL1-15 | 2026-09-01 17:23:17 | 49.70839 | 7.86593 | 79° | 120km/h | 11763m | 5.4m/s | -57.4°C | 42.9% | 210.5hPa | 2.7V | 04:24:45 | 00:53:34 | 00:00:00 | |
| BIOWL1-15 | 2026-09-01 17:23:07 | 49.70781 | 7.86136 | 78° | 119km/h | 11718m | 3.3m/s | -57.3°C | 46.5% | 212hPa | 2.7V | 04:25:36 | 00:53:24 | 00:00:00 | |
| BIOWL1-15 | 2026-09-01 17:22:56 | 49.70720 | 7.85644 | 82° | 115km/h | 11667m | 3.8m/s | -57.8°C | 51.2% | 213.7hPa | 2.7V | 04:25:36 | 00:53:13 | 00:00:00 | |
| DM7RM-13 | 2026-09-01 17:22:55 | 49.70720 | 7.85644 | 83° | 115km/h | 11667m | 3.8m/s | -57.8°C | 44.1% | 213.7hPa | 2.7V | 04:25:00 | 00:00:00 | 00:00:00 | |
| DM0DOS-11 | 2026-09-01 17:22:54 | 49.70701 | 7.85421 | 82° | 115km/h | 11644m | 5.5m/s | -57.9°C | 52.9% | 214.5hPa | 2.7V | 04:25:10 | 00:53:08 | 00:00:00 | |
| DF1GD-15 | 2026-09-01 17:22:53 | 49.70712 | 7.85555 | 83° | 115km/h | 11658m | 4.1m/s | -57.9°C | 44.8% | 214.1hPa | 2.7V | 04:25:00 | 00:00:00 | 00:00:00 | |
| DJ2DS-15 | 2026-09-01 17:22:52 | 49.70704 | 7.85465 | 84° | 115km/h | 11649m | 3.7m/s | 0°C | 0% | 0hPa | 2.7V | 00:00:00 | 00:53:09 | 00:00:00 | |
| DO3MHA-11 | 2026-09-01 17:22:51 | 49.70701 | 7.85421 | 83° | 115km/h | 11644m | 5.5m/s | -57.8°C | 52.9% | 214.5hPa | 2.7V | 00:00:00 | 00:53:08 | 00:00:00 | |
| DK5PH-5 | 2026-09-01 17:22:49 | 49.70693 | 7.85332 | 83° | 115km/h | 11635m | 5.3m/s | -57.9°C | 55.2% | 214.8hPa | 2.7V | 00:00:00 | 00:53:06 | 00:00:00 | |
| BIOWL1-15 | 2026-09-01 17:22:49 | 49.70681 | 7.85202 | 81° | 111km/h | 11621m | 3.4m/s | -57.9°C | 53.5% | 215.3hPa | 2.7V | 04:25:36 | 00:53:03 | 00:00:00 | |
| DO3DL | 2026-09-01 17:22:47 | 49.70689 | 7.85289 | 83° | 113km/h | 11630m | 3.7m/s | -57.9°C | 49.0% | 215.0hPa | 2.7V | 04:25:00 | 00:00:00 | 00:00:00 | |
| DM0DOS-11 | 2026-09-01 17:22:44 | 49.70660 | 7.84981 | 80° | 117km/h | 11599m | 3.4m/s | -58°C | 55.7% | 216.1hPa | 2.7V | 04:25:20 | 00:52:58 | 00:00:00 | |
| BIOWL1-15 | 2026-09-01 17:22:37 | 49.70629 | 7.84715 | 80° | 115km/h | 11571m | 4.7m/s | -57.8°C | 54.1% | 217hPa | 2.7V | 04:25:36 | 00:52:52 | 00:00:00 | |
| DL8DAS-15 | 2026-09-01 17:22:36 | 49.70639 | 7.84803 | 81° | 113km/h | 11581m | 5.0m/s | -57.9°C | 48.2% | 216.7hPa | 2.8V | 00:00:00 | 00:00:00 | 00:00:00 | |
| DM0DOS-11 | 2026-09-01 17:22:35 | 49.70613 | 7.84538 | 83° | 117km/h | 11553m | 4.6m/s | -57.7°C | 56.8% | 217.6hPa | 2.8V | 04:25:30 | 00:52:48 | 00:00:00 | |
| BIOWL1-15 | 2026-09-01 17:22:25 | 49.70590 | 7.84269 | 81° | 113km/h | 11528m | 4.1m/s | -57.6°C | 55.5% | 218.5hPa | 2.8V | 04:25:36 | 00:52:42 | 00:00:00 | |
| DJ2DS-15 | 2026-09-01 17:22:25 | 49.70590 | 7.84269 | 80° | 113km/h | 11528m | 4.1m/s | -57.6°C | 51.5% | 218.5hPa | 2.8V | 00:00:00 | 00:00:00 | 00:00:00 | |
| DM0DOS-11 | 2026-09-01 17:22:24 | 49.70574 | 7.84096 | 82° | 113km/h | 11510m | 5m/s | -57.5°C | 58.5% | 219.2hPa | 2.8V | 04:25:40 | 00:52:38 | 00:00:00 | |
| BIOWL1-15 | 2026-09-01 17:22:16 | 49.70547 | 7.83781 | 83° | 115km/h | 11478m | 4.7m/s | -57.3°C | 56.1% | 220.3hPa | 2.8V | 04:26:27 | 00:52:31 | 00:00:00 | |
| DD1CC2-15 | 2026-09-01 17:22:15 | 49.70554 | 7.83871 | 84° | 117km/h | 11487m | 5.7m/s | 0°C | 0% | 0hPa | 2.7V | 00:00:00 | 00:00:00 | 00:00:00 | |
| DM0DOS-11 | 2026-09-01 17:22:14 | 49.70537 | 7.83648 | 85° | 113km/h | 11464m | 5.7m/s | -57.2°C | 56.9% | 220.8hPa | 2.7V | 04:25:50 | 00:52:28 | 00:00:00 | |
| BIOWL1-15 | 2026-09-01 17:22:05 | 49.70511 | 7.83303 | 82° | 115km/h | 11429m | 4.6m/s | -56.9°C | 56.5% | 222hPa | 2.8V | 04:26:27 | 00:52:20 | 00:00:00 | |
| DM0DOS-11 | 2026-09-01 17:22:04 | 49.70502 | 7.83211 | 81° | 122km/h | 11419m | 4.5m/s | -56.8°C | 59% | 222.3hPa | 2.8V | 04:26:00 | 00:52:18 | 00:00:00 | |
| BIOWL1-15 | 2026-09-01 17:21:55 | 49.70467 | 7.82840 | 82° | 117km/h | 11382m | 4.6m/s | -56.7°C | 57.3% | 223.6hPa | 2.7V | 04:26:27 | 00:52:10 | 00:00:00 | |
| DM0DOS-11 | 2026-09-01 17:21:54 | 49.70458 | 7.82750 | 80° | 117km/h | 11373m | 4.6m/s | -56.6°C | 59.6% | 223.9hPa | 2.7V | 04:26:10 | 00:52:08 | 00:00:00 | |
| BIOWL9-15 | 2026-09-01 17:21:54 | 49.70471 | 7.82885 | 81° | 117km/h | 11387m | 5.0m/s | -56.7°C | 52.6% | 223.4hPa | 2.8V | 00:00:00 | 00:00:00 | 00:00:00 | |
| DL1ZP-14 | 2026-09-01 17:21:50 | 49.70448 | 7.82660 | 80° | 117km/h | 11365m | 5.5m/s | -56.6°C | 52.8% | 224.2hPa | 2.8V | 00:00:00 | 00:00:00 | 00:00:00 | |
| DD1CC8 | 2026-09-01 17:21:49 | 49.70443 | 7.82615 | 81° | 119km/h | 11360m | 3.8m/s | -56.5°C | 52.9% | 224.4hPa | 2.8V | 00:00:00 | 00:00:00 | 00:00:00 | |
| BIOWL1-15 | 2026-09-01 17:21:45 | 49.70420 | 7.82377 | 82° | 124km/h | 11339m | 3.7m/s | -56.4°C | 57.4% | 225.1hPa | 2.8V | 04:26:27 | 00:52:00 | 00:00:00 | |
| DM0DOS-11 | 2026-09-01 17:21:44 | 49.70410 | 7.82280 | 79° | 126km/h | 11331m | 3.1m/s | -56.3°C | 59.7% | 225.4hPa | 2.7V | 04:26:20 | 00:51:58 | 00:00:00 | |
| DB0ND-19 | 2026-09-01 17:21:41 | 49.70404 | 7.82232 | 79° | 124km/h | 11328m | 4.1m/s | -56.3°C | 52.9% | 225.6hPa | 2.7V | 00:00:00 | 00:00:00 | 00:00:00 | |
| DO3MHA-11 | 2026-09-01 17:21:39 | 49.70399 | 7.82185 | 81° | 119km/h | 11324m | 3.6m/s | -56.2°C | 59.9% | 225.7hPa | 2.7V | 00:00:00 | 00:51:56 | 00:00:00 | |
| NBG1-10 | 2026-09-01 17:21:37 | 49.70388 | 7.82092 | 80° | 115km/h | 11315m | 4.9m/s | -56.2°C | 59.4% | 226.0hPa | 2.8V | 00:00:00 | 00:51:54 | 00:00:00 | |
| DO1YAY-16 | 2026-09-01 17:21:36 | 49.70378 | 7.82001 | 80° | 115km/h | 11306m | 5.3m/s | -56.2°C | 52.7% | 226.3hPa | 2.8V | 00:00:00 | 00:00:00 | 00:00:00 | |
| DL8DAS-14 | 2026-09-01 17:21:35 | 49.70373 | 7.81956 | 80° | 115km/h | 11301m | 3.8m/s | -56.1°C | 52.8% | 226.5hPa | 2.8V | 00:00:00 | 00:00:00 | 00:00:00 | |
| DM0DOS-11 | 2026-09-01 17:21:34 | 49.70358 | 7.81821 | 80° | 117km/h | 11288m | 5.4m/s | -56°C | 59% | 226.9hPa | 2.8V | 04:26:30 | 00:51:48 | 00:00:00 | |
| BIOWL1-15 | 2026-09-01 17:21:33 | 49.70368 | 7.81911 | 80° | 117km/h | 11297m | 5.3m/s | -56.1°C | 57.6% | 226.7hPa | 2.8V | 04:27:18 | 00:51:50 | 00:00:00 | |
| BIOWL1-15 | 2026-09-01 17:21:26 | 49.70315 | 7.81413 | 82° | 115km/h | 11247m | 3.9m/s | -55.8°C | 58.7% | 228.4hPa | 2.7V | 04:27:18 | 00:51:39 | 00:00:00 | |
| DM0DOS-11 | 2026-09-01 17:21:25 | 49.70311 | 7.81368 | 81° | 115km/h | 11243m | 4.1m/s | -55.8°C | 61% | 228.5hPa | 2.7V | 04:26:40 | 00:51:38 | 00:00:00 | |
| BIOWL9-15 | 2026-09-01 17:21:23 | 49.70319 | 7.81458 | 81° | 115km/h | 11252m | 5.1m/s | -55.8°C | 53.9% | 228.2hPa | 2.8V | 00:00:00 | 00:00:00 | 00:00:00 | |
| DJ2KF-10 | 2026-09-01 17:21:21 | 49.70310 | 7.81368 | 82° | 113km/h | 11243m | 4.0m/s | 0°C | 0% | 0hPa | 2.8V | 00:00:00 | 00:51:38 | 00:00:00 | |
| DL1ZP-14 | 2026-09-01 17:21:19 | 49.70297 | 7.81237 | 81° | 111km/h | 11231m | 4.6m/s | -55.7°C | 55.3% | 229.1hPa | 2.8V | 00:00:00 | 00:00:00 | 00:00:00 | |
| DD1CC8 | 2026-09-01 17:21:18 | 49.70297 | 7.81237 | 81° | 111km/h | 11231m | 4.6m/s | -55.7°C | 55.3% | 229.1hPa | 2.8V | 00:00:00 | 00:00:00 | 00:00:00 | |
| DL8DAS-15 | 2026-09-01 17:21:17 | 49.70297 | 7.81237 | 82° | 113km/h | 11231m | 4.6m/s | -55.7°C | 55.3% | 229.1hPa | 2.8V | 00:00:00 | 00:00:00 | 00:00:00 | |
| DJ3KS | 2026-09-01 17:21:15 | 49.70287 | 7.81149 | 81° | 113km/h | 11222m | 4.4m/s | 0°C | 0% | 0hPa | 2.8V | 00:00:00 | 00:00:00 | 00:00:00 | |
| DM0DOS-11 | 2026-09-01 17:21:14 | 49.70264 | 7.80933 | 81° | 111km/h | 11200m | 4.1m/s | -55.5°C | 63.1% | 230.1hPa | 2.8V | 04:26:50 | 00:51:28 | 00:00:00 | |
| BIOWL1-15 | 2026-09-01 17:21:14 | 49.70268 | 7.80976 | 81° | 111km/h | 11204m | 4.7m/s | -55.6°C | 61% | 229.9hPa | 2.8V | 04:27:18 | 00:51:29 | 00:00:00 | |
| BIOWL7-15 | 2026-09-01 17:21:13 | 49.70277 | 7.81063 | 81° | 113km/h | 11214m | 5.5m/s | -55.6°C | 55.9% | 229.6hPa | 2.7V | 04:27:00 | 00:00:00 | 00:00:00 | |
| DM7RM-13 | 2026-09-01 17:21:11 | 49.70268 | 7.80976 | 82° | 111km/h | 11205m | 4.7m/s | -55.5°C | 56.0% | 229.9hPa | 2.7V | 04:27:00 | 00:00:00 | 00:00:00 | |
| DB0ND-19 | 2026-09-01 17:21:10 | 49.70257 | 7.80847 | 83° | 111km/h | 11191m | 3.2m/s | -55.5°C | 57.3% | 230.4hPa | 2.7V | 00:00:00 | 00:00:00 | 00:00:00 | |
| DO3MHA-11 | 2026-09-01 17:21:09 | 49.70257 | 7.80847 | 84° | 110km/h | 11191m | 3.2m/s | -55.5°C | 63.7% | 230.3hPa | 2.7V | 00:00:00 | 00:51:26 | 00:00:00 | |
| DL0LBS | 2026-09-01 17:21:08 | 49.70257 | 7.80847 | 85° | 111km/h | 11191m | 3.2m/s | -55.5°C | 57.3% | 230.4hPa | 2.8V | 04:27:00 | 00:00:00 | 00:00:00 | |
| DO3DL | 2026-09-01 17:21:07 | 49.70254 | 7.80804 | 84° | 111km/h | 11187m | 4.7m/s | -55.5°C | 56.6% | 230.5hPa | 2.8V | 04:27:00 | 00:00:00 | 00:00:00 | |
| DM0DOS-11 | 2026-09-01 17:21:04 | 49.70225 | 7.80509 | 80° | 108km/h | 11156m | 5.5m/s | -55.4°C | 64.9% | 231.6hPa | 2.8V | 04:27:00 | 00:51:18 | 00:00:00 | |
| BIOWL1-15 | 2026-09-01 17:21:01 | 49.70225 | 7.80509 | 81° | 108km/h | 11156m | 5.5m/s | -55.4°C | 63.1% | 231.7hPa | 2.8V | 04:27:18 | 00:51:18 | 00:00:00 | |
| BIOWL1-15 | 2026-09-01 17:20:53 | 49.70188 | 7.80094 | 85° | 111km/h | 11115m | 5.5m/s | -55.2°C | 65.8% | 233.1hPa | 2.8V | 04:27:18 | 00:51:08 | 00:00:00 | |
| DM0DOS-11 | 2026-09-01 17:20:52 | 49.70188 | 7.80094 | 84° | 111km/h | 11115m | 5.5m/s | -55.2°C | 70% | 233.1hPa | 2.8V | 04:27:10 | 00:51:08 | 00:00:00 | |
| DF3TZ-5 | 2026-09-01 17:20:48 | 49.70177 | 7.79922 | 84° | 106km/h | 11095m | 5.2m/s | -55.0°C | 63.2% | 233.9hPa | 2.8V | 00:00:00 | 00:00:00 | 00:00:00 | |
| DD1CC8 | 2026-09-01 17:20:47 | 49.70175 | 7.79881 | 84° | 106km/h | 11090m | 4.6m/s | -55.0°C | 62.6% | 234.0hPa | 2.8V | 00:00:00 | 00:00:00 | 00:00:00 | |
| DM0DOS-11 | 2026-09-01 17:20:42 | 49.70160 | 7.79671 | 83° | 106km/h | 11064m | 7.2m/s | -54.8°C | 67.6% | 235hPa | 2.8V | 04:27:20 | 00:50:58 | 00:00:00 | |
| BIOWL1-15 | 2026-09-01 17:20:42 | 49.70157 | 7.79630 | 83° | 106km/h | 11058m | 4.6m/s | -54.8°C | 65.3% | 235.2hPa | 2.8V | 04:28:09 | 00:50:57 | 00:00:00 | |
| DO3MHA-11 | 2026-09-01 17:20:39 | 49.70154 | 7.79589 | 84° | 108km/h | 11054m | 4.5m/s | -54.7°C | 68.1% | 235.3hPa | 2.7V | 04:27:00 | 00:50:56 | 00:00:00 | |
| DB0ND-19 | 2026-09-01 17:20:38 | 49.70152 | 7.79549 | 84° | 102km/h | 11049m | 4.6m/s | -54.7°C | 61.6% | 235.6hPa | 2.7V | 00:00:00 | 00:00:00 | 00:00:00 | |
| DF1GD-15 | 2026-09-01 17:20:37 | 49.70151 | 7.79549 | 86° | 104km/h | 11049m | 4.6m/s | -54.7°C | 61.6% | 235.6hPa | 2.7V | 00:00:00 | 00:00:00 | 00:00:00 | |
| DL8DAS-15 | 2026-09-01 17:20:35 | 49.70146 | 7.79468 | 85° | 104km/h | 11039m | 4.0m/s | -54.6°C | 61.9% | 236.0hPa | 2.7V | 00:00:00 | 00:00:00 | 00:00:00 | |
| DB0UT-9 | 2026-09-01 17:20:34 | 49.70143 | 7.79427 | 85° | 102km/h | 11034m | 6.0m/s | -54.5°C | 61.7% | 236.1hPa | 2.7V | 04:28:00 | 00:00:00 | 00:00:00 | |
| DM0DOS-11 | 2026-09-01 17:20:32 | 49.70130 | 7.79262 | 83° | 111km/h | 11015m | 5.5m/s | -54.4°C | 67.9% | 236.8hPa | 2.7V | 04:27:30 | 00:50:48 | 00:00:00 | |
| BIOWL1-15 | 2026-09-01 17:20:32 | 49.70127 | 7.79219 | 84° | 111km/h | 11010m | 3.3m/s | -54.3°C | 64.6% | 237hPa | 2.8V | 04:28:09 | 00:50:47 | 00:00:00 | |
| NBG1-10 | 2026-09-01 17:20:31 | 49.70130 | 7.79262 | 84° | 110km/h | 11015m | 5.4m/s | -54.3°C | 67.9% | 236.8hPa | 2.7V | 00:00:00 | 00:50:48 | 00:00:00 | |
| DM7RM-13 | 2026-09-01 17:20:30 | 49.70130 | 7.79262 | 84° | 111km/h | 11015m | 5.5m/s | -54.4°C | 61.5% | 236.8hPa | 2.7V | 04:28:00 | 00:00:00 | 00:00:00 | |
| DO3MHA-11 | 2026-09-01 17:20:29 | 49.70124 | 7.79175 | 84° | 108km/h | 11006m | 4.8m/s | -54.2°C | 67.5% | 237.1hPa | 2.7V | 00:00:00 | 00:50:46 | 00:00:00 | |
| DO3DL | 2026-09-01 17:20:28 | 49.70124 | 7.79175 | 85° | 113km/h | 11006m | 4.8m/s | -54.3°C | 61.1% | 237.1hPa | 2.7V | 00:00:00 | 00:00:00 | 00:00:00 | |
| DF7PN | 2026-09-01 17:20:27 | 49.70115 | 7.79046 | 83° | 108km/h | 10991m | 3.6m/s | -54.2°C | 63.2% | 237.7hPa | 2.7V | 00:00:00 | 00:00:00 | 00:00:00 | |
| DM3KS-11 | 2026-09-01 17:20:26 | 49.70115 | 7.79046 | 83° | 108km/h | 10991m | 3.6m/s | -54.2°C | 63.2% | 237.7hPa | 2.7V | 00:00:00 | 00:00:00 | 00:00:00 | |
| DL8DAS-15 | 2026-09-01 17:20:25 | 49.70114 | 7.79045 | 85° | 108km/h | 10992m | 3.6m/s | -54.2°C | 63.2% | 237.7hPa | 2.7V | 00:00:00 | 00:00:00 | 00:00:00 | |
| DM0DOS-11 | 2026-09-01 17:20:22 | 49.70100 | 7.78840 | 83° | 106km/h | 10969m | 5.1m/s | -54°C | 68.4% | 238.5hPa | 2.7V | 04:27:40 | 00:50:38 | 00:00:00 | |
| BIOWL1-15 | 2026-09-01 17:20:19 | 49.70093 | 7.78757 | 83° | 108km/h | 10959m | 4.3m/s | -53.9°C | 64.7% | 238.9hPa | 2.7V | 04:28:09 | 00:50:36 | 00:00:00 | |
| DO3MHA-11 | 2026-09-01 17:20:19 | 49.70093 | 7.78757 | 83° | 111km/h | 10959m | 4.3m/s | -53.8°C | 68.2% | 238.9hPa | 2.8V | 00:00:00 | 00:50:36 | 00:00:00 | |
| DF3TZ-5 | 2026-09-01 17:20:17 | 49.70082 | 7.78629 | 83° | 111km/h | 10943m | 6.0m/s | -53.8°C | 62.1% | 239.5hPa | 2.8V | 00:00:00 | 00:00:00 | 00:00:00 | |
| DL1ZP-14 | 2026-09-01 17:20:16 | 49.70082 | 7.78629 | 83° | 111km/h | 10943m | 6.0m/s | -53.8°C | 62.1% | 239.5hPa | 2.8V | 00:00:00 | 00:00:00 | 00:00:00 | |
| DF1GD-15 | 2026-09-01 17:20:15 | 49.70082 | 7.78629 | 84° | 113km/h | 10943m | 6.0m/s | -53.8°C | 62.2% | 239.5hPa | 2.8V | 00:00:00 | 00:00:00 | 00:00:00 | |
| DM0DOS-11 | 2026-09-01 17:20:12 | 49.70067 | 7.78412 | 83° | 110km/h | 10918m | 7.2m/s | -53.5°C | 66.8% | 240.4hPa | 2.8V | 04:27:50 | 00:50:28 | 00:00:00 | |
| BIOWL1-15 | 2026-09-01 17:20:09 | 49.70061 | 7.78329 | 84° | 104km/h | 10908m | 4.1m/s | -53.4°C | 64.1% | 240.8hPa | 2.7V | 04:28:09 | 00:50:26 | 00:00:00 | |
| DO3MHA-11 | 2026-09-01 17:20:09 | 49.70061 | 7.78329 | 84° | 108km/h | 10908m | 4.0m/s | -53.4°C | 65.8% | 240.7hPa | 2.7V | 00:00:00 | 00:50:26 | 00:00:00 | |
| DB0ND-19 | 2026-09-01 17:20:07 | 49.70055 | 7.78248 | 82° | 104km/h | 10894m | 5.3m/s | -53.3°C | 60.0% | 241.2hPa | 2.8V | 00:00:00 | 00:00:00 | 00:00:00 | |
| DL0LBS | 2026-09-01 17:20:06 | 49.70055 | 7.78248 | 83° | 104km/h | 10895m | 5.3m/s | -53.3°C | 60.0% | 241.2hPa | 2.8V | 04:28:00 | 00:00:00 | 00:00:00 | |
| DM0DOS-11 | 2026-09-01 17:20:02 | 49.70036 | 7.77997 | 82° | 111km/h | 10866m | 3.8m/s | -53°C | 66.1% | 242.3hPa | 2.8V | 04:28:00 | 00:50:18 | 00:00:00 | |
| BIOWL1-15 | 2026-09-01 17:19:58 | 49.70027 | 7.77870 | 84° | 106km/h | 10853m | 4.4m/s | -52.9°C | 63.7% | 242.9hPa | 2.8V | 04:28:09 | 00:50:15 | 00:00:00 | |
| BIOWL1-15 | 2026-09-01 17:19:49 | 49.69999 | 7.77413 | 82° | 111km/h | 10802m | 3.6m/s | -52.5°C | 63.7% | 244.7hPa | 2.8V | 04:29:00 | 00:50:04 | 00:00:00 | |
| DF3TZ-5 | 2026-09-01 17:19:46 | 49.69990 | 7.77329 | 82° | 106km/h | 10793m | 4.7m/s | -52.5°C | 59.7% | 245.1hPa | 2.7V | 00:00:00 | 00:00:00 | 00:00:00 | |
| DM0DOS-11 | 2026-09-01 17:19:46 | 49.69976 | 7.77164 | 82° | 108km/h | 10775m | 5.3m/s | -52.3°C | 64.6% | 245.8hPa | 2.8V | 04:28:20 | 00:49:58 | 00:00:00 | |
| DL1ZP-14 | 2026-09-01 17:19:45 | 49.69990 | 7.77329 | 82° | 106km/h | 10793m | 4.7m/s | -52.5°C | 59.7% | 245.1hPa | 2.7V | 00:00:00 | 00:00:00 | 00:00:00 | |
| DL8DAS-15 | 2026-09-01 17:19:41 | 49.69980 | 7.77205 | 84° | 108km/h | 10781m | 5.8m/s | -52.4°C | 58.7% | 245.6hPa | 2.7V | 04:29:00 | 00:00:00 | 00:00:00 | |
| DO3MHA-11 | 2026-09-01 17:19:39 | 49.69970 | 7.77080 | 83° | 108km/h | 10766m | 5.0m/s | -52.1°C | 64.5% | 246.1hPa | 2.7V | 00:00:00 | 00:49:56 | 00:00:00 | |
| DM0DOS-11 | 2026-09-01 17:19:36 | 49.69943 | 7.76747 | 83° | 102km/h | 10730m | 4m/s | -51.9°C | 64.9% | 247.6hPa | 2.8V | 04:28:30 | 00:49:48 | 00:00:00 | |
| BIOWL1-15 | 2026-09-01 17:19:36 | 49.69960 | 7.76951 | 84° | 110km/h | 10752m | 4.8m/s | -52.1°C | 62.5% | 246.8hPa | 2.8V | 04:29:00 | 00:49:53 | 00:00:00 | |
| BIOWL1-15 | 2026-09-01 17:19:27 | 49.69924 | 7.76501 | 83° | 110km/h | 10704m | 6m/s | -51.7°C | 62.3% | 248.6hPa | 2.7V | 04:29:00 | 00:49:42 | 00:00:00 | |
| DM0DOS-11 | 2026-09-01 17:19:26 | 49.69907 | 7.76331 | 81° | 110km/h | 10685m | 4.3m/s | -51.5°C | 65.1% | 249.2hPa | 2.8V | 04:28:40 | 00:49:38 | 00:00:00 | |
| NBG1-10 | 2026-09-01 17:19:25 | 49.69924 | 7.76501 | 83° | 108km/h | 10704m | 5.9m/s | -51.6°C | 64.9% | 248.5hPa | 2.7V | 00:00:00 | 00:49:42 | 00:00:00 | |
| DM3KS-11 | 2026-09-01 17:19:24 | 49.69916 | 7.76416 | 81° | 110km/h | 10695m | 4.0m/s | -51.6°C | 59.1% | 248.9hPa | 2.8V | 00:00:00 | 00:00:00 | 00:00:00 | |
| DK5PH-5 | 2026-09-01 17:19:19 | 49.69899 | 7.76248 | 82° | 106km/h | 10676m | 6.0m/s | -51.4°C | 64.5% | 249.7hPa | 2.8V | 00:00:00 | 00:49:36 | 00:00:00 | |
| DM0DOS-11 | 2026-09-01 17:19:16 | 49.69871 | 7.75915 | 82° | 110km/h | 10633m | 5.3m/s | -51.1°C | 64.6% | 251.2hPa | 2.8V | 04:28:50 | 00:49:28 | 00:00:00 | |
| BIOWL1-15 | 2026-09-01 17:19:14 | 49.69882 | 7.76042 | 83° | 108km/h | 10648m | 6.5m/s | -51.3°C | 62.2% | 250.7hPa | 2.7V | 04:29:00 | 00:49:31 | 00:00:00 | |
| BIOWL1-15 | 2026-09-01 17:19:04 | 49.69849 | 7.75625 | 85° | 108km/h | 10599m | 3m/s | -50.9°C | 63.1% | 252.6hPa | 2.8V | 04:29:00 | 00:49:21 | 00:00:00 | |
| BIOWL1-15 | 2026-09-01 17:18:53 | 49.69818 | 7.75179 | 83° | 106km/h | 10548m | 3.5m/s | -50.5°C | 62% | 254.6hPa | 2.8V | 04:29:51 | 00:49:10 | 00:00:00 | |
| BIOWL7-15 | 2026-09-01 17:18:50 | 49.69812 | 7.75097 | 87° | 106km/h | 10538m | 5.6m/s | -50.5°C | 57.7% | 254.9hPa | 2.7V | 00:00:00 | 00:00:00 | 00:00:00 | |
| DK5PH-5 | 2026-09-01 17:18:49 | 49.69808 | 7.75016 | 86° | 106km/h | 10529m | 5.1m/s | -50.4°C | 63.0% | 255.2hPa | 2.7V | 00:00:00 | 00:49:06 | 00:00:00 | |
| DO3MHA-11 | 2026-09-01 17:18:48 | 49.69806 | 7.74975 | 86° | 106km/h | 10525m | 3.4m/s | -50.4°C | 62.5% | 255.4hPa | 2.7V | 00:00:00 | 00:49:05 | 00:00:00 | |
| DM0DOS-11 | 2026-09-01 17:18:46 | 49.69793 | 7.74731 | 84° | 110km/h | 10498m | 5.6m/s | -50.2°C | 59.2% | 256.5hPa | 2.7V | 04:29:19 | 00:48:59 | 00:00:00 | |
| BIOWL1-15 | 2026-09-01 17:18:44 | 49.69792 | 7.74731 | 84° | 110km/h | 10498m | 5.6m/s | -50.2°C | 56.7% | 256.5hPa | 2.7V | 04:29:51 | 00:48:59 | 00:00:00 | |
| DF3TZ-5 | 2026-09-01 17:18:44 | 49.69795 | 7.74774 | 84° | 110km/h | 10503m | 3.2m/s | -50.3°C | 54.7% | 256.3hPa | 2.7V | 00:00:00 | 00:00:00 | 00:00:00 | |
| DD1CC8 | 2026-09-01 17:18:43 | 49.69792 | 7.74731 | 84° | 110km/h | 10498m | 5.6m/s | 0°C | -1.0% | -1.0hPa | 2.7V | 00:00:00 | 00:00:00 | 00:00:00 | |
| DF1GD-15 | 2026-09-01 17:18:41 | 49.69792 | 7.74731 | 85° | 110km/h | 10499m | 5.6m/s | -50.2°C | 54.0% | 256.5hPa | 2.7V | 04:29:00 | 00:00:00 | 00:00:00 | |
| DB0UT-7 | 2026-09-01 17:18:39 | 49.69784 | 7.74604 | 84° | 104km/h | 10483m | 3.6m/s | -50.0°C | 59.1% | 257.0hPa | 2.7V | 00:00:00 | 00:00:00 | 00:00:00 | |
| DO3MHA-11 | 2026-09-01 17:18:38 | 49.69780 | 7.74564 | 85° | 104km/h | 10480m | 2.3m/s | -50.0°C | 57.8% | 257.2hPa | 2.7V | 00:00:00 | 00:48:55 | 00:00:00 | |
| DM0DOS-11 | 2026-09-01 17:18:36 | 49.69770 | 7.74323 | 88° | 106km/h | 10445m | 4.2m/s | -49.8°C | 55.3% | 258.6hPa | 2.8V | 04:29:29 | 00:48:49 | 00:00:00 | |
| BIOWL1-15 | 2026-09-01 17:18:31 | 49.69769 | 7.74282 | 87° | 106km/h | 10440m | 6.7m/s | -49.8°C | 54.2% | 258.8hPa | 2.7V | 04:29:51 | 00:48:48 | 00:00:00 | |
| DL9PN | 2026-09-01 17:18:29 | 49.69765 | 7.74158 | 87° | 106km/h | 10425m | 6.7m/s | -49.7°C | 50.9% | 259.4hPa | 2.8V | 00:00:00 | 00:00:00 | 00:00:00 | |
| DO3MHA-11 | 2026-09-01 17:18:28 | 49.69765 | 7.74158 | 88° | 106km/h | 10425m | 6.7m/s | -49.6°C | 55.8% | 259.4hPa | 2.8V | 00:00:00 | 00:48:45 | 00:00:00 | |
| DB0UT-9 | 2026-09-01 17:18:27 | 49.69765 | 7.74158 | 88° | 106km/h | 10425m | 6.7m/s | -49.7°C | 50.9% | 259.4hPa | 2.8V | 04:29:00 | 00:00:00 | 00:00:00 | |
| DM0DOS-11 | 2026-09-01 17:18:26 | 49.69750 | 7.73908 | 84° | 104km/h | 10396m | 3.5m/s | -49.4°C | 55.6% | 260.5hPa | 2.8V | 04:29:39 | 00:48:39 | 00:00:00 | |
| BIOWL1-15 | 2026-09-01 17:18:20 | 49.69745 | 7.73828 | 83° | 104km/h | 10387m | 5.3m/s | -49.3°C | 55% | 260.9hPa | 2.7V | 04:29:51 | 00:48:37 | 00:00:00 | |
| DO3MHA-11 | 2026-09-01 17:18:18 | 49.69740 | 7.73748 | 86° | 104km/h | 10376m | 4.9m/s | -49.2°C | 56.8% | 261.4hPa | 2.8V | 00:00:00 | 00:48:35 | 00:00:00 | |
| DM0DOS-11 | 2026-09-01 17:18:17 | 49.69728 | 7.73506 | 86° | 104km/h | 10348m | 4.5m/s | -49°C | 59.4% | 262.5hPa | 2.8V | 04:29:49 | 00:48:29 | 00:00:00 | |
| BIOWL1-15 | 2026-09-01 17:18:10 | 49.69724 | 7.73425 | 85° | 104km/h | 10339m | 3.1m/s | -48.9°C | 60.5% | 262.9hPa | 2.7V | 04:29:51 | 00:48:27 | 00:00:00 | |
| DB0UT-7 | 2026-09-01 17:18:09 | 49.69721 | 7.73384 | 85° | 102km/h | 10335m | 5.7m/s | -48.8°C | 62.6% | 262.9hPa | 2.7V | 00:00:00 | 00:48:26 | 00:00:00 | |
| DO3MHA-11 | 2026-09-01 17:18:08 | 49.69719 | 7.73343 | 86° | 104km/h | 10329m | 5.2m/s | -48.8°C | 64.1% | 263.2hPa | 2.7V | 04:29:00 | 00:48:25 | 00:00:00 | |
| DB0UT-9 | 2026-09-01 17:18:07 | 49.69719 | 7.73343 | 86° | 106km/h | 10329m | 5.3m/s | -48.8°C | 59.1% | 263.2hPa | 2.8V | 04:30:00 | 00:00:00 | 00:00:00 | |
| DM0DOS-11 | 2026-09-01 17:18:06 | 49.69699 | 7.73057 | 84° | 102km/h | 10297m | 6m/s | -48.6°C | 64.5% | 264.5hPa | 2.8V | 04:30:00 | 00:48:18 | 00:00:00 | |
| BIOWL1-15 | 2026-09-01 17:17:59 | 49.69694 | 7.72979 | 84° | 100km/h | 10288m | 5.3m/s | -48.6°C | 64% | 264.8hPa | 2.7V | 04:30:42 | 00:48:16 | 00:00:00 | |
| DO3MHA-11 | 2026-09-01 17:17:58 | 49.69691 | 7.72939 | 85° | 104km/h | 10283m | 4.1m/s | -48.5°C | 65.8% | 265.1hPa | 2.8V | 00:00:00 | 00:48:15 | 00:00:00 | |
| DF1GD-15 | 2026-09-01 17:17:57 | 49.69691 | 7.72939 | 85° | 102km/h | 10283m | 4.1m/s | -48.6°C | 60.8% | 265.1hPa | 2.8V | 04:30:00 | 00:00:00 | 00:00:00 | |
| DM0DOS-11 | 2026-09-01 17:17:56 | 49.69675 | 7.72656 | 85° | 104km/h | 10251m | 4.5m/s | -48.3°C | 68.2% | 266.4hPa | 2.8V | 04:30:10 | 00:48:08 | 00:00:00 | |
| BIOWL1-15 | 2026-09-01 17:17:50 | 49.69667 | 7.72536 | 84° | 102km/h | 10237m | 4m/s | -48.2°C | 65.4% | 267hPa | 2.7V | 04:30:42 | 00:48:05 | 00:00:00 | |
| DK5PH-5 | 2026-09-01 17:17:49 | 49.69670 | 7.72576 | 85° | 100km/h | 10242m | 5.5m/s | -48.2°C | 68.0% | 266.7hPa | 2.7V | 00:00:00 | 00:48:06 | 00:00:00 | |
| DO3MHA-11 | 2026-09-01 17:17:48 | 49.69667 | 7.72536 | 84° | 100km/h | 10237m | 3.9m/s | -48.2°C | 68.6% | 266.9hPa | 2.7V | 00:00:00 | 00:48:05 | 00:00:00 | |
| HEMX73-11 | 2026-09-01 17:17:47 | 49.69667 | 7.72536 | 85° | 102km/h | 10237m | 4.0m/s | -48.2°C | 63.4% | 267.0hPa | 2.7V | 04:30:00 | 00:00:00 | 00:00:00 | |
| NBG1-10 | 2026-09-01 17:17:46 | 49.69661 | 7.72458 | 83° | 99km/h | 10228m | 3.6m/s | -48.1°C | 68.4% | 267.3hPa | 2.7V | 00:00:00 | 00:48:03 | 00:00:00 | |
| DM7RM-13 | 2026-09-01 17:17:45 | 49.69658 | 7.72420 | 83° | 99km/h | 10224m | 5.1m/s | -48.2°C | 62.3% | 267.6hPa | 2.8V | 04:30:00 | 00:00:00 | 00:00:00 | |
| DL8DAS-15 | 2026-09-01 17:17:44 | 49.69658 | 7.72420 | 83° | 99km/h | 10224m | 5.1m/s | -48.2°C | 62.3% | 267.6hPa | 2.8V | 00:00:00 | 00:00:00 | 00:00:00 | |
| BIOWL7-15 | 2026-09-01 17:17:43 | 49.69651 | 7.72343 | 83° | 100km/h | 10214m | 4.4m/s | -48.1°C | 60.8% | 268.0hPa | 2.8V | 04:30:00 | 00:00:00 | 00:00:00 | |
| DL0LBS | 2026-09-01 17:17:42 | 49.69651 | 7.72343 | 83° | 100km/h | 10214m | 4.4m/s | -48.1°C | 60.8% | 268.0hPa | 2.8V | 04:30:00 | 00:00:00 | 00:00:00 | |
| DM0DOS-11 | 2026-09-01 17:17:40 | 49.69638 | 7.72189 | 84° | 102km/h | 10193m | 4m/s | -47.9°C | 62.1% | 268.8hPa | 2.8V | 04:30:22 | 00:47:56 | 00:00:00 | |
| BIOWL1-15 | 2026-09-01 17:17:38 | 49.69635 | 7.72150 | 84° | 100km/h | 10189m | 5.9m/s | -47.9°C | 60.4% | 268.9hPa | 2.7V | 04:30:42 | 00:47:55 | 00:00:00 | |
| DO3MHA-11 | 2026-09-01 17:17:38 | 49.69635 | 7.72150 | 84° | 99km/h | 10189m | 5.8m/s | -47.8°C | 60.8% | 268.8hPa | 2.7V | 00:00:00 | 00:47:55 | 00:00:00 | |
| DF1GD-15 | 2026-09-01 17:17:37 | 49.69635 | 7.72150 | 85° | 100km/h | 10189m | 5.9m/s | -47.9°C | 56.1% | 268.9hPa | 2.8V | 04:30:00 | 00:00:00 | 00:00:00 | |
| DM0DOS-11 | 2026-09-01 17:17:34 | 49.69607 | 7.71805 | 81° | 95km/h | 10143m | 4m/s | -47.6°C | 64.7% | 270.8hPa | 2.8V | 04:30:32 | 00:47:46 | 00:00:00 | |
| BIOWL1-15 | 2026-09-01 17:17:28 | 49.69604 | 7.71768 | 82° | 97km/h | 10138m | 5.4m/s | -47.5°C | 63.4% | 271hPa | 2.8V | 04:30:42 | 00:47:45 | 00:00:00 | |
| DO3MHA-11 | 2026-09-01 17:17:28 | 49.69603 | 7.71768 | 83° | 100km/h | 10138m | 5.4m/s | -47.5°C | 65.1% | 270.9hPa | 2.8V | 00:00:00 | 00:47:45 | 00:00:00 | |
| DO1YAY-16 | 2026-09-01 17:17:27 | 49.69600 | 7.71730 | 82° | 99km/h | 10133m | 3.9m/s | -47.5°C | 60.8% | 271.2hPa | 2.8V | 00:00:00 | 00:00:00 | 00:00:00 | |
| DO2KSM | 2026-09-01 17:17:26 | 49.69597 | 7.71692 | 85° | 99km/h | 10129m | 5.7m/s | 0°C | 0% | 0hPa | 2.8V | 04:30:00 | 00:00:00 | 00:00:00 | |
| DO3DL | 2026-09-01 17:17:25 | 49.69597 | 7.71692 | 85° | 99km/h | 10129m | 5.7m/s | -47.4°C | 0% | 0hPa | 2.8V | 04:30:00 | 00:00:00 | 00:00:00 | |
| DM0DOS-11 | 2026-09-01 17:17:24 | 49.69576 | 7.71419 | 82° | 99km/h | 10097m | 5m/s | -47.2°C | 61.6% | 272.7hPa | 2.8V | 04:30:42 | 00:47:36 | 00:00:00 | |
| BIOWL1-15 | 2026-09-01 17:17:20 | 49.69572 | 7.71380 | 81° | 99km/h | 10091m | 5.7m/s | -47.2°C | 60.7% | 272.9hPa | 2.8V | 04:31:33 | 00:47:35 | 00:00:00 | |
| DM3KS-11 | 2026-09-01 17:17:20 | 49.69576 | 7.71419 | 82° | 99km/h | 10097m | 5.0m/s | -47.3°C | 56.9% | 272.7hPa | 2.7V | 00:00:00 | 00:00:00 | 00:00:00 | |
| DK5PH-5 | 2026-09-01 17:17:19 | 49.69576 | 7.71419 | 83° | 97km/h | 10097m | 4.9m/s | -47.2°C | 61.6% | 272.6hPa | 2.7V | 00:00:00 | 00:47:36 | 00:00:00 | |
| DO3MHA-11 | 2026-09-01 17:17:18 | 49.69572 | 7.71380 | 81° | 97km/h | 10091m | 5.6m/s | -47.2°C | 61.3% | 272.8hPa | 2.7V | 04:30:00 | 00:47:35 | 00:00:00 | |
| DF1GD-15 | 2026-09-01 17:17:17 | 49.69572 | 7.71380 | 82° | 99km/h | 10091m | 5.7m/s | -47.2°C | 56.7% | 272.9hPa | 2.7V | 04:31:00 | 00:00:00 | 00:00:00 | |
| BIOWL9-15 | 2026-09-01 17:17:15 | 49.69559 | 7.71268 | 80° | 97km/h | 10077m | 4.4m/s | -47.1°C | 57.5% | 273.5hPa | 2.7V | 00:00:00 | 00:00:00 | 00:00:00 | |
| DM0DOS-11 | 2026-09-01 17:17:14 | 49.69539 | 7.71044 | 82° | 97km/h | 10047m | 6.4m/s | -47°C | 61.3% | 274.7hPa | 2.7V | 04:30:52 | 00:47:26 | 00:00:00 | |
| BIOWL1-15 | 2026-09-01 17:17:07 | 49.69533 | 7.70967 | 84° | 99km/h | 10038m | 3.2m/s | -47°C | 59.7% | 275.1hPa | 2.8V | 04:31:33 | 00:47:24 | 00:00:00 | |
| HEMX73-11 | 2026-09-01 17:17:06 | 49.69533 | 7.70967 | 85° | 99km/h | 10038m | 3.2m/s | -47.0°C | 56.3% | 275.1hPa | 2.7V | 04:31:00 | 00:00:00 | 00:00:00 | |
| DO3DL | 2026-09-01 17:17:05 | 49.69530 | 7.70929 | 84° | 100km/h | 10032m | 7.9m/s | 0°C | 0% | 0hPa | 2.7V | 00:00:00 | 00:00:00 | 00:00:00 | |
| DM0DOS-11 | 2026-09-01 17:17:04 | 49.69509 | 7.70661 | 85° | 97km/h | 9990m | 5.4m/s | -46.8°C | 57.4% | 277.1hPa | 2.7V | 04:31:02 | 00:47:16 | 00:00:00 | |
| BIOWL1-15 | 2026-09-01 17:16:57 | 49.69505 | 7.70588 | 86° | 93km/h | 9980m | 3.2m/s | -46.6°C | 57.5% | 277.6hPa | 2.8V | 04:31:33 | 00:47:14 | 00:00:00 | |
| BIOWL1-15 | 2026-09-01 17:16:49 | 49.69485 | 7.70225 | 85° | 91km/h | 9930m | 3.6m/s | -46.5°C | 53.2% | 279.7hPa | 2.7V | 04:31:33 | 00:47:04 | 00:00:00 | |
| DK5PH-5 | 2026-09-01 17:16:49 | 49.69489 | 7.70297 | 85° | 91km/h | 9941m | 4.9m/s | -46.4°C | 53.8% | 279.2hPa | 2.8V | 00:00:00 | 00:47:06 | 00:00:00 | |
| DM0DOS-11 | 2026-09-01 17:16:48 | 49.69478 | 7.70079 | 85° | 93km/h | 9911m | 5m/s | -46.5°C | 52.4% | 280.5hPa | 2.8V | 04:31:18 | 00:47:00 | 00:00:00 | |
| BIOWL1-15 | 2026-09-01 17:16:38 | 49.69471 | 7.69828 | 87° | 93km/h | 9879m | 3.8m/s | -46.3°C | 53.5% | 281.9hPa | 2.7V | 04:31:33 | 00:46:53 | 00:00:00 | |
| DO3MHA-11 | 2026-09-01 17:16:38 | 49.69472 | 7.69899 | 89° | 91km/h | 9890m | 3.7m/s | -46.3°C | 53.2% | 281.3hPa | 2.7V | 00:00:00 | 00:46:55 | 00:00:00 | |
| DF1GD-15 | 2026-09-01 17:16:36 | 49.69471 | 7.69864 | 89° | 91km/h | 9884m | 6.5m/s | -46.3°C | 49.3% | 281.6hPa | 2.8V | 04:31:00 | 00:00:00 | 00:00:00 | |
| CB1BUN | 2026-09-01 17:16:31 | 49.69463 | 7.69649 | 87° | 93km/h | 9856m | 5.6m/s | -46.3°C | 53.9% | 282.8hPa | 2.8V | 04:31:00 | 00:00:00 | 00:00:00 | |
| DB0ND-19 | 2026-09-01 17:16:30 | 49.69461 | 7.69613 | 84° | 89km/h | 9851m | 4.3m/s | -46.3°C | 54.4% | 283.0hPa | 2.8V | 00:00:00 | 00:00:00 | 00:00:00 | |
| DO3MHA-11 | 2026-09-01 17:16:28 | 49.69456 | 7.69545 | 85° | 86km/h | 9841m | 3.1m/s | -46.1°C | 61.6% | 283.4hPa | 2.8V | 04:31:00 | 00:46:45 | 00:00:00 | |
| DM0DOS-11 | 2026-09-01 17:16:26 | 49.69452 | 7.69309 | 87° | 88km/h | 9808m | 3.8m/s | -46°C | 69.3% | 284.8hPa | 2.8V | 04:31:40 | 00:46:38 | 00:00:00 | |
| BIOWL1-15 | 2026-09-01 17:16:25 | 49.69452 | 7.69443 | 88° | 88km/h | 9827m | 5.4m/s | -46.1°C | 62.3% | 284hPa | 2.7V | 04:32:24 | 00:46:42 | 00:00:00 | |
| DB0UT-9 | 2026-09-01 17:16:24 | 49.69452 | 7.69409 | 91° | 86km/h | 9822m | 5.6m/s | -46.1°C | 61.5% | 284.3hPa | 2.8V | 04:32:00 | 00:00:00 | 00:00:00 | |
| DO2KSM | 2026-09-01 17:16:23 | 49.69452 | 7.69409 | 91° | 86km/h | 9822m | 5.6m/s | 0°C | 0% | 0hPa | 2.8V | 00:00:00 | 00:00:00 | 00:00:00 | |
| DM7RM-13 | 2026-09-01 17:16:21 | 49.69452 | 7.69343 | 91° | 86km/h | 9813m | 5.5m/s | -46.0°C | 63.3% | 284.7hPa | 2.8V | 04:32:00 | 00:00:00 | 00:00:00 | |
| DL0LBS | 2026-09-01 17:16:20 | 49.69451 | 7.69309 | 89° | 88km/h | 9808m | 3.8m/s | -46.0°C | 64.6% | 284.8hPa | 2.8V | 04:32:00 | 00:00:00 | 00:00:00 | |
| DK5PH-5 | 2026-09-01 17:16:19 | 49.69449 | 7.69242 | 86° | 95km/h | 9799m | 4.9m/s | -45.9°C | 68.9% | 285.2hPa | 2.8V | 00:00:00 | 00:46:36 | 00:00:00 | |
| DM3KS-11 | 2026-09-01 17:16:18 | 49.69446 | 7.69171 | 87° | 93km/h | 9789m | 6.7m/s | -45.8°C | 64.2% | 285.6hPa | 2.8V | 00:00:00 | 00:00:00 | 00:00:00 | |
| DM0DOS-11 | 2026-09-01 17:16:16 | 49.69445 | 7.68951 | 87° | 91km/h | 9758m | 5.3m/s | -45.6°C | 71.5% | 286.9hPa | 2.8V | 04:31:50 | 00:46:28 | 00:00:00 | |
| BIOWL1-15 | 2026-09-01 17:16:16 | 49.69446 | 7.69059 | 91° | 95km/h | 9773m | 5.2m/s | -45.7°C | 67.9% | 286.4hPa | 2.8V | 04:32:24 | 00:46:31 | 00:00:00 | |
| BIOWL9-15 | 2026-09-01 17:16:13 | 49.69445 | 7.68987 | 89° | 89km/h | 9764m | 6.4m/s | -45.6°C | 66.6% | 286.7hPa | 2.7V | 00:00:00 | 00:00:00 | 00:00:00 | |
| DL8DAS-15 | 2026-09-01 17:16:10 | 49.69445 | 7.68951 | 89° | 91km/h | 9758m | 5.3m/s | -45.6°C | 66.8% | 286.9hPa | 2.7V | 00:00:00 | 00:00:00 | 00:00:00 | |
| CB1BUN | 2026-09-01 17:16:09 | 49.69443 | 7.68915 | 88° | 93km/h | 9753m | 5.8m/s | -45.5°C | 66.9% | 287.1hPa | 2.7V | 04:32:00 | 00:00:00 | 00:00:00 | |
| DO3MHA-11 | 2026-09-01 17:16:08 | 49.69440 | 7.68842 | 87° | 93km/h | 9743m | 5.2m/s | -45.4°C | 71.4% | 287.5hPa | 2.7V | 00:00:00 | 00:46:25 | 00:00:00 | |
| NBG1-10 | 2026-09-01 17:16:07 | 49.69439 | 7.68805 | 87° | 95km/h | 9737m | 6.4m/s | -45.3°C | 71.5% | 287.8hPa | 2.7V | 00:00:00 | 00:46:24 | 00:00:00 | |
| DM0DOS-11 | 2026-09-01 17:16:06 | 49.69427 | 7.68589 | 84° | 93km/h | 9707m | 5.7m/s | -45.1°C | 74.1% | 289.2hPa | 2.7V | 04:32:00 | 00:46:18 | 00:00:00 | |
| BIOWL1-15 | 2026-09-01 17:16:04 | 49.69435 | 7.68697 | 85° | 93km/h | 9722m | 4.4m/s | -45.2°C | 68.3% | 288.5hPa | 2.8V | 04:32:24 | 00:46:21 | 00:00:00 | |
| BIOWL1-15 | 2026-09-01 17:15:54 | 49.69417 | 7.68321 | 89° | 97km/h | 9671m | 7.6m/s | -44.8°C | 71.7% | 290.7hPa | 2.7V | 04:32:24 | 00:46:11 | 00:00:00 | |
| DL9PN | 2026-09-01 17:15:54 | 49.69416 | 7.68284 | 86° | 93km/h | 9666m | 3.5m/s | -44.7°C | 73.4% | 291.1hPa | 2.8V | 00:00:00 | 00:00:00 | 00:00:00 | |
| DL8DAS-14 | 2026-09-01 17:15:53 | 49.69416 | 7.68284 | 86° | 93km/h | 9666m | 3.5m/s | -44.7°C | 73.4% | 291.1hPa | 2.8V | 00:00:00 | 00:00:00 | 00:00:00 | |
| DM3KS-11 | 2026-09-01 17:15:47 | 49.69393 | 7.68022 | 82° | 97km/h | 9622m | 5.0m/s | -44.4°C | 74.2% | 292.9hPa | 2.8V | 00:00:00 | 00:00:00 | 00:00:00 | |
| DM0DOS-11 | 2026-09-01 17:15:46 | 49.69378 | 7.67834 | 82° | 95km/h | 9592m | 5.3m/s | -44.1°C | 77.1% | 294.3hPa | 2.8V | 04:32:20 | 00:45:58 | 00:00:00 | |
| BIOWL1-15 | 2026-09-01 17:15:44 | 49.69387 | 7.67947 | 83° | 99km/h | 9611m | 6.1m/s | -44.3°C | 75.3% | 293.3hPa | 2.8V | 04:32:24 | 00:46:01 | 00:00:00 | |
| DB0UT-9 | 2026-09-01 17:15:43 | 49.69387 | 7.67947 | 84° | 99km/h | 9612m | 6.1m/s | -44.3°C | 72.0% | 293.3hPa | 2.7V | 04:32:00 | 00:00:00 | 00:00:00 | |
| BIOWL9-15 | 2026-09-01 17:15:42 | 49.69378 | 7.67834 | 82° | 95km/h | 9592m | 5.3m/s | -44.1°C | 72.5% | 294.3hPa | 2.7V | 00:00:00 | 00:00:00 | 00:00:00 | |
| DM7RM-13 | 2026-09-01 17:15:39 | 49.69374 | 7.67798 | 82° | 93km/h | 9587m | 5.8m/s | -44.0°C | 72.5% | 294.6hPa | 2.7V | 04:32:00 | 00:00:00 | 00:00:00 | |
| DO3MHA-11 | 2026-09-01 17:15:38 | 49.69368 | 7.67727 | 82° | 91km/h | 9576m | 4.4m/s | -43.9°C | 77.1% | 295.0hPa | 2.7V | 04:32:00 | 00:45:55 | 00:00:00 | |
| DL1ZP-14 | 2026-09-01 17:15:37 | 49.69364 | 7.67692 | 80° | 91km/h | 9571m | 6.2m/s | -43.9°C | 72.7% | 295.2hPa | 2.7V | 00:00:00 | 00:00:00 | 00:00:00 | |
| DM0DOS-11 | 2026-09-01 17:15:36 | 49.69349 | 7.67480 | 84° | 91km/h | 9543m | 3m/s | -43.6°C | 79.1% | 296.5hPa | 2.7V | 04:32:30 | 00:45:48 | 00:00:00 | |
| BIOWL1-15 | 2026-09-01 17:15:33 | 49.69353 | 7.67550 | 85° | 91km/h | 9553m | 4.4m/s | -43.8°C | 73.4% | 296hPa | 2.8V | 04:33:15 | 00:45:50 | 00:00:00 | |
| DJ3KS | 2026-09-01 17:15:31 | 49.69351 | 7.67515 | 85° | 91km/h | 9548m | 5.9m/s | 0°C | 0% | 0hPa | 2.8V | 00:00:00 | 00:00:00 | 00:00:00 | |
| BIOWL7-15 | 2026-09-01 17:15:30 | 49.69349 | 7.67480 | 86° | 91km/h | 9543m | 3.1m/s | -43.7°C | 74.5% | 296.5hPa | 2.8V | 04:33:00 | 00:00:00 | 00:00:00 | |
| CB1BUN | 2026-09-01 17:15:29 | 49.69347 | 7.67444 | 87° | 93km/h | 9539m | 5.9m/s | -43.6°C | 74.7% | 296.7hPa | 2.8V | 04:33:00 | 00:00:00 | 00:00:00 | |
| DO3MHA-11 | 2026-09-01 17:15:28 | 49.69343 | 7.67371 | 86° | 91km/h | 9530m | 5.0m/s | -43.5°C | 81.4% | 297.0hPa | 2.8V | 00:00:00 | 00:45:45 | 00:00:00 | |
| DM0DOS-11 | 2026-09-01 17:15:26 | 49.69329 | 7.67123 | 83° | 89km/h | 9495m | 4m/s | -43.4°C | 86.9% | 298.5hPa | 2.8V | 04:32:40 | 00:45:38 | 00:00:00 | |
| BIOWL1-15 | 2026-09-01 17:15:24 | 49.69331 | 7.67158 | 86° | 89km/h | 9500m | 5.8m/s | -43.4°C | 81.6% | 298.3hPa | 2.8V | 04:33:15 | 00:45:39 | 00:00:00 | |
| DO1YAY-16 | 2026-09-01 17:15:23 | 49.69333 | 7.67193 | 86° | 89km/h | 9505m | 3.9m/s | -43.5°C | 81.2% | 298.1hPa | 2.8V | 00:00:00 | 00:00:00 | 00:00:00 | |
| DB0UT-9 | 2026-09-01 17:15:22 | 49.69332 | 7.67193 | 87° | 89km/h | 9505m | 3.9m/s | -43.5°C | 81.2% | 298.1hPa | 2.8V | 04:33:00 | 00:00:00 | 00:00:00 | |
| HEMX73-11 | 2026-09-01 17:15:21 | 49.69331 | 7.67158 | 87° | 89km/h | 9501m | 5.8m/s | -43.4°C | 81.7% | 298.3hPa | 2.8V | 04:33:00 | 00:00:00 | 00:00:00 | |
| DK5PH-5 | 2026-09-01 17:15:19 | 49.69323 | 7.67055 | 83° | 93km/h | 9485m | 4.3m/s | -43.3°C | 87.4% | 298.9hPa | 2.8V | 00:00:00 | 00:45:36 | 00:00:00 | |
| DO3MHA-11 | 2026-09-01 17:15:18 | 49.69320 | 7.67021 | 83° | 95km/h | 9481m | 3.8m/s | -43.2°C | 86.5% | 299.0hPa | 2.8V | 00:00:00 | 00:45:35 | 00:00:00 | |
| DM0DOS-11 | 2026-09-01 17:15:16 | 49.69305 | 7.66762 | 83° | 95km/h | 9449m | 4.3m/s | -43°C | 87.7% | 300.5hPa | 2.8V | 04:32:50 | 00:45:28 | 00:00:00 | |
| BIOWL1-15 | 2026-09-01 17:15:11 | 49.69305 | 7.66762 | 84° | 95km/h | 9449m | 4.3m/s | -43°C | 82.3% | 300.5hPa | 2.8V | 04:33:15 | 00:45:28 | 00:00:00 | |
| BIOWL7-15 | 2026-09-01 17:15:10 | 49.69305 | 7.66762 | 85° | 95km/h | 9450m | 4.3m/s | -43.0°C | 83.1% | 300.5hPa | 2.7V | 04:33:00 | 00:00:00 | 00:00:00 | |
| CB1BUN | 2026-09-01 17:15:09 | 49.69302 | 7.66726 | 84° | 93km/h | 9445m | 4.4m/s | -43.0°C | 82.3% | 300.6hPa | 2.7V | 04:33:00 | 00:00:00 | 00:00:00 | |
| DO3MHA-11 | 2026-09-01 17:15:08 | 49.69296 | 7.66654 | 83° | 91km/h | 9436m | 5.1m/s | -42.8°C | 86.8% | 301.1hPa | 2.7V | 00:00:00 | 00:45:25 | 00:00:00 | |
| DL8DAS-15 | 2026-09-01 17:15:07 | 49.69296 | 7.66654 | 84° | 93km/h | 9436m | 5.2m/s | -42.9°C | 82.2% | 301.1hPa | 2.8V | 04:33:00 | 00:00:00 | 00:00:00 | |
| DM0DOS-11 | 2026-09-01 17:15:06 | 49.69279 | 7.66404 | 84° | 91km/h | 9405m | 4.1m/s | -42.6°C | 87.5% | 302.5hPa | 2.8V | 04:33:00 | 00:45:18 | 00:00:00 | |
| BIOWL1-15 | 2026-09-01 17:15:02 | 49.69277 | 7.66369 | 84° | 89km/h | 9400m | 4.8m/s | -42.6°C | 80.9% | 302.7hPa | 2.7V | 04:33:15 | 00:45:17 | 00:00:00 | |
| DB0ND-19 | 2026-09-01 17:14:57 | 49.69268 | 7.66263 | 82° | 91km/h | 9386m | 5.0m/s | -42.4°C | 84.0% | 303.4hPa | 2.8V | 00:00:00 | 00:00:00 | 00:00:00 | |
| DM0DOS-11 | 2026-09-01 17:14:56 | 49.69246 | 7.66051 | 82° | 93km/h | 9355m | 2.6m/s | -42.1°C | 87.6% | 304.7hPa | 2.8V | 04:33:10 | 00:45:08 | 00:00:00 | |
| BIOWL1-15 | 2026-09-01 17:14:49 | 49.69241 | 7.65980 | 87° | 89km/h | 9345m | 4.7m/s | -42.1°C | 80.7% | 305.2hPa | 2.8V | 04:33:15 | 00:45:06 | 00:00:00 | |
| DK5PH-5 | 2026-09-01 17:14:49 | 49.69241 | 7.65980 | 87° | 89km/h | 9345m | 4.7m/s | -42.0°C | 86.3% | 305.1hPa | 2.7V | 00:00:00 | 00:45:06 | 00:00:00 | |
| CB1BUN | 2026-09-01 17:14:48 | 49.69241 | 7.65980 | 88° | 89km/h | 9345m | 4.7m/s | -42.1°C | 81.9% | 305.2hPa | 2.7V | 04:33:00 | 00:00:00 | 00:00:00 | |
| DM0DOS-11 | 2026-09-01 17:14:46 | 49.69220 | 7.65710 | 83° | 88km/h | 9304m | 3.6m/s | -41.7°C | 83.2% | 307.1hPa | 2.7V | 04:33:20 | 00:44:58 | 00:00:00 | |
| BIOWL1-15 | 2026-09-01 17:14:38 | 49.69212 | 7.65606 | 83° | 91km/h | 9290m | 5.4m/s | -41.5°C | 77.6% | 307.7hPa | 2.8V | 04:34:06 | 00:44:55 | 00:00:00 | |
| DM0DOS-11 | 2026-09-01 17:14:36 | 49.69191 | 7.65365 | 81° | 89km/h | 9258m | 3.6m/s | -41.2°C | 83.9% | 309.1hPa | 2.8V | 04:33:30 | 00:44:48 | 00:00:00 | |
| BIOWL1-15 | 2026-09-01 17:14:28 | 49.69180 | 7.65260 | 81° | 91km/h | 9245m | 3.5m/s | -41.1°C | 76.9% | 309.8hPa | 2.7V | 04:34:06 | 00:44:45 | 00:00:00 | |
| BIOWL1-15 | 2026-09-01 17:14:17 | 49.69147 | 7.64881 | 84° | 88km/h | 9193m | 3.9m/s | -40.7°C | 76.9% | 312.1hPa | 2.8V | 04:34:06 | 00:44:34 | 00:00:00 | |
| BIOWL1-15 | 2026-09-01 17:14:08 | 49.69114 | 7.64509 | 81° | 91km/h | 9147m | 4.5m/s | -40.2°C | 74.2% | 314.3hPa | 2.9V | 04:34:06 | 00:44:23 | 00:00:00 | |
| CB1BUN | 2026-09-01 17:14:07 | 49.69121 | 7.64578 | 82° | 88km/h | 9154m | 5.0m/s | -40.3°C | 76.7% | 313.9hPa | 2.7V | 04:34:00 | 00:00:00 | 00:00:00 | |
| DM0DOS-11 | 2026-09-01 17:14:06 | 49.69099 | 7.64330 | 82° | 89km/h | 9124m | 5.6m/s | -40°C | 79.9% | 315.3hPa | 2.7V | 04:34:00 | 00:44:18 | 00:00:00 | |
| BIOWL1-15 | 2026-09-01 17:13:58 | 49.69084 | 7.64157 | 83° | 88km/h | 9095m | 6.8m/s | -39.8°C | 76.5% | 316.6hPa | 2.8V | 04:34:06 | 00:44:13 | 00:00:00 | |
| DM7RM-13 | 2026-09-01 17:13:57 | 49.69090 | 7.64226 | 82° | 89km/h | 9105m | 5.7m/s | 0°C | 0% | 0hPa | 2.9V | 00:00:00 | 00:00:00 | 00:00:00 | |
| DM0DOS-11 | 2026-09-01 17:13:56 | 49.69067 | 7.63995 | 79° | 88km/h | 9070m | 4m/s | -39.6°C | 79.9% | 317.9hPa | 2.9V | 04:34:10 | 00:44:08 | 00:00:00 | |
| BIOWL1-15 | 2026-09-01 17:13:47 | 49.69045 | 7.63789 | 80° | 88km/h | 9043m | 4m/s | -39.5°C | 74.4% | 319hPa | 2.9V | 04:34:57 | 00:44:02 | 00:00:00 | |
| DM0DOS-11 | 2026-09-01 17:13:46 | 49.69028 | 7.63652 | 77° | 91km/h | 9024m | 5.9m/s | -39.3°C | 76.9% | 319.9hPa | 2.8V | 04:34:20 | 00:43:58 | 00:00:00 | |
| DO3MHA-11 | 2026-09-01 17:13:45 | 49.69045 | 7.63789 | 80° | 88km/h | 9043m | 4.0m/s | 0°C | 0% | 0hPa | 2.9V | 00:00:00 | 00:44:02 | 00:00:00 | |
| DF7PN | 2026-09-01 17:13:43 | 49.69033 | 7.63686 | 78° | 89km/h | 9029m | 5.3m/s | -39.4°C | 72.7% | 319.6hPa | 2.9V | 00:00:00 | 00:00:00 | 00:00:00 | |
| DM3KS-11 | 2026-09-01 17:13:42 | 49.69033 | 7.63686 | 78° | 89km/h | 9029m | 5.3m/s | -39.4°C | 72.7% | 319.6hPa | 2.9V | 00:00:00 | 00:00:00 | 00:00:00 | |
| BIOWL7-15 | 2026-09-01 17:13:41 | 49.69033 | 7.63686 | 79° | 91km/h | 9029m | 5.3m/s | -39.4°C | 72.7% | 319.6hPa | 2.9V | 04:34:00 | 00:00:00 | 00:00:00 | |
| DB0UT-9 | 2026-09-01 17:13:40 | 49.69028 | 7.63652 | 78° | 91km/h | 9024m | 5.9m/s | -39.3°C | 73.1% | 319.9hPa | 2.9V | 04:34:00 | 00:00:00 | 00:00:00 | |
| BIOWL9-15 | 2026-09-01 17:13:38 | 49.69009 | 7.63514 | 78° | 89km/h | 9007m | 5.0m/s | -39.3°C | 72.8% | 320.6hPa | 2.9V | 00:00:00 | 00:00:00 | 00:00:00 | |
| DM0DOS-11 | 2026-09-01 17:13:37 | 49.68982 | 7.63306 | 77° | 89km/h | 8982m | 6.5m/s | -39.1°C | 76.4% | 321.9hPa | 2.9V | 04:34:30 | 00:43:48 | 00:00:00 | |
| BIOWL1-15 | 2026-09-01 17:13:35 | 49.69001 | 7.63446 | 80° | 89km/h | 8999m | 3.6m/s | -39.2°C | 71.5% | 321hPa | 2.7V | 04:34:57 | 00:43:52 | 00:00:00 | |
| DO3MHA-11 | 2026-09-01 17:13:35 | 49.69001 | 7.63445 | 80° | 88km/h | 8999m | 3.5m/s | 0°C | 0% | 0hPa | 2.9V | 00:00:00 | 00:43:52 | 00:00:00 | |
| DL8DAS-15 | 2026-09-01 17:13:34 | 49.69001 | 7.63445 | 81° | 89km/h | 8999m | 3.6m/s | -39.2°C | 0% | 321.0hPa | 2.9V | 04:34:00 | 00:00:00 | 00:00:00 | |
| DL1ZP-14 | 2026-09-01 17:13:33 | 49.68987 | 7.63341 | 77° | 91km/h | 8986m | 3.1m/s | -39.2°C | 72.7% | 321.7hPa | 2.9V | 00:00:00 | 00:00:00 | 00:00:00 | |
| DH7VM-15 | 2026-09-01 17:13:30 | 49.68982 | 7.63306 | 78° | 89km/h | 8982m | 6.5m/s | -39.1°C | 72.6% | 321.9hPa | 2.7V | 00:00:00 | 00:00:00 | 00:00:00 | |
| DM0DOS-11 | 2026-09-01 17:13:26 | 49.68932 | 7.62975 | 76° | 88km/h | 8928m | 6.4m/s | -38.7°C | 73.3% | 324.4hPa | 2.7V | 04:34:40 | 00:43:38 | 00:00:00 | |
| CB1BUN | 2026-09-01 17:13:25 | 49.68956 | 7.63141 | 78° | 88km/h | 8955m | 7.9m/s | -38.9°C | 70.2% | 323.0hPa | 2.9V | 04:34:00 | 00:00:00 | 00:00:00 | |
| DB0ND-19 | 2026-09-01 17:13:24 | 49.68946 | 7.63074 | 78° | 88km/h | 8944m | 4.7m/s | -38.8°C | 69.8% | 323.6hPa | 2.9V | 00:00:00 | 00:00:00 | 00:00:00 | |
| BIOWL1-15 | 2026-09-01 17:13:24 | 49.68946 | 7.63074 | 78° | 89km/h | 8944m | 4.7m/s | -38.8°C | 69.8% | 323.6hPa | 2.9V | 04:34:57 | 00:43:41 | 00:00:00 | |
| NBG1-10 | 2026-09-01 17:13:22 | 49.68937 | 7.63008 | 78° | 86km/h | 8935m | 7.7m/s | -38.7°C | 72.6% | 324.1hPa | 2.9V | 00:00:00 | 00:43:39 | 00:00:00 | |
| DB0UT-9 | 2026-09-01 17:13:20 | 49.68932 | 7.62975 | 78° | 88km/h | 8928m | 6.4m/s | -38.7°C | 69.6% | 324.4hPa | 2.9V | 04:34:00 | 00:00:00 | 00:00:00 | |
| DK5PH-5 | 2026-09-01 17:13:19 | 49.68921 | 7.62910 | 76° | 86km/h | 8916m | 5.3m/s | -38.6°C | 74.5% | 324.8hPa | 2.9V | 04:34:00 | 00:43:36 | 00:00:00 | |
| DO3MHA-11 | 2026-09-01 17:13:18 | 49.68916 | 7.62879 | 75° | 88km/h | 8912m | 3.4m/s | 0°C | 0% | 0hPa | 2.9V | 00:00:00 | 00:43:35 | 00:00:00 | |
| DM0DOS-11 | 2026-09-01 17:13:16 | 49.68881 | 7.62646 | 78° | 89km/h | 8880m | 6.8m/s | -38.4°C | 70.3% | 326.6hPa | 2.9V | 04:34:50 | 00:43:28 | 00:00:00 | |
| BIOWL1-15 | 2026-09-01 17:13:16 | 49.68895 | 7.62749 | 77° | 88km/h | 8893m | 3.4m/s | -38.5°C | 69.5% | 326.1hPa | 2.7V | 04:34:57 | 00:43:31 | 00:00:00 | |
| DF7PN | 2026-09-01 17:13:12 | 49.68881 | 7.62646 | 78° | 89km/h | 8880m | 6.9m/s | -38.4°C | 66.8% | 326.6hPa | 2.8V | 00:00:00 | 00:00:00 | 00:00:00 | |
| DM3KS-11 | 2026-09-01 17:13:11 | 49.68881 | 7.62646 | 78° | 89km/h | 8880m | 6.9m/s | -38.4°C | 66.8% | 326.6hPa | 2.8V | 00:00:00 | 00:00:00 | 00:00:00 | |
| DO3MHA-11 | 2026-09-01 17:13:08 | 49.68870 | 7.62548 | 82° | 82km/h | 8865m | 4.5m/s | 0°C | 0% | 0hPa | 2.8V | 00:00:00 | 00:43:25 | 00:00:00 | |
| BIOWL9-15 | 2026-09-01 17:13:07 | 49.68863 | 7.62486 | 80° | 78km/h | 8856m | 5.1m/s | -38.2°C | 66.3% | 327.8hPa | 2.8V | 00:00:00 | 00:00:00 | 00:00:00 | |
| DM0DOS-11 | 2026-09-01 17:13:06 | 49.68845 | 7.62329 | 75° | 86km/h | 8834m | 5.3m/s | -38°C | 69.5% | 328.8hPa | 2.8V | 04:35:00 | 00:43:18 | 00:00:00 | |
| BIOWL1-15 | 2026-09-01 17:13:03 | 49.68853 | 7.62394 | 80° | 84km/h | 8843m | 3.4m/s | -38.1°C | 65.9% | 328.5hPa | 2.9V | 04:35:48 | 00:43:20 | 00:00:00 | |
| BIOWL1-15 | 2026-09-01 17:12:57 | 49.68806 | 7.62063 | 83° | 86km/h | 8800m | 3.6m/s | -37.8°C | 64.6% | 330.5hPa | 2.8V | 04:35:48 | 00:43:10 | 00:00:00 | |
| DB0ND-19 | 2026-09-01 17:12:53 | 49.68806 | 7.62063 | 82° | 86km/h | 8800m | 3.6m/s | -37.8°C | 65.0% | 330.5hPa | 2.9V | 00:00:00 | 00:00:00 | 00:00:00 | |
| DM0DOS-11 | 2026-09-01 17:12:52 | 49.68799 | 7.61997 | 79° | 84km/h | 8790m | 5.9m/s | -37.7°C | 67.9% | 331hPa | 2.9V | 04:35:10 | 00:43:08 | 00:00:00 | |
| DO1YAY-16 | 2026-09-01 17:12:48 | 49.68778 | 7.61870 | 74° | 80km/h | 8767m | 6.3m/s | -37.5°C | 63.4% | 331.9hPa | 2.9V | 00:00:00 | 00:00:00 | 00:00:00 | |
| DL8DAS-14 | 2026-09-01 17:12:47 | 49.68778 | 7.61870 | 74° | 80km/h | 8767m | 6.3m/s | -37.5°C | 63.4% | 331.9hPa | 2.9V | 00:00:00 | 00:00:00 | 00:00:00 | |
| BIOWL1-15 | 2026-09-01 17:12:45 | 49.68759 | 7.61746 | 77° | 80km/h | 8745m | 7.1m/s | -37.3°C | 66.2% | 333.1hPa | 2.9V | 04:35:48 | 00:43:00 | 00:00:00 | |
| CB1BUN | 2026-09-01 17:12:44 | 49.68769 | 7.61808 | 79° | 82km/h | 8756m | 4.5m/s | -37.4°C | 64.0% | 332.5hPa | 2.9V | 04:35:00 | 00:00:00 | 00:00:00 | |
| DM0DOS-11 | 2026-09-01 17:12:42 | 49.68751 | 7.61685 | 79° | 80km/h | 8735m | 6m/s | -37.2°C | 69.8% | 333.6hPa | 2.9V | 04:35:20 | 00:42:58 | 00:00:00 | |
| BIOWL1-15 | 2026-09-01 17:12:37 | 49.68719 | 7.61436 | 78° | 80km/h | 8702m | 3.3m/s | -36.9°C | 63.8% | 335.3hPa | 2.9V | 04:35:48 | 00:42:50 | 00:00:00 | |
| DB0UT-7 | 2026-09-01 17:12:36 | 49.68732 | 7.61529 | 78° | 80km/h | 8714m | 3.2m/s | -37.0°C | 67.9% | 334.7hPa | 2.7V | 00:00:00 | 00:00:00 | 00:00:00 | |
| BIOWL9-15 | 2026-09-01 17:12:35 | 49.68728 | 7.61498 | 77° | 80km/h | 8710m | 3.7m/s | -37.0°C | 64.1% | 335.0hPa | 2.7V | 00:00:00 | 00:00:00 | 00:00:00 | |
| DM0DOS-11 | 2026-09-01 17:12:32 | 49.68710 | 7.61376 | 76° | 78km/h | 8693m | 4.3m/s | -36.9°C | 66.8% | 335.8hPa | 2.7V | 04:35:30 | 00:42:48 | 00:00:00 | |
| DL1ZP-14 | 2026-09-01 17:12:31 | 49.68705 | 7.61346 | 77° | 78km/h | 8688m | 4.9m/s | -36.8°C | 64.5% | 336.0hPa | 2.8V | 00:00:00 | 00:00:00 | 00:00:00 | |
| DH7VM-15 | 2026-09-01 17:12:25 | 49.68686 | 7.61221 | 78° | 82km/h | 8671m | 6.3m/s | -36.7°C | 65.3% | 336.9hPa | 2.9V | 00:00:00 | 00:00:00 | 00:00:00 | |
| CB1BUN | 2026-09-01 17:12:23 | 49.68678 | 7.61157 | 82° | 86km/h | 8662m | 6.3m/s | -36.6°C | 64.5% | 337.3hPa | 2.9V | 04:35:00 | 00:00:00 | 00:00:00 | |
| DM0DOS-11 | 2026-09-01 17:12:22 | 49.68671 | 7.61057 | 83° | 86km/h | 8647m | 6.3m/s | -36.5°C | 67.7% | 338hPa | 2.9V | 04:35:40 | 00:42:38 | 00:00:00 | |
| BIOWL1-15 | 2026-09-01 17:12:22 | 49.68673 | 7.61090 | 85° | 86km/h | 8653m | 4.5m/s | -36.5°C | 63.5% | 337.8hPa | 2.9V | 04:35:48 | 00:42:39 | 00:00:00 | |
| DK5PH-5 | 2026-09-01 17:12:19 | 49.68665 | 7.60992 | 81° | 80km/h | 8637m | 6.2m/s | -36.3°C | 66.7% | 338.4hPa | 2.8V | 00:00:00 | 00:42:36 | 00:00:00 | |
| DB0UT-9 | 2026-09-01 17:12:18 | 49.68665 | 7.60992 | 81° | 84km/h | 8637m | 6.3m/s | -36.4°C | 63.6% | 338.5hPa | 2.8V | 04:35:00 | 00:00:00 | 00:00:00 | |
| DO1YAY-16 | 2026-09-01 17:12:17 | 49.68652 | 7.60897 | 75° | 78km/h | 8619m | 6.1m/s | -36.2°C | 62.3% | 339.3hPa | 2.8V | 00:00:00 | 00:00:00 | 00:00:00 | |
| DM0DOS-11 | 2026-09-01 17:12:16 | 49.68634 | 7.60750 | 82° | 75km/h | 8594m | 7.5m/s | -35.9°C | 63.4% | 340.7hPa | 2.8V | 04:35:50 | 00:42:28 | 00:00:00 | |
| BIOWL1-15 | 2026-09-01 17:12:12 | 49.68637 | 7.60779 | 83° | 75km/h | 8599m | 2.2m/s | -36°C | 61.9% | 340.5hPa | 2.9V | 04:36:39 | 00:42:29 | 00:00:00 | |
| DF7PN | 2026-09-01 17:12:10 | 49.68628 | 7.60691 | 79° | 78km/h | 8583m | 7.3m/s | -35.8°C | 59.6% | 341.3hPa | 2.9V | 00:00:00 | 00:00:00 | 00:00:00 | |
| DM3KS-11 | 2026-09-01 17:12:09 | 49.68628 | 7.60691 | 79° | 78km/h | 8583m | 7.3m/s | -35.8°C | 59.6% | 341.3hPa | 2.9V | 00:00:00 | 00:00:00 | 00:00:00 | |
| DM0DOS-11 | 2026-09-01 17:12:06 | 49.68594 | 7.60447 | 81° | 80km/h | 8539m | 5.7m/s | -35.4°C | 60.2% | 343.3hPa | 2.9V | 04:36:00 | 00:42:18 | 00:00:00 | |
| BIOWL1-15 | 2026-09-01 17:12:02 | 49.68598 | 7.60477 | 79° | 78km/h | 8544m | 4m/s | -35.5°C | 58.3% | 343.1hPa | 2.9V | 04:36:39 | 00:42:19 | 00:00:00 | |
| DL1ZP-14 | 2026-09-01 17:12:00 | 49.68589 | 7.60384 | 83° | 80km/h | 8531m | 4.8m/s | -35.3°C | 56.4% | 343.8hPa | 2.9V | 00:00:00 | 00:00:00 | 00:00:00 | |
| DB0UT-9 | 2026-09-01 17:11:57 | 49.68587 | 7.60353 | 83° | 78km/h | 8525m | 8.2m/s | -35.3°C | 56.0% | 344.1hPa | 2.9V | 04:36:00 | 00:00:00 | 00:00:00 | |
| DM0DOS-11 | 2026-09-01 17:11:56 | 49.68562 | 7.60139 | 81° | 82km/h | 8485m | 5.1m/s | -34.9°C | 58.2% | 345.9hPa | 2.9V | 04:36:10 | 00:42:08 | 00:00:00 | |
| BIOWL1-15 | 2026-09-01 17:11:51 | 49.68562 | 7.60139 | 81° | 82km/h | 8485m | 5.1m/s | -34.9°C | 56.4% | 345.9hPa | 2.9V | 04:36:39 | 00:42:08 | 00:00:00 | |
| DK5PH-5 | 2026-09-01 17:11:49 | 49.68556 | 7.60077 | 83° | 80km/h | 8476m | 4.4m/s | -34.8°C | 57.4% | 346.3hPa | 2.8V | 00:00:00 | 00:42:06 | 00:00:00 | |
| DM0DOS-11 | 2026-09-01 17:11:46 | 49.68536 | 7.59829 | 82° | 82km/h | 8438m | 4m/s | -34.5°C | 54.9% | 348.2hPa | 2.8V | 04:36:20 | 00:41:58 | 00:00:00 | |
| DL8DAS-14 | 2026-09-01 17:11:45 | 49.68547 | 7.59953 | 83° | 78km/h | 8458m | 4.8m/s | -34.7°C | 53.2% | 347.3hPa | 2.8V | 00:00:00 | 00:00:00 | 00:00:00 | |
| BIOWL1-15 | 2026-09-01 17:11:41 | 49.68536 | 7.59829 | 82° | 82km/h | 8438m | 4m/s | -34.5°C | 53.9% | 348.2hPa | 2.8V | 04:36:39 | 00:41:58 | 00:00:00 | |
| DM3KS-11 | 2026-09-01 17:11:38 | 49.68528 | 7.59735 | 82° | 80km/h | 8425m | 6.5m/s | -34.4°C | 51.1% | 348.8hPa | 2.9V | 00:00:00 | 00:00:00 | 00:00:00 | |
| DB0UT-9 | 2026-09-01 17:11:37 | 49.68527 | 7.59735 | 83° | 82km/h | 8425m | 6.5m/s | -34.4°C | 51.1% | 348.8hPa | 2.9V | 04:36:00 | 00:00:00 | 00:00:00 | |
| DM0DOS-11 | 2026-09-01 17:11:36 | 49.68509 | 7.59514 | 82° | 82km/h | 8391m | 6.5m/s | -34°C | 51.8% | 350.5hPa | 2.9V | 04:36:30 | 00:41:48 | 00:00:00 | |
| BIOWL1-15 | 2026-09-01 17:11:30 | 49.68505 | 7.59483 | 80° | 80km/h | 8385m | 4.8m/s | -34°C | 51.5% | 350.8hPa | 2.9V | 04:36:39 | 00:41:47 | 00:00:00 | |
| DL0LBS | 2026-09-01 17:11:28 | 49.68501 | 7.59453 | 80° | 78km/h | 8381m | 4.3m/s | -33.9°C | 49.1% | 351.1hPa | 2.9V | 04:36:00 | 00:00:00 | 00:00:00 | |
| DM0DOS-11 | 2026-09-01 17:11:26 | 49.68475 | 7.59216 | 80° | 78km/h | 8345m | 5.4m/s | -33.6°C | 50% | 352.9hPa | 2.9V | 04:36:40 | 00:41:38 | 00:00:00 | |
| BIOWL1-15 | 2026-09-01 17:11:20 | 49.68471 | 7.59185 | 81° | 80km/h | 8340m | 3.9m/s | -33.6°C | 49.9% | 353.2hPa | 2.9V | 04:37:30 | 00:41:37 | 00:00:00 | |
| BIOWL1-15 | 2026-09-01 17:11:16 | 49.68438 | 7.58873 | 81° | 77km/h | 8293m | 4.6m/s | -33.2°C | 38.1% | 355.6hPa | 2.8V | 04:37:30 | 00:41:27 | 00:00:00 | |
| DM0DOS-11 | 2026-09-01 17:11:14 | 49.68435 | 7.58843 | 81° | 78km/h | 8289m | 3.3m/s | -33.1°C | 35.8% | 355.8hPa | 2.8V | 04:36:52 | 00:41:26 | 00:00:00 | |
| HEMX73-11 | 2026-09-01 17:11:13 | 49.68450 | 7.58990 | 81° | 80km/h | 8312m | 5.9m/s | -33.3°C | 39.3% | 354.6hPa | 2.7V | 04:37:00 | 00:00:00 | 00:00:00 | |
| BIOWL7-15 | 2026-09-01 17:11:11 | 49.68444 | 7.58931 | 83° | 75km/h | 8301m | 6.0m/s | -33.2°C | 37.0% | 355.1hPa | 2.7V | 04:37:00 | 00:00:00 | 00:00:00 | |
| NBG1-10 | 2026-09-01 17:11:10 | 49.68438 | 7.58873 | 82° | 78km/h | 8293m | 4.6m/s | -33.1°C | 37.2% | 355.5hPa | 2.7V | 00:00:00 | 00:41:27 | 00:00:00 | |
| DL0LBS | 2026-09-01 17:11:08 | 49.68435 | 7.58842 | 82° | 78km/h | 8289m | 3.3m/s | -33.1°C | 33.7% | 355.8hPa | 2.9V | 04:37:00 | 00:00:00 | 00:00:00 | |
| DM3KS-11 | 2026-09-01 17:11:07 | 49.68430 | 7.58781 | 81° | 80km/h | 8280m | 3.8m/s | -33.0°C | 31.6% | 356.2hPa | 2.9V | 00:00:00 | 00:00:00 | 00:00:00 | |
| DB0UT-7 | 2026-09-01 17:11:06 | 49.68427 | 7.58750 | 82° | 78km/h | 8275m | 5.8m/s | -32.9°C | 32.7% | 356.5hPa | 2.9V | 00:00:00 | 00:41:23 | 00:00:00 | |
| DL8DAS-15 | 2026-09-01 17:11:05 | 49.68427 | 7.58750 | 82° | 80km/h | 8275m | 5.9m/s | 0°C | 0% | 356.5hPa | 2.9V | 00:00:00 | 00:00:00 | 00:00:00 | |
| DM0DOS-11 | 2026-09-01 17:11:04 | 49.68407 | 7.58538 | 82° | 80km/h | 8242m | 6.2m/s | -32.7°C | 28% | 358.1hPa | 2.9V | 04:37:02 | 00:41:16 | 00:00:00 | |
| BIOWL1-15 | 2026-09-01 17:10:59 | 49.68408 | 7.58538 | 82° | 80km/h | 8242m | 6.2m/s | -32.7°C | 29.5% | 358.1hPa | 2.9V | 04:37:30 | 00:41:16 | 00:00:00 | |
| BIOWL1-15 | 2026-09-01 17:10:48 | 49.68374 | 7.58211 | 81° | 78km/h | 8191m | 3.6m/s | -32.2°C | 29.4% | 360.8hPa | 2.9V | 04:37:30 | 00:41:05 | 00:00:00 | |
| BIOWL1-15 | 2026-09-01 17:10:40 | 49.68344 | 7.57910 | 79° | 77km/h | 8144m | 5.6m/s | -31.8°C | 27.9% | 363.2hPa | 2.9V | 04:37:30 | 00:40:55 | 00:00:00 | |
| BIOWL1-15 | 2026-09-01 17:10:27 | 49.68308 | 7.57591 | 84° | 73km/h | 8090m | 4.3m/s | -31.4°C | 31.8% | 365.9hPa | 2.9V | 04:38:21 | 00:40:44 | 00:00:00 | |
| DM0DOS-11 | 2026-09-01 17:10:26 | 49.68286 | 7.57418 | 75° | 80km/h | 8064m | 3.7m/s | -31.2°C | 34.4% | 367.2hPa | 2.9V | 04:37:40 | 00:40:38 | 00:00:00 | |
| BIOWL1-15 | 2026-09-01 17:10:23 | 49.68271 | 7.57298 | 83° | 77km/h | 8048m | 4.9m/s | -31.1°C | 37.3% | 368hPa | 2.9V | 04:38:21 | 00:40:34 | 00:00:00 | |
| CB1BUN | 2026-09-01 17:10:19 | 49.68281 | 7.57388 | 78° | 80km/h | 8060m | 4.5m/s | -31.2°C | 33.4% | 367.4hPa | 2.9V | 04:38:00 | 00:00:00 | 00:00:00 | |
| DK5PH-5 | 2026-09-01 17:10:18 | 49.68274 | 7.57327 | 82° | 77km/h | 8052m | 3.5m/s | -31.0°C | 36.3% | 367.8hPa | 2.9V | 00:00:00 | 00:40:35 | 00:00:00 | |
| DM0DOS-11 | 2026-09-01 17:10:16 | 49.68258 | 7.57119 | 82° | 77km/h | 8021m | 4.1m/s | -30.8°C | 34.9% | 369.4hPa | 2.9V | 04:37:50 | 00:40:28 | 00:00:00 | |
| DB0UT-9 | 2026-09-01 17:10:15 | 49.68269 | 7.57268 | 85° | 77km/h | 8043m | 3.8m/s | -31.0°C | 33.9% | 368.3hPa | 2.9V | 04:38:00 | 00:00:00 | 00:00:00 | |
| BIOWL1-15 | 2026-09-01 17:10:06 | 49.68218 | 7.56709 | 82° | 75km/h | 7958m | 4.1m/s | -30.2°C | 31.4% | 372.7hPa | 2.9V | 04:38:21 | 00:40:14 | 00:00:00 | |
| DB0UT-7 | 2026-09-01 17:10:06 | 49.68243 | 7.56972 | 82° | 77km/h | 7998m | 6.4m/s | -30.6°C | 33.2% | 370.5hPa | 2.9V | 00:00:00 | 00:40:23 | 00:00:00 | |
| DM3KS-11 | 2026-09-01 17:10:05 | 49.68240 | 7.56943 | 81° | 75km/h | 7993m | 3.2m/s | -30.6°C | 31.2% | 370.9hPa | 2.9V | 00:00:00 | 00:00:00 | 00:00:00 | |
| NBG1-10 | 2026-09-01 17:10:04 | 49.68237 | 7.56914 | 81° | 77km/h | 7989m | 5.6m/s | -30.5°C | 32.3% | 371.1hPa | 2.9V | 00:00:00 | 00:40:21 | 00:00:00 | |
| BIOWL7-15 | 2026-09-01 17:10:03 | 49.68237 | 7.56914 | 82° | 77km/h | 7989m | 5.6m/s | -30.5°C | 30.5% | 371.1hPa | 2.9V | 04:38:00 | 00:00:00 | 00:00:00 | |
| BIOWL1-15 | 2026-09-01 17:09:46 | 49.68181 | 7.56384 | 87° | 77km/h | 7909m | 4.6m/s | -29.8°C | 37% | 375.3hPa | 2.9V | 04:38:21 | 00:40:03 | 00:00:00 | |
| BIOWL7-15 | 2026-09-01 17:09:42 | 49.68177 | 7.56297 | 86° | 75km/h | 7898m | 3.1m/s | -29.7°C | 34.0% | 376.0hPa | 2.9V | 04:38:00 | 00:00:00 | 00:00:00 | |
| DL9PN | 2026-09-01 17:09:41 | 49.68170 | 7.56208 | 81° | 77km/h | 7886m | 4.2m/s | -29.6°C | 36.4% | 376.6hPa | 2.9V | 00:00:00 | 00:00:00 | 00:00:00 | |
| CB1BUN | 2026-09-01 17:09:38 | 49.68167 | 7.56178 | 82° | 78km/h | 7882m | 5.2m/s | -29.6°C | 38.1% | 376.9hPa | 2.9V | 04:39:00 | 00:00:00 | 00:00:00 | |
| DM0DOS-11 | 2026-09-01 17:09:36 | 49.68138 | 7.55946 | 77° | 80km/h | 7846m | 4.4m/s | -29.3°C | 37.1% | 378.8hPa | 2.9V | 04:38:30 | 00:39:48 | 00:00:00 | |
| BIOWL1-15 | 2026-09-01 17:09:36 | 49.68158 | 7.56090 | 81° | 73km/h | 7867m | 5.7m/s | -29.5°C | 42.4% | 377.6hPa | 2.8V | 04:39:12 | 00:39:53 | 00:00:00 | |
| BIOWL1-15 | 2026-09-01 17:09:28 | 49.68121 | 7.55798 | 82° | 75km/h | 7823m | 5.9m/s | -29.1°C | 41.1% | 379.9hPa | 2.9V | 04:39:12 | 00:39:43 | 00:00:00 | |
| DL0LBS | 2026-09-01 17:09:27 | 49.68127 | 7.55856 | 81° | 77km/h | 7833m | 4.9m/s | -29.2°C | 36.5% | 379.4hPa | 2.8V | 04:39:00 | 00:00:00 | 00:00:00 | |
| DM0DOS-11 | 2026-09-01 17:09:26 | 49.68109 | 7.55654 | 82° | 77km/h | 7802m | 5.5m/s | -28.9°C | 41.5% | 381hPa | 2.8V | 04:38:40 | 00:39:38 | 00:00:00 | |
| BIOWL1-15 | 2026-09-01 17:09:17 | 49.68097 | 7.55481 | 85° | 75km/h | 7776m | 4m/s | -28.7°C | 43.4% | 382.4hPa | 2.9V | 04:39:12 | 00:39:32 | 00:00:00 | |
| DM0DOS-11 | 2026-09-01 17:09:16 | 49.68087 | 7.55364 | 82° | 80km/h | 7759m | 4.2m/s | -28.6°C | 42.5% | 383.4hPa | 2.8V | 04:38:50 | 00:39:28 | 00:00:00 | |
| DB0ND-19 | 2026-09-01 17:09:16 | 49.68097 | 7.55481 | 84° | 73km/h | 7776m | 4.0m/s | -28.7°C | 40.5% | 382.4hPa | 2.8V | 00:00:00 | 00:00:00 | 00:00:00 | |
| DB0UT-9 | 2026-09-01 17:09:13 | 49.68095 | 7.55453 | 85° | 73km/h | 7771m | 4.4m/s | -28.7°C | 40.7% | 382.6hPa | 2.8V | 04:39:00 | 00:00:00 | 00:00:00 | |
| DL8DAS-14 | 2026-09-01 17:09:10 | 49.68085 | 7.55333 | 83° | 77km/h | 7755m | 4.3m/s | -28.5°C | 40.4% | 383.6hPa | 2.8V | 00:00:00 | 00:00:00 | 00:00:00 | |
| HEMX73-11 | 2026-09-01 17:09:09 | 49.68085 | 7.55333 | 85° | 78km/h | 7755m | 4.3m/s | -28.5°C | 40.4% | 383.6hPa | 2.8V | 04:39:00 | 00:00:00 | 00:00:00 | |
| DH7VM-15 | 2026-09-01 17:09:07 | 49.68081 | 7.55273 | 86° | 75km/h | 7747m | 5.1m/s | -28.4°C | 40.5% | 384.1hPa | 2.8V | 00:00:00 | 00:00:00 | 00:00:00 | |
| DM0DOS-11 | 2026-09-01 17:09:06 | 49.68066 | 7.55072 | 82° | 77km/h | 7717m | 3.5m/s | -28.1°C | 42% | 385.7hPa | 2.8V | 04:39:00 | 00:39:18 | 00:00:00 | |
| BIOWL1-15 | 2026-09-01 17:09:05 | 49.68076 | 7.55187 | 85° | 75km/h | 7734m | 4.2m/s | -28.3°C | 42.6% | 384.8hPa | 2.9V | 04:39:12 | 00:39:22 | 00:00:00 | |
| BIOWL1-15 | 2026-09-01 17:08:57 | 49.68052 | 7.54898 | 87° | 75km/h | 7691m | 6m/s | -27.9°C | 43% | 387.1hPa | 2.9V | 04:39:12 | 00:39:12 | 00:00:00 | |
| DL1ZP-14 | 2026-09-01 17:08:53 | 49.68050 | 7.54839 | 88° | 75km/h | 7681m | 4.3m/s | -27.8°C | 40.0% | 387.7hPa | 2.9V | 00:00:00 | 00:00:00 | 00:00:00 | |
| BIOWL1-15 | 2026-09-01 17:08:44 | 49.68030 | 7.54578 | 81° | 75km/h | 7643m | 4.6m/s | -27.4°C | 42.2% | 389.9hPa | 2.9V | 04:40:03 | 00:39:01 | 00:00:00 | |
| BIOWL7-15 | 2026-09-01 17:08:41 | 49.68024 | 7.54519 | 85° | 77km/h | 7635m | 3.8m/s | -27.4°C | 39.5% | 390.4hPa | 2.9V | 04:40:00 | 00:00:00 | 00:00:00 | |
| DL9PN | 2026-09-01 17:08:39 | 49.68015 | 7.54404 | 83° | 73km/h | 7616m | 4.4m/s | -27.2°C | 39.0% | 391.3hPa | 2.9V | 00:00:00 | 00:00:00 | 00:00:00 | |
| DM0DOS-11 | 2026-09-01 17:08:36 | 49.68003 | 7.54239 | 84° | 73km/h | 7593m | 3.4m/s | -27°C | 40% | 392.7hPa | 2.9V | 04:39:29 | 00:38:49 | 00:00:00 | |
| BIOWL1-15 | 2026-09-01 17:08:35 | 49.68005 | 7.54267 | 85° | 73km/h | 7597m | 4.2m/s | -27°C | 41% | 392.5hPa | 2.9V | 04:40:03 | 00:38:50 | 00:00:00 | |
| BIOWL1-15 | 2026-09-01 17:08:23 | 49.67993 | 7.53983 | 86° | 73km/h | 7556m | 4m/s | -26.6°C | 39.4% | 394.8hPa | 2.9V | 04:40:03 | 00:38:40 | 00:00:00 | |
| DF3TZ-5 | 2026-09-01 17:08:23 | 49.67991 | 7.53954 | 82° | 73km/h | 7551m | 5.6m/s | 0°C | -1.0% | 395.0hPa | 2.7V | 00:00:00 | 00:00:00 | 00:00:00 | |
| NBG1-10 | 2026-09-01 17:08:22 | 49.67991 | 7.53954 | 83° | 71km/h | 7551m | 5.6m/s | -26.5°C | 0% | 395.0hPa | 2.7V | 00:00:00 | 00:38:39 | 00:00:00 | |
| BIOWL7-15 | 2026-09-01 17:08:21 | 49.67991 | 7.53954 | 83° | 73km/h | 7551m | 5.6m/s | -26.6°C | 35.4% | 395.0hPa | 2.7V | 04:40:00 | 00:00:00 | 00:00:00 | |
| DK5PH-5 | 2026-09-01 17:08:18 | 49.67979 | 7.53840 | 83° | 71km/h | 7535m | 3.6m/s | -26.4°C | 35.8% | 395.9hPa | 2.7V | 04:39:00 | 00:38:35 | 00:00:00 | |
| CB1BUN | 2026-09-01 17:08:16 | 49.67975 | 7.53782 | 86° | 75km/h | 7526m | 3.4m/s | -26.4°C | 31.6% | 396.6hPa | 2.9V | 04:40:00 | 00:00:00 | 00:00:00 | |
| DM0DOS-11 | 2026-09-01 17:08:15 | 49.67973 | 7.53606 | 92° | 73km/h | 7499m | 6.2m/s | -26.1°C | 31.1% | 398.1hPa | 2.9V | 04:39:51 | 00:38:27 | 00:00:00 | |
| BIOWL1-15 | 2026-09-01 17:08:12 | 49.67972 | 7.53664 | 91° | 77km/h | 7507m | 7m/s | -26.2°C | 32.2% | 397.5hPa | 2.9V | 04:40:03 | 00:38:29 | 00:00:00 | |
| DB0UT-9 | 2026-09-01 17:08:10 | 49.67972 | 7.53634 | 94° | 73km/h | 7503m | 2.5m/s | -26.2°C | 30.0% | 397.9hPa | 2.9V | 04:40:00 | 00:00:00 | 00:00:00 | |
| DL8DAS-14 | 2026-09-01 17:08:08 | 49.67973 | 7.53550 | 85° | 69km/h | 7488m | 5.1m/s | -26.1°C | -1.0% | -1.0hPa | 2.9V | 00:00:00 | 00:00:00 | 00:00:00 | |
| HEMX73-11 | 2026-09-01 17:08:07 | 49.67973 | 7.53550 | 87° | 69km/h | 7488m | 5.1m/s | -26.1°C | 29.8% | 398.7hPa | 2.9V | 04:40:00 | 00:00:00 | 00:00:00 | |
| DM0DOS-11 | 2026-09-01 17:08:06 | 49.67952 | 7.53333 | 86° | 77km/h | 7440m | 5.6m/s | -25.6°C | 29.9% | 401.1hPa | 2.9V | 04:40:01 | 00:38:17 | 00:00:00 | |
| BIOWL1-15 | 2026-09-01 17:08:03 | 49.67954 | 7.53363 | 84° | 75km/h | 7447m | 8.1m/s | -25.7°C | 31.5% | 400.8hPa | 2.8V | 04:40:03 | 00:38:18 | 00:00:00 | |
| DB0UT-7 | 2026-09-01 17:08:03 | 49.67959 | 7.53419 | 80° | 71km/h | 7458m | 6.1m/s | -25.7°C | 30.2% | 400.2hPa | 2.9V | 00:00:00 | 00:38:20 | 00:00:00 | |
| DM3KS-11 | 2026-09-01 17:08:01 | 49.67952 | 7.53333 | 86° | 75km/h | 7440m | 5.6m/s | -25.6°C | 28.5% | 401.1hPa | 2.9V | 00:00:00 | 00:00:00 | 00:00:00 | |
| BIOWL9-15 | 2026-09-01 17:07:56 | 49.67949 | 7.53220 | 86° | 69km/h | 7418m | 5.3m/s | -25.4°C | 27.9% | 402.3hPa | 2.9V | 00:00:00 | 00:00:00 | 00:00:00 | |
| DM0DOS-11 | 2026-09-01 17:07:55 | 49.67943 | 7.53055 | 92° | 68km/h | 7390m | 6.8m/s | -25.1°C | 28.2% | 403.9hPa | 2.9V | 04:40:11 | 00:38:07 | 00:00:00 | |
| BIOWL1-15 | 2026-09-01 17:07:51 | 49.67943 | 7.53081 | 90° | 68km/h | 7394m | 2.6m/s | -25.2°C | 29.8% | 403.7hPa | 2.9V | 04:40:54 | 00:38:08 | 00:00:00 | |
| DB0UT-9 | 2026-09-01 17:07:49 | 49.67943 | 7.53055 | 94° | 68km/h | 7390m | 6.8m/s | -25.1°C | 26.9% | 403.9hPa | 2.8V | 04:40:00 | 00:00:00 | 00:00:00 | |
| DK5PH-5 | 2026-09-01 17:07:48 | 49.67943 | 7.53003 | 88° | 69km/h | 7379m | 4.4m/s | -25.0°C | 28.2% | 404.4hPa | 2.8V | 00:00:00 | 00:38:05 | 00:00:00 | |
| HEMX73-11 | 2026-09-01 17:07:46 | 49.67942 | 7.52976 | 87° | 69km/h | 7374m | 5.4m/s | -25.0°C | 26.8% | 404.8hPa | 2.8V | 04:40:00 | 00:00:00 | 00:00:00 | |
| DM0DOS-11 | 2026-09-01 17:07:45 | 49.67930 | 7.52784 | 83° | 73km/h | 7333m | 6.8m/s | -24.6°C | 27.3% | 406.8hPa | 2.8V | 04:40:21 | 00:37:57 | 00:00:00 | |
| BIOWL1-15 | 2026-09-01 17:07:41 | 49.67932 | 7.52811 | 85° | 71km/h | 7340m | 6.6m/s | -24.7°C | 28.9% | 406.5hPa | 2.9V | 04:40:54 | 00:37:58 | 00:00:00 | |
| DO1YAY-16 | 2026-09-01 17:07:37 | 49.67925 | 7.52672 | 86° | 73km/h | 7307m | 4.6m/s | -24.4°C | -1.0% | -1.0hPa | 2.8V | 00:00:00 | 00:00:00 | 00:00:00 | |
| DL9PN | 2026-09-01 17:07:36 | 49.67925 | 7.52672 | 86° | 73km/h | 7307m | 4.6m/s | -24.4°C | 26.0% | 408.2hPa | 2.8V | 00:00:00 | 00:00:00 | 00:00:00 | |
| DM0DOS-11 | 2026-09-01 17:07:35 | 49.67917 | 7.52496 | 83° | 71km/h | 7275m | 7.3m/s | -24.2°C | 25% | 410.2hPa | 2.8V | 04:40:31 | 00:37:47 | 00:00:00 | |
| BIOWL1-15 | 2026-09-01 17:07:32 | 49.67917 | 7.52496 | 83° | 71km/h | 7275m | 7.3m/s | -24.2°C | 26.8% | 410.2hPa | 2.8V | 04:40:54 | 00:37:47 | 00:00:00 | |
| DM3KS-11 | 2026-09-01 17:07:30 | 49.67915 | 7.52469 | 84° | 68km/h | 7268m | 6.6m/s | -24.1°C | 23.6% | 410.4hPa | 2.8V | 00:00:00 | 00:00:00 | 00:00:00 | |
| DB0UT-9 | 2026-09-01 17:07:28 | 49.67914 | 7.52469 | 85° | 68km/h | 7268m | 6.6m/s | -24.1°C | 23.7% | 410.4hPa | 2.8V | 04:40:00 | 00:00:00 | 00:00:00 | |
| HEMX73-11 | 2026-09-01 17:07:26 | 49.67910 | 7.52417 | 82° | 68km/h | 7257m | 6.3m/s | -24.0°C | 23.2% | 411.0hPa | 2.8V | 04:40:00 | 00:00:00 | 00:00:00 | |
| DM0DOS-11 | 2026-09-01 17:07:25 | 49.67895 | 7.52235 | 88° | 71km/h | 7223m | 5.1m/s | -23.8°C | 23.7% | 412.8hPa | 2.8V | 04:40:41 | 00:37:37 | 00:00:00 | |
| BIOWL1-15 | 2026-09-01 17:07:20 | 49.67895 | 7.52235 | 88° | 71km/h | 7223m | 5.1m/s | -23.8°C | 25.3% | 412.8hPa | 2.8V | 04:40:54 | 00:37:37 | 00:00:00 | |
| DL1ZP-14 | 2026-09-01 17:07:20 | 49.67895 | 7.52235 | 88° | 69km/h | 7223m | 5.1m/s | -23.8°C | 22.5% | 412.8hPa | 2.8V | 00:00:00 | 00:00:00 | 00:00:00 | |
| DK5PH-5 | 2026-09-01 17:07:18 | 49.67894 | 7.52182 | 89° | 68km/h | 7213m | 4.6m/s | -23.6°C | 23.6% | 413.3hPa | 2.9V | 00:00:00 | 00:37:35 | 00:00:00 | |
| DM0DOS-11 | 2026-09-01 17:07:14 | 49.67880 | 7.51969 | 84° | 66km/h | 7180m | 5m/s | -23.3°C | 22.2% | 415.2hPa | 2.9V | 04:40:51 | 00:37:27 | 00:00:00 | |
| BIOWL1-15 | 2026-09-01 17:07:11 | 49.67879 | 7.51943 | 86° | 64km/h | 7175m | 5.2m/s | -23.3°C | 23.9% | 415.5hPa | 2.9V | 04:40:54 | 00:37:26 | 00:00:00 | |
| DB0UT-9 | 2026-09-01 17:07:07 | 49.67877 | 7.51919 | 87° | 62km/h | 7171m | 4.3m/s | -23.3°C | 21.4% | 415.8hPa | 2.9V | 04:40:00 | 00:00:00 | 00:00:00 | |
| HEMX73-11 | 2026-09-01 17:07:05 | 49.67875 | 7.51870 | 86° | 62km/h | 7162m | 5.0m/s | -23.2°C | 21.3% | 416.2hPa | 2.9V | 04:41:00 | 00:00:00 | 00:00:00 | |
| DM0DOS-11 | 2026-09-01 17:07:04 | 49.67864 | 7.51723 | 84° | 64km/h | 7134m | 4.5m/s | -22.9°C | 19.4% | 417.7hPa | 2.9V | 04:41:01 | 00:37:17 | 00:00:00 | |
| BIOWL1-15 | 2026-09-01 17:06:58 | 49.67860 | 7.51671 | 82° | 69km/h | 7126m | 4.7m/s | -22.9°C | 20.4% | 418.2hPa | 2.9V | 04:41:45 | 00:37:15 | 00:00:00 | |
| DM0DOS-11 | 2026-09-01 17:06:54 | 49.67851 | 7.51456 | 89° | 68km/h | 7095m | 5.2m/s | -22.6°C | 19.2% | 420hPa | 2.9V | 04:41:11 | 00:37:07 | 00:00:00 | |
| BIOWL1-15 | 2026-09-01 17:06:49 | 49.67849 | 7.51377 | 86° | 68km/h | 7082m | 5.5m/s | -22.4°C | 20.2% | 420.9hPa | 2.9V | 04:41:45 | 00:37:04 | 00:00:00 | |
| DK5PH-5 | 2026-09-01 17:06:48 | 49.67850 | 7.51403 | 88° | 69km/h | 7087m | 5.4m/s | -22.4°C | 19.0% | 420.4hPa | 2.9V | 00:00:00 | 00:37:05 | 00:00:00 | |
| DB0UT-9 | 2026-09-01 17:06:46 | 49.67849 | 7.51377 | 87° | 68km/h | 7082m | 5.5m/s | -22.4°C | 17.9% | 420.9hPa | 2.9V | 04:41:00 | 00:00:00 | 00:00:00 | |
| HEMX73-11 | 2026-09-01 17:06:45 | 49.67847 | 7.51351 | 86° | 68km/h | 7076m | 6.2m/s | -22.4°C | 17.8% | 421.2hPa | 2.9V | 04:41:00 | 00:00:00 | 00:00:00 | |
| DM0DOS-11 | 2026-09-01 17:06:44 | 49.67836 | 7.51183 | 84° | 75km/h | 7047m | 4.5m/s | -22.1°C | 16.9% | 422.9hPa | 2.9V | 04:41:21 | 00:36:57 | 00:00:00 | |
| BIOWL1-15 | 2026-09-01 17:06:36 | 49.67828 | 7.51073 | 82° | 69km/h | 7029m | 6.3m/s | -21.9°C | 16.7% | 424.1hPa | 2.9V | 04:41:45 | 00:36:53 | 00:00:00 | |
| BIOWL1-15 | 2026-09-01 17:06:26 | 49.67811 | 7.50803 | 82° | 66km/h | 6979m | 6.2m/s | -21.5°C | 15.3% | 426.9hPa | 2.9V | 04:41:45 | 00:36:43 | 00:00:00 | |
| DF1GD-15 | 2026-09-01 17:06:25 | 49.67811 | 7.50803 | 83° | 66km/h | 6979m | 6.2m/s | -21.5°C | 13.3% | 426.9hPa | 2.9V | 04:41:00 | 00:00:00 | 00:00:00 | |
| DM0DOS-11 | 2026-09-01 17:06:24 | 49.67799 | 7.50653 | 82° | 62km/h | 6951m | 5.4m/s | -21.2°C | 13.7% | 428.5hPa | 2.9V | 04:41:41 | 00:36:37 | 00:00:00 | |
| BIOWL1-15 | 2026-09-01 17:06:19 | 49.67792 | 7.50527 | 84° | 66km/h | 6930m | 4.9m/s | -21°C | 14% | 430hPa | 2.8V | 04:42:36 | 00:36:32 | 00:00:00 | |
| DK5PH-5 | 2026-09-01 17:06:18 | 49.67795 | 7.50603 | 86° | 66km/h | 6944m | 4.6m/s | -21.1°C | 13.4% | 429.0hPa | 2.9V | 00:00:00 | 00:36:35 | 00:00:00 | |
| DM0DOS-11 | 2026-09-01 17:06:14 | 49.67778 | 7.50400 | 78° | 69km/h | 6908m | 3.5m/s | -20.8°C | 12.6% | 431.2hPa | 2.9V | 04:41:51 | 00:36:27 | 00:00:00 | |
| BIOWL1-15 | 2026-09-01 17:06:06 | 49.67765 | 7.50245 | 87° | 62km/h | 6884m | 4.9m/s | -20.6°C | 11.5% | 432.5hPa | 2.9V | 04:42:36 | 00:36:21 | 00:00:00 | |
| HEMX73-11 | 2026-09-01 17:06:05 | 49.67768 | 7.50295 | 85° | 68km/h | 6893m | 3.8m/s | -20.7°C | 11.0% | 432.1hPa | 2.9V | 04:42:00 | 00:00:00 | 00:00:00 | |
| DM0DOS-11 | 2026-09-01 17:06:04 | 49.67758 | 7.50153 | 80° | 60km/h | 6867m | 4.2m/s | -20.5°C | 10.6% | 433.5hPa | 2.9V | 04:42:01 | 00:36:17 | 00:00:00 | |
| BIOWL1-15 | 2026-09-01 17:05:56 | 49.67744 | 7.49997 | 82° | 69km/h | 6841m | 4.2m/s | -20.3°C | 10.5% | 435.1hPa | 2.9V | 04:42:36 | 00:36:11 | 00:00:00 | |
| DM0DOS-11 | 2026-09-01 17:05:55 | 49.67736 | 7.49894 | 82° | 66km/h | 6823m | 4.9m/s | -20.2°C | 10.2% | 436hPa | 2.9V | 04:42:11 | 00:36:07 | 00:00:00 | |
| BIOWL9-15 | 2026-09-01 17:05:52 | 49.67740 | 7.49945 | 83° | 64km/h | 6831m | 3.2m/s | -20.2°C | 9.6% | 435.5hPa | 2.9V | 00:00:00 | 00:00:00 | 00:00:00 | |
| DL1ZP-14 | 2026-09-01 17:05:47 | 49.67729 | 7.49818 | 81° | 64km/h | 6810m | 4.2m/s | -20.2°C | 9.5% | 436.9hPa | 2.9V | 00:00:00 | 00:00:00 | 00:00:00 | |
| BIOWL1-15 | 2026-09-01 17:05:45 | 49.67718 | 7.49713 | 84° | 73km/h | 6794m | 3.9m/s | -20.1°C | 10.3% | 437.8hPa | 2.9V | 04:42:36 | 00:36:00 | 00:00:00 | |
| DM0DOS-11 | 2026-09-01 17:05:44 | 49.67714 | 7.49628 | 86° | 69km/h | 6782m | 4.1m/s | -20°C | 10.1% | 438.6hPa | 2.9V | 04:42:21 | 00:35:57 | 00:00:00 | |
| BIOWL1-15 | 2026-09-01 17:05:35 | 49.67697 | 7.49450 | 82° | 68km/h | 6743m | 4.6m/s | -19.8°C | 10.7% | 440.7hPa | 2.9V | 04:42:36 | 00:35:50 | 00:00:00 | |
| DM0DOS-11 | 2026-09-01 17:05:34 | 49.67690 | 7.49373 | 83° | 62km/h | 6728m | 1.7m/s | -19.6°C | 10.7% | 441.5hPa | 2.9V | 04:42:31 | 00:35:47 | 00:00:00 | |
| DO1YAY-16 | 2026-09-01 17:05:33 | 49.67697 | 7.49450 | 82° | 66km/h | 6743m | 4.6m/s | -19.8°C | -1.0% | -1.0hPa | 2.9V | 00:00:00 | 00:00:00 | 00:00:00 | |
| DL9PN | 2026-09-01 17:05:32 | 49.67695 | 7.49424 | 81° | 68km/h | 6738m | 5.9m/s | -19.7°C | 9.7% | 440.9hPa | 2.9V | 00:00:00 | 00:00:00 | 00:00:00 | |
| DB0UT-7 | 2026-09-01 17:05:31 | 49.67692 | 7.49398 | 84° | 58km/h | 6732m | 5.7m/s | -19.6°C | 10.5% | 441.2hPa | 2.9V | 00:00:00 | 00:00:00 | 00:00:00 | |
| CB1BUN | 2026-09-01 17:05:30 | 49.67692 | 7.49398 | 84° | 66km/h | 6732m | 5.7m/s | -19.7°C | 9.9% | 441.3hPa | 2.9V | 04:42:00 | 00:00:00 | 00:00:00 | |
| DB0UT-9 | 2026-09-01 17:05:25 | 49.67679 | 7.49286 | 75° | 55km/h | 6708m | 6.0m/s | -19.6°C | 10.2% | 442.7hPa | 2.9V | 04:42:00 | 00:00:00 | 00:00:00 | |
| DM0DOS-11 | 2026-09-01 17:05:24 | 49.67663 | 7.49144 | 87° | 62km/h | 6678m | 5m/s | -19.5°C | 11.6% | 444.6hPa | 2.9V | 04:42:41 | 00:35:37 | 00:00:00 | |
| BIOWL1-15 | 2026-09-01 17:05:24 | 49.67666 | 7.49194 | 82° | 66km/h | 6687m | 5.5m/s | -19.5°C | 12.2% | 444.1hPa | 2.9V | 04:43:27 | 00:35:39 | 00:00:00 | |
| BIOWL7-15 | 2026-09-01 17:05:22 | 49.67669 | 7.49219 | 81° | 62km/h | 6692m | 4.5m/s | -19.5°C | 10.5% | 443.8hPa | 2.9V | 00:00:00 | 00:00:00 | 00:00:00 | |
| BIOWL9-15 | 2026-09-01 17:05:21 | 49.67664 | 7.49169 | 85° | 66km/h | 6682m | 3.7m/s | -19.5°C | 10.9% | 444.4hPa | 2.9V | 00:00:00 | 00:00:00 | 00:00:00 | |
| DL0LBS | 2026-09-01 17:05:20 | 49.67664 | 7.49169 | 86° | 66km/h | 6682m | 3.7m/s | -19.5°C | 10.9% | 444.4hPa | 2.9V | 04:43:00 | 00:00:00 | 00:00:00 | |
| DK5PH-5 | 2026-09-01 17:05:18 | 49.67662 | 7.49098 | 89° | 57km/h | 6669m | 5.2m/s | -19.4°C | 11.7% | 445.2hPa | 2.9V | 00:00:00 | 00:35:35 | 00:00:00 | |
| DL1ZP-14 | 2026-09-01 17:05:16 | 49.67659 | 7.49034 | 84° | 55km/h | 6657m | 4.2m/s | -19.3°C | 11.1% | 446.0hPa | 2.9V | 00:00:00 | 00:00:00 | 00:00:00 | |
| DM0DOS-11 | 2026-09-01 17:05:14 | 49.67651 | 7.48929 | 82° | 57km/h | 6636m | 4.9m/s | -19.2°C | 11.7% | 447.1hPa | 2.9V | 04:42:51 | 00:35:27 | 00:00:00 | |
| BIOWL1-15 | 2026-09-01 17:05:12 | 49.67654 | 7.48971 | 84° | 53km/h | 6645m | 4.6m/s | -19.2°C | 12.4% | 446.6hPa | 2.9V | 04:43:27 | 00:35:29 | 00:00:00 | |
| CB1BUN | 2026-09-01 17:05:10 | 49.67653 | 7.48950 | 86° | 53km/h | 6641m | 3.8m/s | -19.2°C | 11.2% | 446.8hPa | 2.9V | 04:43:00 | 00:00:00 | 00:00:00 | |
| DB0ND-19 | 2026-09-01 17:05:07 | 49.67645 | 7.48860 | 82° | 60km/h | 6624m | 4.3m/s | -19.1°C | 11.2% | 447.9hPa | 2.9V | 00:00:00 | 00:00:00 | 00:00:00 | |
| DM0DOS-11 | 2026-09-01 17:05:04 | 49.67635 | 7.48706 | 85° | 55km/h | 6587m | 3m/s | -19.1°C | 13.8% | 450hPa | 2.9V | 04:43:01 | 00:35:17 | 00:00:00 | |
| BIOWL1-15 | 2026-09-01 17:05:01 | 49.67636 | 7.48727 | 84° | 55km/h | 6593m | 7.6m/s | -19.1°C | 14.6% | 449.7hPa | 2.9V | 04:43:27 | 00:35:18 | 00:00:00 | |
| DL9PN | 2026-09-01 17:05:01 | 49.67634 | 7.48684 | 87° | 55km/h | 6583m | 5.2m/s | -19.1°C | 13.0% | 450.2hPa | 2.9V | 00:00:00 | 00:00:00 | 00:00:00 | |
| DF7PN | 2026-09-01 17:04:55 | 49.67633 | 7.48578 | 90° | 57km/h | 6563m | 4.9m/s | -19.1°C | 15.1% | 451.5hPa | 2.9V | 00:00:00 | 00:00:00 | 00:00:00 | |
| DM0DOS-11 | 2026-09-01 17:04:54 | 49.67633 | 7.48488 | 87° | 58km/h | 6546m | 4.2m/s | -19°C | 16.9% | 452.5hPa | 2.9V | 04:43:11 | 00:35:07 | 00:00:00 | |
| BIOWL1-15 | 2026-09-01 17:04:53 | 49.67634 | 7.48510 | 91° | 57km/h | 6551m | 4.4m/s | -19.1°C | 17.5% | 452.2hPa | 2.9V | 04:43:27 | 00:35:08 | 00:00:00 | |
| NBG1-10 | 2026-09-01 17:04:51 | 49.67634 | 7.48510 | 91° | 58km/h | 6551m | 4.3m/s | 0°C | 0% | 0hPa | 2.8V | 00:00:00 | 00:35:08 | 00:00:00 | |
| CB1BUN | 2026-09-01 17:04:50 | 49.67634 | 7.48510 | 92° | 57km/h | 6551m | 4.4m/s | -19.1°C | 15.7% | 452.2hPa | 2.8V | 04:43:00 | 00:00:00 | 00:00:00 | |
| DK5PH-5 | 2026-09-01 17:04:48 | 49.67631 | 7.48441 | 83° | 57km/h | 6537m | 5.1m/s | -19.0°C | 18.6% | 453.1hPa | 2.8V | 00:00:00 | 00:35:05 | 00:00:00 | |
| DH7VM-15 | 2026-09-01 17:04:47 | 49.67631 | 7.48441 | 84° | 60km/h | 6537m | 5.2m/s | -19.1°C | 17.9% | 453.2hPa | 2.8V | 00:00:00 | 00:00:00 | 00:00:00 | |
| DL1ZP-14 | 2026-09-01 17:04:45 | 49.67622 | 7.48351 | 81° | 57km/h | 6518m | 3.9m/s | -19.1°C | 19.7% | 454.2hPa | 2.8V | 00:00:00 | 00:00:00 | 00:00:00 | |
| DM0DOS-11 | 2026-09-01 17:04:44 | 49.67613 | 7.48265 | 85° | 55km/h | 6497m | 6.5m/s | -19.1°C | 22.1% | 455.4hPa | 2.9V | 04:43:21 | 00:34:57 | 00:00:00 | |
| BIOWL1-15 | 2026-09-01 17:04:40 | 49.67613 | 7.48265 | 85° | 55km/h | 6497m | 6.5m/s | -19.1°C | 23.8% | 455.4hPa | 2.9V | 04:43:27 | 00:34:57 | 00:00:00 | |
| DL0LBS | 2026-09-01 17:04:39 | 49.67613 | 7.48264 | 86° | 55km/h | 6497m | 6.5m/s | -19.1°C | 21.3% | 455.4hPa | 2.9V | 04:43:00 | 00:00:00 | 00:00:00 | |
| DB0ND-19 | 2026-09-01 17:04:36 | 49.67611 | 7.48182 | 88° | 51km/h | 6473m | 3.9m/s | -19.0°C | 21.8% | 456.8hPa | 2.9V | 00:00:00 | 00:00:00 | 00:00:00 | |
| DM0DOS-11 | 2026-09-01 17:04:34 | 49.67611 | 7.48064 | 86° | 53km/h | 6443m | 6.6m/s | -18.8°C | 22% | 458.5hPa | 2.9V | 04:43:31 | 00:34:47 | 00:00:00 | |
| DL9PN | 2026-09-01 17:04:30 | 49.67610 | 7.48064 | 86° | 53km/h | 6443m | 6.6m/s | -18.8°C | 21.2% | 458.5hPa | 2.7V | 00:00:00 | 00:00:00 | 00:00:00 | |
| BIOWL1-15 | 2026-09-01 17:04:30 | 49.67610 | 7.48064 | 87° | 53km/h | 6443m | 6.6m/s | -18.8°C | 23.7% | 458.5hPa | 2.9V | 04:44:18 | 00:34:47 | 00:00:00 | |
| DB0UT-7 | 2026-09-01 17:04:29 | 49.67610 | 7.48042 | 89° | 53km/h | 6438m | 2.9m/s | -18.7°C | 22.1% | 458.8hPa | 2.7V | 04:43:00 | 00:00:00 | 00:00:00 | |
| DM0DOS-11 | 2026-09-01 17:04:24 | 49.67618 | 7.47850 | 95° | 57km/h | 6397m | 4.8m/s | -18.4°C | 22% | 461.2hPa | 2.9V | 04:43:41 | 00:34:37 | 00:00:00 | |
| BIOWL1-15 | 2026-09-01 17:04:19 | 49.67620 | 7.47828 | 99° | 57km/h | 6393m | 3.8m/s | -18.3°C | 23.4% | 461.6hPa | 2.9V | 04:44:18 | 00:34:36 | 00:00:00 | |
| DK5PH-5 | 2026-09-01 17:04:18 | 49.67622 | 7.47806 | 98° | 55km/h | 6389m | 4.6m/s | -18.3°C | 22.1% | 461.8hPa | 2.9V | 00:00:00 | 00:34:35 | 00:00:00 | |
| DM0DOS-11 | 2026-09-01 17:04:14 | 49.67627 | 7.47635 | 89° | 49km/h | 6348m | 4.5m/s | -18°C | 22.2% | 464.3hPa | 2.9V | 04:43:51 | 00:34:27 | 00:00:00 | |
| BIOWL1-15 | 2026-09-01 17:04:10 | 49.67627 | 7.47598 | 94° | 47km/h | 6339m | 4.5m/s | -18°C | 23.8% | 464.9hPa | 2.9V | 04:44:18 | 00:34:25 | 00:00:00 | |
| CB1BUN | 2026-09-01 17:04:09 | 49.67627 | 7.47635 | 90° | 49km/h | 6349m | 4.5m/s | -18.0°C | 21.4% | 464.3hPa | 2.9V | 04:44:00 | 00:00:00 | 00:00:00 | |
| DB0ND-19 | 2026-09-01 17:04:05 | 49.67633 | 7.47544 | 104° | 47km/h | 6325m | 6.1m/s | -17.9°C | 20.9% | 465.9hPa | 2.9V | 00:00:00 | 00:00:00 | 00:00:00 | |
| DM0DOS-11 | 2026-09-01 17:04:04 | 49.67641 | 7.47440 | 90° | 58km/h | 6300m | 4.3m/s | -17.8°C | 22.3% | 467.6hPa | 2.9V | 04:44:01 | 00:34:17 | 00:00:00 | |
| BIOWL1-15 | 2026-09-01 17:03:59 | 49.67643 | 7.47373 | 94° | 55km/h | 6284m | 5.2m/s | -17.7°C | 24.9% | 468.6hPa | 2.9V | 04:44:18 | 00:34:14 | 00:00:00 | |
| BIOWL1-15 | 2026-09-01 17:03:46 | 49.67670 | 7.47139 | 93° | 55km/h | 6232m | 5m/s | -17.4°C | 26.4% | 472hPa | 2.9V | 04:44:18 | 00:34:03 | 00:00:00 | |
| BIOWL1-15 | 2026-09-01 17:03:35 | 49.67707 | 7.46905 | 107° | 53km/h | 6178m | 6.2m/s | -17.2°C | 32.5% | 475.4hPa | 2.9V | 04:45:09 | 00:33:52 | 00:00:00 | |
| BIOWL1-15 | 2026-09-01 17:03:27 | 49.67738 | 7.46702 | 101° | 51km/h | 6127m | 5.5m/s | -16.9°C | 34.8% | 478.7hPa | 2.9V | 04:45:09 | 00:33:42 | 00:00:00 | |
| BIOWL1-15 | 2026-09-01 17:03:15 | 49.67772 | 7.46505 | 96° | 55km/h | 6068m | 6.1m/s | -17.2°C | 46.2% | 482.5hPa | 2.9V | 04:45:09 | 00:33:32 | 00:00:00 | |
| DM0DOS-11 | 2026-09-01 17:03:14 | 49.67773 | 7.46463 | 89° | 55km/h | 6054m | 6.8m/s | -17.1°C | 46% | 483.3hPa | 2.9V | 04:44:48 | 00:33:30 | 00:00:00 | |
| DL1ZP-14 | 2026-09-01 17:03:11 | 49.67774 | 7.46419 | 93° | 57km/h | 6043m | 5.9m/s | -17.0°C | 45.2% | 484.2hPa | 2.9V | 00:00:00 | 00:00:00 | 00:00:00 | |
| CB1BUN | 2026-09-01 17:03:07 | 49.67781 | 7.46356 | 105° | 51km/h | 6022m | 9.0m/s | -16.9°C | 45.5% | 485.4hPa | 2.9V | 04:45:00 | 00:00:00 | 00:00:00 | |
| DM0DOS-11 | 2026-09-01 17:03:04 | 49.67797 | 7.46264 | 101° | 55km/h | 5989m | 6m/s | -16.7°C | 48.7% | 487.6hPa | 2.9V | 04:44:58 | 00:33:20 | 00:00:00 | |
| BIOWL1-15 | 2026-09-01 17:03:04 | 49.67794 | 7.46284 | 103° | 51km/h | 5995m | 5.1m/s | -16.8°C | 49% | 487.2hPa | 2.9V | 04:45:09 | 00:33:21 | 00:00:00 | |
| BIOWL1-15 | 2026-09-01 17:02:55 | 49.67828 | 7.46050 | 95° | 47km/h | 5933m | 5.9m/s | -16.3°C | 48.2% | 491.3hPa | 2.9V | 04:45:09 | 00:33:10 | 00:00:00 | |
| DM3KS-11 | 2026-09-01 17:02:50 | 49.67835 | 7.45992 | 104° | 53km/h | 5918m | 3.7m/s | -16.2°C | 47.8% | 492.3hPa | 2.9V | 00:00:00 | 00:00:00 | 00:00:00 | |
| BIOWL9-15 | 2026-09-01 17:02:46 | 49.67852 | 7.45913 | 107° | 53km/h | 5896m | 8.0m/s | -16.2°C | 50.4% | 493.6hPa | 2.9V | 00:00:00 | 00:00:00 | 00:00:00 | |
| BIOWL1-15 | 2026-09-01 17:02:43 | 49.67862 | 7.45856 | 106° | 47km/h | 5877m | 5.3m/s | -16.2°C | 54.2% | 494.9hPa | 2.9V | 04:46:51 | 00:33:00 | 00:00:00 | |
| BIOWL1-15 | 2026-09-01 17:02:34 | 49.67891 | 7.45637 | 104° | 49km/h | 5810m | 3.1m/s | -15.7°C | 53.7% | 499.4hPa | 2.8V | 04:46:51 | 00:32:49 | 00:00:00 | |
| DB0ND-19 | 2026-09-01 17:02:32 | 49.67891 | 7.45637 | 104° | 47km/h | 5810m | 3.1m/s | -15.7°C | 52.3% | 499.4hPa | 2.9V | 00:00:00 | 00:00:00 | 00:00:00 | |
| DB0UT-7 | 2026-09-01 17:02:29 | 49.67899 | 7.45583 | 101° | 49km/h | 5796m | 3.9m/s | -15.5°C | 53.0% | 500.3hPa | 2.9V | 00:00:00 | 00:00:00 | 00:00:00 | |
| DM0DOS-11 | 2026-09-01 17:02:27 | 49.67909 | 7.45494 | 94° | 47km/h | 5773m | 5.5m/s | -15.4°C | 52.1% | 501.7hPa | 2.9V | 04:45:37 | 00:32:41 | 00:00:00 | |
| BIOWL1-15 | 2026-09-01 17:02:21 | 49.67912 | 7.45439 | 97° | 49km/h | 5759m | 4.4m/s | -15.3°C | 52.9% | 502.8hPa | 2.8V | 04:46:51 | 00:32:38 | 00:00:00 | |
| DM3KS-11 | 2026-09-01 17:02:19 | 49.67916 | 7.45400 | 98° | 49km/h | 5749m | 5.8m/s | -15.3°C | 50.7% | 503.3hPa | 2.9V | 00:00:00 | 00:00:00 | 00:00:00 | |
| DK5PH-5 | 2026-09-01 17:02:18 | 49.67918 | 7.45380 | 99° | 47km/h | 5745m | 2.8m/s | -15.2°C | 51.8% | 503.7hPa | 2.9V | 00:00:00 | 00:32:35 | 00:00:00 | |
| DM0DOS-11 | 2026-09-01 17:02:17 | 49.67929 | 7.45282 | 95° | 47km/h | 5724m | 4.6m/s | -15.1°C | 51.5% | 505.2hPa | 2.9V | 04:45:48 | 00:32:30 | 00:00:00 | |
| BIOWL1-15 | 2026-09-01 17:02:12 | 49.67931 | 7.45223 | 93° | 51km/h | 5709m | 5.6m/s | -15°C | 51.3% | 506hPa | 2.8V | 04:46:51 | 00:32:27 | 00:00:00 | |
| BIOWL1-15 | 2026-09-01 17:02:02 | 49.67944 | 7.45037 | 106° | 47km/h | 5658m | 7m/s | -14.8°C | 56.7% | 509.4hPa | 2.9V | 04:46:51 | 00:32:17 | 00:00:00 | |
| BIOWL1-15 | 2026-09-01 17:01:50 | 49.67985 | 7.44882 | 109° | 44km/h | 5604m | 4.5m/s | -14.4°C | 57% | 513.1hPa | 2.9V | 04:46:51 | 00:32:07 | 00:00:00 | |
| DK5PH-5 | 2026-09-01 17:01:48 | 49.67992 | 7.44849 | 110° | 44km/h | 5594m | 5.6m/s | -14.3°C | 55.9% | 513.6hPa | 2.9V | 00:00:00 | 00:32:05 | 00:00:00 | |
| DM0DOS-11 | 2026-09-01 17:01:46 | 49.68009 | 7.44759 | 102° | 37km/h | 5569m | 3m/s | -14.3°C | 59.4% | 0hPa | 2.9V | 04:46:19 | 00:31:59 | 00:00:00 | |
| BIOWL1-15 | 2026-09-01 17:01:39 | 49.68015 | 7.44715 | 98° | 42km/h | 5557m | 4.8m/s | -14.3°C | 63.6% | 516.5hPa | 2.9V | 04:46:51 | 00:31:56 | 00:00:00 | |
| BIOWL1-15 | 2026-09-01 17:01:29 | 49.68039 | 7.44551 | 101° | 44km/h | 5509m | 5.8m/s | -14.2°C | 61.8% | 519.5hPa | 2.9V | 04:46:51 | 00:31:46 | 00:00:00 | |
| BIOWL1-15 | 2026-09-01 17:01:23 | 49.68050 | 7.44352 | 101° | 38km/h | 5466m | 3.2m/s | -13.8°C | 62.8% | 522.5hPa | 2.9V | 04:46:51 | 00:31:36 | 00:00:00 | |
| BIOWL1-15 | 2026-09-01 17:01:10 | 49.68079 | 7.44169 | 100° | 44km/h | 5391m | 5.5m/s | -13.2°C | 62% | 527.9hPa | 2.9V | 04:47:42 | 00:31:25 | 00:00:00 | |
| DM0DOS-11 | 2026-09-01 17:01:09 | 49.68079 | 7.44101 | 88° | 44km/h | 5367m | 4.8m/s | -13.1°C | 63.7% | 0hPa | 2.9V | 04:46:57 | 00:31:21 | 00:00:00 | |
| DL1ZP-14 | 2026-09-01 17:01:07 | 49.68080 | 7.44152 | 92° | 42km/h | 5385m | 6.6m/s | -13.2°C | 61.4% | 528.3hPa | 2.9V | 00:00:00 | 00:00:00 | 00:00:00 | |
| CB1BUN | 2026-09-01 17:01:03 | 49.68079 | 7.44084 | 91° | 46km/h | 5362m | 4.8m/s | -13.0°C | 62.9% | 529.8hPa | 2.9V | 04:47:00 | 00:00:00 | 00:00:00 | |
| DM0DOS-11 | 2026-09-01 17:00:59 | 49.68087 | 7.43921 | 86° | 49km/h | 5312m | 5.8m/s | -12.7°C | 62.6% | 0hPa | 2.9V | 04:47:07 | 00:31:11 | 00:00:00 | |
| BIOWL1-15 | 2026-09-01 17:00:57 | 49.68085 | 7.43975 | 96° | 44km/h | 5328m | 6.5m/s | -12.8°C | 60.5% | 532.2hPa | 2.9V | 04:47:42 | 00:31:14 | 00:00:00 | |
| BIOWL1-15 | 2026-09-01 17:00:46 | 49.68104 | 7.43763 | 112° | 44km/h | 5273m | 7.6m/s | -12.4°C | 63.5% | 536.1hPa | 2.9V | 04:47:42 | 00:31:03 | 00:00:00 | |
| BIOWL1-15 | 2026-09-01 17:00:36 | 49.68125 | 7.43583 | 100° | 44km/h | 5214m | 6.4m/s | -12.1°C | 65.5% | 540.3hPa | 2.9V | 04:47:42 | 00:30:53 | 00:00:00 | |
| BIOWL1-15 | 2026-09-01 17:00:26 | 49.68152 | 7.43403 | 96° | 49km/h | 5165m | 6m/s | -12°C | 65.4% | 543.7hPa | 2.9V | 04:47:42 | 00:30:43 | 00:00:00 | |
| BIOWL1-15 | 2026-09-01 17:00:17 | 49.68181 | 7.43205 | 104° | 46km/h | 5118m | 5.1m/s | -11.7°C | 67.3% | 547hPa | 2.9V | 04:48:33 | 00:30:32 | 00:00:00 | |
| BIOWL1-15 | 2026-09-01 17:00:04 | 49.68210 | 7.43005 | 110° | 47km/h | 5055m | 3.7m/s | -11.4°C | 69.3% | 551.4hPa | 2.9V | 04:48:33 | 00:30:21 | 00:00:00 | |
| BIOWL1-15 | 2026-09-01 16:59:53 | 49.68238 | 7.42794 | 91° | 46km/h | 4993m | 6.7m/s | -11.1°C | 69.8% | 555.5hPa | 2.9V | 04:48:33 | 00:30:10 | 00:00:00 | |
| DL9PN | 2026-09-01 16:59:51 | 49.68238 | 7.42740 | 89° | 49km/h | 4977m | 6.2m/s | -11.0°C | 68.4% | 556.8hPa | 2.9V | 00:00:00 | 00:00:00 | 00:00:00 | |
| DM0DOS-11 | 2026-09-01 16:59:50 | 49.68233 | 7.42652 | 91° | 42km/h | 4955m | 4.6m/s | -10.9°C | 69% | 0hPa | 2.9V | 04:48:16 | 00:30:02 | 00:00:00 | |
| BIOWL1-15 | 2026-09-01 16:59:42 | 49.68239 | 7.42604 | 99° | 42km/h | 4940m | 7.2m/s | -10.7°C | 67.6% | 559.5hPa | 2.9V | 04:48:33 | 00:29:59 | 00:00:00 | |
| DM0DOS-11 | 2026-09-01 16:59:40 | 49.68241 | 7.42571 | 94° | 46km/h | 4930m | 4.2m/s | -10.7°C | 0% | 0hPa | 2.9V | 04:48:21 | 00:29:57 | 00:00:00 | |
| BIOWL9-15 | 2026-09-01 16:59:39 | 49.68242 | 7.42552 | 94° | 49km/h | 4925m | 5.5m/s | -10.6°C | 67.3% | 560.7hPa | 2.9V | 00:00:00 | 00:00:00 | 00:00:00 | |
| CB1BUN | 2026-09-01 16:59:38 | 49.68242 | 7.42552 | 96° | 49km/h | 4925m | 5.5m/s | -10.6°C | 67.3% | 560.7hPa | 2.9V | 04:48:00 | 00:00:00 | 00:00:00 | |
| DB0UT-9 | 2026-09-01 16:59:36 | 49.68242 | 7.42513 | 90° | 49km/h | 4917m | 5.3m/s | -10.6°C | 66.9% | 561.3hPa | 2.9V | 04:48:00 | 00:00:00 | 00:00:00 | |
| HEMX73-11 | 2026-09-01 16:59:35 | 49.68242 | 7.42494 | 88° | 47km/h | 4913m | 2.6m/s | -10.5°C | 67.1% | 561.6hPa | 2.9V | 04:48:00 | 00:00:00 | 00:00:00 | |
| DM0DOS-11 | 2026-09-01 16:59:34 | 49.68240 | 7.42383 | 96° | 37km/h | 4875m | 6.9m/s | 0°C | 0% | 0hPa | 2.9V | 04:48:32 | 00:29:46 | 00:00:00 | |
| BIOWL1-15 | 2026-09-01 16:59:31 | 49.68239 | 7.42411 | 90° | 35km/h | 4887m | 4.8m/s | -10.3°C | 66.5% | 563.6hPa | 2.9V | 04:48:33 | 00:29:48 | 00:00:00 | |
| BIOWL1-15 | 2026-09-01 16:59:20 | 49.68248 | 7.42234 | 99° | 49km/h | 4821m | 4.5m/s | -9.9°C | 66% | 568.2hPa | 2.9V | 04:49:24 | 00:29:37 | 00:00:00 | |
| DM0DOS-11 | 2026-09-01 16:59:19 | 49.68250 | 7.42216 | 100° | 46km/h | 4816m | 6.5m/s | 0°C | 0% | 0hPa | 2.9V | 04:48:42 | 00:29:36 | 00:00:00 | |
| DK5PH-5 | 2026-09-01 16:59:18 | 49.68252 | 7.42199 | 100° | 35km/h | 4810m | 4.5m/s | -9.7°C | 65.3% | 569.1hPa | 2.9V | 00:00:00 | 00:29:35 | 00:00:00 | |
| DB0UT-9 | 2026-09-01 16:59:16 | 49.68253 | 7.42185 | 99° | 37km/h | 4805m | 5.3m/s | -9.7°C | 64.4% | 569.5hPa | 2.9V | 04:49:00 | 00:00:00 | 00:00:00 | |
| DM0DOS-11 | 2026-09-01 16:59:14 | 49.68264 | 7.42079 | 95° | 40km/h | 4758m | 4.9m/s | 0°C | 0% | 0hPa | 2.9V | 04:48:52 | 00:29:26 | 00:00:00 | |
| BIOWL1-15 | 2026-09-01 16:59:10 | 49.68263 | 7.42095 | 95° | 38km/h | 4763m | 5.7m/s | -9.4°C | 63.9% | 572.4hPa | 2.8V | 04:49:24 | 00:29:27 | 00:00:00 | |
| DM0DOS-11 | 2026-09-01 16:59:09 | 49.68264 | 7.42010 | 86° | 31km/h | 4733m | 4.1m/s | 0°C | 0% | 0hPa | 2.9V | 04:48:57 | 00:29:21 | 00:00:00 | |
| BIOWL9-15 | 2026-09-01 16:59:08 | 49.68265 | 7.42064 | 94° | 38km/h | 4754m | 2.7m/s | -9.3°C | 63.6% | 573.2hPa | 2.9V | 00:00:00 | 00:00:00 | 00:00:00 | |
| DM0DOS-11 | 2026-09-01 16:59:04 | 49.68272 | 7.41945 | 106° | 31km/h | 4707m | 6.9m/s | 0°C | 0% | 0hPa | 2.9V | 04:49:02 | 00:29:16 | 00:00:00 | |
| DL1ZP-14 | 2026-09-01 16:59:03 | 49.68264 | 7.41998 | 91° | 31km/h | 4728m | 5.4m/s | -9.1°C | 62.6% | 575.1hPa | 2.9V | 00:00:00 | 00:00:00 | 00:00:00 | |
| DM0DOS-11 | 2026-09-01 16:58:59 | 49.68279 | 7.41888 | 101° | 35km/h | 4675m | 5.8m/s | 0°C | 0% | 0hPa | 2.9V | 04:49:07 | 00:29:11 | 00:00:00 | |
| BIOWL1-15 | 2026-09-01 16:58:59 | 49.68272 | 7.41945 | 107° | 31km/h | 4707m | 6.9m/s | -8.9°C | 63.4% | 576.5hPa | 2.9V | 04:49:24 | 00:29:16 | 00:00:00 | |
| DB0ND-19 | 2026-09-01 16:58:55 | 49.68278 | 7.41901 | 98° | 31km/h | 4681m | 7.6m/s | -8.7°C | 61.1% | 578.4hPa | 2.9V | 00:00:00 | 00:00:00 | 00:00:00 | |
| DM0DOS-11 | 2026-09-01 16:58:53 | 49.68284 | 7.41793 | 86° | 44km/h | 4641m | 6.2m/s | 0°C | 0% | 0hPa | 2.9V | 04:49:13 | 00:29:05 | 00:00:00 | |
| BIOWL1-15 | 2026-09-01 16:58:50 | 49.68284 | 7.41793 | 86° | 44km/h | 4641m | 6.2m/s | -8.3°C | 63.3% | 581.7hPa | 2.9V | 04:49:24 | 00:29:05 | 00:00:00 | |
| DL9PN | 2026-09-01 16:58:48 | 49.68284 | 7.41793 | 86° | 44km/h | 4641m | 6.2m/s | -8.3°C | 61.4% | 581.7hPa | 2.9V | 00:00:00 | 00:00:00 | 00:00:00 | |
| BIOWL1-15 | 2026-09-01 16:58:39 | 49.68286 | 7.41622 | 85° | 33km/h | 4579m | 4.4m/s | 0°C | 0% | 586.2hPa | 2.9V | 04:49:24 | 00:28:54 | 00:00:00 | |
| BIOWL1-15 | 2026-09-01 16:58:27 | 49.68299 | 7.41471 | 103° | 38km/h | 4532m | 5.2m/s | 0°C | 0% | 0hPa | 2.9V | 04:50:15 | 00:28:44 | 00:00:00 | |
| BIOWL1-15 | 2026-09-01 16:58:16 | 49.68320 | 7.41322 | 105° | 37km/h | 4474m | 4.7m/s | 0°C | 0% | 0hPa | 2.9V | 04:50:15 | 00:28:33 | 00:00:00 | |
| BIOWL1-15 | 2026-09-01 16:58:07 | 49.68319 | 7.41165 | 80° | 35km/h | 4421m | 5.8m/s | 0°C | 0% | 0hPa | 2.9V | 04:50:15 | 00:28:23 | 00:00:00 | |
| BIOWL9-15 | 2026-09-01 16:58:06 | 49.68319 | 7.41165 | 79° | 35km/h | 4421m | 5.8m/s | 0°C | -1.0% | -1.0hPa | 2.9V | 00:00:00 | 00:00:00 | 00:00:00 | |
| DL1ZP-14 | 2026-09-01 16:58:01 | 49.68320 | 7.41089 | 101° | 42km/h | 4394m | 7.4m/s | -6.4°C | 58.7% | 600.4hPa | 2.9V | 00:00:00 | 00:00:00 | 00:00:00 | |
| DB0UT-7 | 2026-09-01 16:57:59 | 49.68326 | 7.41058 | 111° | 38km/h | 4383m | 5.2m/s | -6.3°C | 59.0% | 601.3hPa | 2.9V | 00:00:00 | 00:28:16 | 00:00:00 | |
| CB1BUN | 2026-09-01 16:57:56 | 49.68333 | 7.41033 | 114° | 33km/h | 4372m | 5.3m/s | -6.3°C | 59.3% | 602.2hPa | 2.9V | 04:50:00 | 00:00:00 | 00:00:00 | |
| DM0DOS-11 | 2026-09-01 16:57:55 | 49.68353 | 7.40930 | 103° | 44km/h | 4336m | 5m/s | 0°C | 0% | 0hPa | 2.9V | 04:50:11 | 00:28:07 | 00:00:00 | |
| BIOWL1-15 | 2026-09-01 16:57:55 | 49.68339 | 7.41007 | 107° | 38km/h | 4362m | 4.9m/s | 0°C | 0% | 0hPa | 2.9V | 04:50:15 | 00:28:12 | 00:00:00 | |
| DB0ND-19 | 2026-09-01 16:57:53 | 49.68344 | 7.40977 | 102° | 40km/h | 4351m | 3.4m/s | -6.2°C | 60.6% | 603.8hPa | 2.9V | 00:00:00 | 00:00:00 | 00:00:00 | |
| HEMX73-11 | 2026-09-01 16:57:52 | 49.68344 | 7.40977 | 104° | 40km/h | 4352m | 3.4m/s | -6.2°C | 60.6% | 603.8hPa | 2.9V | 04:50:00 | 00:00:00 | 00:00:00 | |
| DM0DOS-11 | 2026-09-01 16:57:50 | 49.68357 | 7.40846 | 98° | 40km/h | 4309m | 7.2m/s | 0°C | 0% | 0hPa | 2.9V | 00:00:00 | 00:28:02 | 00:00:00 | |
| DL9PN | 2026-09-01 16:57:46 | 49.68356 | 7.40862 | 91° | 40km/h | 4317m | 8.5m/s | -6.0°C | 58.1% | 606.3hPa | 2.9V | 00:00:00 | 00:00:00 | 00:00:00 | |
| DM0DOS-11 | 2026-09-01 16:57:45 | 49.68368 | 7.40771 | 105° | 42km/h | 4279m | 3m/s | 0°C | 0% | 0hPa | 2.9V | 00:00:00 | 00:27:57 | 00:00:00 | |
| BIOWL1-15 | 2026-09-01 16:57:44 | 49.68359 | 7.40831 | 104° | 37km/h | 4303m | 6m/s | 0°C | 0% | 0hPa | 2.9V | 18:12:15 | 00:28:01 | 00:00:00 | |
| DF7PN | 2026-09-01 16:57:40 | 49.68371 | 7.40756 | 103° | 38km/h | 4275m | 6.3m/s | -5.7°C | 43.1% | 609.7hPa | 2.9V | 00:00:00 | 00:00:00 | 00:00:00 | |
| DM0DOS-11 | 2026-09-01 16:57:39 | 49.68378 | 7.40701 | 92° | 33km/h | 4255m | 6m/s | 0°C | 0% | 0hPa | 2.9V | 00:00:00 | 00:27:52 | 00:00:00 | |
| CB1BUN | 2026-09-01 16:57:35 | 49.68377 | 7.40714 | 98° | 35km/h | 4260m | 4.6m/s | -5.7°C | 38.2% | 610.9hPa | 2.9V | 04:51:00 | 00:00:00 | 00:00:00 | |
| DM0DOS-11 | 2026-09-01 16:57:33 | 49.68383 | 7.40617 | 85° | 40km/h | 4221m | 3.7m/s | 0°C | 0% | 0hPa | 2.9V | 00:00:00 | 00:27:45 | 00:00:00 | |
| HEMX73-11 | 2026-09-01 16:57:33 | 49.68380 | 7.40677 | 103° | 29km/h | 4245m | 4.7m/s | -5.6°C | 36.3% | 612.1hPa | 2.9V | 04:51:00 | 00:00:00 | 00:00:00 | |
| DB0UT-9 | 2026-09-01 16:57:32 | 49.68380 | 7.40677 | 103° | 29km/h | 4245m | 4.7m/s | -5.6°C | 36.3% | 612.1hPa | 2.9V | 04:51:00 | 00:00:00 | 00:00:00 | |
| DL1ZP-14 | 2026-09-01 16:57:30 | 49.68384 | 7.40644 | 93° | 29km/h | 4231m | 5.6m/s | -5.5°C | 38.2% | 613.2hPa | 2.9V | 00:00:00 | 00:00:00 | 00:00:00 | |
| DB0UT-7 | 2026-09-01 16:57:29 | 49.68384 | 7.40631 | 84° | 40km/h | 4226m | 4.9m/s | -5.5°C | 41.4% | 613.4hPa | 2.9V | 00:00:00 | 00:00:00 | 00:00:00 | |
| DB0ND-19 | 2026-09-01 16:57:22 | 49.68394 | 7.40524 | 124° | 38km/h | 4187m | 8.6m/s | -5.3°C | 42.1% | 616.4hPa | 2.9V | 00:00:00 | 00:00:00 | 00:00:00 | |
| DK5PH-5 | 2026-09-01 16:57:18 | 49.68412 | 7.40473 | 105° | 38km/h | 4155m | 7.3m/s | -5.0°C | 42.6% | 618.9hPa | 2.9V | 00:00:00 | 00:27:35 | 00:00:00 | |
| DL9PN | 2026-09-01 16:57:15 | 49.68418 | 7.40430 | 107° | 38km/h | 4134m | 8.1m/s | -4.9°C | 41.5% | 620.5hPa | 2.9V | 00:00:00 | 00:00:00 | 00:00:00 | |
| CB1BUN | 2026-09-01 16:57:14 | 49.68419 | 7.40430 | 109° | 38km/h | 4134m | 8.1m/s | -4.9°C | 41.5% | 620.5hPa | 2.9V | 04:51:00 | 00:00:00 | 00:00:00 | |
| HEMX73-11 | 2026-09-01 16:57:12 | 49.68427 | 7.40403 | 122° | 40km/h | 4120m | 6.6m/s | -4.8°C | 41.1% | 621.7hPa | 2.9V | 04:51:00 | 00:00:00 | 00:00:00 | |
| DB0UT-9 | 2026-09-01 16:57:11 | 49.68432 | 7.40390 | 130° | 40km/h | 4114m | 5.7m/s | -4.7°C | 41.0% | 622.1hPa | 2.9V | 04:51:00 | 00:00:00 | 00:00:00 | |
| DM3KS-11 | 2026-09-01 16:57:09 | 49.68453 | 7.40333 | 105° | 44km/h | 4095m | 5.5m/s | -4.5°C | 40.5% | 623.7hPa | 2.9V | 00:00:00 | 00:00:00 | 00:00:00 | |
| DL1ZP-14 | 2026-09-01 16:56:59 | 49.68481 | 7.40198 | 105° | 44km/h | 4040m | 6.3m/s | -4.0°C | 39.0% | 628.2hPa | 2.9V | 00:00:00 | 00:00:00 | 00:00:00 | |
| DB0ND-19 | 2026-09-01 16:56:51 | 49.68498 | 7.40085 | 105° | 27km/h | 4005m | 5.3m/s | -3.7°C | 38.6% | 631.1hPa | 2.9V | 00:00:00 | 00:00:00 | 00:00:00 | |
| DK5PH-5 | 2026-09-01 16:56:48 | 49.68506 | 7.40049 | 114° | 38km/h | 3990m | 5.0m/s | -3.6°C | 39.8% | 632.2hPa | 2.9V | 00:00:00 | 00:27:05 | 00:00:00 | |
| DL9PN | 2026-09-01 16:56:44 | 49.68523 | 7.39987 | 110° | 46km/h | 3960m | 8.5m/s | -3.5°C | 43.3% | 634.5hPa | 2.9V | 00:00:00 | 00:00:00 | 00:00:00 | |
| DH7VM-15 | 2026-09-01 16:56:41 | 49.68531 | 7.39955 | 112° | 42km/h | 3949m | 5.0m/s | 0°C | 0% | 0hPa | 2.9V | 00:00:00 | 00:00:00 | 00:00:00 | |
| DF7PN | 2026-09-01 16:56:38 | 49.68549 | 7.39887 | 104° | 37km/h | 3926m | 5.1m/s | -3.4°C | 44.3% | 637.3hPa | 2.9V | 00:00:00 | 00:00:00 | 00:00:00 | |
| DM3KS-11 | 2026-09-01 16:56:37 | 49.68549 | 7.39887 | 104° | 37km/h | 3926m | 5.1m/s | -3.4°C | 44.3% | 637.3hPa | 2.9V | 00:00:00 | 00:00:00 | 00:00:00 | |
| CB1BUN | 2026-09-01 16:56:33 | 49.68559 | 7.39842 | 113° | 42km/h | 3913m | 4.1m/s | -3.4°C | 43.5% | 638.4hPa | 2.9V | 04:51:00 | 00:00:00 | 00:00:00 | |
| DB0UT-9 | 2026-09-01 16:56:31 | 49.68568 | 7.39812 | 117° | 38km/h | 3903m | 6.6m/s | -3.3°C | 43.5% | 639.1hPa | 2.9V | 04:51:00 | 00:00:00 | 00:00:00 | |
| DB0UT-7 | 2026-09-01 16:56:29 | 49.68580 | 7.39778 | 129° | 38km/h | 3890m | 5.3m/s | -3.2°C | 43.5% | 640.2hPa | 2.9V | 00:00:00 | 00:00:00 | 00:00:00 | |
| DL1ZP-14 | 2026-09-01 16:56:28 | 49.68590 | 7.39759 | 124° | 33km/h | 3882m | 3.1m/s | -3.2°C | 43.3% | 640.9hPa | 2.9V | 00:00:00 | 00:00:00 | 00:00:00 | |
| DB0ND-19 | 2026-09-01 16:56:20 | 49.68629 | 7.39673 | 115° | 40km/h | 3841m | 6.7m/s | -2.9°C | 41.4% | 644.3hPa | 2.9V | 00:00:00 | 00:00:00 | 00:00:00 | |
| DK5PH-5 | 2026-09-01 16:56:18 | 49.68636 | 7.39642 | 106° | 42km/h | 3829m | 3.5m/s | -2.8°C | 40.9% | 645.1hPa | 2.9V | 00:00:00 | 00:26:35 | 00:00:00 | |
| DL9PN | 2026-09-01 16:56:13 | 49.68660 | 7.39565 | 128° | 42km/h | 3803m | 7.5m/s | -2.7°C | 39.4% | 647.1hPa | 2.9V | 00:00:00 | 00:00:00 | 00:00:00 | |
| DB0UT-9 | 2026-09-01 16:56:11 | 49.68667 | 7.39553 | 131° | 42km/h | 3795m | 8.4m/s | -2.7°C | 39.5% | 647.9hPa | 2.9V | 04:51:00 | 00:00:00 | 00:00:00 | |
| DM3KS-11 | 2026-09-01 16:56:07 | 49.68702 | 7.39482 | 122° | 40km/h | 3762m | 5.6m/s | -2.5°C | 41.1% | 650.3hPa | 2.9V | 00:00:00 | 00:00:00 | 00:00:00 | |
| DF7PN | 2026-09-01 16:56:06 | 49.68702 | 7.39482 | 122° | 40km/h | 3762m | 5.6m/s | -2.5°C | 41.1% | 650.3hPa | 2.9V | 00:00:00 | 00:00:00 | 00:00:00 | |
| DL1ZP-14 | 2026-09-01 16:55:57 | 49.68753 | 7.39343 | 120° | 46km/h | 3707m | 6.3m/s | -2.1°C | 47.7% | 655.0hPa | 2.9V | 00:00:00 | 00:00:00 | 00:00:00 | |
| DB0ND-19 | 2026-09-01 16:55:49 | 49.68792 | 7.39239 | 135° | 46km/h | 3672m | 5.2m/s | -1.8°C | 46.0% | 658.1hPa | 2.9V | 00:00:00 | 00:00:00 | 00:00:00 | |
| DK5PH-5 | 2026-09-01 16:55:48 | 49.68800 | 7.39226 | 140° | 42km/h | 3666m | 5.6m/s | -1.7°C | 46.3% | 658.5hPa | 2.9V | 04:52:00 | 00:26:05 | 00:00:00 | |
| DL9PN | 2026-09-01 16:55:42 | 49.68844 | 7.39157 | 123° | 38km/h | 3637m | 6.1m/s | -1.5°C | 44.0% | 660.6hPa | 2.9V | 00:00:00 | 00:00:00 | 00:00:00 | |
| DF7PN | 2026-09-01 16:55:35 | 49.68876 | 7.39070 | 121° | 40km/h | 3609m | 6.3m/s | -1.2°C | 43.2% | 663.4hPa | 2.9V | 00:00:00 | 00:00:00 | 00:00:00 | |
| HEMX73-11 | 2026-09-01 16:55:31 | 49.68894 | 7.39030 | 131° | 38km/h | 3593m | 5.8m/s | -1.0°C | 40.2% | 664.7hPa | 2.9V | 04:52:00 | 00:00:00 | 00:00:00 | |
| DB0UT-9 | 2026-09-01 16:55:30 | 49.68900 | 7.39019 | 135° | 38km/h | 3589m | 4.4m/s | -1.0°C | 40.2% | 665.2hPa | 2.9V | 04:52:00 | 00:00:00 | 00:00:00 | |
| DB0UT-7 | 2026-09-01 16:55:29 | 49.68913 | 7.38997 | 128° | 44km/h | 3578m | 6.0m/s | -0.9°C | 44.1% | 665.9hPa | 2.9V | 00:00:00 | 00:00:00 | 00:00:00 | |
| DL1ZP-14 | 2026-09-01 16:55:26 | 49.68934 | 7.38944 | 122° | 40km/h | 3558m | 5.1m/s | -0.8°C | 41.4% | 667.7hPa | 2.9V | 00:00:00 | 00:00:00 | 00:00:00 | |
| DK5PH-5 | 2026-09-01 16:55:18 | 49.68981 | 7.38838 | 119° | 38km/h | 3528m | 4.9m/s | -0.5°C | 41.2% | 670.2hPa | 2.9V | 00:00:00 | 00:25:35 | 00:00:00 | |
| DL9PN | 2026-09-01 16:55:11 | 49.69031 | 7.38754 | 134° | 46km/h | 3490m | 4.4m/s | -0.3°C | 39.9% | 673.4hPa | 2.9V | 00:00:00 | 00:00:00 | 00:00:00 | |
| HEMX73-11 | 2026-09-01 16:55:10 | 49.69031 | 7.38754 | 136° | 46km/h | 3491m | 4.4m/s | -0.3°C | 39.9% | 673.4hPa | 2.9V | 04:53:00 | 00:00:00 | 00:00:00 | |
| DB0UT-9 | 2026-09-01 16:55:09 | 49.69040 | 7.38741 | 137° | 47km/h | 3486m | 5.1m/s | -0.2°C | 39.7% | 673.8hPa | 2.9V | 04:53:00 | 00:00:00 | 00:00:00 | |
| DF7PN | 2026-09-01 16:55:04 | 49.69081 | 7.38662 | 114° | 42km/h | 3463m | 6.1m/s | -0.1°C | 40.1% | 675.8hPa | 2.9V | 00:00:00 | 00:00:00 | 00:00:00 | |
| DL1ZP-14 | 2026-09-01 16:54:55 | 49.69149 | 7.38514 | 132° | 40km/h | 3414m | 5.9m/s | 0.2°C | 39.3% | 679.9hPa | 2.9V | 00:00:00 | 00:00:00 | 00:00:00 | |
| DB0ND-19 | 2026-09-01 16:54:47 | 49.69204 | 7.38404 | 121° | 33km/h | 3377m | 5.1m/s | 0.4°C | 38.7% | 683.0hPa | 2.9V | 00:00:00 | 00:00:00 | 00:00:00 | |
| DL9PN | 2026-09-01 16:54:40 | 49.69246 | 7.38337 | 138° | 38km/h | 3350m | 5.1m/s | 0.6°C | 38.4% | 685.2hPa | 2.9V | 00:00:00 | 00:00:00 | 00:00:00 | |
| DF7PN | 2026-09-01 16:54:33 | 49.69297 | 7.38276 | 144° | 35km/h | 3322m | 6.2m/s | 0.9°C | 37.6% | 687.7hPa | 2.9V | 00:00:00 | 00:00:00 | 00:00:00 | |
| DB0UT-7 | 2026-09-01 16:54:29 | 49.69323 | 7.38235 | 123° | 38km/h | 3302m | 3.9m/s | 1.0°C | 37.9% | 689.6hPa | 2.9V | 04:53:00 | 00:00:00 | 00:00:00 | |
| HEMX73-11 | 2026-09-01 16:54:28 | 49.69323 | 7.38235 | 123° | 38km/h | 3302m | 3.9m/s | 1.0°C | 37.8% | 689.6hPa | 2.9V | 04:53:00 | 00:00:00 | 00:00:00 | |
| DB0UT-9 | 2026-09-01 16:54:27 | 49.69327 | 7.38223 | 120° | 35km/h | 3296m | 7.7m/s | 1.1°C | 37.4% | 689.9hPa | 2.9V | 04:53:00 | 00:00:00 | 00:00:00 | |
| DL1ZP-14 | 2026-09-01 16:54:23 | 49.69344 | 7.38164 | 118° | 37km/h | 3269m | 4.8m/s | 1.3°C | 38.9% | 692.1hPa | 2.9V | 00:00:00 | 00:00:00 | 00:00:00 | |
| DB0ND-19 | 2026-09-01 16:54:16 | 49.69372 | 7.38077 | 117° | 40km/h | 3230m | 6.9m/s | 1.4°C | 45.5% | 695.5hPa | 2.9V | 00:00:00 | 00:00:00 | 00:00:00 | |
| DK5PH-5 | 2026-09-01 16:54:10 | 49.69402 | 7.37984 | 113° | 38km/h | 3196m | 4.1m/s | 1.6°C | 44.8% | 698.3hPa | 2.9V | 00:00:00 | 00:24:27 | 00:00:00 | |
| DL9PN | 2026-09-01 16:54:09 | 49.69406 | 7.37970 | 113° | 37km/h | 3193m | 3.0m/s | 1.7°C | 44.8% | 698.8hPa | 2.9V | 00:00:00 | 00:00:00 | 00:00:00 | |
| HEMX73-11 | 2026-09-01 16:54:07 | 49.69410 | 7.37957 | 111° | 35km/h | 3189m | 4.4m/s | 1.7°C | 44.6% | 699.1hPa | 2.9V | 04:54:00 | 00:00:00 | 00:00:00 | |
| DB0UT-9 | 2026-09-01 16:54:06 | 49.69412 | 7.37945 | 112° | 31km/h | 3186m | 3.2m/s | 1.8°C | 44.5% | 699.3hPa | 2.9V | 04:54:00 | 00:00:00 | 00:00:00 | |
| DL1ZP-14 | 2026-09-01 16:53:52 | 49.69478 | 7.37756 | 112° | 33km/h | 3108m | 8.3m/s | 2.4°C | 44.2% | 705.9hPa | 2.9V | 00:00:00 | 00:00:00 | 00:00:00 | |
| DB0ND-19 | 2026-09-01 16:53:45 | 49.69503 | 7.37668 | 103° | 42km/h | 3075m | 7.3m/s | 2.6°C | 45.8% | 708.9hPa | 2.9V | 00:00:00 | 00:00:00 | 00:00:00 | |
| DK5PH-5 | 2026-09-01 16:53:40 | 49.69522 | 7.37585 | 124° | 42km/h | 3047m | 6.2m/s | 0°C | 0% | 0hPa | 2.9V | 00:00:00 | 00:23:57 | 00:00:00 | |
| DL9PN | 2026-09-01 16:53:38 | 49.69536 | 7.37549 | 114° | 29km/h | 3025m | 6.0m/s | 3.0°C | 45.0% | 713.2hPa | 2.9V | 00:00:00 | 00:00:00 | 00:00:00 | |
| DM3KS-11 | 2026-09-01 16:53:31 | 49.69566 | 7.37469 | 123° | 46km/h | 2989m | 5.4m/s | 3.2°C | 42.9% | 716.4hPa | 2.9V | 00:00:00 | 00:00:00 | 00:00:00 | |
| DB0UT-7 | 2026-09-01 16:53:29 | 49.69579 | 7.37439 | 121° | 44km/h | 2979m | 5.1m/s | 3.2°C | 42.7% | 717.3hPa | 2.9V | 00:00:00 | 00:00:00 | 00:00:00 | |
| HEMX73-11 | 2026-09-01 16:53:26 | 49.69589 | 7.37406 | 112° | 47km/h | 2968m | 4.0m/s | 3.3°C | 41.5% | 718.3hPa | 2.9V | 04:55:00 | 00:00:00 | 00:00:00 | |
| DB0UT-9 | 2026-09-01 16:53:25 | 49.69594 | 7.37388 | 111° | 47km/h | 2963m | 4.7m/s | 3.3°C | 41.2% | 718.7hPa | 2.9V | 04:55:00 | 00:00:00 | 00:00:00 | |
| DL1ZP-14 | 2026-09-01 16:53:21 | 49.69620 | 7.37301 | 124° | 46km/h | 2938m | 4.7m/s | 3.5°C | 39.7% | 721.1hPa | 2.9V | 00:00:00 | 00:00:00 | 00:00:00 | |
| DB0ND-19 | 2026-09-01 16:53:14 | 49.69664 | 7.37203 | 115° | 42km/h | 2909m | 4.1m/s | 3.7°C | 38.4% | 723.8hPa | 2.9V | 00:00:00 | 00:00:00 | 00:00:00 | |
| DK5PH-5 | 2026-09-01 16:53:10 | 49.69676 | 7.37145 | 101° | 40km/h | 2884m | 4.3m/s | 0°C | 0% | 0hPa | 2.9V | 00:00:00 | 00:23:27 | 00:00:00 | |
| CB1BUN | 2026-09-01 16:53:08 | 49.69677 | 7.37131 | 102° | 37km/h | 2880m | 4.6m/s | 3.9°C | 37.2% | 726.3hPa | 2.9V | 04:55:00 | 00:00:00 | 00:00:00 | |
| DL9PN | 2026-09-01 16:53:07 | 49.69685 | 7.37089 | 107° | 38km/h | 2867m | 4.4m/s | 4.0°C | 36.5% | 727.5hPa | 2.9V | 00:00:00 | 00:00:00 | 00:00:00 | |
| HEMX73-11 | 2026-09-01 16:53:05 | 49.69685 | 7.37089 | 108° | 38km/h | 2867m | 4.4m/s | 4.0°C | 36.5% | 727.5hPa | 2.9V | 04:55:00 | 00:00:00 | 00:00:00 | |
| DB0UT-9 | 2026-09-01 16:53:04 | 49.69688 | 7.37074 | 106° | 44km/h | 2862m | 6.2m/s | 4.0°C | 36.1% | 727.9hPa | 2.9V | 04:55:00 | 00:00:00 | 00:00:00 | |
| DM3KS-11 | 2026-09-01 16:53:00 | 49.69699 | 7.36985 | 100° | 42km/h | 2841m | 5.4m/s | 4.0°C | 36.7% | 729.9hPa | 2.9V | 00:00:00 | 00:00:00 | 00:00:00 | |
| DL1ZP-14 | 2026-09-01 16:52:50 | 49.69731 | 7.36845 | 99° | 42km/h | 2788m | 4.2m/s | 4.2°C | 36.6% | 734.6hPa | 2.9V | 00:00:00 | 00:00:00 | 00:00:00 | |
| CB1BUN | 2026-09-01 16:52:47 | 49.69734 | 7.36812 | 94° | 44km/h | 2777m | 8.1m/s | 4.1°C | 36.1% | 735.5hPa | 2.9V | 04:55:00 | 00:00:00 | 00:00:00 | |
| HEMX73-11 | 2026-09-01 16:52:45 | 49.69735 | 7.36781 | 101° | 37km/h | 2765m | 3.9m/s | 4.1°C | 39.1% | 736.6hPa | 2.9V | 04:55:00 | 00:00:00 | 00:00:00 | |
| DB0UT-9 | 2026-09-01 16:52:44 | 49.69738 | 7.36767 | 106° | 37km/h | 2761m | 4.3m/s | 4.2°C | 38.9% | 737.0hPa | 2.9V | 04:55:00 | 00:00:00 | 00:00:00 | |
| DB0ND-19 | 2026-09-01 16:52:43 | 49.69747 | 7.36726 | 107° | 38km/h | 2744m | 7.8m/s | 4.2°C | 42.6% | 738.4hPa | 2.9V | 00:00:00 | 00:00:00 | 00:00:00 | |
| DK5PH-5 | 2026-09-01 16:52:40 | 49.69753 | 7.36694 | 110° | 42km/h | 2733m | 5.7m/s | 0°C | 0% | 0hPa | 2.9V | 04:55:00 | 00:22:57 | 00:00:00 | |
| DL9PN | 2026-09-01 16:52:36 | 49.69776 | 7.36621 | 106° | 37km/h | 2707m | 5.3m/s | 4.5°C | 46.7% | 741.9hPa | 2.9V | 00:00:00 | 00:00:00 | 00:00:00 | |
| DB0UT-7 | 2026-09-01 16:52:29 | 49.69799 | 7.36525 | 119° | 40km/h | 2674m | 5.5m/s | 4.6°C | 47.4% | 744.9hPa | 2.9V | 00:00:00 | 00:00:00 | 00:00:00 | |
| CB1BUN | 2026-09-01 16:52:27 | 49.69803 | 7.36511 | 112° | 37km/h | 2668m | 5.9m/s | 4.7°C | 47.3% | 745.4hPa | 2.9V | 04:56:00 | 00:00:00 | 00:00:00 | |
| DB0UT-9 | 2026-09-01 16:52:24 | 49.69809 | 7.36464 | 100° | 49km/h | 2651m | 6.1m/s | 4.9°C | 46.7% | 747.1hPa | 2.9V | 04:56:00 | 00:00:00 | 00:00:00 | |
| DL1ZP-14 | 2026-09-01 16:52:19 | 49.69829 | 7.36356 | 108° | 37km/h | 2614m | 5.6m/s | 5.1°C | 44.1% | 750.2hPa | 2.9V | 00:00:00 | 00:00:00 | 00:00:00 | |
| DB0ND-19 | 2026-09-01 16:52:12 | 49.69848 | 7.36250 | 105° | 35km/h | 2573m | 5.9m/s | 5.4°C | 42.7% | 753.9hPa | 2.9V | 00:00:00 | 00:00:00 | 00:00:00 | |
| CB1BUN | 2026-09-01 16:52:07 | 49.69856 | 7.36205 | 106° | 42km/h | 2553m | 5.8m/s | 5.4°C | 41.2% | 755.8hPa | 2.9V | 04:56:00 | 00:00:00 | 00:00:00 | |
| DB0UT-9 | 2026-09-01 16:52:04 | 49.69863 | 7.36163 | 96° | 33km/h | 2535m | 6.3m/s | 5.3°C | 39.3% | 757.5hPa | 2.9V | 04:56:00 | 00:00:00 | 00:00:00 | |
| DF7PN | 2026-09-01 16:51:58 | 49.69862 | 7.36064 | 101° | 33km/h | 2494m | 5.4m/s | 5.3°C | 38.0% | 761.5hPa | 2.9V | 00:00:00 | 00:00:00 | 00:00:00 | |
| DL1ZP-14 | 2026-09-01 16:51:48 | 49.69877 | 7.35868 | 100° | 44km/h | 2422m | 4.7m/s | 4.6°C | 47.2% | 768.1hPa | 2.9V | 00:00:00 | 00:00:00 | 00:00:00 | |
| CB1BUN | 2026-09-01 16:51:47 | 49.69872 | 7.35900 | 103° | 40km/h | 2433m | 4.8m/s | 5.0°C | 45.0% | 767.3hPa | 2.9V | 04:57:00 | 00:00:00 | 00:00:00 | |
| HEMX73-11 | 2026-09-01 16:51:43 | 49.69878 | 7.35851 | 98° | 46km/h | 2417m | 6.4m/s | 4.2°C | 0% | 768.7hPa | 2.9V | 04:57:00 | 00:00:00 | 00:00:00 | |
| DB0ND-19 | 2026-09-01 16:51:41 | 49.69878 | 7.35785 | 84° | 40km/h | 2391m | 6.9m/s | 4.1°C | 53.2% | 771.2hPa | 2.9V | 00:00:00 | 00:00:00 | 00:00:00 | |
| DL9PN | 2026-09-01 16:51:33 | 49.69870 | 7.35686 | 83° | 37km/h | 2346m | 5.5m/s | 4.2°C | 65.0% | 775.4hPa | 2.9V | 00:00:00 | 00:00:00 | 00:00:00 | |
| DB0UT-7 | 2026-09-01 16:51:29 | 49.69867 | 7.35630 | 82° | 42km/h | 2321m | 5.6m/s | 4.2°C | 68.0% | 777.8hPa | 2.9V | 00:00:00 | 00:00:00 | 00:00:00 | |
| DF7PN | 2026-09-01 16:51:27 | 49.69863 | 7.35601 | 75° | 37km/h | 2309m | 5.2m/s | 4.3°C | 71.8% | 779.1hPa | 2.9V | 00:00:00 | 00:00:00 | 00:00:00 | |
| CB1BUN | 2026-09-01 16:51:25 | 49.69860 | 7.35587 | 74° | 38km/h | 2304m | 4.7m/s | 4.3°C | 71.9% | 779.5hPa | 2.9V | 04:57:00 | 00:00:00 | 00:00:00 | |
| DB0UT-9 | 2026-09-01 16:51:23 | 49.69855 | 7.35556 | 75° | 46km/h | 2291m | 6.7m/s | 4.3°C | 75.3% | 780.8hPa | 2.9V | 04:57:00 | 00:00:00 | 00:00:00 | |
| HEMX73-11 | 2026-09-01 16:51:20 | 49.69843 | 7.35503 | 71° | 46km/h | 2275m | 5.6m/s | 4.5°C | 0% | 782.3hPa | 2.9V | 04:57:00 | 00:00:00 | 00:00:00 | |
| DL1ZP-14 | 2026-09-01 16:51:17 | 49.69837 | 7.35440 | 85° | 40km/h | 2250m | 8.7m/s | 4.7°C | 73.7% | 784.7hPa | 2.9V | 00:00:00 | 00:00:00 | 00:00:00 | |
| DB0ND-19 | 2026-09-01 16:51:10 | 49.69810 | 7.35321 | 66° | 37km/h | 2197m | 7.9m/s | 5.0°C | 80.7% | 789.8hPa | 2.9V | 00:00:00 | 00:00:00 | 00:00:00 | |
| CB1BUN | 2026-09-01 16:51:04 | 49.69797 | 7.35263 | 71° | 46km/h | 2173m | 6.2m/s | 5.2°C | 80.0% | 792.3hPa | 2.9V | 04:57:00 | 00:00:00 | 00:00:00 | |
| DM3KS-11 | 2026-09-01 16:50:58 | 49.69758 | 7.35115 | 72° | 40km/h | 2115m | 7.6m/s | 0°C | -1.0% | -1.0hPa | 2.9V | 00:00:00 | 00:00:00 | 00:00:00 | |
| DF7PN | 2026-09-01 16:50:56 | 49.69758 | 7.35115 | 72° | 40km/h | 2115m | 7.6m/s | 5.5°C | 85.6% | 797.6hPa | 2.9V | 00:00:00 | 00:00:00 | 00:00:00 | |
| DL1ZP-14 | 2026-09-01 16:50:46 | 49.69718 | 7.34969 | 62° | 35km/h | 2056m | 5.5m/s | 5.7°C | 89.4% | 803.5hPa | 2.9V | 00:00:00 | 00:00:00 | 00:00:00 | |
| Es werden nur die letzten 3500 von 3575 Frames angezeigt. GPX/KML und Diagramme bleiben verfügbar. | |||||||||||||||